<?xml version="1.0" encoding="UTF-8"?>
<gpx creator="Wikiloc - https://www.wikiloc.com" version="1.1" xmlns="http://www.topografix.com/GPX/1/1" xmlns:xsi="http://www.w3.org/2001/XMLSchema-instance" xsi:schemaLocation="http://www.topografix.com/GPX/1/1 http://www.topografix.com/GPX/1/1/gpx.xsd">
  <metadata>
    <name>Wikiloc - Les Loges-sur-Brécey</name>
    <author>
      <name>scalpa98</name>
      <link href="https://www.wikiloc.com/wikiloc/user.do?id=3464583">
        <text>scalpa98 on Wikiloc</text>
      </link>
    </author>
    <link href="https://www.wikiloc.com/hiking-trails/les-loges-sur-brecey-281864857">
      <text>Les Loges-sur-Brécey on Wikiloc</text>
    </link>
    <time>2026-08-24T15:26:46.999Z</time>
  </metadata>
  <trk>
    <name>Les Loges-sur-Brécey - Wikiloc</name>
    <cmt>Les Loges-sur-Brécey et Saint-Martin-le-Bouillant circuit en boucle.
Peu de vaches dans les champs avec cette canicule, les prés ressemblent à des green plutôt yellow.</cmt>
    <desc>Les Loges-sur-Brécey et Saint-Martin-le-Bouillant circuit en boucle.
Peu de vaches dans les champs avec cette canicule, les prés ressemblent à des green plutôt yellow.</desc>
    <trkseg>
      <trkpt lat="48.765036" lon="-1.174840">
        <ele>138.532</ele>
        <time>2026-08-24T12:29:06.999Z</time>
      </trkpt>
      <trkpt lat="48.765031" lon="-1.174827">
        <ele>138.492</ele>
        <time>2026-08-24T12:29:07.999Z</time>
      </trkpt>
      <trkpt lat="48.765027" lon="-1.174808">
        <ele>138.211</ele>
        <time>2026-08-24T12:29:09.999Z</time>
      </trkpt>
      <trkpt lat="48.765028" lon="-1.174795">
        <ele>138.009</ele>
        <time>2026-08-24T12:29:10.999Z</time>
      </trkpt>
      <trkpt lat="48.765028" lon="-1.174780">
        <ele>137.845</ele>
        <time>2026-08-24T12:29:11.999Z</time>
      </trkpt>
      <trkpt lat="48.765028" lon="-1.174765">
        <ele>137.941</ele>
        <time>2026-08-24T12:29:12.999Z</time>
      </trkpt>
      <trkpt lat="48.765023" lon="-1.174751">
        <ele>137.854</ele>
        <time>2026-08-24T12:29:14.999Z</time>
      </trkpt>
      <trkpt lat="48.765014" lon="-1.174739">
        <ele>137.881</ele>
        <time>2026-08-24T12:29:16.999Z</time>
      </trkpt>
      <trkpt lat="48.765009" lon="-1.174728">
        <ele>137.739</ele>
        <time>2026-08-24T12:29:17.999Z</time>
      </trkpt>
      <trkpt lat="48.764998" lon="-1.174727">
        <ele>137.737</ele>
        <time>2026-08-24T12:29:19.999Z</time>
      </trkpt>
      <trkpt lat="48.764986" lon="-1.174722">
        <ele>137.761</ele>
        <time>2026-08-24T12:29:20.999Z</time>
      </trkpt>
      <trkpt lat="48.764976" lon="-1.174718">
        <ele>137.668</ele>
        <time>2026-08-24T12:29:21.999Z</time>
      </trkpt>
      <trkpt lat="48.764967" lon="-1.174713">
        <ele>137.520</ele>
        <time>2026-08-24T12:29:22.999Z</time>
      </trkpt>
      <trkpt lat="48.764956" lon="-1.174712">
        <ele>137.395</ele>
        <time>2026-08-24T12:29:23.999Z</time>
      </trkpt>
      <trkpt lat="48.764944" lon="-1.174711">
        <ele>137.149</ele>
        <time>2026-08-24T12:29:24.999Z</time>
      </trkpt>
      <trkpt lat="48.764932" lon="-1.174712">
        <ele>137.123</ele>
        <time>2026-08-24T12:29:25.999Z</time>
      </trkpt>
      <trkpt lat="48.764922" lon="-1.174716">
        <ele>137.109</ele>
        <time>2026-08-24T12:29:26.999Z</time>
      </trkpt>
      <trkpt lat="48.764903" lon="-1.174717">
        <ele>137.031</ele>
        <time>2026-08-24T12:29:28.999Z</time>
      </trkpt>
      <trkpt lat="48.764894" lon="-1.174717">
        <ele>137.037</ele>
        <time>2026-08-24T12:29:29.999Z</time>
      </trkpt>
      <trkpt lat="48.764877" lon="-1.174715">
        <ele>137.040</ele>
        <time>2026-08-24T12:29:31.999Z</time>
      </trkpt>
      <trkpt lat="48.764867" lon="-1.174718">
        <ele>137.177</ele>
        <time>2026-08-24T12:29:32.999Z</time>
      </trkpt>
      <trkpt lat="48.764857" lon="-1.174728">
        <ele>137.155</ele>
        <time>2026-08-24T12:29:34.999Z</time>
      </trkpt>
      <trkpt lat="48.764859" lon="-1.174702">
        <ele>137.183</ele>
        <time>2026-08-24T12:29:36.999Z</time>
      </trkpt>
      <trkpt lat="48.764846" lon="-1.174696">
        <ele>137.337</ele>
        <time>2026-08-24T12:29:39.999Z</time>
      </trkpt>
      <trkpt lat="48.764836" lon="-1.174698">
        <ele>137.534</ele>
        <time>2026-08-24T12:29:40.999Z</time>
      </trkpt>
      <trkpt lat="48.764833" lon="-1.174710">
        <ele>137.356</ele>
        <time>2026-08-24T12:30:02.999Z</time>
      </trkpt>
      <trkpt lat="48.764839" lon="-1.174700">
        <ele>134.592</ele>
        <time>2026-08-24T12:30:34.999Z</time>
      </trkpt>
      <trkpt lat="48.764850" lon="-1.174700">
        <ele>134.573</ele>
        <time>2026-08-24T12:30:36.999Z</time>
      </trkpt>
      <trkpt lat="48.764859" lon="-1.174703">
        <ele>134.520</ele>
        <time>2026-08-24T12:30:37.999Z</time>
      </trkpt>
      <trkpt lat="48.764875" lon="-1.174718">
        <ele>134.609</ele>
        <time>2026-08-24T12:30:39.999Z</time>
      </trkpt>
      <trkpt lat="48.764891" lon="-1.174733">
        <ele>134.641</ele>
        <time>2026-08-24T12:30:41.999Z</time>
      </trkpt>
      <trkpt lat="48.764900" lon="-1.174742">
        <ele>134.717</ele>
        <time>2026-08-24T12:30:42.999Z</time>
      </trkpt>
      <trkpt lat="48.764911" lon="-1.174760">
        <ele>134.760</ele>
        <time>2026-08-24T12:30:44.999Z</time>
      </trkpt>
      <trkpt lat="48.764920" lon="-1.174781">
        <ele>134.797</ele>
        <time>2026-08-24T12:30:46.999Z</time>
      </trkpt>
      <trkpt lat="48.764927" lon="-1.174794">
        <ele>134.865</ele>
        <time>2026-08-24T12:30:47.999Z</time>
      </trkpt>
      <trkpt lat="48.764933" lon="-1.174805">
        <ele>134.843</ele>
        <time>2026-08-24T12:30:48.999Z</time>
      </trkpt>
      <trkpt lat="48.764936" lon="-1.174818">
        <ele>134.987</ele>
        <time>2026-08-24T12:30:49.999Z</time>
      </trkpt>
      <trkpt lat="48.764946" lon="-1.174839">
        <ele>134.944</ele>
        <time>2026-08-24T12:30:51.999Z</time>
      </trkpt>
      <trkpt lat="48.764951" lon="-1.174862">
        <ele>134.966</ele>
        <time>2026-08-24T12:30:53.999Z</time>
      </trkpt>
      <trkpt lat="48.764958" lon="-1.174882">
        <ele>135.139</ele>
        <time>2026-08-24T12:30:55.999Z</time>
      </trkpt>
      <trkpt lat="48.764963" lon="-1.174905">
        <ele>135.201</ele>
        <time>2026-08-24T12:30:57.999Z</time>
      </trkpt>
      <trkpt lat="48.764972" lon="-1.174924">
        <ele>135.221</ele>
        <time>2026-08-24T12:30:59.999Z</time>
      </trkpt>
      <trkpt lat="48.764980" lon="-1.174946">
        <ele>135.209</ele>
        <time>2026-08-24T12:31:01.999Z</time>
      </trkpt>
      <trkpt lat="48.764987" lon="-1.174967">
        <ele>135.215</ele>
        <time>2026-08-24T12:31:03.999Z</time>
      </trkpt>
      <trkpt lat="48.764991" lon="-1.174980">
        <ele>135.281</ele>
        <time>2026-08-24T12:31:04.999Z</time>
      </trkpt>
      <trkpt lat="48.764996" lon="-1.174993">
        <ele>135.244</ele>
        <time>2026-08-24T12:31:05.999Z</time>
      </trkpt>
      <trkpt lat="48.765003" lon="-1.175018">
        <ele>135.271</ele>
        <time>2026-08-24T12:31:07.999Z</time>
      </trkpt>
      <trkpt lat="48.765013" lon="-1.175043">
        <ele>135.239</ele>
        <time>2026-08-24T12:31:09.999Z</time>
      </trkpt>
      <trkpt lat="48.765013" lon="-1.175066">
        <ele>135.347</ele>
        <time>2026-08-24T12:31:11.999Z</time>
      </trkpt>
      <trkpt lat="48.765000" lon="-1.175081">
        <ele>135.341</ele>
        <time>2026-08-24T12:31:13.999Z</time>
      </trkpt>
      <trkpt lat="48.764999" lon="-1.175097">
        <ele>135.328</ele>
        <time>2026-08-24T12:31:19.999Z</time>
      </trkpt>
      <trkpt lat="48.765011" lon="-1.175103">
        <ele>135.340</ele>
        <time>2026-08-24T12:31:21.999Z</time>
      </trkpt>
      <trkpt lat="48.765023" lon="-1.175119">
        <ele>135.367</ele>
        <time>2026-08-24T12:31:23.999Z</time>
      </trkpt>
      <trkpt lat="48.765036" lon="-1.175122">
        <ele>135.981</ele>
        <time>2026-08-24T12:32:13.999Z</time>
      </trkpt>
      <trkpt lat="48.765052" lon="-1.175135">
        <ele>135.919</ele>
        <time>2026-08-24T12:32:14.999Z</time>
      </trkpt>
      <trkpt lat="48.765061" lon="-1.175148">
        <ele>135.909</ele>
        <time>2026-08-24T12:32:15.999Z</time>
      </trkpt>
      <trkpt lat="48.765058" lon="-1.175169">
        <ele>135.948</ele>
        <time>2026-08-24T12:32:17.999Z</time>
      </trkpt>
      <trkpt lat="48.765058" lon="-1.175189">
        <ele>135.914</ele>
        <time>2026-08-24T12:32:18.999Z</time>
      </trkpt>
      <trkpt lat="48.765062" lon="-1.175215">
        <ele>136.037</ele>
        <time>2026-08-24T12:32:19.999Z</time>
      </trkpt>
      <trkpt lat="48.765072" lon="-1.175235">
        <ele>136.294</ele>
        <time>2026-08-24T12:32:20.999Z</time>
      </trkpt>
      <trkpt lat="48.765084" lon="-1.175252">
        <ele>136.322</ele>
        <time>2026-08-24T12:32:22.999Z</time>
      </trkpt>
      <trkpt lat="48.765093" lon="-1.175259">
        <ele>136.560</ele>
        <time>2026-08-24T12:32:23.999Z</time>
      </trkpt>
      <trkpt lat="48.765102" lon="-1.175265">
        <ele>136.714</ele>
        <time>2026-08-24T12:32:24.999Z</time>
      </trkpt>
      <trkpt lat="48.765110" lon="-1.175290">
        <ele>136.841</ele>
        <time>2026-08-24T12:32:26.999Z</time>
      </trkpt>
      <trkpt lat="48.765110" lon="-1.175307">
        <ele>136.943</ele>
        <time>2026-08-24T12:32:29.999Z</time>
      </trkpt>
      <trkpt lat="48.765114" lon="-1.175322">
        <ele>137.047</ele>
        <time>2026-08-24T12:32:31.999Z</time>
      </trkpt>
      <trkpt lat="48.765131" lon="-1.175327">
        <ele>137.029</ele>
        <time>2026-08-24T12:32:32.999Z</time>
      </trkpt>
      <trkpt lat="48.765143" lon="-1.175325">
        <ele>137.121</ele>
        <time>2026-08-24T12:32:33.999Z</time>
      </trkpt>
      <trkpt lat="48.765153" lon="-1.175314">
        <ele>137.109</ele>
        <time>2026-08-24T12:32:34.999Z</time>
      </trkpt>
      <trkpt lat="48.765162" lon="-1.175284">
        <ele>137.196</ele>
        <time>2026-08-24T12:32:35.999Z</time>
      </trkpt>
      <trkpt lat="48.765166" lon="-1.175261">
        <ele>137.122</ele>
        <time>2026-08-24T12:32:36.999Z</time>
      </trkpt>
      <trkpt lat="48.765174" lon="-1.175243">
        <ele>137.115</ele>
        <time>2026-08-24T12:32:38.999Z</time>
      </trkpt>
      <trkpt lat="48.765165" lon="-1.175237">
        <ele>137.382</ele>
        <time>2026-08-24T12:32:49.999Z</time>
      </trkpt>
      <trkpt lat="48.765165" lon="-1.175223">
        <ele>137.550</ele>
        <time>2026-08-24T12:32:54.999Z</time>
      </trkpt>
      <trkpt lat="48.765161" lon="-1.175237">
        <ele>137.988</ele>
        <time>2026-08-24T12:33:00.999Z</time>
      </trkpt>
      <trkpt lat="48.765164" lon="-1.175254">
        <ele>138.422</ele>
        <time>2026-08-24T12:33:04.999Z</time>
      </trkpt>
      <trkpt lat="48.765170" lon="-1.175269">
        <ele>138.459</ele>
        <time>2026-08-24T12:33:05.999Z</time>
      </trkpt>
      <trkpt lat="48.765174" lon="-1.175284">
        <ele>138.461</ele>
        <time>2026-08-24T12:33:06.999Z</time>
      </trkpt>
      <trkpt lat="48.765180" lon="-1.175314">
        <ele>138.481</ele>
        <time>2026-08-24T12:33:08.999Z</time>
      </trkpt>
      <trkpt lat="48.765198" lon="-1.175328">
        <ele>138.461</ele>
        <time>2026-08-24T12:33:10.999Z</time>
      </trkpt>
      <trkpt lat="48.765212" lon="-1.175331">
        <ele>138.417</ele>
        <time>2026-08-24T12:33:12.999Z</time>
      </trkpt>
      <trkpt lat="48.765229" lon="-1.175345">
        <ele>138.509</ele>
        <time>2026-08-24T12:33:14.999Z</time>
      </trkpt>
      <trkpt lat="48.765242" lon="-1.175353">
        <ele>138.530</ele>
        <time>2026-08-24T12:33:15.999Z</time>
      </trkpt>
      <trkpt lat="48.765251" lon="-1.175361">
        <ele>138.596</ele>
        <time>2026-08-24T12:33:16.999Z</time>
      </trkpt>
      <trkpt lat="48.765262" lon="-1.175374">
        <ele>138.569</ele>
        <time>2026-08-24T12:33:18.999Z</time>
      </trkpt>
      <trkpt lat="48.765273" lon="-1.175385">
        <ele>138.576</ele>
        <time>2026-08-24T12:33:19.999Z</time>
      </trkpt>
      <trkpt lat="48.765291" lon="-1.175399">
        <ele>138.654</ele>
        <time>2026-08-24T12:33:21.999Z</time>
      </trkpt>
      <trkpt lat="48.765302" lon="-1.175403">
        <ele>138.612</ele>
        <time>2026-08-24T12:33:22.999Z</time>
      </trkpt>
      <trkpt lat="48.765317" lon="-1.175404">
        <ele>138.796</ele>
        <time>2026-08-24T12:33:24.999Z</time>
      </trkpt>
      <trkpt lat="48.765326" lon="-1.175408">
        <ele>138.763</ele>
        <time>2026-08-24T12:33:25.999Z</time>
      </trkpt>
      <trkpt lat="48.765344" lon="-1.175404">
        <ele>138.745</ele>
        <time>2026-08-24T12:33:27.999Z</time>
      </trkpt>
      <trkpt lat="48.765355" lon="-1.175384">
        <ele>138.842</ele>
        <time>2026-08-24T12:33:29.999Z</time>
      </trkpt>
      <trkpt lat="48.765351" lon="-1.175400">
        <ele>138.922</ele>
        <time>2026-08-24T12:33:43.999Z</time>
      </trkpt>
      <trkpt lat="48.765354" lon="-1.175376">
        <ele>138.914</ele>
        <time>2026-08-24T12:33:45.999Z</time>
      </trkpt>
      <trkpt lat="48.765361" lon="-1.175362">
        <ele>139.009</ele>
        <time>2026-08-24T12:33:46.999Z</time>
      </trkpt>
      <trkpt lat="48.765371" lon="-1.175360">
        <ele>139.076</ele>
        <time>2026-08-24T12:33:48.999Z</time>
      </trkpt>
      <trkpt lat="48.765379" lon="-1.175337">
        <ele>139.072</ele>
        <time>2026-08-24T12:33:51.999Z</time>
      </trkpt>
      <trkpt lat="48.765385" lon="-1.175324">
        <ele>139.035</ele>
        <time>2026-08-24T12:33:52.999Z</time>
      </trkpt>
      <trkpt lat="48.765391" lon="-1.175301">
        <ele>139.032</ele>
        <time>2026-08-24T12:33:54.999Z</time>
      </trkpt>
      <trkpt lat="48.765398" lon="-1.175291">
        <ele>139.060</ele>
        <time>2026-08-24T12:33:55.999Z</time>
      </trkpt>
      <trkpt lat="48.765400" lon="-1.175272">
        <ele>139.048</ele>
        <time>2026-08-24T12:33:57.999Z</time>
      </trkpt>
      <trkpt lat="48.765407" lon="-1.175265">
        <ele>139.062</ele>
        <time>2026-08-24T12:34:19.999Z</time>
      </trkpt>
      <trkpt lat="48.765415" lon="-1.175273">
        <ele>139.279</ele>
        <time>2026-08-24T12:34:21.999Z</time>
      </trkpt>
      <trkpt lat="48.765406" lon="-1.175289">
        <ele>139.541</ele>
        <time>2026-08-24T12:34:27.999Z</time>
      </trkpt>
      <trkpt lat="48.765415" lon="-1.175296">
        <ele>139.784</ele>
        <time>2026-08-24T12:34:31.999Z</time>
      </trkpt>
      <trkpt lat="48.765411" lon="-1.175282">
        <ele>140.007</ele>
        <time>2026-08-24T12:34:46.999Z</time>
      </trkpt>
      <trkpt lat="48.765422" lon="-1.175287">
        <ele>140.017</ele>
        <time>2026-08-24T12:34:51.999Z</time>
      </trkpt>
      <trkpt lat="48.765411" lon="-1.175289">
        <ele>140.109</ele>
        <time>2026-08-24T12:35:13.999Z</time>
      </trkpt>
      <trkpt lat="48.765398" lon="-1.175284">
        <ele>140.260</ele>
        <time>2026-08-24T12:35:20.999Z</time>
      </trkpt>
      <trkpt lat="48.765387" lon="-1.175275">
        <ele>143.926</ele>
        <time>2026-08-24T12:36:38.999Z</time>
      </trkpt>
      <trkpt lat="48.765381" lon="-1.175264">
        <ele>144.089</ele>
        <time>2026-08-24T12:36:40.999Z</time>
      </trkpt>
      <trkpt lat="48.765381" lon="-1.175283">
        <ele>143.986</ele>
        <time>2026-08-24T12:36:58.999Z</time>
      </trkpt>
      <trkpt lat="48.765383" lon="-1.175305">
        <ele>143.674</ele>
        <time>2026-08-24T12:37:00.999Z</time>
      </trkpt>
      <trkpt lat="48.765373" lon="-1.175312">
        <ele>143.322</ele>
        <time>2026-08-24T12:37:02.999Z</time>
      </trkpt>
      <trkpt lat="48.765367" lon="-1.175324">
        <ele>143.156</ele>
        <time>2026-08-24T12:37:03.999Z</time>
      </trkpt>
      <trkpt lat="48.765357" lon="-1.175331">
        <ele>142.893</ele>
        <time>2026-08-24T12:37:05.999Z</time>
      </trkpt>
      <trkpt lat="48.765349" lon="-1.175340">
        <ele>142.715</ele>
        <time>2026-08-24T12:37:30.999Z</time>
      </trkpt>
      <trkpt lat="48.765338" lon="-1.175337">
        <ele>142.568</ele>
        <time>2026-08-24T12:37:31.999Z</time>
      </trkpt>
      <trkpt lat="48.765329" lon="-1.175331">
        <ele>142.742</ele>
        <time>2026-08-24T12:37:37.999Z</time>
      </trkpt>
      <trkpt lat="48.765329" lon="-1.175316">
        <ele>142.826</ele>
        <time>2026-08-24T12:37:51.999Z</time>
      </trkpt>
      <trkpt lat="48.765341" lon="-1.175319">
        <ele>143.109</ele>
        <time>2026-08-24T12:38:01.999Z</time>
      </trkpt>
      <trkpt lat="48.765350" lon="-1.175324">
        <ele>143.368</ele>
        <time>2026-08-24T12:38:04.999Z</time>
      </trkpt>
      <trkpt lat="48.765359" lon="-1.175313">
        <ele>143.384</ele>
        <time>2026-08-24T12:38:06.999Z</time>
      </trkpt>
      <trkpt lat="48.765364" lon="-1.175301">
        <ele>143.387</ele>
        <time>2026-08-24T12:38:08.999Z</time>
      </trkpt>
      <trkpt lat="48.765366" lon="-1.175286">
        <ele>143.344</ele>
        <time>2026-08-24T12:38:10.999Z</time>
      </trkpt>
      <trkpt lat="48.765376" lon="-1.175285">
        <ele>143.352</ele>
        <time>2026-08-24T12:38:25.999Z</time>
      </trkpt>
      <trkpt lat="48.765384" lon="-1.175294">
        <ele>143.330</ele>
        <time>2026-08-24T12:38:27.999Z</time>
      </trkpt>
      <trkpt lat="48.765388" lon="-1.175309">
        <ele>143.394</ele>
        <time>2026-08-24T12:38:37.999Z</time>
      </trkpt>
      <trkpt lat="48.765396" lon="-1.175316">
        <ele>143.161</ele>
        <time>2026-08-24T12:38:54.999Z</time>
      </trkpt>
      <trkpt lat="48.765404" lon="-1.175326">
        <ele>142.813</ele>
        <time>2026-08-24T12:38:55.999Z</time>
      </trkpt>
      <trkpt lat="48.765407" lon="-1.175340">
        <ele>142.717</ele>
        <time>2026-08-24T12:38:56.999Z</time>
      </trkpt>
      <trkpt lat="48.765401" lon="-1.175353">
        <ele>142.587</ele>
        <time>2026-08-24T12:38:58.999Z</time>
      </trkpt>
      <trkpt lat="48.765399" lon="-1.175380">
        <ele>142.415</ele>
        <time>2026-08-24T12:38:59.999Z</time>
      </trkpt>
      <trkpt lat="48.765389" lon="-1.175407">
        <ele>142.409</ele>
        <time>2026-08-24T12:39:01.999Z</time>
      </trkpt>
      <trkpt lat="48.765382" lon="-1.175427">
        <ele>142.433</ele>
        <time>2026-08-24T12:39:03.999Z</time>
      </trkpt>
      <trkpt lat="48.765387" lon="-1.175443">
        <ele>142.499</ele>
        <time>2026-08-24T12:39:05.999Z</time>
      </trkpt>
      <trkpt lat="48.765387" lon="-1.175458">
        <ele>142.492</ele>
        <time>2026-08-24T12:39:06.999Z</time>
      </trkpt>
      <trkpt lat="48.765397" lon="-1.175456">
        <ele>142.479</ele>
        <time>2026-08-24T12:39:08.999Z</time>
      </trkpt>
      <trkpt lat="48.765412" lon="-1.175456">
        <ele>142.367</ele>
        <time>2026-08-24T12:39:11.999Z</time>
      </trkpt>
      <trkpt lat="48.765417" lon="-1.175468">
        <ele>141.795</ele>
        <time>2026-08-24T12:39:12.999Z</time>
      </trkpt>
      <trkpt lat="48.765426" lon="-1.175486">
        <ele>141.319</ele>
        <time>2026-08-24T12:39:14.999Z</time>
      </trkpt>
      <trkpt lat="48.765419" lon="-1.175505">
        <ele>141.096</ele>
        <time>2026-08-24T12:39:17.999Z</time>
      </trkpt>
      <trkpt lat="48.765413" lon="-1.175517">
        <ele>140.488</ele>
        <time>2026-08-24T12:39:18.999Z</time>
      </trkpt>
      <trkpt lat="48.765413" lon="-1.175531">
        <ele>140.084</ele>
        <time>2026-08-24T12:39:20.999Z</time>
      </trkpt>
      <trkpt lat="48.765409" lon="-1.175545">
        <ele>140.007</ele>
        <time>2026-08-24T12:39:35.999Z</time>
      </trkpt>
      <trkpt lat="48.765398" lon="-1.175546">
        <ele>140.017</ele>
        <time>2026-08-24T12:39:39.999Z</time>
      </trkpt>
      <trkpt lat="48.765388" lon="-1.175548">
        <ele>140.009</ele>
        <time>2026-08-24T12:39:40.999Z</time>
      </trkpt>
      <trkpt lat="48.765374" lon="-1.175555">
        <ele>140.020</ele>
        <time>2026-08-24T12:39:42.999Z</time>
      </trkpt>
      <trkpt lat="48.765362" lon="-1.175559">
        <ele>140.016</ele>
        <time>2026-08-24T12:39:43.999Z</time>
      </trkpt>
      <trkpt lat="48.765347" lon="-1.175557">
        <ele>140.089</ele>
        <time>2026-08-24T12:39:44.999Z</time>
      </trkpt>
      <trkpt lat="48.765343" lon="-1.175569">
        <ele>140.026</ele>
        <time>2026-08-24T12:39:47.999Z</time>
      </trkpt>
      <trkpt lat="48.765346" lon="-1.175583">
        <ele>139.894</ele>
        <time>2026-08-24T12:40:00.999Z</time>
      </trkpt>
      <trkpt lat="48.765342" lon="-1.175596">
        <ele>139.872</ele>
        <time>2026-08-24T12:40:02.999Z</time>
      </trkpt>
      <trkpt lat="48.765332" lon="-1.175603">
        <ele>139.896</ele>
        <time>2026-08-24T12:40:03.999Z</time>
      </trkpt>
      <trkpt lat="48.765315" lon="-1.175603">
        <ele>139.883</ele>
        <time>2026-08-24T12:40:05.999Z</time>
      </trkpt>
      <trkpt lat="48.765305" lon="-1.175603">
        <ele>139.895</ele>
        <time>2026-08-24T12:40:06.999Z</time>
      </trkpt>
      <trkpt lat="48.765297" lon="-1.175591">
        <ele>139.864</ele>
        <time>2026-08-24T12:40:22.999Z</time>
      </trkpt>
      <trkpt lat="48.765286" lon="-1.175578">
        <ele>139.706</ele>
        <time>2026-08-24T12:40:24.999Z</time>
      </trkpt>
      <trkpt lat="48.765271" lon="-1.175580">
        <ele>139.616</ele>
        <time>2026-08-24T12:40:26.999Z</time>
      </trkpt>
      <trkpt lat="48.765255" lon="-1.175577">
        <ele>139.409</ele>
        <time>2026-08-24T12:40:28.999Z</time>
      </trkpt>
      <trkpt lat="48.765238" lon="-1.175574">
        <ele>139.468</ele>
        <time>2026-08-24T12:40:30.999Z</time>
      </trkpt>
      <trkpt lat="48.765222" lon="-1.175571">
        <ele>139.474</ele>
        <time>2026-08-24T12:40:32.999Z</time>
      </trkpt>
      <trkpt lat="48.765208" lon="-1.175565">
        <ele>139.337</ele>
        <time>2026-08-24T12:40:34.999Z</time>
      </trkpt>
      <trkpt lat="48.765193" lon="-1.175562">
        <ele>139.324</ele>
        <time>2026-08-24T12:40:36.999Z</time>
      </trkpt>
      <trkpt lat="48.765180" lon="-1.175571">
        <ele>139.372</ele>
        <time>2026-08-24T12:40:38.999Z</time>
      </trkpt>
      <trkpt lat="48.765170" lon="-1.175574">
        <ele>139.340</ele>
        <time>2026-08-24T12:40:40.999Z</time>
      </trkpt>
      <trkpt lat="48.765164" lon="-1.175587">
        <ele>139.324</ele>
        <time>2026-08-24T12:40:42.999Z</time>
      </trkpt>
      <trkpt lat="48.765166" lon="-1.175609">
        <ele>139.381</ele>
        <time>2026-08-24T12:40:47.999Z</time>
      </trkpt>
      <trkpt lat="48.765168" lon="-1.175625">
        <ele>139.313</ele>
        <time>2026-08-24T12:40:48.999Z</time>
      </trkpt>
      <trkpt lat="48.765169" lon="-1.175641">
        <ele>139.318</ele>
        <time>2026-08-24T12:40:49.999Z</time>
      </trkpt>
      <trkpt lat="48.765170" lon="-1.175657">
        <ele>139.398</ele>
        <time>2026-08-24T12:40:50.999Z</time>
      </trkpt>
      <trkpt lat="48.765172" lon="-1.175673">
        <ele>139.317</ele>
        <time>2026-08-24T12:40:51.999Z</time>
      </trkpt>
      <trkpt lat="48.765173" lon="-1.175690">
        <ele>139.309</ele>
        <time>2026-08-24T12:40:52.999Z</time>
      </trkpt>
      <trkpt lat="48.765175" lon="-1.175705">
        <ele>139.373</ele>
        <time>2026-08-24T12:40:53.999Z</time>
      </trkpt>
      <trkpt lat="48.765179" lon="-1.175720">
        <ele>139.299</ele>
        <time>2026-08-24T12:40:54.999Z</time>
      </trkpt>
      <trkpt lat="48.765182" lon="-1.175735">
        <ele>139.252</ele>
        <time>2026-08-24T12:40:55.999Z</time>
      </trkpt>
      <trkpt lat="48.765185" lon="-1.175748">
        <ele>139.049</ele>
        <time>2026-08-24T12:40:56.999Z</time>
      </trkpt>
      <trkpt lat="48.765188" lon="-1.175763">
        <ele>138.937</ele>
        <time>2026-08-24T12:40:57.999Z</time>
      </trkpt>
      <trkpt lat="48.765193" lon="-1.175777">
        <ele>138.655</ele>
        <time>2026-08-24T12:40:58.999Z</time>
      </trkpt>
      <trkpt lat="48.765196" lon="-1.175791">
        <ele>138.469</ele>
        <time>2026-08-24T12:40:59.999Z</time>
      </trkpt>
      <trkpt lat="48.765200" lon="-1.175805">
        <ele>138.356</ele>
        <time>2026-08-24T12:41:00.999Z</time>
      </trkpt>
      <trkpt lat="48.765202" lon="-1.175818">
        <ele>138.188</ele>
        <time>2026-08-24T12:41:01.999Z</time>
      </trkpt>
      <trkpt lat="48.765205" lon="-1.175834">
        <ele>138.132</ele>
        <time>2026-08-24T12:41:02.999Z</time>
      </trkpt>
      <trkpt lat="48.765210" lon="-1.175850">
        <ele>138.092</ele>
        <time>2026-08-24T12:41:04.999Z</time>
      </trkpt>
      <trkpt lat="48.765204" lon="-1.175826">
        <ele>137.911</ele>
        <time>2026-08-24T12:41:10.999Z</time>
      </trkpt>
      <trkpt lat="48.765201" lon="-1.175803">
        <ele>137.909</ele>
        <time>2026-08-24T12:41:12.999Z</time>
      </trkpt>
      <trkpt lat="48.765196" lon="-1.175785">
        <ele>137.835</ele>
        <time>2026-08-24T12:41:13.999Z</time>
      </trkpt>
      <trkpt lat="48.765194" lon="-1.175764">
        <ele>137.771</ele>
        <time>2026-08-24T12:41:14.999Z</time>
      </trkpt>
      <trkpt lat="48.765190" lon="-1.175744">
        <ele>137.754</ele>
        <time>2026-08-24T12:41:15.999Z</time>
      </trkpt>
      <trkpt lat="48.765185" lon="-1.175728">
        <ele>137.691</ele>
        <time>2026-08-24T12:41:16.999Z</time>
      </trkpt>
      <trkpt lat="48.765178" lon="-1.175712">
        <ele>137.619</ele>
        <time>2026-08-24T12:41:17.999Z</time>
      </trkpt>
      <trkpt lat="48.765172" lon="-1.175694">
        <ele>137.667</ele>
        <time>2026-08-24T12:41:18.999Z</time>
      </trkpt>
      <trkpt lat="48.765167" lon="-1.175676">
        <ele>137.621</ele>
        <time>2026-08-24T12:41:19.999Z</time>
      </trkpt>
      <trkpt lat="48.765164" lon="-1.175662">
        <ele>137.648</ele>
        <time>2026-08-24T12:41:20.999Z</time>
      </trkpt>
      <trkpt lat="48.765161" lon="-1.175648">
        <ele>137.580</ele>
        <time>2026-08-24T12:41:21.999Z</time>
      </trkpt>
      <trkpt lat="48.765156" lon="-1.175630">
        <ele>137.534</ele>
        <time>2026-08-24T12:41:22.999Z</time>
      </trkpt>
      <trkpt lat="48.765148" lon="-1.175609">
        <ele>137.555</ele>
        <time>2026-08-24T12:41:23.999Z</time>
      </trkpt>
      <trkpt lat="48.765143" lon="-1.175588">
        <ele>137.510</ele>
        <time>2026-08-24T12:41:24.999Z</time>
      </trkpt>
      <trkpt lat="48.765138" lon="-1.175570">
        <ele>137.409</ele>
        <time>2026-08-24T12:41:25.999Z</time>
      </trkpt>
      <trkpt lat="48.765135" lon="-1.175551">
        <ele>137.455</ele>
        <time>2026-08-24T12:41:26.999Z</time>
      </trkpt>
      <trkpt lat="48.765130" lon="-1.175530">
        <ele>137.361</ele>
        <time>2026-08-24T12:41:27.999Z</time>
      </trkpt>
      <trkpt lat="48.765125" lon="-1.175514">
        <ele>137.354</ele>
        <time>2026-08-24T12:41:28.999Z</time>
      </trkpt>
      <trkpt lat="48.765120" lon="-1.175497">
        <ele>137.381</ele>
        <time>2026-08-24T12:41:29.999Z</time>
      </trkpt>
      <trkpt lat="48.765116" lon="-1.175481">
        <ele>137.339</ele>
        <time>2026-08-24T12:41:30.999Z</time>
      </trkpt>
      <trkpt lat="48.765111" lon="-1.175466">
        <ele>137.347</ele>
        <time>2026-08-24T12:41:31.999Z</time>
      </trkpt>
      <trkpt lat="48.765106" lon="-1.175451">
        <ele>137.311</ele>
        <time>2026-08-24T12:41:32.999Z</time>
      </trkpt>
      <trkpt lat="48.765100" lon="-1.175437">
        <ele>137.398</ele>
        <time>2026-08-24T12:41:33.999Z</time>
      </trkpt>
      <trkpt lat="48.765095" lon="-1.175420">
        <ele>137.330</ele>
        <time>2026-08-24T12:41:34.999Z</time>
      </trkpt>
      <trkpt lat="48.765091" lon="-1.175404">
        <ele>137.365</ele>
        <time>2026-08-24T12:41:35.999Z</time>
      </trkpt>
      <trkpt lat="48.765085" lon="-1.175388">
        <ele>137.268</ele>
        <time>2026-08-24T12:41:36.999Z</time>
      </trkpt>
      <trkpt lat="48.765080" lon="-1.175372">
        <ele>137.214</ele>
        <time>2026-08-24T12:41:37.999Z</time>
      </trkpt>
      <trkpt lat="48.765075" lon="-1.175357">
        <ele>137.209</ele>
        <time>2026-08-24T12:41:38.999Z</time>
      </trkpt>
      <trkpt lat="48.765070" lon="-1.175339">
        <ele>137.278</ele>
        <time>2026-08-24T12:41:39.999Z</time>
      </trkpt>
      <trkpt lat="48.765063" lon="-1.175325">
        <ele>137.264</ele>
        <time>2026-08-24T12:41:40.999Z</time>
      </trkpt>
      <trkpt lat="48.765056" lon="-1.175310">
        <ele>137.267</ele>
        <time>2026-08-24T12:41:41.999Z</time>
      </trkpt>
      <trkpt lat="48.765049" lon="-1.175292">
        <ele>137.324</ele>
        <time>2026-08-24T12:41:42.999Z</time>
      </trkpt>
      <trkpt lat="48.765045" lon="-1.175276">
        <ele>137.382</ele>
        <time>2026-08-24T12:41:43.999Z</time>
      </trkpt>
      <trkpt lat="48.765039" lon="-1.175259">
        <ele>137.330</ele>
        <time>2026-08-24T12:41:44.999Z</time>
      </trkpt>
      <trkpt lat="48.765035" lon="-1.175246">
        <ele>137.314</ele>
        <time>2026-08-24T12:41:45.999Z</time>
      </trkpt>
      <trkpt lat="48.765031" lon="-1.175233">
        <ele>137.321</ele>
        <time>2026-08-24T12:41:46.999Z</time>
      </trkpt>
      <trkpt lat="48.765023" lon="-1.175217">
        <ele>137.353</ele>
        <time>2026-08-24T12:41:47.999Z</time>
      </trkpt>
      <trkpt lat="48.765014" lon="-1.175206">
        <ele>137.396</ele>
        <time>2026-08-24T12:41:48.999Z</time>
      </trkpt>
      <trkpt lat="48.765008" lon="-1.175190">
        <ele>137.331</ele>
        <time>2026-08-24T12:41:49.999Z</time>
      </trkpt>
      <trkpt lat="48.764997" lon="-1.175177">
        <ele>137.324</ele>
        <time>2026-08-24T12:41:50.999Z</time>
      </trkpt>
      <trkpt lat="48.764992" lon="-1.175161">
        <ele>137.409</ele>
        <time>2026-08-24T12:41:51.999Z</time>
      </trkpt>
      <trkpt lat="48.764982" lon="-1.175146">
        <ele>137.641</ele>
        <time>2026-08-24T12:41:52.999Z</time>
      </trkpt>
      <trkpt lat="48.764972" lon="-1.175127">
        <ele>137.847</ele>
        <time>2026-08-24T12:41:54.999Z</time>
      </trkpt>
      <trkpt lat="48.764963" lon="-1.175115">
        <ele>138.120</ele>
        <time>2026-08-24T12:41:55.999Z</time>
      </trkpt>
      <trkpt lat="48.764951" lon="-1.175098">
        <ele>138.247</ele>
        <time>2026-08-24T12:41:56.999Z</time>
      </trkpt>
      <trkpt lat="48.764940" lon="-1.175079">
        <ele>138.335</ele>
        <time>2026-08-24T12:41:57.999Z</time>
      </trkpt>
      <trkpt lat="48.764929" lon="-1.175062">
        <ele>138.433</ele>
        <time>2026-08-24T12:41:58.999Z</time>
      </trkpt>
      <trkpt lat="48.764916" lon="-1.175046">
        <ele>138.457</ele>
        <time>2026-08-24T12:41:59.999Z</time>
      </trkpt>
      <trkpt lat="48.764909" lon="-1.175035">
        <ele>138.474</ele>
        <time>2026-08-24T12:42:00.999Z</time>
      </trkpt>
      <trkpt lat="48.764908" lon="-1.175016">
        <ele>138.466</ele>
        <time>2026-08-24T12:42:01.999Z</time>
      </trkpt>
      <trkpt lat="48.764907" lon="-1.175001">
        <ele>138.415</ele>
        <time>2026-08-24T12:42:04.999Z</time>
      </trkpt>
      <trkpt lat="48.764900" lon="-1.174985">
        <ele>138.465</ele>
        <time>2026-08-24T12:42:05.999Z</time>
      </trkpt>
      <trkpt lat="48.764886" lon="-1.174961">
        <ele>138.411</ele>
        <time>2026-08-24T12:42:06.999Z</time>
      </trkpt>
      <trkpt lat="48.764873" lon="-1.174943">
        <ele>138.409</ele>
        <time>2026-08-24T12:42:07.999Z</time>
      </trkpt>
      <trkpt lat="48.764860" lon="-1.174919">
        <ele>138.433</ele>
        <time>2026-08-24T12:42:08.999Z</time>
      </trkpt>
      <trkpt lat="48.764851" lon="-1.174908">
        <ele>138.489</ele>
        <time>2026-08-24T12:42:09.999Z</time>
      </trkpt>
      <trkpt lat="48.764843" lon="-1.174897">
        <ele>138.482</ele>
        <time>2026-08-24T12:42:10.999Z</time>
      </trkpt>
      <trkpt lat="48.764840" lon="-1.174879">
        <ele>138.429</ele>
        <time>2026-08-24T12:42:12.999Z</time>
      </trkpt>
      <trkpt lat="48.764829" lon="-1.174875">
        <ele>138.477</ele>
        <time>2026-08-24T12:42:13.999Z</time>
      </trkpt>
      <trkpt lat="48.764813" lon="-1.174848">
        <ele>138.415</ele>
        <time>2026-08-24T12:42:14.999Z</time>
      </trkpt>
      <trkpt lat="48.764794" lon="-1.174824">
        <ele>138.459</ele>
        <time>2026-08-24T12:42:15.999Z</time>
      </trkpt>
      <trkpt lat="48.764777" lon="-1.174809">
        <ele>138.386</ele>
        <time>2026-08-24T12:42:16.999Z</time>
      </trkpt>
      <trkpt lat="48.764765" lon="-1.174804">
        <ele>137.918</ele>
        <time>2026-08-24T12:42:17.999Z</time>
      </trkpt>
      <trkpt lat="48.764753" lon="-1.174797">
        <ele>137.793</ele>
        <time>2026-08-24T12:42:21.999Z</time>
      </trkpt>
      <trkpt lat="48.764735" lon="-1.174794">
        <ele>137.565</ele>
        <time>2026-08-24T12:42:22.999Z</time>
      </trkpt>
      <trkpt lat="48.764717" lon="-1.174793">
        <ele>137.021</ele>
        <time>2026-08-24T12:42:23.999Z</time>
      </trkpt>
      <trkpt lat="48.764702" lon="-1.174789">
        <ele>136.509</ele>
        <time>2026-08-24T12:42:24.999Z</time>
      </trkpt>
      <trkpt lat="48.764686" lon="-1.174782">
        <ele>136.271</ele>
        <time>2026-08-24T12:42:25.999Z</time>
      </trkpt>
      <trkpt lat="48.764673" lon="-1.174775">
        <ele>135.997</ele>
        <time>2026-08-24T12:42:26.999Z</time>
      </trkpt>
      <trkpt lat="48.764660" lon="-1.174771">
        <ele>135.270</ele>
        <time>2026-08-24T12:42:27.999Z</time>
      </trkpt>
      <trkpt lat="48.764650" lon="-1.174767">
        <ele>134.797</ele>
        <time>2026-08-24T12:42:28.999Z</time>
      </trkpt>
      <trkpt lat="48.764643" lon="-1.174785">
        <ele>134.635</ele>
        <time>2026-08-24T12:42:30.999Z</time>
      </trkpt>
      <trkpt lat="48.764626" lon="-1.174797">
        <ele>134.573</ele>
        <time>2026-08-24T12:42:31.999Z</time>
      </trkpt>
      <trkpt lat="48.764604" lon="-1.174807">
        <ele>134.597</ele>
        <time>2026-08-24T12:42:32.999Z</time>
      </trkpt>
      <trkpt lat="48.764582" lon="-1.174820">
        <ele>134.334</ele>
        <time>2026-08-24T12:42:33.999Z</time>
      </trkpt>
      <trkpt lat="48.764565" lon="-1.174830">
        <ele>134.176</ele>
        <time>2026-08-24T12:42:34.999Z</time>
      </trkpt>
      <trkpt lat="48.764557" lon="-1.174841">
        <ele>133.849</ele>
        <time>2026-08-24T12:42:37.999Z</time>
      </trkpt>
      <trkpt lat="48.764546" lon="-1.174854">
        <ele>133.702</ele>
        <time>2026-08-24T12:42:39.999Z</time>
      </trkpt>
      <trkpt lat="48.764532" lon="-1.174870">
        <ele>133.622</ele>
        <time>2026-08-24T12:42:40.999Z</time>
      </trkpt>
      <trkpt lat="48.764508" lon="-1.174889">
        <ele>133.609</ele>
        <time>2026-08-24T12:42:41.999Z</time>
      </trkpt>
      <trkpt lat="48.764488" lon="-1.174906">
        <ele>133.546</ele>
        <time>2026-08-24T12:42:42.999Z</time>
      </trkpt>
      <trkpt lat="48.764470" lon="-1.174920">
        <ele>133.432</ele>
        <time>2026-08-24T12:42:43.999Z</time>
      </trkpt>
      <trkpt lat="48.764459" lon="-1.174927">
        <ele>133.435</ele>
        <time>2026-08-24T12:42:44.999Z</time>
      </trkpt>
      <trkpt lat="48.764451" lon="-1.174949">
        <ele>133.372</ele>
        <time>2026-08-24T12:42:49.999Z</time>
      </trkpt>
      <trkpt lat="48.764433" lon="-1.174968">
        <ele>133.230</ele>
        <time>2026-08-24T12:42:50.999Z</time>
      </trkpt>
      <trkpt lat="48.764411" lon="-1.174987">
        <ele>133.178</ele>
        <time>2026-08-24T12:42:51.999Z</time>
      </trkpt>
      <trkpt lat="48.764393" lon="-1.175002">
        <ele>133.112</ele>
        <time>2026-08-24T12:42:52.999Z</time>
      </trkpt>
      <trkpt lat="48.764376" lon="-1.175014">
        <ele>133.069</ele>
        <time>2026-08-24T12:42:53.999Z</time>
      </trkpt>
      <trkpt lat="48.764368" lon="-1.175022">
        <ele>132.921</ele>
        <time>2026-08-24T12:42:54.999Z</time>
      </trkpt>
      <trkpt lat="48.764357" lon="-1.175024">
        <ele>132.829</ele>
        <time>2026-08-24T12:42:56.999Z</time>
      </trkpt>
      <trkpt lat="48.764344" lon="-1.175040">
        <ele>132.800</ele>
        <time>2026-08-24T12:42:58.999Z</time>
      </trkpt>
      <trkpt lat="48.764327" lon="-1.175054">
        <ele>132.620</ele>
        <time>2026-08-24T12:42:59.999Z</time>
      </trkpt>
      <trkpt lat="48.764312" lon="-1.175060">
        <ele>132.309</ele>
        <time>2026-08-24T12:43:00.999Z</time>
      </trkpt>
      <trkpt lat="48.764295" lon="-1.175062">
        <ele>132.074</ele>
        <time>2026-08-24T12:43:01.999Z</time>
      </trkpt>
      <trkpt lat="48.764277" lon="-1.175069">
        <ele>131.720</ele>
        <time>2026-08-24T12:43:02.999Z</time>
      </trkpt>
      <trkpt lat="48.764264" lon="-1.175076">
        <ele>131.363</ele>
        <time>2026-08-24T12:43:03.999Z</time>
      </trkpt>
      <trkpt lat="48.764256" lon="-1.175092">
        <ele>131.240</ele>
        <time>2026-08-24T12:43:06.999Z</time>
      </trkpt>
      <trkpt lat="48.764237" lon="-1.175106">
        <ele>131.168</ele>
        <time>2026-08-24T12:43:08.999Z</time>
      </trkpt>
      <trkpt lat="48.764216" lon="-1.175111">
        <ele>131.086</ele>
        <time>2026-08-24T12:43:09.999Z</time>
      </trkpt>
      <trkpt lat="48.764192" lon="-1.175116">
        <ele>130.840</ele>
        <time>2026-08-24T12:43:10.999Z</time>
      </trkpt>
      <trkpt lat="48.764171" lon="-1.175125">
        <ele>130.617</ele>
        <time>2026-08-24T12:43:11.999Z</time>
      </trkpt>
      <trkpt lat="48.764157" lon="-1.175132">
        <ele>130.499</ele>
        <time>2026-08-24T12:43:12.999Z</time>
      </trkpt>
      <trkpt lat="48.764146" lon="-1.175129">
        <ele>130.368</ele>
        <time>2026-08-24T12:43:16.999Z</time>
      </trkpt>
      <trkpt lat="48.764128" lon="-1.175128">
        <ele>130.242</ele>
        <time>2026-08-24T12:43:17.999Z</time>
      </trkpt>
      <trkpt lat="48.764103" lon="-1.175124">
        <ele>130.126</ele>
        <time>2026-08-24T12:43:18.999Z</time>
      </trkpt>
      <trkpt lat="48.764084" lon="-1.175126">
        <ele>129.909</ele>
        <time>2026-08-24T12:43:19.999Z</time>
      </trkpt>
      <trkpt lat="48.764069" lon="-1.175131">
        <ele>129.698</ele>
        <time>2026-08-24T12:43:20.999Z</time>
      </trkpt>
      <trkpt lat="48.764060" lon="-1.175135">
        <ele>129.294</ele>
        <time>2026-08-24T12:43:22.999Z</time>
      </trkpt>
      <trkpt lat="48.764040" lon="-1.175137">
        <ele>128.797</ele>
        <time>2026-08-24T12:43:25.999Z</time>
      </trkpt>
      <trkpt lat="48.764028" lon="-1.175132">
        <ele>128.464</ele>
        <time>2026-08-24T12:43:26.999Z</time>
      </trkpt>
      <trkpt lat="48.764040" lon="-1.175133">
        <ele>128.222</ele>
        <time>2026-08-24T12:43:50.999Z</time>
      </trkpt>
      <trkpt lat="48.764041" lon="-1.175114">
        <ele>128.010</ele>
        <time>2026-08-24T12:43:51.999Z</time>
      </trkpt>
      <trkpt lat="48.764050" lon="-1.175111">
        <ele>127.834</ele>
        <time>2026-08-24T12:43:59.999Z</time>
      </trkpt>
      <trkpt lat="48.764051" lon="-1.175124">
        <ele>127.661</ele>
        <time>2026-08-24T12:44:06.999Z</time>
      </trkpt>
      <trkpt lat="48.764058" lon="-1.175105">
        <ele>127.563</ele>
        <time>2026-08-24T12:44:08.999Z</time>
      </trkpt>
      <trkpt lat="48.764057" lon="-1.175091">
        <ele>127.533</ele>
        <time>2026-08-24T12:44:09.999Z</time>
      </trkpt>
      <trkpt lat="48.764053" lon="-1.175077">
        <ele>127.423</ele>
        <time>2026-08-24T12:44:10.999Z</time>
      </trkpt>
      <trkpt lat="48.764049" lon="-1.175060">
        <ele>127.415</ele>
        <time>2026-08-24T12:44:11.999Z</time>
      </trkpt>
      <trkpt lat="48.764042" lon="-1.175045">
        <ele>127.409</ele>
        <time>2026-08-24T12:44:12.999Z</time>
      </trkpt>
      <trkpt lat="48.764036" lon="-1.175031">
        <ele>127.485</ele>
        <time>2026-08-24T12:44:13.999Z</time>
      </trkpt>
      <trkpt lat="48.764025" lon="-1.175020">
        <ele>127.461</ele>
        <time>2026-08-24T12:44:14.999Z</time>
      </trkpt>
      <trkpt lat="48.764011" lon="-1.175006">
        <ele>127.454</ele>
        <time>2026-08-24T12:44:15.999Z</time>
      </trkpt>
      <trkpt lat="48.764001" lon="-1.174994">
        <ele>127.461</ele>
        <time>2026-08-24T12:44:16.999Z</time>
      </trkpt>
      <trkpt lat="48.763992" lon="-1.174981">
        <ele>127.449</ele>
        <time>2026-08-24T12:44:17.999Z</time>
      </trkpt>
      <trkpt lat="48.763984" lon="-1.174966">
        <ele>127.417</ele>
        <time>2026-08-24T12:44:18.999Z</time>
      </trkpt>
      <trkpt lat="48.763977" lon="-1.174951">
        <ele>127.491</ele>
        <time>2026-08-24T12:44:19.999Z</time>
      </trkpt>
      <trkpt lat="48.763972" lon="-1.174938">
        <ele>127.458</ele>
        <time>2026-08-24T12:44:20.999Z</time>
      </trkpt>
      <trkpt lat="48.763958" lon="-1.174919">
        <ele>127.460</ele>
        <time>2026-08-24T12:44:22.999Z</time>
      </trkpt>
      <trkpt lat="48.763948" lon="-1.174908">
        <ele>127.477</ele>
        <time>2026-08-24T12:44:23.999Z</time>
      </trkpt>
      <trkpt lat="48.763941" lon="-1.174899">
        <ele>127.461</ele>
        <time>2026-08-24T12:44:24.999Z</time>
      </trkpt>
      <trkpt lat="48.763933" lon="-1.174887">
        <ele>127.527</ele>
        <time>2026-08-24T12:44:25.999Z</time>
      </trkpt>
      <trkpt lat="48.763922" lon="-1.174871">
        <ele>127.509</ele>
        <time>2026-08-24T12:44:26.999Z</time>
      </trkpt>
      <trkpt lat="48.763914" lon="-1.174856">
        <ele>127.559</ele>
        <time>2026-08-24T12:44:27.999Z</time>
      </trkpt>
      <trkpt lat="48.763910" lon="-1.174842">
        <ele>127.545</ele>
        <time>2026-08-24T12:44:29.999Z</time>
      </trkpt>
      <trkpt lat="48.763902" lon="-1.174835">
        <ele>127.598</ele>
        <time>2026-08-24T12:44:30.999Z</time>
      </trkpt>
      <trkpt lat="48.763896" lon="-1.174819">
        <ele>127.595</ele>
        <time>2026-08-24T12:44:31.999Z</time>
      </trkpt>
      <trkpt lat="48.763885" lon="-1.174806">
        <ele>127.593</ele>
        <time>2026-08-24T12:44:32.999Z</time>
      </trkpt>
      <trkpt lat="48.763876" lon="-1.174794">
        <ele>127.581</ele>
        <time>2026-08-24T12:44:33.999Z</time>
      </trkpt>
      <trkpt lat="48.763863" lon="-1.174777">
        <ele>127.575</ele>
        <time>2026-08-24T12:44:34.999Z</time>
      </trkpt>
      <trkpt lat="48.763856" lon="-1.174758">
        <ele>127.532</ele>
        <time>2026-08-24T12:44:35.999Z</time>
      </trkpt>
      <trkpt lat="48.763846" lon="-1.174741">
        <ele>127.584</ele>
        <time>2026-08-24T12:44:36.999Z</time>
      </trkpt>
      <trkpt lat="48.763835" lon="-1.174723">
        <ele>127.572</ele>
        <time>2026-08-24T12:44:37.999Z</time>
      </trkpt>
      <trkpt lat="48.763824" lon="-1.174698">
        <ele>127.513</ele>
        <time>2026-08-24T12:44:38.999Z</time>
      </trkpt>
      <trkpt lat="48.763816" lon="-1.174685">
        <ele>127.514</ele>
        <time>2026-08-24T12:44:39.999Z</time>
      </trkpt>
      <trkpt lat="48.763808" lon="-1.174670">
        <ele>127.509</ele>
        <time>2026-08-24T12:44:43.999Z</time>
      </trkpt>
      <trkpt lat="48.763797" lon="-1.174661">
        <ele>127.419</ele>
        <time>2026-08-24T12:44:44.999Z</time>
      </trkpt>
      <trkpt lat="48.763786" lon="-1.174644">
        <ele>127.385</ele>
        <time>2026-08-24T12:44:45.999Z</time>
      </trkpt>
      <trkpt lat="48.763776" lon="-1.174627">
        <ele>126.948</ele>
        <time>2026-08-24T12:44:46.999Z</time>
      </trkpt>
      <trkpt lat="48.763766" lon="-1.174613">
        <ele>126.455</ele>
        <time>2026-08-24T12:44:47.999Z</time>
      </trkpt>
      <trkpt lat="48.763759" lon="-1.174601">
        <ele>126.473</ele>
        <time>2026-08-24T12:44:48.999Z</time>
      </trkpt>
      <trkpt lat="48.763750" lon="-1.174582">
        <ele>126.391</ele>
        <time>2026-08-24T12:44:49.999Z</time>
      </trkpt>
      <trkpt lat="48.763743" lon="-1.174562">
        <ele>126.375</ele>
        <time>2026-08-24T12:44:50.999Z</time>
      </trkpt>
      <trkpt lat="48.763737" lon="-1.174547">
        <ele>126.282</ele>
        <time>2026-08-24T12:44:51.999Z</time>
      </trkpt>
      <trkpt lat="48.763725" lon="-1.174533">
        <ele>126.144</ele>
        <time>2026-08-24T12:44:53.999Z</time>
      </trkpt>
      <trkpt lat="48.763716" lon="-1.174526">
        <ele>125.872</ele>
        <time>2026-08-24T12:44:54.999Z</time>
      </trkpt>
      <trkpt lat="48.763703" lon="-1.174507">
        <ele>125.413</ele>
        <time>2026-08-24T12:44:55.999Z</time>
      </trkpt>
      <trkpt lat="48.763693" lon="-1.174489">
        <ele>125.014</ele>
        <time>2026-08-24T12:44:56.999Z</time>
      </trkpt>
      <trkpt lat="48.763683" lon="-1.174466">
        <ele>124.609</ele>
        <time>2026-08-24T12:44:57.999Z</time>
      </trkpt>
      <trkpt lat="48.763674" lon="-1.174448">
        <ele>123.779</ele>
        <time>2026-08-24T12:44:58.999Z</time>
      </trkpt>
      <trkpt lat="48.763666" lon="-1.174433">
        <ele>122.855</ele>
        <time>2026-08-24T12:44:59.999Z</time>
      </trkpt>
      <trkpt lat="48.763662" lon="-1.174418">
        <ele>122.598</ele>
        <time>2026-08-24T12:45:00.999Z</time>
      </trkpt>
      <trkpt lat="48.763654" lon="-1.174403">
        <ele>122.255</ele>
        <time>2026-08-24T12:45:01.999Z</time>
      </trkpt>
      <trkpt lat="48.763646" lon="-1.174391">
        <ele>122.053</ele>
        <time>2026-08-24T12:45:02.999Z</time>
      </trkpt>
      <trkpt lat="48.763639" lon="-1.174381">
        <ele>121.891</ele>
        <time>2026-08-24T12:45:03.999Z</time>
      </trkpt>
      <trkpt lat="48.763630" lon="-1.174367">
        <ele>121.835</ele>
        <time>2026-08-24T12:45:04.999Z</time>
      </trkpt>
      <trkpt lat="48.763621" lon="-1.174350">
        <ele>121.832</ele>
        <time>2026-08-24T12:45:05.999Z</time>
      </trkpt>
      <trkpt lat="48.763611" lon="-1.174336">
        <ele>121.754</ele>
        <time>2026-08-24T12:45:06.999Z</time>
      </trkpt>
      <trkpt lat="48.763603" lon="-1.174325">
        <ele>121.274</ele>
        <time>2026-08-24T12:45:07.999Z</time>
      </trkpt>
      <trkpt lat="48.763592" lon="-1.174308">
        <ele>120.856</ele>
        <time>2026-08-24T12:45:08.999Z</time>
      </trkpt>
      <trkpt lat="48.763583" lon="-1.174294">
        <ele>120.821</ele>
        <time>2026-08-24T12:45:09.999Z</time>
      </trkpt>
      <trkpt lat="48.763574" lon="-1.174284">
        <ele>120.609</ele>
        <time>2026-08-24T12:45:10.999Z</time>
      </trkpt>
      <trkpt lat="48.763568" lon="-1.174271">
        <ele>120.359</ele>
        <time>2026-08-24T12:45:11.999Z</time>
      </trkpt>
      <trkpt lat="48.763558" lon="-1.174250">
        <ele>119.925</ele>
        <time>2026-08-24T12:45:13.999Z</time>
      </trkpt>
      <trkpt lat="48.763549" lon="-1.174240">
        <ele>119.858</ele>
        <time>2026-08-24T12:45:14.999Z</time>
      </trkpt>
      <trkpt lat="48.763539" lon="-1.174227">
        <ele>119.835</ele>
        <time>2026-08-24T12:45:15.999Z</time>
      </trkpt>
      <trkpt lat="48.763530" lon="-1.174211">
        <ele>119.843</ele>
        <time>2026-08-24T12:45:16.999Z</time>
      </trkpt>
      <trkpt lat="48.763519" lon="-1.174193">
        <ele>119.731</ele>
        <time>2026-08-24T12:45:17.999Z</time>
      </trkpt>
      <trkpt lat="48.763512" lon="-1.174173">
        <ele>119.745</ele>
        <time>2026-08-24T12:45:18.999Z</time>
      </trkpt>
      <trkpt lat="48.763503" lon="-1.174159">
        <ele>119.782</ele>
        <time>2026-08-24T12:45:19.999Z</time>
      </trkpt>
      <trkpt lat="48.763494" lon="-1.174145">
        <ele>119.794</ele>
        <time>2026-08-24T12:45:20.999Z</time>
      </trkpt>
      <trkpt lat="48.763481" lon="-1.174131">
        <ele>119.782</ele>
        <time>2026-08-24T12:45:21.999Z</time>
      </trkpt>
      <trkpt lat="48.763471" lon="-1.174121">
        <ele>119.643</ele>
        <time>2026-08-24T12:45:22.999Z</time>
      </trkpt>
      <trkpt lat="48.763461" lon="-1.174108">
        <ele>119.517</ele>
        <time>2026-08-24T12:45:23.999Z</time>
      </trkpt>
      <trkpt lat="48.763452" lon="-1.174095">
        <ele>119.409</ele>
        <time>2026-08-24T12:45:24.999Z</time>
      </trkpt>
      <trkpt lat="48.763442" lon="-1.174079">
        <ele>119.350</ele>
        <time>2026-08-24T12:45:25.999Z</time>
      </trkpt>
      <trkpt lat="48.763430" lon="-1.174064">
        <ele>119.216</ele>
        <time>2026-08-24T12:45:26.999Z</time>
      </trkpt>
      <trkpt lat="48.763421" lon="-1.174055">
        <ele>119.039</ele>
        <time>2026-08-24T12:45:27.999Z</time>
      </trkpt>
      <trkpt lat="48.763414" lon="-1.174043">
        <ele>118.636</ele>
        <time>2026-08-24T12:45:28.999Z</time>
      </trkpt>
      <trkpt lat="48.763407" lon="-1.174032">
        <ele>118.484</ele>
        <time>2026-08-24T12:45:29.999Z</time>
      </trkpt>
      <trkpt lat="48.763399" lon="-1.174017">
        <ele>118.412</ele>
        <time>2026-08-24T12:45:30.999Z</time>
      </trkpt>
      <trkpt lat="48.763391" lon="-1.174004">
        <ele>118.316</ele>
        <time>2026-08-24T12:45:31.999Z</time>
      </trkpt>
      <trkpt lat="48.763385" lon="-1.173992">
        <ele>118.313</ele>
        <time>2026-08-24T12:45:32.999Z</time>
      </trkpt>
      <trkpt lat="48.763377" lon="-1.173980">
        <ele>118.265</ele>
        <time>2026-08-24T12:45:33.999Z</time>
      </trkpt>
      <trkpt lat="48.763367" lon="-1.173969">
        <ele>118.054</ele>
        <time>2026-08-24T12:45:34.999Z</time>
      </trkpt>
      <trkpt lat="48.763356" lon="-1.173963">
        <ele>117.956</ele>
        <time>2026-08-24T12:45:35.999Z</time>
      </trkpt>
      <trkpt lat="48.763346" lon="-1.173964">
        <ele>117.911</ele>
        <time>2026-08-24T12:45:37.999Z</time>
      </trkpt>
      <trkpt lat="48.763326" lon="-1.173948">
        <ele>117.709</ele>
        <time>2026-08-24T12:45:39.999Z</time>
      </trkpt>
      <trkpt lat="48.763314" lon="-1.173926">
        <ele>117.627</ele>
        <time>2026-08-24T12:45:40.999Z</time>
      </trkpt>
      <trkpt lat="48.763306" lon="-1.173911">
        <ele>117.663</ele>
        <time>2026-08-24T12:45:41.999Z</time>
      </trkpt>
      <trkpt lat="48.763298" lon="-1.173896">
        <ele>117.456</ele>
        <time>2026-08-24T12:45:42.999Z</time>
      </trkpt>
      <trkpt lat="48.763288" lon="-1.173881">
        <ele>117.133</ele>
        <time>2026-08-24T12:45:43.999Z</time>
      </trkpt>
      <trkpt lat="48.763278" lon="-1.173867">
        <ele>117.021</ele>
        <time>2026-08-24T12:45:44.999Z</time>
      </trkpt>
      <trkpt lat="48.763263" lon="-1.173852">
        <ele>116.979</ele>
        <time>2026-08-24T12:45:45.999Z</time>
      </trkpt>
      <trkpt lat="48.763250" lon="-1.173840">
        <ele>116.883</ele>
        <time>2026-08-24T12:45:46.999Z</time>
      </trkpt>
      <trkpt lat="48.763240" lon="-1.173826">
        <ele>116.730</ele>
        <time>2026-08-24T12:45:47.999Z</time>
      </trkpt>
      <trkpt lat="48.763226" lon="-1.173814">
        <ele>116.762</ele>
        <time>2026-08-24T12:45:48.999Z</time>
      </trkpt>
      <trkpt lat="48.763216" lon="-1.173802">
        <ele>116.694</ele>
        <time>2026-08-24T12:45:49.999Z</time>
      </trkpt>
      <trkpt lat="48.763206" lon="-1.173790">
        <ele>116.657</ele>
        <time>2026-08-24T12:45:50.999Z</time>
      </trkpt>
      <trkpt lat="48.763195" lon="-1.173782">
        <ele>116.522</ele>
        <time>2026-08-24T12:45:51.999Z</time>
      </trkpt>
      <trkpt lat="48.763178" lon="-1.173763">
        <ele>116.509</ele>
        <time>2026-08-24T12:45:53.999Z</time>
      </trkpt>
      <trkpt lat="48.763167" lon="-1.173750">
        <ele>116.431</ele>
        <time>2026-08-24T12:45:54.999Z</time>
      </trkpt>
      <trkpt lat="48.763156" lon="-1.173741">
        <ele>116.477</ele>
        <time>2026-08-24T12:45:55.999Z</time>
      </trkpt>
      <trkpt lat="48.763145" lon="-1.173734">
        <ele>116.480</ele>
        <time>2026-08-24T12:45:56.999Z</time>
      </trkpt>
      <trkpt lat="48.763136" lon="-1.173727">
        <ele>116.437</ele>
        <time>2026-08-24T12:45:57.999Z</time>
      </trkpt>
      <trkpt lat="48.763128" lon="-1.173718">
        <ele>116.325</ele>
        <time>2026-08-24T12:45:58.999Z</time>
      </trkpt>
      <trkpt lat="48.763118" lon="-1.173705">
        <ele>116.393</ele>
        <time>2026-08-24T12:45:59.999Z</time>
      </trkpt>
      <trkpt lat="48.763105" lon="-1.173699">
        <ele>116.377</ele>
        <time>2026-08-24T12:46:00.999Z</time>
      </trkpt>
      <trkpt lat="48.763095" lon="-1.173688">
        <ele>116.344</ele>
        <time>2026-08-24T12:46:01.999Z</time>
      </trkpt>
      <trkpt lat="48.763087" lon="-1.173682">
        <ele>116.316</ele>
        <time>2026-08-24T12:46:02.999Z</time>
      </trkpt>
      <trkpt lat="48.763076" lon="-1.173672">
        <ele>116.248</ele>
        <time>2026-08-24T12:46:03.999Z</time>
      </trkpt>
      <trkpt lat="48.763066" lon="-1.173662">
        <ele>116.161</ele>
        <time>2026-08-24T12:46:04.999Z</time>
      </trkpt>
      <trkpt lat="48.763054" lon="-1.173652">
        <ele>116.017</ele>
        <time>2026-08-24T12:46:05.999Z</time>
      </trkpt>
      <trkpt lat="48.763045" lon="-1.173645">
        <ele>115.909</ele>
        <time>2026-08-24T12:46:06.999Z</time>
      </trkpt>
      <trkpt lat="48.763037" lon="-1.173638">
        <ele>115.856</ele>
        <time>2026-08-24T12:46:07.999Z</time>
      </trkpt>
      <trkpt lat="48.763029" lon="-1.173629">
        <ele>115.722</ele>
        <time>2026-08-24T12:46:08.999Z</time>
      </trkpt>
      <trkpt lat="48.763023" lon="-1.173618">
        <ele>115.665</ele>
        <time>2026-08-24T12:46:09.999Z</time>
      </trkpt>
      <trkpt lat="48.763017" lon="-1.173606">
        <ele>115.422</ele>
        <time>2026-08-24T12:46:10.999Z</time>
      </trkpt>
      <trkpt lat="48.763006" lon="-1.173585">
        <ele>115.170</ele>
        <time>2026-08-24T12:46:12.999Z</time>
      </trkpt>
      <trkpt lat="48.763000" lon="-1.173569">
        <ele>114.648</ele>
        <time>2026-08-24T12:46:13.999Z</time>
      </trkpt>
      <trkpt lat="48.762990" lon="-1.173559">
        <ele>114.342</ele>
        <time>2026-08-24T12:46:14.999Z</time>
      </trkpt>
      <trkpt lat="48.762978" lon="-1.173554">
        <ele>114.079</ele>
        <time>2026-08-24T12:46:15.999Z</time>
      </trkpt>
      <trkpt lat="48.762964" lon="-1.173534">
        <ele>113.531</ele>
        <time>2026-08-24T12:46:16.999Z</time>
      </trkpt>
      <trkpt lat="48.762954" lon="-1.173523">
        <ele>113.151</ele>
        <time>2026-08-24T12:46:17.999Z</time>
      </trkpt>
      <trkpt lat="48.762944" lon="-1.173520">
        <ele>112.901</ele>
        <time>2026-08-24T12:46:18.999Z</time>
      </trkpt>
      <trkpt lat="48.762934" lon="-1.173505">
        <ele>112.711</ele>
        <time>2026-08-24T12:46:20.999Z</time>
      </trkpt>
      <trkpt lat="48.762928" lon="-1.173491">
        <ele>112.409</ele>
        <time>2026-08-24T12:46:21.999Z</time>
      </trkpt>
      <trkpt lat="48.762923" lon="-1.173477">
        <ele>112.147</ele>
        <time>2026-08-24T12:46:22.999Z</time>
      </trkpt>
      <trkpt lat="48.762915" lon="-1.173460">
        <ele>111.953</ele>
        <time>2026-08-24T12:46:23.999Z</time>
      </trkpt>
      <trkpt lat="48.762911" lon="-1.173438">
        <ele>111.976</ele>
        <time>2026-08-24T12:46:24.999Z</time>
      </trkpt>
      <trkpt lat="48.762903" lon="-1.173415">
        <ele>111.873</ele>
        <time>2026-08-24T12:46:25.999Z</time>
      </trkpt>
      <trkpt lat="48.762894" lon="-1.173398">
        <ele>111.861</ele>
        <time>2026-08-24T12:46:26.999Z</time>
      </trkpt>
      <trkpt lat="48.762890" lon="-1.173383">
        <ele>111.769</ele>
        <time>2026-08-24T12:46:27.999Z</time>
      </trkpt>
      <trkpt lat="48.762883" lon="-1.173369">
        <ele>111.663</ele>
        <time>2026-08-24T12:46:28.999Z</time>
      </trkpt>
      <trkpt lat="48.762876" lon="-1.173344">
        <ele>111.620</ele>
        <time>2026-08-24T12:46:30.999Z</time>
      </trkpt>
      <trkpt lat="48.762871" lon="-1.173329">
        <ele>111.672</ele>
        <time>2026-08-24T12:46:31.999Z</time>
      </trkpt>
      <trkpt lat="48.762866" lon="-1.173314">
        <ele>111.581</ele>
        <time>2026-08-24T12:46:32.999Z</time>
      </trkpt>
      <trkpt lat="48.762859" lon="-1.173297">
        <ele>111.361</ele>
        <time>2026-08-24T12:46:33.999Z</time>
      </trkpt>
      <trkpt lat="48.762854" lon="-1.173281">
        <ele>110.917</ele>
        <time>2026-08-24T12:46:34.999Z</time>
      </trkpt>
      <trkpt lat="48.762848" lon="-1.173267">
        <ele>110.409</ele>
        <time>2026-08-24T12:46:35.999Z</time>
      </trkpt>
      <trkpt lat="48.762842" lon="-1.173249">
        <ele>110.220</ele>
        <time>2026-08-24T12:46:36.999Z</time>
      </trkpt>
      <trkpt lat="48.762834" lon="-1.173230">
        <ele>110.176</ele>
        <time>2026-08-24T12:46:37.999Z</time>
      </trkpt>
      <trkpt lat="48.762827" lon="-1.173212">
        <ele>110.179</ele>
        <time>2026-08-24T12:46:38.999Z</time>
      </trkpt>
      <trkpt lat="48.762821" lon="-1.173197">
        <ele>110.146</ele>
        <time>2026-08-24T12:46:39.999Z</time>
      </trkpt>
      <trkpt lat="48.762818" lon="-1.173180">
        <ele>110.064</ele>
        <time>2026-08-24T12:46:40.999Z</time>
      </trkpt>
      <trkpt lat="48.762817" lon="-1.173163">
        <ele>109.912</ele>
        <time>2026-08-24T12:46:41.999Z</time>
      </trkpt>
      <trkpt lat="48.762812" lon="-1.173143">
        <ele>109.946</ele>
        <time>2026-08-24T12:46:42.999Z</time>
      </trkpt>
      <trkpt lat="48.762809" lon="-1.173129">
        <ele>109.753</ele>
        <time>2026-08-24T12:46:43.999Z</time>
      </trkpt>
      <trkpt lat="48.762808" lon="-1.173113">
        <ele>109.215</ele>
        <time>2026-08-24T12:46:44.999Z</time>
      </trkpt>
      <trkpt lat="48.762807" lon="-1.173097">
        <ele>108.875</ele>
        <time>2026-08-24T12:46:45.999Z</time>
      </trkpt>
      <trkpt lat="48.762808" lon="-1.173070">
        <ele>108.528</ele>
        <time>2026-08-24T12:46:47.999Z</time>
      </trkpt>
      <trkpt lat="48.762808" lon="-1.173050">
        <ele>108.220</ele>
        <time>2026-08-24T12:46:48.999Z</time>
      </trkpt>
      <trkpt lat="48.762808" lon="-1.173031">
        <ele>108.109</ele>
        <time>2026-08-24T12:46:49.999Z</time>
      </trkpt>
      <trkpt lat="48.762809" lon="-1.173013">
        <ele>108.019</ele>
        <time>2026-08-24T12:46:50.999Z</time>
      </trkpt>
      <trkpt lat="48.762812" lon="-1.172998">
        <ele>107.885</ele>
        <time>2026-08-24T12:46:51.999Z</time>
      </trkpt>
      <trkpt lat="48.762810" lon="-1.172978">
        <ele>107.648</ele>
        <time>2026-08-24T12:46:52.999Z</time>
      </trkpt>
      <trkpt lat="48.762810" lon="-1.172958">
        <ele>107.415</ele>
        <time>2026-08-24T12:46:53.999Z</time>
      </trkpt>
      <trkpt lat="48.762812" lon="-1.172939">
        <ele>107.183</ele>
        <time>2026-08-24T12:46:54.999Z</time>
      </trkpt>
      <trkpt lat="48.762811" lon="-1.172924">
        <ele>106.931</ele>
        <time>2026-08-24T12:46:55.999Z</time>
      </trkpt>
      <trkpt lat="48.762815" lon="-1.172908">
        <ele>106.755</ele>
        <time>2026-08-24T12:46:56.999Z</time>
      </trkpt>
      <trkpt lat="48.762820" lon="-1.172888">
        <ele>106.582</ele>
        <time>2026-08-24T12:46:57.999Z</time>
      </trkpt>
      <trkpt lat="48.762825" lon="-1.172873">
        <ele>106.244</ele>
        <time>2026-08-24T12:46:58.999Z</time>
      </trkpt>
      <trkpt lat="48.762831" lon="-1.172860">
        <ele>105.823</ele>
        <time>2026-08-24T12:46:59.999Z</time>
      </trkpt>
      <trkpt lat="48.762838" lon="-1.172847">
        <ele>105.583</ele>
        <time>2026-08-24T12:47:00.999Z</time>
      </trkpt>
      <trkpt lat="48.762847" lon="-1.172829">
        <ele>105.011</ele>
        <time>2026-08-24T12:47:01.999Z</time>
      </trkpt>
      <trkpt lat="48.762857" lon="-1.172809">
        <ele>104.509</ele>
        <time>2026-08-24T12:47:02.999Z</time>
      </trkpt>
      <trkpt lat="48.762864" lon="-1.172794">
        <ele>104.464</ele>
        <time>2026-08-24T12:47:03.999Z</time>
      </trkpt>
      <trkpt lat="48.762874" lon="-1.172773">
        <ele>104.220</ele>
        <time>2026-08-24T12:47:04.999Z</time>
      </trkpt>
      <trkpt lat="48.762881" lon="-1.172758">
        <ele>103.893</ele>
        <time>2026-08-24T12:47:05.999Z</time>
      </trkpt>
      <trkpt lat="48.762888" lon="-1.172747">
        <ele>103.530</ele>
        <time>2026-08-24T12:47:06.999Z</time>
      </trkpt>
      <trkpt lat="48.762899" lon="-1.172741">
        <ele>103.388</ele>
        <time>2026-08-24T12:47:07.999Z</time>
      </trkpt>
      <trkpt lat="48.762909" lon="-1.172725">
        <ele>102.936</ele>
        <time>2026-08-24T12:47:08.999Z</time>
      </trkpt>
      <trkpt lat="48.762920" lon="-1.172706">
        <ele>102.510</ele>
        <time>2026-08-24T12:47:09.999Z</time>
      </trkpt>
      <trkpt lat="48.762927" lon="-1.172691">
        <ele>102.237</ele>
        <time>2026-08-24T12:47:10.999Z</time>
      </trkpt>
      <trkpt lat="48.762935" lon="-1.172674">
        <ele>102.089</ele>
        <time>2026-08-24T12:47:11.999Z</time>
      </trkpt>
      <trkpt lat="48.762943" lon="-1.172656">
        <ele>101.974</ele>
        <time>2026-08-24T12:47:12.999Z</time>
      </trkpt>
      <trkpt lat="48.762953" lon="-1.172641">
        <ele>101.756</ele>
        <time>2026-08-24T12:47:13.999Z</time>
      </trkpt>
      <trkpt lat="48.762962" lon="-1.172623">
        <ele>101.321</ele>
        <time>2026-08-24T12:47:14.999Z</time>
      </trkpt>
      <trkpt lat="48.762978" lon="-1.172606">
        <ele>101.109</ele>
        <time>2026-08-24T12:47:16.999Z</time>
      </trkpt>
      <trkpt lat="48.762987" lon="-1.172596">
        <ele>101.069</ele>
        <time>2026-08-24T12:47:17.999Z</time>
      </trkpt>
      <trkpt lat="48.762997" lon="-1.172588">
        <ele>100.735</ele>
        <time>2026-08-24T12:47:18.999Z</time>
      </trkpt>
      <trkpt lat="48.763007" lon="-1.172578">
        <ele>100.588</ele>
        <time>2026-08-24T12:47:19.999Z</time>
      </trkpt>
      <trkpt lat="48.763024" lon="-1.172560">
        <ele>100.315</ele>
        <time>2026-08-24T12:47:21.999Z</time>
      </trkpt>
      <trkpt lat="48.763035" lon="-1.172548">
        <ele>100.123</ele>
        <time>2026-08-24T12:47:22.999Z</time>
      </trkpt>
      <trkpt lat="48.763046" lon="-1.172536">
        <ele>100.031</ele>
        <time>2026-08-24T12:47:23.999Z</time>
      </trkpt>
      <trkpt lat="48.763057" lon="-1.172523">
        <ele>100.015</ele>
        <time>2026-08-24T12:47:24.999Z</time>
      </trkpt>
      <trkpt lat="48.763067" lon="-1.172510">
        <ele>99.912</ele>
        <time>2026-08-24T12:47:25.999Z</time>
      </trkpt>
      <trkpt lat="48.763081" lon="-1.172494">
        <ele>99.974</ele>
        <time>2026-08-24T12:47:27.999Z</time>
      </trkpt>
      <trkpt lat="48.763092" lon="-1.172483">
        <ele>99.731</ele>
        <time>2026-08-24T12:47:28.999Z</time>
      </trkpt>
      <trkpt lat="48.763100" lon="-1.172472">
        <ele>99.361</ele>
        <time>2026-08-24T12:47:29.999Z</time>
      </trkpt>
      <trkpt lat="48.763107" lon="-1.172460">
        <ele>99.107</ele>
        <time>2026-08-24T12:47:30.999Z</time>
      </trkpt>
      <trkpt lat="48.763115" lon="-1.172447">
        <ele>99.009</ele>
        <time>2026-08-24T12:47:31.999Z</time>
      </trkpt>
      <trkpt lat="48.763125" lon="-1.172433">
        <ele>99.095</ele>
        <time>2026-08-24T12:47:32.999Z</time>
      </trkpt>
      <trkpt lat="48.763138" lon="-1.172419">
        <ele>99.061</ele>
        <time>2026-08-24T12:47:33.999Z</time>
      </trkpt>
      <trkpt lat="48.763150" lon="-1.172404">
        <ele>99.064</ele>
        <time>2026-08-24T12:47:34.999Z</time>
      </trkpt>
      <trkpt lat="48.763160" lon="-1.172393">
        <ele>98.941</ele>
        <time>2026-08-24T12:47:35.999Z</time>
      </trkpt>
      <trkpt lat="48.763177" lon="-1.172390">
        <ele>98.759</ele>
        <time>2026-08-24T12:47:36.999Z</time>
      </trkpt>
      <trkpt lat="48.763190" lon="-1.172383">
        <ele>98.567</ele>
        <time>2026-08-24T12:47:37.999Z</time>
      </trkpt>
      <trkpt lat="48.763202" lon="-1.172373">
        <ele>98.451</ele>
        <time>2026-08-24T12:47:38.999Z</time>
      </trkpt>
      <trkpt lat="48.763209" lon="-1.172359">
        <ele>98.478</ele>
        <time>2026-08-24T12:47:39.999Z</time>
      </trkpt>
      <trkpt lat="48.763217" lon="-1.172346">
        <ele>98.330</ele>
        <time>2026-08-24T12:47:40.999Z</time>
      </trkpt>
      <trkpt lat="48.763224" lon="-1.172333">
        <ele>98.281</ele>
        <time>2026-08-24T12:47:41.999Z</time>
      </trkpt>
      <trkpt lat="48.763233" lon="-1.172320">
        <ele>98.061</ele>
        <time>2026-08-24T12:47:42.999Z</time>
      </trkpt>
      <trkpt lat="48.763244" lon="-1.172305">
        <ele>97.917</ele>
        <time>2026-08-24T12:47:43.999Z</time>
      </trkpt>
      <trkpt lat="48.763255" lon="-1.172289">
        <ele>97.809</ele>
        <time>2026-08-24T12:47:44.999Z</time>
      </trkpt>
      <trkpt lat="48.763263" lon="-1.172279">
        <ele>97.640</ele>
        <time>2026-08-24T12:47:45.999Z</time>
      </trkpt>
      <trkpt lat="48.763275" lon="-1.172270">
        <ele>97.486</ele>
        <time>2026-08-24T12:47:46.999Z</time>
      </trkpt>
      <trkpt lat="48.763290" lon="-1.172255">
        <ele>97.249</ele>
        <time>2026-08-24T12:47:47.999Z</time>
      </trkpt>
      <trkpt lat="48.763298" lon="-1.172239">
        <ele>97.116</ele>
        <time>2026-08-24T12:47:48.999Z</time>
      </trkpt>
      <trkpt lat="48.763303" lon="-1.172226">
        <ele>97.164</ele>
        <time>2026-08-24T12:47:49.999Z</time>
      </trkpt>
      <trkpt lat="48.763304" lon="-1.172211">
        <ele>97.162</ele>
        <time>2026-08-24T12:47:50.999Z</time>
      </trkpt>
      <trkpt lat="48.763317" lon="-1.172196">
        <ele>97.066</ele>
        <time>2026-08-24T12:47:51.999Z</time>
      </trkpt>
      <trkpt lat="48.763325" lon="-1.172175">
        <ele>96.993</ele>
        <time>2026-08-24T12:47:52.999Z</time>
      </trkpt>
      <trkpt lat="48.763331" lon="-1.172156">
        <ele>96.815</ele>
        <time>2026-08-24T12:47:53.999Z</time>
      </trkpt>
      <trkpt lat="48.763338" lon="-1.172137">
        <ele>96.866</ele>
        <time>2026-08-24T12:47:54.999Z</time>
      </trkpt>
      <trkpt lat="48.763343" lon="-1.172125">
        <ele>96.729</ele>
        <time>2026-08-24T12:47:55.999Z</time>
      </trkpt>
      <trkpt lat="48.763354" lon="-1.172113">
        <ele>96.721</ele>
        <time>2026-08-24T12:47:56.999Z</time>
      </trkpt>
      <trkpt lat="48.763365" lon="-1.172102">
        <ele>96.609</ele>
        <time>2026-08-24T12:47:57.999Z</time>
      </trkpt>
      <trkpt lat="48.763371" lon="-1.172090">
        <ele>96.628</ele>
        <time>2026-08-24T12:47:58.999Z</time>
      </trkpt>
      <trkpt lat="48.763377" lon="-1.172072">
        <ele>96.694</ele>
        <time>2026-08-24T12:47:59.999Z</time>
      </trkpt>
      <trkpt lat="48.763379" lon="-1.172050">
        <ele>96.637</ele>
        <time>2026-08-24T12:48:00.999Z</time>
      </trkpt>
      <trkpt lat="48.763381" lon="-1.172026">
        <ele>96.654</ele>
        <time>2026-08-24T12:48:01.999Z</time>
      </trkpt>
      <trkpt lat="48.763383" lon="-1.171995">
        <ele>96.562</ele>
        <time>2026-08-24T12:48:02.999Z</time>
      </trkpt>
      <trkpt lat="48.763386" lon="-1.171969">
        <ele>96.590</ele>
        <time>2026-08-24T12:48:03.999Z</time>
      </trkpt>
      <trkpt lat="48.763392" lon="-1.171949">
        <ele>96.554</ele>
        <time>2026-08-24T12:48:04.999Z</time>
      </trkpt>
      <trkpt lat="48.763398" lon="-1.171929">
        <ele>96.471</ele>
        <time>2026-08-24T12:48:05.999Z</time>
      </trkpt>
      <trkpt lat="48.763402" lon="-1.171911">
        <ele>96.443</ele>
        <time>2026-08-24T12:48:06.999Z</time>
      </trkpt>
      <trkpt lat="48.763408" lon="-1.171894">
        <ele>96.485</ele>
        <time>2026-08-24T12:48:07.999Z</time>
      </trkpt>
      <trkpt lat="48.763412" lon="-1.171880">
        <ele>96.489</ele>
        <time>2026-08-24T12:48:08.999Z</time>
      </trkpt>
      <trkpt lat="48.763420" lon="-1.171846">
        <ele>96.417</ele>
        <time>2026-08-24T12:48:10.999Z</time>
      </trkpt>
      <trkpt lat="48.763424" lon="-1.171821">
        <ele>96.309</ele>
        <time>2026-08-24T12:48:11.999Z</time>
      </trkpt>
      <trkpt lat="48.763426" lon="-1.171805">
        <ele>96.120</ele>
        <time>2026-08-24T12:48:12.999Z</time>
      </trkpt>
      <trkpt lat="48.763428" lon="-1.171783">
        <ele>96.196</ele>
        <time>2026-08-24T12:48:13.999Z</time>
      </trkpt>
      <trkpt lat="48.763430" lon="-1.171759">
        <ele>96.169</ele>
        <time>2026-08-24T12:48:14.999Z</time>
      </trkpt>
      <trkpt lat="48.763433" lon="-1.171744">
        <ele>96.076</ele>
        <time>2026-08-24T12:48:15.999Z</time>
      </trkpt>
      <trkpt lat="48.763432" lon="-1.171727">
        <ele>95.974</ele>
        <time>2026-08-24T12:48:16.999Z</time>
      </trkpt>
      <trkpt lat="48.763430" lon="-1.171708">
        <ele>95.912</ele>
        <time>2026-08-24T12:48:17.999Z</time>
      </trkpt>
      <trkpt lat="48.763430" lon="-1.171686">
        <ele>95.916</ele>
        <time>2026-08-24T12:48:18.999Z</time>
      </trkpt>
      <trkpt lat="48.763431" lon="-1.171669">
        <ele>95.923</ele>
        <time>2026-08-24T12:48:19.999Z</time>
      </trkpt>
      <trkpt lat="48.763432" lon="-1.171649">
        <ele>95.975</ele>
        <time>2026-08-24T12:48:20.999Z</time>
      </trkpt>
      <trkpt lat="48.763426" lon="-1.171625">
        <ele>95.996</ele>
        <time>2026-08-24T12:48:21.999Z</time>
      </trkpt>
      <trkpt lat="48.763424" lon="-1.171607">
        <ele>95.831</ele>
        <time>2026-08-24T12:48:22.999Z</time>
      </trkpt>
      <trkpt lat="48.763423" lon="-1.171590">
        <ele>95.824</ele>
        <time>2026-08-24T12:48:23.999Z</time>
      </trkpt>
      <trkpt lat="48.763426" lon="-1.171572">
        <ele>95.809</ele>
        <time>2026-08-24T12:48:24.999Z</time>
      </trkpt>
      <trkpt lat="48.763428" lon="-1.171550">
        <ele>95.871</ele>
        <time>2026-08-24T12:48:25.999Z</time>
      </trkpt>
      <trkpt lat="48.763439" lon="-1.171526">
        <ele>95.827</ele>
        <time>2026-08-24T12:48:26.999Z</time>
      </trkpt>
      <trkpt lat="48.763446" lon="-1.171507">
        <ele>95.860</ele>
        <time>2026-08-24T12:48:27.999Z</time>
      </trkpt>
      <trkpt lat="48.763449" lon="-1.171492">
        <ele>95.897</ele>
        <time>2026-08-24T12:48:28.999Z</time>
      </trkpt>
      <trkpt lat="48.763452" lon="-1.171476">
        <ele>95.745</ele>
        <time>2026-08-24T12:48:29.999Z</time>
      </trkpt>
      <trkpt lat="48.763452" lon="-1.171456">
        <ele>95.783</ele>
        <time>2026-08-24T12:48:30.999Z</time>
      </trkpt>
      <trkpt lat="48.763455" lon="-1.171436">
        <ele>95.747</ele>
        <time>2026-08-24T12:48:31.999Z</time>
      </trkpt>
      <trkpt lat="48.763456" lon="-1.171418">
        <ele>95.754</ele>
        <time>2026-08-24T12:48:32.999Z</time>
      </trkpt>
      <trkpt lat="48.763451" lon="-1.171398">
        <ele>95.756</ele>
        <time>2026-08-24T12:48:33.999Z</time>
      </trkpt>
      <trkpt lat="48.763456" lon="-1.171364">
        <ele>95.744</ele>
        <time>2026-08-24T12:48:35.999Z</time>
      </trkpt>
      <trkpt lat="48.763458" lon="-1.171344">
        <ele>95.705</ele>
        <time>2026-08-24T12:48:36.999Z</time>
      </trkpt>
      <trkpt lat="48.763461" lon="-1.171323">
        <ele>95.715</ele>
        <time>2026-08-24T12:48:37.999Z</time>
      </trkpt>
      <trkpt lat="48.763465" lon="-1.171300">
        <ele>95.709</ele>
        <time>2026-08-24T12:48:38.999Z</time>
      </trkpt>
      <trkpt lat="48.763465" lon="-1.171272">
        <ele>95.786</ele>
        <time>2026-08-24T12:48:39.999Z</time>
      </trkpt>
      <trkpt lat="48.763465" lon="-1.171253">
        <ele>95.752</ele>
        <time>2026-08-24T12:48:40.999Z</time>
      </trkpt>
      <trkpt lat="48.763463" lon="-1.171235">
        <ele>95.785</ele>
        <time>2026-08-24T12:48:41.999Z</time>
      </trkpt>
      <trkpt lat="48.763464" lon="-1.171217">
        <ele>95.712</ele>
        <time>2026-08-24T12:48:42.999Z</time>
      </trkpt>
      <trkpt lat="48.763463" lon="-1.171202">
        <ele>95.770</ele>
        <time>2026-08-24T12:48:43.999Z</time>
      </trkpt>
      <trkpt lat="48.763463" lon="-1.171186">
        <ele>95.738</ele>
        <time>2026-08-24T12:48:44.999Z</time>
      </trkpt>
      <trkpt lat="48.763463" lon="-1.171163">
        <ele>95.712</ele>
        <time>2026-08-24T12:48:45.999Z</time>
      </trkpt>
      <trkpt lat="48.763462" lon="-1.171137">
        <ele>95.749</ele>
        <time>2026-08-24T12:48:46.999Z</time>
      </trkpt>
      <trkpt lat="48.763458" lon="-1.171113">
        <ele>95.751</ele>
        <time>2026-08-24T12:48:47.999Z</time>
      </trkpt>
      <trkpt lat="48.763458" lon="-1.171093">
        <ele>95.721</ele>
        <time>2026-08-24T12:48:48.999Z</time>
      </trkpt>
      <trkpt lat="48.763458" lon="-1.171078">
        <ele>95.741</ele>
        <time>2026-08-24T12:48:49.999Z</time>
      </trkpt>
      <trkpt lat="48.763456" lon="-1.171058">
        <ele>95.705</ele>
        <time>2026-08-24T12:48:50.999Z</time>
      </trkpt>
      <trkpt lat="48.763455" lon="-1.171038">
        <ele>95.709</ele>
        <time>2026-08-24T12:48:51.999Z</time>
      </trkpt>
      <trkpt lat="48.763455" lon="-1.171018">
        <ele>95.714</ele>
        <time>2026-08-24T12:48:52.999Z</time>
      </trkpt>
      <trkpt lat="48.763455" lon="-1.170996">
        <ele>95.730</ele>
        <time>2026-08-24T12:48:53.999Z</time>
      </trkpt>
      <trkpt lat="48.763454" lon="-1.170978">
        <ele>95.793</ele>
        <time>2026-08-24T12:48:54.999Z</time>
      </trkpt>
      <trkpt lat="48.763454" lon="-1.170960">
        <ele>95.820</ele>
        <time>2026-08-24T12:48:55.999Z</time>
      </trkpt>
      <trkpt lat="48.763449" lon="-1.170945">
        <ele>95.868</ele>
        <time>2026-08-24T12:48:56.999Z</time>
      </trkpt>
      <trkpt lat="48.763449" lon="-1.170927">
        <ele>95.826</ele>
        <time>2026-08-24T12:48:57.999Z</time>
      </trkpt>
      <trkpt lat="48.763445" lon="-1.170907">
        <ele>95.990</ele>
        <time>2026-08-24T12:48:58.999Z</time>
      </trkpt>
      <trkpt lat="48.763438" lon="-1.170889">
        <ele>96.057</ele>
        <time>2026-08-24T12:48:59.999Z</time>
      </trkpt>
      <trkpt lat="48.763429" lon="-1.170874">
        <ele>96.249</ele>
        <time>2026-08-24T12:49:00.999Z</time>
      </trkpt>
      <trkpt lat="48.763423" lon="-1.170858">
        <ele>96.328</ele>
        <time>2026-08-24T12:49:01.999Z</time>
      </trkpt>
      <trkpt lat="48.763416" lon="-1.170844">
        <ele>96.489</ele>
        <time>2026-08-24T12:49:02.999Z</time>
      </trkpt>
      <trkpt lat="48.763411" lon="-1.170831">
        <ele>96.417</ele>
        <time>2026-08-24T12:49:03.999Z</time>
      </trkpt>
      <trkpt lat="48.763403" lon="-1.170821">
        <ele>96.409</ele>
        <time>2026-08-24T12:49:04.999Z</time>
      </trkpt>
      <trkpt lat="48.763399" lon="-1.170808">
        <ele>96.544</ele>
        <time>2026-08-24T12:49:05.999Z</time>
      </trkpt>
      <trkpt lat="48.763395" lon="-1.170795">
        <ele>96.560</ele>
        <time>2026-08-24T12:49:06.999Z</time>
      </trkpt>
      <trkpt lat="48.763380" lon="-1.170767">
        <ele>96.633</ele>
        <time>2026-08-24T12:49:08.999Z</time>
      </trkpt>
      <trkpt lat="48.763374" lon="-1.170750">
        <ele>96.870</ele>
        <time>2026-08-24T12:49:09.999Z</time>
      </trkpt>
      <trkpt lat="48.763367" lon="-1.170739">
        <ele>97.058</ele>
        <time>2026-08-24T12:49:10.999Z</time>
      </trkpt>
      <trkpt lat="48.763359" lon="-1.170729">
        <ele>97.226</ele>
        <time>2026-08-24T12:49:11.999Z</time>
      </trkpt>
      <trkpt lat="48.763350" lon="-1.170718">
        <ele>97.330</ele>
        <time>2026-08-24T12:49:12.999Z</time>
      </trkpt>
      <trkpt lat="48.763346" lon="-1.170704">
        <ele>97.337</ele>
        <time>2026-08-24T12:49:14.999Z</time>
      </trkpt>
      <trkpt lat="48.763328" lon="-1.170694">
        <ele>97.419</ele>
        <time>2026-08-24T12:49:16.999Z</time>
      </trkpt>
      <trkpt lat="48.763307" lon="-1.170690">
        <ele>97.497</ele>
        <time>2026-08-24T12:49:17.999Z</time>
      </trkpt>
      <trkpt lat="48.763288" lon="-1.170686">
        <ele>97.523</ele>
        <time>2026-08-24T12:49:18.999Z</time>
      </trkpt>
      <trkpt lat="48.763278" lon="-1.170676">
        <ele>97.525</ele>
        <time>2026-08-24T12:49:19.999Z</time>
      </trkpt>
      <trkpt lat="48.763267" lon="-1.170666">
        <ele>97.609</ele>
        <time>2026-08-24T12:49:20.999Z</time>
      </trkpt>
      <trkpt lat="48.763255" lon="-1.170653">
        <ele>97.611</ele>
        <time>2026-08-24T12:49:21.999Z</time>
      </trkpt>
      <trkpt lat="48.763242" lon="-1.170655">
        <ele>97.727</ele>
        <time>2026-08-24T12:49:22.999Z</time>
      </trkpt>
      <trkpt lat="48.763225" lon="-1.170657">
        <ele>97.790</ele>
        <time>2026-08-24T12:49:23.999Z</time>
      </trkpt>
      <trkpt lat="48.763207" lon="-1.170655">
        <ele>97.847</ele>
        <time>2026-08-24T12:49:24.999Z</time>
      </trkpt>
      <trkpt lat="48.763191" lon="-1.170656">
        <ele>97.845</ele>
        <time>2026-08-24T12:49:25.999Z</time>
      </trkpt>
      <trkpt lat="48.763179" lon="-1.170658">
        <ele>97.943</ele>
        <time>2026-08-24T12:49:26.999Z</time>
      </trkpt>
      <trkpt lat="48.763162" lon="-1.170656">
        <ele>97.967</ele>
        <time>2026-08-24T12:49:27.999Z</time>
      </trkpt>
      <trkpt lat="48.763152" lon="-1.170651">
        <ele>97.924</ele>
        <time>2026-08-24T12:49:28.999Z</time>
      </trkpt>
      <trkpt lat="48.763141" lon="-1.170655">
        <ele>98.096</ele>
        <time>2026-08-24T12:49:29.999Z</time>
      </trkpt>
      <trkpt lat="48.763131" lon="-1.170652">
        <ele>98.046</ele>
        <time>2026-08-24T12:49:30.999Z</time>
      </trkpt>
      <trkpt lat="48.763117" lon="-1.170651">
        <ele>98.288</ele>
        <time>2026-08-24T12:49:31.999Z</time>
      </trkpt>
      <trkpt lat="48.763105" lon="-1.170648">
        <ele>98.416</ele>
        <time>2026-08-24T12:49:32.999Z</time>
      </trkpt>
      <trkpt lat="48.763091" lon="-1.170648">
        <ele>98.609</ele>
        <time>2026-08-24T12:49:34.999Z</time>
      </trkpt>
      <trkpt lat="48.763078" lon="-1.170644">
        <ele>99.376</ele>
        <time>2026-08-24T12:49:35.999Z</time>
      </trkpt>
      <trkpt lat="48.763064" lon="-1.170647">
        <ele>100.262</ele>
        <time>2026-08-24T12:49:36.999Z</time>
      </trkpt>
      <trkpt lat="48.763045" lon="-1.170646">
        <ele>101.115</ele>
        <time>2026-08-24T12:49:38.999Z</time>
      </trkpt>
      <trkpt lat="48.763035" lon="-1.170640">
        <ele>101.682</ele>
        <time>2026-08-24T12:49:39.999Z</time>
      </trkpt>
      <trkpt lat="48.763024" lon="-1.170639">
        <ele>101.850</ele>
        <time>2026-08-24T12:49:40.999Z</time>
      </trkpt>
      <trkpt lat="48.763009" lon="-1.170633">
        <ele>102.268</ele>
        <time>2026-08-24T12:49:41.999Z</time>
      </trkpt>
      <trkpt lat="48.762996" lon="-1.170629">
        <ele>102.482</ele>
        <time>2026-08-24T12:49:42.999Z</time>
      </trkpt>
      <trkpt lat="48.762981" lon="-1.170624">
        <ele>102.489</ele>
        <time>2026-08-24T12:49:44.999Z</time>
      </trkpt>
      <trkpt lat="48.762964" lon="-1.170618">
        <ele>102.571</ele>
        <time>2026-08-24T12:49:46.999Z</time>
      </trkpt>
      <trkpt lat="48.762948" lon="-1.170617">
        <ele>102.521</ele>
        <time>2026-08-24T12:49:47.999Z</time>
      </trkpt>
      <trkpt lat="48.762933" lon="-1.170605">
        <ele>102.541</ele>
        <time>2026-08-24T12:49:48.999Z</time>
      </trkpt>
      <trkpt lat="48.762917" lon="-1.170595">
        <ele>102.605</ele>
        <time>2026-08-24T12:49:49.999Z</time>
      </trkpt>
      <trkpt lat="48.762904" lon="-1.170588">
        <ele>102.909</ele>
        <time>2026-08-24T12:49:50.999Z</time>
      </trkpt>
      <trkpt lat="48.762890" lon="-1.170584">
        <ele>103.464</ele>
        <time>2026-08-24T12:49:51.999Z</time>
      </trkpt>
      <trkpt lat="48.762878" lon="-1.170581">
        <ele>103.830</ele>
        <time>2026-08-24T12:49:52.999Z</time>
      </trkpt>
      <trkpt lat="48.762867" lon="-1.170577">
        <ele>104.053</ele>
        <time>2026-08-24T12:49:53.999Z</time>
      </trkpt>
      <trkpt lat="48.762854" lon="-1.170565">
        <ele>104.460</ele>
        <time>2026-08-24T12:49:54.999Z</time>
      </trkpt>
      <trkpt lat="48.762842" lon="-1.170563">
        <ele>105.078</ele>
        <time>2026-08-24T12:49:55.999Z</time>
      </trkpt>
      <trkpt lat="48.762828" lon="-1.170560">
        <ele>105.266</ele>
        <time>2026-08-24T12:49:57.999Z</time>
      </trkpt>
      <trkpt lat="48.762813" lon="-1.170555">
        <ele>105.450</ele>
        <time>2026-08-24T12:49:59.999Z</time>
      </trkpt>
      <trkpt lat="48.762795" lon="-1.170546">
        <ele>105.627</ele>
        <time>2026-08-24T12:50:01.999Z</time>
      </trkpt>
      <trkpt lat="48.762785" lon="-1.170539">
        <ele>106.279</ele>
        <time>2026-08-24T12:50:02.999Z</time>
      </trkpt>
      <trkpt lat="48.762774" lon="-1.170530">
        <ele>106.917</ele>
        <time>2026-08-24T12:50:03.999Z</time>
      </trkpt>
      <trkpt lat="48.762764" lon="-1.170521">
        <ele>107.387</ele>
        <time>2026-08-24T12:50:04.999Z</time>
      </trkpt>
      <trkpt lat="48.762756" lon="-1.170509">
        <ele>107.815</ele>
        <time>2026-08-24T12:50:05.999Z</time>
      </trkpt>
      <trkpt lat="48.762748" lon="-1.170500">
        <ele>108.109</ele>
        <time>2026-08-24T12:50:06.999Z</time>
      </trkpt>
      <trkpt lat="48.762740" lon="-1.170487">
        <ele>108.323</ele>
        <time>2026-08-24T12:50:07.999Z</time>
      </trkpt>
      <trkpt lat="48.762733" lon="-1.170474">
        <ele>108.329</ele>
        <time>2026-08-24T12:50:08.999Z</time>
      </trkpt>
      <trkpt lat="48.762728" lon="-1.170462">
        <ele>108.552</ele>
        <time>2026-08-24T12:50:09.999Z</time>
      </trkpt>
      <trkpt lat="48.762717" lon="-1.170451">
        <ele>108.679</ele>
        <time>2026-08-24T12:50:10.999Z</time>
      </trkpt>
      <trkpt lat="48.762706" lon="-1.170437">
        <ele>108.767</ele>
        <time>2026-08-24T12:50:11.999Z</time>
      </trkpt>
      <trkpt lat="48.762697" lon="-1.170429">
        <ele>108.765</ele>
        <time>2026-08-24T12:50:12.999Z</time>
      </trkpt>
      <trkpt lat="48.762687" lon="-1.170416">
        <ele>108.869</ele>
        <time>2026-08-24T12:50:13.999Z</time>
      </trkpt>
      <trkpt lat="48.762677" lon="-1.170412">
        <ele>108.866</ele>
        <time>2026-08-24T12:50:14.999Z</time>
      </trkpt>
      <trkpt lat="48.762668" lon="-1.170407">
        <ele>108.888</ele>
        <time>2026-08-24T12:50:15.999Z</time>
      </trkpt>
      <trkpt lat="48.762657" lon="-1.170394">
        <ele>108.979</ele>
        <time>2026-08-24T12:50:16.999Z</time>
      </trkpt>
      <trkpt lat="48.762646" lon="-1.170380">
        <ele>109.005</ele>
        <time>2026-08-24T12:50:17.999Z</time>
      </trkpt>
      <trkpt lat="48.762639" lon="-1.170367">
        <ele>109.225</ele>
        <time>2026-08-24T12:50:18.999Z</time>
      </trkpt>
      <trkpt lat="48.762629" lon="-1.170357">
        <ele>109.509</ele>
        <time>2026-08-24T12:50:19.999Z</time>
      </trkpt>
      <trkpt lat="48.762618" lon="-1.170332">
        <ele>109.939</ele>
        <time>2026-08-24T12:50:21.999Z</time>
      </trkpt>
      <trkpt lat="48.762609" lon="-1.170319">
        <ele>110.015</ele>
        <time>2026-08-24T12:50:22.999Z</time>
      </trkpt>
      <trkpt lat="48.762602" lon="-1.170305">
        <ele>110.048</ele>
        <time>2026-08-24T12:50:23.999Z</time>
      </trkpt>
      <trkpt lat="48.762594" lon="-1.170294">
        <ele>110.245</ele>
        <time>2026-08-24T12:50:24.999Z</time>
      </trkpt>
      <trkpt lat="48.762585" lon="-1.170281">
        <ele>110.563</ele>
        <time>2026-08-24T12:50:25.999Z</time>
      </trkpt>
      <trkpt lat="48.762576" lon="-1.170264">
        <ele>110.891</ele>
        <time>2026-08-24T12:50:26.999Z</time>
      </trkpt>
      <trkpt lat="48.762566" lon="-1.170252">
        <ele>111.125</ele>
        <time>2026-08-24T12:50:27.999Z</time>
      </trkpt>
      <trkpt lat="48.762557" lon="-1.170238">
        <ele>111.562</ele>
        <time>2026-08-24T12:50:28.999Z</time>
      </trkpt>
      <trkpt lat="48.762551" lon="-1.170223">
        <ele>111.824</ele>
        <time>2026-08-24T12:50:29.999Z</time>
      </trkpt>
      <trkpt lat="48.762549" lon="-1.170201">
        <ele>112.218</ele>
        <time>2026-08-24T12:50:30.999Z</time>
      </trkpt>
      <trkpt lat="48.762543" lon="-1.170185">
        <ele>112.498</ele>
        <time>2026-08-24T12:50:31.999Z</time>
      </trkpt>
      <trkpt lat="48.762537" lon="-1.170170">
        <ele>112.617</ele>
        <time>2026-08-24T12:50:32.999Z</time>
      </trkpt>
      <trkpt lat="48.762531" lon="-1.170157">
        <ele>112.809</ele>
        <time>2026-08-24T12:50:33.999Z</time>
      </trkpt>
      <trkpt lat="48.762525" lon="-1.170140">
        <ele>112.933</ele>
        <time>2026-08-24T12:50:34.999Z</time>
      </trkpt>
      <trkpt lat="48.762520" lon="-1.170121">
        <ele>113.019</ele>
        <time>2026-08-24T12:50:35.999Z</time>
      </trkpt>
      <trkpt lat="48.762515" lon="-1.170105">
        <ele>113.012</ele>
        <time>2026-08-24T12:50:36.999Z</time>
      </trkpt>
      <trkpt lat="48.762506" lon="-1.170076">
        <ele>113.099</ele>
        <time>2026-08-24T12:50:38.999Z</time>
      </trkpt>
      <trkpt lat="48.762502" lon="-1.170059">
        <ele>113.177</ele>
        <time>2026-08-24T12:50:39.999Z</time>
      </trkpt>
      <trkpt lat="48.762500" lon="-1.170039">
        <ele>113.125</ele>
        <time>2026-08-24T12:50:40.999Z</time>
      </trkpt>
      <trkpt lat="48.762497" lon="-1.170019">
        <ele>113.339</ele>
        <time>2026-08-24T12:50:41.999Z</time>
      </trkpt>
      <trkpt lat="48.762491" lon="-1.169998">
        <ele>113.446</ele>
        <time>2026-08-24T12:50:42.999Z</time>
      </trkpt>
      <trkpt lat="48.762484" lon="-1.169979">
        <ele>113.528</ele>
        <time>2026-08-24T12:50:43.999Z</time>
      </trkpt>
      <trkpt lat="48.762479" lon="-1.169966">
        <ele>113.653</ele>
        <time>2026-08-24T12:50:44.999Z</time>
      </trkpt>
      <trkpt lat="48.762474" lon="-1.169953">
        <ele>113.804</ele>
        <time>2026-08-24T12:50:45.999Z</time>
      </trkpt>
      <trkpt lat="48.762469" lon="-1.169936">
        <ele>114.114</ele>
        <time>2026-08-24T12:50:46.999Z</time>
      </trkpt>
      <trkpt lat="48.762467" lon="-1.169919">
        <ele>114.409</ele>
        <time>2026-08-24T12:50:47.999Z</time>
      </trkpt>
      <trkpt lat="48.762466" lon="-1.169898">
        <ele>114.777</ele>
        <time>2026-08-24T12:50:48.999Z</time>
      </trkpt>
      <trkpt lat="48.762463" lon="-1.169882">
        <ele>115.053</ele>
        <time>2026-08-24T12:50:49.999Z</time>
      </trkpt>
      <trkpt lat="48.762456" lon="-1.169858">
        <ele>115.226</ele>
        <time>2026-08-24T12:50:51.999Z</time>
      </trkpt>
      <trkpt lat="48.762451" lon="-1.169846">
        <ele>115.423</ele>
        <time>2026-08-24T12:50:52.999Z</time>
      </trkpt>
      <trkpt lat="48.762446" lon="-1.169827">
        <ele>115.491</ele>
        <time>2026-08-24T12:50:53.999Z</time>
      </trkpt>
      <trkpt lat="48.762440" lon="-1.169805">
        <ele>115.469</ele>
        <time>2026-08-24T12:50:54.999Z</time>
      </trkpt>
      <trkpt lat="48.762432" lon="-1.169782">
        <ele>115.513</ele>
        <time>2026-08-24T12:50:55.999Z</time>
      </trkpt>
      <trkpt lat="48.762424" lon="-1.169766">
        <ele>115.620</ele>
        <time>2026-08-24T12:50:56.999Z</time>
      </trkpt>
      <trkpt lat="48.762415" lon="-1.169743">
        <ele>115.692</ele>
        <time>2026-08-24T12:50:58.999Z</time>
      </trkpt>
      <trkpt lat="48.762416" lon="-1.169726">
        <ele>115.728</ele>
        <time>2026-08-24T12:50:59.999Z</time>
      </trkpt>
      <trkpt lat="48.762411" lon="-1.169705">
        <ele>115.889</ele>
        <time>2026-08-24T12:51:00.999Z</time>
      </trkpt>
      <trkpt lat="48.762405" lon="-1.169688">
        <ele>115.817</ele>
        <time>2026-08-24T12:51:01.999Z</time>
      </trkpt>
      <trkpt lat="48.762399" lon="-1.169669">
        <ele>115.809</ele>
        <time>2026-08-24T12:51:02.999Z</time>
      </trkpt>
      <trkpt lat="48.762395" lon="-1.169648">
        <ele>115.894</ele>
        <time>2026-08-24T12:51:03.999Z</time>
      </trkpt>
      <trkpt lat="48.762390" lon="-1.169627">
        <ele>115.940</ele>
        <time>2026-08-24T12:51:04.999Z</time>
      </trkpt>
      <trkpt lat="48.762384" lon="-1.169616">
        <ele>115.933</ele>
        <time>2026-08-24T12:51:05.999Z</time>
      </trkpt>
      <trkpt lat="48.762377" lon="-1.169606">
        <ele>115.960</ele>
        <time>2026-08-24T12:51:06.999Z</time>
      </trkpt>
      <trkpt lat="48.762376" lon="-1.169591">
        <ele>115.948</ele>
        <time>2026-08-24T12:51:07.999Z</time>
      </trkpt>
      <trkpt lat="48.762372" lon="-1.169575">
        <ele>115.956</ele>
        <time>2026-08-24T12:51:08.999Z</time>
      </trkpt>
      <trkpt lat="48.762368" lon="-1.169555">
        <ele>115.980</ele>
        <time>2026-08-24T12:51:09.999Z</time>
      </trkpt>
      <trkpt lat="48.762365" lon="-1.169533">
        <ele>115.937</ele>
        <time>2026-08-24T12:51:10.999Z</time>
      </trkpt>
      <trkpt lat="48.762361" lon="-1.169510">
        <ele>115.929</ele>
        <time>2026-08-24T12:51:11.999Z</time>
      </trkpt>
      <trkpt lat="48.762361" lon="-1.169494">
        <ele>115.921</ele>
        <time>2026-08-24T12:51:12.999Z</time>
      </trkpt>
      <trkpt lat="48.762358" lon="-1.169478">
        <ele>116.041</ele>
        <time>2026-08-24T12:51:13.999Z</time>
      </trkpt>
      <trkpt lat="48.762354" lon="-1.169457">
        <ele>116.005</ele>
        <time>2026-08-24T12:51:14.999Z</time>
      </trkpt>
      <trkpt lat="48.762350" lon="-1.169434">
        <ele>116.009</ele>
        <time>2026-08-24T12:51:15.999Z</time>
      </trkpt>
      <trkpt lat="48.762342" lon="-1.169417">
        <ele>116.064</ele>
        <time>2026-08-24T12:51:16.999Z</time>
      </trkpt>
      <trkpt lat="48.762335" lon="-1.169400">
        <ele>116.010</ele>
        <time>2026-08-24T12:51:17.999Z</time>
      </trkpt>
      <trkpt lat="48.762330" lon="-1.169386">
        <ele>116.023</ele>
        <time>2026-08-24T12:51:18.999Z</time>
      </trkpt>
      <trkpt lat="48.762324" lon="-1.169370">
        <ele>116.020</ele>
        <time>2026-08-24T12:51:19.999Z</time>
      </trkpt>
      <trkpt lat="48.762322" lon="-1.169352">
        <ele>116.058</ele>
        <time>2026-08-24T12:51:20.999Z</time>
      </trkpt>
      <trkpt lat="48.762319" lon="-1.169334">
        <ele>116.066</ele>
        <time>2026-08-24T12:51:21.999Z</time>
      </trkpt>
      <trkpt lat="48.762315" lon="-1.169315">
        <ele>116.150</ele>
        <time>2026-08-24T12:51:22.999Z</time>
      </trkpt>
      <trkpt lat="48.762311" lon="-1.169295">
        <ele>116.167</ele>
        <time>2026-08-24T12:51:23.999Z</time>
      </trkpt>
      <trkpt lat="48.762309" lon="-1.169281">
        <ele>116.139</ele>
        <time>2026-08-24T12:51:24.999Z</time>
      </trkpt>
      <trkpt lat="48.762309" lon="-1.169260">
        <ele>116.227</ele>
        <time>2026-08-24T12:51:25.999Z</time>
      </trkpt>
      <trkpt lat="48.762307" lon="-1.169243">
        <ele>116.268</ele>
        <time>2026-08-24T12:51:26.999Z</time>
      </trkpt>
      <trkpt lat="48.762304" lon="-1.169225">
        <ele>116.214</ele>
        <time>2026-08-24T12:51:27.999Z</time>
      </trkpt>
      <trkpt lat="48.762296" lon="-1.169207">
        <ele>116.209</ele>
        <time>2026-08-24T12:51:28.999Z</time>
      </trkpt>
      <trkpt lat="48.762295" lon="-1.169191">
        <ele>116.234</ele>
        <time>2026-08-24T12:51:29.999Z</time>
      </trkpt>
      <trkpt lat="48.762290" lon="-1.169174">
        <ele>116.250</ele>
        <time>2026-08-24T12:51:30.999Z</time>
      </trkpt>
      <trkpt lat="48.762282" lon="-1.169161">
        <ele>116.253</ele>
        <time>2026-08-24T12:51:31.999Z</time>
      </trkpt>
      <trkpt lat="48.762277" lon="-1.169147">
        <ele>116.270</ele>
        <time>2026-08-24T12:51:32.999Z</time>
      </trkpt>
      <trkpt lat="48.762268" lon="-1.169124">
        <ele>116.248</ele>
        <time>2026-08-24T12:51:33.999Z</time>
      </trkpt>
      <trkpt lat="48.762264" lon="-1.169109">
        <ele>116.286</ele>
        <time>2026-08-24T12:51:34.999Z</time>
      </trkpt>
      <trkpt lat="48.762260" lon="-1.169094">
        <ele>116.380</ele>
        <time>2026-08-24T12:51:35.999Z</time>
      </trkpt>
      <trkpt lat="48.762251" lon="-1.169078">
        <ele>116.317</ele>
        <time>2026-08-24T12:51:36.999Z</time>
      </trkpt>
      <trkpt lat="48.762245" lon="-1.169054">
        <ele>116.399</ele>
        <time>2026-08-24T12:51:37.999Z</time>
      </trkpt>
      <trkpt lat="48.762240" lon="-1.169034">
        <ele>116.442</ele>
        <time>2026-08-24T12:51:38.999Z</time>
      </trkpt>
      <trkpt lat="48.762236" lon="-1.169012">
        <ele>116.422</ele>
        <time>2026-08-24T12:51:39.999Z</time>
      </trkpt>
      <trkpt lat="48.762231" lon="-1.168993">
        <ele>116.414</ele>
        <time>2026-08-24T12:51:40.999Z</time>
      </trkpt>
      <trkpt lat="48.762225" lon="-1.168976">
        <ele>116.409</ele>
        <time>2026-08-24T12:51:41.999Z</time>
      </trkpt>
      <trkpt lat="48.762221" lon="-1.168961">
        <ele>116.556</ele>
        <time>2026-08-24T12:51:42.999Z</time>
      </trkpt>
      <trkpt lat="48.762219" lon="-1.168943">
        <ele>116.652</ele>
        <time>2026-08-24T12:51:43.999Z</time>
      </trkpt>
      <trkpt lat="48.762215" lon="-1.168928">
        <ele>116.715</ele>
        <time>2026-08-24T12:51:44.999Z</time>
      </trkpt>
      <trkpt lat="48.762211" lon="-1.168909">
        <ele>117.062</ele>
        <time>2026-08-24T12:51:45.999Z</time>
      </trkpt>
      <trkpt lat="48.762205" lon="-1.168889">
        <ele>117.250</ele>
        <time>2026-08-24T12:51:46.999Z</time>
      </trkpt>
      <trkpt lat="48.762200" lon="-1.168863">
        <ele>117.398</ele>
        <time>2026-08-24T12:51:47.999Z</time>
      </trkpt>
      <trkpt lat="48.762193" lon="-1.168841">
        <ele>117.412</ele>
        <time>2026-08-24T12:51:48.999Z</time>
      </trkpt>
      <trkpt lat="48.762188" lon="-1.168825">
        <ele>117.619</ele>
        <time>2026-08-24T12:51:49.999Z</time>
      </trkpt>
      <trkpt lat="48.762185" lon="-1.168809">
        <ele>117.661</ele>
        <time>2026-08-24T12:51:50.999Z</time>
      </trkpt>
      <trkpt lat="48.762182" lon="-1.168794">
        <ele>117.659</ele>
        <time>2026-08-24T12:51:51.999Z</time>
      </trkpt>
      <trkpt lat="48.762179" lon="-1.168777">
        <ele>117.603</ele>
        <time>2026-08-24T12:51:52.999Z</time>
      </trkpt>
      <trkpt lat="48.762175" lon="-1.168757">
        <ele>117.623</ele>
        <time>2026-08-24T12:51:53.999Z</time>
      </trkpt>
      <trkpt lat="48.762166" lon="-1.168735">
        <ele>117.609</ele>
        <time>2026-08-24T12:51:54.999Z</time>
      </trkpt>
      <trkpt lat="48.762158" lon="-1.168714">
        <ele>117.677</ele>
        <time>2026-08-24T12:51:55.999Z</time>
      </trkpt>
      <trkpt lat="48.762151" lon="-1.168699">
        <ele>117.633</ele>
        <time>2026-08-24T12:51:56.999Z</time>
      </trkpt>
      <trkpt lat="48.762148" lon="-1.168684">
        <ele>117.686</ele>
        <time>2026-08-24T12:51:57.999Z</time>
      </trkpt>
      <trkpt lat="48.762146" lon="-1.168664">
        <ele>117.633</ele>
        <time>2026-08-24T12:51:58.999Z</time>
      </trkpt>
      <trkpt lat="48.762139" lon="-1.168648">
        <ele>117.611</ele>
        <time>2026-08-24T12:51:59.999Z</time>
      </trkpt>
      <trkpt lat="48.762135" lon="-1.168633">
        <ele>117.649</ele>
        <time>2026-08-24T12:52:00.999Z</time>
      </trkpt>
      <trkpt lat="48.762128" lon="-1.168610">
        <ele>117.673</ele>
        <time>2026-08-24T12:52:01.999Z</time>
      </trkpt>
      <trkpt lat="48.762121" lon="-1.168593">
        <ele>117.620</ele>
        <time>2026-08-24T12:52:02.999Z</time>
      </trkpt>
      <trkpt lat="48.762117" lon="-1.168577">
        <ele>117.662</ele>
        <time>2026-08-24T12:52:03.999Z</time>
      </trkpt>
      <trkpt lat="48.762113" lon="-1.168562">
        <ele>117.672</ele>
        <time>2026-08-24T12:52:04.999Z</time>
      </trkpt>
      <trkpt lat="48.762106" lon="-1.168537">
        <ele>117.613</ele>
        <time>2026-08-24T12:52:06.999Z</time>
      </trkpt>
      <trkpt lat="48.762106" lon="-1.168519">
        <ele>117.614</ele>
        <time>2026-08-24T12:52:07.999Z</time>
      </trkpt>
      <trkpt lat="48.762104" lon="-1.168502">
        <ele>117.509</ele>
        <time>2026-08-24T12:52:08.999Z</time>
      </trkpt>
      <trkpt lat="48.762105" lon="-1.168478">
        <ele>117.539</ele>
        <time>2026-08-24T12:52:09.999Z</time>
      </trkpt>
      <trkpt lat="48.762105" lon="-1.168451">
        <ele>117.585</ele>
        <time>2026-08-24T12:52:10.999Z</time>
      </trkpt>
      <trkpt lat="48.762105" lon="-1.168431">
        <ele>117.528</ele>
        <time>2026-08-24T12:52:11.999Z</time>
      </trkpt>
      <trkpt lat="48.762107" lon="-1.168410">
        <ele>117.525</ele>
        <time>2026-08-24T12:52:12.999Z</time>
      </trkpt>
      <trkpt lat="48.762110" lon="-1.168391">
        <ele>117.593</ele>
        <time>2026-08-24T12:52:13.999Z</time>
      </trkpt>
      <trkpt lat="48.762122" lon="-1.168374">
        <ele>117.411</ele>
        <time>2026-08-24T12:52:15.999Z</time>
      </trkpt>
      <trkpt lat="48.762131" lon="-1.168363">
        <ele>117.445</ele>
        <time>2026-08-24T12:52:16.999Z</time>
      </trkpt>
      <trkpt lat="48.762136" lon="-1.168340">
        <ele>117.432</ele>
        <time>2026-08-24T12:52:17.999Z</time>
      </trkpt>
      <trkpt lat="48.762139" lon="-1.168318">
        <ele>117.414</ele>
        <time>2026-08-24T12:52:18.999Z</time>
      </trkpt>
      <trkpt lat="48.762146" lon="-1.168295">
        <ele>117.486</ele>
        <time>2026-08-24T12:52:19.999Z</time>
      </trkpt>
      <trkpt lat="48.762154" lon="-1.168273">
        <ele>117.460</ele>
        <time>2026-08-24T12:52:20.999Z</time>
      </trkpt>
      <trkpt lat="48.762160" lon="-1.168259">
        <ele>117.326</ele>
        <time>2026-08-24T12:52:21.999Z</time>
      </trkpt>
      <trkpt lat="48.762167" lon="-1.168244">
        <ele>117.309</ele>
        <time>2026-08-24T12:52:22.999Z</time>
      </trkpt>
      <trkpt lat="48.762172" lon="-1.168228">
        <ele>117.280</ele>
        <time>2026-08-24T12:52:23.999Z</time>
      </trkpt>
      <trkpt lat="48.762178" lon="-1.168211">
        <ele>117.286</ele>
        <time>2026-08-24T12:52:24.999Z</time>
      </trkpt>
      <trkpt lat="48.762190" lon="-1.168194">
        <ele>117.269</ele>
        <time>2026-08-24T12:52:25.999Z</time>
      </trkpt>
      <trkpt lat="48.762200" lon="-1.168181">
        <ele>117.166</ele>
        <time>2026-08-24T12:52:26.999Z</time>
      </trkpt>
      <trkpt lat="48.762209" lon="-1.168168">
        <ele>117.114</ele>
        <time>2026-08-24T12:52:27.999Z</time>
      </trkpt>
      <trkpt lat="48.762218" lon="-1.168154">
        <ele>117.072</ele>
        <time>2026-08-24T12:52:28.999Z</time>
      </trkpt>
      <trkpt lat="48.762228" lon="-1.168140">
        <ele>116.986</ele>
        <time>2026-08-24T12:52:29.999Z</time>
      </trkpt>
      <trkpt lat="48.762238" lon="-1.168128">
        <ele>116.943</ele>
        <time>2026-08-24T12:52:30.999Z</time>
      </trkpt>
      <trkpt lat="48.762248" lon="-1.168117">
        <ele>116.975</ele>
        <time>2026-08-24T12:52:31.999Z</time>
      </trkpt>
      <trkpt lat="48.762259" lon="-1.168112">
        <ele>116.896</ele>
        <time>2026-08-24T12:52:32.999Z</time>
      </trkpt>
      <trkpt lat="48.762269" lon="-1.168100">
        <ele>116.831</ele>
        <time>2026-08-24T12:52:33.999Z</time>
      </trkpt>
      <trkpt lat="48.762277" lon="-1.168094">
        <ele>116.824</ele>
        <time>2026-08-24T12:52:34.999Z</time>
      </trkpt>
      <trkpt lat="48.762287" lon="-1.168089">
        <ele>116.809</ele>
        <time>2026-08-24T12:52:35.999Z</time>
      </trkpt>
      <trkpt lat="48.762302" lon="-1.168078">
        <ele>116.841</ele>
        <time>2026-08-24T12:52:37.999Z</time>
      </trkpt>
      <trkpt lat="48.762319" lon="-1.168074">
        <ele>116.797</ele>
        <time>2026-08-24T12:52:38.999Z</time>
      </trkpt>
      <trkpt lat="48.762333" lon="-1.168066">
        <ele>116.830</ele>
        <time>2026-08-24T12:52:39.999Z</time>
      </trkpt>
      <trkpt lat="48.762348" lon="-1.168059">
        <ele>116.877</ele>
        <time>2026-08-24T12:52:40.999Z</time>
      </trkpt>
      <trkpt lat="48.762360" lon="-1.168054">
        <ele>116.825</ele>
        <time>2026-08-24T12:52:41.999Z</time>
      </trkpt>
      <trkpt lat="48.762371" lon="-1.168055">
        <ele>116.893</ele>
        <time>2026-08-24T12:52:42.999Z</time>
      </trkpt>
      <trkpt lat="48.762384" lon="-1.168054">
        <ele>116.877</ele>
        <time>2026-08-24T12:52:43.999Z</time>
      </trkpt>
      <trkpt lat="48.762399" lon="-1.168050">
        <ele>116.824</ele>
        <time>2026-08-24T12:52:44.999Z</time>
      </trkpt>
      <trkpt lat="48.762412" lon="-1.168045">
        <ele>116.836</ele>
        <time>2026-08-24T12:52:45.999Z</time>
      </trkpt>
      <trkpt lat="48.762422" lon="-1.168034">
        <ele>116.741</ele>
        <time>2026-08-24T12:52:46.999Z</time>
      </trkpt>
      <trkpt lat="48.762431" lon="-1.168017">
        <ele>116.681</ele>
        <time>2026-08-24T12:52:47.999Z</time>
      </trkpt>
      <trkpt lat="48.762438" lon="-1.168005">
        <ele>116.609</ele>
        <time>2026-08-24T12:52:48.999Z</time>
      </trkpt>
      <trkpt lat="48.762446" lon="-1.167995">
        <ele>116.609</ele>
        <time>2026-08-24T12:52:49.999Z</time>
      </trkpt>
      <trkpt lat="48.762458" lon="-1.167990">
        <ele>116.596</ele>
        <time>2026-08-24T12:52:50.999Z</time>
      </trkpt>
      <trkpt lat="48.762473" lon="-1.167984">
        <ele>116.552</ele>
        <time>2026-08-24T12:52:51.999Z</time>
      </trkpt>
      <trkpt lat="48.762487" lon="-1.167982">
        <ele>116.535</ele>
        <time>2026-08-24T12:52:52.999Z</time>
      </trkpt>
      <trkpt lat="48.762501" lon="-1.167980">
        <ele>116.522</ele>
        <time>2026-08-24T12:52:53.999Z</time>
      </trkpt>
      <trkpt lat="48.762516" lon="-1.167974">
        <ele>116.550</ele>
        <time>2026-08-24T12:52:54.999Z</time>
      </trkpt>
      <trkpt lat="48.762530" lon="-1.167966">
        <ele>116.538</ele>
        <time>2026-08-24T12:52:55.999Z</time>
      </trkpt>
      <trkpt lat="48.762541" lon="-1.167961">
        <ele>116.532</ele>
        <time>2026-08-24T12:52:56.999Z</time>
      </trkpt>
      <trkpt lat="48.762553" lon="-1.167956">
        <ele>116.569</ele>
        <time>2026-08-24T12:52:57.999Z</time>
      </trkpt>
      <trkpt lat="48.762566" lon="-1.167953">
        <ele>116.541</ele>
        <time>2026-08-24T12:52:58.999Z</time>
      </trkpt>
      <trkpt lat="48.762576" lon="-1.167947">
        <ele>116.587</ele>
        <time>2026-08-24T12:52:59.999Z</time>
      </trkpt>
      <trkpt lat="48.762588" lon="-1.167939">
        <ele>116.542</ele>
        <time>2026-08-24T12:53:00.999Z</time>
      </trkpt>
      <trkpt lat="48.762599" lon="-1.167935">
        <ele>116.526</ele>
        <time>2026-08-24T12:53:01.999Z</time>
      </trkpt>
      <trkpt lat="48.762610" lon="-1.167927">
        <ele>116.509</ele>
        <time>2026-08-24T12:53:02.999Z</time>
      </trkpt>
      <trkpt lat="48.762626" lon="-1.167920">
        <ele>116.640</ele>
        <time>2026-08-24T12:53:03.999Z</time>
      </trkpt>
      <trkpt lat="48.762638" lon="-1.167916">
        <ele>116.656</ele>
        <time>2026-08-24T12:53:04.999Z</time>
      </trkpt>
      <trkpt lat="48.762652" lon="-1.167910">
        <ele>116.689</ele>
        <time>2026-08-24T12:53:05.999Z</time>
      </trkpt>
      <trkpt lat="48.762661" lon="-1.167908">
        <ele>116.626</ele>
        <time>2026-08-24T12:53:06.999Z</time>
      </trkpt>
      <trkpt lat="48.762671" lon="-1.167903">
        <ele>116.724</ele>
        <time>2026-08-24T12:53:07.999Z</time>
      </trkpt>
      <trkpt lat="48.762683" lon="-1.167901">
        <ele>116.732</ele>
        <time>2026-08-24T12:53:08.999Z</time>
      </trkpt>
      <trkpt lat="48.762700" lon="-1.167894">
        <ele>116.716</ele>
        <time>2026-08-24T12:53:09.999Z</time>
      </trkpt>
      <trkpt lat="48.762715" lon="-1.167886">
        <ele>116.783</ele>
        <time>2026-08-24T12:53:10.999Z</time>
      </trkpt>
      <trkpt lat="48.762732" lon="-1.167879">
        <ele>116.785</ele>
        <time>2026-08-24T12:53:11.999Z</time>
      </trkpt>
      <trkpt lat="48.762742" lon="-1.167873">
        <ele>116.716</ele>
        <time>2026-08-24T12:53:12.999Z</time>
      </trkpt>
      <trkpt lat="48.762763" lon="-1.167867">
        <ele>116.776</ele>
        <time>2026-08-24T12:53:14.999Z</time>
      </trkpt>
      <trkpt lat="48.762778" lon="-1.167863">
        <ele>116.713</ele>
        <time>2026-08-24T12:53:15.999Z</time>
      </trkpt>
      <trkpt lat="48.762793" lon="-1.167857">
        <ele>116.709</ele>
        <time>2026-08-24T12:53:16.999Z</time>
      </trkpt>
      <trkpt lat="48.762805" lon="-1.167854">
        <ele>116.893</ele>
        <time>2026-08-24T12:53:17.999Z</time>
      </trkpt>
      <trkpt lat="48.762816" lon="-1.167842">
        <ele>116.879</ele>
        <time>2026-08-24T12:53:18.999Z</time>
      </trkpt>
      <trkpt lat="48.762827" lon="-1.167838">
        <ele>116.952</ele>
        <time>2026-08-24T12:53:19.999Z</time>
      </trkpt>
      <trkpt lat="48.762836" lon="-1.167832">
        <ele>117.179</ele>
        <time>2026-08-24T12:53:20.999Z</time>
      </trkpt>
      <trkpt lat="48.762850" lon="-1.167825">
        <ele>117.437</ele>
        <time>2026-08-24T12:53:21.999Z</time>
      </trkpt>
      <trkpt lat="48.762862" lon="-1.167821">
        <ele>117.625</ele>
        <time>2026-08-24T12:53:22.999Z</time>
      </trkpt>
      <trkpt lat="48.762877" lon="-1.167816">
        <ele>117.739</ele>
        <time>2026-08-24T12:53:23.999Z</time>
      </trkpt>
      <trkpt lat="48.762890" lon="-1.167810">
        <ele>117.826</ele>
        <time>2026-08-24T12:53:24.999Z</time>
      </trkpt>
      <trkpt lat="48.762901" lon="-1.167805">
        <ele>117.868</ele>
        <time>2026-08-24T12:53:25.999Z</time>
      </trkpt>
      <trkpt lat="48.762918" lon="-1.167798">
        <ele>117.984</ele>
        <time>2026-08-24T12:53:27.999Z</time>
      </trkpt>
      <trkpt lat="48.762930" lon="-1.167791">
        <ele>118.007</ele>
        <time>2026-08-24T12:53:28.999Z</time>
      </trkpt>
      <trkpt lat="48.762941" lon="-1.167785">
        <ele>118.017</ele>
        <time>2026-08-24T12:53:29.999Z</time>
      </trkpt>
      <trkpt lat="48.762951" lon="-1.167776">
        <ele>118.009</ele>
        <time>2026-08-24T12:53:30.999Z</time>
      </trkpt>
      <trkpt lat="48.762961" lon="-1.167771">
        <ele>118.020</ele>
        <time>2026-08-24T12:53:31.999Z</time>
      </trkpt>
      <trkpt lat="48.762971" lon="-1.167768">
        <ele>118.196</ele>
        <time>2026-08-24T12:53:32.999Z</time>
      </trkpt>
      <trkpt lat="48.762983" lon="-1.167763">
        <ele>118.119</ele>
        <time>2026-08-24T12:53:33.999Z</time>
      </trkpt>
      <trkpt lat="48.762995" lon="-1.167762">
        <ele>118.286</ele>
        <time>2026-08-24T12:53:34.999Z</time>
      </trkpt>
      <trkpt lat="48.763010" lon="-1.167755">
        <ele>118.274</ele>
        <time>2026-08-24T12:53:35.999Z</time>
      </trkpt>
      <trkpt lat="48.763022" lon="-1.167751">
        <ele>118.222</ele>
        <time>2026-08-24T12:53:36.999Z</time>
      </trkpt>
      <trkpt lat="48.763038" lon="-1.167749">
        <ele>118.256</ele>
        <time>2026-08-24T12:53:37.999Z</time>
      </trkpt>
      <trkpt lat="48.763050" lon="-1.167744">
        <ele>118.293</ele>
        <time>2026-08-24T12:53:38.999Z</time>
      </trkpt>
      <trkpt lat="48.763059" lon="-1.167741">
        <ele>118.275</ele>
        <time>2026-08-24T12:53:39.999Z</time>
      </trkpt>
      <trkpt lat="48.763068" lon="-1.167736">
        <ele>118.239</ele>
        <time>2026-08-24T12:53:40.999Z</time>
      </trkpt>
      <trkpt lat="48.763083" lon="-1.167728">
        <ele>118.301</ele>
        <time>2026-08-24T12:53:41.999Z</time>
      </trkpt>
      <trkpt lat="48.763097" lon="-1.167726">
        <ele>118.321</ele>
        <time>2026-08-24T12:53:42.999Z</time>
      </trkpt>
      <trkpt lat="48.763111" lon="-1.167727">
        <ele>118.309</ele>
        <time>2026-08-24T12:53:43.999Z</time>
      </trkpt>
      <trkpt lat="48.763123" lon="-1.167723">
        <ele>118.415</ele>
        <time>2026-08-24T12:53:44.999Z</time>
      </trkpt>
      <trkpt lat="48.763136" lon="-1.167714">
        <ele>118.531</ele>
        <time>2026-08-24T12:53:45.999Z</time>
      </trkpt>
      <trkpt lat="48.763148" lon="-1.167703">
        <ele>118.654</ele>
        <time>2026-08-24T12:53:46.999Z</time>
      </trkpt>
      <trkpt lat="48.763159" lon="-1.167697">
        <ele>118.981</ele>
        <time>2026-08-24T12:53:47.999Z</time>
      </trkpt>
      <trkpt lat="48.763171" lon="-1.167693">
        <ele>119.399</ele>
        <time>2026-08-24T12:53:48.999Z</time>
      </trkpt>
      <trkpt lat="48.763185" lon="-1.167692">
        <ele>119.597</ele>
        <time>2026-08-24T12:53:49.999Z</time>
      </trkpt>
      <trkpt lat="48.763195" lon="-1.167688">
        <ele>119.761</ele>
        <time>2026-08-24T12:53:50.999Z</time>
      </trkpt>
      <trkpt lat="48.763204" lon="-1.167680">
        <ele>119.858</ele>
        <time>2026-08-24T12:53:51.999Z</time>
      </trkpt>
      <trkpt lat="48.763215" lon="-1.167671">
        <ele>119.990</ele>
        <time>2026-08-24T12:53:52.999Z</time>
      </trkpt>
      <trkpt lat="48.763229" lon="-1.167664">
        <ele>119.927</ele>
        <time>2026-08-24T12:53:53.999Z</time>
      </trkpt>
      <trkpt lat="48.763243" lon="-1.167657">
        <ele>120.068</ele>
        <time>2026-08-24T12:53:54.999Z</time>
      </trkpt>
      <trkpt lat="48.763260" lon="-1.167654">
        <ele>120.214</ele>
        <time>2026-08-24T12:53:55.999Z</time>
      </trkpt>
      <trkpt lat="48.763273" lon="-1.167651">
        <ele>120.209</ele>
        <time>2026-08-24T12:53:56.999Z</time>
      </trkpt>
      <trkpt lat="48.763285" lon="-1.167652">
        <ele>120.454</ele>
        <time>2026-08-24T12:53:57.999Z</time>
      </trkpt>
      <trkpt lat="48.763296" lon="-1.167648">
        <ele>120.890</ele>
        <time>2026-08-24T12:53:58.999Z</time>
      </trkpt>
      <trkpt lat="48.763308" lon="-1.167643">
        <ele>121.073</ele>
        <time>2026-08-24T12:53:59.999Z</time>
      </trkpt>
      <trkpt lat="48.763325" lon="-1.167639">
        <ele>121.090</ele>
        <time>2026-08-24T12:54:00.999Z</time>
      </trkpt>
      <trkpt lat="48.763335" lon="-1.167630">
        <ele>121.038</ele>
        <time>2026-08-24T12:54:01.999Z</time>
      </trkpt>
      <trkpt lat="48.763354" lon="-1.167621">
        <ele>121.136</ele>
        <time>2026-08-24T12:54:03.999Z</time>
      </trkpt>
      <trkpt lat="48.763366" lon="-1.167618">
        <ele>121.160</ele>
        <time>2026-08-24T12:54:04.999Z</time>
      </trkpt>
      <trkpt lat="48.763383" lon="-1.167613">
        <ele>121.217</ele>
        <time>2026-08-24T12:54:05.999Z</time>
      </trkpt>
      <trkpt lat="48.763399" lon="-1.167603">
        <ele>121.249</ele>
        <time>2026-08-24T12:54:06.999Z</time>
      </trkpt>
      <trkpt lat="48.763411" lon="-1.167598">
        <ele>121.211</ele>
        <time>2026-08-24T12:54:07.999Z</time>
      </trkpt>
      <trkpt lat="48.763421" lon="-1.167591">
        <ele>121.321</ele>
        <time>2026-08-24T12:54:08.999Z</time>
      </trkpt>
      <trkpt lat="48.763433" lon="-1.167588">
        <ele>121.303</ele>
        <time>2026-08-24T12:54:09.999Z</time>
      </trkpt>
      <trkpt lat="48.763455" lon="-1.167578">
        <ele>121.509</ele>
        <time>2026-08-24T12:54:11.999Z</time>
      </trkpt>
      <trkpt lat="48.763466" lon="-1.167571">
        <ele>121.723</ele>
        <time>2026-08-24T12:54:12.999Z</time>
      </trkpt>
      <trkpt lat="48.763479" lon="-1.167563">
        <ele>121.859</ele>
        <time>2026-08-24T12:54:13.999Z</time>
      </trkpt>
      <trkpt lat="48.763493" lon="-1.167559">
        <ele>121.922</ele>
        <time>2026-08-24T12:54:15.999Z</time>
      </trkpt>
      <trkpt lat="48.763502" lon="-1.167557">
        <ele>121.949</ele>
        <time>2026-08-24T12:54:16.999Z</time>
      </trkpt>
      <trkpt lat="48.763518" lon="-1.167551">
        <ele>122.097</ele>
        <time>2026-08-24T12:54:17.999Z</time>
      </trkpt>
      <trkpt lat="48.763537" lon="-1.167543">
        <ele>122.185</ele>
        <time>2026-08-24T12:54:18.999Z</time>
      </trkpt>
      <trkpt lat="48.763554" lon="-1.167540">
        <ele>122.229</ele>
        <time>2026-08-24T12:54:19.999Z</time>
      </trkpt>
      <trkpt lat="48.763568" lon="-1.167535">
        <ele>122.246</ele>
        <time>2026-08-24T12:54:20.999Z</time>
      </trkpt>
      <trkpt lat="48.763578" lon="-1.167531">
        <ele>122.238</ele>
        <time>2026-08-24T12:54:21.999Z</time>
      </trkpt>
      <trkpt lat="48.763588" lon="-1.167526">
        <ele>122.266</ele>
        <time>2026-08-24T12:54:22.999Z</time>
      </trkpt>
      <trkpt lat="48.763600" lon="-1.167521">
        <ele>122.329</ele>
        <time>2026-08-24T12:54:23.999Z</time>
      </trkpt>
      <trkpt lat="48.763616" lon="-1.167513">
        <ele>122.321</ele>
        <time>2026-08-24T12:54:24.999Z</time>
      </trkpt>
      <trkpt lat="48.763631" lon="-1.167511">
        <ele>122.309</ele>
        <time>2026-08-24T12:54:25.999Z</time>
      </trkpt>
      <trkpt lat="48.763642" lon="-1.167515">
        <ele>122.468</ele>
        <time>2026-08-24T12:54:26.999Z</time>
      </trkpt>
      <trkpt lat="48.763657" lon="-1.167511">
        <ele>122.544</ele>
        <time>2026-08-24T12:54:27.999Z</time>
      </trkpt>
      <trkpt lat="48.763672" lon="-1.167503">
        <ele>122.677</ele>
        <time>2026-08-24T12:54:28.999Z</time>
      </trkpt>
      <trkpt lat="48.763683" lon="-1.167498">
        <ele>122.634</ele>
        <time>2026-08-24T12:54:29.999Z</time>
      </trkpt>
      <trkpt lat="48.763695" lon="-1.167491">
        <ele>122.642</ele>
        <time>2026-08-24T12:54:30.999Z</time>
      </trkpt>
      <trkpt lat="48.763710" lon="-1.167489">
        <ele>122.670</ele>
        <time>2026-08-24T12:54:32.999Z</time>
      </trkpt>
      <trkpt lat="48.763720" lon="-1.167490">
        <ele>122.754</ele>
        <time>2026-08-24T12:54:33.999Z</time>
      </trkpt>
      <trkpt lat="48.763733" lon="-1.167485">
        <ele>122.721</ele>
        <time>2026-08-24T12:54:34.999Z</time>
      </trkpt>
      <trkpt lat="48.763744" lon="-1.167478">
        <ele>122.743</ele>
        <time>2026-08-24T12:54:35.999Z</time>
      </trkpt>
      <trkpt lat="48.763755" lon="-1.167477">
        <ele>122.856</ele>
        <time>2026-08-24T12:54:36.999Z</time>
      </trkpt>
      <trkpt lat="48.763777" lon="-1.167478">
        <ele>122.959</ele>
        <time>2026-08-24T12:54:38.999Z</time>
      </trkpt>
      <trkpt lat="48.763793" lon="-1.167468">
        <ele>123.014</ele>
        <time>2026-08-24T12:54:39.999Z</time>
      </trkpt>
      <trkpt lat="48.763808" lon="-1.167459">
        <ele>123.309</ele>
        <time>2026-08-24T12:54:40.999Z</time>
      </trkpt>
      <trkpt lat="48.763819" lon="-1.167456">
        <ele>123.687</ele>
        <time>2026-08-24T12:54:41.999Z</time>
      </trkpt>
      <trkpt lat="48.763828" lon="-1.167449">
        <ele>124.023</ele>
        <time>2026-08-24T12:54:42.999Z</time>
      </trkpt>
      <trkpt lat="48.763837" lon="-1.167444">
        <ele>124.246</ele>
        <time>2026-08-24T12:54:43.999Z</time>
      </trkpt>
      <trkpt lat="48.763848" lon="-1.167438">
        <ele>124.243</ele>
        <time>2026-08-24T12:54:44.999Z</time>
      </trkpt>
      <trkpt lat="48.763860" lon="-1.167436">
        <ele>124.261</ele>
        <time>2026-08-24T12:54:45.999Z</time>
      </trkpt>
      <trkpt lat="48.763869" lon="-1.167428">
        <ele>124.279</ele>
        <time>2026-08-24T12:54:46.999Z</time>
      </trkpt>
      <trkpt lat="48.763885" lon="-1.167420">
        <ele>124.383</ele>
        <time>2026-08-24T12:54:48.999Z</time>
      </trkpt>
      <trkpt lat="48.763895" lon="-1.167417">
        <ele>124.370</ele>
        <time>2026-08-24T12:54:49.999Z</time>
      </trkpt>
      <trkpt lat="48.763903" lon="-1.167408">
        <ele>124.462</ele>
        <time>2026-08-24T12:54:50.999Z</time>
      </trkpt>
      <trkpt lat="48.763914" lon="-1.167408">
        <ele>124.472</ele>
        <time>2026-08-24T12:54:51.999Z</time>
      </trkpt>
      <trkpt lat="48.763926" lon="-1.167412">
        <ele>124.513</ele>
        <time>2026-08-24T12:54:52.999Z</time>
      </trkpt>
      <trkpt lat="48.763937" lon="-1.167412">
        <ele>124.614</ele>
        <time>2026-08-24T12:54:53.999Z</time>
      </trkpt>
      <trkpt lat="48.763947" lon="-1.167408">
        <ele>124.909</ele>
        <time>2026-08-24T12:54:54.999Z</time>
      </trkpt>
      <trkpt lat="48.763963" lon="-1.167402">
        <ele>125.269</ele>
        <time>2026-08-24T12:54:55.999Z</time>
      </trkpt>
      <trkpt lat="48.763975" lon="-1.167402">
        <ele>125.565</ele>
        <time>2026-08-24T12:54:56.999Z</time>
      </trkpt>
      <trkpt lat="48.763985" lon="-1.167395">
        <ele>125.678</ele>
        <time>2026-08-24T12:54:57.999Z</time>
      </trkpt>
      <trkpt lat="48.763997" lon="-1.167387">
        <ele>125.785</ele>
        <time>2026-08-24T12:54:58.999Z</time>
      </trkpt>
      <trkpt lat="48.764010" lon="-1.167381">
        <ele>125.943</ele>
        <time>2026-08-24T12:54:59.999Z</time>
      </trkpt>
      <trkpt lat="48.764023" lon="-1.167378">
        <ele>126.141</ele>
        <time>2026-08-24T12:55:00.999Z</time>
      </trkpt>
      <trkpt lat="48.764035" lon="-1.167376">
        <ele>126.485</ele>
        <time>2026-08-24T12:55:01.999Z</time>
      </trkpt>
      <trkpt lat="48.764045" lon="-1.167372">
        <ele>126.772</ele>
        <time>2026-08-24T12:55:02.999Z</time>
      </trkpt>
      <trkpt lat="48.764056" lon="-1.167366">
        <ele>127.044</ele>
        <time>2026-08-24T12:55:03.999Z</time>
      </trkpt>
      <trkpt lat="48.764072" lon="-1.167354">
        <ele>127.049</ele>
        <time>2026-08-24T12:55:05.999Z</time>
      </trkpt>
      <trkpt lat="48.764083" lon="-1.167353">
        <ele>127.002</ele>
        <time>2026-08-24T12:55:06.999Z</time>
      </trkpt>
      <trkpt lat="48.764100" lon="-1.167352">
        <ele>127.122</ele>
        <time>2026-08-24T12:55:07.999Z</time>
      </trkpt>
      <trkpt lat="48.764115" lon="-1.167350">
        <ele>127.109</ele>
        <time>2026-08-24T12:55:08.999Z</time>
      </trkpt>
      <trkpt lat="48.764126" lon="-1.167347">
        <ele>127.186</ele>
        <time>2026-08-24T12:55:09.999Z</time>
      </trkpt>
      <trkpt lat="48.764135" lon="-1.167343">
        <ele>127.292</ele>
        <time>2026-08-24T12:55:10.999Z</time>
      </trkpt>
      <trkpt lat="48.764143" lon="-1.167337">
        <ele>127.295</ele>
        <time>2026-08-24T12:55:11.999Z</time>
      </trkpt>
      <trkpt lat="48.764154" lon="-1.167335">
        <ele>127.282</ele>
        <time>2026-08-24T12:55:12.999Z</time>
      </trkpt>
      <trkpt lat="48.764165" lon="-1.167331">
        <ele>127.390</ele>
        <time>2026-08-24T12:55:13.999Z</time>
      </trkpt>
      <trkpt lat="48.764176" lon="-1.167324">
        <ele>127.338</ele>
        <time>2026-08-24T12:55:14.999Z</time>
      </trkpt>
      <trkpt lat="48.764187" lon="-1.167322">
        <ele>127.452</ele>
        <time>2026-08-24T12:55:15.999Z</time>
      </trkpt>
      <trkpt lat="48.764206" lon="-1.167322">
        <ele>127.629</ele>
        <time>2026-08-24T12:55:17.999Z</time>
      </trkpt>
      <trkpt lat="48.764219" lon="-1.167317">
        <ele>127.771</ele>
        <time>2026-08-24T12:55:18.999Z</time>
      </trkpt>
      <trkpt lat="48.764230" lon="-1.167312">
        <ele>127.995</ele>
        <time>2026-08-24T12:55:19.999Z</time>
      </trkpt>
      <trkpt lat="48.764241" lon="-1.167309">
        <ele>127.949</ele>
        <time>2026-08-24T12:55:20.999Z</time>
      </trkpt>
      <trkpt lat="48.764255" lon="-1.167308">
        <ele>128.123</ele>
        <time>2026-08-24T12:55:21.999Z</time>
      </trkpt>
      <trkpt lat="48.764269" lon="-1.167304">
        <ele>128.309</ele>
        <time>2026-08-24T12:55:22.999Z</time>
      </trkpt>
      <trkpt lat="48.764282" lon="-1.167297">
        <ele>128.641</ele>
        <time>2026-08-24T12:55:24.999Z</time>
      </trkpt>
      <trkpt lat="48.764297" lon="-1.167295">
        <ele>128.867</ele>
        <time>2026-08-24T12:55:26.999Z</time>
      </trkpt>
      <trkpt lat="48.764309" lon="-1.167292">
        <ele>129.250</ele>
        <time>2026-08-24T12:55:27.999Z</time>
      </trkpt>
      <trkpt lat="48.764323" lon="-1.167286">
        <ele>129.637</ele>
        <time>2026-08-24T12:55:28.999Z</time>
      </trkpt>
      <trkpt lat="48.764335" lon="-1.167279">
        <ele>129.995</ele>
        <time>2026-08-24T12:55:29.999Z</time>
      </trkpt>
      <trkpt lat="48.764347" lon="-1.167276">
        <ele>130.163</ele>
        <time>2026-08-24T12:55:30.999Z</time>
      </trkpt>
      <trkpt lat="48.764356" lon="-1.167269">
        <ele>130.247</ele>
        <time>2026-08-24T12:55:31.999Z</time>
      </trkpt>
      <trkpt lat="48.764374" lon="-1.167261">
        <ele>130.384</ele>
        <time>2026-08-24T12:55:33.999Z</time>
      </trkpt>
      <trkpt lat="48.764386" lon="-1.167258">
        <ele>130.386</ele>
        <time>2026-08-24T12:55:34.999Z</time>
      </trkpt>
      <trkpt lat="48.764398" lon="-1.167252">
        <ele>130.424</ele>
        <time>2026-08-24T12:55:35.999Z</time>
      </trkpt>
      <trkpt lat="48.764409" lon="-1.167244">
        <ele>130.504</ele>
        <time>2026-08-24T12:55:36.999Z</time>
      </trkpt>
      <trkpt lat="48.764419" lon="-1.167235">
        <ele>130.614</ele>
        <time>2026-08-24T12:55:37.999Z</time>
      </trkpt>
      <trkpt lat="48.764429" lon="-1.167230">
        <ele>130.609</ele>
        <time>2026-08-24T12:55:38.999Z</time>
      </trkpt>
      <trkpt lat="48.764444" lon="-1.167226">
        <ele>130.624</ele>
        <time>2026-08-24T12:55:40Z</time>
      </trkpt>
      <trkpt lat="48.764456" lon="-1.167227">
        <ele>130.680</ele>
        <time>2026-08-24T12:55:41Z</time>
      </trkpt>
      <trkpt lat="48.764467" lon="-1.167230">
        <ele>130.713</ele>
        <time>2026-08-24T12:55:42Z</time>
      </trkpt>
      <trkpt lat="48.764482" lon="-1.167234">
        <ele>130.780</ele>
        <time>2026-08-24T12:55:43Z</time>
      </trkpt>
      <trkpt lat="48.764496" lon="-1.167228">
        <ele>130.768</ele>
        <time>2026-08-24T12:55:44Z</time>
      </trkpt>
      <trkpt lat="48.764509" lon="-1.167224">
        <ele>130.876</ele>
        <time>2026-08-24T12:55:45Z</time>
      </trkpt>
      <trkpt lat="48.764520" lon="-1.167216">
        <ele>130.850</ele>
        <time>2026-08-24T12:55:46Z</time>
      </trkpt>
      <trkpt lat="48.764531" lon="-1.167208">
        <ele>130.927</ele>
        <time>2026-08-24T12:55:47Z</time>
      </trkpt>
      <trkpt lat="48.764543" lon="-1.167203">
        <ele>130.999</ele>
        <time>2026-08-24T12:55:48Z</time>
      </trkpt>
      <trkpt lat="48.764555" lon="-1.167198">
        <ele>131.044</ele>
        <time>2026-08-24T12:55:49Z</time>
      </trkpt>
      <trkpt lat="48.764567" lon="-1.167189">
        <ele>131.005</ele>
        <time>2026-08-24T12:55:51Z</time>
      </trkpt>
      <trkpt lat="48.764578" lon="-1.167181">
        <ele>131.015</ele>
        <time>2026-08-24T12:55:52Z</time>
      </trkpt>
      <trkpt lat="48.764587" lon="-1.167171">
        <ele>131.009</ele>
        <time>2026-08-24T12:55:53Z</time>
      </trkpt>
      <trkpt lat="48.764601" lon="-1.167164">
        <ele>131.116</ele>
        <time>2026-08-24T12:55:55Z</time>
      </trkpt>
      <trkpt lat="48.764613" lon="-1.167166">
        <ele>131.392</ele>
        <time>2026-08-24T12:55:56Z</time>
      </trkpt>
      <trkpt lat="48.764625" lon="-1.167162">
        <ele>131.535</ele>
        <time>2026-08-24T12:55:57Z</time>
      </trkpt>
      <trkpt lat="48.764637" lon="-1.167157">
        <ele>131.842</ele>
        <time>2026-08-24T12:55:58Z</time>
      </trkpt>
      <trkpt lat="48.764650" lon="-1.167150">
        <ele>132.190</ele>
        <time>2026-08-24T12:55:59Z</time>
      </trkpt>
      <trkpt lat="48.764661" lon="-1.167150">
        <ele>132.248</ele>
        <time>2026-08-24T12:56:00Z</time>
      </trkpt>
      <trkpt lat="48.764681" lon="-1.167139">
        <ele>132.272</ele>
        <time>2026-08-24T12:56:02Z</time>
      </trkpt>
      <trkpt lat="48.764692" lon="-1.167129">
        <ele>132.379</ele>
        <time>2026-08-24T12:56:03Z</time>
      </trkpt>
      <trkpt lat="48.764704" lon="-1.167122">
        <ele>132.461</ele>
        <time>2026-08-24T12:56:04Z</time>
      </trkpt>
      <trkpt lat="48.764717" lon="-1.167113">
        <ele>132.474</ele>
        <time>2026-08-24T12:56:05Z</time>
      </trkpt>
      <trkpt lat="48.764728" lon="-1.167109">
        <ele>132.456</ele>
        <time>2026-08-24T12:56:06Z</time>
      </trkpt>
      <trkpt lat="48.764736" lon="-1.167090">
        <ele>132.521</ele>
        <time>2026-08-24T12:56:08Z</time>
      </trkpt>
      <trkpt lat="48.764746" lon="-1.167082">
        <ele>132.609</ele>
        <time>2026-08-24T12:56:09Z</time>
      </trkpt>
      <trkpt lat="48.764760" lon="-1.167069">
        <ele>132.829</ele>
        <time>2026-08-24T12:56:10Z</time>
      </trkpt>
      <trkpt lat="48.764771" lon="-1.167062">
        <ele>133.075</ele>
        <time>2026-08-24T12:56:11Z</time>
      </trkpt>
      <trkpt lat="48.764790" lon="-1.167046">
        <ele>133.128</ele>
        <time>2026-08-24T12:56:13Z</time>
      </trkpt>
      <trkpt lat="48.764802" lon="-1.167039">
        <ele>133.195</ele>
        <time>2026-08-24T12:56:14Z</time>
      </trkpt>
      <trkpt lat="48.764813" lon="-1.167035">
        <ele>133.273</ele>
        <time>2026-08-24T12:56:15Z</time>
      </trkpt>
      <trkpt lat="48.764828" lon="-1.167030">
        <ele>133.241</ele>
        <time>2026-08-24T12:56:16Z</time>
      </trkpt>
      <trkpt lat="48.764842" lon="-1.167017">
        <ele>133.465</ele>
        <time>2026-08-24T12:56:18Z</time>
      </trkpt>
      <trkpt lat="48.764851" lon="-1.167006">
        <ele>133.972</ele>
        <time>2026-08-24T12:56:19Z</time>
      </trkpt>
      <trkpt lat="48.764861" lon="-1.166999">
        <ele>134.374</ele>
        <time>2026-08-24T12:56:20Z</time>
      </trkpt>
      <trkpt lat="48.764871" lon="-1.166993">
        <ele>134.727</ele>
        <time>2026-08-24T12:56:21Z</time>
      </trkpt>
      <trkpt lat="48.764880" lon="-1.166991">
        <ele>135.068</ele>
        <time>2026-08-24T12:56:22Z</time>
      </trkpt>
      <trkpt lat="48.764890" lon="-1.166986">
        <ele>135.214</ele>
        <time>2026-08-24T12:56:23Z</time>
      </trkpt>
      <trkpt lat="48.764899" lon="-1.166975">
        <ele>135.509</ele>
        <time>2026-08-24T12:56:24Z</time>
      </trkpt>
      <trkpt lat="48.764911" lon="-1.166966">
        <ele>135.924</ele>
        <time>2026-08-24T12:56:25Z</time>
      </trkpt>
      <trkpt lat="48.764918" lon="-1.166953">
        <ele>136.340</ele>
        <time>2026-08-24T12:56:26Z</time>
      </trkpt>
      <trkpt lat="48.764935" lon="-1.166947">
        <ele>136.693</ele>
        <time>2026-08-24T12:56:28Z</time>
      </trkpt>
      <trkpt lat="48.764947" lon="-1.166940">
        <ele>136.970</ele>
        <time>2026-08-24T12:56:29Z</time>
      </trkpt>
      <trkpt lat="48.764956" lon="-1.166933">
        <ele>137.268</ele>
        <time>2026-08-24T12:56:30Z</time>
      </trkpt>
      <trkpt lat="48.764967" lon="-1.166908">
        <ele>137.476</ele>
        <time>2026-08-24T12:56:32Z</time>
      </trkpt>
      <trkpt lat="48.764979" lon="-1.166898">
        <ele>137.560</ele>
        <time>2026-08-24T12:56:33Z</time>
      </trkpt>
      <trkpt lat="48.764988" lon="-1.166887">
        <ele>137.757</ele>
        <time>2026-08-24T12:56:34Z</time>
      </trkpt>
      <trkpt lat="48.764999" lon="-1.166879">
        <ele>137.879</ele>
        <time>2026-08-24T12:56:35Z</time>
      </trkpt>
      <trkpt lat="48.765012" lon="-1.166872">
        <ele>137.956</ele>
        <time>2026-08-24T12:56:36Z</time>
      </trkpt>
      <trkpt lat="48.765026" lon="-1.166863">
        <ele>138.059</ele>
        <time>2026-08-24T12:56:37Z</time>
      </trkpt>
      <trkpt lat="48.765042" lon="-1.166854">
        <ele>138.014</ele>
        <time>2026-08-24T12:56:38Z</time>
      </trkpt>
      <trkpt lat="48.765055" lon="-1.166853">
        <ele>138.109</ele>
        <time>2026-08-24T12:56:39Z</time>
      </trkpt>
      <trkpt lat="48.765066" lon="-1.166850">
        <ele>138.167</ele>
        <time>2026-08-24T12:56:40Z</time>
      </trkpt>
      <trkpt lat="48.765077" lon="-1.166843">
        <ele>138.263</ele>
        <time>2026-08-24T12:56:41Z</time>
      </trkpt>
      <trkpt lat="48.765088" lon="-1.166836">
        <ele>138.276</ele>
        <time>2026-08-24T12:56:42Z</time>
      </trkpt>
      <trkpt lat="48.765103" lon="-1.166820">
        <ele>138.353</ele>
        <time>2026-08-24T12:56:44Z</time>
      </trkpt>
      <trkpt lat="48.765111" lon="-1.166810">
        <ele>138.421</ele>
        <time>2026-08-24T12:56:45Z</time>
      </trkpt>
      <trkpt lat="48.765124" lon="-1.166805">
        <ele>138.599</ele>
        <time>2026-08-24T12:56:46Z</time>
      </trkpt>
      <trkpt lat="48.765135" lon="-1.166802">
        <ele>138.593</ele>
        <time>2026-08-24T12:56:47Z</time>
      </trkpt>
      <trkpt lat="48.765146" lon="-1.166798">
        <ele>138.990</ele>
        <time>2026-08-24T12:56:48Z</time>
      </trkpt>
      <trkpt lat="48.765159" lon="-1.166786">
        <ele>139.472</ele>
        <time>2026-08-24T12:56:49Z</time>
      </trkpt>
      <trkpt lat="48.765168" lon="-1.166779">
        <ele>139.743</ele>
        <time>2026-08-24T12:56:50Z</time>
      </trkpt>
      <trkpt lat="48.765175" lon="-1.166768">
        <ele>139.764</ele>
        <time>2026-08-24T12:56:51Z</time>
      </trkpt>
      <trkpt lat="48.765182" lon="-1.166758">
        <ele>139.710</ele>
        <time>2026-08-24T12:56:52Z</time>
      </trkpt>
      <trkpt lat="48.765189" lon="-1.166749">
        <ele>139.809</ele>
        <time>2026-08-24T12:56:53Z</time>
      </trkpt>
      <trkpt lat="48.765203" lon="-1.166739">
        <ele>139.876</ele>
        <time>2026-08-24T12:56:54Z</time>
      </trkpt>
      <trkpt lat="48.765215" lon="-1.166733">
        <ele>139.992</ele>
        <time>2026-08-24T12:56:55Z</time>
      </trkpt>
      <trkpt lat="48.765227" lon="-1.166723">
        <ele>139.975</ele>
        <time>2026-08-24T12:56:56Z</time>
      </trkpt>
      <trkpt lat="48.765238" lon="-1.166713">
        <ele>139.912</ele>
        <time>2026-08-24T12:56:57Z</time>
      </trkpt>
      <trkpt lat="48.765250" lon="-1.166706">
        <ele>139.920</ele>
        <time>2026-08-24T12:56:58Z</time>
      </trkpt>
      <trkpt lat="48.765260" lon="-1.166694">
        <ele>140.048</ele>
        <time>2026-08-24T12:56:59Z</time>
      </trkpt>
      <trkpt lat="48.765271" lon="-1.166689">
        <ele>140.112</ele>
        <time>2026-08-24T12:57:00Z</time>
      </trkpt>
      <trkpt lat="48.765287" lon="-1.166677">
        <ele>140.179</ele>
        <time>2026-08-24T12:57:02Z</time>
      </trkpt>
      <trkpt lat="48.765303" lon="-1.166669">
        <ele>140.111</ele>
        <time>2026-08-24T12:57:03Z</time>
      </trkpt>
      <trkpt lat="48.765316" lon="-1.166660">
        <ele>140.227</ele>
        <time>2026-08-24T12:57:04Z</time>
      </trkpt>
      <trkpt lat="48.765324" lon="-1.166652">
        <ele>140.368</ele>
        <time>2026-08-24T12:57:05Z</time>
      </trkpt>
      <trkpt lat="48.765336" lon="-1.166645">
        <ele>140.514</ele>
        <time>2026-08-24T12:57:06Z</time>
      </trkpt>
      <trkpt lat="48.765348" lon="-1.166634">
        <ele>140.809</ele>
        <time>2026-08-24T12:57:07Z</time>
      </trkpt>
      <trkpt lat="48.765360" lon="-1.166624">
        <ele>141.144</ele>
        <time>2026-08-24T12:57:08Z</time>
      </trkpt>
      <trkpt lat="48.765367" lon="-1.166610">
        <ele>141.350</ele>
        <time>2026-08-24T12:57:09Z</time>
      </trkpt>
      <trkpt lat="48.765375" lon="-1.166596">
        <ele>141.523</ele>
        <time>2026-08-24T12:57:10Z</time>
      </trkpt>
      <trkpt lat="48.765385" lon="-1.166591">
        <ele>141.530</ele>
        <time>2026-08-24T12:57:11Z</time>
      </trkpt>
      <trkpt lat="48.765393" lon="-1.166581">
        <ele>141.688</ele>
        <time>2026-08-24T12:57:12Z</time>
      </trkpt>
      <trkpt lat="48.765401" lon="-1.166570">
        <ele>142.016</ele>
        <time>2026-08-24T12:57:13Z</time>
      </trkpt>
      <trkpt lat="48.765410" lon="-1.166563">
        <ele>142.460</ele>
        <time>2026-08-24T12:57:14Z</time>
      </trkpt>
      <trkpt lat="48.765422" lon="-1.166557">
        <ele>142.797</ele>
        <time>2026-08-24T12:57:15Z</time>
      </trkpt>
      <trkpt lat="48.765431" lon="-1.166543">
        <ele>142.899</ele>
        <time>2026-08-24T12:57:16Z</time>
      </trkpt>
      <trkpt lat="48.765441" lon="-1.166534">
        <ele>142.919</ele>
        <time>2026-08-24T12:57:17Z</time>
      </trkpt>
      <trkpt lat="48.765452" lon="-1.166522">
        <ele>143.009</ele>
        <time>2026-08-24T12:57:18Z</time>
      </trkpt>
      <trkpt lat="48.765460" lon="-1.166514">
        <ele>143.119</ele>
        <time>2026-08-24T12:57:19Z</time>
      </trkpt>
      <trkpt lat="48.765467" lon="-1.166504">
        <ele>143.109</ele>
        <time>2026-08-24T12:57:20Z</time>
      </trkpt>
      <trkpt lat="48.765479" lon="-1.166489">
        <ele>143.193</ele>
        <time>2026-08-24T12:57:21Z</time>
      </trkpt>
      <trkpt lat="48.765489" lon="-1.166477">
        <ele>143.119</ele>
        <time>2026-08-24T12:57:22Z</time>
      </trkpt>
      <trkpt lat="48.765498" lon="-1.166465">
        <ele>143.272</ele>
        <time>2026-08-24T12:57:23Z</time>
      </trkpt>
      <trkpt lat="48.765511" lon="-1.166455">
        <ele>143.449</ele>
        <time>2026-08-24T12:57:24Z</time>
      </trkpt>
      <trkpt lat="48.765522" lon="-1.166449">
        <ele>143.557</ele>
        <time>2026-08-24T12:57:25Z</time>
      </trkpt>
      <trkpt lat="48.765545" lon="-1.166441">
        <ele>143.725</ele>
        <time>2026-08-24T12:57:27Z</time>
      </trkpt>
      <trkpt lat="48.765562" lon="-1.166435">
        <ele>143.789</ele>
        <time>2026-08-24T12:57:28Z</time>
      </trkpt>
      <trkpt lat="48.765574" lon="-1.166429">
        <ele>143.886</ele>
        <time>2026-08-24T12:57:29Z</time>
      </trkpt>
      <trkpt lat="48.765583" lon="-1.166419">
        <ele>143.898</ele>
        <time>2026-08-24T12:57:30Z</time>
      </trkpt>
      <trkpt lat="48.765592" lon="-1.166407">
        <ele>143.837</ele>
        <time>2026-08-24T12:57:31Z</time>
      </trkpt>
      <trkpt lat="48.765598" lon="-1.166393">
        <ele>143.949</ele>
        <time>2026-08-24T12:57:32Z</time>
      </trkpt>
      <trkpt lat="48.765608" lon="-1.166378">
        <ele>144.013</ele>
        <time>2026-08-24T12:57:33Z</time>
      </trkpt>
      <trkpt lat="48.765614" lon="-1.166361">
        <ele>144.009</ele>
        <time>2026-08-24T12:57:34Z</time>
      </trkpt>
      <trkpt lat="48.765624" lon="-1.166353">
        <ele>144.075</ele>
        <time>2026-08-24T12:57:35Z</time>
      </trkpt>
      <trkpt lat="48.765632" lon="-1.166342">
        <ele>144.021</ele>
        <time>2026-08-24T12:57:36Z</time>
      </trkpt>
      <trkpt lat="48.765646" lon="-1.166332">
        <ele>144.064</ele>
        <time>2026-08-24T12:57:37Z</time>
      </trkpt>
      <trkpt lat="48.765659" lon="-1.166319">
        <ele>144.151</ele>
        <time>2026-08-24T12:57:38Z</time>
      </trkpt>
      <trkpt lat="48.765671" lon="-1.166302">
        <ele>144.139</ele>
        <time>2026-08-24T12:57:39Z</time>
      </trkpt>
      <trkpt lat="48.765676" lon="-1.166289">
        <ele>144.137</ele>
        <time>2026-08-24T12:57:40Z</time>
      </trkpt>
      <trkpt lat="48.765687" lon="-1.166272">
        <ele>144.221</ele>
        <time>2026-08-24T12:57:42Z</time>
      </trkpt>
      <trkpt lat="48.765693" lon="-1.166257">
        <ele>144.248</ele>
        <time>2026-08-24T12:57:43Z</time>
      </trkpt>
      <trkpt lat="48.765700" lon="-1.166238">
        <ele>144.290</ele>
        <time>2026-08-24T12:57:44Z</time>
      </trkpt>
      <trkpt lat="48.765706" lon="-1.166221">
        <ele>144.381</ele>
        <time>2026-08-24T12:57:45Z</time>
      </trkpt>
      <trkpt lat="48.765716" lon="-1.166208">
        <ele>144.361</ele>
        <time>2026-08-24T12:57:46Z</time>
      </trkpt>
      <trkpt lat="48.765723" lon="-1.166193">
        <ele>144.317</ele>
        <time>2026-08-24T12:57:47Z</time>
      </trkpt>
      <trkpt lat="48.765730" lon="-1.166183">
        <ele>144.609</ele>
        <time>2026-08-24T12:57:48Z</time>
      </trkpt>
      <trkpt lat="48.765738" lon="-1.166175">
        <ele>145.020</ele>
        <time>2026-08-24T12:57:49Z</time>
      </trkpt>
      <trkpt lat="48.765750" lon="-1.166167">
        <ele>145.226</ele>
        <time>2026-08-24T12:57:50Z</time>
      </trkpt>
      <trkpt lat="48.765762" lon="-1.166156">
        <ele>145.279</ele>
        <time>2026-08-24T12:57:51Z</time>
      </trkpt>
      <trkpt lat="48.765776" lon="-1.166137">
        <ele>145.326</ele>
        <time>2026-08-24T12:57:52Z</time>
      </trkpt>
      <trkpt lat="48.765788" lon="-1.166124">
        <ele>145.454</ele>
        <time>2026-08-24T12:57:53Z</time>
      </trkpt>
      <trkpt lat="48.765799" lon="-1.166107">
        <ele>145.552</ele>
        <time>2026-08-24T12:57:54Z</time>
      </trkpt>
      <trkpt lat="48.765805" lon="-1.166091">
        <ele>145.566</ele>
        <time>2026-08-24T12:57:55Z</time>
      </trkpt>
      <trkpt lat="48.765808" lon="-1.166075">
        <ele>145.543</ele>
        <time>2026-08-24T12:57:56Z</time>
      </trkpt>
      <trkpt lat="48.765816" lon="-1.166063">
        <ele>145.645</ele>
        <time>2026-08-24T12:57:57Z</time>
      </trkpt>
      <trkpt lat="48.765824" lon="-1.166051">
        <ele>145.833</ele>
        <time>2026-08-24T12:57:58Z</time>
      </trkpt>
      <trkpt lat="48.765831" lon="-1.166032">
        <ele>145.923</ele>
        <time>2026-08-24T12:57:59Z</time>
      </trkpt>
      <trkpt lat="48.765839" lon="-1.166019">
        <ele>146.015</ele>
        <time>2026-08-24T12:58:00Z</time>
      </trkpt>
      <trkpt lat="48.765849" lon="-1.166010">
        <ele>146.009</ele>
        <time>2026-08-24T12:58:01Z</time>
      </trkpt>
      <trkpt lat="48.765859" lon="-1.166000">
        <ele>146.145</ele>
        <time>2026-08-24T12:58:02Z</time>
      </trkpt>
      <trkpt lat="48.765867" lon="-1.165985">
        <ele>146.131</ele>
        <time>2026-08-24T12:58:03Z</time>
      </trkpt>
      <trkpt lat="48.765877" lon="-1.165969">
        <ele>146.274</ele>
        <time>2026-08-24T12:58:04Z</time>
      </trkpt>
      <trkpt lat="48.765886" lon="-1.165952">
        <ele>146.311</ele>
        <time>2026-08-24T12:58:05Z</time>
      </trkpt>
      <trkpt lat="48.765895" lon="-1.165937">
        <ele>146.479</ele>
        <time>2026-08-24T12:58:06Z</time>
      </trkpt>
      <trkpt lat="48.765902" lon="-1.165925">
        <ele>146.597</ele>
        <time>2026-08-24T12:58:07Z</time>
      </trkpt>
      <trkpt lat="48.765911" lon="-1.165914">
        <ele>146.761</ele>
        <time>2026-08-24T12:58:08Z</time>
      </trkpt>
      <trkpt lat="48.765920" lon="-1.165903">
        <ele>147.018</ele>
        <time>2026-08-24T12:58:09Z</time>
      </trkpt>
      <trkpt lat="48.765933" lon="-1.165889">
        <ele>147.230</ele>
        <time>2026-08-24T12:58:10Z</time>
      </trkpt>
      <trkpt lat="48.765943" lon="-1.165880">
        <ele>147.334</ele>
        <time>2026-08-24T12:58:11Z</time>
      </trkpt>
      <trkpt lat="48.765950" lon="-1.165866">
        <ele>147.355</ele>
        <time>2026-08-24T12:58:12Z</time>
      </trkpt>
      <trkpt lat="48.765957" lon="-1.165853">
        <ele>147.410</ele>
        <time>2026-08-24T12:58:13Z</time>
      </trkpt>
      <trkpt lat="48.765965" lon="-1.165842">
        <ele>147.409</ele>
        <time>2026-08-24T12:58:14Z</time>
      </trkpt>
      <trkpt lat="48.765973" lon="-1.165828">
        <ele>147.465</ele>
        <time>2026-08-24T12:58:15Z</time>
      </trkpt>
      <trkpt lat="48.765983" lon="-1.165811">
        <ele>147.451</ele>
        <time>2026-08-24T12:58:16Z</time>
      </trkpt>
      <trkpt lat="48.765988" lon="-1.165798">
        <ele>147.554</ele>
        <time>2026-08-24T12:58:17Z</time>
      </trkpt>
      <trkpt lat="48.765994" lon="-1.165787">
        <ele>147.531</ele>
        <time>2026-08-24T12:58:18Z</time>
      </trkpt>
      <trkpt lat="48.766004" lon="-1.165775">
        <ele>147.569</ele>
        <time>2026-08-24T12:58:19Z</time>
      </trkpt>
      <trkpt lat="48.766015" lon="-1.165763">
        <ele>147.677</ele>
        <time>2026-08-24T12:58:20Z</time>
      </trkpt>
      <trkpt lat="48.766027" lon="-1.165751">
        <ele>147.731</ele>
        <time>2026-08-24T12:58:21Z</time>
      </trkpt>
      <trkpt lat="48.766040" lon="-1.165742">
        <ele>147.858</ele>
        <time>2026-08-24T12:58:22Z</time>
      </trkpt>
      <trkpt lat="48.766048" lon="-1.165728">
        <ele>147.930</ele>
        <time>2026-08-24T12:58:23Z</time>
      </trkpt>
      <trkpt lat="48.766061" lon="-1.165721">
        <ele>148.092</ele>
        <time>2026-08-24T12:58:24Z</time>
      </trkpt>
      <trkpt lat="48.766071" lon="-1.165709">
        <ele>148.173</ele>
        <time>2026-08-24T12:58:25Z</time>
      </trkpt>
      <trkpt lat="48.766084" lon="-1.165685">
        <ele>148.320</ele>
        <time>2026-08-24T12:58:27Z</time>
      </trkpt>
      <trkpt lat="48.766092" lon="-1.165670">
        <ele>148.509</ele>
        <time>2026-08-24T12:58:28Z</time>
      </trkpt>
      <trkpt lat="48.766101" lon="-1.165662">
        <ele>148.621</ele>
        <time>2026-08-24T12:58:29Z</time>
      </trkpt>
      <trkpt lat="48.766109" lon="-1.165645">
        <ele>148.797</ele>
        <time>2026-08-24T12:58:30Z</time>
      </trkpt>
      <trkpt lat="48.766116" lon="-1.165632">
        <ele>148.730</ele>
        <time>2026-08-24T12:58:31Z</time>
      </trkpt>
      <trkpt lat="48.766125" lon="-1.165622">
        <ele>148.867</ele>
        <time>2026-08-24T12:58:32Z</time>
      </trkpt>
      <trkpt lat="48.766131" lon="-1.165611">
        <ele>148.845</ele>
        <time>2026-08-24T12:58:33Z</time>
      </trkpt>
      <trkpt lat="48.766141" lon="-1.165601">
        <ele>148.933</ele>
        <time>2026-08-24T12:58:34Z</time>
      </trkpt>
      <trkpt lat="48.766152" lon="-1.165593">
        <ele>149.137</ele>
        <time>2026-08-24T12:58:35Z</time>
      </trkpt>
      <trkpt lat="48.766165" lon="-1.165583">
        <ele>149.294</ele>
        <time>2026-08-24T12:58:36Z</time>
      </trkpt>
      <trkpt lat="48.766174" lon="-1.165574">
        <ele>149.336</ele>
        <time>2026-08-24T12:58:37Z</time>
      </trkpt>
      <trkpt lat="48.766186" lon="-1.165563">
        <ele>149.414</ele>
        <time>2026-08-24T12:58:38Z</time>
      </trkpt>
      <trkpt lat="48.766199" lon="-1.165549">
        <ele>149.454</ele>
        <time>2026-08-24T12:58:39Z</time>
      </trkpt>
      <trkpt lat="48.766210" lon="-1.165534">
        <ele>149.509</ele>
        <time>2026-08-24T12:58:40Z</time>
      </trkpt>
      <trkpt lat="48.766219" lon="-1.165517">
        <ele>149.509</ele>
        <time>2026-08-24T12:58:41Z</time>
      </trkpt>
      <trkpt lat="48.766228" lon="-1.165506">
        <ele>149.673</ele>
        <time>2026-08-24T12:58:42Z</time>
      </trkpt>
      <trkpt lat="48.766238" lon="-1.165500">
        <ele>149.629</ele>
        <time>2026-08-24T12:58:43Z</time>
      </trkpt>
      <trkpt lat="48.766249" lon="-1.165489">
        <ele>149.642</ele>
        <time>2026-08-24T12:58:44Z</time>
      </trkpt>
      <trkpt lat="48.766262" lon="-1.165473">
        <ele>149.769</ele>
        <time>2026-08-24T12:58:45Z</time>
      </trkpt>
      <trkpt lat="48.766276" lon="-1.165460">
        <ele>149.837</ele>
        <time>2026-08-24T12:58:46Z</time>
      </trkpt>
      <trkpt lat="48.766285" lon="-1.165444">
        <ele>150.095</ele>
        <time>2026-08-24T12:58:47Z</time>
      </trkpt>
      <trkpt lat="48.766296" lon="-1.165437">
        <ele>150.099</ele>
        <time>2026-08-24T12:58:48Z</time>
      </trkpt>
      <trkpt lat="48.766308" lon="-1.165430">
        <ele>150.116</ele>
        <time>2026-08-24T12:58:49Z</time>
      </trkpt>
      <trkpt lat="48.766319" lon="-1.165419">
        <ele>150.138</ele>
        <time>2026-08-24T12:58:50Z</time>
      </trkpt>
      <trkpt lat="48.766330" lon="-1.165406">
        <ele>150.185</ele>
        <time>2026-08-24T12:58:51Z</time>
      </trkpt>
      <trkpt lat="48.766340" lon="-1.165396">
        <ele>150.189</ele>
        <time>2026-08-24T12:58:52Z</time>
      </trkpt>
      <trkpt lat="48.766350" lon="-1.165388">
        <ele>150.117</ele>
        <time>2026-08-24T12:58:53Z</time>
      </trkpt>
      <trkpt lat="48.766363" lon="-1.165378">
        <ele>150.209</ele>
        <time>2026-08-24T12:58:54Z</time>
      </trkpt>
      <trkpt lat="48.766372" lon="-1.165368">
        <ele>150.280</ele>
        <time>2026-08-24T12:58:55Z</time>
      </trkpt>
      <trkpt lat="48.766380" lon="-1.165356">
        <ele>150.246</ele>
        <time>2026-08-24T12:58:56Z</time>
      </trkpt>
      <trkpt lat="48.766386" lon="-1.165340">
        <ele>150.279</ele>
        <time>2026-08-24T12:58:57Z</time>
      </trkpt>
      <trkpt lat="48.766390" lon="-1.165327">
        <ele>150.216</ele>
        <time>2026-08-24T12:58:58Z</time>
      </trkpt>
      <trkpt lat="48.766399" lon="-1.165316">
        <ele>150.314</ele>
        <time>2026-08-24T12:58:59Z</time>
      </trkpt>
      <trkpt lat="48.766404" lon="-1.165305">
        <ele>150.342</ele>
        <time>2026-08-24T12:59:00Z</time>
      </trkpt>
      <trkpt lat="48.766414" lon="-1.165299">
        <ele>150.376</ele>
        <time>2026-08-24T12:59:01Z</time>
      </trkpt>
      <trkpt lat="48.766422" lon="-1.165283">
        <ele>150.373</ele>
        <time>2026-08-24T12:59:02Z</time>
      </trkpt>
      <trkpt lat="48.766434" lon="-1.165270">
        <ele>150.325</ele>
        <time>2026-08-24T12:59:03Z</time>
      </trkpt>
      <trkpt lat="48.766440" lon="-1.165257">
        <ele>150.345</ele>
        <time>2026-08-24T12:59:04Z</time>
      </trkpt>
      <trkpt lat="48.766448" lon="-1.165244">
        <ele>150.247</ele>
        <time>2026-08-24T12:59:05Z</time>
      </trkpt>
      <trkpt lat="48.766461" lon="-1.165235">
        <ele>150.211</ele>
        <time>2026-08-24T12:59:06Z</time>
      </trkpt>
      <trkpt lat="48.766474" lon="-1.165222">
        <ele>150.209</ele>
        <time>2026-08-24T12:59:07Z</time>
      </trkpt>
      <trkpt lat="48.766487" lon="-1.165205">
        <ele>150.316</ele>
        <time>2026-08-24T12:59:08Z</time>
      </trkpt>
      <trkpt lat="48.766499" lon="-1.165189">
        <ele>150.322</ele>
        <time>2026-08-24T12:59:09Z</time>
      </trkpt>
      <trkpt lat="48.766505" lon="-1.165164">
        <ele>150.395</ele>
        <time>2026-08-24T12:59:11Z</time>
      </trkpt>
      <trkpt lat="48.766518" lon="-1.165158">
        <ele>150.342</ele>
        <time>2026-08-24T12:59:12Z</time>
      </trkpt>
      <trkpt lat="48.766527" lon="-1.165140">
        <ele>150.330</ele>
        <time>2026-08-24T12:59:13Z</time>
      </trkpt>
      <trkpt lat="48.766537" lon="-1.165124">
        <ele>150.318</ele>
        <time>2026-08-24T12:59:14Z</time>
      </trkpt>
      <trkpt lat="48.766546" lon="-1.165112">
        <ele>150.442</ele>
        <time>2026-08-24T12:59:15Z</time>
      </trkpt>
      <trkpt lat="48.766553" lon="-1.165098">
        <ele>150.449</ele>
        <time>2026-08-24T12:59:16Z</time>
      </trkpt>
      <trkpt lat="48.766566" lon="-1.165080">
        <ele>150.421</ele>
        <time>2026-08-24T12:59:17Z</time>
      </trkpt>
      <trkpt lat="48.766575" lon="-1.165065">
        <ele>150.514</ele>
        <time>2026-08-24T12:59:18Z</time>
      </trkpt>
      <trkpt lat="48.766582" lon="-1.165053">
        <ele>150.554</ele>
        <time>2026-08-24T12:59:19Z</time>
      </trkpt>
      <trkpt lat="48.766590" lon="-1.165041">
        <ele>150.509</ele>
        <time>2026-08-24T12:59:20Z</time>
      </trkpt>
      <trkpt lat="48.766598" lon="-1.165027">
        <ele>150.509</ele>
        <time>2026-08-24T12:59:21Z</time>
      </trkpt>
      <trkpt lat="48.766608" lon="-1.165015">
        <ele>150.533</ele>
        <time>2026-08-24T12:59:22Z</time>
      </trkpt>
      <trkpt lat="48.766615" lon="-1.165003">
        <ele>150.539</ele>
        <time>2026-08-24T12:59:23Z</time>
      </trkpt>
      <trkpt lat="48.766623" lon="-1.164990">
        <ele>150.552</ele>
        <time>2026-08-24T12:59:24Z</time>
      </trkpt>
      <trkpt lat="48.766630" lon="-1.164977">
        <ele>150.639</ele>
        <time>2026-08-24T12:59:25Z</time>
      </trkpt>
      <trkpt lat="48.766639" lon="-1.164961">
        <ele>150.847</ele>
        <time>2026-08-24T12:59:26Z</time>
      </trkpt>
      <trkpt lat="48.766658" lon="-1.164950">
        <ele>151.175</ele>
        <time>2026-08-24T12:59:28Z</time>
      </trkpt>
      <trkpt lat="48.766671" lon="-1.164943">
        <ele>151.419</ele>
        <time>2026-08-24T12:59:29Z</time>
      </trkpt>
      <trkpt lat="48.766679" lon="-1.164929">
        <ele>151.536</ele>
        <time>2026-08-24T12:59:30Z</time>
      </trkpt>
      <trkpt lat="48.766685" lon="-1.164917">
        <ele>151.548</ele>
        <time>2026-08-24T12:59:31Z</time>
      </trkpt>
      <trkpt lat="48.766695" lon="-1.164903">
        <ele>151.549</ele>
        <time>2026-08-24T12:59:32Z</time>
      </trkpt>
      <trkpt lat="48.766710" lon="-1.164889">
        <ele>151.502</ele>
        <time>2026-08-24T12:59:33Z</time>
      </trkpt>
      <trkpt lat="48.766713" lon="-1.164865">
        <ele>151.522</ele>
        <time>2026-08-24T12:59:35Z</time>
      </trkpt>
      <trkpt lat="48.766717" lon="-1.164848">
        <ele>151.509</ele>
        <time>2026-08-24T12:59:36Z</time>
      </trkpt>
      <trkpt lat="48.766716" lon="-1.164820">
        <ele>151.676</ele>
        <time>2026-08-24T12:59:38Z</time>
      </trkpt>
      <trkpt lat="48.766724" lon="-1.164801">
        <ele>151.642</ele>
        <time>2026-08-24T12:59:39Z</time>
      </trkpt>
      <trkpt lat="48.766732" lon="-1.164783">
        <ele>151.675</ele>
        <time>2026-08-24T12:59:40Z</time>
      </trkpt>
      <trkpt lat="48.766738" lon="-1.164768">
        <ele>151.642</ele>
        <time>2026-08-24T12:59:41Z</time>
      </trkpt>
      <trkpt lat="48.766743" lon="-1.164755">
        <ele>151.770</ele>
        <time>2026-08-24T12:59:42Z</time>
      </trkpt>
      <trkpt lat="48.766750" lon="-1.164730">
        <ele>151.838</ele>
        <time>2026-08-24T12:59:44Z</time>
      </trkpt>
      <trkpt lat="48.766747" lon="-1.164713">
        <ele>151.812</ele>
        <time>2026-08-24T12:59:45Z</time>
      </trkpt>
      <trkpt lat="48.766746" lon="-1.164695">
        <ele>151.829</ele>
        <time>2026-08-24T12:59:46Z</time>
      </trkpt>
      <trkpt lat="48.766749" lon="-1.164673">
        <ele>151.881</ele>
        <time>2026-08-24T12:59:47Z</time>
      </trkpt>
      <trkpt lat="48.766749" lon="-1.164651">
        <ele>151.869</ele>
        <time>2026-08-24T12:59:48Z</time>
      </trkpt>
      <trkpt lat="48.766748" lon="-1.164624">
        <ele>151.804</ele>
        <time>2026-08-24T12:59:49Z</time>
      </trkpt>
      <trkpt lat="48.766747" lon="-1.164603">
        <ele>151.824</ele>
        <time>2026-08-24T12:59:50Z</time>
      </trkpt>
      <trkpt lat="48.766747" lon="-1.164583">
        <ele>151.809</ele>
        <time>2026-08-24T12:59:51Z</time>
      </trkpt>
      <trkpt lat="48.766741" lon="-1.164568">
        <ele>151.898</ele>
        <time>2026-08-24T12:59:52Z</time>
      </trkpt>
      <trkpt lat="48.766740" lon="-1.164552">
        <ele>151.774</ele>
        <time>2026-08-24T12:59:53Z</time>
      </trkpt>
      <trkpt lat="48.766734" lon="-1.164536">
        <ele>151.617</ele>
        <time>2026-08-24T12:59:54Z</time>
      </trkpt>
      <trkpt lat="48.766732" lon="-1.164517">
        <ele>151.684</ele>
        <time>2026-08-24T12:59:55Z</time>
      </trkpt>
      <trkpt lat="48.766731" lon="-1.164497">
        <ele>151.642</ele>
        <time>2026-08-24T12:59:56Z</time>
      </trkpt>
      <trkpt lat="48.766730" lon="-1.164482">
        <ele>151.660</ele>
        <time>2026-08-24T12:59:57Z</time>
      </trkpt>
      <trkpt lat="48.766729" lon="-1.164464">
        <ele>151.674</ele>
        <time>2026-08-24T12:59:58Z</time>
      </trkpt>
      <trkpt lat="48.766724" lon="-1.164444">
        <ele>151.681</ele>
        <time>2026-08-24T12:59:59Z</time>
      </trkpt>
      <trkpt lat="48.766721" lon="-1.164421">
        <ele>151.523</ele>
        <time>2026-08-24T13:00:00Z</time>
      </trkpt>
      <trkpt lat="48.766719" lon="-1.164406">
        <ele>151.519</ele>
        <time>2026-08-24T13:00:01Z</time>
      </trkpt>
      <trkpt lat="48.766722" lon="-1.164386">
        <ele>151.409</ele>
        <time>2026-08-24T13:00:02Z</time>
      </trkpt>
      <trkpt lat="48.766726" lon="-1.164368">
        <ele>151.419</ele>
        <time>2026-08-24T13:00:03Z</time>
      </trkpt>
      <trkpt lat="48.766726" lon="-1.164353">
        <ele>151.409</ele>
        <time>2026-08-24T13:00:04Z</time>
      </trkpt>
      <trkpt lat="48.766726" lon="-1.164330">
        <ele>151.463</ele>
        <time>2026-08-24T13:00:05Z</time>
      </trkpt>
      <trkpt lat="48.766726" lon="-1.164308">
        <ele>151.389</ele>
        <time>2026-08-24T13:00:06Z</time>
      </trkpt>
      <trkpt lat="48.766723" lon="-1.164288">
        <ele>151.392</ele>
        <time>2026-08-24T13:00:07Z</time>
      </trkpt>
      <trkpt lat="48.766727" lon="-1.164272">
        <ele>151.359</ele>
        <time>2026-08-24T13:00:08Z</time>
      </trkpt>
      <trkpt lat="48.766724" lon="-1.164245">
        <ele>151.367</ele>
        <time>2026-08-24T13:00:10Z</time>
      </trkpt>
      <trkpt lat="48.766726" lon="-1.164226">
        <ele>151.355</ele>
        <time>2026-08-24T13:00:11Z</time>
      </trkpt>
      <trkpt lat="48.766725" lon="-1.164199">
        <ele>151.389</ele>
        <time>2026-08-24T13:00:13Z</time>
      </trkpt>
      <trkpt lat="48.766723" lon="-1.164183">
        <ele>151.376</ele>
        <time>2026-08-24T13:00:14Z</time>
      </trkpt>
      <trkpt lat="48.766724" lon="-1.164162">
        <ele>151.348</ele>
        <time>2026-08-24T13:00:15Z</time>
      </trkpt>
      <trkpt lat="48.766726" lon="-1.164140">
        <ele>151.372</ele>
        <time>2026-08-24T13:00:16Z</time>
      </trkpt>
      <trkpt lat="48.766726" lon="-1.164122">
        <ele>151.213</ele>
        <time>2026-08-24T13:00:17Z</time>
      </trkpt>
      <trkpt lat="48.766725" lon="-1.164101">
        <ele>151.114</ele>
        <time>2026-08-24T13:00:18Z</time>
      </trkpt>
      <trkpt lat="48.766725" lon="-1.164080">
        <ele>151.109</ele>
        <time>2026-08-24T13:00:19Z</time>
      </trkpt>
      <trkpt lat="48.766720" lon="-1.164060">
        <ele>151.169</ele>
        <time>2026-08-24T13:00:20Z</time>
      </trkpt>
      <trkpt lat="48.766719" lon="-1.164043">
        <ele>151.175</ele>
        <time>2026-08-24T13:00:21Z</time>
      </trkpt>
      <trkpt lat="48.766720" lon="-1.164029">
        <ele>151.158</ele>
        <time>2026-08-24T13:00:22Z</time>
      </trkpt>
      <trkpt lat="48.766720" lon="-1.164006">
        <ele>151.135</ele>
        <time>2026-08-24T13:00:23Z</time>
      </trkpt>
      <trkpt lat="48.766717" lon="-1.163983">
        <ele>151.183</ele>
        <time>2026-08-24T13:00:24Z</time>
      </trkpt>
      <trkpt lat="48.766717" lon="-1.163960">
        <ele>151.111</ele>
        <time>2026-08-24T13:00:25Z</time>
      </trkpt>
      <trkpt lat="48.766720" lon="-1.163944">
        <ele>151.135</ele>
        <time>2026-08-24T13:00:26Z</time>
      </trkpt>
      <trkpt lat="48.766722" lon="-1.163930">
        <ele>151.172</ele>
        <time>2026-08-24T13:00:27Z</time>
      </trkpt>
      <trkpt lat="48.766726" lon="-1.163913">
        <ele>151.014</ele>
        <time>2026-08-24T13:00:28Z</time>
      </trkpt>
      <trkpt lat="48.766727" lon="-1.163896">
        <ele>151.093</ele>
        <time>2026-08-24T13:00:29Z</time>
      </trkpt>
      <trkpt lat="48.766730" lon="-1.163875">
        <ele>151.065</ele>
        <time>2026-08-24T13:00:30Z</time>
      </trkpt>
      <trkpt lat="48.766729" lon="-1.163860">
        <ele>150.921</ele>
        <time>2026-08-24T13:00:31Z</time>
      </trkpt>
      <trkpt lat="48.766719" lon="-1.163841">
        <ele>150.909</ele>
        <time>2026-08-24T13:00:32Z</time>
      </trkpt>
      <trkpt lat="48.766713" lon="-1.163828">
        <ele>150.811</ele>
        <time>2026-08-24T13:00:33Z</time>
      </trkpt>
      <trkpt lat="48.766715" lon="-1.163815">
        <ele>150.727</ele>
        <time>2026-08-24T13:00:34Z</time>
      </trkpt>
      <trkpt lat="48.766712" lon="-1.163795">
        <ele>150.690</ele>
        <time>2026-08-24T13:00:35Z</time>
      </trkpt>
      <trkpt lat="48.766708" lon="-1.163776">
        <ele>150.387</ele>
        <time>2026-08-24T13:00:36Z</time>
      </trkpt>
      <trkpt lat="48.766707" lon="-1.163762">
        <ele>150.275</ele>
        <time>2026-08-24T13:00:37Z</time>
      </trkpt>
      <trkpt lat="48.766706" lon="-1.163745">
        <ele>150.153</ele>
        <time>2026-08-24T13:00:38Z</time>
      </trkpt>
      <trkpt lat="48.766705" lon="-1.163724">
        <ele>150.187</ele>
        <time>2026-08-24T13:00:39Z</time>
      </trkpt>
      <trkpt lat="48.766706" lon="-1.163698">
        <ele>150.084</ele>
        <time>2026-08-24T13:00:40Z</time>
      </trkpt>
      <trkpt lat="48.766709" lon="-1.163673">
        <ele>149.866</ele>
        <time>2026-08-24T13:00:41Z</time>
      </trkpt>
      <trkpt lat="48.766708" lon="-1.163651">
        <ele>149.433</ele>
        <time>2026-08-24T13:00:42Z</time>
      </trkpt>
      <trkpt lat="48.766707" lon="-1.163636">
        <ele>149.223</ele>
        <time>2026-08-24T13:00:43Z</time>
      </trkpt>
      <trkpt lat="48.766709" lon="-1.163619">
        <ele>149.115</ele>
        <time>2026-08-24T13:00:44Z</time>
      </trkpt>
      <trkpt lat="48.766709" lon="-1.163597">
        <ele>149.009</ele>
        <time>2026-08-24T13:00:45Z</time>
      </trkpt>
      <trkpt lat="48.766710" lon="-1.163574">
        <ele>148.975</ele>
        <time>2026-08-24T13:00:46Z</time>
      </trkpt>
      <trkpt lat="48.766713" lon="-1.163557">
        <ele>148.761</ele>
        <time>2026-08-24T13:00:47Z</time>
      </trkpt>
      <trkpt lat="48.766716" lon="-1.163538">
        <ele>148.764</ele>
        <time>2026-08-24T13:00:48Z</time>
      </trkpt>
      <trkpt lat="48.766718" lon="-1.163520">
        <ele>148.711</ele>
        <time>2026-08-24T13:00:49Z</time>
      </trkpt>
      <trkpt lat="48.766723" lon="-1.163499">
        <ele>148.759</ele>
        <time>2026-08-24T13:00:50Z</time>
      </trkpt>
      <trkpt lat="48.766730" lon="-1.163479">
        <ele>148.727</ele>
        <time>2026-08-24T13:00:51Z</time>
      </trkpt>
      <trkpt lat="48.766736" lon="-1.163460">
        <ele>148.771</ele>
        <time>2026-08-24T13:00:52Z</time>
      </trkpt>
      <trkpt lat="48.766736" lon="-1.163440">
        <ele>148.748</ele>
        <time>2026-08-24T13:00:53Z</time>
      </trkpt>
      <trkpt lat="48.766734" lon="-1.163419">
        <ele>148.720</ele>
        <time>2026-08-24T13:00:54Z</time>
      </trkpt>
      <trkpt lat="48.766732" lon="-1.163402">
        <ele>148.772</ele>
        <time>2026-08-24T13:00:55Z</time>
      </trkpt>
      <trkpt lat="48.766732" lon="-1.163384">
        <ele>148.713</ele>
        <time>2026-08-24T13:00:56Z</time>
      </trkpt>
      <trkpt lat="48.766732" lon="-1.163369">
        <ele>148.714</ele>
        <time>2026-08-24T13:00:57Z</time>
      </trkpt>
      <trkpt lat="48.766730" lon="-1.163351">
        <ele>148.709</ele>
        <time>2026-08-24T13:00:58Z</time>
      </trkpt>
      <trkpt lat="48.766723" lon="-1.163321">
        <ele>148.779</ele>
        <time>2026-08-24T13:00:59Z</time>
      </trkpt>
      <trkpt lat="48.766727" lon="-1.163306">
        <ele>148.985</ele>
        <time>2026-08-24T13:01:00Z</time>
      </trkpt>
      <trkpt lat="48.766728" lon="-1.163292">
        <ele>149.038</ele>
        <time>2026-08-24T13:01:01Z</time>
      </trkpt>
      <trkpt lat="48.766729" lon="-1.163274">
        <ele>149.195</ele>
        <time>2026-08-24T13:01:02Z</time>
      </trkpt>
      <trkpt lat="48.766735" lon="-1.163257">
        <ele>149.483</ele>
        <time>2026-08-24T13:01:03Z</time>
      </trkpt>
      <trkpt lat="48.766738" lon="-1.163243">
        <ele>149.761</ele>
        <time>2026-08-24T13:01:04Z</time>
      </trkpt>
      <trkpt lat="48.766741" lon="-1.163228">
        <ele>149.855</ele>
        <time>2026-08-24T13:01:05Z</time>
      </trkpt>
      <trkpt lat="48.766741" lon="-1.163206">
        <ele>149.972</ele>
        <time>2026-08-24T13:01:06Z</time>
      </trkpt>
      <trkpt lat="48.766735" lon="-1.163190">
        <ele>150.094</ele>
        <time>2026-08-24T13:01:07Z</time>
      </trkpt>
      <trkpt lat="48.766738" lon="-1.163174">
        <ele>150.116</ele>
        <time>2026-08-24T13:01:08Z</time>
      </trkpt>
      <trkpt lat="48.766744" lon="-1.163152">
        <ele>150.476</ele>
        <time>2026-08-24T13:01:09Z</time>
      </trkpt>
      <trkpt lat="48.766747" lon="-1.163129">
        <ele>150.613</ele>
        <time>2026-08-24T13:01:10Z</time>
      </trkpt>
      <trkpt lat="48.766753" lon="-1.163113">
        <ele>150.609</ele>
        <time>2026-08-24T13:01:11Z</time>
      </trkpt>
      <trkpt lat="48.766752" lon="-1.163094">
        <ele>150.723</ele>
        <time>2026-08-24T13:01:12Z</time>
      </trkpt>
      <trkpt lat="48.766752" lon="-1.163078">
        <ele>150.869</ele>
        <time>2026-08-24T13:01:13Z</time>
      </trkpt>
      <trkpt lat="48.766750" lon="-1.163061">
        <ele>150.932</ele>
        <time>2026-08-24T13:01:14Z</time>
      </trkpt>
      <trkpt lat="48.766750" lon="-1.163043">
        <ele>151.019</ele>
        <time>2026-08-24T13:01:15Z</time>
      </trkpt>
      <trkpt lat="48.766751" lon="-1.163028">
        <ele>151.177</ele>
        <time>2026-08-24T13:01:16Z</time>
      </trkpt>
      <trkpt lat="48.766753" lon="-1.163007">
        <ele>151.285</ele>
        <time>2026-08-24T13:01:17Z</time>
      </trkpt>
      <trkpt lat="48.766753" lon="-1.162981">
        <ele>151.319</ele>
        <time>2026-08-24T13:01:18Z</time>
      </trkpt>
      <trkpt lat="48.766751" lon="-1.162967">
        <ele>151.326</ele>
        <time>2026-08-24T13:01:19Z</time>
      </trkpt>
      <trkpt lat="48.766747" lon="-1.162953">
        <ele>151.458</ele>
        <time>2026-08-24T13:01:20Z</time>
      </trkpt>
      <trkpt lat="48.766743" lon="-1.162939">
        <ele>151.478</ele>
        <time>2026-08-24T13:01:21Z</time>
      </trkpt>
      <trkpt lat="48.766743" lon="-1.162916">
        <ele>151.533</ele>
        <time>2026-08-24T13:01:22Z</time>
      </trkpt>
      <trkpt lat="48.766742" lon="-1.162897">
        <ele>151.626</ele>
        <time>2026-08-24T13:01:23Z</time>
      </trkpt>
      <trkpt lat="48.766740" lon="-1.162883">
        <ele>151.809</ele>
        <time>2026-08-24T13:01:24Z</time>
      </trkpt>
      <trkpt lat="48.766738" lon="-1.162865">
        <ele>151.979</ele>
        <time>2026-08-24T13:01:25Z</time>
      </trkpt>
      <trkpt lat="48.766732" lon="-1.162854">
        <ele>152.075</ele>
        <time>2026-08-24T13:01:26Z</time>
      </trkpt>
      <trkpt lat="48.766731" lon="-1.162835">
        <ele>152.238</ele>
        <time>2026-08-24T13:01:27Z</time>
      </trkpt>
      <trkpt lat="48.766733" lon="-1.162818">
        <ele>152.345</ele>
        <time>2026-08-24T13:01:28Z</time>
      </trkpt>
      <trkpt lat="48.766732" lon="-1.162796">
        <ele>152.353</ele>
        <time>2026-08-24T13:01:29Z</time>
      </trkpt>
      <trkpt lat="48.766732" lon="-1.162780">
        <ele>152.461</ele>
        <time>2026-08-24T13:01:30Z</time>
      </trkpt>
      <trkpt lat="48.766731" lon="-1.162765">
        <ele>152.445</ele>
        <time>2026-08-24T13:01:31Z</time>
      </trkpt>
      <trkpt lat="48.766733" lon="-1.162748">
        <ele>152.472</ele>
        <time>2026-08-24T13:01:32Z</time>
      </trkpt>
      <trkpt lat="48.766735" lon="-1.162733">
        <ele>152.564</ele>
        <time>2026-08-24T13:01:33Z</time>
      </trkpt>
      <trkpt lat="48.766734" lon="-1.162711">
        <ele>152.784</ele>
        <time>2026-08-24T13:01:34Z</time>
      </trkpt>
      <trkpt lat="48.766733" lon="-1.162694">
        <ele>152.907</ele>
        <time>2026-08-24T13:01:35Z</time>
      </trkpt>
      <trkpt lat="48.766736" lon="-1.162679">
        <ele>153.117</ele>
        <time>2026-08-24T13:01:36Z</time>
      </trkpt>
      <trkpt lat="48.766735" lon="-1.162658">
        <ele>153.209</ele>
        <time>2026-08-24T13:01:37Z</time>
      </trkpt>
      <trkpt lat="48.766736" lon="-1.162641">
        <ele>153.340</ele>
        <time>2026-08-24T13:01:38Z</time>
      </trkpt>
      <trkpt lat="48.766736" lon="-1.162618">
        <ele>153.316</ele>
        <time>2026-08-24T13:01:39Z</time>
      </trkpt>
      <trkpt lat="48.766735" lon="-1.162602">
        <ele>153.329</ele>
        <time>2026-08-24T13:01:40Z</time>
      </trkpt>
      <trkpt lat="48.766735" lon="-1.162587">
        <ele>153.396</ele>
        <time>2026-08-24T13:01:41Z</time>
      </trkpt>
      <trkpt lat="48.766731" lon="-1.162572">
        <ele>153.324</ele>
        <time>2026-08-24T13:01:42Z</time>
      </trkpt>
      <trkpt lat="48.766728" lon="-1.162557">
        <ele>153.322</ele>
        <time>2026-08-24T13:01:43Z</time>
      </trkpt>
      <trkpt lat="48.766726" lon="-1.162536">
        <ele>153.336</ele>
        <time>2026-08-24T13:01:45Z</time>
      </trkpt>
      <trkpt lat="48.766724" lon="-1.162523">
        <ele>153.393</ele>
        <time>2026-08-24T13:01:46Z</time>
      </trkpt>
      <trkpt lat="48.766722" lon="-1.162509">
        <ele>153.355</ele>
        <time>2026-08-24T13:01:47Z</time>
      </trkpt>
      <trkpt lat="48.766723" lon="-1.162492">
        <ele>153.387</ele>
        <time>2026-08-24T13:01:48Z</time>
      </trkpt>
      <trkpt lat="48.766721" lon="-1.162473">
        <ele>153.342</ele>
        <time>2026-08-24T13:01:49Z</time>
      </trkpt>
      <trkpt lat="48.766720" lon="-1.162450">
        <ele>153.426</ele>
        <time>2026-08-24T13:01:50Z</time>
      </trkpt>
      <trkpt lat="48.766726" lon="-1.162422">
        <ele>153.409</ele>
        <time>2026-08-24T13:01:51Z</time>
      </trkpt>
      <trkpt lat="48.766728" lon="-1.162397">
        <ele>153.430</ele>
        <time>2026-08-24T13:01:52Z</time>
      </trkpt>
      <trkpt lat="48.766721" lon="-1.162376">
        <ele>153.516</ele>
        <time>2026-08-24T13:01:54Z</time>
      </trkpt>
      <trkpt lat="48.766715" lon="-1.162350">
        <ele>153.519</ele>
        <time>2026-08-24T13:01:56Z</time>
      </trkpt>
      <trkpt lat="48.766717" lon="-1.162332">
        <ele>153.536</ele>
        <time>2026-08-24T13:01:57Z</time>
      </trkpt>
      <trkpt lat="48.766720" lon="-1.162317">
        <ele>153.544</ele>
        <time>2026-08-24T13:01:58Z</time>
      </trkpt>
      <trkpt lat="48.766719" lon="-1.162301">
        <ele>153.512</ele>
        <time>2026-08-24T13:01:59Z</time>
      </trkpt>
      <trkpt lat="48.766719" lon="-1.162280">
        <ele>153.596</ele>
        <time>2026-08-24T13:02:00Z</time>
      </trkpt>
      <trkpt lat="48.766721" lon="-1.162258">
        <ele>153.593</ele>
        <time>2026-08-24T13:02:01Z</time>
      </trkpt>
      <trkpt lat="48.766726" lon="-1.162238">
        <ele>153.595</ele>
        <time>2026-08-24T13:02:02Z</time>
      </trkpt>
      <trkpt lat="48.766728" lon="-1.162221">
        <ele>153.537</ele>
        <time>2026-08-24T13:02:03Z</time>
      </trkpt>
      <trkpt lat="48.766724" lon="-1.162205">
        <ele>153.549</ele>
        <time>2026-08-24T13:02:04Z</time>
      </trkpt>
      <trkpt lat="48.766723" lon="-1.162185">
        <ele>153.513</ele>
        <time>2026-08-24T13:02:05Z</time>
      </trkpt>
      <trkpt lat="48.766730" lon="-1.162170">
        <ele>153.509</ele>
        <time>2026-08-24T13:02:06Z</time>
      </trkpt>
      <trkpt lat="48.766729" lon="-1.162142">
        <ele>153.555</ele>
        <time>2026-08-24T13:02:08Z</time>
      </trkpt>
      <trkpt lat="48.766735" lon="-1.162123">
        <ele>153.591</ele>
        <time>2026-08-24T13:02:09Z</time>
      </trkpt>
      <trkpt lat="48.766739" lon="-1.162108">
        <ele>153.574</ele>
        <time>2026-08-24T13:02:10Z</time>
      </trkpt>
      <trkpt lat="48.766743" lon="-1.162085">
        <ele>153.891</ele>
        <time>2026-08-24T13:02:12Z</time>
      </trkpt>
      <trkpt lat="48.766742" lon="-1.162066">
        <ele>154.049</ele>
        <time>2026-08-24T13:02:13Z</time>
      </trkpt>
      <trkpt lat="48.766737" lon="-1.162043">
        <ele>154.397</ele>
        <time>2026-08-24T13:02:14Z</time>
      </trkpt>
      <trkpt lat="48.766736" lon="-1.162027">
        <ele>154.831</ele>
        <time>2026-08-24T13:02:15Z</time>
      </trkpt>
      <trkpt lat="48.766734" lon="-1.162010">
        <ele>155.388</ele>
        <time>2026-08-24T13:02:16Z</time>
      </trkpt>
      <trkpt lat="48.766732" lon="-1.161988">
        <ele>155.610</ele>
        <time>2026-08-24T13:02:18Z</time>
      </trkpt>
      <trkpt lat="48.766737" lon="-1.161965">
        <ele>155.782</ele>
        <time>2026-08-24T13:02:19Z</time>
      </trkpt>
      <trkpt lat="48.766744" lon="-1.161945">
        <ele>155.843</ele>
        <time>2026-08-24T13:02:20Z</time>
      </trkpt>
      <trkpt lat="48.766741" lon="-1.161924">
        <ele>155.917</ele>
        <time>2026-08-24T13:02:21Z</time>
      </trkpt>
      <trkpt lat="48.766737" lon="-1.161897">
        <ele>156.009</ele>
        <time>2026-08-24T13:02:23Z</time>
      </trkpt>
      <trkpt lat="48.766737" lon="-1.161879">
        <ele>156.020</ele>
        <time>2026-08-24T13:02:24Z</time>
      </trkpt>
      <trkpt lat="48.766738" lon="-1.161859">
        <ele>156.156</ele>
        <time>2026-08-24T13:02:25Z</time>
      </trkpt>
      <trkpt lat="48.766736" lon="-1.161844">
        <ele>156.319</ele>
        <time>2026-08-24T13:02:26Z</time>
      </trkpt>
      <trkpt lat="48.766734" lon="-1.161822">
        <ele>156.366</ele>
        <time>2026-08-24T13:02:27Z</time>
      </trkpt>
      <trkpt lat="48.766728" lon="-1.161803">
        <ele>156.344</ele>
        <time>2026-08-24T13:02:28Z</time>
      </trkpt>
      <trkpt lat="48.766730" lon="-1.161777">
        <ele>156.372</ele>
        <time>2026-08-24T13:02:30Z</time>
      </trkpt>
      <trkpt lat="48.766735" lon="-1.161759">
        <ele>156.436</ele>
        <time>2026-08-24T13:02:31Z</time>
      </trkpt>
      <trkpt lat="48.766728" lon="-1.161741">
        <ele>156.423</ele>
        <time>2026-08-24T13:02:32Z</time>
      </trkpt>
      <trkpt lat="48.766727" lon="-1.161725">
        <ele>156.495</ele>
        <time>2026-08-24T13:02:33Z</time>
      </trkpt>
      <trkpt lat="48.766728" lon="-1.161709">
        <ele>156.586</ele>
        <time>2026-08-24T13:02:34Z</time>
      </trkpt>
      <trkpt lat="48.766728" lon="-1.161681">
        <ele>156.560</ele>
        <time>2026-08-24T13:02:36Z</time>
      </trkpt>
      <trkpt lat="48.766729" lon="-1.161664">
        <ele>156.526</ele>
        <time>2026-08-24T13:02:37Z</time>
      </trkpt>
      <trkpt lat="48.766727" lon="-1.161630">
        <ele>156.609</ele>
        <time>2026-08-24T13:02:39Z</time>
      </trkpt>
      <trkpt lat="48.766725" lon="-1.161612">
        <ele>156.970</ele>
        <time>2026-08-24T13:02:40Z</time>
      </trkpt>
      <trkpt lat="48.766725" lon="-1.161594">
        <ele>157.256</ele>
        <time>2026-08-24T13:02:41Z</time>
      </trkpt>
      <trkpt lat="48.766727" lon="-1.161574">
        <ele>157.419</ele>
        <time>2026-08-24T13:02:42Z</time>
      </trkpt>
      <trkpt lat="48.766726" lon="-1.161559">
        <ele>157.526</ele>
        <time>2026-08-24T13:02:43Z</time>
      </trkpt>
      <trkpt lat="48.766725" lon="-1.161544">
        <ele>157.914</ele>
        <time>2026-08-24T13:02:44Z</time>
      </trkpt>
      <trkpt lat="48.766731" lon="-1.161525">
        <ele>158.382</ele>
        <time>2026-08-24T13:02:45Z</time>
      </trkpt>
      <trkpt lat="48.766730" lon="-1.161506">
        <ele>158.716</ele>
        <time>2026-08-24T13:02:46Z</time>
      </trkpt>
      <trkpt lat="48.766731" lon="-1.161489">
        <ele>158.943</ele>
        <time>2026-08-24T13:02:47Z</time>
      </trkpt>
      <trkpt lat="48.766734" lon="-1.161474">
        <ele>159.125</ele>
        <time>2026-08-24T13:02:48Z</time>
      </trkpt>
      <trkpt lat="48.766736" lon="-1.161456">
        <ele>159.211</ele>
        <time>2026-08-24T13:02:49Z</time>
      </trkpt>
      <trkpt lat="48.766734" lon="-1.161428">
        <ele>159.321</ele>
        <time>2026-08-24T13:02:51Z</time>
      </trkpt>
      <trkpt lat="48.766733" lon="-1.161412">
        <ele>159.403</ele>
        <time>2026-08-24T13:02:52Z</time>
      </trkpt>
      <trkpt lat="48.766735" lon="-1.161398">
        <ele>159.609</ele>
        <time>2026-08-24T13:02:53Z</time>
      </trkpt>
      <trkpt lat="48.766732" lon="-1.161375">
        <ele>159.653</ele>
        <time>2026-08-24T13:02:55Z</time>
      </trkpt>
      <trkpt lat="48.766743" lon="-1.161388">
        <ele>159.729</ele>
        <time>2026-08-24T13:03:01Z</time>
      </trkpt>
      <trkpt lat="48.766764" lon="-1.161385">
        <ele>159.892</ele>
        <time>2026-08-24T13:03:03Z</time>
      </trkpt>
      <trkpt lat="48.766775" lon="-1.161379">
        <ele>159.889</ele>
        <time>2026-08-24T13:03:04Z</time>
      </trkpt>
      <trkpt lat="48.766788" lon="-1.161376">
        <ele>159.947</ele>
        <time>2026-08-24T13:03:05Z</time>
      </trkpt>
      <trkpt lat="48.766806" lon="-1.161379">
        <ele>159.975</ele>
        <time>2026-08-24T13:03:06Z</time>
      </trkpt>
      <trkpt lat="48.766818" lon="-1.161374">
        <ele>159.989</ele>
        <time>2026-08-24T13:03:07Z</time>
      </trkpt>
      <trkpt lat="48.766828" lon="-1.161372">
        <ele>160.026</ele>
        <time>2026-08-24T13:03:08Z</time>
      </trkpt>
      <trkpt lat="48.766843" lon="-1.161371">
        <ele>160.128</ele>
        <time>2026-08-24T13:03:09Z</time>
      </trkpt>
      <trkpt lat="48.766860" lon="-1.161366">
        <ele>160.255</ele>
        <time>2026-08-24T13:03:10Z</time>
      </trkpt>
      <trkpt lat="48.766880" lon="-1.161362">
        <ele>160.307</ele>
        <time>2026-08-24T13:03:12Z</time>
      </trkpt>
      <trkpt lat="48.766894" lon="-1.161361">
        <ele>160.317</ele>
        <time>2026-08-24T13:03:13Z</time>
      </trkpt>
      <trkpt lat="48.766909" lon="-1.161360">
        <ele>160.409</ele>
        <time>2026-08-24T13:03:14Z</time>
      </trkpt>
      <trkpt lat="48.766922" lon="-1.161357">
        <ele>160.737</ele>
        <time>2026-08-24T13:03:16Z</time>
      </trkpt>
      <trkpt lat="48.766931" lon="-1.161356">
        <ele>161.543</ele>
        <time>2026-08-24T13:03:17Z</time>
      </trkpt>
      <trkpt lat="48.766944" lon="-1.161358">
        <ele>162.586</ele>
        <time>2026-08-24T13:03:18Z</time>
      </trkpt>
      <trkpt lat="48.766955" lon="-1.161357">
        <ele>163.263</ele>
        <time>2026-08-24T13:03:19Z</time>
      </trkpt>
      <trkpt lat="48.766966" lon="-1.161359">
        <ele>163.431</ele>
        <time>2026-08-24T13:03:20Z</time>
      </trkpt>
      <trkpt lat="48.766978" lon="-1.161357">
        <ele>163.449</ele>
        <time>2026-08-24T13:03:21Z</time>
      </trkpt>
      <trkpt lat="48.766987" lon="-1.161355">
        <ele>163.573</ele>
        <time>2026-08-24T13:03:22Z</time>
      </trkpt>
      <trkpt lat="48.767005" lon="-1.161356">
        <ele>163.690</ele>
        <time>2026-08-24T13:03:23Z</time>
      </trkpt>
      <trkpt lat="48.767016" lon="-1.161356">
        <ele>163.812</ele>
        <time>2026-08-24T13:03:24Z</time>
      </trkpt>
      <trkpt lat="48.767027" lon="-1.161359">
        <ele>164.042</ele>
        <time>2026-08-24T13:03:25Z</time>
      </trkpt>
      <trkpt lat="48.767049" lon="-1.161356">
        <ele>164.222</ele>
        <time>2026-08-24T13:03:27Z</time>
      </trkpt>
      <trkpt lat="48.767063" lon="-1.161353">
        <ele>164.714</ele>
        <time>2026-08-24T13:03:28Z</time>
      </trkpt>
      <trkpt lat="48.767073" lon="-1.161353">
        <ele>165.009</ele>
        <time>2026-08-24T13:03:29Z</time>
      </trkpt>
      <trkpt lat="48.767084" lon="-1.161351">
        <ele>165.016</ele>
        <time>2026-08-24T13:03:30Z</time>
      </trkpt>
      <trkpt lat="48.767096" lon="-1.161352">
        <ele>165.182</ele>
        <time>2026-08-24T13:03:31Z</time>
      </trkpt>
      <trkpt lat="48.767108" lon="-1.161352">
        <ele>165.185</ele>
        <time>2026-08-24T13:03:32Z</time>
      </trkpt>
      <trkpt lat="48.767125" lon="-1.161351">
        <ele>165.262</ele>
        <time>2026-08-24T13:03:34Z</time>
      </trkpt>
      <trkpt lat="48.767138" lon="-1.161351">
        <ele>165.250</ele>
        <time>2026-08-24T13:03:35Z</time>
      </trkpt>
      <trkpt lat="48.767155" lon="-1.161351">
        <ele>165.418</ele>
        <time>2026-08-24T13:03:36Z</time>
      </trkpt>
      <trkpt lat="48.767171" lon="-1.161352">
        <ele>165.782</ele>
        <time>2026-08-24T13:03:37Z</time>
      </trkpt>
      <trkpt lat="48.767185" lon="-1.161350">
        <ele>165.849</ele>
        <time>2026-08-24T13:03:38Z</time>
      </trkpt>
      <trkpt lat="48.767198" lon="-1.161355">
        <ele>166.041</ele>
        <time>2026-08-24T13:03:39Z</time>
      </trkpt>
      <trkpt lat="48.767207" lon="-1.161354">
        <ele>166.371</ele>
        <time>2026-08-24T13:03:40Z</time>
      </trkpt>
      <trkpt lat="48.767216" lon="-1.161357">
        <ele>166.641</ele>
        <time>2026-08-24T13:03:41Z</time>
      </trkpt>
      <trkpt lat="48.767234" lon="-1.161353">
        <ele>166.815</ele>
        <time>2026-08-24T13:03:43Z</time>
      </trkpt>
      <trkpt lat="48.767244" lon="-1.161352">
        <ele>166.909</ele>
        <time>2026-08-24T13:03:44Z</time>
      </trkpt>
      <trkpt lat="48.767255" lon="-1.161353">
        <ele>167.039</ele>
        <time>2026-08-24T13:03:45Z</time>
      </trkpt>
      <trkpt lat="48.767269" lon="-1.161353">
        <ele>167.135</ele>
        <time>2026-08-24T13:03:46Z</time>
      </trkpt>
      <trkpt lat="48.767281" lon="-1.161351">
        <ele>167.198</ele>
        <time>2026-08-24T13:03:47Z</time>
      </trkpt>
      <trkpt lat="48.767294" lon="-1.161350">
        <ele>167.295</ele>
        <time>2026-08-24T13:03:48Z</time>
      </trkpt>
      <trkpt lat="48.767307" lon="-1.161351">
        <ele>167.263</ele>
        <time>2026-08-24T13:03:49Z</time>
      </trkpt>
      <trkpt lat="48.767322" lon="-1.161348">
        <ele>167.221</ele>
        <time>2026-08-24T13:03:50Z</time>
      </trkpt>
      <trkpt lat="48.767337" lon="-1.161349">
        <ele>167.265</ele>
        <time>2026-08-24T13:03:51Z</time>
      </trkpt>
      <trkpt lat="48.767353" lon="-1.161348">
        <ele>167.372</ele>
        <time>2026-08-24T13:03:52Z</time>
      </trkpt>
      <trkpt lat="48.767363" lon="-1.161340">
        <ele>167.394</ele>
        <time>2026-08-24T13:03:53Z</time>
      </trkpt>
      <trkpt lat="48.767376" lon="-1.161334">
        <ele>167.398</ele>
        <time>2026-08-24T13:03:54Z</time>
      </trkpt>
      <trkpt lat="48.767385" lon="-1.161330">
        <ele>167.415</ele>
        <time>2026-08-24T13:03:55Z</time>
      </trkpt>
      <trkpt lat="48.767406" lon="-1.161328">
        <ele>167.626</ele>
        <time>2026-08-24T13:03:57Z</time>
      </trkpt>
      <trkpt lat="48.767416" lon="-1.161321">
        <ele>168.009</ele>
        <time>2026-08-24T13:03:58Z</time>
      </trkpt>
      <trkpt lat="48.767425" lon="-1.161310">
        <ele>168.341</ele>
        <time>2026-08-24T13:03:59Z</time>
      </trkpt>
      <trkpt lat="48.767436" lon="-1.161302">
        <ele>168.437</ele>
        <time>2026-08-24T13:04:00Z</time>
      </trkpt>
      <trkpt lat="48.767450" lon="-1.161293">
        <ele>168.520</ele>
        <time>2026-08-24T13:04:01Z</time>
      </trkpt>
      <trkpt lat="48.767461" lon="-1.161290">
        <ele>168.787</ele>
        <time>2026-08-24T13:04:02Z</time>
      </trkpt>
      <trkpt lat="48.767473" lon="-1.161283">
        <ele>168.995</ele>
        <time>2026-08-24T13:04:03Z</time>
      </trkpt>
      <trkpt lat="48.767491" lon="-1.161268">
        <ele>169.053</ele>
        <time>2026-08-24T13:04:05Z</time>
      </trkpt>
      <trkpt lat="48.767506" lon="-1.161258">
        <ele>169.087</ele>
        <time>2026-08-24T13:04:07Z</time>
      </trkpt>
      <trkpt lat="48.767516" lon="-1.161252">
        <ele>169.124</ele>
        <time>2026-08-24T13:04:08Z</time>
      </trkpt>
      <trkpt lat="48.767527" lon="-1.161244">
        <ele>169.286</ele>
        <time>2026-08-24T13:04:09Z</time>
      </trkpt>
      <trkpt lat="48.767540" lon="-1.161239">
        <ele>169.394</ele>
        <time>2026-08-24T13:04:10Z</time>
      </trkpt>
      <trkpt lat="48.767549" lon="-1.161231">
        <ele>169.557</ele>
        <time>2026-08-24T13:04:11Z</time>
      </trkpt>
      <trkpt lat="48.767565" lon="-1.161219">
        <ele>169.922</ele>
        <time>2026-08-24T13:04:13Z</time>
      </trkpt>
      <trkpt lat="48.767578" lon="-1.161216">
        <ele>170.309</ele>
        <time>2026-08-24T13:04:14Z</time>
      </trkpt>
      <trkpt lat="48.767591" lon="-1.161208">
        <ele>170.581</ele>
        <time>2026-08-24T13:04:15Z</time>
      </trkpt>
      <trkpt lat="48.767602" lon="-1.161202">
        <ele>170.687</ele>
        <time>2026-08-24T13:04:16Z</time>
      </trkpt>
      <trkpt lat="48.767613" lon="-1.161193">
        <ele>170.680</ele>
        <time>2026-08-24T13:04:17Z</time>
      </trkpt>
      <trkpt lat="48.767624" lon="-1.161184">
        <ele>170.697</ele>
        <time>2026-08-24T13:04:18Z</time>
      </trkpt>
      <trkpt lat="48.767637" lon="-1.161176">
        <ele>170.725</ele>
        <time>2026-08-24T13:04:19Z</time>
      </trkpt>
      <trkpt lat="48.767650" lon="-1.161164">
        <ele>170.723</ele>
        <time>2026-08-24T13:04:20Z</time>
      </trkpt>
      <trkpt lat="48.767662" lon="-1.161157">
        <ele>170.797</ele>
        <time>2026-08-24T13:04:21Z</time>
      </trkpt>
      <trkpt lat="48.767672" lon="-1.161150">
        <ele>170.834</ele>
        <time>2026-08-24T13:04:22Z</time>
      </trkpt>
      <trkpt lat="48.767681" lon="-1.161139">
        <ele>170.946</ele>
        <time>2026-08-24T13:04:23Z</time>
      </trkpt>
      <trkpt lat="48.767693" lon="-1.161136">
        <ele>171.144</ele>
        <time>2026-08-24T13:04:24Z</time>
      </trkpt>
      <trkpt lat="48.767706" lon="-1.161128">
        <ele>171.205</ele>
        <time>2026-08-24T13:04:25Z</time>
      </trkpt>
      <trkpt lat="48.767718" lon="-1.161118">
        <ele>171.215</ele>
        <time>2026-08-24T13:04:26Z</time>
      </trkpt>
      <trkpt lat="48.767729" lon="-1.161111">
        <ele>171.309</ele>
        <time>2026-08-24T13:04:27Z</time>
      </trkpt>
      <trkpt lat="48.767743" lon="-1.161102">
        <ele>171.356</ele>
        <time>2026-08-24T13:04:29Z</time>
      </trkpt>
      <trkpt lat="48.767757" lon="-1.161096">
        <ele>171.432</ele>
        <time>2026-08-24T13:04:30Z</time>
      </trkpt>
      <trkpt lat="48.767769" lon="-1.161095">
        <ele>171.495</ele>
        <time>2026-08-24T13:04:31Z</time>
      </trkpt>
      <trkpt lat="48.767784" lon="-1.161085">
        <ele>171.642</ele>
        <time>2026-08-24T13:04:32Z</time>
      </trkpt>
      <trkpt lat="48.767798" lon="-1.161070">
        <ele>171.720</ele>
        <time>2026-08-24T13:04:33Z</time>
      </trkpt>
      <trkpt lat="48.767808" lon="-1.161062">
        <ele>171.868</ele>
        <time>2026-08-24T13:04:34Z</time>
      </trkpt>
      <trkpt lat="48.767819" lon="-1.161057">
        <ele>171.852</ele>
        <time>2026-08-24T13:04:35Z</time>
      </trkpt>
      <trkpt lat="48.767831" lon="-1.161058">
        <ele>171.899</ele>
        <time>2026-08-24T13:04:36Z</time>
      </trkpt>
      <trkpt lat="48.767840" lon="-1.161054">
        <ele>171.841</ele>
        <time>2026-08-24T13:04:37Z</time>
      </trkpt>
      <trkpt lat="48.767846" lon="-1.161043">
        <ele>171.879</ele>
        <time>2026-08-24T13:04:38Z</time>
      </trkpt>
      <trkpt lat="48.767855" lon="-1.161033">
        <ele>171.905</ele>
        <time>2026-08-24T13:04:39Z</time>
      </trkpt>
      <trkpt lat="48.767867" lon="-1.161023">
        <ele>171.925</ele>
        <time>2026-08-24T13:04:40Z</time>
      </trkpt>
      <trkpt lat="48.767880" lon="-1.161017">
        <ele>171.909</ele>
        <time>2026-08-24T13:04:41Z</time>
      </trkpt>
      <trkpt lat="48.767898" lon="-1.161015">
        <ele>172.099</ele>
        <time>2026-08-24T13:04:42Z</time>
      </trkpt>
      <trkpt lat="48.767912" lon="-1.161011">
        <ele>172.125</ele>
        <time>2026-08-24T13:04:43Z</time>
      </trkpt>
      <trkpt lat="48.767924" lon="-1.161005">
        <ele>172.168</ele>
        <time>2026-08-24T13:04:44Z</time>
      </trkpt>
      <trkpt lat="48.767935" lon="-1.160998">
        <ele>172.325</ele>
        <time>2026-08-24T13:04:45Z</time>
      </trkpt>
      <trkpt lat="48.767947" lon="-1.160992">
        <ele>172.763</ele>
        <time>2026-08-24T13:04:46Z</time>
      </trkpt>
      <trkpt lat="48.767958" lon="-1.160987">
        <ele>173.091</ele>
        <time>2026-08-24T13:04:47Z</time>
      </trkpt>
      <trkpt lat="48.767968" lon="-1.160982">
        <ele>173.345</ele>
        <time>2026-08-24T13:04:48Z</time>
      </trkpt>
      <trkpt lat="48.767984" lon="-1.160980">
        <ele>173.582</ele>
        <time>2026-08-24T13:04:49Z</time>
      </trkpt>
      <trkpt lat="48.767994" lon="-1.160976">
        <ele>173.764</ele>
        <time>2026-08-24T13:04:50Z</time>
      </trkpt>
      <trkpt lat="48.768008" lon="-1.160967">
        <ele>173.999</ele>
        <time>2026-08-24T13:04:51Z</time>
      </trkpt>
      <trkpt lat="48.768020" lon="-1.160959">
        <ele>174.207</ele>
        <time>2026-08-24T13:04:52Z</time>
      </trkpt>
      <trkpt lat="48.768032" lon="-1.160959">
        <ele>174.427</ele>
        <time>2026-08-24T13:04:53Z</time>
      </trkpt>
      <trkpt lat="48.768043" lon="-1.160954">
        <ele>174.509</ele>
        <time>2026-08-24T13:04:54Z</time>
      </trkpt>
      <trkpt lat="48.768052" lon="-1.160947">
        <ele>174.691</ele>
        <time>2026-08-24T13:04:55Z</time>
      </trkpt>
      <trkpt lat="48.768065" lon="-1.160941">
        <ele>174.757</ele>
        <time>2026-08-24T13:04:56Z</time>
      </trkpt>
      <trkpt lat="48.768074" lon="-1.160935">
        <ele>174.980</ele>
        <time>2026-08-24T13:04:57Z</time>
      </trkpt>
      <trkpt lat="48.768083" lon="-1.160928">
        <ele>175.157</ele>
        <time>2026-08-24T13:04:58Z</time>
      </trkpt>
      <trkpt lat="48.768094" lon="-1.160921">
        <ele>175.175</ele>
        <time>2026-08-24T13:04:59Z</time>
      </trkpt>
      <trkpt lat="48.768104" lon="-1.160914">
        <ele>175.253</ele>
        <time>2026-08-24T13:05:00Z</time>
      </trkpt>
      <trkpt lat="48.768121" lon="-1.160905">
        <ele>175.497</ele>
        <time>2026-08-24T13:05:02Z</time>
      </trkpt>
      <trkpt lat="48.768132" lon="-1.160900">
        <ele>175.694</ele>
        <time>2026-08-24T13:05:03Z</time>
      </trkpt>
      <trkpt lat="48.768150" lon="-1.160893">
        <ele>175.926</ele>
        <time>2026-08-24T13:05:05Z</time>
      </trkpt>
      <trkpt lat="48.768159" lon="-1.160886">
        <ele>176.023</ele>
        <time>2026-08-24T13:05:06Z</time>
      </trkpt>
      <trkpt lat="48.768170" lon="-1.160879">
        <ele>176.183</ele>
        <time>2026-08-24T13:05:07Z</time>
      </trkpt>
      <trkpt lat="48.768183" lon="-1.160873">
        <ele>176.211</ele>
        <time>2026-08-24T13:05:08Z</time>
      </trkpt>
      <trkpt lat="48.768196" lon="-1.160866">
        <ele>176.409</ele>
        <time>2026-08-24T13:05:09Z</time>
      </trkpt>
      <trkpt lat="48.768209" lon="-1.160855">
        <ele>176.544</ele>
        <time>2026-08-24T13:05:10Z</time>
      </trkpt>
      <trkpt lat="48.768222" lon="-1.160847">
        <ele>176.610</ele>
        <time>2026-08-24T13:05:11Z</time>
      </trkpt>
      <trkpt lat="48.768237" lon="-1.160838">
        <ele>176.743</ele>
        <time>2026-08-24T13:05:12Z</time>
      </trkpt>
      <trkpt lat="48.768252" lon="-1.160828">
        <ele>176.870</ele>
        <time>2026-08-24T13:05:13Z</time>
      </trkpt>
      <trkpt lat="48.768267" lon="-1.160821">
        <ele>176.828</ele>
        <time>2026-08-24T13:05:14Z</time>
      </trkpt>
      <trkpt lat="48.768288" lon="-1.160807">
        <ele>176.856</ele>
        <time>2026-08-24T13:05:16Z</time>
      </trkpt>
      <trkpt lat="48.768299" lon="-1.160799">
        <ele>176.950</ele>
        <time>2026-08-24T13:05:17Z</time>
      </trkpt>
      <trkpt lat="48.768309" lon="-1.160789">
        <ele>176.937</ele>
        <time>2026-08-24T13:05:18Z</time>
      </trkpt>
      <trkpt lat="48.768318" lon="-1.160782">
        <ele>177.019</ele>
        <time>2026-08-24T13:05:19Z</time>
      </trkpt>
      <trkpt lat="48.768326" lon="-1.160774">
        <ele>177.066</ele>
        <time>2026-08-24T13:05:20Z</time>
      </trkpt>
      <trkpt lat="48.768337" lon="-1.160769">
        <ele>177.229</ele>
        <time>2026-08-24T13:05:21Z</time>
      </trkpt>
      <trkpt lat="48.768349" lon="-1.160766">
        <ele>177.321</ele>
        <time>2026-08-24T13:05:22Z</time>
      </trkpt>
      <trkpt lat="48.768364" lon="-1.160760">
        <ele>177.309</ele>
        <time>2026-08-24T13:05:23Z</time>
      </trkpt>
      <trkpt lat="48.768379" lon="-1.160755">
        <ele>177.338</ele>
        <time>2026-08-24T13:05:24Z</time>
      </trkpt>
      <trkpt lat="48.768393" lon="-1.160747">
        <ele>177.334</ele>
        <time>2026-08-24T13:05:25Z</time>
      </trkpt>
      <trkpt lat="48.768405" lon="-1.160734">
        <ele>177.367</ele>
        <time>2026-08-24T13:05:26Z</time>
      </trkpt>
      <trkpt lat="48.768415" lon="-1.160721">
        <ele>177.324</ele>
        <time>2026-08-24T13:05:27Z</time>
      </trkpt>
      <trkpt lat="48.768427" lon="-1.160709">
        <ele>177.482</ele>
        <time>2026-08-24T13:05:28Z</time>
      </trkpt>
      <trkpt lat="48.768438" lon="-1.160697">
        <ele>177.770</ele>
        <time>2026-08-24T13:05:29Z</time>
      </trkpt>
      <trkpt lat="48.768450" lon="-1.160689">
        <ele>177.834</ele>
        <time>2026-08-24T13:05:30Z</time>
      </trkpt>
      <trkpt lat="48.768462" lon="-1.160686">
        <ele>177.841</ele>
        <time>2026-08-24T13:05:31Z</time>
      </trkpt>
      <trkpt lat="48.768472" lon="-1.160680">
        <ele>177.933</ele>
        <time>2026-08-24T13:05:32Z</time>
      </trkpt>
      <trkpt lat="48.768489" lon="-1.160668">
        <ele>178.081</ele>
        <time>2026-08-24T13:05:34Z</time>
      </trkpt>
      <trkpt lat="48.768503" lon="-1.160656">
        <ele>178.161</ele>
        <time>2026-08-24T13:05:35Z</time>
      </trkpt>
      <trkpt lat="48.768520" lon="-1.160648">
        <ele>178.317</ele>
        <time>2026-08-24T13:05:36Z</time>
      </trkpt>
      <trkpt lat="48.768532" lon="-1.160642">
        <ele>178.409</ele>
        <time>2026-08-24T13:05:37Z</time>
      </trkpt>
      <trkpt lat="48.768545" lon="-1.160639">
        <ele>178.710</ele>
        <time>2026-08-24T13:05:38Z</time>
      </trkpt>
      <trkpt lat="48.768556" lon="-1.160635">
        <ele>179.036</ele>
        <time>2026-08-24T13:05:39Z</time>
      </trkpt>
      <trkpt lat="48.768568" lon="-1.160629">
        <ele>179.189</ele>
        <time>2026-08-24T13:05:40Z</time>
      </trkpt>
      <trkpt lat="48.768580" lon="-1.160622">
        <ele>179.416</ele>
        <time>2026-08-24T13:05:41Z</time>
      </trkpt>
      <trkpt lat="48.768589" lon="-1.160615">
        <ele>179.864</ele>
        <time>2026-08-24T13:05:42Z</time>
      </trkpt>
      <trkpt lat="48.768601" lon="-1.160608">
        <ele>180.072</ele>
        <time>2026-08-24T13:05:43Z</time>
      </trkpt>
      <trkpt lat="48.768609" lon="-1.160596">
        <ele>180.046</ele>
        <time>2026-08-24T13:05:44Z</time>
      </trkpt>
      <trkpt lat="48.768619" lon="-1.160582">
        <ele>180.173</ele>
        <time>2026-08-24T13:05:45Z</time>
      </trkpt>
      <trkpt lat="48.768630" lon="-1.160572">
        <ele>180.255</ele>
        <time>2026-08-24T13:05:46Z</time>
      </trkpt>
      <trkpt lat="48.768640" lon="-1.160561">
        <ele>180.373</ele>
        <time>2026-08-24T13:05:47Z</time>
      </trkpt>
      <trkpt lat="48.768651" lon="-1.160547">
        <ele>180.485</ele>
        <time>2026-08-24T13:05:48Z</time>
      </trkpt>
      <trkpt lat="48.768664" lon="-1.160540">
        <ele>180.413</ele>
        <time>2026-08-24T13:05:49Z</time>
      </trkpt>
      <trkpt lat="48.768673" lon="-1.160533">
        <ele>180.609</ele>
        <time>2026-08-24T13:05:50Z</time>
      </trkpt>
      <trkpt lat="48.768682" lon="-1.160528">
        <ele>180.779</ele>
        <time>2026-08-24T13:05:51Z</time>
      </trkpt>
      <trkpt lat="48.768692" lon="-1.160522">
        <ele>180.885</ele>
        <time>2026-08-24T13:05:52Z</time>
      </trkpt>
      <trkpt lat="48.768702" lon="-1.160513">
        <ele>180.938</ele>
        <time>2026-08-24T13:05:53Z</time>
      </trkpt>
      <trkpt lat="48.768716" lon="-1.160506">
        <ele>180.995</ele>
        <time>2026-08-24T13:05:54Z</time>
      </trkpt>
      <trkpt lat="48.768729" lon="-1.160495">
        <ele>180.953</ele>
        <time>2026-08-24T13:05:55Z</time>
      </trkpt>
      <trkpt lat="48.768744" lon="-1.160489">
        <ele>180.991</ele>
        <time>2026-08-24T13:05:56Z</time>
      </trkpt>
      <trkpt lat="48.768755" lon="-1.160480">
        <ele>181.015</ele>
        <time>2026-08-24T13:05:57Z</time>
      </trkpt>
      <trkpt lat="48.768766" lon="-1.160474">
        <ele>181.022</ele>
        <time>2026-08-24T13:05:58Z</time>
      </trkpt>
      <trkpt lat="48.768773" lon="-1.160458">
        <ele>181.074</ele>
        <time>2026-08-24T13:05:59Z</time>
      </trkpt>
      <trkpt lat="48.768781" lon="-1.160446">
        <ele>181.161</ele>
        <time>2026-08-24T13:06:00Z</time>
      </trkpt>
      <trkpt lat="48.768788" lon="-1.160435">
        <ele>181.121</ele>
        <time>2026-08-24T13:06:01Z</time>
      </trkpt>
      <trkpt lat="48.768798" lon="-1.160427">
        <ele>181.213</ele>
        <time>2026-08-24T13:06:02Z</time>
      </trkpt>
      <trkpt lat="48.768809" lon="-1.160419">
        <ele>181.209</ele>
        <time>2026-08-24T13:06:03Z</time>
      </trkpt>
      <trkpt lat="48.768823" lon="-1.160412">
        <ele>181.388</ele>
        <time>2026-08-24T13:06:04Z</time>
      </trkpt>
      <trkpt lat="48.768835" lon="-1.160401">
        <ele>181.364</ele>
        <time>2026-08-24T13:06:05Z</time>
      </trkpt>
      <trkpt lat="48.768848" lon="-1.160389">
        <ele>181.477</ele>
        <time>2026-08-24T13:06:06Z</time>
      </trkpt>
      <trkpt lat="48.768859" lon="-1.160380">
        <ele>181.524</ele>
        <time>2026-08-24T13:06:07Z</time>
      </trkpt>
      <trkpt lat="48.768869" lon="-1.160374">
        <ele>181.662</ele>
        <time>2026-08-24T13:06:08Z</time>
      </trkpt>
      <trkpt lat="48.768879" lon="-1.160367">
        <ele>181.780</ele>
        <time>2026-08-24T13:06:09Z</time>
      </trkpt>
      <trkpt lat="48.768890" lon="-1.160362">
        <ele>181.864</ele>
        <time>2026-08-24T13:06:10Z</time>
      </trkpt>
      <trkpt lat="48.768902" lon="-1.160353">
        <ele>181.971</ele>
        <time>2026-08-24T13:06:11Z</time>
      </trkpt>
      <trkpt lat="48.768914" lon="-1.160345">
        <ele>182.053</ele>
        <time>2026-08-24T13:06:12Z</time>
      </trkpt>
      <trkpt lat="48.768925" lon="-1.160338">
        <ele>182.137</ele>
        <time>2026-08-24T13:06:13Z</time>
      </trkpt>
      <trkpt lat="48.768932" lon="-1.160329">
        <ele>182.149</ele>
        <time>2026-08-24T13:06:14Z</time>
      </trkpt>
      <trkpt lat="48.768946" lon="-1.160320">
        <ele>182.213</ele>
        <time>2026-08-24T13:06:15Z</time>
      </trkpt>
      <trkpt lat="48.768956" lon="-1.160314">
        <ele>182.209</ele>
        <time>2026-08-24T13:06:16Z</time>
      </trkpt>
      <trkpt lat="48.768971" lon="-1.160306">
        <ele>182.345</ele>
        <time>2026-08-24T13:06:17Z</time>
      </trkpt>
      <trkpt lat="48.768986" lon="-1.160296">
        <ele>182.581</ele>
        <time>2026-08-24T13:06:18Z</time>
      </trkpt>
      <trkpt lat="48.769001" lon="-1.160289">
        <ele>182.794</ele>
        <time>2026-08-24T13:06:19Z</time>
      </trkpt>
      <trkpt lat="48.769012" lon="-1.160280">
        <ele>182.751</ele>
        <time>2026-08-24T13:06:20Z</time>
      </trkpt>
      <trkpt lat="48.769022" lon="-1.160276">
        <ele>182.789</ele>
        <time>2026-08-24T13:06:21Z</time>
      </trkpt>
      <trkpt lat="48.769033" lon="-1.160266">
        <ele>182.887</ele>
        <time>2026-08-24T13:06:22Z</time>
      </trkpt>
      <trkpt lat="48.769046" lon="-1.160258">
        <ele>182.981</ele>
        <time>2026-08-24T13:06:23Z</time>
      </trkpt>
      <trkpt lat="48.769060" lon="-1.160247">
        <ele>182.958</ele>
        <time>2026-08-24T13:06:24Z</time>
      </trkpt>
      <trkpt lat="48.769072" lon="-1.160234">
        <ele>182.950</ele>
        <time>2026-08-24T13:06:25Z</time>
      </trkpt>
      <trkpt lat="48.769082" lon="-1.160225">
        <ele>183.051</ele>
        <time>2026-08-24T13:06:26Z</time>
      </trkpt>
      <trkpt lat="48.769088" lon="-1.160212">
        <ele>183.001</ele>
        <time>2026-08-24T13:06:27Z</time>
      </trkpt>
      <trkpt lat="48.769099" lon="-1.160205">
        <ele>183.011</ele>
        <time>2026-08-24T13:06:28Z</time>
      </trkpt>
      <trkpt lat="48.769116" lon="-1.160200">
        <ele>183.009</ele>
        <time>2026-08-24T13:06:29Z</time>
      </trkpt>
      <trkpt lat="48.769130" lon="-1.160193">
        <ele>183.197</ele>
        <time>2026-08-24T13:06:30Z</time>
      </trkpt>
      <trkpt lat="48.769145" lon="-1.160186">
        <ele>183.383</ele>
        <time>2026-08-24T13:06:31Z</time>
      </trkpt>
      <trkpt lat="48.769160" lon="-1.160181">
        <ele>183.696</ele>
        <time>2026-08-24T13:06:32Z</time>
      </trkpt>
      <trkpt lat="48.769173" lon="-1.160174">
        <ele>183.863</ele>
        <time>2026-08-24T13:06:33Z</time>
      </trkpt>
      <trkpt lat="48.769184" lon="-1.160167">
        <ele>183.881</ele>
        <time>2026-08-24T13:06:34Z</time>
      </trkpt>
      <trkpt lat="48.769196" lon="-1.160159">
        <ele>183.929</ele>
        <time>2026-08-24T13:06:35Z</time>
      </trkpt>
      <trkpt lat="48.769209" lon="-1.160152">
        <ele>184.023</ele>
        <time>2026-08-24T13:06:36Z</time>
      </trkpt>
      <trkpt lat="48.769224" lon="-1.160145">
        <ele>184.220</ele>
        <time>2026-08-24T13:06:37Z</time>
      </trkpt>
      <trkpt lat="48.769238" lon="-1.160141">
        <ele>184.382</ele>
        <time>2026-08-24T13:06:38Z</time>
      </trkpt>
      <trkpt lat="48.769248" lon="-1.160135">
        <ele>184.395</ele>
        <time>2026-08-24T13:06:39Z</time>
      </trkpt>
      <trkpt lat="48.769255" lon="-1.160125">
        <ele>184.449</ele>
        <time>2026-08-24T13:06:40Z</time>
      </trkpt>
      <trkpt lat="48.769263" lon="-1.160116">
        <ele>184.523</ele>
        <time>2026-08-24T13:06:41Z</time>
      </trkpt>
      <trkpt lat="48.769278" lon="-1.160101">
        <ele>184.509</ele>
        <time>2026-08-24T13:06:43Z</time>
      </trkpt>
      <trkpt lat="48.769288" lon="-1.160095">
        <ele>184.571</ele>
        <time>2026-08-24T13:06:44Z</time>
      </trkpt>
      <trkpt lat="48.769300" lon="-1.160087">
        <ele>184.627</ele>
        <time>2026-08-24T13:06:45Z</time>
      </trkpt>
      <trkpt lat="48.769314" lon="-1.160079">
        <ele>184.850</ele>
        <time>2026-08-24T13:06:46Z</time>
      </trkpt>
      <trkpt lat="48.769324" lon="-1.160077">
        <ele>184.857</ele>
        <time>2026-08-24T13:06:47Z</time>
      </trkpt>
      <trkpt lat="48.769334" lon="-1.160074">
        <ele>184.955</ele>
        <time>2026-08-24T13:06:48Z</time>
      </trkpt>
      <trkpt lat="48.769345" lon="-1.160062">
        <ele>185.043</ele>
        <time>2026-08-24T13:06:49Z</time>
      </trkpt>
      <trkpt lat="48.769358" lon="-1.160055">
        <ele>185.037</ele>
        <time>2026-08-24T13:06:50Z</time>
      </trkpt>
      <trkpt lat="48.769369" lon="-1.160046">
        <ele>185.144</ele>
        <time>2026-08-24T13:06:51Z</time>
      </trkpt>
      <trkpt lat="48.769381" lon="-1.160041">
        <ele>185.186</ele>
        <time>2026-08-24T13:06:52Z</time>
      </trkpt>
      <trkpt lat="48.769393" lon="-1.160035">
        <ele>185.267</ele>
        <time>2026-08-24T13:06:53Z</time>
      </trkpt>
      <trkpt lat="48.769404" lon="-1.160031">
        <ele>185.381</ele>
        <time>2026-08-24T13:06:54Z</time>
      </trkpt>
      <trkpt lat="48.769416" lon="-1.160019">
        <ele>185.419</ele>
        <time>2026-08-24T13:06:55Z</time>
      </trkpt>
      <trkpt lat="48.769430" lon="-1.160012">
        <ele>185.409</ele>
        <time>2026-08-24T13:06:56Z</time>
      </trkpt>
      <trkpt lat="48.769443" lon="-1.160002">
        <ele>185.548</ele>
        <time>2026-08-24T13:06:57Z</time>
      </trkpt>
      <trkpt lat="48.769452" lon="-1.159995">
        <ele>185.554</ele>
        <time>2026-08-24T13:06:58Z</time>
      </trkpt>
      <trkpt lat="48.769464" lon="-1.159989">
        <ele>185.637</ele>
        <time>2026-08-24T13:06:59Z</time>
      </trkpt>
      <trkpt lat="48.769479" lon="-1.159983">
        <ele>185.614</ele>
        <time>2026-08-24T13:07:00Z</time>
      </trkpt>
      <trkpt lat="48.769492" lon="-1.159982">
        <ele>185.622</ele>
        <time>2026-08-24T13:07:01Z</time>
      </trkpt>
      <trkpt lat="48.769505" lon="-1.159972">
        <ele>185.640</ele>
        <time>2026-08-24T13:07:02Z</time>
      </trkpt>
      <trkpt lat="48.769516" lon="-1.159962">
        <ele>185.684</ele>
        <time>2026-08-24T13:07:03Z</time>
      </trkpt>
      <trkpt lat="48.769526" lon="-1.159956">
        <ele>185.691</ele>
        <time>2026-08-24T13:07:04Z</time>
      </trkpt>
      <trkpt lat="48.769537" lon="-1.159950">
        <ele>185.773</ele>
        <time>2026-08-24T13:07:05Z</time>
      </trkpt>
      <trkpt lat="48.769548" lon="-1.159946">
        <ele>185.756</ele>
        <time>2026-08-24T13:07:06Z</time>
      </trkpt>
      <trkpt lat="48.769558" lon="-1.159939">
        <ele>185.759</ele>
        <time>2026-08-24T13:07:07Z</time>
      </trkpt>
      <trkpt lat="48.769569" lon="-1.159929">
        <ele>185.714</ele>
        <time>2026-08-24T13:07:08Z</time>
      </trkpt>
      <trkpt lat="48.769584" lon="-1.159920">
        <ele>185.709</ele>
        <time>2026-08-24T13:07:09Z</time>
      </trkpt>
      <trkpt lat="48.769594" lon="-1.159912">
        <ele>185.767</ele>
        <time>2026-08-24T13:07:10Z</time>
      </trkpt>
      <trkpt lat="48.769610" lon="-1.159910">
        <ele>185.733</ele>
        <time>2026-08-24T13:07:11Z</time>
      </trkpt>
      <trkpt lat="48.769619" lon="-1.159906">
        <ele>185.826</ele>
        <time>2026-08-24T13:07:12Z</time>
      </trkpt>
      <trkpt lat="48.769637" lon="-1.159894">
        <ele>186.033</ele>
        <time>2026-08-24T13:07:14Z</time>
      </trkpt>
      <trkpt lat="48.769651" lon="-1.159892">
        <ele>186.241</ele>
        <time>2026-08-24T13:07:15Z</time>
      </trkpt>
      <trkpt lat="48.769660" lon="-1.159880">
        <ele>186.299</ele>
        <time>2026-08-24T13:07:16Z</time>
      </trkpt>
      <trkpt lat="48.769670" lon="-1.159872">
        <ele>186.243</ele>
        <time>2026-08-24T13:07:17Z</time>
      </trkpt>
      <trkpt lat="48.769684" lon="-1.159863">
        <ele>186.260</ele>
        <time>2026-08-24T13:07:18Z</time>
      </trkpt>
      <trkpt lat="48.769695" lon="-1.159857">
        <ele>186.342</ele>
        <time>2026-08-24T13:07:19Z</time>
      </trkpt>
      <trkpt lat="48.769704" lon="-1.159852">
        <ele>186.364</ele>
        <time>2026-08-24T13:07:20Z</time>
      </trkpt>
      <trkpt lat="48.769720" lon="-1.159846">
        <ele>186.306</ele>
        <time>2026-08-24T13:07:21Z</time>
      </trkpt>
      <trkpt lat="48.769734" lon="-1.159840">
        <ele>186.416</ele>
        <time>2026-08-24T13:07:22Z</time>
      </trkpt>
      <trkpt lat="48.769747" lon="-1.159840">
        <ele>186.409</ele>
        <time>2026-08-24T13:07:23Z</time>
      </trkpt>
      <trkpt lat="48.769757" lon="-1.159844">
        <ele>186.438</ele>
        <time>2026-08-24T13:07:24Z</time>
      </trkpt>
      <trkpt lat="48.769769" lon="-1.159850">
        <ele>186.424</ele>
        <time>2026-08-24T13:07:25Z</time>
      </trkpt>
      <trkpt lat="48.769774" lon="-1.159869">
        <ele>186.467</ele>
        <time>2026-08-24T13:07:26Z</time>
      </trkpt>
      <trkpt lat="48.769782" lon="-1.159887">
        <ele>186.554</ele>
        <time>2026-08-24T13:07:27Z</time>
      </trkpt>
      <trkpt lat="48.769793" lon="-1.159904">
        <ele>186.592</ele>
        <time>2026-08-24T13:07:28Z</time>
      </trkpt>
      <trkpt lat="48.769805" lon="-1.159917">
        <ele>186.570</ele>
        <time>2026-08-24T13:07:29Z</time>
      </trkpt>
      <trkpt lat="48.769816" lon="-1.159934">
        <ele>186.694</ele>
        <time>2026-08-24T13:07:30Z</time>
      </trkpt>
      <trkpt lat="48.769823" lon="-1.159947">
        <ele>186.671</ele>
        <time>2026-08-24T13:07:31Z</time>
      </trkpt>
      <trkpt lat="48.769826" lon="-1.159976">
        <ele>186.653</ele>
        <time>2026-08-24T13:07:33Z</time>
      </trkpt>
      <trkpt lat="48.769828" lon="-1.159999">
        <ele>186.761</ele>
        <time>2026-08-24T13:07:34Z</time>
      </trkpt>
      <trkpt lat="48.769832" lon="-1.160018">
        <ele>186.721</ele>
        <time>2026-08-24T13:07:35Z</time>
      </trkpt>
      <trkpt lat="48.769836" lon="-1.160033">
        <ele>186.813</ele>
        <time>2026-08-24T13:07:36Z</time>
      </trkpt>
      <trkpt lat="48.769833" lon="-1.160052">
        <ele>186.809</ele>
        <time>2026-08-24T13:07:37Z</time>
      </trkpt>
      <trkpt lat="48.769828" lon="-1.160076">
        <ele>186.848</ele>
        <time>2026-08-24T13:07:39Z</time>
      </trkpt>
      <trkpt lat="48.769829" lon="-1.160097">
        <ele>186.984</ele>
        <time>2026-08-24T13:07:41Z</time>
      </trkpt>
      <trkpt lat="48.769834" lon="-1.160109">
        <ele>186.937</ele>
        <time>2026-08-24T13:07:43Z</time>
      </trkpt>
      <trkpt lat="48.769841" lon="-1.160134">
        <ele>187.034</ele>
        <time>2026-08-24T13:07:45Z</time>
      </trkpt>
      <trkpt lat="48.769844" lon="-1.160149">
        <ele>187.192</ele>
        <time>2026-08-24T13:07:46Z</time>
      </trkpt>
      <trkpt lat="48.769844" lon="-1.160168">
        <ele>187.130</ele>
        <time>2026-08-24T13:07:47Z</time>
      </trkpt>
      <trkpt lat="48.769844" lon="-1.160186">
        <ele>187.124</ele>
        <time>2026-08-24T13:07:48Z</time>
      </trkpt>
      <trkpt lat="48.769843" lon="-1.160204">
        <ele>187.131</ele>
        <time>2026-08-24T13:07:49Z</time>
      </trkpt>
      <trkpt lat="48.769839" lon="-1.160219">
        <ele>187.123</ele>
        <time>2026-08-24T13:07:50Z</time>
      </trkpt>
      <trkpt lat="48.769841" lon="-1.160248">
        <ele>187.158</ele>
        <time>2026-08-24T13:07:52Z</time>
      </trkpt>
      <trkpt lat="48.769843" lon="-1.160268">
        <ele>187.152</ele>
        <time>2026-08-24T13:07:53Z</time>
      </trkpt>
      <trkpt lat="48.769846" lon="-1.160285">
        <ele>187.017</ele>
        <time>2026-08-24T13:07:54Z</time>
      </trkpt>
      <trkpt lat="48.769848" lon="-1.160301">
        <ele>187.009</ele>
        <time>2026-08-24T13:07:55Z</time>
      </trkpt>
      <trkpt lat="48.769847" lon="-1.160319">
        <ele>186.917</ele>
        <time>2026-08-24T13:07:56Z</time>
      </trkpt>
      <trkpt lat="48.769846" lon="-1.160339">
        <ele>186.983</ele>
        <time>2026-08-24T13:07:57Z</time>
      </trkpt>
      <trkpt lat="48.769844" lon="-1.160360">
        <ele>186.896</ele>
        <time>2026-08-24T13:07:58Z</time>
      </trkpt>
      <trkpt lat="48.769845" lon="-1.160381">
        <ele>186.873</ele>
        <time>2026-08-24T13:07:59Z</time>
      </trkpt>
      <trkpt lat="48.769844" lon="-1.160400">
        <ele>186.711</ele>
        <time>2026-08-24T13:08:00Z</time>
      </trkpt>
      <trkpt lat="48.769843" lon="-1.160418">
        <ele>186.739</ele>
        <time>2026-08-24T13:08:01Z</time>
      </trkpt>
      <trkpt lat="48.769841" lon="-1.160431">
        <ele>186.753</ele>
        <time>2026-08-24T13:08:02Z</time>
      </trkpt>
      <trkpt lat="48.769834" lon="-1.160457">
        <ele>186.770</ele>
        <time>2026-08-24T13:08:04Z</time>
      </trkpt>
      <trkpt lat="48.769833" lon="-1.160494">
        <ele>186.762</ele>
        <time>2026-08-24T13:08:06Z</time>
      </trkpt>
      <trkpt lat="48.769831" lon="-1.160514">
        <ele>186.739</ele>
        <time>2026-08-24T13:08:07Z</time>
      </trkpt>
      <trkpt lat="48.769827" lon="-1.160532">
        <ele>186.301</ele>
        <time>2026-08-24T13:08:08Z</time>
      </trkpt>
      <trkpt lat="48.769822" lon="-1.160549">
        <ele>185.821</ele>
        <time>2026-08-24T13:08:09Z</time>
      </trkpt>
      <trkpt lat="48.769817" lon="-1.160564">
        <ele>185.609</ele>
        <time>2026-08-24T13:08:10Z</time>
      </trkpt>
      <trkpt lat="48.769815" lon="-1.160583">
        <ele>185.515</ele>
        <time>2026-08-24T13:08:11Z</time>
      </trkpt>
      <trkpt lat="48.769812" lon="-1.160601">
        <ele>185.551</ele>
        <time>2026-08-24T13:08:12Z</time>
      </trkpt>
      <trkpt lat="48.769810" lon="-1.160620">
        <ele>185.414</ele>
        <time>2026-08-24T13:08:13Z</time>
      </trkpt>
      <trkpt lat="48.769810" lon="-1.160639">
        <ele>185.431</ele>
        <time>2026-08-24T13:08:14Z</time>
      </trkpt>
      <trkpt lat="48.769808" lon="-1.160656">
        <ele>185.489</ele>
        <time>2026-08-24T13:08:15Z</time>
      </trkpt>
      <trkpt lat="48.769805" lon="-1.160670">
        <ele>185.497</ele>
        <time>2026-08-24T13:08:16Z</time>
      </trkpt>
      <trkpt lat="48.769802" lon="-1.160686">
        <ele>185.381</ele>
        <time>2026-08-24T13:08:17Z</time>
      </trkpt>
      <trkpt lat="48.769798" lon="-1.160698">
        <ele>185.378</ele>
        <time>2026-08-24T13:08:18Z</time>
      </trkpt>
      <trkpt lat="48.769791" lon="-1.160715">
        <ele>185.270</ele>
        <time>2026-08-24T13:08:19Z</time>
      </trkpt>
      <trkpt lat="48.769787" lon="-1.160732">
        <ele>185.246</ele>
        <time>2026-08-24T13:08:20Z</time>
      </trkpt>
      <trkpt lat="48.769782" lon="-1.160749">
        <ele>185.188</ele>
        <time>2026-08-24T13:08:21Z</time>
      </trkpt>
      <trkpt lat="48.769778" lon="-1.160766">
        <ele>185.116</ele>
        <time>2026-08-24T13:08:22Z</time>
      </trkpt>
      <trkpt lat="48.769772" lon="-1.160783">
        <ele>185.009</ele>
        <time>2026-08-24T13:08:23Z</time>
      </trkpt>
      <trkpt lat="48.769766" lon="-1.160795">
        <ele>184.956</ele>
        <time>2026-08-24T13:08:24Z</time>
      </trkpt>
      <trkpt lat="48.769761" lon="-1.160812">
        <ele>184.872</ele>
        <time>2026-08-24T13:08:25Z</time>
      </trkpt>
      <trkpt lat="48.769758" lon="-1.160828">
        <ele>184.865</ele>
        <time>2026-08-24T13:08:26Z</time>
      </trkpt>
      <trkpt lat="48.769756" lon="-1.160843">
        <ele>184.782</ele>
        <time>2026-08-24T13:08:27Z</time>
      </trkpt>
      <trkpt lat="48.769755" lon="-1.160860">
        <ele>184.640</ele>
        <time>2026-08-24T13:08:28Z</time>
      </trkpt>
      <trkpt lat="48.769752" lon="-1.160881">
        <ele>184.548</ele>
        <time>2026-08-24T13:08:29Z</time>
      </trkpt>
      <trkpt lat="48.769749" lon="-1.160897">
        <ele>184.242</ele>
        <time>2026-08-24T13:08:30Z</time>
      </trkpt>
      <trkpt lat="48.769748" lon="-1.160914">
        <ele>184.189</ele>
        <time>2026-08-24T13:08:31Z</time>
      </trkpt>
      <trkpt lat="48.769745" lon="-1.160933">
        <ele>184.161</ele>
        <time>2026-08-24T13:08:32Z</time>
      </trkpt>
      <trkpt lat="48.769739" lon="-1.160948">
        <ele>184.062</ele>
        <time>2026-08-24T13:08:33Z</time>
      </trkpt>
      <trkpt lat="48.769734" lon="-1.160966">
        <ele>184.083</ele>
        <time>2026-08-24T13:08:34Z</time>
      </trkpt>
      <trkpt lat="48.769731" lon="-1.160988">
        <ele>183.911</ele>
        <time>2026-08-24T13:08:35Z</time>
      </trkpt>
      <trkpt lat="48.769727" lon="-1.161006">
        <ele>183.909</ele>
        <time>2026-08-24T13:08:36Z</time>
      </trkpt>
      <trkpt lat="48.769726" lon="-1.161021">
        <ele>183.828</ele>
        <time>2026-08-24T13:08:37Z</time>
      </trkpt>
      <trkpt lat="48.769729" lon="-1.161049">
        <ele>183.824</ele>
        <time>2026-08-24T13:08:39Z</time>
      </trkpt>
      <trkpt lat="48.769729" lon="-1.161068">
        <ele>183.897</ele>
        <time>2026-08-24T13:08:40Z</time>
      </trkpt>
      <trkpt lat="48.769728" lon="-1.161089">
        <ele>183.884</ele>
        <time>2026-08-24T13:08:41Z</time>
      </trkpt>
      <trkpt lat="48.769729" lon="-1.161103">
        <ele>183.672</ele>
        <time>2026-08-24T13:08:42Z</time>
      </trkpt>
      <trkpt lat="48.769730" lon="-1.161119">
        <ele>183.560</ele>
        <time>2026-08-24T13:08:43Z</time>
      </trkpt>
      <trkpt lat="48.769732" lon="-1.161138">
        <ele>183.544</ele>
        <time>2026-08-24T13:08:44Z</time>
      </trkpt>
      <trkpt lat="48.769733" lon="-1.161152">
        <ele>183.461</ele>
        <time>2026-08-24T13:08:45Z</time>
      </trkpt>
      <trkpt lat="48.769735" lon="-1.161167">
        <ele>183.453</ele>
        <time>2026-08-24T13:08:46Z</time>
      </trkpt>
      <trkpt lat="48.769742" lon="-1.161185">
        <ele>183.382</ele>
        <time>2026-08-24T13:08:47Z</time>
      </trkpt>
      <trkpt lat="48.769750" lon="-1.161204">
        <ele>183.143</ele>
        <time>2026-08-24T13:08:48Z</time>
      </trkpt>
      <trkpt lat="48.769753" lon="-1.161228">
        <ele>182.917</ele>
        <time>2026-08-24T13:08:50Z</time>
      </trkpt>
      <trkpt lat="48.769759" lon="-1.161244">
        <ele>182.809</ele>
        <time>2026-08-24T13:08:51Z</time>
      </trkpt>
      <trkpt lat="48.769762" lon="-1.161261">
        <ele>182.880</ele>
        <time>2026-08-24T13:08:52Z</time>
      </trkpt>
      <trkpt lat="48.769765" lon="-1.161280">
        <ele>182.816</ele>
        <time>2026-08-24T13:08:53Z</time>
      </trkpt>
      <trkpt lat="48.769770" lon="-1.161302">
        <ele>182.779</ele>
        <time>2026-08-24T13:08:54Z</time>
      </trkpt>
      <trkpt lat="48.769777" lon="-1.161324">
        <ele>182.676</ele>
        <time>2026-08-24T13:08:55Z</time>
      </trkpt>
      <trkpt lat="48.769782" lon="-1.161341">
        <ele>182.544</ele>
        <time>2026-08-24T13:08:56Z</time>
      </trkpt>
      <trkpt lat="48.769785" lon="-1.161356">
        <ele>182.592</ele>
        <time>2026-08-24T13:08:57Z</time>
      </trkpt>
      <trkpt lat="48.769788" lon="-1.161370">
        <ele>182.446</ele>
        <time>2026-08-24T13:08:58Z</time>
      </trkpt>
      <trkpt lat="48.769790" lon="-1.161385">
        <ele>182.453</ele>
        <time>2026-08-24T13:08:59Z</time>
      </trkpt>
      <trkpt lat="48.769792" lon="-1.161404">
        <ele>182.435</ele>
        <time>2026-08-24T13:09:00Z</time>
      </trkpt>
      <trkpt lat="48.769798" lon="-1.161416">
        <ele>182.441</ele>
        <time>2026-08-24T13:09:01Z</time>
      </trkpt>
      <trkpt lat="48.769804" lon="-1.161431">
        <ele>182.381</ele>
        <time>2026-08-24T13:09:02Z</time>
      </trkpt>
      <trkpt lat="48.769807" lon="-1.161451">
        <ele>182.309</ele>
        <time>2026-08-24T13:09:03Z</time>
      </trkpt>
      <trkpt lat="48.769809" lon="-1.161464">
        <ele>182.209</ele>
        <time>2026-08-24T13:09:04Z</time>
      </trkpt>
      <trkpt lat="48.769814" lon="-1.161480">
        <ele>182.146</ele>
        <time>2026-08-24T13:09:05Z</time>
      </trkpt>
      <trkpt lat="48.769818" lon="-1.161497">
        <ele>182.092</ele>
        <time>2026-08-24T13:09:06Z</time>
      </trkpt>
      <trkpt lat="48.769826" lon="-1.161519">
        <ele>181.955</ele>
        <time>2026-08-24T13:09:07Z</time>
      </trkpt>
      <trkpt lat="48.769834" lon="-1.161539">
        <ele>181.872</ele>
        <time>2026-08-24T13:09:08Z</time>
      </trkpt>
      <trkpt lat="48.769843" lon="-1.161562">
        <ele>181.780</ele>
        <time>2026-08-24T13:09:10Z</time>
      </trkpt>
      <trkpt lat="48.769849" lon="-1.161584">
        <ele>181.738</ele>
        <time>2026-08-24T13:09:12Z</time>
      </trkpt>
      <trkpt lat="48.769852" lon="-1.161598">
        <ele>181.682</ele>
        <time>2026-08-24T13:09:13Z</time>
      </trkpt>
      <trkpt lat="48.769856" lon="-1.161617">
        <ele>181.569</ele>
        <time>2026-08-24T13:09:14Z</time>
      </trkpt>
      <trkpt lat="48.769860" lon="-1.161636">
        <ele>181.531</ele>
        <time>2026-08-24T13:09:15Z</time>
      </trkpt>
      <trkpt lat="48.769866" lon="-1.161649">
        <ele>181.594</ele>
        <time>2026-08-24T13:09:16Z</time>
      </trkpt>
      <trkpt lat="48.769870" lon="-1.161674">
        <ele>181.457</ele>
        <time>2026-08-24T13:09:18Z</time>
      </trkpt>
      <trkpt lat="48.769876" lon="-1.161689">
        <ele>181.422</ele>
        <time>2026-08-24T13:09:19Z</time>
      </trkpt>
      <trkpt lat="48.769881" lon="-1.161705">
        <ele>181.309</ele>
        <time>2026-08-24T13:09:20Z</time>
      </trkpt>
      <trkpt lat="48.769887" lon="-1.161723">
        <ele>181.221</ele>
        <time>2026-08-24T13:09:21Z</time>
      </trkpt>
      <trkpt lat="48.769896" lon="-1.161744">
        <ele>181.147</ele>
        <time>2026-08-24T13:09:22Z</time>
      </trkpt>
      <trkpt lat="48.769902" lon="-1.161765">
        <ele>181.090</ele>
        <time>2026-08-24T13:09:23Z</time>
      </trkpt>
      <trkpt lat="48.769909" lon="-1.161778">
        <ele>181.057</ele>
        <time>2026-08-24T13:09:24Z</time>
      </trkpt>
      <trkpt lat="48.769914" lon="-1.161792">
        <ele>180.945</ele>
        <time>2026-08-24T13:09:25Z</time>
      </trkpt>
      <trkpt lat="48.769916" lon="-1.161806">
        <ele>180.923</ele>
        <time>2026-08-24T13:09:26Z</time>
      </trkpt>
      <trkpt lat="48.769920" lon="-1.161821">
        <ele>180.477</ele>
        <time>2026-08-24T13:09:27Z</time>
      </trkpt>
      <trkpt lat="48.769925" lon="-1.161837">
        <ele>180.054</ele>
        <time>2026-08-24T13:09:28Z</time>
      </trkpt>
      <trkpt lat="48.769933" lon="-1.161858">
        <ele>179.986</ele>
        <time>2026-08-24T13:09:29Z</time>
      </trkpt>
      <trkpt lat="48.769939" lon="-1.161874">
        <ele>179.827</ele>
        <time>2026-08-24T13:09:30Z</time>
      </trkpt>
      <trkpt lat="48.769950" lon="-1.161893">
        <ele>179.768</ele>
        <time>2026-08-24T13:09:32Z</time>
      </trkpt>
      <trkpt lat="48.769958" lon="-1.161917">
        <ele>179.514</ele>
        <time>2026-08-24T13:09:34Z</time>
      </trkpt>
      <trkpt lat="48.769963" lon="-1.161943">
        <ele>179.209</ele>
        <time>2026-08-24T13:09:35Z</time>
      </trkpt>
      <trkpt lat="48.769966" lon="-1.161966">
        <ele>178.864</ele>
        <time>2026-08-24T13:09:36Z</time>
      </trkpt>
      <trkpt lat="48.769973" lon="-1.161990">
        <ele>178.530</ele>
        <time>2026-08-24T13:09:37Z</time>
      </trkpt>
      <trkpt lat="48.769978" lon="-1.162008">
        <ele>178.463</ele>
        <time>2026-08-24T13:09:38Z</time>
      </trkpt>
      <trkpt lat="48.769984" lon="-1.162020">
        <ele>178.330</ele>
        <time>2026-08-24T13:09:39Z</time>
      </trkpt>
      <trkpt lat="48.769989" lon="-1.162036">
        <ele>178.338</ele>
        <time>2026-08-24T13:09:40Z</time>
      </trkpt>
      <trkpt lat="48.769993" lon="-1.162053">
        <ele>178.346</ele>
        <time>2026-08-24T13:09:41Z</time>
      </trkpt>
      <trkpt lat="48.769999" lon="-1.162069">
        <ele>178.310</ele>
        <time>2026-08-24T13:09:42Z</time>
      </trkpt>
      <trkpt lat="48.770005" lon="-1.162087">
        <ele>178.397</ele>
        <time>2026-08-24T13:09:43Z</time>
      </trkpt>
      <trkpt lat="48.770011" lon="-1.162103">
        <ele>178.239</ele>
        <time>2026-08-24T13:09:44Z</time>
      </trkpt>
      <trkpt lat="48.770011" lon="-1.162122">
        <ele>178.272</ele>
        <time>2026-08-24T13:09:45Z</time>
      </trkpt>
      <trkpt lat="48.770010" lon="-1.162136">
        <ele>178.113</ele>
        <time>2026-08-24T13:09:46Z</time>
      </trkpt>
      <trkpt lat="48.770011" lon="-1.162151">
        <ele>178.114</ele>
        <time>2026-08-24T13:09:47Z</time>
      </trkpt>
      <trkpt lat="48.770011" lon="-1.162171">
        <ele>178.009</ele>
        <time>2026-08-24T13:09:48Z</time>
      </trkpt>
      <trkpt lat="48.770014" lon="-1.162199">
        <ele>178.089</ele>
        <time>2026-08-24T13:09:50Z</time>
      </trkpt>
      <trkpt lat="48.770018" lon="-1.162224">
        <ele>177.915</ele>
        <time>2026-08-24T13:09:51Z</time>
      </trkpt>
      <trkpt lat="48.770024" lon="-1.162250">
        <ele>177.978</ele>
        <time>2026-08-24T13:09:52Z</time>
      </trkpt>
      <trkpt lat="48.770025" lon="-1.162273">
        <ele>177.925</ele>
        <time>2026-08-24T13:09:53Z</time>
      </trkpt>
      <trkpt lat="48.770027" lon="-1.162292">
        <ele>177.913</ele>
        <time>2026-08-24T13:09:54Z</time>
      </trkpt>
      <trkpt lat="48.770030" lon="-1.162307">
        <ele>177.941</ele>
        <time>2026-08-24T13:09:55Z</time>
      </trkpt>
      <trkpt lat="48.770034" lon="-1.162323">
        <ele>177.935</ele>
        <time>2026-08-24T13:09:56Z</time>
      </trkpt>
      <trkpt lat="48.770037" lon="-1.162338">
        <ele>177.972</ele>
        <time>2026-08-24T13:09:57Z</time>
      </trkpt>
      <trkpt lat="48.770042" lon="-1.162355">
        <ele>177.844</ele>
        <time>2026-08-24T13:09:58Z</time>
      </trkpt>
      <trkpt lat="48.770048" lon="-1.162367">
        <ele>177.855</ele>
        <time>2026-08-24T13:09:59Z</time>
      </trkpt>
      <trkpt lat="48.770050" lon="-1.162381">
        <ele>177.707</ele>
        <time>2026-08-24T13:10:00Z</time>
      </trkpt>
      <trkpt lat="48.770062" lon="-1.162406">
        <ele>177.517</ele>
        <time>2026-08-24T13:10:02Z</time>
      </trkpt>
      <trkpt lat="48.770077" lon="-1.162426">
        <ele>177.309</ele>
        <time>2026-08-24T13:10:04Z</time>
      </trkpt>
      <trkpt lat="48.770083" lon="-1.162443">
        <ele>177.267</ele>
        <time>2026-08-24T13:10:05Z</time>
      </trkpt>
      <trkpt lat="48.770085" lon="-1.162460">
        <ele>177.183</ele>
        <time>2026-08-24T13:10:06Z</time>
      </trkpt>
      <trkpt lat="48.770088" lon="-1.162476">
        <ele>177.096</ele>
        <time>2026-08-24T13:10:07Z</time>
      </trkpt>
      <trkpt lat="48.770088" lon="-1.162491">
        <ele>176.933</ele>
        <time>2026-08-24T13:10:08Z</time>
      </trkpt>
      <trkpt lat="48.770088" lon="-1.162508">
        <ele>176.971</ele>
        <time>2026-08-24T13:10:09Z</time>
      </trkpt>
      <trkpt lat="48.770089" lon="-1.162524">
        <ele>176.949</ele>
        <time>2026-08-24T13:10:10Z</time>
      </trkpt>
      <trkpt lat="48.770090" lon="-1.162543">
        <ele>176.853</ele>
        <time>2026-08-24T13:10:11Z</time>
      </trkpt>
      <trkpt lat="48.770096" lon="-1.162558">
        <ele>176.820</ele>
        <time>2026-08-24T13:10:13Z</time>
      </trkpt>
      <trkpt lat="48.770102" lon="-1.162570">
        <ele>176.652</ele>
        <time>2026-08-24T13:10:14Z</time>
      </trkpt>
      <trkpt lat="48.770108" lon="-1.162582">
        <ele>176.565</ele>
        <time>2026-08-24T13:10:15Z</time>
      </trkpt>
      <trkpt lat="48.770109" lon="-1.162599">
        <ele>176.568</ele>
        <time>2026-08-24T13:10:16Z</time>
      </trkpt>
      <trkpt lat="48.770110" lon="-1.162618">
        <ele>176.514</ele>
        <time>2026-08-24T13:10:17Z</time>
      </trkpt>
      <trkpt lat="48.770111" lon="-1.162641">
        <ele>176.309</ele>
        <time>2026-08-24T13:10:18Z</time>
      </trkpt>
      <trkpt lat="48.770113" lon="-1.162665">
        <ele>175.798</ele>
        <time>2026-08-24T13:10:19Z</time>
      </trkpt>
      <trkpt lat="48.770115" lon="-1.162681">
        <ele>174.954</ele>
        <time>2026-08-24T13:10:20Z</time>
      </trkpt>
      <trkpt lat="48.770119" lon="-1.162704">
        <ele>174.467</ele>
        <time>2026-08-24T13:10:22Z</time>
      </trkpt>
      <trkpt lat="48.770123" lon="-1.162731">
        <ele>174.134</ele>
        <time>2026-08-24T13:10:24Z</time>
      </trkpt>
      <trkpt lat="48.770129" lon="-1.162748">
        <ele>173.912</ele>
        <time>2026-08-24T13:10:25Z</time>
      </trkpt>
      <trkpt lat="48.770137" lon="-1.162763">
        <ele>173.770</ele>
        <time>2026-08-24T13:10:26Z</time>
      </trkpt>
      <trkpt lat="48.770145" lon="-1.162776">
        <ele>173.574</ele>
        <time>2026-08-24T13:10:27Z</time>
      </trkpt>
      <trkpt lat="48.770150" lon="-1.162792">
        <ele>173.221</ele>
        <time>2026-08-24T13:10:28Z</time>
      </trkpt>
      <trkpt lat="48.770152" lon="-1.162809">
        <ele>173.063</ele>
        <time>2026-08-24T13:10:29Z</time>
      </trkpt>
      <trkpt lat="48.770155" lon="-1.162826">
        <ele>172.926</ele>
        <time>2026-08-24T13:10:30Z</time>
      </trkpt>
      <trkpt lat="48.770164" lon="-1.162845">
        <ele>172.847</ele>
        <time>2026-08-24T13:10:31Z</time>
      </trkpt>
      <trkpt lat="48.770172" lon="-1.162866">
        <ele>172.811</ele>
        <time>2026-08-24T13:10:32Z</time>
      </trkpt>
      <trkpt lat="48.770179" lon="-1.162884">
        <ele>172.609</ele>
        <time>2026-08-24T13:10:33Z</time>
      </trkpt>
      <trkpt lat="48.770191" lon="-1.162900">
        <ele>172.594</ele>
        <time>2026-08-24T13:10:35Z</time>
      </trkpt>
      <trkpt lat="48.770201" lon="-1.162905">
        <ele>172.330</ele>
        <time>2026-08-24T13:10:36Z</time>
      </trkpt>
      <trkpt lat="48.770214" lon="-1.162907">
        <ele>172.063</ele>
        <time>2026-08-24T13:10:37Z</time>
      </trkpt>
      <trkpt lat="48.770227" lon="-1.162902">
        <ele>171.780</ele>
        <time>2026-08-24T13:10:38Z</time>
      </trkpt>
      <trkpt lat="48.770240" lon="-1.162900">
        <ele>171.418</ele>
        <time>2026-08-24T13:10:39Z</time>
      </trkpt>
      <trkpt lat="48.770255" lon="-1.162888">
        <ele>171.256</ele>
        <time>2026-08-24T13:10:40Z</time>
      </trkpt>
      <trkpt lat="48.770266" lon="-1.162886">
        <ele>171.190</ele>
        <time>2026-08-24T13:10:41Z</time>
      </trkpt>
      <trkpt lat="48.770277" lon="-1.162880">
        <ele>171.147</ele>
        <time>2026-08-24T13:10:43Z</time>
      </trkpt>
      <trkpt lat="48.770269" lon="-1.162871">
        <ele>171.079</ele>
        <time>2026-08-24T13:10:47Z</time>
      </trkpt>
      <trkpt lat="48.770275" lon="-1.162857">
        <ele>171.058</ele>
        <time>2026-08-24T13:10:56Z</time>
      </trkpt>
      <trkpt lat="48.770285" lon="-1.162845">
        <ele>171.052</ele>
        <time>2026-08-24T13:10:57Z</time>
      </trkpt>
      <trkpt lat="48.770303" lon="-1.162842">
        <ele>171.017</ele>
        <time>2026-08-24T13:10:58Z</time>
      </trkpt>
      <trkpt lat="48.770314" lon="-1.162838">
        <ele>171.009</ele>
        <time>2026-08-24T13:10:59Z</time>
      </trkpt>
      <trkpt lat="48.770325" lon="-1.162831">
        <ele>170.987</ele>
        <time>2026-08-24T13:11:00Z</time>
      </trkpt>
      <trkpt lat="48.770336" lon="-1.162826">
        <ele>170.913</ele>
        <time>2026-08-24T13:11:01Z</time>
      </trkpt>
      <trkpt lat="48.770349" lon="-1.162827">
        <ele>170.856</ele>
        <time>2026-08-24T13:11:02Z</time>
      </trkpt>
      <trkpt lat="48.770361" lon="-1.162823">
        <ele>170.833</ele>
        <time>2026-08-24T13:11:03Z</time>
      </trkpt>
      <trkpt lat="48.770377" lon="-1.162811">
        <ele>170.731</ele>
        <time>2026-08-24T13:11:05Z</time>
      </trkpt>
      <trkpt lat="48.770385" lon="-1.162802">
        <ele>170.729</ele>
        <time>2026-08-24T13:11:06Z</time>
      </trkpt>
      <trkpt lat="48.770394" lon="-1.162797">
        <ele>170.773</ele>
        <time>2026-08-24T13:11:07Z</time>
      </trkpt>
      <trkpt lat="48.770411" lon="-1.162780">
        <ele>170.610</ele>
        <time>2026-08-24T13:11:09Z</time>
      </trkpt>
      <trkpt lat="48.770420" lon="-1.162774">
        <ele>170.452</ele>
        <time>2026-08-24T13:11:10Z</time>
      </trkpt>
      <trkpt lat="48.770431" lon="-1.162764">
        <ele>170.285</ele>
        <time>2026-08-24T13:11:11Z</time>
      </trkpt>
      <trkpt lat="48.770446" lon="-1.162759">
        <ele>170.189</ele>
        <time>2026-08-24T13:11:12Z</time>
      </trkpt>
      <trkpt lat="48.770457" lon="-1.162761">
        <ele>170.117</ele>
        <time>2026-08-24T13:11:13Z</time>
      </trkpt>
      <trkpt lat="48.770467" lon="-1.162752">
        <ele>170.109</ele>
        <time>2026-08-24T13:11:14Z</time>
      </trkpt>
      <trkpt lat="48.770478" lon="-1.162750">
        <ele>170.190</ele>
        <time>2026-08-24T13:11:16Z</time>
      </trkpt>
      <trkpt lat="48.770496" lon="-1.162738">
        <ele>170.166</ele>
        <time>2026-08-24T13:11:19Z</time>
      </trkpt>
      <trkpt lat="48.770512" lon="-1.162739">
        <ele>170.149</ele>
        <time>2026-08-24T13:11:20Z</time>
      </trkpt>
      <trkpt lat="48.770525" lon="-1.162737">
        <ele>170.176</ele>
        <time>2026-08-24T13:11:21Z</time>
      </trkpt>
      <trkpt lat="48.770533" lon="-1.162726">
        <ele>170.164</ele>
        <time>2026-08-24T13:11:22Z</time>
      </trkpt>
      <trkpt lat="48.770545" lon="-1.162715">
        <ele>170.192</ele>
        <time>2026-08-24T13:11:23Z</time>
      </trkpt>
      <trkpt lat="48.770556" lon="-1.162694">
        <ele>170.136</ele>
        <time>2026-08-24T13:11:24Z</time>
      </trkpt>
      <trkpt lat="48.770568" lon="-1.162682">
        <ele>170.183</ele>
        <time>2026-08-24T13:11:25Z</time>
      </trkpt>
      <trkpt lat="48.770581" lon="-1.162676">
        <ele>170.195</ele>
        <time>2026-08-24T13:11:26Z</time>
      </trkpt>
      <trkpt lat="48.770594" lon="-1.162671">
        <ele>170.129</ele>
        <time>2026-08-24T13:11:27Z</time>
      </trkpt>
      <trkpt lat="48.770608" lon="-1.162663">
        <ele>170.100</ele>
        <time>2026-08-24T13:11:28Z</time>
      </trkpt>
      <trkpt lat="48.770618" lon="-1.162656">
        <ele>170.120</ele>
        <time>2026-08-24T13:11:29Z</time>
      </trkpt>
      <trkpt lat="48.770632" lon="-1.162639">
        <ele>170.309</ele>
        <time>2026-08-24T13:11:30Z</time>
      </trkpt>
      <trkpt lat="48.770644" lon="-1.162632">
        <ele>170.394</ele>
        <time>2026-08-24T13:11:31Z</time>
      </trkpt>
      <trkpt lat="48.770652" lon="-1.162629">
        <ele>170.420</ele>
        <time>2026-08-24T13:11:32Z</time>
      </trkpt>
      <trkpt lat="48.770662" lon="-1.162620">
        <ele>170.543</ele>
        <time>2026-08-24T13:11:33Z</time>
      </trkpt>
      <trkpt lat="48.770676" lon="-1.162604">
        <ele>170.610</ele>
        <time>2026-08-24T13:11:35Z</time>
      </trkpt>
      <trkpt lat="48.770685" lon="-1.162597">
        <ele>170.798</ele>
        <time>2026-08-24T13:11:36Z</time>
      </trkpt>
      <trkpt lat="48.770700" lon="-1.162595">
        <ele>170.896</ele>
        <time>2026-08-24T13:11:37Z</time>
      </trkpt>
      <trkpt lat="48.770715" lon="-1.162590">
        <ele>170.810</ele>
        <time>2026-08-24T13:11:38Z</time>
      </trkpt>
      <trkpt lat="48.770726" lon="-1.162584">
        <ele>170.927</ele>
        <time>2026-08-24T13:11:39Z</time>
      </trkpt>
      <trkpt lat="48.770737" lon="-1.162576">
        <ele>170.979</ele>
        <time>2026-08-24T13:11:40Z</time>
      </trkpt>
      <trkpt lat="48.770753" lon="-1.162563">
        <ele>170.972</ele>
        <time>2026-08-24T13:11:41Z</time>
      </trkpt>
      <trkpt lat="48.770764" lon="-1.162554">
        <ele>170.913</ele>
        <time>2026-08-24T13:11:42Z</time>
      </trkpt>
      <trkpt lat="48.770777" lon="-1.162545">
        <ele>171.014</ele>
        <time>2026-08-24T13:11:43Z</time>
      </trkpt>
      <trkpt lat="48.770789" lon="-1.162539">
        <ele>171.009</ele>
        <time>2026-08-24T13:11:44Z</time>
      </trkpt>
      <trkpt lat="48.770800" lon="-1.162531">
        <ele>171.089</ele>
        <time>2026-08-24T13:11:45Z</time>
      </trkpt>
      <trkpt lat="48.770810" lon="-1.162524">
        <ele>171.175</ele>
        <time>2026-08-24T13:11:46Z</time>
      </trkpt>
      <trkpt lat="48.770821" lon="-1.162518">
        <ele>171.228</ele>
        <time>2026-08-24T13:11:47Z</time>
      </trkpt>
      <trkpt lat="48.770834" lon="-1.162517">
        <ele>171.275</ele>
        <time>2026-08-24T13:11:48Z</time>
      </trkpt>
      <trkpt lat="48.770848" lon="-1.162510">
        <ele>171.323</ele>
        <time>2026-08-24T13:11:49Z</time>
      </trkpt>
      <trkpt lat="48.770856" lon="-1.162497">
        <ele>171.531</ele>
        <time>2026-08-24T13:11:50Z</time>
      </trkpt>
      <trkpt lat="48.770867" lon="-1.162486">
        <ele>171.795</ele>
        <time>2026-08-24T13:11:51Z</time>
      </trkpt>
      <trkpt lat="48.770883" lon="-1.162467">
        <ele>171.822</ele>
        <time>2026-08-24T13:11:53Z</time>
      </trkpt>
      <trkpt lat="48.770896" lon="-1.162465">
        <ele>172.014</ele>
        <time>2026-08-24T13:11:54Z</time>
      </trkpt>
      <trkpt lat="48.770905" lon="-1.162462">
        <ele>172.157</ele>
        <time>2026-08-24T13:11:55Z</time>
      </trkpt>
      <trkpt lat="48.770913" lon="-1.162452">
        <ele>172.100</ele>
        <time>2026-08-24T13:11:56Z</time>
      </trkpt>
      <trkpt lat="48.770923" lon="-1.162449">
        <ele>172.120</ele>
        <time>2026-08-24T13:11:57Z</time>
      </trkpt>
      <trkpt lat="48.770935" lon="-1.162439">
        <ele>172.209</ele>
        <time>2026-08-24T13:11:58Z</time>
      </trkpt>
      <trkpt lat="48.770945" lon="-1.162430">
        <ele>172.217</ele>
        <time>2026-08-24T13:11:59Z</time>
      </trkpt>
      <trkpt lat="48.770954" lon="-1.162423">
        <ele>172.373</ele>
        <time>2026-08-24T13:12:00Z</time>
      </trkpt>
      <trkpt lat="48.770966" lon="-1.162410">
        <ele>172.386</ele>
        <time>2026-08-24T13:12:02Z</time>
      </trkpt>
      <trkpt lat="48.770979" lon="-1.162394">
        <ele>172.363</ele>
        <time>2026-08-24T13:12:04Z</time>
      </trkpt>
      <trkpt lat="48.770989" lon="-1.162386">
        <ele>172.441</ele>
        <time>2026-08-24T13:12:05Z</time>
      </trkpt>
      <trkpt lat="48.771002" lon="-1.162374">
        <ele>172.439</ele>
        <time>2026-08-24T13:12:06Z</time>
      </trkpt>
      <trkpt lat="48.771011" lon="-1.162356">
        <ele>172.463</ele>
        <time>2026-08-24T13:12:07Z</time>
      </trkpt>
      <trkpt lat="48.771020" lon="-1.162345">
        <ele>172.420</ele>
        <time>2026-08-24T13:12:08Z</time>
      </trkpt>
      <trkpt lat="48.771030" lon="-1.162337">
        <ele>172.482</ele>
        <time>2026-08-24T13:12:09Z</time>
      </trkpt>
      <trkpt lat="48.771044" lon="-1.162334">
        <ele>172.425</ele>
        <time>2026-08-24T13:12:10Z</time>
      </trkpt>
      <trkpt lat="48.771052" lon="-1.162322">
        <ele>172.426</ele>
        <time>2026-08-24T13:12:13Z</time>
      </trkpt>
      <trkpt lat="48.771059" lon="-1.162308">
        <ele>172.408</ele>
        <time>2026-08-24T13:12:14Z</time>
      </trkpt>
      <trkpt lat="48.771070" lon="-1.162290">
        <ele>172.409</ele>
        <time>2026-08-24T13:12:15Z</time>
      </trkpt>
      <trkpt lat="48.771085" lon="-1.162278">
        <ele>172.424</ele>
        <time>2026-08-24T13:12:16Z</time>
      </trkpt>
      <trkpt lat="48.771091" lon="-1.162262">
        <ele>172.470</ele>
        <time>2026-08-24T13:12:18Z</time>
      </trkpt>
      <trkpt lat="48.771101" lon="-1.162256">
        <ele>172.423</ele>
        <time>2026-08-24T13:12:19Z</time>
      </trkpt>
      <trkpt lat="48.771109" lon="-1.162242">
        <ele>172.410</ele>
        <time>2026-08-24T13:12:20Z</time>
      </trkpt>
      <trkpt lat="48.771122" lon="-1.162228">
        <ele>172.478</ele>
        <time>2026-08-24T13:12:21Z</time>
      </trkpt>
      <trkpt lat="48.771132" lon="-1.162226">
        <ele>172.416</ele>
        <time>2026-08-24T13:12:22Z</time>
      </trkpt>
      <trkpt lat="48.771142" lon="-1.162219">
        <ele>172.440</ele>
        <time>2026-08-24T13:12:24Z</time>
      </trkpt>
      <trkpt lat="48.771158" lon="-1.162197">
        <ele>172.457</ele>
        <time>2026-08-24T13:12:26Z</time>
      </trkpt>
      <trkpt lat="48.771165" lon="-1.162187">
        <ele>172.359</ele>
        <time>2026-08-24T13:12:27Z</time>
      </trkpt>
      <trkpt lat="48.771177" lon="-1.162169">
        <ele>172.396</ele>
        <time>2026-08-24T13:12:29Z</time>
      </trkpt>
      <trkpt lat="48.771187" lon="-1.162157">
        <ele>172.231</ele>
        <time>2026-08-24T13:12:30Z</time>
      </trkpt>
      <trkpt lat="48.771201" lon="-1.162149">
        <ele>172.224</ele>
        <time>2026-08-24T13:12:31Z</time>
      </trkpt>
      <trkpt lat="48.771213" lon="-1.162141">
        <ele>172.109</ele>
        <time>2026-08-24T13:12:32Z</time>
      </trkpt>
      <trkpt lat="48.771234" lon="-1.162139">
        <ele>172.171</ele>
        <time>2026-08-24T13:12:33Z</time>
      </trkpt>
      <trkpt lat="48.771257" lon="-1.162137">
        <ele>172.167</ele>
        <time>2026-08-24T13:12:34Z</time>
      </trkpt>
      <trkpt lat="48.771266" lon="-1.162130">
        <ele>172.110</ele>
        <time>2026-08-24T13:12:35Z</time>
      </trkpt>
      <trkpt lat="48.771283" lon="-1.162115">
        <ele>172.167</ele>
        <time>2026-08-24T13:12:36Z</time>
      </trkpt>
      <trkpt lat="48.771294" lon="-1.162101">
        <ele>172.185</ele>
        <time>2026-08-24T13:12:37Z</time>
      </trkpt>
      <trkpt lat="48.771303" lon="-1.162085">
        <ele>172.133</ele>
        <time>2026-08-24T13:12:38Z</time>
      </trkpt>
      <trkpt lat="48.771322" lon="-1.162077">
        <ele>172.167</ele>
        <time>2026-08-24T13:12:39Z</time>
      </trkpt>
      <trkpt lat="48.771341" lon="-1.162069">
        <ele>172.184</ele>
        <time>2026-08-24T13:12:40Z</time>
      </trkpt>
      <trkpt lat="48.771358" lon="-1.162054">
        <ele>172.136</ele>
        <time>2026-08-24T13:12:41Z</time>
      </trkpt>
      <trkpt lat="48.771375" lon="-1.162039">
        <ele>172.149</ele>
        <time>2026-08-24T13:12:42Z</time>
      </trkpt>
      <trkpt lat="48.771387" lon="-1.162025">
        <ele>172.102</ele>
        <time>2026-08-24T13:12:43Z</time>
      </trkpt>
      <trkpt lat="48.771395" lon="-1.162012">
        <ele>172.122</ele>
        <time>2026-08-24T13:12:44Z</time>
      </trkpt>
      <trkpt lat="48.771406" lon="-1.161995">
        <ele>172.109</ele>
        <time>2026-08-24T13:12:46Z</time>
      </trkpt>
      <trkpt lat="48.771420" lon="-1.161988">
        <ele>172.166</ele>
        <time>2026-08-24T13:12:47Z</time>
      </trkpt>
      <trkpt lat="48.771435" lon="-1.161978">
        <ele>172.142</ele>
        <time>2026-08-24T13:12:48Z</time>
      </trkpt>
      <trkpt lat="48.771453" lon="-1.161974">
        <ele>172.125</ele>
        <time>2026-08-24T13:12:49Z</time>
      </trkpt>
      <trkpt lat="48.771467" lon="-1.161954">
        <ele>172.142</ele>
        <time>2026-08-24T13:12:51Z</time>
      </trkpt>
      <trkpt lat="48.771475" lon="-1.161943">
        <ele>172.150</ele>
        <time>2026-08-24T13:12:52Z</time>
      </trkpt>
      <trkpt lat="48.771482" lon="-1.161927">
        <ele>172.248</ele>
        <time>2026-08-24T13:12:53Z</time>
      </trkpt>
      <trkpt lat="48.771490" lon="-1.161911">
        <ele>172.342</ele>
        <time>2026-08-24T13:12:54Z</time>
      </trkpt>
      <trkpt lat="48.771496" lon="-1.161899">
        <ele>172.399</ele>
        <time>2026-08-24T13:12:55Z</time>
      </trkpt>
      <trkpt lat="48.771513" lon="-1.161882">
        <ele>172.341</ele>
        <time>2026-08-24T13:12:57Z</time>
      </trkpt>
      <trkpt lat="48.771524" lon="-1.161882">
        <ele>172.342</ele>
        <time>2026-08-24T13:12:58Z</time>
      </trkpt>
      <trkpt lat="48.771533" lon="-1.161869">
        <ele>172.322</ele>
        <time>2026-08-24T13:12:59Z</time>
      </trkpt>
      <trkpt lat="48.771542" lon="-1.161846">
        <ele>172.314</ele>
        <time>2026-08-24T13:13:00Z</time>
      </trkpt>
      <trkpt lat="48.771551" lon="-1.161825">
        <ele>172.309</ele>
        <time>2026-08-24T13:13:01Z</time>
      </trkpt>
      <trkpt lat="48.771559" lon="-1.161812">
        <ele>172.366</ele>
        <time>2026-08-24T13:13:02Z</time>
      </trkpt>
      <trkpt lat="48.771570" lon="-1.161795">
        <ele>172.362</ele>
        <time>2026-08-24T13:13:04Z</time>
      </trkpt>
      <trkpt lat="48.771577" lon="-1.161784">
        <ele>172.315</ele>
        <time>2026-08-24T13:13:05Z</time>
      </trkpt>
      <trkpt lat="48.771584" lon="-1.161770">
        <ele>172.372</ele>
        <time>2026-08-24T13:13:06Z</time>
      </trkpt>
      <trkpt lat="48.771592" lon="-1.161753">
        <ele>172.390</ele>
        <time>2026-08-24T13:13:07Z</time>
      </trkpt>
      <trkpt lat="48.771602" lon="-1.161740">
        <ele>172.358</ele>
        <time>2026-08-24T13:13:08Z</time>
      </trkpt>
      <trkpt lat="48.771611" lon="-1.161725">
        <ele>172.372</ele>
        <time>2026-08-24T13:13:09Z</time>
      </trkpt>
      <trkpt lat="48.771622" lon="-1.161715">
        <ele>172.379</ele>
        <time>2026-08-24T13:13:10Z</time>
      </trkpt>
      <trkpt lat="48.771633" lon="-1.161706">
        <ele>172.261</ele>
        <time>2026-08-24T13:13:11Z</time>
      </trkpt>
      <trkpt lat="48.771637" lon="-1.161688">
        <ele>172.216</ele>
        <time>2026-08-24T13:13:12Z</time>
      </trkpt>
      <trkpt lat="48.771641" lon="-1.161673">
        <ele>172.276</ele>
        <time>2026-08-24T13:13:13Z</time>
      </trkpt>
      <trkpt lat="48.771646" lon="-1.161654">
        <ele>172.213</ele>
        <time>2026-08-24T13:13:14Z</time>
      </trkpt>
      <trkpt lat="48.771660" lon="-1.161636">
        <ele>172.109</ele>
        <time>2026-08-24T13:13:16Z</time>
      </trkpt>
      <trkpt lat="48.771669" lon="-1.161627">
        <ele>172.153</ele>
        <time>2026-08-24T13:13:17Z</time>
      </trkpt>
      <trkpt lat="48.771679" lon="-1.161619">
        <ele>172.049</ele>
        <time>2026-08-24T13:13:18Z</time>
      </trkpt>
      <trkpt lat="48.771685" lon="-1.161608">
        <ele>172.082</ele>
        <time>2026-08-24T13:13:19Z</time>
      </trkpt>
      <trkpt lat="48.771692" lon="-1.161595">
        <ele>171.939</ele>
        <time>2026-08-24T13:13:20Z</time>
      </trkpt>
      <trkpt lat="48.771697" lon="-1.161580">
        <ele>171.917</ele>
        <time>2026-08-24T13:13:21Z</time>
      </trkpt>
      <trkpt lat="48.771704" lon="-1.161562">
        <ele>171.945</ele>
        <time>2026-08-24T13:13:22Z</time>
      </trkpt>
      <trkpt lat="48.771712" lon="-1.161543">
        <ele>171.999</ele>
        <time>2026-08-24T13:13:23Z</time>
      </trkpt>
      <trkpt lat="48.771721" lon="-1.161523">
        <ele>171.886</ele>
        <time>2026-08-24T13:13:24Z</time>
      </trkpt>
      <trkpt lat="48.771726" lon="-1.161506">
        <ele>171.858</ele>
        <time>2026-08-24T13:13:25Z</time>
      </trkpt>
      <trkpt lat="48.771736" lon="-1.161493">
        <ele>171.889</ele>
        <time>2026-08-24T13:13:26Z</time>
      </trkpt>
      <trkpt lat="48.771742" lon="-1.161475">
        <ele>171.706</ele>
        <time>2026-08-24T13:13:27Z</time>
      </trkpt>
      <trkpt lat="48.771747" lon="-1.161464">
        <ele>171.726</ele>
        <time>2026-08-24T13:13:28Z</time>
      </trkpt>
      <trkpt lat="48.771755" lon="-1.161438">
        <ele>171.609</ele>
        <time>2026-08-24T13:13:30Z</time>
      </trkpt>
      <trkpt lat="48.771765" lon="-1.161412">
        <ele>171.670</ele>
        <time>2026-08-24T13:13:32Z</time>
      </trkpt>
      <trkpt lat="48.771773" lon="-1.161397">
        <ele>171.546</ele>
        <time>2026-08-24T13:13:33Z</time>
      </trkpt>
      <trkpt lat="48.771778" lon="-1.161385">
        <ele>171.599</ele>
        <time>2026-08-24T13:13:34Z</time>
      </trkpt>
      <trkpt lat="48.771787" lon="-1.161367">
        <ele>171.476</ele>
        <time>2026-08-24T13:13:35Z</time>
      </trkpt>
      <trkpt lat="48.771796" lon="-1.161353">
        <ele>171.474</ele>
        <time>2026-08-24T13:13:36Z</time>
      </trkpt>
      <trkpt lat="48.771801" lon="-1.161339">
        <ele>171.352</ele>
        <time>2026-08-24T13:13:37Z</time>
      </trkpt>
      <trkpt lat="48.771806" lon="-1.161328">
        <ele>171.346</ele>
        <time>2026-08-24T13:13:38Z</time>
      </trkpt>
      <trkpt lat="48.771818" lon="-1.161316">
        <ele>171.323</ele>
        <time>2026-08-24T13:13:39Z</time>
      </trkpt>
      <trkpt lat="48.771831" lon="-1.161302">
        <ele>171.385</ele>
        <time>2026-08-24T13:13:40Z</time>
      </trkpt>
      <trkpt lat="48.771844" lon="-1.161292">
        <ele>171.233</ele>
        <time>2026-08-24T13:13:41Z</time>
      </trkpt>
      <trkpt lat="48.771856" lon="-1.161281">
        <ele>171.223</ele>
        <time>2026-08-24T13:13:42Z</time>
      </trkpt>
      <trkpt lat="48.771863" lon="-1.161264">
        <ele>171.215</ele>
        <time>2026-08-24T13:13:43Z</time>
      </trkpt>
      <trkpt lat="48.771872" lon="-1.161254">
        <ele>171.209</ele>
        <time>2026-08-24T13:13:44Z</time>
      </trkpt>
      <trkpt lat="48.771880" lon="-1.161243">
        <ele>171.185</ele>
        <time>2026-08-24T13:13:45Z</time>
      </trkpt>
      <trkpt lat="48.771891" lon="-1.161227">
        <ele>171.181</ele>
        <time>2026-08-24T13:13:46Z</time>
      </trkpt>
      <trkpt lat="48.771904" lon="-1.161213">
        <ele>171.094</ele>
        <time>2026-08-24T13:13:47Z</time>
      </trkpt>
      <trkpt lat="48.771912" lon="-1.161204">
        <ele>170.981</ele>
        <time>2026-08-24T13:13:48Z</time>
      </trkpt>
      <trkpt lat="48.771924" lon="-1.161187">
        <ele>170.739</ele>
        <time>2026-08-24T13:13:50Z</time>
      </trkpt>
      <trkpt lat="48.771934" lon="-1.161176">
        <ele>170.777</ele>
        <time>2026-08-24T13:13:51Z</time>
      </trkpt>
      <trkpt lat="48.771941" lon="-1.161161">
        <ele>170.781</ele>
        <time>2026-08-24T13:13:52Z</time>
      </trkpt>
      <trkpt lat="48.771952" lon="-1.161145">
        <ele>170.748</ele>
        <time>2026-08-24T13:13:53Z</time>
      </trkpt>
      <trkpt lat="48.771957" lon="-1.161132">
        <ele>170.760</ele>
        <time>2026-08-24T13:13:54Z</time>
      </trkpt>
      <trkpt lat="48.771968" lon="-1.161118">
        <ele>170.788</ele>
        <time>2026-08-24T13:13:56Z</time>
      </trkpt>
      <trkpt lat="48.771974" lon="-1.161102">
        <ele>170.724</ele>
        <time>2026-08-24T13:13:57Z</time>
      </trkpt>
      <trkpt lat="48.771983" lon="-1.161085">
        <ele>170.726</ele>
        <time>2026-08-24T13:13:58Z</time>
      </trkpt>
      <trkpt lat="48.771995" lon="-1.161076">
        <ele>170.709</ele>
        <time>2026-08-24T13:13:59Z</time>
      </trkpt>
      <trkpt lat="48.772006" lon="-1.161066">
        <ele>170.670</ele>
        <time>2026-08-24T13:14:00Z</time>
      </trkpt>
      <trkpt lat="48.772019" lon="-1.161048">
        <ele>170.516</ele>
        <time>2026-08-24T13:14:01Z</time>
      </trkpt>
      <trkpt lat="48.772033" lon="-1.161038">
        <ele>170.289</ele>
        <time>2026-08-24T13:14:02Z</time>
      </trkpt>
      <trkpt lat="48.772049" lon="-1.161017">
        <ele>170.116</ele>
        <time>2026-08-24T13:14:04Z</time>
      </trkpt>
      <trkpt lat="48.772060" lon="-1.161003">
        <ele>170.124</ele>
        <time>2026-08-24T13:14:05Z</time>
      </trkpt>
      <trkpt lat="48.772069" lon="-1.160987">
        <ele>170.032</ele>
        <time>2026-08-24T13:14:06Z</time>
      </trkpt>
      <trkpt lat="48.772079" lon="-1.160974">
        <ele>170.026</ele>
        <time>2026-08-24T13:14:07Z</time>
      </trkpt>
      <trkpt lat="48.772087" lon="-1.160958">
        <ele>170.033</ele>
        <time>2026-08-24T13:14:08Z</time>
      </trkpt>
      <trkpt lat="48.772091" lon="-1.160942">
        <ele>169.955</ele>
        <time>2026-08-24T13:14:09Z</time>
      </trkpt>
      <trkpt lat="48.772103" lon="-1.160921">
        <ele>169.921</ele>
        <time>2026-08-24T13:14:11Z</time>
      </trkpt>
      <trkpt lat="48.772113" lon="-1.160906">
        <ele>169.941</ele>
        <time>2026-08-24T13:14:12Z</time>
      </trkpt>
      <trkpt lat="48.772123" lon="-1.160892">
        <ele>169.905</ele>
        <time>2026-08-24T13:14:13Z</time>
      </trkpt>
      <trkpt lat="48.772135" lon="-1.160879">
        <ele>169.809</ele>
        <time>2026-08-24T13:14:14Z</time>
      </trkpt>
      <trkpt lat="48.772146" lon="-1.160874">
        <ele>169.824</ele>
        <time>2026-08-24T13:14:15Z</time>
      </trkpt>
      <trkpt lat="48.772153" lon="-1.160865">
        <ele>169.860</ele>
        <time>2026-08-24T13:14:16Z</time>
      </trkpt>
      <trkpt lat="48.772161" lon="-1.160849">
        <ele>169.823</ele>
        <time>2026-08-24T13:14:17Z</time>
      </trkpt>
      <trkpt lat="48.772169" lon="-1.160838">
        <ele>169.820</ele>
        <time>2026-08-24T13:14:18Z</time>
      </trkpt>
      <trkpt lat="48.772174" lon="-1.160824">
        <ele>169.718</ele>
        <time>2026-08-24T13:14:19Z</time>
      </trkpt>
      <trkpt lat="48.772182" lon="-1.160804">
        <ele>169.746</ele>
        <time>2026-08-24T13:14:20Z</time>
      </trkpt>
      <trkpt lat="48.772193" lon="-1.160790">
        <ele>169.770</ele>
        <time>2026-08-24T13:14:21Z</time>
      </trkpt>
      <trkpt lat="48.772203" lon="-1.160778">
        <ele>169.827</ele>
        <time>2026-08-24T13:14:22Z</time>
      </trkpt>
      <trkpt lat="48.772221" lon="-1.160769">
        <ele>169.849</ele>
        <time>2026-08-24T13:14:24Z</time>
      </trkpt>
      <trkpt lat="48.772238" lon="-1.160757">
        <ele>169.851</ele>
        <time>2026-08-24T13:14:26Z</time>
      </trkpt>
      <trkpt lat="48.772247" lon="-1.160745">
        <ele>169.801</ele>
        <time>2026-08-24T13:14:27Z</time>
      </trkpt>
      <trkpt lat="48.772255" lon="-1.160732">
        <ele>169.811</ele>
        <time>2026-08-24T13:14:28Z</time>
      </trkpt>
      <trkpt lat="48.772265" lon="-1.160719">
        <ele>169.809</ele>
        <time>2026-08-24T13:14:29Z</time>
      </trkpt>
      <trkpt lat="48.772275" lon="-1.160712">
        <ele>169.877</ele>
        <time>2026-08-24T13:14:30Z</time>
      </trkpt>
      <trkpt lat="48.772286" lon="-1.160703">
        <ele>169.713</ele>
        <time>2026-08-24T13:14:31Z</time>
      </trkpt>
      <trkpt lat="48.772297" lon="-1.160691">
        <ele>169.726</ele>
        <time>2026-08-24T13:14:32Z</time>
      </trkpt>
      <trkpt lat="48.772307" lon="-1.160671">
        <ele>169.613</ele>
        <time>2026-08-24T13:14:33Z</time>
      </trkpt>
      <trkpt lat="48.772316" lon="-1.160660">
        <ele>169.641</ele>
        <time>2026-08-24T13:14:34Z</time>
      </trkpt>
      <trkpt lat="48.772331" lon="-1.160640">
        <ele>169.699</ele>
        <time>2026-08-24T13:14:36Z</time>
      </trkpt>
      <trkpt lat="48.772340" lon="-1.160625">
        <ele>169.643</ele>
        <time>2026-08-24T13:14:37Z</time>
      </trkpt>
      <trkpt lat="48.772349" lon="-1.160609">
        <ele>169.680</ele>
        <time>2026-08-24T13:14:38Z</time>
      </trkpt>
      <trkpt lat="48.772356" lon="-1.160597">
        <ele>169.612</ele>
        <time>2026-08-24T13:14:39Z</time>
      </trkpt>
      <trkpt lat="48.772364" lon="-1.160587">
        <ele>169.649</ele>
        <time>2026-08-24T13:14:40Z</time>
      </trkpt>
      <trkpt lat="48.772373" lon="-1.160577">
        <ele>169.602</ele>
        <time>2026-08-24T13:14:41Z</time>
      </trkpt>
      <trkpt lat="48.772384" lon="-1.160567">
        <ele>169.622</ele>
        <time>2026-08-24T13:14:42Z</time>
      </trkpt>
      <trkpt lat="48.772394" lon="-1.160558">
        <ele>169.609</ele>
        <time>2026-08-24T13:14:43Z</time>
      </trkpt>
      <trkpt lat="48.772400" lon="-1.160544">
        <ele>169.596</ele>
        <time>2026-08-24T13:14:44Z</time>
      </trkpt>
      <trkpt lat="48.772405" lon="-1.160531">
        <ele>169.512</ele>
        <time>2026-08-24T13:14:45Z</time>
      </trkpt>
      <trkpt lat="48.772419" lon="-1.160511">
        <ele>169.535</ele>
        <time>2026-08-24T13:14:47Z</time>
      </trkpt>
      <trkpt lat="48.772428" lon="-1.160499">
        <ele>169.532</ele>
        <time>2026-08-24T13:14:48Z</time>
      </trkpt>
      <trkpt lat="48.772439" lon="-1.160489">
        <ele>169.460</ele>
        <time>2026-08-24T13:14:49Z</time>
      </trkpt>
      <trkpt lat="48.772451" lon="-1.160480">
        <ele>169.458</ele>
        <time>2026-08-24T13:14:50Z</time>
      </trkpt>
      <trkpt lat="48.772459" lon="-1.160471">
        <ele>169.482</ele>
        <time>2026-08-24T13:14:51Z</time>
      </trkpt>
      <trkpt lat="48.772470" lon="-1.160459">
        <ele>169.399</ele>
        <time>2026-08-24T13:14:52Z</time>
      </trkpt>
      <trkpt lat="48.772481" lon="-1.160451">
        <ele>169.291</ele>
        <time>2026-08-24T13:14:53Z</time>
      </trkpt>
      <trkpt lat="48.772488" lon="-1.160433">
        <ele>169.184</ele>
        <time>2026-08-24T13:14:54Z</time>
      </trkpt>
      <trkpt lat="48.772497" lon="-1.160417">
        <ele>169.007</ele>
        <time>2026-08-24T13:14:55Z</time>
      </trkpt>
      <trkpt lat="48.772510" lon="-1.160403">
        <ele>169.017</ele>
        <time>2026-08-24T13:14:56Z</time>
      </trkpt>
      <trkpt lat="48.772517" lon="-1.160390">
        <ele>168.909</ele>
        <time>2026-08-24T13:14:57Z</time>
      </trkpt>
      <trkpt lat="48.772530" lon="-1.160383">
        <ele>168.930</ele>
        <time>2026-08-24T13:14:59Z</time>
      </trkpt>
      <trkpt lat="48.772538" lon="-1.160374">
        <ele>168.996</ele>
        <time>2026-08-24T13:15:00Z</time>
      </trkpt>
      <trkpt lat="48.772547" lon="-1.160363">
        <ele>168.879</ele>
        <time>2026-08-24T13:15:01Z</time>
      </trkpt>
      <trkpt lat="48.772559" lon="-1.160351">
        <ele>168.486</ele>
        <time>2026-08-24T13:15:02Z</time>
      </trkpt>
      <trkpt lat="48.772574" lon="-1.160350">
        <ele>168.164</ele>
        <time>2026-08-24T13:15:03Z</time>
      </trkpt>
      <trkpt lat="48.772585" lon="-1.160344">
        <ele>168.132</ele>
        <time>2026-08-24T13:15:04Z</time>
      </trkpt>
      <trkpt lat="48.772598" lon="-1.160336">
        <ele>168.136</ele>
        <time>2026-08-24T13:15:05Z</time>
      </trkpt>
      <trkpt lat="48.772614" lon="-1.160327">
        <ele>168.033</ele>
        <time>2026-08-24T13:15:06Z</time>
      </trkpt>
      <trkpt lat="48.772629" lon="-1.160322">
        <ele>168.055</ele>
        <time>2026-08-24T13:15:07Z</time>
      </trkpt>
      <trkpt lat="48.772637" lon="-1.160306">
        <ele>168.095</ele>
        <time>2026-08-24T13:15:08Z</time>
      </trkpt>
      <trkpt lat="48.772647" lon="-1.160297">
        <ele>168.049</ele>
        <time>2026-08-24T13:15:09Z</time>
      </trkpt>
      <trkpt lat="48.772658" lon="-1.160290">
        <ele>168.023</ele>
        <time>2026-08-24T13:15:10Z</time>
      </trkpt>
      <trkpt lat="48.772667" lon="-1.160282">
        <ele>168.009</ele>
        <time>2026-08-24T13:15:11Z</time>
      </trkpt>
      <trkpt lat="48.772675" lon="-1.160272">
        <ele>168.081</ele>
        <time>2026-08-24T13:15:12Z</time>
      </trkpt>
      <trkpt lat="48.772682" lon="-1.160262">
        <ele>168.097</ele>
        <time>2026-08-24T13:15:13Z</time>
      </trkpt>
      <trkpt lat="48.772692" lon="-1.160254">
        <ele>168.060</ele>
        <time>2026-08-24T13:15:14Z</time>
      </trkpt>
      <trkpt lat="48.772698" lon="-1.160242">
        <ele>168.017</ele>
        <time>2026-08-24T13:15:15Z</time>
      </trkpt>
      <trkpt lat="48.772707" lon="-1.160234">
        <ele>168.015</ele>
        <time>2026-08-24T13:15:16Z</time>
      </trkpt>
      <trkpt lat="48.772716" lon="-1.160222">
        <ele>168.023</ele>
        <time>2026-08-24T13:15:17Z</time>
      </trkpt>
      <trkpt lat="48.772727" lon="-1.160213">
        <ele>168.097</ele>
        <time>2026-08-24T13:15:18Z</time>
      </trkpt>
      <trkpt lat="48.772740" lon="-1.160200">
        <ele>168.034</ele>
        <time>2026-08-24T13:15:19Z</time>
      </trkpt>
      <trkpt lat="48.772751" lon="-1.160197">
        <ele>168.016</ele>
        <time>2026-08-24T13:15:20Z</time>
      </trkpt>
      <trkpt lat="48.772765" lon="-1.160191">
        <ele>168.089</ele>
        <time>2026-08-24T13:15:21Z</time>
      </trkpt>
      <trkpt lat="48.772776" lon="-1.160184">
        <ele>168.006</ele>
        <time>2026-08-24T13:15:22Z</time>
      </trkpt>
      <trkpt lat="48.772789" lon="-1.160174">
        <ele>168.026</ele>
        <time>2026-08-24T13:15:23Z</time>
      </trkpt>
      <trkpt lat="48.772799" lon="-1.160164">
        <ele>168.009</ele>
        <time>2026-08-24T13:15:24Z</time>
      </trkpt>
      <trkpt lat="48.772807" lon="-1.160151">
        <ele>168.110</ele>
        <time>2026-08-24T13:15:25Z</time>
      </trkpt>
      <trkpt lat="48.772816" lon="-1.160136">
        <ele>168.356</ele>
        <time>2026-08-24T13:15:26Z</time>
      </trkpt>
      <trkpt lat="48.772824" lon="-1.160130">
        <ele>168.339</ele>
        <time>2026-08-24T13:15:27Z</time>
      </trkpt>
      <trkpt lat="48.772835" lon="-1.160121">
        <ele>168.426</ele>
        <time>2026-08-24T13:15:28Z</time>
      </trkpt>
      <trkpt lat="48.772846" lon="-1.160117">
        <ele>168.424</ele>
        <time>2026-08-24T13:15:29Z</time>
      </trkpt>
      <trkpt lat="48.772860" lon="-1.160109">
        <ele>168.492</ele>
        <time>2026-08-24T13:15:30Z</time>
      </trkpt>
      <trkpt lat="48.772872" lon="-1.160098">
        <ele>168.576</ele>
        <time>2026-08-24T13:15:31Z</time>
      </trkpt>
      <trkpt lat="48.772886" lon="-1.160095">
        <ele>168.523</ele>
        <time>2026-08-24T13:15:32Z</time>
      </trkpt>
      <trkpt lat="48.772895" lon="-1.160093">
        <ele>168.595</ele>
        <time>2026-08-24T13:15:33Z</time>
      </trkpt>
      <trkpt lat="48.772906" lon="-1.160087">
        <ele>168.564</ele>
        <time>2026-08-24T13:15:34Z</time>
      </trkpt>
      <trkpt lat="48.772920" lon="-1.160077">
        <ele>168.606</ele>
        <time>2026-08-24T13:15:35Z</time>
      </trkpt>
      <trkpt lat="48.772932" lon="-1.160064">
        <ele>168.616</ele>
        <time>2026-08-24T13:15:36Z</time>
      </trkpt>
      <trkpt lat="48.772943" lon="-1.160053">
        <ele>168.609</ele>
        <time>2026-08-24T13:15:37Z</time>
      </trkpt>
      <trkpt lat="48.772952" lon="-1.160038">
        <ele>168.688</ele>
        <time>2026-08-24T13:15:38Z</time>
      </trkpt>
      <trkpt lat="48.772961" lon="-1.160034">
        <ele>168.644</ele>
        <time>2026-08-24T13:15:39Z</time>
      </trkpt>
      <trkpt lat="48.772973" lon="-1.160027">
        <ele>168.667</ele>
        <time>2026-08-24T13:15:40Z</time>
      </trkpt>
      <trkpt lat="48.772985" lon="-1.160022">
        <ele>168.754</ele>
        <time>2026-08-24T13:15:41Z</time>
      </trkpt>
      <trkpt lat="48.772997" lon="-1.160018">
        <ele>168.742</ele>
        <time>2026-08-24T13:15:42Z</time>
      </trkpt>
      <trkpt lat="48.773008" lon="-1.160018">
        <ele>168.720</ele>
        <time>2026-08-24T13:15:43Z</time>
      </trkpt>
      <trkpt lat="48.773020" lon="-1.160013">
        <ele>168.844</ele>
        <time>2026-08-24T13:15:44Z</time>
      </trkpt>
      <trkpt lat="48.773030" lon="-1.160005">
        <ele>168.831</ele>
        <time>2026-08-24T13:15:45Z</time>
      </trkpt>
      <trkpt lat="48.773040" lon="-1.159995">
        <ele>168.943</ele>
        <time>2026-08-24T13:15:46Z</time>
      </trkpt>
      <trkpt lat="48.773052" lon="-1.159985">
        <ele>168.978</ele>
        <time>2026-08-24T13:15:47Z</time>
      </trkpt>
      <trkpt lat="48.773062" lon="-1.159977">
        <ele>168.933</ele>
        <time>2026-08-24T13:15:48Z</time>
      </trkpt>
      <trkpt lat="48.773074" lon="-1.159976">
        <ele>169.026</ele>
        <time>2026-08-24T13:15:49Z</time>
      </trkpt>
      <trkpt lat="48.773087" lon="-1.159972">
        <ele>169.009</ele>
        <time>2026-08-24T13:15:50Z</time>
      </trkpt>
      <trkpt lat="48.773099" lon="-1.159965">
        <ele>169.039</ele>
        <time>2026-08-24T13:15:51Z</time>
      </trkpt>
      <trkpt lat="48.773111" lon="-1.159955">
        <ele>169.055</ele>
        <time>2026-08-24T13:15:52Z</time>
      </trkpt>
      <trkpt lat="48.773123" lon="-1.159948">
        <ele>169.178</ele>
        <time>2026-08-24T13:15:53Z</time>
      </trkpt>
      <trkpt lat="48.773134" lon="-1.159941">
        <ele>169.115</ele>
        <time>2026-08-24T13:15:54Z</time>
      </trkpt>
      <trkpt lat="48.773143" lon="-1.159928">
        <ele>169.153</ele>
        <time>2026-08-24T13:15:55Z</time>
      </trkpt>
      <trkpt lat="48.773152" lon="-1.159921">
        <ele>169.171</ele>
        <time>2026-08-24T13:15:56Z</time>
      </trkpt>
      <trkpt lat="48.773161" lon="-1.159913">
        <ele>169.175</ele>
        <time>2026-08-24T13:15:57Z</time>
      </trkpt>
      <trkpt lat="48.773174" lon="-1.159903">
        <ele>169.132</ele>
        <time>2026-08-24T13:15:58Z</time>
      </trkpt>
      <trkpt lat="48.773187" lon="-1.159892">
        <ele>169.164</ele>
        <time>2026-08-24T13:15:59Z</time>
      </trkpt>
      <trkpt lat="48.773199" lon="-1.159881">
        <ele>169.189</ele>
        <time>2026-08-24T13:16:00Z</time>
      </trkpt>
      <trkpt lat="48.773209" lon="-1.159859">
        <ele>169.206</ele>
        <time>2026-08-24T13:16:02Z</time>
      </trkpt>
      <trkpt lat="48.773215" lon="-1.159845">
        <ele>169.226</ele>
        <time>2026-08-24T13:16:03Z</time>
      </trkpt>
      <trkpt lat="48.773218" lon="-1.159823">
        <ele>169.209</ele>
        <time>2026-08-24T13:16:04Z</time>
      </trkpt>
      <trkpt lat="48.773224" lon="-1.159807">
        <ele>169.180</ele>
        <time>2026-08-24T13:16:05Z</time>
      </trkpt>
      <trkpt lat="48.773233" lon="-1.159797">
        <ele>169.116</ele>
        <time>2026-08-24T13:16:06Z</time>
      </trkpt>
      <trkpt lat="48.773237" lon="-1.159786">
        <ele>169.179</ele>
        <time>2026-08-24T13:16:07Z</time>
      </trkpt>
      <trkpt lat="48.773247" lon="-1.159780">
        <ele>169.176</ele>
        <time>2026-08-24T13:16:08Z</time>
      </trkpt>
      <trkpt lat="48.773256" lon="-1.159770">
        <ele>169.194</ele>
        <time>2026-08-24T13:16:09Z</time>
      </trkpt>
      <trkpt lat="48.773265" lon="-1.159756">
        <ele>169.192</ele>
        <time>2026-08-24T13:16:10Z</time>
      </trkpt>
      <trkpt lat="48.773275" lon="-1.159746">
        <ele>169.296</ele>
        <time>2026-08-24T13:16:11Z</time>
      </trkpt>
      <trkpt lat="48.773281" lon="-1.159732">
        <ele>169.243</ele>
        <time>2026-08-24T13:16:12Z</time>
      </trkpt>
      <trkpt lat="48.773289" lon="-1.159718">
        <ele>169.245</ele>
        <time>2026-08-24T13:16:13Z</time>
      </trkpt>
      <trkpt lat="48.773291" lon="-1.159700">
        <ele>169.225</ele>
        <time>2026-08-24T13:16:14Z</time>
      </trkpt>
      <trkpt lat="48.773301" lon="-1.159671">
        <ele>169.226</ele>
        <time>2026-08-24T13:16:16Z</time>
      </trkpt>
      <trkpt lat="48.773310" lon="-1.159650">
        <ele>169.208</ele>
        <time>2026-08-24T13:16:17Z</time>
      </trkpt>
      <trkpt lat="48.773317" lon="-1.159632">
        <ele>169.209</ele>
        <time>2026-08-24T13:16:18Z</time>
      </trkpt>
      <trkpt lat="48.773321" lon="-1.159617">
        <ele>169.214</ele>
        <time>2026-08-24T13:16:19Z</time>
      </trkpt>
      <trkpt lat="48.773323" lon="-1.159604">
        <ele>169.350</ele>
        <time>2026-08-24T13:16:20Z</time>
      </trkpt>
      <trkpt lat="48.773326" lon="-1.159590">
        <ele>169.343</ele>
        <time>2026-08-24T13:16:25Z</time>
      </trkpt>
      <trkpt lat="48.773335" lon="-1.159569">
        <ele>169.340</ele>
        <time>2026-08-24T13:16:27Z</time>
      </trkpt>
      <trkpt lat="48.773338" lon="-1.159553">
        <ele>169.478</ele>
        <time>2026-08-24T13:16:28Z</time>
      </trkpt>
      <trkpt lat="48.773341" lon="-1.159537">
        <ele>169.476</ele>
        <time>2026-08-24T13:16:29Z</time>
      </trkpt>
      <trkpt lat="48.773351" lon="-1.159522">
        <ele>169.520</ele>
        <time>2026-08-24T13:16:30Z</time>
      </trkpt>
      <trkpt lat="48.773357" lon="-1.159506">
        <ele>169.597</ele>
        <time>2026-08-24T13:16:31Z</time>
      </trkpt>
      <trkpt lat="48.773365" lon="-1.159487">
        <ele>169.669</ele>
        <time>2026-08-24T13:16:32Z</time>
      </trkpt>
      <trkpt lat="48.773375" lon="-1.159467">
        <ele>169.673</ele>
        <time>2026-08-24T13:16:33Z</time>
      </trkpt>
      <trkpt lat="48.773384" lon="-1.159448">
        <ele>169.685</ele>
        <time>2026-08-24T13:16:34Z</time>
      </trkpt>
      <trkpt lat="48.773391" lon="-1.159434">
        <ele>169.713</ele>
        <time>2026-08-24T13:16:35Z</time>
      </trkpt>
      <trkpt lat="48.773394" lon="-1.159419">
        <ele>169.909</ele>
        <time>2026-08-24T13:16:36Z</time>
      </trkpt>
      <trkpt lat="48.773401" lon="-1.159401">
        <ele>170.079</ele>
        <time>2026-08-24T13:16:37Z</time>
      </trkpt>
      <trkpt lat="48.773404" lon="-1.159388">
        <ele>170.155</ele>
        <time>2026-08-24T13:16:38Z</time>
      </trkpt>
      <trkpt lat="48.773410" lon="-1.159362">
        <ele>170.258</ele>
        <time>2026-08-24T13:16:40Z</time>
      </trkpt>
      <trkpt lat="48.773410" lon="-1.159344">
        <ele>170.375</ele>
        <time>2026-08-24T13:16:42Z</time>
      </trkpt>
      <trkpt lat="48.773409" lon="-1.159326">
        <ele>170.543</ele>
        <time>2026-08-24T13:16:44Z</time>
      </trkpt>
      <trkpt lat="48.773411" lon="-1.159308">
        <ele>170.731</ele>
        <time>2026-08-24T13:16:45Z</time>
      </trkpt>
      <trkpt lat="48.773410" lon="-1.159292">
        <ele>170.755</ele>
        <time>2026-08-24T13:16:46Z</time>
      </trkpt>
      <trkpt lat="48.773409" lon="-1.159276">
        <ele>170.812</ele>
        <time>2026-08-24T13:16:51Z</time>
      </trkpt>
      <trkpt lat="48.773416" lon="-1.159263">
        <ele>170.814</ele>
        <time>2026-08-24T13:16:53Z</time>
      </trkpt>
      <trkpt lat="48.773425" lon="-1.159248">
        <ele>170.879</ele>
        <time>2026-08-24T13:16:54Z</time>
      </trkpt>
      <trkpt lat="48.773435" lon="-1.159230">
        <ele>170.905</ele>
        <time>2026-08-24T13:16:55Z</time>
      </trkpt>
      <trkpt lat="48.773446" lon="-1.159217">
        <ele>170.925</ele>
        <time>2026-08-24T13:16:56Z</time>
      </trkpt>
      <trkpt lat="48.773457" lon="-1.159208">
        <ele>170.909</ele>
        <time>2026-08-24T13:16:57Z</time>
      </trkpt>
      <trkpt lat="48.773464" lon="-1.159200">
        <ele>171.069</ele>
        <time>2026-08-24T13:16:58Z</time>
      </trkpt>
      <trkpt lat="48.773475" lon="-1.159187">
        <ele>171.175</ele>
        <time>2026-08-24T13:16:59Z</time>
      </trkpt>
      <trkpt lat="48.773485" lon="-1.159180">
        <ele>171.188</ele>
        <time>2026-08-24T13:17:00Z</time>
      </trkpt>
      <trkpt lat="48.773495" lon="-1.159175">
        <ele>171.215</ele>
        <time>2026-08-24T13:17:01Z</time>
      </trkpt>
      <trkpt lat="48.773515" lon="-1.159168">
        <ele>171.243</ele>
        <time>2026-08-24T13:17:02Z</time>
      </trkpt>
      <trkpt lat="48.773526" lon="-1.159168">
        <ele>171.291</ele>
        <time>2026-08-24T13:17:03Z</time>
      </trkpt>
      <trkpt lat="48.773536" lon="-1.159161">
        <ele>171.215</ele>
        <time>2026-08-24T13:17:04Z</time>
      </trkpt>
      <trkpt lat="48.773547" lon="-1.159163">
        <ele>171.232</ele>
        <time>2026-08-24T13:17:05Z</time>
      </trkpt>
      <trkpt lat="48.773557" lon="-1.159158">
        <ele>171.344</ele>
        <time>2026-08-24T13:17:06Z</time>
      </trkpt>
      <trkpt lat="48.773567" lon="-1.159157">
        <ele>171.321</ele>
        <time>2026-08-24T13:17:07Z</time>
      </trkpt>
      <trkpt lat="48.773580" lon="-1.159151">
        <ele>171.441</ele>
        <time>2026-08-24T13:17:08Z</time>
      </trkpt>
      <trkpt lat="48.773591" lon="-1.159140">
        <ele>171.405</ele>
        <time>2026-08-24T13:17:09Z</time>
      </trkpt>
      <trkpt lat="48.773605" lon="-1.159131">
        <ele>171.409</ele>
        <time>2026-08-24T13:17:10Z</time>
      </trkpt>
      <trkpt lat="48.773621" lon="-1.159124">
        <ele>171.414</ele>
        <time>2026-08-24T13:17:11Z</time>
      </trkpt>
      <trkpt lat="48.773631" lon="-1.159117">
        <ele>171.540</ele>
        <time>2026-08-24T13:17:12Z</time>
      </trkpt>
      <trkpt lat="48.773644" lon="-1.159113">
        <ele>171.533</ele>
        <time>2026-08-24T13:17:14Z</time>
      </trkpt>
      <trkpt lat="48.773662" lon="-1.159105">
        <ele>171.570</ele>
        <time>2026-08-24T13:17:16Z</time>
      </trkpt>
      <trkpt lat="48.773673" lon="-1.159102">
        <ele>171.638</ele>
        <time>2026-08-24T13:17:17Z</time>
      </trkpt>
      <trkpt lat="48.773683" lon="-1.159097">
        <ele>171.786</ele>
        <time>2026-08-24T13:17:18Z</time>
      </trkpt>
      <trkpt lat="48.773694" lon="-1.159087">
        <ele>171.720</ele>
        <time>2026-08-24T13:17:20Z</time>
      </trkpt>
      <trkpt lat="48.773705" lon="-1.159071">
        <ele>171.727</ele>
        <time>2026-08-24T13:17:22Z</time>
      </trkpt>
      <trkpt lat="48.773717" lon="-1.159063">
        <ele>171.769</ele>
        <time>2026-08-24T13:17:24Z</time>
      </trkpt>
      <trkpt lat="48.773733" lon="-1.159054">
        <ele>171.719</ele>
        <time>2026-08-24T13:17:26Z</time>
      </trkpt>
      <trkpt lat="48.773747" lon="-1.159058">
        <ele>171.709</ele>
        <time>2026-08-24T13:17:28Z</time>
      </trkpt>
      <trkpt lat="48.773760" lon="-1.159050">
        <ele>171.619</ele>
        <time>2026-08-24T13:17:30Z</time>
      </trkpt>
      <trkpt lat="48.773777" lon="-1.159040">
        <ele>171.509</ele>
        <time>2026-08-24T13:17:32Z</time>
      </trkpt>
      <trkpt lat="48.773787" lon="-1.159032">
        <ele>171.513</ele>
        <time>2026-08-24T13:17:33Z</time>
      </trkpt>
      <trkpt lat="48.773799" lon="-1.159020">
        <ele>171.549</ele>
        <time>2026-08-24T13:17:34Z</time>
      </trkpt>
      <trkpt lat="48.773812" lon="-1.159013">
        <ele>171.512</ele>
        <time>2026-08-24T13:17:35Z</time>
      </trkpt>
      <trkpt lat="48.773822" lon="-1.159009">
        <ele>171.539</ele>
        <time>2026-08-24T13:17:36Z</time>
      </trkpt>
      <trkpt lat="48.773837" lon="-1.159004">
        <ele>171.577</ele>
        <time>2026-08-24T13:17:37Z</time>
      </trkpt>
      <trkpt lat="48.773846" lon="-1.159003">
        <ele>171.545</ele>
        <time>2026-08-24T13:17:38Z</time>
      </trkpt>
      <trkpt lat="48.773856" lon="-1.159005">
        <ele>171.579</ele>
        <time>2026-08-24T13:17:39Z</time>
      </trkpt>
      <trkpt lat="48.773868" lon="-1.159006">
        <ele>171.476</ele>
        <time>2026-08-24T13:17:40Z</time>
      </trkpt>
      <trkpt lat="48.773880" lon="-1.159001">
        <ele>171.228</ele>
        <time>2026-08-24T13:17:41Z</time>
      </trkpt>
      <trkpt lat="48.773892" lon="-1.158999">
        <ele>171.153</ele>
        <time>2026-08-24T13:17:42Z</time>
      </trkpt>
      <trkpt lat="48.773903" lon="-1.158997">
        <ele>171.004</ele>
        <time>2026-08-24T13:17:43Z</time>
      </trkpt>
      <trkpt lat="48.773911" lon="-1.158991">
        <ele>171.014</ele>
        <time>2026-08-24T13:17:44Z</time>
      </trkpt>
      <trkpt lat="48.773929" lon="-1.158986">
        <ele>170.909</ele>
        <time>2026-08-24T13:17:46Z</time>
      </trkpt>
      <trkpt lat="48.773941" lon="-1.158979">
        <ele>170.967</ele>
        <time>2026-08-24T13:17:47Z</time>
      </trkpt>
      <trkpt lat="48.773953" lon="-1.158971">
        <ele>170.943</ele>
        <time>2026-08-24T13:17:48Z</time>
      </trkpt>
      <trkpt lat="48.773967" lon="-1.158970">
        <ele>170.966</ele>
        <time>2026-08-24T13:17:49Z</time>
      </trkpt>
      <trkpt lat="48.773978" lon="-1.158965">
        <ele>170.963</ele>
        <time>2026-08-24T13:17:50Z</time>
      </trkpt>
      <trkpt lat="48.773990" lon="-1.158965">
        <ele>170.921</ele>
        <time>2026-08-24T13:17:51Z</time>
      </trkpt>
      <trkpt lat="48.773998" lon="-1.158959">
        <ele>170.919</ele>
        <time>2026-08-24T13:17:52Z</time>
      </trkpt>
      <trkpt lat="48.774008" lon="-1.158952">
        <ele>170.983</ele>
        <time>2026-08-24T13:17:53Z</time>
      </trkpt>
      <trkpt lat="48.774021" lon="-1.158946">
        <ele>170.970</ele>
        <time>2026-08-24T13:17:54Z</time>
      </trkpt>
      <trkpt lat="48.774036" lon="-1.158940">
        <ele>170.952</ele>
        <time>2026-08-24T13:17:55Z</time>
      </trkpt>
      <trkpt lat="48.774048" lon="-1.158935">
        <ele>170.998</ele>
        <time>2026-08-24T13:17:56Z</time>
      </trkpt>
      <trkpt lat="48.774061" lon="-1.158932">
        <ele>170.915</ele>
        <time>2026-08-24T13:17:57Z</time>
      </trkpt>
      <trkpt lat="48.774073" lon="-1.158932">
        <ele>170.926</ele>
        <time>2026-08-24T13:17:58Z</time>
      </trkpt>
      <trkpt lat="48.774085" lon="-1.158932">
        <ele>170.909</ele>
        <time>2026-08-24T13:17:59Z</time>
      </trkpt>
      <trkpt lat="48.774096" lon="-1.158928">
        <ele>170.931</ele>
        <time>2026-08-24T13:18:00Z</time>
      </trkpt>
      <trkpt lat="48.774113" lon="-1.158926">
        <ele>171.037</ele>
        <time>2026-08-24T13:18:01Z</time>
      </trkpt>
      <trkpt lat="48.774129" lon="-1.158919">
        <ele>171.130</ele>
        <time>2026-08-24T13:18:02Z</time>
      </trkpt>
      <trkpt lat="48.774146" lon="-1.158921">
        <ele>171.227</ele>
        <time>2026-08-24T13:18:03Z</time>
      </trkpt>
      <trkpt lat="48.774164" lon="-1.158918">
        <ele>171.385</ele>
        <time>2026-08-24T13:18:05Z</time>
      </trkpt>
      <trkpt lat="48.774176" lon="-1.158909">
        <ele>171.353</ele>
        <time>2026-08-24T13:18:06Z</time>
      </trkpt>
      <trkpt lat="48.774188" lon="-1.158901">
        <ele>171.397</ele>
        <time>2026-08-24T13:18:07Z</time>
      </trkpt>
      <trkpt lat="48.774203" lon="-1.158898">
        <ele>171.324</ele>
        <time>2026-08-24T13:18:08Z</time>
      </trkpt>
      <trkpt lat="48.774220" lon="-1.158900">
        <ele>171.316</ele>
        <time>2026-08-24T13:18:09Z</time>
      </trkpt>
      <trkpt lat="48.774236" lon="-1.158899">
        <ele>171.347</ele>
        <time>2026-08-24T13:18:10Z</time>
      </trkpt>
      <trkpt lat="48.774249" lon="-1.158904">
        <ele>171.429</ele>
        <time>2026-08-24T13:18:11Z</time>
      </trkpt>
      <trkpt lat="48.774260" lon="-1.158905">
        <ele>171.421</ele>
        <time>2026-08-24T13:18:12Z</time>
      </trkpt>
      <trkpt lat="48.774274" lon="-1.158909">
        <ele>171.409</ele>
        <time>2026-08-24T13:18:13Z</time>
      </trkpt>
      <trkpt lat="48.774289" lon="-1.158915">
        <ele>171.476</ele>
        <time>2026-08-24T13:18:14Z</time>
      </trkpt>
      <trkpt lat="48.774304" lon="-1.158918">
        <ele>171.492</ele>
        <time>2026-08-24T13:18:15Z</time>
      </trkpt>
      <trkpt lat="48.774319" lon="-1.158920">
        <ele>171.475</ele>
        <time>2026-08-24T13:18:16Z</time>
      </trkpt>
      <trkpt lat="48.774333" lon="-1.158927">
        <ele>171.482</ele>
        <time>2026-08-24T13:18:17Z</time>
      </trkpt>
      <trkpt lat="48.774343" lon="-1.158927">
        <ele>171.560</ele>
        <time>2026-08-24T13:18:18Z</time>
      </trkpt>
      <trkpt lat="48.774352" lon="-1.158935">
        <ele>171.558</ele>
        <time>2026-08-24T13:18:19Z</time>
      </trkpt>
      <trkpt lat="48.774362" lon="-1.158944">
        <ele>171.552</ele>
        <time>2026-08-24T13:18:20Z</time>
      </trkpt>
      <trkpt lat="48.774374" lon="-1.158951">
        <ele>171.589</ele>
        <time>2026-08-24T13:18:21Z</time>
      </trkpt>
      <trkpt lat="48.774386" lon="-1.158953">
        <ele>171.511</ele>
        <time>2026-08-24T13:18:22Z</time>
      </trkpt>
      <trkpt lat="48.774399" lon="-1.158957">
        <ele>171.588</ele>
        <time>2026-08-24T13:18:23Z</time>
      </trkpt>
      <trkpt lat="48.774413" lon="-1.158964">
        <ele>171.524</ele>
        <time>2026-08-24T13:18:24Z</time>
      </trkpt>
      <trkpt lat="48.774425" lon="-1.158967">
        <ele>171.526</ele>
        <time>2026-08-24T13:18:25Z</time>
      </trkpt>
      <trkpt lat="48.774437" lon="-1.158970">
        <ele>171.609</ele>
        <time>2026-08-24T13:18:26Z</time>
      </trkpt>
      <trkpt lat="48.774454" lon="-1.158973">
        <ele>171.690</ele>
        <time>2026-08-24T13:18:27Z</time>
      </trkpt>
      <trkpt lat="48.774467" lon="-1.158979">
        <ele>171.636</ele>
        <time>2026-08-24T13:18:28Z</time>
      </trkpt>
      <trkpt lat="48.774478" lon="-1.158980">
        <ele>171.769</ele>
        <time>2026-08-24T13:18:29Z</time>
      </trkpt>
      <trkpt lat="48.774487" lon="-1.158989">
        <ele>171.866</ele>
        <time>2026-08-24T13:18:30Z</time>
      </trkpt>
      <trkpt lat="48.774495" lon="-1.158998">
        <ele>171.984</ele>
        <time>2026-08-24T13:18:31Z</time>
      </trkpt>
      <trkpt lat="48.774504" lon="-1.159008">
        <ele>171.932</ele>
        <time>2026-08-24T13:18:32Z</time>
      </trkpt>
      <trkpt lat="48.774519" lon="-1.159018">
        <ele>172.066</ele>
        <time>2026-08-24T13:18:33Z</time>
      </trkpt>
      <trkpt lat="48.774533" lon="-1.159025">
        <ele>172.123</ele>
        <time>2026-08-24T13:18:34Z</time>
      </trkpt>
      <trkpt lat="48.774544" lon="-1.159034">
        <ele>172.265</ele>
        <time>2026-08-24T13:18:35Z</time>
      </trkpt>
      <trkpt lat="48.774554" lon="-1.159043">
        <ele>172.312</ele>
        <time>2026-08-24T13:18:36Z</time>
      </trkpt>
      <trkpt lat="48.774561" lon="-1.159052">
        <ele>172.332</ele>
        <time>2026-08-24T13:18:37Z</time>
      </trkpt>
      <trkpt lat="48.774572" lon="-1.159065">
        <ele>172.305</ele>
        <time>2026-08-24T13:18:38Z</time>
      </trkpt>
      <trkpt lat="48.774587" lon="-1.159080">
        <ele>172.409</ele>
        <time>2026-08-24T13:18:39Z</time>
      </trkpt>
      <trkpt lat="48.774598" lon="-1.159093">
        <ele>172.493</ele>
        <time>2026-08-24T13:18:40Z</time>
      </trkpt>
      <trkpt lat="48.774607" lon="-1.159106">
        <ele>172.669</ele>
        <time>2026-08-24T13:18:41Z</time>
      </trkpt>
      <trkpt lat="48.774620" lon="-1.159116">
        <ele>172.962</ele>
        <time>2026-08-24T13:18:42Z</time>
      </trkpt>
      <trkpt lat="48.774633" lon="-1.159124">
        <ele>173.079</ele>
        <time>2026-08-24T13:18:43Z</time>
      </trkpt>
      <trkpt lat="48.774646" lon="-1.159134">
        <ele>173.097</ele>
        <time>2026-08-24T13:18:44Z</time>
      </trkpt>
      <trkpt lat="48.774655" lon="-1.159148">
        <ele>173.145</ele>
        <time>2026-08-24T13:18:45Z</time>
      </trkpt>
      <trkpt lat="48.774662" lon="-1.159160">
        <ele>173.139</ele>
        <time>2026-08-24T13:18:46Z</time>
      </trkpt>
      <trkpt lat="48.774676" lon="-1.159176">
        <ele>173.116</ele>
        <time>2026-08-24T13:18:48Z</time>
      </trkpt>
      <trkpt lat="48.774683" lon="-1.159185">
        <ele>173.168</ele>
        <time>2026-08-24T13:18:49Z</time>
      </trkpt>
      <trkpt lat="48.774690" lon="-1.159199">
        <ele>173.371</ele>
        <time>2026-08-24T13:18:51Z</time>
      </trkpt>
      <trkpt lat="48.774703" lon="-1.159209">
        <ele>173.441</ele>
        <time>2026-08-24T13:18:59Z</time>
      </trkpt>
      <trkpt lat="48.774717" lon="-1.159209">
        <ele>173.515</ele>
        <time>2026-08-24T13:19:00Z</time>
      </trkpt>
      <trkpt lat="48.774731" lon="-1.159215">
        <ele>173.609</ele>
        <time>2026-08-24T13:19:01Z</time>
      </trkpt>
      <trkpt lat="48.774742" lon="-1.159227">
        <ele>173.739</ele>
        <time>2026-08-24T13:19:02Z</time>
      </trkpt>
      <trkpt lat="48.774755" lon="-1.159238">
        <ele>174.025</ele>
        <time>2026-08-24T13:19:03Z</time>
      </trkpt>
      <trkpt lat="48.774767" lon="-1.159249">
        <ele>174.398</ele>
        <time>2026-08-24T13:19:04Z</time>
      </trkpt>
      <trkpt lat="48.774775" lon="-1.159262">
        <ele>174.565</ele>
        <time>2026-08-24T13:19:05Z</time>
      </trkpt>
      <trkpt lat="48.774781" lon="-1.159274">
        <ele>174.593</ele>
        <time>2026-08-24T13:19:06Z</time>
      </trkpt>
      <trkpt lat="48.774788" lon="-1.159284">
        <ele>174.641</ele>
        <time>2026-08-24T13:19:07Z</time>
      </trkpt>
      <trkpt lat="48.774796" lon="-1.159298">
        <ele>174.685</ele>
        <time>2026-08-24T13:19:08Z</time>
      </trkpt>
      <trkpt lat="48.774806" lon="-1.159312">
        <ele>174.782</ele>
        <time>2026-08-24T13:19:09Z</time>
      </trkpt>
      <trkpt lat="48.774816" lon="-1.159320">
        <ele>174.714</ele>
        <time>2026-08-24T13:19:10Z</time>
      </trkpt>
      <trkpt lat="48.774832" lon="-1.159331">
        <ele>174.877</ele>
        <time>2026-08-24T13:19:12Z</time>
      </trkpt>
      <trkpt lat="48.774841" lon="-1.159346">
        <ele>174.961</ele>
        <time>2026-08-24T13:19:13Z</time>
      </trkpt>
      <trkpt lat="48.774852" lon="-1.159356">
        <ele>175.327</ele>
        <time>2026-08-24T13:19:14Z</time>
      </trkpt>
      <trkpt lat="48.774862" lon="-1.159365">
        <ele>175.609</ele>
        <time>2026-08-24T13:19:15Z</time>
      </trkpt>
      <trkpt lat="48.774874" lon="-1.159383">
        <ele>175.769</ele>
        <time>2026-08-24T13:19:17Z</time>
      </trkpt>
      <trkpt lat="48.774884" lon="-1.159397">
        <ele>175.955</ele>
        <time>2026-08-24T13:19:18Z</time>
      </trkpt>
      <trkpt lat="48.774895" lon="-1.159403">
        <ele>176.318</ele>
        <time>2026-08-24T13:19:19Z</time>
      </trkpt>
      <trkpt lat="48.774904" lon="-1.159412">
        <ele>176.585</ele>
        <time>2026-08-24T13:19:20Z</time>
      </trkpt>
      <trkpt lat="48.774912" lon="-1.159421">
        <ele>176.683</ele>
        <time>2026-08-24T13:19:21Z</time>
      </trkpt>
      <trkpt lat="48.774920" lon="-1.159435">
        <ele>176.681</ele>
        <time>2026-08-24T13:19:22Z</time>
      </trkpt>
      <trkpt lat="48.774930" lon="-1.159455">
        <ele>176.665</ele>
        <time>2026-08-24T13:19:23Z</time>
      </trkpt>
      <trkpt lat="48.774933" lon="-1.159477">
        <ele>176.692</ele>
        <time>2026-08-24T13:19:24Z</time>
      </trkpt>
      <trkpt lat="48.774940" lon="-1.159497">
        <ele>176.724</ele>
        <time>2026-08-24T13:19:25Z</time>
      </trkpt>
      <trkpt lat="48.774946" lon="-1.159513">
        <ele>176.967</ele>
        <time>2026-08-24T13:19:26Z</time>
      </trkpt>
      <trkpt lat="48.774953" lon="-1.159523">
        <ele>176.981</ele>
        <time>2026-08-24T13:19:27Z</time>
      </trkpt>
      <trkpt lat="48.774963" lon="-1.159526">
        <ele>177.019</ele>
        <time>2026-08-24T13:19:28Z</time>
      </trkpt>
      <trkpt lat="48.774973" lon="-1.159538">
        <ele>177.009</ele>
        <time>2026-08-24T13:19:29Z</time>
      </trkpt>
      <trkpt lat="48.774979" lon="-1.159556">
        <ele>177.068</ele>
        <time>2026-08-24T13:19:30Z</time>
      </trkpt>
      <trkpt lat="48.774986" lon="-1.159575">
        <ele>177.254</ele>
        <time>2026-08-24T13:19:31Z</time>
      </trkpt>
      <trkpt lat="48.774997" lon="-1.159590">
        <ele>177.427</ele>
        <time>2026-08-24T13:19:32Z</time>
      </trkpt>
      <trkpt lat="48.775007" lon="-1.159605">
        <ele>177.424</ele>
        <time>2026-08-24T13:19:33Z</time>
      </trkpt>
      <trkpt lat="48.775017" lon="-1.159616">
        <ele>177.582</ele>
        <time>2026-08-24T13:19:34Z</time>
      </trkpt>
      <trkpt lat="48.775026" lon="-1.159618">
        <ele>177.620</ele>
        <time>2026-08-24T13:19:35Z</time>
      </trkpt>
      <trkpt lat="48.775035" lon="-1.159632">
        <ele>177.614</ele>
        <time>2026-08-24T13:19:36Z</time>
      </trkpt>
      <trkpt lat="48.775044" lon="-1.159648">
        <ele>177.761</ele>
        <time>2026-08-24T13:19:37Z</time>
      </trkpt>
      <trkpt lat="48.775054" lon="-1.159658">
        <ele>177.753</ele>
        <time>2026-08-24T13:19:38Z</time>
      </trkpt>
      <trkpt lat="48.775061" lon="-1.159667">
        <ele>177.828</ele>
        <time>2026-08-24T13:19:39Z</time>
      </trkpt>
      <trkpt lat="48.775063" lon="-1.159681">
        <ele>177.889</ele>
        <time>2026-08-24T13:19:40Z</time>
      </trkpt>
      <trkpt lat="48.775071" lon="-1.159698">
        <ele>177.917</ele>
        <time>2026-08-24T13:19:41Z</time>
      </trkpt>
      <trkpt lat="48.775079" lon="-1.159711">
        <ele>177.909</ele>
        <time>2026-08-24T13:19:42Z</time>
      </trkpt>
      <trkpt lat="48.775091" lon="-1.159723">
        <ele>178.054</ele>
        <time>2026-08-24T13:19:43Z</time>
      </trkpt>
      <trkpt lat="48.775099" lon="-1.159739">
        <ele>178.150</ele>
        <time>2026-08-24T13:19:44Z</time>
      </trkpt>
      <trkpt lat="48.775107" lon="-1.159752">
        <ele>178.233</ele>
        <time>2026-08-24T13:19:45Z</time>
      </trkpt>
      <trkpt lat="48.775112" lon="-1.159764">
        <ele>178.470</ele>
        <time>2026-08-24T13:19:46Z</time>
      </trkpt>
      <trkpt lat="48.775126" lon="-1.159790">
        <ele>178.588</ele>
        <time>2026-08-24T13:19:48Z</time>
      </trkpt>
      <trkpt lat="48.775140" lon="-1.159808">
        <ele>178.786</ele>
        <time>2026-08-24T13:19:50Z</time>
      </trkpt>
      <trkpt lat="48.775146" lon="-1.159824">
        <ele>178.810</ele>
        <time>2026-08-24T13:19:51Z</time>
      </trkpt>
      <trkpt lat="48.775153" lon="-1.159839">
        <ele>178.937</ele>
        <time>2026-08-24T13:19:52Z</time>
      </trkpt>
      <trkpt lat="48.775164" lon="-1.159857">
        <ele>179.079</ele>
        <time>2026-08-24T13:19:53Z</time>
      </trkpt>
      <trkpt lat="48.775170" lon="-1.159871">
        <ele>179.279</ele>
        <time>2026-08-24T13:19:54Z</time>
      </trkpt>
      <trkpt lat="48.775176" lon="-1.159886">
        <ele>179.405</ele>
        <time>2026-08-24T13:19:55Z</time>
      </trkpt>
      <trkpt lat="48.775183" lon="-1.159907">
        <ele>179.625</ele>
        <time>2026-08-24T13:19:56Z</time>
      </trkpt>
      <trkpt lat="48.775190" lon="-1.159923">
        <ele>179.909</ele>
        <time>2026-08-24T13:19:57Z</time>
      </trkpt>
      <trkpt lat="48.775198" lon="-1.159931">
        <ele>180.299</ele>
        <time>2026-08-24T13:19:58Z</time>
      </trkpt>
      <trkpt lat="48.775203" lon="-1.159943">
        <ele>180.335</ele>
        <time>2026-08-24T13:19:59Z</time>
      </trkpt>
      <trkpt lat="48.775227" lon="-1.159957">
        <ele>180.398</ele>
        <time>2026-08-24T13:20:01Z</time>
      </trkpt>
      <trkpt lat="48.775235" lon="-1.159966">
        <ele>180.415</ele>
        <time>2026-08-24T13:20:02Z</time>
      </trkpt>
      <trkpt lat="48.775246" lon="-1.159978">
        <ele>180.693</ele>
        <time>2026-08-24T13:20:03Z</time>
      </trkpt>
      <trkpt lat="48.775254" lon="-1.159987">
        <ele>180.871</ele>
        <time>2026-08-24T13:20:04Z</time>
      </trkpt>
      <trkpt lat="48.775262" lon="-1.160001">
        <ele>181.045</ele>
        <time>2026-08-24T13:20:05Z</time>
      </trkpt>
      <trkpt lat="48.775275" lon="-1.160014">
        <ele>181.342</ele>
        <time>2026-08-24T13:20:06Z</time>
      </trkpt>
      <trkpt lat="48.775287" lon="-1.160025">
        <ele>181.644</ele>
        <time>2026-08-24T13:20:07Z</time>
      </trkpt>
      <trkpt lat="48.775299" lon="-1.160036">
        <ele>182.078</ele>
        <time>2026-08-24T13:20:08Z</time>
      </trkpt>
      <trkpt lat="48.775310" lon="-1.160041">
        <ele>182.333</ele>
        <time>2026-08-24T13:20:09Z</time>
      </trkpt>
      <trkpt lat="48.775323" lon="-1.160048">
        <ele>182.526</ele>
        <time>2026-08-24T13:20:10Z</time>
      </trkpt>
      <trkpt lat="48.775336" lon="-1.160058">
        <ele>182.609</ele>
        <time>2026-08-24T13:20:11Z</time>
      </trkpt>
      <trkpt lat="48.775349" lon="-1.160072">
        <ele>182.679</ele>
        <time>2026-08-24T13:20:12Z</time>
      </trkpt>
      <trkpt lat="48.775357" lon="-1.160085">
        <ele>182.885</ele>
        <time>2026-08-24T13:20:13Z</time>
      </trkpt>
      <trkpt lat="48.775368" lon="-1.160098">
        <ele>183.038</ele>
        <time>2026-08-24T13:20:14Z</time>
      </trkpt>
      <trkpt lat="48.775386" lon="-1.160116">
        <ele>183.395</ele>
        <time>2026-08-24T13:20:16Z</time>
      </trkpt>
      <trkpt lat="48.775392" lon="-1.160127">
        <ele>183.673</ele>
        <time>2026-08-24T13:20:17Z</time>
      </trkpt>
      <trkpt lat="48.775407" lon="-1.160150">
        <ele>183.891</ele>
        <time>2026-08-24T13:20:18Z</time>
      </trkpt>
      <trkpt lat="48.775414" lon="-1.160163">
        <ele>184.015</ele>
        <time>2026-08-24T13:20:19Z</time>
      </trkpt>
      <trkpt lat="48.775422" lon="-1.160180">
        <ele>184.052</ele>
        <time>2026-08-24T13:20:20Z</time>
      </trkpt>
      <trkpt lat="48.775425" lon="-1.160197">
        <ele>184.184</ele>
        <time>2026-08-24T13:20:21Z</time>
      </trkpt>
      <trkpt lat="48.775431" lon="-1.160214">
        <ele>184.186</ele>
        <time>2026-08-24T13:20:22Z</time>
      </trkpt>
      <trkpt lat="48.775436" lon="-1.160231">
        <ele>184.260</ele>
        <time>2026-08-24T13:20:23Z</time>
      </trkpt>
      <trkpt lat="48.775442" lon="-1.160247">
        <ele>184.326</ele>
        <time>2026-08-24T13:20:24Z</time>
      </trkpt>
      <trkpt lat="48.775451" lon="-1.160258">
        <ele>184.409</ele>
        <time>2026-08-24T13:20:25Z</time>
      </trkpt>
      <trkpt lat="48.775463" lon="-1.160272">
        <ele>184.420</ele>
        <time>2026-08-24T13:20:26Z</time>
      </trkpt>
      <trkpt lat="48.775471" lon="-1.160285">
        <ele>184.426</ele>
        <time>2026-08-24T13:20:27Z</time>
      </trkpt>
      <trkpt lat="48.775484" lon="-1.160304">
        <ele>184.549</ele>
        <time>2026-08-24T13:20:29Z</time>
      </trkpt>
      <trkpt lat="48.775496" lon="-1.160326">
        <ele>184.566</ele>
        <time>2026-08-24T13:20:30Z</time>
      </trkpt>
      <trkpt lat="48.775507" lon="-1.160339">
        <ele>184.564</ele>
        <time>2026-08-24T13:20:31Z</time>
      </trkpt>
      <trkpt lat="48.775516" lon="-1.160356">
        <ele>184.652</ele>
        <time>2026-08-24T13:20:32Z</time>
      </trkpt>
      <trkpt lat="48.775524" lon="-1.160372">
        <ele>184.686</ele>
        <time>2026-08-24T13:20:33Z</time>
      </trkpt>
      <trkpt lat="48.775532" lon="-1.160393">
        <ele>184.773</ele>
        <time>2026-08-24T13:20:34Z</time>
      </trkpt>
      <trkpt lat="48.775541" lon="-1.160409">
        <ele>184.765</ele>
        <time>2026-08-24T13:20:35Z</time>
      </trkpt>
      <trkpt lat="48.775549" lon="-1.160432">
        <ele>184.774</ele>
        <time>2026-08-24T13:20:36Z</time>
      </trkpt>
      <trkpt lat="48.775555" lon="-1.160450">
        <ele>184.856</ele>
        <time>2026-08-24T13:20:37Z</time>
      </trkpt>
      <trkpt lat="48.775560" lon="-1.160466">
        <ele>184.821</ele>
        <time>2026-08-24T13:20:38Z</time>
      </trkpt>
      <trkpt lat="48.775565" lon="-1.160485">
        <ele>184.809</ele>
        <time>2026-08-24T13:20:39Z</time>
      </trkpt>
      <trkpt lat="48.775573" lon="-1.160501">
        <ele>184.889</ele>
        <time>2026-08-24T13:20:40Z</time>
      </trkpt>
      <trkpt lat="48.775582" lon="-1.160519">
        <ele>184.855</ele>
        <time>2026-08-24T13:20:41Z</time>
      </trkpt>
      <trkpt lat="48.775587" lon="-1.160536">
        <ele>184.988</ele>
        <time>2026-08-24T13:20:42Z</time>
      </trkpt>
      <trkpt lat="48.775595" lon="-1.160551">
        <ele>185.015</ele>
        <time>2026-08-24T13:20:43Z</time>
      </trkpt>
      <trkpt lat="48.775603" lon="-1.160563">
        <ele>185.483</ele>
        <time>2026-08-24T13:20:44Z</time>
      </trkpt>
      <trkpt lat="48.775612" lon="-1.160575">
        <ele>185.831</ele>
        <time>2026-08-24T13:20:45Z</time>
      </trkpt>
      <trkpt lat="48.775618" lon="-1.160592">
        <ele>186.215</ele>
        <time>2026-08-24T13:20:46Z</time>
      </trkpt>
      <trkpt lat="48.775627" lon="-1.160611">
        <ele>186.792</ele>
        <time>2026-08-24T13:20:47Z</time>
      </trkpt>
      <trkpt lat="48.775638" lon="-1.160632">
        <ele>187.034</ele>
        <time>2026-08-24T13:20:49Z</time>
      </trkpt>
      <trkpt lat="48.775648" lon="-1.160643">
        <ele>187.179</ele>
        <time>2026-08-24T13:20:50Z</time>
      </trkpt>
      <trkpt lat="48.775655" lon="-1.160660">
        <ele>187.205</ele>
        <time>2026-08-24T13:20:51Z</time>
      </trkpt>
      <trkpt lat="48.775661" lon="-1.160675">
        <ele>187.325</ele>
        <time>2026-08-24T13:20:52Z</time>
      </trkpt>
      <trkpt lat="48.775669" lon="-1.160694">
        <ele>187.309</ele>
        <time>2026-08-24T13:20:53Z</time>
      </trkpt>
      <trkpt lat="48.775675" lon="-1.160715">
        <ele>187.459</ele>
        <time>2026-08-24T13:20:54Z</time>
      </trkpt>
      <trkpt lat="48.775686" lon="-1.160740">
        <ele>187.465</ele>
        <time>2026-08-24T13:20:55Z</time>
      </trkpt>
      <trkpt lat="48.775694" lon="-1.160762">
        <ele>187.518</ele>
        <time>2026-08-24T13:20:56Z</time>
      </trkpt>
      <trkpt lat="48.775704" lon="-1.160774">
        <ele>187.515</ele>
        <time>2026-08-24T13:20:57Z</time>
      </trkpt>
      <trkpt lat="48.775709" lon="-1.160788">
        <ele>187.783</ele>
        <time>2026-08-24T13:20:58Z</time>
      </trkpt>
      <trkpt lat="48.775721" lon="-1.160818">
        <ele>187.851</ele>
        <time>2026-08-24T13:21:00Z</time>
      </trkpt>
      <trkpt lat="48.775728" lon="-1.160832">
        <ele>187.925</ele>
        <time>2026-08-24T13:21:01Z</time>
      </trkpt>
      <trkpt lat="48.775738" lon="-1.160845">
        <ele>188.072</ele>
        <time>2026-08-24T13:21:02Z</time>
      </trkpt>
      <trkpt lat="48.775751" lon="-1.160861">
        <ele>188.024</ele>
        <time>2026-08-24T13:21:03Z</time>
      </trkpt>
      <trkpt lat="48.775764" lon="-1.160872">
        <ele>188.246</ele>
        <time>2026-08-24T13:21:04Z</time>
      </trkpt>
      <trkpt lat="48.775777" lon="-1.160884">
        <ele>188.388</ele>
        <time>2026-08-24T13:21:05Z</time>
      </trkpt>
      <trkpt lat="48.775784" lon="-1.160897">
        <ele>188.316</ele>
        <time>2026-08-24T13:21:06Z</time>
      </trkpt>
      <trkpt lat="48.775788" lon="-1.160919">
        <ele>188.409</ele>
        <time>2026-08-24T13:21:07Z</time>
      </trkpt>
      <trkpt lat="48.775796" lon="-1.160936">
        <ele>188.586</ele>
        <time>2026-08-24T13:21:08Z</time>
      </trkpt>
      <trkpt lat="48.775807" lon="-1.160950">
        <ele>188.672</ele>
        <time>2026-08-24T13:21:09Z</time>
      </trkpt>
      <trkpt lat="48.775817" lon="-1.160961">
        <ele>188.695</ele>
        <time>2026-08-24T13:21:10Z</time>
      </trkpt>
      <trkpt lat="48.775825" lon="-1.160973">
        <ele>188.742</ele>
        <time>2026-08-24T13:21:11Z</time>
      </trkpt>
      <trkpt lat="48.775836" lon="-1.160993">
        <ele>188.930</ele>
        <time>2026-08-24T13:21:13Z</time>
      </trkpt>
      <trkpt lat="48.775845" lon="-1.161007">
        <ele>189.068</ele>
        <time>2026-08-24T13:21:14Z</time>
      </trkpt>
      <trkpt lat="48.775858" lon="-1.161020">
        <ele>189.272</ele>
        <time>2026-08-24T13:21:15Z</time>
      </trkpt>
      <trkpt lat="48.775868" lon="-1.161035">
        <ele>189.419</ele>
        <time>2026-08-24T13:21:16Z</time>
      </trkpt>
      <trkpt lat="48.775878" lon="-1.161044">
        <ele>189.551</ele>
        <time>2026-08-24T13:21:17Z</time>
      </trkpt>
      <trkpt lat="48.775889" lon="-1.161053">
        <ele>189.736</ele>
        <time>2026-08-24T13:21:18Z</time>
      </trkpt>
      <trkpt lat="48.775898" lon="-1.161063">
        <ele>189.917</ele>
        <time>2026-08-24T13:21:19Z</time>
      </trkpt>
      <trkpt lat="48.775908" lon="-1.161075">
        <ele>190.118</ele>
        <time>2026-08-24T13:21:20Z</time>
      </trkpt>
      <trkpt lat="48.775919" lon="-1.161090">
        <ele>190.409</ele>
        <time>2026-08-24T13:21:21Z</time>
      </trkpt>
      <trkpt lat="48.775931" lon="-1.161107">
        <ele>190.465</ele>
        <time>2026-08-24T13:21:22Z</time>
      </trkpt>
      <trkpt lat="48.775942" lon="-1.161117">
        <ele>190.431</ele>
        <time>2026-08-24T13:21:23Z</time>
      </trkpt>
      <trkpt lat="48.775950" lon="-1.161126">
        <ele>190.524</ele>
        <time>2026-08-24T13:21:24Z</time>
      </trkpt>
      <trkpt lat="48.775955" lon="-1.161139">
        <ele>190.581</ele>
        <time>2026-08-24T13:21:25Z</time>
      </trkpt>
      <trkpt lat="48.775960" lon="-1.161153">
        <ele>190.579</ele>
        <time>2026-08-24T13:21:26Z</time>
      </trkpt>
      <trkpt lat="48.775968" lon="-1.161165">
        <ele>190.517</ele>
        <time>2026-08-24T13:21:27Z</time>
      </trkpt>
      <trkpt lat="48.775975" lon="-1.161182">
        <ele>190.531</ele>
        <time>2026-08-24T13:21:28Z</time>
      </trkpt>
      <trkpt lat="48.775984" lon="-1.161194">
        <ele>190.528</ele>
        <time>2026-08-24T13:21:29Z</time>
      </trkpt>
      <trkpt lat="48.775993" lon="-1.161206">
        <ele>190.550</ele>
        <time>2026-08-24T13:21:30Z</time>
      </trkpt>
      <trkpt lat="48.776001" lon="-1.161220">
        <ele>190.587</ele>
        <time>2026-08-24T13:21:31Z</time>
      </trkpt>
      <trkpt lat="48.776010" lon="-1.161233">
        <ele>190.542</ele>
        <time>2026-08-24T13:21:32Z</time>
      </trkpt>
      <trkpt lat="48.776022" lon="-1.161241">
        <ele>190.626</ele>
        <time>2026-08-24T13:21:33Z</time>
      </trkpt>
      <trkpt lat="48.776032" lon="-1.161250">
        <ele>190.609</ele>
        <time>2026-08-24T13:21:34Z</time>
      </trkpt>
      <trkpt lat="48.776043" lon="-1.161258">
        <ele>190.650</ele>
        <time>2026-08-24T13:21:35Z</time>
      </trkpt>
      <trkpt lat="48.776059" lon="-1.161265">
        <ele>190.666</ele>
        <time>2026-08-24T13:21:36Z</time>
      </trkpt>
      <trkpt lat="48.776072" lon="-1.161269">
        <ele>190.689</ele>
        <time>2026-08-24T13:21:37Z</time>
      </trkpt>
      <trkpt lat="48.776084" lon="-1.161270">
        <ele>190.666</ele>
        <time>2026-08-24T13:21:38Z</time>
      </trkpt>
      <trkpt lat="48.776092" lon="-1.161276">
        <ele>190.684</ele>
        <time>2026-08-24T13:21:39Z</time>
      </trkpt>
      <trkpt lat="48.776111" lon="-1.161292">
        <ele>190.612</ele>
        <time>2026-08-24T13:21:41Z</time>
      </trkpt>
      <trkpt lat="48.776126" lon="-1.161301">
        <ele>190.646</ele>
        <time>2026-08-24T13:21:42Z</time>
      </trkpt>
      <trkpt lat="48.776143" lon="-1.161307">
        <ele>190.613</ele>
        <time>2026-08-24T13:21:43Z</time>
      </trkpt>
      <trkpt lat="48.776159" lon="-1.161313">
        <ele>190.615</ele>
        <time>2026-08-24T13:21:44Z</time>
      </trkpt>
      <trkpt lat="48.776172" lon="-1.161318">
        <ele>190.646</ele>
        <time>2026-08-24T13:21:45Z</time>
      </trkpt>
      <trkpt lat="48.776186" lon="-1.161319">
        <ele>190.688</ele>
        <time>2026-08-24T13:21:46Z</time>
      </trkpt>
      <trkpt lat="48.776201" lon="-1.161324">
        <ele>190.716</ele>
        <time>2026-08-24T13:21:48Z</time>
      </trkpt>
      <trkpt lat="48.776221" lon="-1.161302">
        <ele>190.709</ele>
        <time>2026-08-24T13:21:50Z</time>
      </trkpt>
      <trkpt lat="48.776233" lon="-1.161290">
        <ele>190.736</ele>
        <time>2026-08-24T13:21:51Z</time>
      </trkpt>
      <trkpt lat="48.776241" lon="-1.161279">
        <ele>190.722</ele>
        <time>2026-08-24T13:21:52Z</time>
      </trkpt>
      <trkpt lat="48.776253" lon="-1.161272">
        <ele>190.715</ele>
        <time>2026-08-24T13:21:53Z</time>
      </trkpt>
      <trkpt lat="48.776263" lon="-1.161261">
        <ele>190.712</ele>
        <time>2026-08-24T13:21:54Z</time>
      </trkpt>
      <trkpt lat="48.776270" lon="-1.161249">
        <ele>190.780</ele>
        <time>2026-08-24T13:21:55Z</time>
      </trkpt>
      <trkpt lat="48.776279" lon="-1.161231">
        <ele>190.778</ele>
        <time>2026-08-24T13:21:56Z</time>
      </trkpt>
      <trkpt lat="48.776289" lon="-1.161211">
        <ele>190.712</ele>
        <time>2026-08-24T13:21:57Z</time>
      </trkpt>
      <trkpt lat="48.776301" lon="-1.161194">
        <ele>190.759</ele>
        <time>2026-08-24T13:21:58Z</time>
      </trkpt>
      <trkpt lat="48.776312" lon="-1.161184">
        <ele>190.781</ele>
        <time>2026-08-24T13:21:59Z</time>
      </trkpt>
      <trkpt lat="48.776321" lon="-1.161178">
        <ele>190.755</ele>
        <time>2026-08-24T13:22:00Z</time>
      </trkpt>
      <trkpt lat="48.776329" lon="-1.161170">
        <ele>190.707</ele>
        <time>2026-08-24T13:22:01Z</time>
      </trkpt>
      <trkpt lat="48.776338" lon="-1.161160">
        <ele>190.617</ele>
        <time>2026-08-24T13:22:02Z</time>
      </trkpt>
      <trkpt lat="48.776346" lon="-1.161132">
        <ele>190.609</ele>
        <time>2026-08-24T13:22:04Z</time>
      </trkpt>
      <trkpt lat="48.776356" lon="-1.161115">
        <ele>190.667</ele>
        <time>2026-08-24T13:22:05Z</time>
      </trkpt>
      <trkpt lat="48.776366" lon="-1.161103">
        <ele>190.673</ele>
        <time>2026-08-24T13:22:06Z</time>
      </trkpt>
      <trkpt lat="48.776375" lon="-1.161091">
        <ele>190.696</ele>
        <time>2026-08-24T13:22:07Z</time>
      </trkpt>
      <trkpt lat="48.776383" lon="-1.161081">
        <ele>190.723</ele>
        <time>2026-08-24T13:22:08Z</time>
      </trkpt>
      <trkpt lat="48.776386" lon="-1.161066">
        <ele>190.861</ele>
        <time>2026-08-24T13:22:10Z</time>
      </trkpt>
      <trkpt lat="48.776387" lon="-1.161052">
        <ele>190.879</ele>
        <time>2026-08-24T13:22:13Z</time>
      </trkpt>
      <trkpt lat="48.776402" lon="-1.161049">
        <ele>190.923</ele>
        <time>2026-08-24T13:22:27Z</time>
      </trkpt>
      <trkpt lat="48.776412" lon="-1.161040">
        <ele>190.960</ele>
        <time>2026-08-24T13:22:28Z</time>
      </trkpt>
      <trkpt lat="48.776423" lon="-1.161027">
        <ele>190.922</ele>
        <time>2026-08-24T13:22:29Z</time>
      </trkpt>
      <trkpt lat="48.776431" lon="-1.161014">
        <ele>190.967</ele>
        <time>2026-08-24T13:22:30Z</time>
      </trkpt>
      <trkpt lat="48.776440" lon="-1.161003">
        <ele>190.881</ele>
        <time>2026-08-24T13:22:31Z</time>
      </trkpt>
      <trkpt lat="48.776453" lon="-1.160986">
        <ele>190.719</ele>
        <time>2026-08-24T13:22:32Z</time>
      </trkpt>
      <trkpt lat="48.776469" lon="-1.160975">
        <ele>190.609</ele>
        <time>2026-08-24T13:22:33Z</time>
      </trkpt>
      <trkpt lat="48.776479" lon="-1.160960">
        <ele>190.628</ele>
        <time>2026-08-24T13:22:34Z</time>
      </trkpt>
      <trkpt lat="48.776487" lon="-1.160948">
        <ele>190.654</ele>
        <time>2026-08-24T13:22:35Z</time>
      </trkpt>
      <trkpt lat="48.776494" lon="-1.160937">
        <ele>190.627</ele>
        <time>2026-08-24T13:22:36Z</time>
      </trkpt>
      <trkpt lat="48.776504" lon="-1.160929">
        <ele>190.814</ele>
        <time>2026-08-24T13:22:37Z</time>
      </trkpt>
      <trkpt lat="48.776514" lon="-1.160920">
        <ele>190.912</ele>
        <time>2026-08-24T13:22:38Z</time>
      </trkpt>
      <trkpt lat="48.776525" lon="-1.160905">
        <ele>191.010</ele>
        <time>2026-08-24T13:22:39Z</time>
      </trkpt>
      <trkpt lat="48.776543" lon="-1.160897">
        <ele>191.244</ele>
        <time>2026-08-24T13:22:40Z</time>
      </trkpt>
      <trkpt lat="48.776557" lon="-1.160885">
        <ele>191.231</ele>
        <time>2026-08-24T13:22:41Z</time>
      </trkpt>
      <trkpt lat="48.776566" lon="-1.160870">
        <ele>191.313</ele>
        <time>2026-08-24T13:22:42Z</time>
      </trkpt>
      <trkpt lat="48.776573" lon="-1.160855">
        <ele>191.354</ele>
        <time>2026-08-24T13:22:43Z</time>
      </trkpt>
      <trkpt lat="48.776576" lon="-1.160839">
        <ele>191.456</ele>
        <time>2026-08-24T13:22:44Z</time>
      </trkpt>
      <trkpt lat="48.776581" lon="-1.160825">
        <ele>191.411</ele>
        <time>2026-08-24T13:22:45Z</time>
      </trkpt>
      <trkpt lat="48.776590" lon="-1.160811">
        <ele>191.409</ele>
        <time>2026-08-24T13:22:46Z</time>
      </trkpt>
      <trkpt lat="48.776597" lon="-1.160803">
        <ele>191.547</ele>
        <time>2026-08-24T13:22:47Z</time>
      </trkpt>
      <trkpt lat="48.776607" lon="-1.160797">
        <ele>191.713</ele>
        <time>2026-08-24T13:22:48Z</time>
      </trkpt>
      <trkpt lat="48.776622" lon="-1.160780">
        <ele>191.776</ele>
        <time>2026-08-24T13:22:49Z</time>
      </trkpt>
      <trkpt lat="48.776631" lon="-1.160769">
        <ele>191.883</ele>
        <time>2026-08-24T13:22:50Z</time>
      </trkpt>
      <trkpt lat="48.776649" lon="-1.160757">
        <ele>191.921</ele>
        <time>2026-08-24T13:22:52Z</time>
      </trkpt>
      <trkpt lat="48.776659" lon="-1.160748">
        <ele>192.049</ele>
        <time>2026-08-24T13:22:53Z</time>
      </trkpt>
      <trkpt lat="48.776672" lon="-1.160736">
        <ele>192.363</ele>
        <time>2026-08-24T13:22:54Z</time>
      </trkpt>
      <trkpt lat="48.776683" lon="-1.160724">
        <ele>192.810</ele>
        <time>2026-08-24T13:22:55Z</time>
      </trkpt>
      <trkpt lat="48.776692" lon="-1.160709">
        <ele>193.272</ele>
        <time>2026-08-24T13:22:56Z</time>
      </trkpt>
      <trkpt lat="48.776704" lon="-1.160703">
        <ele>193.564</ele>
        <time>2026-08-24T13:22:57Z</time>
      </trkpt>
      <trkpt lat="48.776713" lon="-1.160695">
        <ele>193.606</ele>
        <time>2026-08-24T13:22:58Z</time>
      </trkpt>
      <trkpt lat="48.776722" lon="-1.160680">
        <ele>193.816</ele>
        <time>2026-08-24T13:22:59Z</time>
      </trkpt>
      <trkpt lat="48.776733" lon="-1.160666">
        <ele>194.009</ele>
        <time>2026-08-24T13:23:00Z</time>
      </trkpt>
      <trkpt lat="48.776743" lon="-1.160653">
        <ele>194.168</ele>
        <time>2026-08-24T13:23:01Z</time>
      </trkpt>
      <trkpt lat="48.776754" lon="-1.160641">
        <ele>194.224</ele>
        <time>2026-08-24T13:23:02Z</time>
      </trkpt>
      <trkpt lat="48.776767" lon="-1.160629">
        <ele>194.367</ele>
        <time>2026-08-24T13:23:03Z</time>
      </trkpt>
      <trkpt lat="48.776775" lon="-1.160614">
        <ele>194.444</ele>
        <time>2026-08-24T13:23:04Z</time>
      </trkpt>
      <trkpt lat="48.776779" lon="-1.160600">
        <ele>194.572</ele>
        <time>2026-08-24T13:23:05Z</time>
      </trkpt>
      <trkpt lat="48.776786" lon="-1.160577">
        <ele>194.620</ele>
        <time>2026-08-24T13:23:07Z</time>
      </trkpt>
      <trkpt lat="48.776794" lon="-1.160563">
        <ele>194.614</ele>
        <time>2026-08-24T13:23:08Z</time>
      </trkpt>
      <trkpt lat="48.776804" lon="-1.160550">
        <ele>194.631</ele>
        <time>2026-08-24T13:23:09Z</time>
      </trkpt>
      <trkpt lat="48.776811" lon="-1.160538">
        <ele>194.773</ele>
        <time>2026-08-24T13:23:10Z</time>
      </trkpt>
      <trkpt lat="48.776821" lon="-1.160527">
        <ele>194.787</ele>
        <time>2026-08-24T13:23:11Z</time>
      </trkpt>
      <trkpt lat="48.776832" lon="-1.160519">
        <ele>194.742</ele>
        <time>2026-08-24T13:23:12Z</time>
      </trkpt>
      <trkpt lat="48.776842" lon="-1.160508">
        <ele>194.826</ele>
        <time>2026-08-24T13:23:13Z</time>
      </trkpt>
      <trkpt lat="48.776853" lon="-1.160494">
        <ele>194.809</ele>
        <time>2026-08-24T13:23:14Z</time>
      </trkpt>
      <trkpt lat="48.776864" lon="-1.160477">
        <ele>194.920</ele>
        <time>2026-08-24T13:23:15Z</time>
      </trkpt>
      <trkpt lat="48.776876" lon="-1.160465">
        <ele>194.926</ele>
        <time>2026-08-24T13:23:16Z</time>
      </trkpt>
      <trkpt lat="48.776890" lon="-1.160456">
        <ele>195.029</ele>
        <time>2026-08-24T13:23:17Z</time>
      </trkpt>
      <trkpt lat="48.776903" lon="-1.160445">
        <ele>195.156</ele>
        <time>2026-08-24T13:23:18Z</time>
      </trkpt>
      <trkpt lat="48.776911" lon="-1.160431">
        <ele>195.144</ele>
        <time>2026-08-24T13:23:19Z</time>
      </trkpt>
      <trkpt lat="48.776919" lon="-1.160412">
        <ele>195.282</ele>
        <time>2026-08-24T13:23:20Z</time>
      </trkpt>
      <trkpt lat="48.776934" lon="-1.160395">
        <ele>195.296</ele>
        <time>2026-08-24T13:23:21Z</time>
      </trkpt>
      <trkpt lat="48.776949" lon="-1.160380">
        <ele>195.213</ele>
        <time>2026-08-24T13:23:22Z</time>
      </trkpt>
      <trkpt lat="48.776957" lon="-1.160369">
        <ele>195.275</ele>
        <time>2026-08-24T13:23:23Z</time>
      </trkpt>
      <trkpt lat="48.776967" lon="-1.160355">
        <ele>195.261</ele>
        <time>2026-08-24T13:23:24Z</time>
      </trkpt>
      <trkpt lat="48.776976" lon="-1.160343">
        <ele>195.321</ele>
        <time>2026-08-24T13:23:25Z</time>
      </trkpt>
      <trkpt lat="48.776983" lon="-1.160333">
        <ele>195.313</ele>
        <time>2026-08-24T13:23:26Z</time>
      </trkpt>
      <trkpt lat="48.776993" lon="-1.160321">
        <ele>195.309</ele>
        <time>2026-08-24T13:23:27Z</time>
      </trkpt>
      <trkpt lat="48.777004" lon="-1.160303">
        <ele>195.318</ele>
        <time>2026-08-24T13:23:28Z</time>
      </trkpt>
      <trkpt lat="48.777012" lon="-1.160285">
        <ele>195.354</ele>
        <time>2026-08-24T13:23:29Z</time>
      </trkpt>
      <trkpt lat="48.777018" lon="-1.160267">
        <ele>195.417</ele>
        <time>2026-08-24T13:23:30Z</time>
      </trkpt>
      <trkpt lat="48.777026" lon="-1.160254">
        <ele>195.474</ele>
        <time>2026-08-24T13:23:31Z</time>
      </trkpt>
      <trkpt lat="48.777033" lon="-1.160244">
        <ele>195.452</ele>
        <time>2026-08-24T13:23:32Z</time>
      </trkpt>
      <trkpt lat="48.777044" lon="-1.160229">
        <ele>195.460</ele>
        <time>2026-08-24T13:23:34Z</time>
      </trkpt>
      <trkpt lat="48.777049" lon="-1.160213">
        <ele>195.444</ele>
        <time>2026-08-24T13:23:35Z</time>
      </trkpt>
      <trkpt lat="48.777055" lon="-1.160198">
        <ele>195.471</ele>
        <time>2026-08-24T13:23:36Z</time>
      </trkpt>
      <trkpt lat="48.777064" lon="-1.160190">
        <ele>195.463</ele>
        <time>2026-08-24T13:23:37Z</time>
      </trkpt>
      <trkpt lat="48.777072" lon="-1.160180">
        <ele>195.595</ele>
        <time>2026-08-24T13:23:38Z</time>
      </trkpt>
      <trkpt lat="48.777080" lon="-1.160168">
        <ele>195.549</ele>
        <time>2026-08-24T13:23:39Z</time>
      </trkpt>
      <trkpt lat="48.777093" lon="-1.160152">
        <ele>195.523</ele>
        <time>2026-08-24T13:23:40Z</time>
      </trkpt>
      <trkpt lat="48.777108" lon="-1.160135">
        <ele>195.609</ele>
        <time>2026-08-24T13:23:41Z</time>
      </trkpt>
      <trkpt lat="48.777121" lon="-1.160121">
        <ele>195.641</ele>
        <time>2026-08-24T13:23:42Z</time>
      </trkpt>
      <trkpt lat="48.777129" lon="-1.160112">
        <ele>195.747</ele>
        <time>2026-08-24T13:23:43Z</time>
      </trkpt>
      <trkpt lat="48.777137" lon="-1.160099">
        <ele>195.870</ele>
        <time>2026-08-24T13:23:44Z</time>
      </trkpt>
      <trkpt lat="48.777146" lon="-1.160084">
        <ele>196.047</ele>
        <time>2026-08-24T13:23:45Z</time>
      </trkpt>
      <trkpt lat="48.777150" lon="-1.160072">
        <ele>196.175</ele>
        <time>2026-08-24T13:23:46Z</time>
      </trkpt>
      <trkpt lat="48.777163" lon="-1.160053">
        <ele>196.543</ele>
        <time>2026-08-24T13:23:48Z</time>
      </trkpt>
      <trkpt lat="48.777170" lon="-1.160041">
        <ele>196.827</ele>
        <time>2026-08-24T13:23:49Z</time>
      </trkpt>
      <trkpt lat="48.777180" lon="-1.160028">
        <ele>196.984</ele>
        <time>2026-08-24T13:23:50Z</time>
      </trkpt>
      <trkpt lat="48.777188" lon="-1.160016">
        <ele>197.096</ele>
        <time>2026-08-24T13:23:51Z</time>
      </trkpt>
      <trkpt lat="48.777203" lon="-1.159995">
        <ele>197.214</ele>
        <time>2026-08-24T13:23:53Z</time>
      </trkpt>
      <trkpt lat="48.777208" lon="-1.159983">
        <ele>197.354</ele>
        <time>2026-08-24T13:23:54Z</time>
      </trkpt>
      <trkpt lat="48.777221" lon="-1.159967">
        <ele>197.309</ele>
        <time>2026-08-24T13:23:55Z</time>
      </trkpt>
      <trkpt lat="48.777233" lon="-1.159950">
        <ele>197.409</ele>
        <time>2026-08-24T13:23:56Z</time>
      </trkpt>
      <trkpt lat="48.777248" lon="-1.159938">
        <ele>197.413</ele>
        <time>2026-08-24T13:23:57Z</time>
      </trkpt>
      <trkpt lat="48.777261" lon="-1.159924">
        <ele>197.579</ele>
        <time>2026-08-24T13:23:58Z</time>
      </trkpt>
      <trkpt lat="48.777273" lon="-1.159911">
        <ele>197.632</ele>
        <time>2026-08-24T13:23:59Z</time>
      </trkpt>
      <trkpt lat="48.777285" lon="-1.159899">
        <ele>197.659</ele>
        <time>2026-08-24T13:24:00Z</time>
      </trkpt>
      <trkpt lat="48.777290" lon="-1.159883">
        <ele>197.727</ele>
        <time>2026-08-24T13:24:01Z</time>
      </trkpt>
      <trkpt lat="48.777298" lon="-1.159869">
        <ele>197.715</ele>
        <time>2026-08-24T13:24:02Z</time>
      </trkpt>
      <trkpt lat="48.777309" lon="-1.159855">
        <ele>197.819</ele>
        <time>2026-08-24T13:24:03Z</time>
      </trkpt>
      <trkpt lat="48.777319" lon="-1.159841">
        <ele>197.996</ele>
        <time>2026-08-24T13:24:04Z</time>
      </trkpt>
      <trkpt lat="48.777330" lon="-1.159826">
        <ele>198.058</ele>
        <time>2026-08-24T13:24:05Z</time>
      </trkpt>
      <trkpt lat="48.777342" lon="-1.159816">
        <ele>198.298</ele>
        <time>2026-08-24T13:24:06Z</time>
      </trkpt>
      <trkpt lat="48.777351" lon="-1.159804">
        <ele>198.315</ele>
        <time>2026-08-24T13:24:07Z</time>
      </trkpt>
      <trkpt lat="48.777367" lon="-1.159786">
        <ele>198.426</ele>
        <time>2026-08-24T13:24:09Z</time>
      </trkpt>
      <trkpt lat="48.777378" lon="-1.159774">
        <ele>198.409</ele>
        <time>2026-08-24T13:24:10Z</time>
      </trkpt>
      <trkpt lat="48.777386" lon="-1.159757">
        <ele>198.541</ele>
        <time>2026-08-24T13:24:11Z</time>
      </trkpt>
      <trkpt lat="48.777396" lon="-1.159733">
        <ele>198.557</ele>
        <time>2026-08-24T13:24:12Z</time>
      </trkpt>
      <trkpt lat="48.777409" lon="-1.159717">
        <ele>198.580</ele>
        <time>2026-08-24T13:24:13Z</time>
      </trkpt>
      <trkpt lat="48.777418" lon="-1.159706">
        <ele>198.677</ele>
        <time>2026-08-24T13:24:14Z</time>
      </trkpt>
      <trkpt lat="48.777420" lon="-1.159683">
        <ele>198.675</ele>
        <time>2026-08-24T13:24:16Z</time>
      </trkpt>
      <trkpt lat="48.777423" lon="-1.159668">
        <ele>198.753</ele>
        <time>2026-08-24T13:24:17Z</time>
      </trkpt>
      <trkpt lat="48.777427" lon="-1.159655">
        <ele>198.767</ele>
        <time>2026-08-24T13:24:18Z</time>
      </trkpt>
      <trkpt lat="48.777438" lon="-1.159642">
        <ele>198.814</ele>
        <time>2026-08-24T13:24:19Z</time>
      </trkpt>
      <trkpt lat="48.777450" lon="-1.159636">
        <ele>198.936</ele>
        <time>2026-08-24T13:24:20Z</time>
      </trkpt>
      <trkpt lat="48.777460" lon="-1.159624">
        <ele>199.042</ele>
        <time>2026-08-24T13:24:21Z</time>
      </trkpt>
      <trkpt lat="48.777469" lon="-1.159611">
        <ele>199.222</ele>
        <time>2026-08-24T13:24:22Z</time>
      </trkpt>
      <trkpt lat="48.777480" lon="-1.159597">
        <ele>199.214</ele>
        <time>2026-08-24T13:24:23Z</time>
      </trkpt>
      <trkpt lat="48.777495" lon="-1.159584">
        <ele>199.509</ele>
        <time>2026-08-24T13:24:24Z</time>
      </trkpt>
      <trkpt lat="48.777506" lon="-1.159569">
        <ele>199.726</ele>
        <time>2026-08-24T13:24:25Z</time>
      </trkpt>
      <trkpt lat="48.777518" lon="-1.159559">
        <ele>200.082</ele>
        <time>2026-08-24T13:24:26Z</time>
      </trkpt>
      <trkpt lat="48.777531" lon="-1.159549">
        <ele>200.115</ele>
        <time>2026-08-24T13:24:27Z</time>
      </trkpt>
      <trkpt lat="48.777538" lon="-1.159536">
        <ele>200.112</ele>
        <time>2026-08-24T13:24:28Z</time>
      </trkpt>
      <trkpt lat="48.777550" lon="-1.159524">
        <ele>200.250</ele>
        <time>2026-08-24T13:24:29Z</time>
      </trkpt>
      <trkpt lat="48.777559" lon="-1.159511">
        <ele>200.398</ele>
        <time>2026-08-24T13:24:30Z</time>
      </trkpt>
      <trkpt lat="48.777564" lon="-1.159496">
        <ele>200.322</ele>
        <time>2026-08-24T13:24:31Z</time>
      </trkpt>
      <trkpt lat="48.777572" lon="-1.159480">
        <ele>200.419</ele>
        <time>2026-08-24T13:24:32Z</time>
      </trkpt>
      <trkpt lat="48.777581" lon="-1.159466">
        <ele>200.451</ele>
        <time>2026-08-24T13:24:33Z</time>
      </trkpt>
      <trkpt lat="48.777595" lon="-1.159459">
        <ele>200.474</ele>
        <time>2026-08-24T13:24:34Z</time>
      </trkpt>
      <trkpt lat="48.777608" lon="-1.159453">
        <ele>200.456</ele>
        <time>2026-08-24T13:24:35Z</time>
      </trkpt>
      <trkpt lat="48.777618" lon="-1.159439">
        <ele>200.421</ele>
        <time>2026-08-24T13:24:36Z</time>
      </trkpt>
      <trkpt lat="48.777631" lon="-1.159423">
        <ele>200.409</ele>
        <time>2026-08-24T13:24:37Z</time>
      </trkpt>
      <trkpt lat="48.777641" lon="-1.159410">
        <ele>200.579</ele>
        <time>2026-08-24T13:24:38Z</time>
      </trkpt>
      <trkpt lat="48.777648" lon="-1.159401">
        <ele>200.685</ele>
        <time>2026-08-24T13:24:39Z</time>
      </trkpt>
      <trkpt lat="48.777663" lon="-1.159388">
        <ele>200.988</ele>
        <time>2026-08-24T13:24:40Z</time>
      </trkpt>
      <trkpt lat="48.777675" lon="-1.159372">
        <ele>201.445</ele>
        <time>2026-08-24T13:24:41Z</time>
      </trkpt>
      <trkpt lat="48.777686" lon="-1.159363">
        <ele>201.843</ele>
        <time>2026-08-24T13:24:42Z</time>
      </trkpt>
      <trkpt lat="48.777695" lon="-1.159353">
        <ele>202.081</ele>
        <time>2026-08-24T13:24:43Z</time>
      </trkpt>
      <trkpt lat="48.777703" lon="-1.159338">
        <ele>202.165</ele>
        <time>2026-08-24T13:24:44Z</time>
      </trkpt>
      <trkpt lat="48.777716" lon="-1.159328">
        <ele>202.282</ele>
        <time>2026-08-24T13:24:45Z</time>
      </trkpt>
      <trkpt lat="48.777728" lon="-1.159321">
        <ele>202.244</ele>
        <time>2026-08-24T13:24:46Z</time>
      </trkpt>
      <trkpt lat="48.777743" lon="-1.159316">
        <ele>202.319</ele>
        <time>2026-08-24T13:24:47Z</time>
      </trkpt>
      <trkpt lat="48.777755" lon="-1.159298">
        <ele>202.409</ele>
        <time>2026-08-24T13:24:49Z</time>
      </trkpt>
      <trkpt lat="48.777762" lon="-1.159286">
        <ele>202.419</ele>
        <time>2026-08-24T13:24:50Z</time>
      </trkpt>
      <trkpt lat="48.777771" lon="-1.159269">
        <ele>202.509</ele>
        <time>2026-08-24T13:24:51Z</time>
      </trkpt>
      <trkpt lat="48.777778" lon="-1.159257">
        <ele>202.663</ele>
        <time>2026-08-24T13:24:52Z</time>
      </trkpt>
      <trkpt lat="48.777791" lon="-1.159249">
        <ele>202.739</ele>
        <time>2026-08-24T13:24:53Z</time>
      </trkpt>
      <trkpt lat="48.777803" lon="-1.159243">
        <ele>202.822</ele>
        <time>2026-08-24T13:24:54Z</time>
      </trkpt>
      <trkpt lat="48.777817" lon="-1.159224">
        <ele>202.889</ele>
        <time>2026-08-24T13:24:56Z</time>
      </trkpt>
      <trkpt lat="48.777829" lon="-1.159211">
        <ele>202.987</ele>
        <time>2026-08-24T13:24:57Z</time>
      </trkpt>
      <trkpt lat="48.777838" lon="-1.159197">
        <ele>202.955</ele>
        <time>2026-08-24T13:24:58Z</time>
      </trkpt>
      <trkpt lat="48.777847" lon="-1.159189">
        <ele>203.039</ele>
        <time>2026-08-24T13:24:59Z</time>
      </trkpt>
      <trkpt lat="48.777859" lon="-1.159185">
        <ele>203.146</ele>
        <time>2026-08-24T13:25:00Z</time>
      </trkpt>
      <trkpt lat="48.777868" lon="-1.159177">
        <ele>203.228</ele>
        <time>2026-08-24T13:25:01Z</time>
      </trkpt>
      <trkpt lat="48.777889" lon="-1.159169">
        <ele>203.282</ele>
        <time>2026-08-24T13:25:02Z</time>
      </trkpt>
      <trkpt lat="48.777903" lon="-1.159167">
        <ele>203.343</ele>
        <time>2026-08-24T13:25:03Z</time>
      </trkpt>
      <trkpt lat="48.777913" lon="-1.159154">
        <ele>203.417</ele>
        <time>2026-08-24T13:25:04Z</time>
      </trkpt>
      <trkpt lat="48.777921" lon="-1.159144">
        <ele>203.609</ele>
        <time>2026-08-24T13:25:05Z</time>
      </trkpt>
      <trkpt lat="48.777934" lon="-1.159137">
        <ele>203.850</ele>
        <time>2026-08-24T13:25:06Z</time>
      </trkpt>
      <trkpt lat="48.777944" lon="-1.159134">
        <ele>203.966</ele>
        <time>2026-08-24T13:25:07Z</time>
      </trkpt>
      <trkpt lat="48.777953" lon="-1.159124">
        <ele>204.029</ele>
        <time>2026-08-24T13:25:08Z</time>
      </trkpt>
      <trkpt lat="48.777963" lon="-1.159118">
        <ele>204.136</ele>
        <time>2026-08-24T13:25:09Z</time>
      </trkpt>
      <trkpt lat="48.777977" lon="-1.159106">
        <ele>204.394</ele>
        <time>2026-08-24T13:25:10Z</time>
      </trkpt>
      <trkpt lat="48.777989" lon="-1.159092">
        <ele>204.592</ele>
        <time>2026-08-24T13:25:11Z</time>
      </trkpt>
      <trkpt lat="48.778001" lon="-1.159082">
        <ele>204.656</ele>
        <time>2026-08-24T13:25:12Z</time>
      </trkpt>
      <trkpt lat="48.778015" lon="-1.159077">
        <ele>204.613</ele>
        <time>2026-08-24T13:25:13Z</time>
      </trkpt>
      <trkpt lat="48.778027" lon="-1.159073">
        <ele>204.645</ele>
        <time>2026-08-24T13:25:14Z</time>
      </trkpt>
      <trkpt lat="48.778038" lon="-1.159065">
        <ele>204.727</ele>
        <time>2026-08-24T13:25:15Z</time>
      </trkpt>
      <trkpt lat="48.778054" lon="-1.159058">
        <ele>204.968</ele>
        <time>2026-08-24T13:25:16Z</time>
      </trkpt>
      <trkpt lat="48.778075" lon="-1.159048">
        <ele>205.014</ele>
        <time>2026-08-24T13:25:17Z</time>
      </trkpt>
      <trkpt lat="48.778085" lon="-1.159042">
        <ele>205.009</ele>
        <time>2026-08-24T13:25:18Z</time>
      </trkpt>
      <trkpt lat="48.778095" lon="-1.159037">
        <ele>205.164</ele>
        <time>2026-08-24T13:25:19Z</time>
      </trkpt>
      <trkpt lat="48.778104" lon="-1.159030">
        <ele>205.240</ele>
        <time>2026-08-24T13:25:20Z</time>
      </trkpt>
      <trkpt lat="48.778113" lon="-1.159027">
        <ele>205.233</ele>
        <time>2026-08-24T13:25:21Z</time>
      </trkpt>
      <trkpt lat="48.778123" lon="-1.159023">
        <ele>205.310</ele>
        <time>2026-08-24T13:25:22Z</time>
      </trkpt>
      <trkpt lat="48.778134" lon="-1.159013">
        <ele>205.438</ele>
        <time>2026-08-24T13:25:23Z</time>
      </trkpt>
      <trkpt lat="48.778147" lon="-1.159006">
        <ele>205.476</ele>
        <time>2026-08-24T13:25:24Z</time>
      </trkpt>
      <trkpt lat="48.778159" lon="-1.159000">
        <ele>205.550</ele>
        <time>2026-08-24T13:25:25Z</time>
      </trkpt>
      <trkpt lat="48.778171" lon="-1.158993">
        <ele>205.677</ele>
        <time>2026-08-24T13:25:26Z</time>
      </trkpt>
      <trkpt lat="48.778181" lon="-1.158988">
        <ele>205.619</ele>
        <time>2026-08-24T13:25:27Z</time>
      </trkpt>
      <trkpt lat="48.778193" lon="-1.158981">
        <ele>205.849</ele>
        <time>2026-08-24T13:25:28Z</time>
      </trkpt>
      <trkpt lat="48.778207" lon="-1.158971">
        <ele>206.002</ele>
        <time>2026-08-24T13:25:29Z</time>
      </trkpt>
      <trkpt lat="48.778219" lon="-1.158959">
        <ele>206.122</ele>
        <time>2026-08-24T13:25:30Z</time>
      </trkpt>
      <trkpt lat="48.778231" lon="-1.158951">
        <ele>206.309</ele>
        <time>2026-08-24T13:25:31Z</time>
      </trkpt>
      <trkpt lat="48.778241" lon="-1.158946">
        <ele>206.566</ele>
        <time>2026-08-24T13:25:32Z</time>
      </trkpt>
      <trkpt lat="48.778250" lon="-1.158938">
        <ele>206.622</ele>
        <time>2026-08-24T13:25:33Z</time>
      </trkpt>
      <trkpt lat="48.778261" lon="-1.158927">
        <ele>206.745</ele>
        <time>2026-08-24T13:25:34Z</time>
      </trkpt>
      <trkpt lat="48.778273" lon="-1.158920">
        <ele>206.722</ele>
        <time>2026-08-24T13:25:35Z</time>
      </trkpt>
      <trkpt lat="48.778289" lon="-1.158908">
        <ele>206.760</ele>
        <time>2026-08-24T13:25:36Z</time>
      </trkpt>
      <trkpt lat="48.778303" lon="-1.158897">
        <ele>206.888</ele>
        <time>2026-08-24T13:25:37Z</time>
      </trkpt>
      <trkpt lat="48.778318" lon="-1.158893">
        <ele>206.832</ele>
        <time>2026-08-24T13:25:38Z</time>
      </trkpt>
      <trkpt lat="48.778327" lon="-1.158888">
        <ele>206.849</ele>
        <time>2026-08-24T13:25:39Z</time>
      </trkpt>
      <trkpt lat="48.778338" lon="-1.158868">
        <ele>206.871</ele>
        <time>2026-08-24T13:25:41Z</time>
      </trkpt>
      <trkpt lat="48.778347" lon="-1.158860">
        <ele>207.027</ele>
        <time>2026-08-24T13:25:42Z</time>
      </trkpt>
      <trkpt lat="48.778360" lon="-1.158847">
        <ele>207.168</ele>
        <time>2026-08-24T13:25:43Z</time>
      </trkpt>
      <trkpt lat="48.778372" lon="-1.158845">
        <ele>207.114</ele>
        <time>2026-08-24T13:25:44Z</time>
      </trkpt>
      <trkpt lat="48.778384" lon="-1.158848">
        <ele>207.209</ele>
        <time>2026-08-24T13:25:45Z</time>
      </trkpt>
      <trkpt lat="48.778396" lon="-1.158843">
        <ele>207.214</ele>
        <time>2026-08-24T13:25:46Z</time>
      </trkpt>
      <trkpt lat="48.778408" lon="-1.158837">
        <ele>207.380</ele>
        <time>2026-08-24T13:25:47Z</time>
      </trkpt>
      <trkpt lat="48.778421" lon="-1.158827">
        <ele>207.353</ele>
        <time>2026-08-24T13:25:48Z</time>
      </trkpt>
      <trkpt lat="48.778435" lon="-1.158818">
        <ele>207.330</ele>
        <time>2026-08-24T13:25:49Z</time>
      </trkpt>
      <trkpt lat="48.778449" lon="-1.158808">
        <ele>207.458</ele>
        <time>2026-08-24T13:25:50Z</time>
      </trkpt>
      <trkpt lat="48.778463" lon="-1.158806">
        <ele>207.446</ele>
        <time>2026-08-24T13:25:51Z</time>
      </trkpt>
      <trkpt lat="48.778474" lon="-1.158804">
        <ele>207.570</ele>
        <time>2026-08-24T13:25:52Z</time>
      </trkpt>
      <trkpt lat="48.778486" lon="-1.158799">
        <ele>207.657</ele>
        <time>2026-08-24T13:25:53Z</time>
      </trkpt>
      <trkpt lat="48.778499" lon="-1.158790">
        <ele>207.619</ele>
        <time>2026-08-24T13:25:54Z</time>
      </trkpt>
      <trkpt lat="48.778512" lon="-1.158780">
        <ele>207.748</ele>
        <time>2026-08-24T13:25:55Z</time>
      </trkpt>
      <trkpt lat="48.778524" lon="-1.158773">
        <ele>207.861</ele>
        <time>2026-08-24T13:25:56Z</time>
      </trkpt>
      <trkpt lat="48.778536" lon="-1.158769">
        <ele>207.817</ele>
        <time>2026-08-24T13:25:57Z</time>
      </trkpt>
      <trkpt lat="48.778545" lon="-1.158765">
        <ele>207.909</ele>
        <time>2026-08-24T13:25:58Z</time>
      </trkpt>
      <trkpt lat="48.778556" lon="-1.158760">
        <ele>208.076</ele>
        <time>2026-08-24T13:25:59Z</time>
      </trkpt>
      <trkpt lat="48.778566" lon="-1.158757">
        <ele>208.472</ele>
        <time>2026-08-24T13:26:00Z</time>
      </trkpt>
      <trkpt lat="48.778580" lon="-1.158741">
        <ele>208.715</ele>
        <time>2026-08-24T13:26:01Z</time>
      </trkpt>
      <trkpt lat="48.778591" lon="-1.158730">
        <ele>208.852</ele>
        <time>2026-08-24T13:26:02Z</time>
      </trkpt>
      <trkpt lat="48.778609" lon="-1.158725">
        <ele>208.990</ele>
        <time>2026-08-24T13:26:04Z</time>
      </trkpt>
      <trkpt lat="48.778622" lon="-1.158719">
        <ele>209.068</ele>
        <time>2026-08-24T13:26:05Z</time>
      </trkpt>
      <trkpt lat="48.778635" lon="-1.158711">
        <ele>209.252</ele>
        <time>2026-08-24T13:26:06Z</time>
      </trkpt>
      <trkpt lat="48.778649" lon="-1.158702">
        <ele>209.329</ele>
        <time>2026-08-24T13:26:07Z</time>
      </trkpt>
      <trkpt lat="48.778662" lon="-1.158692">
        <ele>209.381</ele>
        <time>2026-08-24T13:26:08Z</time>
      </trkpt>
      <trkpt lat="48.778676" lon="-1.158684">
        <ele>209.494</ele>
        <time>2026-08-24T13:26:09Z</time>
      </trkpt>
      <trkpt lat="48.778688" lon="-1.158676">
        <ele>209.657</ele>
        <time>2026-08-24T13:26:10Z</time>
      </trkpt>
      <trkpt lat="48.778698" lon="-1.158672">
        <ele>209.722</ele>
        <time>2026-08-24T13:26:11Z</time>
      </trkpt>
      <trkpt lat="48.778707" lon="-1.158663">
        <ele>209.809</ele>
        <time>2026-08-24T13:26:12Z</time>
      </trkpt>
      <trkpt lat="48.778721" lon="-1.158656">
        <ele>209.981</ele>
        <time>2026-08-24T13:26:13Z</time>
      </trkpt>
      <trkpt lat="48.778737" lon="-1.158649">
        <ele>210.187</ele>
        <time>2026-08-24T13:26:14Z</time>
      </trkpt>
      <trkpt lat="48.778753" lon="-1.158646">
        <ele>210.390</ele>
        <time>2026-08-24T13:26:15Z</time>
      </trkpt>
      <trkpt lat="48.778766" lon="-1.158643">
        <ele>210.657</ele>
        <time>2026-08-24T13:26:16Z</time>
      </trkpt>
      <trkpt lat="48.778776" lon="-1.158638">
        <ele>210.865</ele>
        <time>2026-08-24T13:26:17Z</time>
      </trkpt>
      <trkpt lat="48.778787" lon="-1.158627">
        <ele>210.993</ele>
        <time>2026-08-24T13:26:18Z</time>
      </trkpt>
      <trkpt lat="48.778798" lon="-1.158617">
        <ele>211.047</ele>
        <time>2026-08-24T13:26:19Z</time>
      </trkpt>
      <trkpt lat="48.778809" lon="-1.158610">
        <ele>211.094</ele>
        <time>2026-08-24T13:26:20Z</time>
      </trkpt>
      <trkpt lat="48.778821" lon="-1.158604">
        <ele>211.166</ele>
        <time>2026-08-24T13:26:21Z</time>
      </trkpt>
      <trkpt lat="48.778832" lon="-1.158593">
        <ele>211.184</ele>
        <time>2026-08-24T13:26:22Z</time>
      </trkpt>
      <trkpt lat="48.778842" lon="-1.158585">
        <ele>211.107</ele>
        <time>2026-08-24T13:26:23Z</time>
      </trkpt>
      <trkpt lat="48.778856" lon="-1.158576">
        <ele>211.317</ele>
        <time>2026-08-24T13:26:25Z</time>
      </trkpt>
      <trkpt lat="48.778867" lon="-1.158566">
        <ele>211.609</ele>
        <time>2026-08-24T13:26:26Z</time>
      </trkpt>
      <trkpt lat="48.778883" lon="-1.158560">
        <ele>211.880</ele>
        <time>2026-08-24T13:26:27Z</time>
      </trkpt>
      <trkpt lat="48.778896" lon="-1.158554">
        <ele>212.096</ele>
        <time>2026-08-24T13:26:28Z</time>
      </trkpt>
      <trkpt lat="48.778908" lon="-1.158553">
        <ele>212.229</ele>
        <time>2026-08-24T13:26:29Z</time>
      </trkpt>
      <trkpt lat="48.778922" lon="-1.158546">
        <ele>212.566</ele>
        <time>2026-08-24T13:26:30Z</time>
      </trkpt>
      <trkpt lat="48.778935" lon="-1.158543">
        <ele>212.934</ele>
        <time>2026-08-24T13:26:31Z</time>
      </trkpt>
      <trkpt lat="48.778950" lon="-1.158537">
        <ele>213.222</ele>
        <time>2026-08-24T13:26:32Z</time>
      </trkpt>
      <trkpt lat="48.778964" lon="-1.158523">
        <ele>213.376</ele>
        <time>2026-08-24T13:26:33Z</time>
      </trkpt>
      <trkpt lat="48.778979" lon="-1.158511">
        <ele>213.343</ele>
        <time>2026-08-24T13:26:34Z</time>
      </trkpt>
      <trkpt lat="48.778992" lon="-1.158500">
        <ele>213.485</ele>
        <time>2026-08-24T13:26:35Z</time>
      </trkpt>
      <trkpt lat="48.779002" lon="-1.158499">
        <ele>213.463</ele>
        <time>2026-08-24T13:26:36Z</time>
      </trkpt>
      <trkpt lat="48.779022" lon="-1.158488">
        <ele>213.544</ele>
        <time>2026-08-24T13:26:38Z</time>
      </trkpt>
      <trkpt lat="48.779038" lon="-1.158484">
        <ele>213.618</ele>
        <time>2026-08-24T13:26:39Z</time>
      </trkpt>
      <trkpt lat="48.779051" lon="-1.158476">
        <ele>213.809</ele>
        <time>2026-08-24T13:26:40Z</time>
      </trkpt>
      <trkpt lat="48.779060" lon="-1.158468">
        <ele>213.898</ele>
        <time>2026-08-24T13:26:41Z</time>
      </trkpt>
      <trkpt lat="48.779077" lon="-1.158454">
        <ele>213.854</ele>
        <time>2026-08-24T13:26:43Z</time>
      </trkpt>
      <trkpt lat="48.779089" lon="-1.158451">
        <ele>213.957</ele>
        <time>2026-08-24T13:26:44Z</time>
      </trkpt>
      <trkpt lat="48.779104" lon="-1.158445">
        <ele>214.184</ele>
        <time>2026-08-24T13:26:45Z</time>
      </trkpt>
      <trkpt lat="48.779119" lon="-1.158435">
        <ele>214.542</ele>
        <time>2026-08-24T13:26:46Z</time>
      </trkpt>
      <trkpt lat="48.779132" lon="-1.158426">
        <ele>214.680</ele>
        <time>2026-08-24T13:26:47Z</time>
      </trkpt>
      <trkpt lat="48.779143" lon="-1.158416">
        <ele>214.754</ele>
        <time>2026-08-24T13:26:48Z</time>
      </trkpt>
      <trkpt lat="48.779154" lon="-1.158413">
        <ele>214.891</ele>
        <time>2026-08-24T13:26:49Z</time>
      </trkpt>
      <trkpt lat="48.779168" lon="-1.158406">
        <ele>215.163</ele>
        <time>2026-08-24T13:26:50Z</time>
      </trkpt>
      <trkpt lat="48.779182" lon="-1.158402">
        <ele>215.347</ele>
        <time>2026-08-24T13:26:51Z</time>
      </trkpt>
      <trkpt lat="48.779195" lon="-1.158394">
        <ele>215.429</ele>
        <time>2026-08-24T13:26:52Z</time>
      </trkpt>
      <trkpt lat="48.779207" lon="-1.158385">
        <ele>215.421</ele>
        <time>2026-08-24T13:26:53Z</time>
      </trkpt>
      <trkpt lat="48.779216" lon="-1.158378">
        <ele>215.409</ele>
        <time>2026-08-24T13:26:54Z</time>
      </trkpt>
      <trkpt lat="48.779227" lon="-1.158375">
        <ele>215.486</ele>
        <time>2026-08-24T13:26:55Z</time>
      </trkpt>
      <trkpt lat="48.779240" lon="-1.158369">
        <ele>215.492</ele>
        <time>2026-08-24T13:26:56Z</time>
      </trkpt>
      <trkpt lat="48.779252" lon="-1.158363">
        <ele>215.535</ele>
        <time>2026-08-24T13:26:57Z</time>
      </trkpt>
      <trkpt lat="48.779267" lon="-1.158358">
        <ele>215.582</ele>
        <time>2026-08-24T13:26:58Z</time>
      </trkpt>
      <trkpt lat="48.779282" lon="-1.158350">
        <ele>215.510</ele>
        <time>2026-08-24T13:26:59Z</time>
      </trkpt>
      <trkpt lat="48.779291" lon="-1.158342">
        <ele>215.628</ele>
        <time>2026-08-24T13:27:00Z</time>
      </trkpt>
      <trkpt lat="48.779308" lon="-1.158336">
        <ele>215.762</ele>
        <time>2026-08-24T13:27:02Z</time>
      </trkpt>
      <trkpt lat="48.779318" lon="-1.158334">
        <ele>215.719</ele>
        <time>2026-08-24T13:27:03Z</time>
      </trkpt>
      <trkpt lat="48.779329" lon="-1.158325">
        <ele>215.861</ele>
        <time>2026-08-24T13:27:04Z</time>
      </trkpt>
      <trkpt lat="48.779343" lon="-1.158314">
        <ele>215.832</ele>
        <time>2026-08-24T13:27:05Z</time>
      </trkpt>
      <trkpt lat="48.779355" lon="-1.158305">
        <ele>215.992</ele>
        <time>2026-08-24T13:27:06Z</time>
      </trkpt>
      <trkpt lat="48.779371" lon="-1.158296">
        <ele>216.011</ele>
        <time>2026-08-24T13:27:07Z</time>
      </trkpt>
      <trkpt lat="48.779380" lon="-1.158293">
        <ele>216.109</ele>
        <time>2026-08-24T13:27:08Z</time>
      </trkpt>
      <trkpt lat="48.779391" lon="-1.158291">
        <ele>216.245</ele>
        <time>2026-08-24T13:27:09Z</time>
      </trkpt>
      <trkpt lat="48.779403" lon="-1.158286">
        <ele>216.331</ele>
        <time>2026-08-24T13:27:10Z</time>
      </trkpt>
      <trkpt lat="48.779418" lon="-1.158274">
        <ele>216.474</ele>
        <time>2026-08-24T13:27:11Z</time>
      </trkpt>
      <trkpt lat="48.779432" lon="-1.158265">
        <ele>216.521</ele>
        <time>2026-08-24T13:27:12Z</time>
      </trkpt>
      <trkpt lat="48.779444" lon="-1.158261">
        <ele>216.729</ele>
        <time>2026-08-24T13:27:13Z</time>
      </trkpt>
      <trkpt lat="48.779455" lon="-1.158259">
        <ele>216.967</ele>
        <time>2026-08-24T13:27:14Z</time>
      </trkpt>
      <trkpt lat="48.779465" lon="-1.158255">
        <ele>216.961</ele>
        <time>2026-08-24T13:27:15Z</time>
      </trkpt>
      <trkpt lat="48.779475" lon="-1.158251">
        <ele>217.058</ele>
        <time>2026-08-24T13:27:16Z</time>
      </trkpt>
      <trkpt lat="48.779490" lon="-1.158243">
        <ele>217.120</ele>
        <time>2026-08-24T13:27:17Z</time>
      </trkpt>
      <trkpt lat="48.779503" lon="-1.158232">
        <ele>217.284</ele>
        <time>2026-08-24T13:27:18Z</time>
      </trkpt>
      <trkpt lat="48.779517" lon="-1.158223">
        <ele>217.307</ele>
        <time>2026-08-24T13:27:19Z</time>
      </trkpt>
      <trkpt lat="48.779529" lon="-1.158216">
        <ele>217.517</ele>
        <time>2026-08-24T13:27:20Z</time>
      </trkpt>
      <trkpt lat="48.779538" lon="-1.158215">
        <ele>217.609</ele>
        <time>2026-08-24T13:27:21Z</time>
      </trkpt>
      <trkpt lat="48.779551" lon="-1.158215">
        <ele>217.850</ele>
        <time>2026-08-24T13:27:22Z</time>
      </trkpt>
      <trkpt lat="48.779565" lon="-1.158210">
        <ele>218.176</ele>
        <time>2026-08-24T13:27:23Z</time>
      </trkpt>
      <trkpt lat="48.779579" lon="-1.158202">
        <ele>218.359</ele>
        <time>2026-08-24T13:27:24Z</time>
      </trkpt>
      <trkpt lat="48.779593" lon="-1.158192">
        <ele>218.516</ele>
        <time>2026-08-24T13:27:25Z</time>
      </trkpt>
      <trkpt lat="48.779605" lon="-1.158185">
        <ele>218.764</ele>
        <time>2026-08-24T13:27:26Z</time>
      </trkpt>
      <trkpt lat="48.779615" lon="-1.158182">
        <ele>218.852</ele>
        <time>2026-08-24T13:27:27Z</time>
      </trkpt>
      <trkpt lat="48.779624" lon="-1.158179">
        <ele>218.866</ele>
        <time>2026-08-24T13:27:28Z</time>
      </trkpt>
      <trkpt lat="48.779633" lon="-1.158171">
        <ele>218.923</ele>
        <time>2026-08-24T13:27:29Z</time>
      </trkpt>
      <trkpt lat="48.779648" lon="-1.158162">
        <ele>219.085</ele>
        <time>2026-08-24T13:27:30Z</time>
      </trkpt>
      <trkpt lat="48.779664" lon="-1.158156">
        <ele>219.164</ele>
        <time>2026-08-24T13:27:31Z</time>
      </trkpt>
      <trkpt lat="48.779677" lon="-1.158151">
        <ele>219.306</ele>
        <time>2026-08-24T13:27:32Z</time>
      </trkpt>
      <trkpt lat="48.779689" lon="-1.158141">
        <ele>219.616</ele>
        <time>2026-08-24T13:27:33Z</time>
      </trkpt>
      <trkpt lat="48.779709" lon="-1.158137">
        <ele>219.709</ele>
        <time>2026-08-24T13:27:35Z</time>
      </trkpt>
      <trkpt lat="48.779721" lon="-1.158134">
        <ele>219.788</ele>
        <time>2026-08-24T13:27:36Z</time>
      </trkpt>
      <trkpt lat="48.779737" lon="-1.158128">
        <ele>219.934</ele>
        <time>2026-08-24T13:27:37Z</time>
      </trkpt>
      <trkpt lat="48.779751" lon="-1.158118">
        <ele>220.027</ele>
        <time>2026-08-24T13:27:38Z</time>
      </trkpt>
      <trkpt lat="48.779764" lon="-1.158108">
        <ele>220.064</ele>
        <time>2026-08-24T13:27:39Z</time>
      </trkpt>
      <trkpt lat="48.779773" lon="-1.158102">
        <ele>220.082</ele>
        <time>2026-08-24T13:27:40Z</time>
      </trkpt>
      <trkpt lat="48.779784" lon="-1.158098">
        <ele>220.170</ele>
        <time>2026-08-24T13:27:41Z</time>
      </trkpt>
      <trkpt lat="48.779795" lon="-1.158099">
        <ele>220.254</ele>
        <time>2026-08-24T13:27:42Z</time>
      </trkpt>
      <trkpt lat="48.779807" lon="-1.158098">
        <ele>220.291</ele>
        <time>2026-08-24T13:27:43Z</time>
      </trkpt>
      <trkpt lat="48.779818" lon="-1.158096">
        <ele>220.213</ele>
        <time>2026-08-24T13:27:44Z</time>
      </trkpt>
      <trkpt lat="48.779833" lon="-1.158087">
        <ele>220.256</ele>
        <time>2026-08-24T13:27:45Z</time>
      </trkpt>
      <trkpt lat="48.779844" lon="-1.158080">
        <ele>220.359</ele>
        <time>2026-08-24T13:27:46Z</time>
      </trkpt>
      <trkpt lat="48.779855" lon="-1.158084">
        <ele>220.314</ele>
        <time>2026-08-24T13:27:47Z</time>
      </trkpt>
      <trkpt lat="48.779868" lon="-1.158081">
        <ele>220.309</ele>
        <time>2026-08-24T13:27:48Z</time>
      </trkpt>
      <trkpt lat="48.779881" lon="-1.158082">
        <ele>220.327</ele>
        <time>2026-08-24T13:27:49Z</time>
      </trkpt>
      <trkpt lat="48.779894" lon="-1.158076">
        <ele>220.453</ele>
        <time>2026-08-24T13:27:50Z</time>
      </trkpt>
      <trkpt lat="48.779907" lon="-1.158069">
        <ele>220.486</ele>
        <time>2026-08-24T13:27:51Z</time>
      </trkpt>
      <trkpt lat="48.779918" lon="-1.158065">
        <ele>220.523</ele>
        <time>2026-08-24T13:27:52Z</time>
      </trkpt>
      <trkpt lat="48.779931" lon="-1.158066">
        <ele>220.591</ele>
        <time>2026-08-24T13:27:53Z</time>
      </trkpt>
      <trkpt lat="48.779944" lon="-1.158067">
        <ele>220.519</ele>
        <time>2026-08-24T13:27:54Z</time>
      </trkpt>
      <trkpt lat="48.779957" lon="-1.158067">
        <ele>220.793</ele>
        <time>2026-08-24T13:27:55Z</time>
      </trkpt>
      <trkpt lat="48.779970" lon="-1.158064">
        <ele>221.160</ele>
        <time>2026-08-24T13:27:56Z</time>
      </trkpt>
      <trkpt lat="48.779983" lon="-1.158055">
        <ele>221.472</ele>
        <time>2026-08-24T13:27:57Z</time>
      </trkpt>
      <trkpt lat="48.779994" lon="-1.158050">
        <ele>221.522</ele>
        <time>2026-08-24T13:27:58Z</time>
      </trkpt>
      <trkpt lat="48.780007" lon="-1.158051">
        <ele>221.562</ele>
        <time>2026-08-24T13:27:59Z</time>
      </trkpt>
      <trkpt lat="48.780021" lon="-1.158051">
        <ele>221.508</ele>
        <time>2026-08-24T13:28:00Z</time>
      </trkpt>
      <trkpt lat="48.780035" lon="-1.158047">
        <ele>221.709</ele>
        <time>2026-08-24T13:28:01Z</time>
      </trkpt>
      <trkpt lat="48.780049" lon="-1.158040">
        <ele>221.934</ele>
        <time>2026-08-24T13:28:02Z</time>
      </trkpt>
      <trkpt lat="48.780062" lon="-1.158034">
        <ele>222.060</ele>
        <time>2026-08-24T13:28:03Z</time>
      </trkpt>
      <trkpt lat="48.780072" lon="-1.158028">
        <ele>222.373</ele>
        <time>2026-08-24T13:28:04Z</time>
      </trkpt>
      <trkpt lat="48.780082" lon="-1.158029">
        <ele>222.730</ele>
        <time>2026-08-24T13:28:05Z</time>
      </trkpt>
      <trkpt lat="48.780093" lon="-1.158028">
        <ele>222.918</ele>
        <time>2026-08-24T13:28:06Z</time>
      </trkpt>
      <trkpt lat="48.780106" lon="-1.158026">
        <ele>223.026</ele>
        <time>2026-08-24T13:28:07Z</time>
      </trkpt>
      <trkpt lat="48.780119" lon="-1.158023">
        <ele>223.230</ele>
        <time>2026-08-24T13:28:08Z</time>
      </trkpt>
      <trkpt lat="48.780132" lon="-1.158016">
        <ele>223.547</ele>
        <time>2026-08-24T13:28:09Z</time>
      </trkpt>
      <trkpt lat="48.780144" lon="-1.158011">
        <ele>223.659</ele>
        <time>2026-08-24T13:28:10Z</time>
      </trkpt>
      <trkpt lat="48.780157" lon="-1.158010">
        <ele>223.794</ele>
        <time>2026-08-24T13:28:11Z</time>
      </trkpt>
      <trkpt lat="48.780166" lon="-1.158008">
        <ele>223.757</ele>
        <time>2026-08-24T13:28:12Z</time>
      </trkpt>
      <trkpt lat="48.780179" lon="-1.158002">
        <ele>223.822</ele>
        <time>2026-08-24T13:28:13Z</time>
      </trkpt>
      <trkpt lat="48.780193" lon="-1.158002">
        <ele>223.909</ele>
        <time>2026-08-24T13:28:14Z</time>
      </trkpt>
      <trkpt lat="48.780209" lon="-1.158000">
        <ele>223.931</ele>
        <time>2026-08-24T13:28:15Z</time>
      </trkpt>
      <trkpt lat="48.780222" lon="-1.157999">
        <ele>223.957</ele>
        <time>2026-08-24T13:28:16Z</time>
      </trkpt>
      <trkpt lat="48.780234" lon="-1.157999">
        <ele>223.940</ele>
        <time>2026-08-24T13:28:17Z</time>
      </trkpt>
      <trkpt lat="48.780244" lon="-1.157998">
        <ele>224.017</ele>
        <time>2026-08-24T13:28:18Z</time>
      </trkpt>
      <trkpt lat="48.780256" lon="-1.157996">
        <ele>224.015</ele>
        <time>2026-08-24T13:28:19Z</time>
      </trkpt>
      <trkpt lat="48.780267" lon="-1.157996">
        <ele>224.163</ele>
        <time>2026-08-24T13:28:20Z</time>
      </trkpt>
      <trkpt lat="48.780279" lon="-1.157998">
        <ele>224.297</ele>
        <time>2026-08-24T13:28:21Z</time>
      </trkpt>
      <trkpt lat="48.780294" lon="-1.157995">
        <ele>224.234</ele>
        <time>2026-08-24T13:28:22Z</time>
      </trkpt>
      <trkpt lat="48.780306" lon="-1.157988">
        <ele>224.446</ele>
        <time>2026-08-24T13:28:23Z</time>
      </trkpt>
      <trkpt lat="48.780320" lon="-1.157984">
        <ele>224.688</ele>
        <time>2026-08-24T13:28:24Z</time>
      </trkpt>
      <trkpt lat="48.780332" lon="-1.157981">
        <ele>224.724</ele>
        <time>2026-08-24T13:28:25Z</time>
      </trkpt>
      <trkpt lat="48.780341" lon="-1.157974">
        <ele>224.926</ele>
        <time>2026-08-24T13:28:26Z</time>
      </trkpt>
      <trkpt lat="48.780351" lon="-1.157971">
        <ele>225.209</ele>
        <time>2026-08-24T13:28:27Z</time>
      </trkpt>
      <trkpt lat="48.780362" lon="-1.157969">
        <ele>225.470</ele>
        <time>2026-08-24T13:28:28Z</time>
      </trkpt>
      <trkpt lat="48.780378" lon="-1.157965">
        <ele>225.616</ele>
        <time>2026-08-24T13:28:29Z</time>
      </trkpt>
      <trkpt lat="48.780394" lon="-1.157961">
        <ele>225.719</ele>
        <time>2026-08-24T13:28:30Z</time>
      </trkpt>
      <trkpt lat="48.780411" lon="-1.157956">
        <ele>225.826</ele>
        <time>2026-08-24T13:28:31Z</time>
      </trkpt>
      <trkpt lat="48.780423" lon="-1.157952">
        <ele>225.964</ele>
        <time>2026-08-24T13:28:32Z</time>
      </trkpt>
      <trkpt lat="48.780434" lon="-1.157951">
        <ele>226.092</ele>
        <time>2026-08-24T13:28:33Z</time>
      </trkpt>
      <trkpt lat="48.780449" lon="-1.157946">
        <ele>226.096</ele>
        <time>2026-08-24T13:28:34Z</time>
      </trkpt>
      <trkpt lat="48.780462" lon="-1.157947">
        <ele>226.283</ele>
        <time>2026-08-24T13:28:35Z</time>
      </trkpt>
      <trkpt lat="48.780474" lon="-1.157942">
        <ele>226.465</ele>
        <time>2026-08-24T13:28:36Z</time>
      </trkpt>
      <trkpt lat="48.780485" lon="-1.157936">
        <ele>226.563</ele>
        <time>2026-08-24T13:28:37Z</time>
      </trkpt>
      <trkpt lat="48.780499" lon="-1.157932">
        <ele>226.644</ele>
        <time>2026-08-24T13:28:38Z</time>
      </trkpt>
      <trkpt lat="48.780513" lon="-1.157933">
        <ele>226.718</ele>
        <time>2026-08-24T13:28:39Z</time>
      </trkpt>
      <trkpt lat="48.780523" lon="-1.157938">
        <ele>226.809</ele>
        <time>2026-08-24T13:28:40Z</time>
      </trkpt>
      <trkpt lat="48.780536" lon="-1.157941">
        <ele>226.918</ele>
        <time>2026-08-24T13:28:41Z</time>
      </trkpt>
      <trkpt lat="48.780550" lon="-1.157939">
        <ele>227.054</ele>
        <time>2026-08-24T13:28:42Z</time>
      </trkpt>
      <trkpt lat="48.780568" lon="-1.157940">
        <ele>227.197</ele>
        <time>2026-08-24T13:28:43Z</time>
      </trkpt>
      <trkpt lat="48.780584" lon="-1.157941">
        <ele>227.244</ele>
        <time>2026-08-24T13:28:44Z</time>
      </trkpt>
      <trkpt lat="48.780598" lon="-1.157943">
        <ele>227.232</ele>
        <time>2026-08-24T13:28:45Z</time>
      </trkpt>
      <trkpt lat="48.780616" lon="-1.157949">
        <ele>227.210</ele>
        <time>2026-08-24T13:28:47Z</time>
      </trkpt>
      <trkpt lat="48.780627" lon="-1.157948">
        <ele>227.324</ele>
        <time>2026-08-24T13:28:48Z</time>
      </trkpt>
      <trkpt lat="48.780638" lon="-1.157947">
        <ele>227.411</ele>
        <time>2026-08-24T13:28:49Z</time>
      </trkpt>
      <trkpt lat="48.780649" lon="-1.157944">
        <ele>227.563</ele>
        <time>2026-08-24T13:28:50Z</time>
      </trkpt>
      <trkpt lat="48.780663" lon="-1.157943">
        <ele>227.569</ele>
        <time>2026-08-24T13:28:51Z</time>
      </trkpt>
      <trkpt lat="48.780675" lon="-1.157938">
        <ele>227.804</ele>
        <time>2026-08-24T13:28:52Z</time>
      </trkpt>
      <trkpt lat="48.780686" lon="-1.157935">
        <ele>228.024</ele>
        <time>2026-08-24T13:28:53Z</time>
      </trkpt>
      <trkpt lat="48.780697" lon="-1.157930">
        <ele>228.109</ele>
        <time>2026-08-24T13:28:54Z</time>
      </trkpt>
      <trkpt lat="48.780706" lon="-1.157928">
        <ele>228.288</ele>
        <time>2026-08-24T13:28:55Z</time>
      </trkpt>
      <trkpt lat="48.780721" lon="-1.157930">
        <ele>228.374</ele>
        <time>2026-08-24T13:28:56Z</time>
      </trkpt>
      <trkpt lat="48.780737" lon="-1.157931">
        <ele>228.567</ele>
        <time>2026-08-24T13:28:57Z</time>
      </trkpt>
      <trkpt lat="48.780753" lon="-1.157928">
        <ele>228.684</ele>
        <time>2026-08-24T13:28:58Z</time>
      </trkpt>
      <trkpt lat="48.780771" lon="-1.157924">
        <ele>228.832</ele>
        <time>2026-08-24T13:28:59Z</time>
      </trkpt>
      <trkpt lat="48.780782" lon="-1.157919">
        <ele>229.140</ele>
        <time>2026-08-24T13:29:00Z</time>
      </trkpt>
      <trkpt lat="48.780793" lon="-1.157913">
        <ele>229.314</ele>
        <time>2026-08-24T13:29:01Z</time>
      </trkpt>
      <trkpt lat="48.780803" lon="-1.157909">
        <ele>229.441</ele>
        <time>2026-08-24T13:29:02Z</time>
      </trkpt>
      <trkpt lat="48.780813" lon="-1.157903">
        <ele>229.483</ele>
        <time>2026-08-24T13:29:03Z</time>
      </trkpt>
      <trkpt lat="48.780827" lon="-1.157899">
        <ele>229.521</ele>
        <time>2026-08-24T13:29:04Z</time>
      </trkpt>
      <trkpt lat="48.780841" lon="-1.157896">
        <ele>229.541</ele>
        <time>2026-08-24T13:29:05Z</time>
      </trkpt>
      <trkpt lat="48.780859" lon="-1.157886">
        <ele>229.505</ele>
        <time>2026-08-24T13:29:06Z</time>
      </trkpt>
      <trkpt lat="48.780870" lon="-1.157873">
        <ele>229.509</ele>
        <time>2026-08-24T13:29:07Z</time>
      </trkpt>
      <trkpt lat="48.780886" lon="-1.157864">
        <ele>229.574</ele>
        <time>2026-08-24T13:29:08Z</time>
      </trkpt>
      <trkpt lat="48.780897" lon="-1.157866">
        <ele>229.580</ele>
        <time>2026-08-24T13:29:09Z</time>
      </trkpt>
      <trkpt lat="48.780909" lon="-1.157864">
        <ele>229.553</ele>
        <time>2026-08-24T13:29:10Z</time>
      </trkpt>
      <trkpt lat="48.780923" lon="-1.157860">
        <ele>229.550</ele>
        <time>2026-08-24T13:29:11Z</time>
      </trkpt>
      <trkpt lat="48.780936" lon="-1.157860">
        <ele>229.528</ele>
        <time>2026-08-24T13:29:12Z</time>
      </trkpt>
      <trkpt lat="48.780948" lon="-1.157856">
        <ele>229.566</ele>
        <time>2026-08-24T13:29:13Z</time>
      </trkpt>
      <trkpt lat="48.780967" lon="-1.157849">
        <ele>229.530</ele>
        <time>2026-08-24T13:29:14Z</time>
      </trkpt>
      <trkpt lat="48.780982" lon="-1.157843">
        <ele>229.537</ele>
        <time>2026-08-24T13:29:15Z</time>
      </trkpt>
      <trkpt lat="48.780995" lon="-1.157834">
        <ele>229.629</ele>
        <time>2026-08-24T13:29:16Z</time>
      </trkpt>
      <trkpt lat="48.781013" lon="-1.157832">
        <ele>229.774</ele>
        <time>2026-08-24T13:29:18Z</time>
      </trkpt>
      <trkpt lat="48.781025" lon="-1.157832">
        <ele>229.856</ele>
        <time>2026-08-24T13:29:19Z</time>
      </trkpt>
      <trkpt lat="48.781038" lon="-1.157829">
        <ele>229.821</ele>
        <time>2026-08-24T13:29:20Z</time>
      </trkpt>
      <trkpt lat="48.781052" lon="-1.157825">
        <ele>229.809</ele>
        <time>2026-08-24T13:29:21Z</time>
      </trkpt>
      <trkpt lat="48.781069" lon="-1.157815">
        <ele>229.929</ele>
        <time>2026-08-24T13:29:22Z</time>
      </trkpt>
      <trkpt lat="48.781090" lon="-1.157809">
        <ele>229.915</ele>
        <time>2026-08-24T13:29:23Z</time>
      </trkpt>
      <trkpt lat="48.781103" lon="-1.157803">
        <ele>229.928</ele>
        <time>2026-08-24T13:29:24Z</time>
      </trkpt>
      <trkpt lat="48.781116" lon="-1.157799">
        <ele>229.925</ele>
        <time>2026-08-24T13:29:25Z</time>
      </trkpt>
      <trkpt lat="48.781125" lon="-1.157793">
        <ele>229.913</ele>
        <time>2026-08-24T13:29:26Z</time>
      </trkpt>
      <trkpt lat="48.781135" lon="-1.157797">
        <ele>229.931</ele>
        <time>2026-08-24T13:29:27Z</time>
      </trkpt>
      <trkpt lat="48.781145" lon="-1.157799">
        <ele>229.995</ele>
        <time>2026-08-24T13:29:28Z</time>
      </trkpt>
      <trkpt lat="48.781158" lon="-1.157796">
        <ele>230.052</ele>
        <time>2026-08-24T13:29:29Z</time>
      </trkpt>
      <trkpt lat="48.781170" lon="-1.157789">
        <ele>230.284</ele>
        <time>2026-08-24T13:29:30Z</time>
      </trkpt>
      <trkpt lat="48.781182" lon="-1.157780">
        <ele>230.338</ele>
        <time>2026-08-24T13:29:31Z</time>
      </trkpt>
      <trkpt lat="48.781202" lon="-1.157776">
        <ele>230.470</ele>
        <time>2026-08-24T13:29:32Z</time>
      </trkpt>
      <trkpt lat="48.781215" lon="-1.157771">
        <ele>230.417</ele>
        <time>2026-08-24T13:29:33Z</time>
      </trkpt>
      <trkpt lat="48.781226" lon="-1.157770">
        <ele>230.409</ele>
        <time>2026-08-24T13:29:34Z</time>
      </trkpt>
      <trkpt lat="48.781237" lon="-1.157771">
        <ele>230.455</ele>
        <time>2026-08-24T13:29:35Z</time>
      </trkpt>
      <trkpt lat="48.781250" lon="-1.157768">
        <ele>230.461</ele>
        <time>2026-08-24T13:29:36Z</time>
      </trkpt>
      <trkpt lat="48.781266" lon="-1.157764">
        <ele>230.554</ele>
        <time>2026-08-24T13:29:37Z</time>
      </trkpt>
      <trkpt lat="48.781279" lon="-1.157757">
        <ele>230.641</ele>
        <time>2026-08-24T13:29:38Z</time>
      </trkpt>
      <trkpt lat="48.781294" lon="-1.157754">
        <ele>230.639</ele>
        <time>2026-08-24T13:29:39Z</time>
      </trkpt>
      <trkpt lat="48.781309" lon="-1.157747">
        <ele>230.777</ele>
        <time>2026-08-24T13:29:40Z</time>
      </trkpt>
      <trkpt lat="48.781321" lon="-1.157745">
        <ele>230.721</ele>
        <time>2026-08-24T13:29:41Z</time>
      </trkpt>
      <trkpt lat="48.781332" lon="-1.157742">
        <ele>230.818</ele>
        <time>2026-08-24T13:29:42Z</time>
      </trkpt>
      <trkpt lat="48.781342" lon="-1.157746">
        <ele>230.870</ele>
        <time>2026-08-24T13:29:43Z</time>
      </trkpt>
      <trkpt lat="48.781363" lon="-1.157739">
        <ele>231.097</ele>
        <time>2026-08-24T13:29:45Z</time>
      </trkpt>
      <trkpt lat="48.781376" lon="-1.157736">
        <ele>231.223</ele>
        <time>2026-08-24T13:29:46Z</time>
      </trkpt>
      <trkpt lat="48.781394" lon="-1.157729">
        <ele>231.225</ele>
        <time>2026-08-24T13:29:47Z</time>
      </trkpt>
      <trkpt lat="48.781408" lon="-1.157721">
        <ele>231.209</ele>
        <time>2026-08-24T13:29:48Z</time>
      </trkpt>
      <trkpt lat="48.781422" lon="-1.157719">
        <ele>231.381</ele>
        <time>2026-08-24T13:29:49Z</time>
      </trkpt>
      <trkpt lat="48.781432" lon="-1.157720">
        <ele>231.347</ele>
        <time>2026-08-24T13:29:50Z</time>
      </trkpt>
      <trkpt lat="48.781441" lon="-1.157722">
        <ele>231.310</ele>
        <time>2026-08-24T13:29:51Z</time>
      </trkpt>
      <trkpt lat="48.781452" lon="-1.157723">
        <ele>231.467</ele>
        <time>2026-08-24T13:29:52Z</time>
      </trkpt>
      <trkpt lat="48.781464" lon="-1.157722">
        <ele>231.465</ele>
        <time>2026-08-24T13:29:53Z</time>
      </trkpt>
      <trkpt lat="48.781479" lon="-1.157719">
        <ele>231.453</ele>
        <time>2026-08-24T13:29:54Z</time>
      </trkpt>
      <trkpt lat="48.781494" lon="-1.157717">
        <ele>231.497</ele>
        <time>2026-08-24T13:29:55Z</time>
      </trkpt>
      <trkpt lat="48.781504" lon="-1.157716">
        <ele>231.514</ele>
        <time>2026-08-24T13:29:56Z</time>
      </trkpt>
      <trkpt lat="48.781519" lon="-1.157711">
        <ele>231.576</ele>
        <time>2026-08-24T13:29:57Z</time>
      </trkpt>
      <trkpt lat="48.781531" lon="-1.157714">
        <ele>231.554</ele>
        <time>2026-08-24T13:29:58Z</time>
      </trkpt>
      <trkpt lat="48.781541" lon="-1.157722">
        <ele>231.556</ele>
        <time>2026-08-24T13:29:59Z</time>
      </trkpt>
      <trkpt lat="48.781552" lon="-1.157730">
        <ele>231.611</ele>
        <time>2026-08-24T13:30:00Z</time>
      </trkpt>
      <trkpt lat="48.781564" lon="-1.157737">
        <ele>231.609</ele>
        <time>2026-08-24T13:30:01Z</time>
      </trkpt>
      <trkpt lat="48.781579" lon="-1.157746">
        <ele>231.687</ele>
        <time>2026-08-24T13:30:02Z</time>
      </trkpt>
      <trkpt lat="48.781595" lon="-1.157751">
        <ele>231.633</ele>
        <time>2026-08-24T13:30:03Z</time>
      </trkpt>
      <trkpt lat="48.781612" lon="-1.157754">
        <ele>231.796</ele>
        <time>2026-08-24T13:30:04Z</time>
      </trkpt>
      <trkpt lat="48.781625" lon="-1.157753">
        <ele>231.723</ele>
        <time>2026-08-24T13:30:05Z</time>
      </trkpt>
      <trkpt lat="48.781635" lon="-1.157757">
        <ele>231.781</ele>
        <time>2026-08-24T13:30:06Z</time>
      </trkpt>
      <trkpt lat="48.781634" lon="-1.157776">
        <ele>231.879</ele>
        <time>2026-08-24T13:30:09Z</time>
      </trkpt>
      <trkpt lat="48.781647" lon="-1.157775">
        <ele>231.813</ele>
        <time>2026-08-24T13:30:13Z</time>
      </trkpt>
      <trkpt lat="48.781661" lon="-1.157774">
        <ele>231.990</ele>
        <time>2026-08-24T13:30:14Z</time>
      </trkpt>
      <trkpt lat="48.781674" lon="-1.157767">
        <ele>231.982</ele>
        <time>2026-08-24T13:30:15Z</time>
      </trkpt>
      <trkpt lat="48.781686" lon="-1.157760">
        <ele>231.949</ele>
        <time>2026-08-24T13:30:16Z</time>
      </trkpt>
      <trkpt lat="48.781699" lon="-1.157754">
        <ele>231.902</ele>
        <time>2026-08-24T13:30:18Z</time>
      </trkpt>
      <trkpt lat="48.781690" lon="-1.157746">
        <ele>232.122</ele>
        <time>2026-08-24T13:30:24Z</time>
      </trkpt>
      <trkpt lat="48.781712" lon="-1.157756">
        <ele>232.209</ele>
        <time>2026-08-24T13:30:35Z</time>
      </trkpt>
      <trkpt lat="48.781728" lon="-1.157776">
        <ele>232.346</ele>
        <time>2026-08-24T13:30:36Z</time>
      </trkpt>
      <trkpt lat="48.781743" lon="-1.157789">
        <ele>232.462</ele>
        <time>2026-08-24T13:30:37Z</time>
      </trkpt>
      <trkpt lat="48.781753" lon="-1.157788">
        <ele>232.625</ele>
        <time>2026-08-24T13:30:38Z</time>
      </trkpt>
      <trkpt lat="48.781757" lon="-1.157775">
        <ele>232.892</ele>
        <time>2026-08-24T13:30:39Z</time>
      </trkpt>
      <trkpt lat="48.781760" lon="-1.157759">
        <ele>232.940</ele>
        <time>2026-08-24T13:30:40Z</time>
      </trkpt>
      <trkpt lat="48.781766" lon="-1.157734">
        <ele>232.928</ele>
        <time>2026-08-24T13:30:41Z</time>
      </trkpt>
      <trkpt lat="48.781781" lon="-1.157716">
        <ele>232.922</ele>
        <time>2026-08-24T13:30:42Z</time>
      </trkpt>
      <trkpt lat="48.781795" lon="-1.157698">
        <ele>232.939</ele>
        <time>2026-08-24T13:30:43Z</time>
      </trkpt>
      <trkpt lat="48.781808" lon="-1.157680">
        <ele>232.991</ele>
        <time>2026-08-24T13:30:44Z</time>
      </trkpt>
      <trkpt lat="48.781826" lon="-1.157663">
        <ele>232.994</ele>
        <time>2026-08-24T13:30:45Z</time>
      </trkpt>
      <trkpt lat="48.781835" lon="-1.157650">
        <ele>232.957</ele>
        <time>2026-08-24T13:30:46Z</time>
      </trkpt>
      <trkpt lat="48.781847" lon="-1.157637">
        <ele>232.922</ele>
        <time>2026-08-24T13:30:47Z</time>
      </trkpt>
      <trkpt lat="48.781854" lon="-1.157625">
        <ele>232.909</ele>
        <time>2026-08-24T13:30:48Z</time>
      </trkpt>
      <trkpt lat="48.781862" lon="-1.157614">
        <ele>233.021</ele>
        <time>2026-08-24T13:30:49Z</time>
      </trkpt>
      <trkpt lat="48.781874" lon="-1.157603">
        <ele>233.047</ele>
        <time>2026-08-24T13:30:50Z</time>
      </trkpt>
      <trkpt lat="48.781883" lon="-1.157591">
        <ele>233.030</ele>
        <time>2026-08-24T13:30:51Z</time>
      </trkpt>
      <trkpt lat="48.781892" lon="-1.157581">
        <ele>233.077</ele>
        <time>2026-08-24T13:30:52Z</time>
      </trkpt>
      <trkpt lat="48.781905" lon="-1.157568">
        <ele>233.065</ele>
        <time>2026-08-24T13:30:53Z</time>
      </trkpt>
      <trkpt lat="48.781912" lon="-1.157557">
        <ele>233.033</ele>
        <time>2026-08-24T13:30:54Z</time>
      </trkpt>
      <trkpt lat="48.781917" lon="-1.157545">
        <ele>233.027</ele>
        <time>2026-08-24T13:30:55Z</time>
      </trkpt>
      <trkpt lat="48.781926" lon="-1.157531">
        <ele>233.074</ele>
        <time>2026-08-24T13:30:56Z</time>
      </trkpt>
      <trkpt lat="48.781938" lon="-1.157520">
        <ele>233.046</ele>
        <time>2026-08-24T13:30:57Z</time>
      </trkpt>
      <trkpt lat="48.781950" lon="-1.157510">
        <ele>233.164</ele>
        <time>2026-08-24T13:30:58Z</time>
      </trkpt>
      <trkpt lat="48.781961" lon="-1.157500">
        <ele>233.106</ele>
        <time>2026-08-24T13:30:59Z</time>
      </trkpt>
      <trkpt lat="48.781973" lon="-1.157487">
        <ele>233.016</ele>
        <time>2026-08-24T13:31:00Z</time>
      </trkpt>
      <trkpt lat="48.781979" lon="-1.157476">
        <ele>233.009</ele>
        <time>2026-08-24T13:31:01Z</time>
      </trkpt>
      <trkpt lat="48.781986" lon="-1.157464">
        <ele>233.028</ele>
        <time>2026-08-24T13:31:02Z</time>
      </trkpt>
      <trkpt lat="48.781997" lon="-1.157455">
        <ele>233.064</ele>
        <time>2026-08-24T13:31:03Z</time>
      </trkpt>
      <trkpt lat="48.782007" lon="-1.157447">
        <ele>233.067</ele>
        <time>2026-08-24T13:31:04Z</time>
      </trkpt>
      <trkpt lat="48.782023" lon="-1.157433">
        <ele>233.084</ele>
        <time>2026-08-24T13:31:06Z</time>
      </trkpt>
      <trkpt lat="48.782030" lon="-1.157421">
        <ele>232.962</ele>
        <time>2026-08-24T13:31:07Z</time>
      </trkpt>
      <trkpt lat="48.782040" lon="-1.157409">
        <ele>232.950</ele>
        <time>2026-08-24T13:31:08Z</time>
      </trkpt>
      <trkpt lat="48.782050" lon="-1.157396">
        <ele>233.044</ele>
        <time>2026-08-24T13:31:09Z</time>
      </trkpt>
      <trkpt lat="48.782059" lon="-1.157381">
        <ele>233.041</ele>
        <time>2026-08-24T13:31:10Z</time>
      </trkpt>
      <trkpt lat="48.782069" lon="-1.157365">
        <ele>233.063</ele>
        <time>2026-08-24T13:31:11Z</time>
      </trkpt>
      <trkpt lat="48.782084" lon="-1.157349">
        <ele>233.048</ele>
        <time>2026-08-24T13:31:12Z</time>
      </trkpt>
      <trkpt lat="48.782097" lon="-1.157336">
        <ele>233.061</ele>
        <time>2026-08-24T13:31:13Z</time>
      </trkpt>
      <trkpt lat="48.782107" lon="-1.157326">
        <ele>233.017</ele>
        <time>2026-08-24T13:31:14Z</time>
      </trkpt>
      <trkpt lat="48.782116" lon="-1.157319">
        <ele>233.109</ele>
        <time>2026-08-24T13:31:15Z</time>
      </trkpt>
      <trkpt lat="48.782132" lon="-1.157316">
        <ele>233.176</ele>
        <time>2026-08-24T13:31:17Z</time>
      </trkpt>
      <trkpt lat="48.782140" lon="-1.157307">
        <ele>233.162</ele>
        <time>2026-08-24T13:31:18Z</time>
      </trkpt>
      <trkpt lat="48.782147" lon="-1.157289">
        <ele>233.115</ele>
        <time>2026-08-24T13:31:19Z</time>
      </trkpt>
      <trkpt lat="48.782161" lon="-1.157273">
        <ele>233.142</ele>
        <time>2026-08-24T13:31:21Z</time>
      </trkpt>
      <trkpt lat="48.782172" lon="-1.157264">
        <ele>233.140</ele>
        <time>2026-08-24T13:31:22Z</time>
      </trkpt>
      <trkpt lat="48.782183" lon="-1.157262">
        <ele>233.158</ele>
        <time>2026-08-24T13:31:24Z</time>
      </trkpt>
      <trkpt lat="48.782181" lon="-1.157276">
        <ele>233.162</ele>
        <time>2026-08-24T13:31:27Z</time>
      </trkpt>
      <trkpt lat="48.782186" lon="-1.157260">
        <ele>233.189</ele>
        <time>2026-08-24T13:31:31Z</time>
      </trkpt>
      <trkpt lat="48.782191" lon="-1.157241">
        <ele>233.111</ele>
        <time>2026-08-24T13:31:36Z</time>
      </trkpt>
      <trkpt lat="48.782199" lon="-1.157231">
        <ele>233.074</ele>
        <time>2026-08-24T13:31:37Z</time>
      </trkpt>
      <trkpt lat="48.782214" lon="-1.157225">
        <ele>233.056</ele>
        <time>2026-08-24T13:31:38Z</time>
      </trkpt>
      <trkpt lat="48.782226" lon="-1.157212">
        <ele>233.021</ele>
        <time>2026-08-24T13:31:39Z</time>
      </trkpt>
      <trkpt lat="48.782237" lon="-1.157194">
        <ele>233.009</ele>
        <time>2026-08-24T13:31:40Z</time>
      </trkpt>
      <trkpt lat="48.782248" lon="-1.157181">
        <ele>232.929</ele>
        <time>2026-08-24T13:31:41Z</time>
      </trkpt>
      <trkpt lat="48.782257" lon="-1.157170">
        <ele>232.895</ele>
        <time>2026-08-24T13:31:42Z</time>
      </trkpt>
      <trkpt lat="48.782268" lon="-1.157159">
        <ele>232.778</ele>
        <time>2026-08-24T13:31:43Z</time>
      </trkpt>
      <trkpt lat="48.782282" lon="-1.157140">
        <ele>232.775</ele>
        <time>2026-08-24T13:31:45Z</time>
      </trkpt>
      <trkpt lat="48.782291" lon="-1.157128">
        <ele>232.733</ele>
        <time>2026-08-24T13:31:46Z</time>
      </trkpt>
      <trkpt lat="48.782299" lon="-1.157112">
        <ele>232.751</ele>
        <time>2026-08-24T13:31:47Z</time>
      </trkpt>
      <trkpt lat="48.782305" lon="-1.157099">
        <ele>232.715</ele>
        <time>2026-08-24T13:31:48Z</time>
      </trkpt>
      <trkpt lat="48.782314" lon="-1.157076">
        <ele>232.642</ele>
        <time>2026-08-24T13:31:50Z</time>
      </trkpt>
      <trkpt lat="48.782319" lon="-1.157062">
        <ele>232.684</ele>
        <time>2026-08-24T13:31:51Z</time>
      </trkpt>
      <trkpt lat="48.782330" lon="-1.157050">
        <ele>232.697</ele>
        <time>2026-08-24T13:31:52Z</time>
      </trkpt>
      <trkpt lat="48.782349" lon="-1.157040">
        <ele>232.523</ele>
        <time>2026-08-24T13:31:53Z</time>
      </trkpt>
      <trkpt lat="48.782361" lon="-1.157026">
        <ele>232.525</ele>
        <time>2026-08-24T13:31:54Z</time>
      </trkpt>
      <trkpt lat="48.782371" lon="-1.157013">
        <ele>232.509</ele>
        <time>2026-08-24T13:31:55Z</time>
      </trkpt>
      <trkpt lat="48.782381" lon="-1.157003">
        <ele>232.531</ele>
        <time>2026-08-24T13:31:56Z</time>
      </trkpt>
      <trkpt lat="48.782391" lon="-1.156980">
        <ele>232.547</ele>
        <time>2026-08-24T13:31:58Z</time>
      </trkpt>
      <trkpt lat="48.782401" lon="-1.156966">
        <ele>232.560</ele>
        <time>2026-08-24T13:31:59Z</time>
      </trkpt>
      <trkpt lat="48.782410" lon="-1.156951">
        <ele>232.567</ele>
        <time>2026-08-24T13:32:00Z</time>
      </trkpt>
      <trkpt lat="48.782420" lon="-1.156939">
        <ele>232.515</ele>
        <time>2026-08-24T13:32:01Z</time>
      </trkpt>
      <trkpt lat="48.782434" lon="-1.156928">
        <ele>232.553</ele>
        <time>2026-08-24T13:32:02Z</time>
      </trkpt>
      <trkpt lat="48.782444" lon="-1.156917">
        <ele>232.537</ele>
        <time>2026-08-24T13:32:03Z</time>
      </trkpt>
      <trkpt lat="48.782455" lon="-1.156908">
        <ele>232.584</ele>
        <time>2026-08-24T13:32:04Z</time>
      </trkpt>
      <trkpt lat="48.782465" lon="-1.156895">
        <ele>232.536</ele>
        <time>2026-08-24T13:32:05Z</time>
      </trkpt>
      <trkpt lat="48.782476" lon="-1.156880">
        <ele>232.674</ele>
        <time>2026-08-24T13:32:06Z</time>
      </trkpt>
      <trkpt lat="48.782489" lon="-1.156867">
        <ele>232.656</ele>
        <time>2026-08-24T13:32:07Z</time>
      </trkpt>
      <trkpt lat="48.782499" lon="-1.156855">
        <ele>232.621</ele>
        <time>2026-08-24T13:32:08Z</time>
      </trkpt>
      <trkpt lat="48.782510" lon="-1.156843">
        <ele>232.609</ele>
        <time>2026-08-24T13:32:09Z</time>
      </trkpt>
      <trkpt lat="48.782519" lon="-1.156832">
        <ele>232.699</ele>
        <time>2026-08-24T13:32:10Z</time>
      </trkpt>
      <trkpt lat="48.782524" lon="-1.156816">
        <ele>232.685</ele>
        <time>2026-08-24T13:32:11Z</time>
      </trkpt>
      <trkpt lat="48.782527" lon="-1.156800">
        <ele>232.658</ele>
        <time>2026-08-24T13:32:12Z</time>
      </trkpt>
      <trkpt lat="48.782535" lon="-1.156787">
        <ele>232.655</ele>
        <time>2026-08-24T13:32:13Z</time>
      </trkpt>
      <trkpt lat="48.782543" lon="-1.156775">
        <ele>232.623</ele>
        <time>2026-08-24T13:32:14Z</time>
      </trkpt>
      <trkpt lat="48.782553" lon="-1.156764">
        <ele>232.671</ele>
        <time>2026-08-24T13:32:15Z</time>
      </trkpt>
      <trkpt lat="48.782563" lon="-1.156748">
        <ele>232.645</ele>
        <time>2026-08-24T13:32:16Z</time>
      </trkpt>
      <trkpt lat="48.782573" lon="-1.156732">
        <ele>232.632</ele>
        <time>2026-08-24T13:32:17Z</time>
      </trkpt>
      <trkpt lat="48.782583" lon="-1.156718">
        <ele>232.694</ele>
        <time>2026-08-24T13:32:18Z</time>
      </trkpt>
      <trkpt lat="48.782591" lon="-1.156704">
        <ele>232.638</ele>
        <time>2026-08-24T13:32:19Z</time>
      </trkpt>
      <trkpt lat="48.782598" lon="-1.156689">
        <ele>232.670</ele>
        <time>2026-08-24T13:32:20Z</time>
      </trkpt>
      <trkpt lat="48.782609" lon="-1.156680">
        <ele>232.717</ele>
        <time>2026-08-24T13:32:21Z</time>
      </trkpt>
      <trkpt lat="48.782617" lon="-1.156667">
        <ele>232.709</ele>
        <time>2026-08-24T13:32:22Z</time>
      </trkpt>
      <trkpt lat="48.782628" lon="-1.156653">
        <ele>232.725</ele>
        <time>2026-08-24T13:32:23Z</time>
      </trkpt>
      <trkpt lat="48.782637" lon="-1.156635">
        <ele>232.741</ele>
        <time>2026-08-24T13:32:24Z</time>
      </trkpt>
      <trkpt lat="48.782644" lon="-1.156612">
        <ele>232.774</ele>
        <time>2026-08-24T13:32:25Z</time>
      </trkpt>
      <trkpt lat="48.782651" lon="-1.156598">
        <ele>232.761</ele>
        <time>2026-08-24T13:32:26Z</time>
      </trkpt>
      <trkpt lat="48.782660" lon="-1.156588">
        <ele>232.779</ele>
        <time>2026-08-24T13:32:27Z</time>
      </trkpt>
      <trkpt lat="48.782668" lon="-1.156576">
        <ele>232.727</ele>
        <time>2026-08-24T13:32:28Z</time>
      </trkpt>
      <trkpt lat="48.782674" lon="-1.156564">
        <ele>232.881</ele>
        <time>2026-08-24T13:32:29Z</time>
      </trkpt>
      <trkpt lat="48.782680" lon="-1.156545">
        <ele>233.178</ele>
        <time>2026-08-24T13:32:30Z</time>
      </trkpt>
      <trkpt lat="48.782685" lon="-1.156526">
        <ele>233.530</ele>
        <time>2026-08-24T13:32:31Z</time>
      </trkpt>
      <trkpt lat="48.782690" lon="-1.156508">
        <ele>233.783</ele>
        <time>2026-08-24T13:32:32Z</time>
      </trkpt>
      <trkpt lat="48.782698" lon="-1.156497">
        <ele>233.725</ele>
        <time>2026-08-24T13:32:33Z</time>
      </trkpt>
      <trkpt lat="48.782707" lon="-1.156475">
        <ele>233.817</ele>
        <time>2026-08-24T13:32:35Z</time>
      </trkpt>
      <trkpt lat="48.782712" lon="-1.156456">
        <ele>233.909</ele>
        <time>2026-08-24T13:32:36Z</time>
      </trkpt>
      <trkpt lat="48.782721" lon="-1.156437">
        <ele>234.090</ele>
        <time>2026-08-24T13:32:37Z</time>
      </trkpt>
      <trkpt lat="48.782731" lon="-1.156422">
        <ele>234.096</ele>
        <time>2026-08-24T13:32:38Z</time>
      </trkpt>
      <trkpt lat="48.782741" lon="-1.156408">
        <ele>234.069</ele>
        <time>2026-08-24T13:32:39Z</time>
      </trkpt>
      <trkpt lat="48.782747" lon="-1.156396">
        <ele>234.126</ele>
        <time>2026-08-24T13:32:40Z</time>
      </trkpt>
      <trkpt lat="48.782750" lon="-1.156382">
        <ele>234.154</ele>
        <time>2026-08-24T13:32:41Z</time>
      </trkpt>
      <trkpt lat="48.782756" lon="-1.156366">
        <ele>234.182</ele>
        <time>2026-08-24T13:32:42Z</time>
      </trkpt>
      <trkpt lat="48.782764" lon="-1.156348">
        <ele>234.116</ele>
        <time>2026-08-24T13:32:43Z</time>
      </trkpt>
      <trkpt lat="48.782774" lon="-1.156329">
        <ele>234.223</ele>
        <time>2026-08-24T13:32:44Z</time>
      </trkpt>
      <trkpt lat="48.782783" lon="-1.156314">
        <ele>234.225</ele>
        <time>2026-08-24T13:32:45Z</time>
      </trkpt>
      <trkpt lat="48.782791" lon="-1.156299">
        <ele>234.235</ele>
        <time>2026-08-24T13:32:46Z</time>
      </trkpt>
      <trkpt lat="48.782796" lon="-1.156286">
        <ele>234.286</ele>
        <time>2026-08-24T13:32:47Z</time>
      </trkpt>
      <trkpt lat="48.782803" lon="-1.156274">
        <ele>234.214</ele>
        <time>2026-08-24T13:32:48Z</time>
      </trkpt>
      <trkpt lat="48.782811" lon="-1.156257">
        <ele>234.309</ele>
        <time>2026-08-24T13:32:49Z</time>
      </trkpt>
      <trkpt lat="48.782819" lon="-1.156238">
        <ele>234.345</ele>
        <time>2026-08-24T13:32:50Z</time>
      </trkpt>
      <trkpt lat="48.782826" lon="-1.156220">
        <ele>234.441</ele>
        <time>2026-08-24T13:32:51Z</time>
      </trkpt>
      <trkpt lat="48.782833" lon="-1.156211">
        <ele>234.444</ele>
        <time>2026-08-24T13:32:52Z</time>
      </trkpt>
      <trkpt lat="48.782845" lon="-1.156192">
        <ele>234.441</ele>
        <time>2026-08-24T13:32:54Z</time>
      </trkpt>
      <trkpt lat="48.782851" lon="-1.156169">
        <ele>234.539</ele>
        <time>2026-08-24T13:32:55Z</time>
      </trkpt>
      <trkpt lat="48.782858" lon="-1.156146">
        <ele>234.547</ele>
        <time>2026-08-24T13:32:56Z</time>
      </trkpt>
      <trkpt lat="48.782867" lon="-1.156128">
        <ele>234.691</ele>
        <time>2026-08-24T13:32:57Z</time>
      </trkpt>
      <trkpt lat="48.782876" lon="-1.156110">
        <ele>234.768</ele>
        <time>2026-08-24T13:32:58Z</time>
      </trkpt>
      <trkpt lat="48.782884" lon="-1.156099">
        <ele>234.730</ele>
        <time>2026-08-24T13:32:59Z</time>
      </trkpt>
      <trkpt lat="48.782886" lon="-1.156084">
        <ele>234.761</ele>
        <time>2026-08-24T13:33:00Z</time>
      </trkpt>
      <trkpt lat="48.782891" lon="-1.156067">
        <ele>234.821</ele>
        <time>2026-08-24T13:33:01Z</time>
      </trkpt>
      <trkpt lat="48.782897" lon="-1.156049">
        <ele>234.913</ele>
        <time>2026-08-24T13:33:02Z</time>
      </trkpt>
      <trkpt lat="48.782905" lon="-1.156028">
        <ele>234.909</ele>
        <time>2026-08-24T13:33:03Z</time>
      </trkpt>
      <trkpt lat="48.782914" lon="-1.156010">
        <ele>235.088</ele>
        <time>2026-08-24T13:33:04Z</time>
      </trkpt>
      <trkpt lat="48.782920" lon="-1.155997">
        <ele>235.044</ele>
        <time>2026-08-24T13:33:05Z</time>
      </trkpt>
      <trkpt lat="48.782923" lon="-1.155984">
        <ele>235.087</ele>
        <time>2026-08-24T13:33:06Z</time>
      </trkpt>
      <trkpt lat="48.782936" lon="-1.155958">
        <ele>235.014</ele>
        <time>2026-08-24T13:33:08Z</time>
      </trkpt>
      <trkpt lat="48.782943" lon="-1.155938">
        <ele>235.192</ele>
        <time>2026-08-24T13:33:09Z</time>
      </trkpt>
      <trkpt lat="48.782948" lon="-1.155920">
        <ele>235.180</ele>
        <time>2026-08-24T13:33:10Z</time>
      </trkpt>
      <trkpt lat="48.782952" lon="-1.155905">
        <ele>235.194</ele>
        <time>2026-08-24T13:33:11Z</time>
      </trkpt>
      <trkpt lat="48.782956" lon="-1.155888">
        <ele>235.291</ele>
        <time>2026-08-24T13:33:12Z</time>
      </trkpt>
      <trkpt lat="48.782960" lon="-1.155875">
        <ele>235.343</ele>
        <time>2026-08-24T13:33:13Z</time>
      </trkpt>
      <trkpt lat="48.782965" lon="-1.155858">
        <ele>235.316</ele>
        <time>2026-08-24T13:33:14Z</time>
      </trkpt>
      <trkpt lat="48.782969" lon="-1.155837">
        <ele>235.476</ele>
        <time>2026-08-24T13:33:15Z</time>
      </trkpt>
      <trkpt lat="48.782976" lon="-1.155817">
        <ele>235.413</ele>
        <time>2026-08-24T13:33:16Z</time>
      </trkpt>
      <trkpt lat="48.782985" lon="-1.155798">
        <ele>235.409</ele>
        <time>2026-08-24T13:33:17Z</time>
      </trkpt>
      <trkpt lat="48.782994" lon="-1.155781">
        <ele>235.433</ele>
        <time>2026-08-24T13:33:18Z</time>
      </trkpt>
      <trkpt lat="48.783003" lon="-1.155767">
        <ele>235.569</ele>
        <time>2026-08-24T13:33:19Z</time>
      </trkpt>
      <trkpt lat="48.783011" lon="-1.155753">
        <ele>235.592</ele>
        <time>2026-08-24T13:33:20Z</time>
      </trkpt>
      <trkpt lat="48.783020" lon="-1.155735">
        <ele>235.679</ele>
        <time>2026-08-24T13:33:21Z</time>
      </trkpt>
      <trkpt lat="48.783026" lon="-1.155716">
        <ele>235.927</ele>
        <time>2026-08-24T13:33:22Z</time>
      </trkpt>
      <trkpt lat="48.783032" lon="-1.155697">
        <ele>236.235</ele>
        <time>2026-08-24T13:33:23Z</time>
      </trkpt>
      <trkpt lat="48.783043" lon="-1.155676">
        <ele>236.329</ele>
        <time>2026-08-24T13:33:24Z</time>
      </trkpt>
      <trkpt lat="48.783053" lon="-1.155660">
        <ele>236.496</ele>
        <time>2026-08-24T13:33:25Z</time>
      </trkpt>
      <trkpt lat="48.783062" lon="-1.155646">
        <ele>236.658</ele>
        <time>2026-08-24T13:33:26Z</time>
      </trkpt>
      <trkpt lat="48.783071" lon="-1.155629">
        <ele>236.929</ele>
        <time>2026-08-24T13:33:27Z</time>
      </trkpt>
      <trkpt lat="48.783077" lon="-1.155612">
        <ele>237.200</ele>
        <time>2026-08-24T13:33:28Z</time>
      </trkpt>
      <trkpt lat="48.783083" lon="-1.155598">
        <ele>237.320</ele>
        <time>2026-08-24T13:33:29Z</time>
      </trkpt>
      <trkpt lat="48.783089" lon="-1.155585">
        <ele>237.409</ele>
        <time>2026-08-24T13:33:30Z</time>
      </trkpt>
      <trkpt lat="48.783094" lon="-1.155569">
        <ele>237.554</ele>
        <time>2026-08-24T13:33:31Z</time>
      </trkpt>
      <trkpt lat="48.783101" lon="-1.155552">
        <ele>237.650</ele>
        <time>2026-08-24T13:33:32Z</time>
      </trkpt>
      <trkpt lat="48.783110" lon="-1.155533">
        <ele>237.923</ele>
        <time>2026-08-24T13:33:33Z</time>
      </trkpt>
      <trkpt lat="48.783115" lon="-1.155518">
        <ele>238.350</ele>
        <time>2026-08-24T13:33:34Z</time>
      </trkpt>
      <trkpt lat="48.783133" lon="-1.155507">
        <ele>238.458</ele>
        <time>2026-08-24T13:33:36Z</time>
      </trkpt>
      <trkpt lat="48.783139" lon="-1.155487">
        <ele>238.496</ele>
        <time>2026-08-24T13:33:37Z</time>
      </trkpt>
      <trkpt lat="48.783148" lon="-1.155463">
        <ele>238.480</ele>
        <time>2026-08-24T13:33:38Z</time>
      </trkpt>
      <trkpt lat="48.783156" lon="-1.155446">
        <ele>238.487</ele>
        <time>2026-08-24T13:33:39Z</time>
      </trkpt>
      <trkpt lat="48.783162" lon="-1.155425">
        <ele>238.539</ele>
        <time>2026-08-24T13:33:40Z</time>
      </trkpt>
      <trkpt lat="48.783171" lon="-1.155410">
        <ele>238.537</ele>
        <time>2026-08-24T13:33:41Z</time>
      </trkpt>
      <trkpt lat="48.783181" lon="-1.155391">
        <ele>238.649</ele>
        <time>2026-08-24T13:33:42Z</time>
      </trkpt>
      <trkpt lat="48.783185" lon="-1.155371">
        <ele>238.713</ele>
        <time>2026-08-24T13:33:43Z</time>
      </trkpt>
      <trkpt lat="48.783191" lon="-1.155345">
        <ele>238.709</ele>
        <time>2026-08-24T13:33:45Z</time>
      </trkpt>
      <trkpt lat="48.783195" lon="-1.155329">
        <ele>238.745</ele>
        <time>2026-08-24T13:33:46Z</time>
      </trkpt>
      <trkpt lat="48.783200" lon="-1.155316">
        <ele>238.791</ele>
        <time>2026-08-24T13:33:47Z</time>
      </trkpt>
      <trkpt lat="48.783204" lon="-1.155301">
        <ele>238.744</ele>
        <time>2026-08-24T13:33:48Z</time>
      </trkpt>
      <trkpt lat="48.783212" lon="-1.155284">
        <ele>238.831</ele>
        <time>2026-08-24T13:33:49Z</time>
      </trkpt>
      <trkpt lat="48.783222" lon="-1.155272">
        <ele>238.879</ele>
        <time>2026-08-24T13:33:50Z</time>
      </trkpt>
      <trkpt lat="48.783233" lon="-1.155258">
        <ele>238.827</ele>
        <time>2026-08-24T13:33:51Z</time>
      </trkpt>
      <trkpt lat="48.783243" lon="-1.155239">
        <ele>238.921</ele>
        <time>2026-08-24T13:33:52Z</time>
      </trkpt>
      <trkpt lat="48.783254" lon="-1.155216">
        <ele>238.938</ele>
        <time>2026-08-24T13:33:53Z</time>
      </trkpt>
      <trkpt lat="48.783266" lon="-1.155196">
        <ele>238.990</ele>
        <time>2026-08-24T13:33:54Z</time>
      </trkpt>
      <trkpt lat="48.783279" lon="-1.155176">
        <ele>238.956</ele>
        <time>2026-08-24T13:33:55Z</time>
      </trkpt>
      <trkpt lat="48.783290" lon="-1.155161">
        <ele>238.959</ele>
        <time>2026-08-24T13:33:56Z</time>
      </trkpt>
      <trkpt lat="48.783300" lon="-1.155149">
        <ele>238.914</ele>
        <time>2026-08-24T13:33:57Z</time>
      </trkpt>
      <trkpt lat="48.783310" lon="-1.155136">
        <ele>238.909</ele>
        <time>2026-08-24T13:33:58Z</time>
      </trkpt>
      <trkpt lat="48.783315" lon="-1.155120">
        <ele>238.967</ele>
        <time>2026-08-24T13:33:59Z</time>
      </trkpt>
      <trkpt lat="48.783319" lon="-1.155106">
        <ele>238.993</ele>
        <time>2026-08-24T13:34:00Z</time>
      </trkpt>
      <trkpt lat="48.783326" lon="-1.155090">
        <ele>239.056</ele>
        <time>2026-08-24T13:34:01Z</time>
      </trkpt>
      <trkpt lat="48.783335" lon="-1.155071">
        <ele>239.073</ele>
        <time>2026-08-24T13:34:02Z</time>
      </trkpt>
      <trkpt lat="48.783337" lon="-1.155055">
        <ele>239.271</ele>
        <time>2026-08-24T13:34:03Z</time>
      </trkpt>
      <trkpt lat="48.783345" lon="-1.155042">
        <ele>239.439</ele>
        <time>2026-08-24T13:34:04Z</time>
      </trkpt>
      <trkpt lat="48.783350" lon="-1.155025">
        <ele>239.553</ele>
        <time>2026-08-24T13:34:05Z</time>
      </trkpt>
      <trkpt lat="48.783355" lon="-1.155009">
        <ele>239.670</ele>
        <time>2026-08-24T13:34:06Z</time>
      </trkpt>
      <trkpt lat="48.783366" lon="-1.154991">
        <ele>239.722</ele>
        <time>2026-08-24T13:34:07Z</time>
      </trkpt>
      <trkpt lat="48.783376" lon="-1.154972">
        <ele>239.755</ele>
        <time>2026-08-24T13:34:08Z</time>
      </trkpt>
      <trkpt lat="48.783387" lon="-1.154952">
        <ele>239.707</ele>
        <time>2026-08-24T13:34:09Z</time>
      </trkpt>
      <trkpt lat="48.783394" lon="-1.154935">
        <ele>239.817</ele>
        <time>2026-08-24T13:34:10Z</time>
      </trkpt>
      <trkpt lat="48.783400" lon="-1.154915">
        <ele>239.809</ele>
        <time>2026-08-24T13:34:12Z</time>
      </trkpt>
      <trkpt lat="48.783405" lon="-1.154896">
        <ele>239.827</ele>
        <time>2026-08-24T13:34:13Z</time>
      </trkpt>
      <trkpt lat="48.783411" lon="-1.154875">
        <ele>239.863</ele>
        <time>2026-08-24T13:34:14Z</time>
      </trkpt>
      <trkpt lat="48.783420" lon="-1.154854">
        <ele>239.826</ele>
        <time>2026-08-24T13:34:15Z</time>
      </trkpt>
      <trkpt lat="48.783430" lon="-1.154835">
        <ele>239.823</ele>
        <time>2026-08-24T13:34:16Z</time>
      </trkpt>
      <trkpt lat="48.783434" lon="-1.154819">
        <ele>239.871</ele>
        <time>2026-08-24T13:34:17Z</time>
      </trkpt>
      <trkpt lat="48.783437" lon="-1.154802">
        <ele>239.879</ele>
        <time>2026-08-24T13:34:18Z</time>
      </trkpt>
      <trkpt lat="48.783442" lon="-1.154788">
        <ele>239.873</ele>
        <time>2026-08-24T13:34:19Z</time>
      </trkpt>
      <trkpt lat="48.783449" lon="-1.154772">
        <ele>239.950</ele>
        <time>2026-08-24T13:34:20Z</time>
      </trkpt>
      <trkpt lat="48.783459" lon="-1.154757">
        <ele>239.912</ele>
        <time>2026-08-24T13:34:21Z</time>
      </trkpt>
      <trkpt lat="48.783469" lon="-1.154737">
        <ele>239.924</ele>
        <time>2026-08-24T13:34:22Z</time>
      </trkpt>
      <trkpt lat="48.783477" lon="-1.154721">
        <ele>240.004</ele>
        <time>2026-08-24T13:34:23Z</time>
      </trkpt>
      <trkpt lat="48.783481" lon="-1.154705">
        <ele>240.014</ele>
        <time>2026-08-24T13:34:24Z</time>
      </trkpt>
      <trkpt lat="48.783485" lon="-1.154688">
        <ele>240.009</ele>
        <time>2026-08-24T13:34:25Z</time>
      </trkpt>
      <trkpt lat="48.783493" lon="-1.154675">
        <ele>240.154</ele>
        <time>2026-08-24T13:34:26Z</time>
      </trkpt>
      <trkpt lat="48.783502" lon="-1.154656">
        <ele>240.150</ele>
        <time>2026-08-24T13:34:27Z</time>
      </trkpt>
      <trkpt lat="48.783511" lon="-1.154640">
        <ele>240.163</ele>
        <time>2026-08-24T13:34:28Z</time>
      </trkpt>
      <trkpt lat="48.783517" lon="-1.154618">
        <ele>240.120</ele>
        <time>2026-08-24T13:34:29Z</time>
      </trkpt>
      <trkpt lat="48.783523" lon="-1.154598">
        <ele>240.148</ele>
        <time>2026-08-24T13:34:30Z</time>
      </trkpt>
      <trkpt lat="48.783533" lon="-1.154587">
        <ele>240.166</ele>
        <time>2026-08-24T13:34:31Z</time>
      </trkpt>
      <trkpt lat="48.783538" lon="-1.154573">
        <ele>240.240</ele>
        <time>2026-08-24T13:34:32Z</time>
      </trkpt>
      <trkpt lat="48.783543" lon="-1.154558">
        <ele>240.487</ele>
        <time>2026-08-24T13:34:33Z</time>
      </trkpt>
      <trkpt lat="48.783547" lon="-1.154541">
        <ele>240.739</ele>
        <time>2026-08-24T13:34:34Z</time>
      </trkpt>
      <trkpt lat="48.783552" lon="-1.154526">
        <ele>241.056</ele>
        <time>2026-08-24T13:34:35Z</time>
      </trkpt>
      <trkpt lat="48.783558" lon="-1.154506">
        <ele>241.259</ele>
        <time>2026-08-24T13:34:36Z</time>
      </trkpt>
      <trkpt lat="48.783566" lon="-1.154490">
        <ele>241.214</ele>
        <time>2026-08-24T13:34:37Z</time>
      </trkpt>
      <trkpt lat="48.783571" lon="-1.154473">
        <ele>241.209</ele>
        <time>2026-08-24T13:34:38Z</time>
      </trkpt>
      <trkpt lat="48.783577" lon="-1.154463">
        <ele>241.277</ele>
        <time>2026-08-24T13:34:39Z</time>
      </trkpt>
      <trkpt lat="48.783582" lon="-1.154448">
        <ele>241.253</ele>
        <time>2026-08-24T13:34:40Z</time>
      </trkpt>
      <trkpt lat="48.783585" lon="-1.154430">
        <ele>241.286</ele>
        <time>2026-08-24T13:34:41Z</time>
      </trkpt>
      <trkpt lat="48.783592" lon="-1.154415">
        <ele>241.253</ele>
        <time>2026-08-24T13:34:42Z</time>
      </trkpt>
      <trkpt lat="48.783598" lon="-1.154395">
        <ele>241.271</ele>
        <time>2026-08-24T13:34:43Z</time>
      </trkpt>
      <trkpt lat="48.783605" lon="-1.154374">
        <ele>241.249</ele>
        <time>2026-08-24T13:34:44Z</time>
      </trkpt>
      <trkpt lat="48.783614" lon="-1.154356">
        <ele>241.243</ele>
        <time>2026-08-24T13:34:45Z</time>
      </trkpt>
      <trkpt lat="48.783622" lon="-1.154338">
        <ele>241.230</ele>
        <time>2026-08-24T13:34:46Z</time>
      </trkpt>
      <trkpt lat="48.783627" lon="-1.154325">
        <ele>241.272</ele>
        <time>2026-08-24T13:34:47Z</time>
      </trkpt>
      <trkpt lat="48.783635" lon="-1.154313">
        <ele>241.259</ele>
        <time>2026-08-24T13:34:48Z</time>
      </trkpt>
      <trkpt lat="48.783641" lon="-1.154293">
        <ele>241.303</ele>
        <time>2026-08-24T13:34:49Z</time>
      </trkpt>
      <trkpt lat="48.783649" lon="-1.154277">
        <ele>241.423</ele>
        <time>2026-08-24T13:34:50Z</time>
      </trkpt>
      <trkpt lat="48.783658" lon="-1.154263">
        <ele>241.409</ele>
        <time>2026-08-24T13:34:51Z</time>
      </trkpt>
      <trkpt lat="48.783668" lon="-1.154249">
        <ele>241.427</ele>
        <time>2026-08-24T13:34:52Z</time>
      </trkpt>
      <trkpt lat="48.783679" lon="-1.154236">
        <ele>241.353</ele>
        <time>2026-08-24T13:34:53Z</time>
      </trkpt>
      <trkpt lat="48.783689" lon="-1.154230">
        <ele>241.246</ele>
        <time>2026-08-24T13:34:54Z</time>
      </trkpt>
      <trkpt lat="48.783701" lon="-1.154228">
        <ele>241.263</ele>
        <time>2026-08-24T13:34:55Z</time>
      </trkpt>
      <trkpt lat="48.783712" lon="-1.154227">
        <ele>241.251</ele>
        <time>2026-08-24T13:34:56Z</time>
      </trkpt>
      <trkpt lat="48.783726" lon="-1.154236">
        <ele>241.229</ele>
        <time>2026-08-24T13:34:57Z</time>
      </trkpt>
      <trkpt lat="48.783735" lon="-1.154246">
        <ele>241.293</ele>
        <time>2026-08-24T13:34:58Z</time>
      </trkpt>
      <trkpt lat="48.783745" lon="-1.154252">
        <ele>241.180</ele>
        <time>2026-08-24T13:34:59Z</time>
      </trkpt>
      <trkpt lat="48.783754" lon="-1.154260">
        <ele>241.122</ele>
        <time>2026-08-24T13:35:00Z</time>
      </trkpt>
      <trkpt lat="48.783762" lon="-1.154271">
        <ele>241.153</ele>
        <time>2026-08-24T13:35:01Z</time>
      </trkpt>
      <trkpt lat="48.783769" lon="-1.154283">
        <ele>241.104</ele>
        <time>2026-08-24T13:35:02Z</time>
      </trkpt>
      <trkpt lat="48.783782" lon="-1.154295">
        <ele>241.114</ele>
        <time>2026-08-24T13:35:03Z</time>
      </trkpt>
      <trkpt lat="48.783793" lon="-1.154304">
        <ele>241.109</ele>
        <time>2026-08-24T13:35:04Z</time>
      </trkpt>
      <trkpt lat="48.783801" lon="-1.154316">
        <ele>241.157</ele>
        <time>2026-08-24T13:35:05Z</time>
      </trkpt>
      <trkpt lat="48.783810" lon="-1.154325">
        <ele>241.183</ele>
        <time>2026-08-24T13:35:06Z</time>
      </trkpt>
      <trkpt lat="48.783820" lon="-1.154332">
        <ele>241.186</ele>
        <time>2026-08-24T13:35:07Z</time>
      </trkpt>
      <trkpt lat="48.783834" lon="-1.154348">
        <ele>241.173</ele>
        <time>2026-08-24T13:35:09Z</time>
      </trkpt>
      <trkpt lat="48.783844" lon="-1.154360">
        <ele>241.131</ele>
        <time>2026-08-24T13:35:10Z</time>
      </trkpt>
      <trkpt lat="48.783857" lon="-1.154369">
        <ele>241.199</ele>
        <time>2026-08-24T13:35:11Z</time>
      </trkpt>
      <trkpt lat="48.783867" lon="-1.154376">
        <ele>241.173</ele>
        <time>2026-08-24T13:35:12Z</time>
      </trkpt>
      <trkpt lat="48.783876" lon="-1.154378">
        <ele>241.190</ele>
        <time>2026-08-24T13:35:13Z</time>
      </trkpt>
      <trkpt lat="48.783890" lon="-1.154394">
        <ele>241.192</ele>
        <time>2026-08-24T13:35:15Z</time>
      </trkpt>
      <trkpt lat="48.783905" lon="-1.154403">
        <ele>241.128</ele>
        <time>2026-08-24T13:35:16Z</time>
      </trkpt>
      <trkpt lat="48.783919" lon="-1.154410">
        <ele>241.189</ele>
        <time>2026-08-24T13:35:17Z</time>
      </trkpt>
      <trkpt lat="48.783931" lon="-1.154412">
        <ele>241.117</ele>
        <time>2026-08-24T13:35:18Z</time>
      </trkpt>
      <trkpt lat="48.783942" lon="-1.154421">
        <ele>241.209</ele>
        <time>2026-08-24T13:35:19Z</time>
      </trkpt>
      <trkpt lat="48.783952" lon="-1.154435">
        <ele>241.224</ele>
        <time>2026-08-24T13:35:20Z</time>
      </trkpt>
      <trkpt lat="48.783963" lon="-1.154449">
        <ele>241.260</ele>
        <time>2026-08-24T13:35:21Z</time>
      </trkpt>
      <trkpt lat="48.783977" lon="-1.154457">
        <ele>241.143</ele>
        <time>2026-08-24T13:35:22Z</time>
      </trkpt>
      <trkpt lat="48.783986" lon="-1.154464">
        <ele>241.120</ele>
        <time>2026-08-24T13:35:24Z</time>
      </trkpt>
      <trkpt lat="48.784004" lon="-1.154474">
        <ele>241.278</ele>
        <time>2026-08-24T13:35:26Z</time>
      </trkpt>
      <trkpt lat="48.784018" lon="-1.154480">
        <ele>241.286</ele>
        <time>2026-08-24T13:35:27Z</time>
      </trkpt>
      <trkpt lat="48.784027" lon="-1.154482">
        <ele>241.210</ele>
        <time>2026-08-24T13:35:28Z</time>
      </trkpt>
      <trkpt lat="48.784038" lon="-1.154488">
        <ele>241.247</ele>
        <time>2026-08-24T13:35:30Z</time>
      </trkpt>
      <trkpt lat="48.784047" lon="-1.154501">
        <ele>241.289</ele>
        <time>2026-08-24T13:35:31Z</time>
      </trkpt>
      <trkpt lat="48.784060" lon="-1.154517">
        <ele>241.268</ele>
        <time>2026-08-24T13:35:32Z</time>
      </trkpt>
      <trkpt lat="48.784079" lon="-1.154526">
        <ele>241.242</ele>
        <time>2026-08-24T13:35:33Z</time>
      </trkpt>
      <trkpt lat="48.784092" lon="-1.154534">
        <ele>241.326</ele>
        <time>2026-08-24T13:35:34Z</time>
      </trkpt>
      <trkpt lat="48.784106" lon="-1.154549">
        <ele>241.309</ele>
        <time>2026-08-24T13:35:36Z</time>
      </trkpt>
      <trkpt lat="48.784119" lon="-1.154560">
        <ele>241.318</ele>
        <time>2026-08-24T13:35:37Z</time>
      </trkpt>
      <trkpt lat="48.784132" lon="-1.154568">
        <ele>241.494</ele>
        <time>2026-08-24T13:35:38Z</time>
      </trkpt>
      <trkpt lat="48.784141" lon="-1.154577">
        <ele>241.477</ele>
        <time>2026-08-24T13:35:39Z</time>
      </trkpt>
      <trkpt lat="48.784151" lon="-1.154587">
        <ele>241.524</ele>
        <time>2026-08-24T13:35:40Z</time>
      </trkpt>
      <trkpt lat="48.784162" lon="-1.154595">
        <ele>241.672</ele>
        <time>2026-08-24T13:35:41Z</time>
      </trkpt>
      <trkpt lat="48.784174" lon="-1.154609">
        <ele>241.780</ele>
        <time>2026-08-24T13:35:42Z</time>
      </trkpt>
      <trkpt lat="48.784186" lon="-1.154619">
        <ele>241.874</ele>
        <time>2026-08-24T13:35:43Z</time>
      </trkpt>
      <trkpt lat="48.784199" lon="-1.154626">
        <ele>241.831</ele>
        <time>2026-08-24T13:35:44Z</time>
      </trkpt>
      <trkpt lat="48.784212" lon="-1.154632">
        <ele>241.883</ele>
        <time>2026-08-24T13:35:45Z</time>
      </trkpt>
      <trkpt lat="48.784229" lon="-1.154644">
        <ele>241.955</ele>
        <time>2026-08-24T13:35:47Z</time>
      </trkpt>
      <trkpt lat="48.784240" lon="-1.154652">
        <ele>241.907</ele>
        <time>2026-08-24T13:35:48Z</time>
      </trkpt>
      <trkpt lat="48.784249" lon="-1.154656">
        <ele>241.917</ele>
        <time>2026-08-24T13:35:49Z</time>
      </trkpt>
      <trkpt lat="48.784263" lon="-1.154679">
        <ele>241.909</ele>
        <time>2026-08-24T13:35:51Z</time>
      </trkpt>
      <trkpt lat="48.784271" lon="-1.154696">
        <ele>241.917</ele>
        <time>2026-08-24T13:35:52Z</time>
      </trkpt>
      <trkpt lat="48.784278" lon="-1.154707">
        <ele>241.983</ele>
        <time>2026-08-24T13:35:53Z</time>
      </trkpt>
      <trkpt lat="48.784287" lon="-1.154720">
        <ele>242.016</ele>
        <time>2026-08-24T13:35:54Z</time>
      </trkpt>
      <trkpt lat="48.784293" lon="-1.154737">
        <ele>242.063</ele>
        <time>2026-08-24T13:35:54.999Z</time>
      </trkpt>
      <trkpt lat="48.784303" lon="-1.154759">
        <ele>242.011</ele>
        <time>2026-08-24T13:35:56.999Z</time>
      </trkpt>
      <trkpt lat="48.784310" lon="-1.154770">
        <ele>242.019</ele>
        <time>2026-08-24T13:35:57.999Z</time>
      </trkpt>
      <trkpt lat="48.784319" lon="-1.154780">
        <ele>242.023</ele>
        <time>2026-08-24T13:35:58.999Z</time>
      </trkpt>
      <trkpt lat="48.784329" lon="-1.154789">
        <ele>242.070</ele>
        <time>2026-08-24T13:35:59.999Z</time>
      </trkpt>
      <trkpt lat="48.784334" lon="-1.154800">
        <ele>242.082</ele>
        <time>2026-08-24T13:36:00.999Z</time>
      </trkpt>
      <trkpt lat="48.784344" lon="-1.154813">
        <ele>242.028</ele>
        <time>2026-08-24T13:36:01.999Z</time>
      </trkpt>
      <trkpt lat="48.784357" lon="-1.154820">
        <ele>242.189</ele>
        <time>2026-08-24T13:36:02.999Z</time>
      </trkpt>
      <trkpt lat="48.784369" lon="-1.154829">
        <ele>242.117</ele>
        <time>2026-08-24T13:36:03.999Z</time>
      </trkpt>
      <trkpt lat="48.784385" lon="-1.154840">
        <ele>242.109</ele>
        <time>2026-08-24T13:36:04.999Z</time>
      </trkpt>
      <trkpt lat="48.784395" lon="-1.154857">
        <ele>242.124</ele>
        <time>2026-08-24T13:36:05.999Z</time>
      </trkpt>
      <trkpt lat="48.784405" lon="-1.154872">
        <ele>242.230</ele>
        <time>2026-08-24T13:36:06.999Z</time>
      </trkpt>
      <trkpt lat="48.784412" lon="-1.154889">
        <ele>242.293</ele>
        <time>2026-08-24T13:36:07.999Z</time>
      </trkpt>
      <trkpt lat="48.784427" lon="-1.154902">
        <ele>242.230</ele>
        <time>2026-08-24T13:36:08.999Z</time>
      </trkpt>
      <trkpt lat="48.784440" lon="-1.154912">
        <ele>242.268</ele>
        <time>2026-08-24T13:36:09.999Z</time>
      </trkpt>
      <trkpt lat="48.784449" lon="-1.154918">
        <ele>242.236</ele>
        <time>2026-08-24T13:36:10.999Z</time>
      </trkpt>
      <trkpt lat="48.784461" lon="-1.154944">
        <ele>242.250</ele>
        <time>2026-08-24T13:36:12.999Z</time>
      </trkpt>
      <trkpt lat="48.784471" lon="-1.154959">
        <ele>242.217</ele>
        <time>2026-08-24T13:36:13.999Z</time>
      </trkpt>
      <trkpt lat="48.784480" lon="-1.154978">
        <ele>242.269</ele>
        <time>2026-08-24T13:36:14.999Z</time>
      </trkpt>
      <trkpt lat="48.784491" lon="-1.154990">
        <ele>242.262</ele>
        <time>2026-08-24T13:36:15.999Z</time>
      </trkpt>
      <trkpt lat="48.784501" lon="-1.155001">
        <ele>242.283</ele>
        <time>2026-08-24T13:36:16.999Z</time>
      </trkpt>
      <trkpt lat="48.784509" lon="-1.155016">
        <ele>242.311</ele>
        <time>2026-08-24T13:36:17.999Z</time>
      </trkpt>
      <trkpt lat="48.784518" lon="-1.155032">
        <ele>242.309</ele>
        <time>2026-08-24T13:36:18.999Z</time>
      </trkpt>
      <trkpt lat="48.784530" lon="-1.155045">
        <ele>242.468</ele>
        <time>2026-08-24T13:36:19.999Z</time>
      </trkpt>
      <trkpt lat="48.784542" lon="-1.155058">
        <ele>242.634</ele>
        <time>2026-08-24T13:36:20.999Z</time>
      </trkpt>
      <trkpt lat="48.784552" lon="-1.155068">
        <ele>243.047</ele>
        <time>2026-08-24T13:36:21.999Z</time>
      </trkpt>
      <trkpt lat="48.784561" lon="-1.155080">
        <ele>243.234</ele>
        <time>2026-08-24T13:36:22.999Z</time>
      </trkpt>
      <trkpt lat="48.784577" lon="-1.155094">
        <ele>243.282</ele>
        <time>2026-08-24T13:36:24.999Z</time>
      </trkpt>
      <trkpt lat="48.784586" lon="-1.155107">
        <ele>243.370</ele>
        <time>2026-08-24T13:36:25.999Z</time>
      </trkpt>
      <trkpt lat="48.784595" lon="-1.155118">
        <ele>243.344</ele>
        <time>2026-08-24T13:36:26.999Z</time>
      </trkpt>
      <trkpt lat="48.784603" lon="-1.155141">
        <ele>243.361</ele>
        <time>2026-08-24T13:36:28.999Z</time>
      </trkpt>
      <trkpt lat="48.784616" lon="-1.155162">
        <ele>243.363</ele>
        <time>2026-08-24T13:36:30.999Z</time>
      </trkpt>
      <trkpt lat="48.784629" lon="-1.155175">
        <ele>243.448</ele>
        <time>2026-08-24T13:36:31.999Z</time>
      </trkpt>
      <trkpt lat="48.784638" lon="-1.155181">
        <ele>243.461</ele>
        <time>2026-08-24T13:36:32.999Z</time>
      </trkpt>
      <trkpt lat="48.784648" lon="-1.155194">
        <ele>243.417</ele>
        <time>2026-08-24T13:36:34.999Z</time>
      </trkpt>
      <trkpt lat="48.784654" lon="-1.155205">
        <ele>243.409</ele>
        <time>2026-08-24T13:36:35.999Z</time>
      </trkpt>
      <trkpt lat="48.784668" lon="-1.155214">
        <ele>243.476</ele>
        <time>2026-08-24T13:36:36.999Z</time>
      </trkpt>
      <trkpt lat="48.784678" lon="-1.155224">
        <ele>243.422</ele>
        <time>2026-08-24T13:36:37.999Z</time>
      </trkpt>
      <trkpt lat="48.784688" lon="-1.155239">
        <ele>243.435</ele>
        <time>2026-08-24T13:36:38.999Z</time>
      </trkpt>
      <trkpt lat="48.784701" lon="-1.155253">
        <ele>243.472</ele>
        <time>2026-08-24T13:36:39.999Z</time>
      </trkpt>
      <trkpt lat="48.784713" lon="-1.155271">
        <ele>243.440</ele>
        <time>2026-08-24T13:36:40.999Z</time>
      </trkpt>
      <trkpt lat="48.784722" lon="-1.155287">
        <ele>243.498</ele>
        <time>2026-08-24T13:36:41.999Z</time>
      </trkpt>
      <trkpt lat="48.784729" lon="-1.155299">
        <ele>243.412</ele>
        <time>2026-08-24T13:36:42.999Z</time>
      </trkpt>
      <trkpt lat="48.784738" lon="-1.155305">
        <ele>243.339</ele>
        <time>2026-08-24T13:36:43.999Z</time>
      </trkpt>
      <trkpt lat="48.784751" lon="-1.155322">
        <ele>243.311</ele>
        <time>2026-08-24T13:36:45.999Z</time>
      </trkpt>
      <trkpt lat="48.784761" lon="-1.155332">
        <ele>243.346</ele>
        <time>2026-08-24T13:36:46.999Z</time>
      </trkpt>
      <trkpt lat="48.784772" lon="-1.155347">
        <ele>243.388</ele>
        <time>2026-08-24T13:36:47.999Z</time>
      </trkpt>
      <trkpt lat="48.784781" lon="-1.155367">
        <ele>243.216</ele>
        <time>2026-08-24T13:36:48.999Z</time>
      </trkpt>
      <trkpt lat="48.784791" lon="-1.155387">
        <ele>243.209</ele>
        <time>2026-08-24T13:36:49.999Z</time>
      </trkpt>
      <trkpt lat="48.784800" lon="-1.155398">
        <ele>243.236</ele>
        <time>2026-08-24T13:36:50.999Z</time>
      </trkpt>
      <trkpt lat="48.784815" lon="-1.155419">
        <ele>243.092</ele>
        <time>2026-08-24T13:36:52.999Z</time>
      </trkpt>
      <trkpt lat="48.784823" lon="-1.155432">
        <ele>242.865</ele>
        <time>2026-08-24T13:36:53.999Z</time>
      </trkpt>
      <trkpt lat="48.784832" lon="-1.155444">
        <ele>242.832</ele>
        <time>2026-08-24T13:36:54.999Z</time>
      </trkpt>
      <trkpt lat="48.784837" lon="-1.155464">
        <ele>242.860</ele>
        <time>2026-08-24T13:36:55.999Z</time>
      </trkpt>
      <trkpt lat="48.784852" lon="-1.155481">
        <ele>242.888</ele>
        <time>2026-08-24T13:36:57.999Z</time>
      </trkpt>
      <trkpt lat="48.784862" lon="-1.155500">
        <ele>242.882</ele>
        <time>2026-08-24T13:36:58.999Z</time>
      </trkpt>
      <trkpt lat="48.784870" lon="-1.155515">
        <ele>242.869</ele>
        <time>2026-08-24T13:36:59.999Z</time>
      </trkpt>
      <trkpt lat="48.784878" lon="-1.155527">
        <ele>242.841</ele>
        <time>2026-08-24T13:37:00.999Z</time>
      </trkpt>
      <trkpt lat="48.784886" lon="-1.155541">
        <ele>242.846</ele>
        <time>2026-08-24T13:37:01.999Z</time>
      </trkpt>
      <trkpt lat="48.784897" lon="-1.155557">
        <ele>242.888</ele>
        <time>2026-08-24T13:37:03.999Z</time>
      </trkpt>
      <trkpt lat="48.784902" lon="-1.155569">
        <ele>242.816</ele>
        <time>2026-08-24T13:37:04.999Z</time>
      </trkpt>
      <trkpt lat="48.784908" lon="-1.155584">
        <ele>242.809</ele>
        <time>2026-08-24T13:37:05.999Z</time>
      </trkpt>
      <trkpt lat="48.784915" lon="-1.155596">
        <ele>242.816</ele>
        <time>2026-08-24T13:37:06.999Z</time>
      </trkpt>
      <trkpt lat="48.784922" lon="-1.155605">
        <ele>242.852</ele>
        <time>2026-08-24T13:37:07.999Z</time>
      </trkpt>
      <trkpt lat="48.784929" lon="-1.155621">
        <ele>242.875</ele>
        <time>2026-08-24T13:37:08.999Z</time>
      </trkpt>
      <trkpt lat="48.784937" lon="-1.155638">
        <ele>242.892</ele>
        <time>2026-08-24T13:37:09.999Z</time>
      </trkpt>
      <trkpt lat="48.784950" lon="-1.155657">
        <ele>242.860</ele>
        <time>2026-08-24T13:37:10.999Z</time>
      </trkpt>
      <trkpt lat="48.784960" lon="-1.155677">
        <ele>242.928</ele>
        <time>2026-08-24T13:37:12.999Z</time>
      </trkpt>
      <trkpt lat="48.784971" lon="-1.155696">
        <ele>243.172</ele>
        <time>2026-08-24T13:37:14.999Z</time>
      </trkpt>
      <trkpt lat="48.784980" lon="-1.155710">
        <ele>243.279</ele>
        <time>2026-08-24T13:37:15.999Z</time>
      </trkpt>
      <trkpt lat="48.784990" lon="-1.155727">
        <ele>243.271</ele>
        <time>2026-08-24T13:37:16.999Z</time>
      </trkpt>
      <trkpt lat="48.784999" lon="-1.155741">
        <ele>243.314</ele>
        <time>2026-08-24T13:37:17.999Z</time>
      </trkpt>
      <trkpt lat="48.785007" lon="-1.155754">
        <ele>243.354</ele>
        <time>2026-08-24T13:37:18.999Z</time>
      </trkpt>
      <trkpt lat="48.785014" lon="-1.155766">
        <ele>243.309</ele>
        <time>2026-08-24T13:37:19.999Z</time>
      </trkpt>
      <trkpt lat="48.785021" lon="-1.155780">
        <ele>243.409</ele>
        <time>2026-08-24T13:37:20.999Z</time>
      </trkpt>
      <trkpt lat="48.785031" lon="-1.155797">
        <ele>243.443</ele>
        <time>2026-08-24T13:37:21.999Z</time>
      </trkpt>
      <trkpt lat="48.785040" lon="-1.155806">
        <ele>243.449</ele>
        <time>2026-08-24T13:37:22.999Z</time>
      </trkpt>
      <trkpt lat="48.785046" lon="-1.155821">
        <ele>243.432</ele>
        <time>2026-08-24T13:37:23.999Z</time>
      </trkpt>
      <trkpt lat="48.785054" lon="-1.155841">
        <ele>243.549</ele>
        <time>2026-08-24T13:37:25.999Z</time>
      </trkpt>
      <trkpt lat="48.785059" lon="-1.155856">
        <ele>243.527</ele>
        <time>2026-08-24T13:37:26.999Z</time>
      </trkpt>
      <trkpt lat="48.785068" lon="-1.155870">
        <ele>243.585</ele>
        <time>2026-08-24T13:37:27.999Z</time>
      </trkpt>
      <trkpt lat="48.785079" lon="-1.155885">
        <ele>243.549</ele>
        <time>2026-08-24T13:37:28.999Z</time>
      </trkpt>
      <trkpt lat="48.785087" lon="-1.155894">
        <ele>243.526</ele>
        <time>2026-08-24T13:37:29.999Z</time>
      </trkpt>
      <trkpt lat="48.785095" lon="-1.155915">
        <ele>243.568</ele>
        <time>2026-08-24T13:37:30.999Z</time>
      </trkpt>
      <trkpt lat="48.785102" lon="-1.155928">
        <ele>243.632</ele>
        <time>2026-08-24T13:37:31.999Z</time>
      </trkpt>
      <trkpt lat="48.785112" lon="-1.155941">
        <ele>243.692</ele>
        <time>2026-08-24T13:37:33.999Z</time>
      </trkpt>
      <trkpt lat="48.785124" lon="-1.155947">
        <ele>243.611</ele>
        <time>2026-08-24T13:37:34.999Z</time>
      </trkpt>
      <trkpt lat="48.785134" lon="-1.155952">
        <ele>243.609</ele>
        <time>2026-08-24T13:37:35.999Z</time>
      </trkpt>
      <trkpt lat="48.785138" lon="-1.155966">
        <ele>243.695</ele>
        <time>2026-08-24T13:37:36.999Z</time>
      </trkpt>
      <trkpt lat="48.785147" lon="-1.155975">
        <ele>243.671</ele>
        <time>2026-08-24T13:37:37.999Z</time>
      </trkpt>
      <trkpt lat="48.785157" lon="-1.155986">
        <ele>243.624</ele>
        <time>2026-08-24T13:37:38.999Z</time>
      </trkpt>
      <trkpt lat="48.785167" lon="-1.156003">
        <ele>243.671</ele>
        <time>2026-08-24T13:37:39.999Z</time>
      </trkpt>
      <trkpt lat="48.785175" lon="-1.156023">
        <ele>243.589</ele>
        <time>2026-08-24T13:37:40.999Z</time>
      </trkpt>
      <trkpt lat="48.785180" lon="-1.156040">
        <ele>243.577</ele>
        <time>2026-08-24T13:37:41.999Z</time>
      </trkpt>
      <trkpt lat="48.785190" lon="-1.156062">
        <ele>243.591</ele>
        <time>2026-08-24T13:37:43.999Z</time>
      </trkpt>
      <trkpt lat="48.785197" lon="-1.156082">
        <ele>243.478</ele>
        <time>2026-08-24T13:37:44.999Z</time>
      </trkpt>
      <trkpt lat="48.785204" lon="-1.156096">
        <ele>243.440</ele>
        <time>2026-08-24T13:37:45.999Z</time>
      </trkpt>
      <trkpt lat="48.785213" lon="-1.156110">
        <ele>243.396</ele>
        <time>2026-08-24T13:37:46.999Z</time>
      </trkpt>
      <trkpt lat="48.785218" lon="-1.156122">
        <ele>243.331</ele>
        <time>2026-08-24T13:37:47.999Z</time>
      </trkpt>
      <trkpt lat="48.785224" lon="-1.156136">
        <ele>243.324</ele>
        <time>2026-08-24T13:37:48.999Z</time>
      </trkpt>
      <trkpt lat="48.785236" lon="-1.156163">
        <ele>243.309</ele>
        <time>2026-08-24T13:37:50.999Z</time>
      </trkpt>
      <trkpt lat="48.785245" lon="-1.156175">
        <ele>243.261</ele>
        <time>2026-08-24T13:37:51.999Z</time>
      </trkpt>
      <trkpt lat="48.785254" lon="-1.156185">
        <ele>243.157</ele>
        <time>2026-08-24T13:37:52.999Z</time>
      </trkpt>
      <trkpt lat="48.785264" lon="-1.156195">
        <ele>243.030</ele>
        <time>2026-08-24T13:37:53.999Z</time>
      </trkpt>
      <trkpt lat="48.785270" lon="-1.156213">
        <ele>243.037</ele>
        <time>2026-08-24T13:37:54.999Z</time>
      </trkpt>
      <trkpt lat="48.785276" lon="-1.156233">
        <ele>242.925</ele>
        <time>2026-08-24T13:37:55.999Z</time>
      </trkpt>
      <trkpt lat="48.785284" lon="-1.156253">
        <ele>242.853</ele>
        <time>2026-08-24T13:37:56.999Z</time>
      </trkpt>
      <trkpt lat="48.785290" lon="-1.156270">
        <ele>242.897</ele>
        <time>2026-08-24T13:37:57.999Z</time>
      </trkpt>
      <trkpt lat="48.785297" lon="-1.156287">
        <ele>242.834</ele>
        <time>2026-08-24T13:37:58.999Z</time>
      </trkpt>
      <trkpt lat="48.785304" lon="-1.156307">
        <ele>242.716</ele>
        <time>2026-08-24T13:37:59.999Z</time>
      </trkpt>
      <trkpt lat="48.785308" lon="-1.156321">
        <ele>242.775</ele>
        <time>2026-08-24T13:38:00.999Z</time>
      </trkpt>
      <trkpt lat="48.785317" lon="-1.156349">
        <ele>242.728</ele>
        <time>2026-08-24T13:38:02.999Z</time>
      </trkpt>
      <trkpt lat="48.785325" lon="-1.156366">
        <ele>242.620</ele>
        <time>2026-08-24T13:38:03.999Z</time>
      </trkpt>
      <trkpt lat="48.785334" lon="-1.156376">
        <ele>242.609</ele>
        <time>2026-08-24T13:38:04.999Z</time>
      </trkpt>
      <trkpt lat="48.785342" lon="-1.156399">
        <ele>242.649</ele>
        <time>2026-08-24T13:38:06.999Z</time>
      </trkpt>
      <trkpt lat="48.785346" lon="-1.156413">
        <ele>242.515</ele>
        <time>2026-08-24T13:38:07.999Z</time>
      </trkpt>
      <trkpt lat="48.785352" lon="-1.156425">
        <ele>242.458</ele>
        <time>2026-08-24T13:38:08.999Z</time>
      </trkpt>
      <trkpt lat="48.785362" lon="-1.156433">
        <ele>242.365</ele>
        <time>2026-08-24T13:38:09.999Z</time>
      </trkpt>
      <trkpt lat="48.785370" lon="-1.156444">
        <ele>242.223</ele>
        <time>2026-08-24T13:38:10.999Z</time>
      </trkpt>
      <trkpt lat="48.785375" lon="-1.156455">
        <ele>242.161</ele>
        <time>2026-08-24T13:38:11.999Z</time>
      </trkpt>
      <trkpt lat="48.785383" lon="-1.156478">
        <ele>242.025</ele>
        <time>2026-08-24T13:38:13.999Z</time>
      </trkpt>
      <trkpt lat="48.785389" lon="-1.156496">
        <ele>241.972</ele>
        <time>2026-08-24T13:38:14.999Z</time>
      </trkpt>
      <trkpt lat="48.785393" lon="-1.156519">
        <ele>241.754</ele>
        <time>2026-08-24T13:38:15.999Z</time>
      </trkpt>
      <trkpt lat="48.785398" lon="-1.156541">
        <ele>241.731</ele>
        <time>2026-08-24T13:38:16.999Z</time>
      </trkpt>
      <trkpt lat="48.785402" lon="-1.156557">
        <ele>241.561</ele>
        <time>2026-08-24T13:38:17.999Z</time>
      </trkpt>
      <trkpt lat="48.785404" lon="-1.156575">
        <ele>241.307</ele>
        <time>2026-08-24T13:38:18.999Z</time>
      </trkpt>
      <trkpt lat="48.785406" lon="-1.156591">
        <ele>241.209</ele>
        <time>2026-08-24T13:38:19.999Z</time>
      </trkpt>
      <trkpt lat="48.785409" lon="-1.156608">
        <ele>241.035</ele>
        <time>2026-08-24T13:38:20.999Z</time>
      </trkpt>
      <trkpt lat="48.785412" lon="-1.156625">
        <ele>240.861</ele>
        <time>2026-08-24T13:38:21.999Z</time>
      </trkpt>
      <trkpt lat="48.785418" lon="-1.156641">
        <ele>240.724</ele>
        <time>2026-08-24T13:38:22.999Z</time>
      </trkpt>
      <trkpt lat="48.785423" lon="-1.156653">
        <ele>240.721</ele>
        <time>2026-08-24T13:38:23.999Z</time>
      </trkpt>
      <trkpt lat="48.785429" lon="-1.156674">
        <ele>240.649</ele>
        <time>2026-08-24T13:38:25.999Z</time>
      </trkpt>
      <trkpt lat="48.785434" lon="-1.156686">
        <ele>240.557</ele>
        <time>2026-08-24T13:38:26.999Z</time>
      </trkpt>
      <trkpt lat="48.785439" lon="-1.156699">
        <ele>240.551</ele>
        <time>2026-08-24T13:38:27.999Z</time>
      </trkpt>
      <trkpt lat="48.785446" lon="-1.156716">
        <ele>240.468</ele>
        <time>2026-08-24T13:38:28.999Z</time>
      </trkpt>
      <trkpt lat="48.785450" lon="-1.156732">
        <ele>240.360</ele>
        <time>2026-08-24T13:38:29.999Z</time>
      </trkpt>
      <trkpt lat="48.785453" lon="-1.156749">
        <ele>240.192</ele>
        <time>2026-08-24T13:38:30.999Z</time>
      </trkpt>
      <trkpt lat="48.785452" lon="-1.156773">
        <ele>240.073</ele>
        <time>2026-08-24T13:38:31.999Z</time>
      </trkpt>
      <trkpt lat="48.785456" lon="-1.156799">
        <ele>240.020</ele>
        <time>2026-08-24T13:38:32.999Z</time>
      </trkpt>
      <trkpt lat="48.785460" lon="-1.156816">
        <ele>239.909</ele>
        <time>2026-08-24T13:38:33.999Z</time>
      </trkpt>
      <trkpt lat="48.785465" lon="-1.156828">
        <ele>239.931</ele>
        <time>2026-08-24T13:38:34.999Z</time>
      </trkpt>
      <trkpt lat="48.785474" lon="-1.156851">
        <ele>239.967</ele>
        <time>2026-08-24T13:38:36.999Z</time>
      </trkpt>
      <trkpt lat="48.785484" lon="-1.156879">
        <ele>239.980</ele>
        <time>2026-08-24T13:38:38.999Z</time>
      </trkpt>
      <trkpt lat="48.785491" lon="-1.156892">
        <ele>239.917</ele>
        <time>2026-08-24T13:38:39.999Z</time>
      </trkpt>
      <trkpt lat="48.785500" lon="-1.156919">
        <ele>239.945</ele>
        <time>2026-08-24T13:38:41.999Z</time>
      </trkpt>
      <trkpt lat="48.785508" lon="-1.156938">
        <ele>239.913</ele>
        <time>2026-08-24T13:38:43.999Z</time>
      </trkpt>
      <trkpt lat="48.785525" lon="-1.156941">
        <ele>239.867</ele>
        <time>2026-08-24T13:38:45.999Z</time>
      </trkpt>
      <trkpt lat="48.785536" lon="-1.156949">
        <ele>239.894</ele>
        <time>2026-08-24T13:38:46.999Z</time>
      </trkpt>
      <trkpt lat="48.785547" lon="-1.156960">
        <ele>239.736</ele>
        <time>2026-08-24T13:38:47.999Z</time>
      </trkpt>
      <trkpt lat="48.785558" lon="-1.156970">
        <ele>239.636</ele>
        <time>2026-08-24T13:38:48.999Z</time>
      </trkpt>
      <trkpt lat="48.785568" lon="-1.156977">
        <ele>239.617</ele>
        <time>2026-08-24T13:38:49.999Z</time>
      </trkpt>
      <trkpt lat="48.785575" lon="-1.156996">
        <ele>239.618</ele>
        <time>2026-08-24T13:38:51.999Z</time>
      </trkpt>
      <trkpt lat="48.785578" lon="-1.157011">
        <ele>239.509</ele>
        <time>2026-08-24T13:38:52.999Z</time>
      </trkpt>
      <trkpt lat="48.785585" lon="-1.157028">
        <ele>239.525</ele>
        <time>2026-08-24T13:38:53.999Z</time>
      </trkpt>
      <trkpt lat="48.785598" lon="-1.157038">
        <ele>239.531</ele>
        <time>2026-08-24T13:38:54.999Z</time>
      </trkpt>
      <trkpt lat="48.785613" lon="-1.157042">
        <ele>239.434</ele>
        <time>2026-08-24T13:38:56.999Z</time>
      </trkpt>
      <trkpt lat="48.785622" lon="-1.157048">
        <ele>239.491</ele>
        <time>2026-08-24T13:38:57.999Z</time>
      </trkpt>
      <trkpt lat="48.785634" lon="-1.157078">
        <ele>239.319</ele>
        <time>2026-08-24T13:38:59.999Z</time>
      </trkpt>
      <trkpt lat="48.785637" lon="-1.157094">
        <ele>239.327</ele>
        <time>2026-08-24T13:39:00.999Z</time>
      </trkpt>
      <trkpt lat="48.785645" lon="-1.157110">
        <ele>238.931</ele>
        <time>2026-08-24T13:39:01.999Z</time>
      </trkpt>
      <trkpt lat="48.785655" lon="-1.157125">
        <ele>238.488</ele>
        <time>2026-08-24T13:39:02.999Z</time>
      </trkpt>
      <trkpt lat="48.785664" lon="-1.157139">
        <ele>238.180</ele>
        <time>2026-08-24T13:39:03.999Z</time>
      </trkpt>
      <trkpt lat="48.785672" lon="-1.157155">
        <ele>237.765</ele>
        <time>2026-08-24T13:39:04.999Z</time>
      </trkpt>
      <trkpt lat="48.785680" lon="-1.157170">
        <ele>237.368</ele>
        <time>2026-08-24T13:39:05.999Z</time>
      </trkpt>
      <trkpt lat="48.785685" lon="-1.157191">
        <ele>237.214</ele>
        <time>2026-08-24T13:39:06.999Z</time>
      </trkpt>
      <trkpt lat="48.785687" lon="-1.157229">
        <ele>237.109</ele>
        <time>2026-08-24T13:39:07.999Z</time>
      </trkpt>
      <trkpt lat="48.785692" lon="-1.157251">
        <ele>236.938</ele>
        <time>2026-08-24T13:39:08.999Z</time>
      </trkpt>
      <trkpt lat="48.785692" lon="-1.157275">
        <ele>236.634</ele>
        <time>2026-08-24T13:39:09.999Z</time>
      </trkpt>
      <trkpt lat="48.785688" lon="-1.157305">
        <ele>236.477</ele>
        <time>2026-08-24T13:39:11.999Z</time>
      </trkpt>
      <trkpt lat="48.785686" lon="-1.157328">
        <ele>236.434</ele>
        <time>2026-08-24T13:39:13.999Z</time>
      </trkpt>
      <trkpt lat="48.785682" lon="-1.157344">
        <ele>236.492</ele>
        <time>2026-08-24T13:39:16.999Z</time>
      </trkpt>
      <trkpt lat="48.785661" lon="-1.157361">
        <ele>236.480</ele>
        <time>2026-08-24T13:39:18.999Z</time>
      </trkpt>
      <trkpt lat="48.785657" lon="-1.157377">
        <ele>236.464</ele>
        <time>2026-08-24T13:39:20.999Z</time>
      </trkpt>
      <trkpt lat="48.785644" lon="-1.157389">
        <ele>236.441</ele>
        <time>2026-08-24T13:39:22.999Z</time>
      </trkpt>
      <trkpt lat="48.785638" lon="-1.157410">
        <ele>236.443</ele>
        <time>2026-08-24T13:39:25.999Z</time>
      </trkpt>
      <trkpt lat="48.785627" lon="-1.157425">
        <ele>236.475</ele>
        <time>2026-08-24T13:39:27.999Z</time>
      </trkpt>
      <trkpt lat="48.785622" lon="-1.157445">
        <ele>236.428</ele>
        <time>2026-08-24T13:39:28.999Z</time>
      </trkpt>
      <trkpt lat="48.785616" lon="-1.157461">
        <ele>236.420</ele>
        <time>2026-08-24T13:39:29.999Z</time>
      </trkpt>
      <trkpt lat="48.785606" lon="-1.157480">
        <ele>236.409</ele>
        <time>2026-08-24T13:39:31.999Z</time>
      </trkpt>
      <trkpt lat="48.785602" lon="-1.157495">
        <ele>236.479</ele>
        <time>2026-08-24T13:39:36.999Z</time>
      </trkpt>
      <trkpt lat="48.785589" lon="-1.157506">
        <ele>236.445</ele>
        <time>2026-08-24T13:39:39.999Z</time>
      </trkpt>
      <trkpt lat="48.785579" lon="-1.157524">
        <ele>236.428</ele>
        <time>2026-08-24T13:39:40.999Z</time>
      </trkpt>
      <trkpt lat="48.785560" lon="-1.157543">
        <ele>236.425</ele>
        <time>2026-08-24T13:39:41.999Z</time>
      </trkpt>
      <trkpt lat="48.785556" lon="-1.157555">
        <ele>236.433</ele>
        <time>2026-08-24T13:39:43.999Z</time>
      </trkpt>
      <trkpt lat="48.785549" lon="-1.157568">
        <ele>236.611</ele>
        <time>2026-08-24T13:39:46.999Z</time>
      </trkpt>
      <trkpt lat="48.785542" lon="-1.157578">
        <ele>236.995</ele>
        <time>2026-08-24T13:39:50.999Z</time>
      </trkpt>
      <trkpt lat="48.785534" lon="-1.157585">
        <ele>237.022</ele>
        <time>2026-08-24T13:39:53.999Z</time>
      </trkpt>
      <trkpt lat="48.785511" lon="-1.157607">
        <ele>237.044</ele>
        <time>2026-08-24T13:39:55.999Z</time>
      </trkpt>
      <trkpt lat="48.785492" lon="-1.157635">
        <ele>237.215</ele>
        <time>2026-08-24T13:39:56.999Z</time>
      </trkpt>
      <trkpt lat="48.785473" lon="-1.157652">
        <ele>237.465</ele>
        <time>2026-08-24T13:39:57.999Z</time>
      </trkpt>
      <trkpt lat="48.785467" lon="-1.157664">
        <ele>237.611</ele>
        <time>2026-08-24T13:39:58.999Z</time>
      </trkpt>
      <trkpt lat="48.785441" lon="-1.157691">
        <ele>237.909</ele>
        <time>2026-08-24T13:40:01.999Z</time>
      </trkpt>
      <trkpt lat="48.785426" lon="-1.157711">
        <ele>238.223</ele>
        <time>2026-08-24T13:40:02.999Z</time>
      </trkpt>
      <trkpt lat="48.785420" lon="-1.157728">
        <ele>238.889</ele>
        <time>2026-08-24T13:40:03.999Z</time>
      </trkpt>
      <trkpt lat="48.785412" lon="-1.157742">
        <ele>239.542</ele>
        <time>2026-08-24T13:40:05.999Z</time>
      </trkpt>
      <trkpt lat="48.785403" lon="-1.157754">
        <ele>239.879</ele>
        <time>2026-08-24T13:40:09.999Z</time>
      </trkpt>
      <trkpt lat="48.785395" lon="-1.157767">
        <ele>240.067</ele>
        <time>2026-08-24T13:40:13.999Z</time>
      </trkpt>
      <trkpt lat="48.785391" lon="-1.157780">
        <ele>240.475</ele>
        <time>2026-08-24T13:40:15.999Z</time>
      </trkpt>
      <trkpt lat="48.785386" lon="-1.157791">
        <ele>241.599</ele>
        <time>2026-08-24T13:40:17.999Z</time>
      </trkpt>
      <trkpt lat="48.785359" lon="-1.157807">
        <ele>242.786</ele>
        <time>2026-08-24T13:40:19.999Z</time>
      </trkpt>
      <trkpt lat="48.785341" lon="-1.157826">
        <ele>243.498</ele>
        <time>2026-08-24T13:40:20.999Z</time>
      </trkpt>
      <trkpt lat="48.785316" lon="-1.157844">
        <ele>243.795</ele>
        <time>2026-08-24T13:40:21.999Z</time>
      </trkpt>
      <trkpt lat="48.785300" lon="-1.157866">
        <ele>243.949</ele>
        <time>2026-08-24T13:40:22.999Z</time>
      </trkpt>
      <trkpt lat="48.785287" lon="-1.157898">
        <ele>244.223</ele>
        <time>2026-08-24T13:40:23.999Z</time>
      </trkpt>
      <trkpt lat="48.785278" lon="-1.157916">
        <ele>244.609</ele>
        <time>2026-08-24T13:40:24.999Z</time>
      </trkpt>
      <trkpt lat="48.785273" lon="-1.157941">
        <ele>245.031</ele>
        <time>2026-08-24T13:40:25.999Z</time>
      </trkpt>
      <trkpt lat="48.785266" lon="-1.157961">
        <ele>245.247</ele>
        <time>2026-08-24T13:40:26.999Z</time>
      </trkpt>
      <trkpt lat="48.785250" lon="-1.157983">
        <ele>245.270</ele>
        <time>2026-08-24T13:40:28.999Z</time>
      </trkpt>
      <trkpt lat="48.785238" lon="-1.158010">
        <ele>245.427</ele>
        <time>2026-08-24T13:40:30.999Z</time>
      </trkpt>
      <trkpt lat="48.785229" lon="-1.158021">
        <ele>245.765</ele>
        <time>2026-08-24T13:40:31.999Z</time>
      </trkpt>
      <trkpt lat="48.785242" lon="-1.158037">
        <ele>246.173</ele>
        <time>2026-08-24T13:40:32.999Z</time>
      </trkpt>
      <trkpt lat="48.785244" lon="-1.158052">
        <ele>246.287</ele>
        <time>2026-08-24T13:40:33.999Z</time>
      </trkpt>
      <trkpt lat="48.785246" lon="-1.158091">
        <ele>246.424</ele>
        <time>2026-08-24T13:40:35.999Z</time>
      </trkpt>
      <trkpt lat="48.785252" lon="-1.158107">
        <ele>246.776</ele>
        <time>2026-08-24T13:40:36.999Z</time>
      </trkpt>
      <trkpt lat="48.785253" lon="-1.158123">
        <ele>246.987</ele>
        <time>2026-08-24T13:40:38.999Z</time>
      </trkpt>
      <trkpt lat="48.785259" lon="-1.158140">
        <ele>247.042</ele>
        <time>2026-08-24T13:40:40.999Z</time>
      </trkpt>
      <trkpt lat="48.785266" lon="-1.158160">
        <ele>247.226</ele>
        <time>2026-08-24T13:40:42.999Z</time>
      </trkpt>
      <trkpt lat="48.785266" lon="-1.158178">
        <ele>247.309</ele>
        <time>2026-08-24T13:40:43.999Z</time>
      </trkpt>
      <trkpt lat="48.785273" lon="-1.158191">
        <ele>247.430</ele>
        <time>2026-08-24T13:40:45.999Z</time>
      </trkpt>
      <trkpt lat="48.785278" lon="-1.158206">
        <ele>247.576</ele>
        <time>2026-08-24T13:40:48.999Z</time>
      </trkpt>
      <trkpt lat="48.785279" lon="-1.158222">
        <ele>247.529</ele>
        <time>2026-08-24T13:40:50.999Z</time>
      </trkpt>
      <trkpt lat="48.785282" lon="-1.158241">
        <ele>247.576</ele>
        <time>2026-08-24T13:40:52.999Z</time>
      </trkpt>
      <trkpt lat="48.785284" lon="-1.158263">
        <ele>247.554</ele>
        <time>2026-08-24T13:40:56.999Z</time>
      </trkpt>
      <trkpt lat="48.785285" lon="-1.158277">
        <ele>247.572</ele>
        <time>2026-08-24T13:40:58.999Z</time>
      </trkpt>
      <trkpt lat="48.785287" lon="-1.158293">
        <ele>247.586</ele>
        <time>2026-08-24T13:41:00.999Z</time>
      </trkpt>
      <trkpt lat="48.785291" lon="-1.158346">
        <ele>247.573</ele>
        <time>2026-08-24T13:41:01.999Z</time>
      </trkpt>
      <trkpt lat="48.785293" lon="-1.158370">
        <ele>247.535</ele>
        <time>2026-08-24T13:41:02.999Z</time>
      </trkpt>
      <trkpt lat="48.785300" lon="-1.158390">
        <ele>247.542</ele>
        <time>2026-08-24T13:41:03.999Z</time>
      </trkpt>
      <trkpt lat="48.785300" lon="-1.158408">
        <ele>247.522</ele>
        <time>2026-08-24T13:41:04.999Z</time>
      </trkpt>
      <trkpt lat="48.785296" lon="-1.158433">
        <ele>247.514</ele>
        <time>2026-08-24T13:41:05.999Z</time>
      </trkpt>
      <trkpt lat="48.785293" lon="-1.158458">
        <ele>247.509</ele>
        <time>2026-08-24T13:41:06.999Z</time>
      </trkpt>
      <trkpt lat="48.785288" lon="-1.158486">
        <ele>247.576</ele>
        <time>2026-08-24T13:41:07.999Z</time>
      </trkpt>
      <trkpt lat="48.785288" lon="-1.158515">
        <ele>247.442</ele>
        <time>2026-08-24T13:41:08.999Z</time>
      </trkpt>
      <trkpt lat="48.785284" lon="-1.158532">
        <ele>247.315</ele>
        <time>2026-08-24T13:41:10.999Z</time>
      </trkpt>
      <trkpt lat="48.785286" lon="-1.158566">
        <ele>247.372</ele>
        <time>2026-08-24T13:41:12.999Z</time>
      </trkpt>
      <trkpt lat="48.785292" lon="-1.158580">
        <ele>247.270</ele>
        <time>2026-08-24T13:41:13.999Z</time>
      </trkpt>
      <trkpt lat="48.785292" lon="-1.158606">
        <ele>246.888</ele>
        <time>2026-08-24T13:41:14.999Z</time>
      </trkpt>
      <trkpt lat="48.785313" lon="-1.158650">
        <ele>246.532</ele>
        <time>2026-08-24T13:41:15.999Z</time>
      </trkpt>
      <trkpt lat="48.785317" lon="-1.158668">
        <ele>246.459</ele>
        <time>2026-08-24T13:41:16.999Z</time>
      </trkpt>
      <trkpt lat="48.785319" lon="-1.158681">
        <ele>246.361</ele>
        <time>2026-08-24T13:41:17.999Z</time>
      </trkpt>
      <trkpt lat="48.785313" lon="-1.158708">
        <ele>246.283</ele>
        <time>2026-08-24T13:41:19.999Z</time>
      </trkpt>
      <trkpt lat="48.785306" lon="-1.158740">
        <ele>246.225</ele>
        <time>2026-08-24T13:41:21.999Z</time>
      </trkpt>
      <trkpt lat="48.785310" lon="-1.158760">
        <ele>246.117</ele>
        <time>2026-08-24T13:41:22.999Z</time>
      </trkpt>
      <trkpt lat="48.785307" lon="-1.158777">
        <ele>246.009</ele>
        <time>2026-08-24T13:41:23.999Z</time>
      </trkpt>
      <trkpt lat="48.785303" lon="-1.158812">
        <ele>246.040</ele>
        <time>2026-08-24T13:41:24.999Z</time>
      </trkpt>
      <trkpt lat="48.785293" lon="-1.158841">
        <ele>246.066</ele>
        <time>2026-08-24T13:41:25.999Z</time>
      </trkpt>
      <trkpt lat="48.785290" lon="-1.158863">
        <ele>246.049</ele>
        <time>2026-08-24T13:41:26.999Z</time>
      </trkpt>
      <trkpt lat="48.785291" lon="-1.158880">
        <ele>246.066</ele>
        <time>2026-08-24T13:41:27.999Z</time>
      </trkpt>
      <trkpt lat="48.785299" lon="-1.158902">
        <ele>246.064</ele>
        <time>2026-08-24T13:41:29.999Z</time>
      </trkpt>
      <trkpt lat="48.785297" lon="-1.158928">
        <ele>246.092</ele>
        <time>2026-08-24T13:41:30.999Z</time>
      </trkpt>
      <trkpt lat="48.785298" lon="-1.158945">
        <ele>246.016</ele>
        <time>2026-08-24T13:41:31.999Z</time>
      </trkpt>
      <trkpt lat="48.785300" lon="-1.158967">
        <ele>246.043</ele>
        <time>2026-08-24T13:41:32.999Z</time>
      </trkpt>
      <trkpt lat="48.785295" lon="-1.158985">
        <ele>246.175</ele>
        <time>2026-08-24T13:41:33.999Z</time>
      </trkpt>
      <trkpt lat="48.785286" lon="-1.159009">
        <ele>246.139</ele>
        <time>2026-08-24T13:41:34.999Z</time>
      </trkpt>
      <trkpt lat="48.785279" lon="-1.159021">
        <ele>246.201</ele>
        <time>2026-08-24T13:41:35.999Z</time>
      </trkpt>
      <trkpt lat="48.785275" lon="-1.159046">
        <ele>246.221</ele>
        <time>2026-08-24T13:41:36.999Z</time>
      </trkpt>
      <trkpt lat="48.785277" lon="-1.159062">
        <ele>246.209</ele>
        <time>2026-08-24T13:41:37.999Z</time>
      </trkpt>
      <trkpt lat="48.785275" lon="-1.159077">
        <ele>246.235</ele>
        <time>2026-08-24T13:41:39.999Z</time>
      </trkpt>
      <trkpt lat="48.785283" lon="-1.159091">
        <ele>246.211</ele>
        <time>2026-08-24T13:41:40.999Z</time>
      </trkpt>
      <trkpt lat="48.785286" lon="-1.159109">
        <ele>246.254</ele>
        <time>2026-08-24T13:41:41.999Z</time>
      </trkpt>
      <trkpt lat="48.785285" lon="-1.159131">
        <ele>246.261</ele>
        <time>2026-08-24T13:41:42.999Z</time>
      </trkpt>
      <trkpt lat="48.785292" lon="-1.159154">
        <ele>246.289</ele>
        <time>2026-08-24T13:41:43.999Z</time>
      </trkpt>
      <trkpt lat="48.785291" lon="-1.159172">
        <ele>246.227</ele>
        <time>2026-08-24T13:41:44.999Z</time>
      </trkpt>
      <trkpt lat="48.785291" lon="-1.159191">
        <ele>246.221</ele>
        <time>2026-08-24T13:41:45.999Z</time>
      </trkpt>
      <trkpt lat="48.785303" lon="-1.159209">
        <ele>246.248</ele>
        <time>2026-08-24T13:41:46.999Z</time>
      </trkpt>
      <trkpt lat="48.785306" lon="-1.159244">
        <ele>246.240</ele>
        <time>2026-08-24T13:41:48.999Z</time>
      </trkpt>
      <trkpt lat="48.785308" lon="-1.159257">
        <ele>246.191</ele>
        <time>2026-08-24T13:41:49.999Z</time>
      </trkpt>
      <trkpt lat="48.785308" lon="-1.159272">
        <ele>246.181</ele>
        <time>2026-08-24T13:41:50.999Z</time>
      </trkpt>
      <trkpt lat="48.785307" lon="-1.159287">
        <ele>246.119</ele>
        <time>2026-08-24T13:41:51.999Z</time>
      </trkpt>
      <trkpt lat="48.785310" lon="-1.159305">
        <ele>246.109</ele>
        <time>2026-08-24T13:41:52.999Z</time>
      </trkpt>
      <trkpt lat="48.785311" lon="-1.159320">
        <ele>246.141</ele>
        <time>2026-08-24T13:41:56.999Z</time>
      </trkpt>
      <trkpt lat="48.785316" lon="-1.159339">
        <ele>246.297</ele>
        <time>2026-08-24T13:42:00.999Z</time>
      </trkpt>
      <trkpt lat="48.785325" lon="-1.159358">
        <ele>246.270</ele>
        <time>2026-08-24T13:42:03.999Z</time>
      </trkpt>
      <trkpt lat="48.785329" lon="-1.159370">
        <ele>246.247</ele>
        <time>2026-08-24T13:42:06.999Z</time>
      </trkpt>
      <trkpt lat="48.785335" lon="-1.159383">
        <ele>246.255</ele>
        <time>2026-08-24T13:42:09.999Z</time>
      </trkpt>
      <trkpt lat="48.785341" lon="-1.159399">
        <ele>246.233</ele>
        <time>2026-08-24T13:42:12.999Z</time>
      </trkpt>
      <trkpt lat="48.785351" lon="-1.159419">
        <ele>246.167</ele>
        <time>2026-08-24T13:42:14.999Z</time>
      </trkpt>
      <trkpt lat="48.785364" lon="-1.159464">
        <ele>246.064</ele>
        <time>2026-08-24T13:42:15.999Z</time>
      </trkpt>
      <trkpt lat="48.785376" lon="-1.159502">
        <ele>246.046</ele>
        <time>2026-08-24T13:42:16.999Z</time>
      </trkpt>
      <trkpt lat="48.785382" lon="-1.159540">
        <ele>246.013</ele>
        <time>2026-08-24T13:42:17.999Z</time>
      </trkpt>
      <trkpt lat="48.785384" lon="-1.159557">
        <ele>246.043</ele>
        <time>2026-08-24T13:42:18.999Z</time>
      </trkpt>
      <trkpt lat="48.785375" lon="-1.159593">
        <ele>245.807</ele>
        <time>2026-08-24T13:42:19.999Z</time>
      </trkpt>
      <trkpt lat="48.785369" lon="-1.159619">
        <ele>245.609</ele>
        <time>2026-08-24T13:42:20.999Z</time>
      </trkpt>
      <trkpt lat="48.785366" lon="-1.159639">
        <ele>245.543</ele>
        <time>2026-08-24T13:42:21.999Z</time>
      </trkpt>
      <trkpt lat="48.785365" lon="-1.159660">
        <ele>245.319</ele>
        <time>2026-08-24T13:42:22.999Z</time>
      </trkpt>
      <trkpt lat="48.785369" lon="-1.159683">
        <ele>245.062</ele>
        <time>2026-08-24T13:42:23.999Z</time>
      </trkpt>
      <trkpt lat="48.785369" lon="-1.159702">
        <ele>244.759</ele>
        <time>2026-08-24T13:42:24.999Z</time>
      </trkpt>
      <trkpt lat="48.785371" lon="-1.159731">
        <ele>244.587</ele>
        <time>2026-08-24T13:42:25.999Z</time>
      </trkpt>
      <trkpt lat="48.785369" lon="-1.159769">
        <ele>244.465</ele>
        <time>2026-08-24T13:42:27.999Z</time>
      </trkpt>
      <trkpt lat="48.785376" lon="-1.159788">
        <ele>244.359</ele>
        <time>2026-08-24T13:42:28.999Z</time>
      </trkpt>
      <trkpt lat="48.785378" lon="-1.159809">
        <ele>243.776</ele>
        <time>2026-08-24T13:42:29.999Z</time>
      </trkpt>
      <trkpt lat="48.785379" lon="-1.159839">
        <ele>242.888</ele>
        <time>2026-08-24T13:42:30.999Z</time>
      </trkpt>
      <trkpt lat="48.785379" lon="-1.159900">
        <ele>242.465</ele>
        <time>2026-08-24T13:42:31.999Z</time>
      </trkpt>
      <trkpt lat="48.785379" lon="-1.159922">
        <ele>242.168</ele>
        <time>2026-08-24T13:42:32.999Z</time>
      </trkpt>
      <trkpt lat="48.785382" lon="-1.159941">
        <ele>242.114</ele>
        <time>2026-08-24T13:42:33.999Z</time>
      </trkpt>
      <trkpt lat="48.785387" lon="-1.159954">
        <ele>242.109</ele>
        <time>2026-08-24T13:42:36.999Z</time>
      </trkpt>
      <trkpt lat="48.785385" lon="-1.159991">
        <ele>242.118</ele>
        <time>2026-08-24T13:42:39.999Z</time>
      </trkpt>
      <trkpt lat="48.785376" lon="-1.160024">
        <ele>242.184</ele>
        <time>2026-08-24T13:42:40.999Z</time>
      </trkpt>
      <trkpt lat="48.785366" lon="-1.160036">
        <ele>242.147</ele>
        <time>2026-08-24T13:42:42.999Z</time>
      </trkpt>
      <trkpt lat="48.785361" lon="-1.160050">
        <ele>242.184</ele>
        <time>2026-08-24T13:42:47.999Z</time>
      </trkpt>
      <trkpt lat="48.785354" lon="-1.160058">
        <ele>242.142</ele>
        <time>2026-08-24T13:42:50.999Z</time>
      </trkpt>
      <trkpt lat="48.785347" lon="-1.160072">
        <ele>242.180</ele>
        <time>2026-08-24T13:42:52.999Z</time>
      </trkpt>
      <trkpt lat="48.785335" lon="-1.160085">
        <ele>242.154</ele>
        <time>2026-08-24T13:42:53.999Z</time>
      </trkpt>
      <trkpt lat="48.785344" lon="-1.160086">
        <ele>242.141</ele>
        <time>2026-08-24T13:42:55.999Z</time>
      </trkpt>
      <trkpt lat="48.785344" lon="-1.160104">
        <ele>242.133</ele>
        <time>2026-08-24T13:42:59.999Z</time>
      </trkpt>
      <trkpt lat="48.785354" lon="-1.160119">
        <ele>242.149</ele>
        <time>2026-08-24T13:43:01.999Z</time>
      </trkpt>
      <trkpt lat="48.785358" lon="-1.160133">
        <ele>242.102</ele>
        <time>2026-08-24T13:43:02.999Z</time>
      </trkpt>
      <trkpt lat="48.785359" lon="-1.160152">
        <ele>242.122</ele>
        <time>2026-08-24T13:43:03.999Z</time>
      </trkpt>
      <trkpt lat="48.785369" lon="-1.160175">
        <ele>242.409</ele>
        <time>2026-08-24T13:43:04.999Z</time>
      </trkpt>
      <trkpt lat="48.785380" lon="-1.160204">
        <ele>243.026</ele>
        <time>2026-08-24T13:43:05.999Z</time>
      </trkpt>
      <trkpt lat="48.785388" lon="-1.160230">
        <ele>243.482</ele>
        <time>2026-08-24T13:43:06.999Z</time>
      </trkpt>
      <trkpt lat="48.785404" lon="-1.160253">
        <ele>243.785</ele>
        <time>2026-08-24T13:43:07.999Z</time>
      </trkpt>
      <trkpt lat="48.785411" lon="-1.160285">
        <ele>243.872</ele>
        <time>2026-08-24T13:43:08.999Z</time>
      </trkpt>
      <trkpt lat="48.785406" lon="-1.160315">
        <ele>243.990</ele>
        <time>2026-08-24T13:43:09.999Z</time>
      </trkpt>
      <trkpt lat="48.785408" lon="-1.160345">
        <ele>244.978</ele>
        <time>2026-08-24T13:43:10.999Z</time>
      </trkpt>
      <trkpt lat="48.785407" lon="-1.160374">
        <ele>246.212</ele>
        <time>2026-08-24T13:43:11.999Z</time>
      </trkpt>
      <trkpt lat="48.785411" lon="-1.160394">
        <ele>246.929</ele>
        <time>2026-08-24T13:43:12.999Z</time>
      </trkpt>
      <trkpt lat="48.785417" lon="-1.160410">
        <ele>247.541</ele>
        <time>2026-08-24T13:43:13.999Z</time>
      </trkpt>
      <trkpt lat="48.785412" lon="-1.160426">
        <ele>247.746</ele>
        <time>2026-08-24T13:43:14.999Z</time>
      </trkpt>
      <trkpt lat="48.785417" lon="-1.160451">
        <ele>247.788</ele>
        <time>2026-08-24T13:43:16.999Z</time>
      </trkpt>
      <trkpt lat="48.785415" lon="-1.160468">
        <ele>247.716</ele>
        <time>2026-08-24T13:43:17.999Z</time>
      </trkpt>
      <trkpt lat="48.785415" lon="-1.160482">
        <ele>247.709</ele>
        <time>2026-08-24T13:43:23.999Z</time>
      </trkpt>
      <trkpt lat="48.785410" lon="-1.160505">
        <ele>247.716</ele>
        <time>2026-08-24T13:43:26.999Z</time>
      </trkpt>
      <trkpt lat="48.785406" lon="-1.160520">
        <ele>247.892</ele>
        <time>2026-08-24T13:43:27.999Z</time>
      </trkpt>
      <trkpt lat="48.785403" lon="-1.160534">
        <ele>247.855</ele>
        <time>2026-08-24T13:43:28.999Z</time>
      </trkpt>
      <trkpt lat="48.785397" lon="-1.160554">
        <ele>247.872</ele>
        <time>2026-08-24T13:43:30.999Z</time>
      </trkpt>
      <trkpt lat="48.785397" lon="-1.160571">
        <ele>247.840</ele>
        <time>2026-08-24T13:43:31.999Z</time>
      </trkpt>
      <trkpt lat="48.785397" lon="-1.160589">
        <ele>247.868</ele>
        <time>2026-08-24T13:43:32.999Z</time>
      </trkpt>
      <trkpt lat="48.785394" lon="-1.160612">
        <ele>247.892</ele>
        <time>2026-08-24T13:43:34.999Z</time>
      </trkpt>
      <trkpt lat="48.785395" lon="-1.160628">
        <ele>247.859</ele>
        <time>2026-08-24T13:43:35.999Z</time>
      </trkpt>
      <trkpt lat="48.785396" lon="-1.160644">
        <ele>247.821</ele>
        <time>2026-08-24T13:43:36.999Z</time>
      </trkpt>
      <trkpt lat="48.785402" lon="-1.160669">
        <ele>247.838</ele>
        <time>2026-08-24T13:43:37.999Z</time>
      </trkpt>
      <trkpt lat="48.785410" lon="-1.160691">
        <ele>247.870</ele>
        <time>2026-08-24T13:43:38.999Z</time>
      </trkpt>
      <trkpt lat="48.785415" lon="-1.160712">
        <ele>247.717</ele>
        <time>2026-08-24T13:43:39.999Z</time>
      </trkpt>
      <trkpt lat="48.785414" lon="-1.160744">
        <ele>247.709</ele>
        <time>2026-08-24T13:43:41.999Z</time>
      </trkpt>
      <trkpt lat="48.785412" lon="-1.160761">
        <ele>247.755</ele>
        <time>2026-08-24T13:43:42.999Z</time>
      </trkpt>
      <trkpt lat="48.785412" lon="-1.160776">
        <ele>247.751</ele>
        <time>2026-08-24T13:43:43.999Z</time>
      </trkpt>
      <trkpt lat="48.785409" lon="-1.160798">
        <ele>247.624</ele>
        <time>2026-08-24T13:43:44.999Z</time>
      </trkpt>
      <trkpt lat="48.785409" lon="-1.160818">
        <ele>247.521</ele>
        <time>2026-08-24T13:43:45.999Z</time>
      </trkpt>
      <trkpt lat="48.785408" lon="-1.160846">
        <ele>247.499</ele>
        <time>2026-08-24T13:43:46.999Z</time>
      </trkpt>
      <trkpt lat="48.785403" lon="-1.160876">
        <ele>247.347</ele>
        <time>2026-08-24T13:43:47.999Z</time>
      </trkpt>
      <trkpt lat="48.785401" lon="-1.160897">
        <ele>247.111</ele>
        <time>2026-08-24T13:43:48.999Z</time>
      </trkpt>
      <trkpt lat="48.785401" lon="-1.160918">
        <ele>247.038</ele>
        <time>2026-08-24T13:43:49.999Z</time>
      </trkpt>
      <trkpt lat="48.785403" lon="-1.160945">
        <ele>246.860</ele>
        <time>2026-08-24T13:43:51.999Z</time>
      </trkpt>
      <trkpt lat="48.785404" lon="-1.160959">
        <ele>246.485</ele>
        <time>2026-08-24T13:43:52.999Z</time>
      </trkpt>
      <trkpt lat="48.785404" lon="-1.160974">
        <ele>246.189</ele>
        <time>2026-08-24T13:43:53.999Z</time>
      </trkpt>
      <trkpt lat="48.785406" lon="-1.160989">
        <ele>245.717</ele>
        <time>2026-08-24T13:44:05.999Z</time>
      </trkpt>
      <trkpt lat="48.785406" lon="-1.161011">
        <ele>245.409</ele>
        <time>2026-08-24T13:44:07.999Z</time>
      </trkpt>
      <trkpt lat="48.785406" lon="-1.161025">
        <ele>245.310</ele>
        <time>2026-08-24T13:44:08.999Z</time>
      </trkpt>
      <trkpt lat="48.785408" lon="-1.161048">
        <ele>245.166</ele>
        <time>2026-08-24T13:44:09.999Z</time>
      </trkpt>
      <trkpt lat="48.785409" lon="-1.161063">
        <ele>245.039</ele>
        <time>2026-08-24T13:44:10.999Z</time>
      </trkpt>
      <trkpt lat="48.785410" lon="-1.161082">
        <ele>244.996</ele>
        <time>2026-08-24T13:44:11.999Z</time>
      </trkpt>
      <trkpt lat="48.785410" lon="-1.161105">
        <ele>244.744</ele>
        <time>2026-08-24T13:44:12.999Z</time>
      </trkpt>
      <trkpt lat="48.785411" lon="-1.161122">
        <ele>244.642</ele>
        <time>2026-08-24T13:44:13.999Z</time>
      </trkpt>
      <trkpt lat="48.785410" lon="-1.161140">
        <ele>244.596</ele>
        <time>2026-08-24T13:44:14.999Z</time>
      </trkpt>
      <trkpt lat="48.785407" lon="-1.161156">
        <ele>244.573</ele>
        <time>2026-08-24T13:44:15.999Z</time>
      </trkpt>
      <trkpt lat="48.785413" lon="-1.161180">
        <ele>244.535</ele>
        <time>2026-08-24T13:44:17.999Z</time>
      </trkpt>
      <trkpt lat="48.785414" lon="-1.161194">
        <ele>244.578</ele>
        <time>2026-08-24T13:44:18.999Z</time>
      </trkpt>
      <trkpt lat="48.785418" lon="-1.161220">
        <ele>244.533</ele>
        <time>2026-08-24T13:44:20.999Z</time>
      </trkpt>
      <trkpt lat="48.785425" lon="-1.161245">
        <ele>244.526</ele>
        <time>2026-08-24T13:44:22.999Z</time>
      </trkpt>
      <trkpt lat="48.785427" lon="-1.161273">
        <ele>244.509</ele>
        <time>2026-08-24T13:44:23.999Z</time>
      </trkpt>
      <trkpt lat="48.785431" lon="-1.161290">
        <ele>244.569</ele>
        <time>2026-08-24T13:44:24.999Z</time>
      </trkpt>
      <trkpt lat="48.785440" lon="-1.161303">
        <ele>244.575</ele>
        <time>2026-08-24T13:44:26.999Z</time>
      </trkpt>
      <trkpt lat="48.785442" lon="-1.161317">
        <ele>244.588</ele>
        <time>2026-08-24T13:44:27.999Z</time>
      </trkpt>
      <trkpt lat="48.785450" lon="-1.161330">
        <ele>244.415</ele>
        <time>2026-08-24T13:44:29.999Z</time>
      </trkpt>
      <trkpt lat="48.785454" lon="-1.161345">
        <ele>244.433</ele>
        <time>2026-08-24T13:44:30.999Z</time>
      </trkpt>
      <trkpt lat="48.785458" lon="-1.161367">
        <ele>244.361</ele>
        <time>2026-08-24T13:44:31.999Z</time>
      </trkpt>
      <trkpt lat="48.785460" lon="-1.161384">
        <ele>244.395</ele>
        <time>2026-08-24T13:44:32.999Z</time>
      </trkpt>
      <trkpt lat="48.785463" lon="-1.161399">
        <ele>244.322</ele>
        <time>2026-08-24T13:44:33.999Z</time>
      </trkpt>
      <trkpt lat="48.785463" lon="-1.161413">
        <ele>244.374</ele>
        <time>2026-08-24T13:44:34.999Z</time>
      </trkpt>
      <trkpt lat="48.785463" lon="-1.161432">
        <ele>244.147</ele>
        <time>2026-08-24T13:44:35.999Z</time>
      </trkpt>
      <trkpt lat="48.785460" lon="-1.161448">
        <ele>244.029</ele>
        <time>2026-08-24T13:44:36.999Z</time>
      </trkpt>
      <trkpt lat="48.785459" lon="-1.161464">
        <ele>244.021</ele>
        <time>2026-08-24T13:44:37.999Z</time>
      </trkpt>
      <trkpt lat="48.785457" lon="-1.161482">
        <ele>243.909</ele>
        <time>2026-08-24T13:44:38.999Z</time>
      </trkpt>
      <trkpt lat="48.785452" lon="-1.161508">
        <ele>243.986</ele>
        <time>2026-08-24T13:44:40.999Z</time>
      </trkpt>
      <trkpt lat="48.785452" lon="-1.161522">
        <ele>243.812</ele>
        <time>2026-08-24T13:44:41.999Z</time>
      </trkpt>
      <trkpt lat="48.785446" lon="-1.161537">
        <ele>243.895</ele>
        <time>2026-08-24T13:44:42.999Z</time>
      </trkpt>
      <trkpt lat="48.785437" lon="-1.161556">
        <ele>243.872</ele>
        <time>2026-08-24T13:44:44.999Z</time>
      </trkpt>
      <trkpt lat="48.785426" lon="-1.161585">
        <ele>243.880</ele>
        <time>2026-08-24T13:44:46.999Z</time>
      </trkpt>
      <trkpt lat="48.785420" lon="-1.161598">
        <ele>243.938</ele>
        <time>2026-08-24T13:44:47.999Z</time>
      </trkpt>
      <trkpt lat="48.785415" lon="-1.161614">
        <ele>244.082</ele>
        <time>2026-08-24T13:44:48.999Z</time>
      </trkpt>
      <trkpt lat="48.785409" lon="-1.161628">
        <ele>244.019</ele>
        <time>2026-08-24T13:44:49.999Z</time>
      </trkpt>
      <trkpt lat="48.785403" lon="-1.161645">
        <ele>244.111</ele>
        <time>2026-08-24T13:44:50.999Z</time>
      </trkpt>
      <trkpt lat="48.785401" lon="-1.161662">
        <ele>244.224</ele>
        <time>2026-08-24T13:44:51.999Z</time>
      </trkpt>
      <trkpt lat="48.785396" lon="-1.161677">
        <ele>244.204</ele>
        <time>2026-08-24T13:44:52.999Z</time>
      </trkpt>
      <trkpt lat="48.785389" lon="-1.161693">
        <ele>244.214</ele>
        <time>2026-08-24T13:44:53.999Z</time>
      </trkpt>
      <trkpt lat="48.785383" lon="-1.161704">
        <ele>244.209</ele>
        <time>2026-08-24T13:44:54.999Z</time>
      </trkpt>
      <trkpt lat="48.785377" lon="-1.161720">
        <ele>244.224</ele>
        <time>2026-08-24T13:44:55.999Z</time>
      </trkpt>
      <trkpt lat="48.785369" lon="-1.161738">
        <ele>244.230</ele>
        <time>2026-08-24T13:44:56.999Z</time>
      </trkpt>
      <trkpt lat="48.785364" lon="-1.161753">
        <ele>244.243</ele>
        <time>2026-08-24T13:44:57.999Z</time>
      </trkpt>
      <trkpt lat="48.785362" lon="-1.161773">
        <ele>244.260</ele>
        <time>2026-08-24T13:44:58.999Z</time>
      </trkpt>
      <trkpt lat="48.785357" lon="-1.161791">
        <ele>244.278</ele>
        <time>2026-08-24T13:44:59.999Z</time>
      </trkpt>
      <trkpt lat="48.785350" lon="-1.161810">
        <ele>244.236</ele>
        <time>2026-08-24T13:45:00.999Z</time>
      </trkpt>
      <trkpt lat="48.785339" lon="-1.161831">
        <ele>244.150</ele>
        <time>2026-08-24T13:45:02.999Z</time>
      </trkpt>
      <trkpt lat="48.785333" lon="-1.161843">
        <ele>244.087</ele>
        <time>2026-08-24T13:45:03.999Z</time>
      </trkpt>
      <trkpt lat="48.785327" lon="-1.161854">
        <ele>244.079</ele>
        <time>2026-08-24T13:45:04.999Z</time>
      </trkpt>
      <trkpt lat="48.785322" lon="-1.161869">
        <ele>244.084</ele>
        <time>2026-08-24T13:45:05.999Z</time>
      </trkpt>
      <trkpt lat="48.785316" lon="-1.161883">
        <ele>244.007</ele>
        <time>2026-08-24T13:45:06.999Z</time>
      </trkpt>
      <trkpt lat="48.785307" lon="-1.161904">
        <ele>244.017</ele>
        <time>2026-08-24T13:45:07.999Z</time>
      </trkpt>
      <trkpt lat="48.785299" lon="-1.161920">
        <ele>244.109</ele>
        <time>2026-08-24T13:45:08.999Z</time>
      </trkpt>
      <trkpt lat="48.785292" lon="-1.161931">
        <ele>244.170</ele>
        <time>2026-08-24T13:45:09.999Z</time>
      </trkpt>
      <trkpt lat="48.785284" lon="-1.161944">
        <ele>244.116</ele>
        <time>2026-08-24T13:45:10.999Z</time>
      </trkpt>
      <trkpt lat="48.785277" lon="-1.161955">
        <ele>244.139</ele>
        <time>2026-08-24T13:45:11.999Z</time>
      </trkpt>
      <trkpt lat="48.785266" lon="-1.161968">
        <ele>244.176</ele>
        <time>2026-08-24T13:45:12.999Z</time>
      </trkpt>
      <trkpt lat="48.785257" lon="-1.161980">
        <ele>244.234</ele>
        <time>2026-08-24T13:45:13.999Z</time>
      </trkpt>
      <trkpt lat="48.785254" lon="-1.161996">
        <ele>244.252</ele>
        <time>2026-08-24T13:45:14.999Z</time>
      </trkpt>
      <trkpt lat="48.785243" lon="-1.162017">
        <ele>244.296</ele>
        <time>2026-08-24T13:45:16.999Z</time>
      </trkpt>
      <trkpt lat="48.785231" lon="-1.162040">
        <ele>244.263</ele>
        <time>2026-08-24T13:45:18.999Z</time>
      </trkpt>
      <trkpt lat="48.785225" lon="-1.162053">
        <ele>244.165</ele>
        <time>2026-08-24T13:45:19.999Z</time>
      </trkpt>
      <trkpt lat="48.785220" lon="-1.162068">
        <ele>244.099</ele>
        <time>2026-08-24T13:45:20.999Z</time>
      </trkpt>
      <trkpt lat="48.785214" lon="-1.162080">
        <ele>243.907</ele>
        <time>2026-08-24T13:45:21.999Z</time>
      </trkpt>
      <trkpt lat="48.785208" lon="-1.162095">
        <ele>243.927</ele>
        <time>2026-08-24T13:45:22.999Z</time>
      </trkpt>
      <trkpt lat="48.785205" lon="-1.162114">
        <ele>243.809</ele>
        <time>2026-08-24T13:45:23.999Z</time>
      </trkpt>
      <trkpt lat="48.785203" lon="-1.162128">
        <ele>243.811</ele>
        <time>2026-08-24T13:45:24.999Z</time>
      </trkpt>
      <trkpt lat="48.785200" lon="-1.162143">
        <ele>243.827</ele>
        <time>2026-08-24T13:45:25.999Z</time>
      </trkpt>
      <trkpt lat="48.785201" lon="-1.162161">
        <ele>243.860</ele>
        <time>2026-08-24T13:45:26.999Z</time>
      </trkpt>
      <trkpt lat="48.785206" lon="-1.162176">
        <ele>243.857</ele>
        <time>2026-08-24T13:45:27.999Z</time>
      </trkpt>
      <trkpt lat="48.785212" lon="-1.162197">
        <ele>243.815</ele>
        <time>2026-08-24T13:45:28.999Z</time>
      </trkpt>
      <trkpt lat="48.785218" lon="-1.162217">
        <ele>243.883</ele>
        <time>2026-08-24T13:45:29.999Z</time>
      </trkpt>
      <trkpt lat="48.785225" lon="-1.162230">
        <ele>243.747</ele>
        <time>2026-08-24T13:45:30.999Z</time>
      </trkpt>
      <trkpt lat="48.785234" lon="-1.162239">
        <ele>243.774</ele>
        <time>2026-08-24T13:45:31.999Z</time>
      </trkpt>
      <trkpt lat="48.785242" lon="-1.162246">
        <ele>243.796</ele>
        <time>2026-08-24T13:45:32.999Z</time>
      </trkpt>
      <trkpt lat="48.785252" lon="-1.162261">
        <ele>243.665</ele>
        <time>2026-08-24T13:45:33.999Z</time>
      </trkpt>
      <trkpt lat="48.785264" lon="-1.162277">
        <ele>243.668</ele>
        <time>2026-08-24T13:45:34.999Z</time>
      </trkpt>
      <trkpt lat="48.785275" lon="-1.162283">
        <ele>243.614</ele>
        <time>2026-08-24T13:45:35.999Z</time>
      </trkpt>
      <trkpt lat="48.785286" lon="-1.162284">
        <ele>243.609</ele>
        <time>2026-08-24T13:45:37.999Z</time>
      </trkpt>
      <trkpt lat="48.785303" lon="-1.162291">
        <ele>243.618</ele>
        <time>2026-08-24T13:45:39.999Z</time>
      </trkpt>
      <trkpt lat="48.785322" lon="-1.162296">
        <ele>243.534</ele>
        <time>2026-08-24T13:45:41.999Z</time>
      </trkpt>
      <trkpt lat="48.785331" lon="-1.162298">
        <ele>243.597</ele>
        <time>2026-08-24T13:45:42.999Z</time>
      </trkpt>
      <trkpt lat="48.785341" lon="-1.162303">
        <ele>243.314</ele>
        <time>2026-08-24T13:45:43.999Z</time>
      </trkpt>
      <trkpt lat="48.785352" lon="-1.162306">
        <ele>243.122</ele>
        <time>2026-08-24T13:45:44.999Z</time>
      </trkpt>
      <trkpt lat="48.785365" lon="-1.162309">
        <ele>243.030</ele>
        <time>2026-08-24T13:45:45.999Z</time>
      </trkpt>
      <trkpt lat="48.785380" lon="-1.162310">
        <ele>243.064</ele>
        <time>2026-08-24T13:45:46.999Z</time>
      </trkpt>
      <trkpt lat="48.785390" lon="-1.162314">
        <ele>242.981</ele>
        <time>2026-08-24T13:45:47.999Z</time>
      </trkpt>
      <trkpt lat="48.785407" lon="-1.162320">
        <ele>242.983</ele>
        <time>2026-08-24T13:45:48.999Z</time>
      </trkpt>
      <trkpt lat="48.785418" lon="-1.162323">
        <ele>242.959</ele>
        <time>2026-08-24T13:45:49.999Z</time>
      </trkpt>
      <trkpt lat="48.785437" lon="-1.162328">
        <ele>242.903</ele>
        <time>2026-08-24T13:45:51.999Z</time>
      </trkpt>
      <trkpt lat="48.785451" lon="-1.162331">
        <ele>242.823</ele>
        <time>2026-08-24T13:45:52.999Z</time>
      </trkpt>
      <trkpt lat="48.785469" lon="-1.162332">
        <ele>242.709</ele>
        <time>2026-08-24T13:45:54.999Z</time>
      </trkpt>
      <trkpt lat="48.785485" lon="-1.162327">
        <ele>242.667</ele>
        <time>2026-08-24T13:45:55.999Z</time>
      </trkpt>
      <trkpt lat="48.785499" lon="-1.162323">
        <ele>242.383</ele>
        <time>2026-08-24T13:45:57.999Z</time>
      </trkpt>
      <trkpt lat="48.785514" lon="-1.162314">
        <ele>242.096</ele>
        <time>2026-08-24T13:45:59.999Z</time>
      </trkpt>
      <trkpt lat="48.785534" lon="-1.162302">
        <ele>241.953</ele>
        <time>2026-08-24T13:46:01.999Z</time>
      </trkpt>
      <trkpt lat="48.785542" lon="-1.162296">
        <ele>241.951</ele>
        <time>2026-08-24T13:46:02.999Z</time>
      </trkpt>
      <trkpt lat="48.785550" lon="-1.162288">
        <ele>241.879</ele>
        <time>2026-08-24T13:46:03.999Z</time>
      </trkpt>
      <trkpt lat="48.785558" lon="-1.162280">
        <ele>241.813</ele>
        <time>2026-08-24T13:46:04.999Z</time>
      </trkpt>
      <trkpt lat="48.785568" lon="-1.162272">
        <ele>241.840</ele>
        <time>2026-08-24T13:46:05.999Z</time>
      </trkpt>
      <trkpt lat="48.785580" lon="-1.162260">
        <ele>241.732</ele>
        <time>2026-08-24T13:46:06.999Z</time>
      </trkpt>
      <trkpt lat="48.785593" lon="-1.162240">
        <ele>241.758</ele>
        <time>2026-08-24T13:46:08.999Z</time>
      </trkpt>
      <trkpt lat="48.785604" lon="-1.162229">
        <ele>241.552</ele>
        <time>2026-08-24T13:46:09.999Z</time>
      </trkpt>
      <trkpt lat="48.785615" lon="-1.162212">
        <ele>241.317</ele>
        <time>2026-08-24T13:46:11.999Z</time>
      </trkpt>
      <trkpt lat="48.785622" lon="-1.162200">
        <ele>241.209</ele>
        <time>2026-08-24T13:46:12.999Z</time>
      </trkpt>
      <trkpt lat="48.785627" lon="-1.162186">
        <ele>241.187</ele>
        <time>2026-08-24T13:46:15.999Z</time>
      </trkpt>
      <trkpt lat="48.785641" lon="-1.162158">
        <ele>241.113</ele>
        <time>2026-08-24T13:46:19.999Z</time>
      </trkpt>
      <trkpt lat="48.785655" lon="-1.162140">
        <ele>241.096</ele>
        <time>2026-08-24T13:46:20.999Z</time>
      </trkpt>
      <trkpt lat="48.785663" lon="-1.162126">
        <ele>240.713</ele>
        <time>2026-08-24T13:46:21.999Z</time>
      </trkpt>
      <trkpt lat="48.785670" lon="-1.162112">
        <ele>240.471</ele>
        <time>2026-08-24T13:46:22.999Z</time>
      </trkpt>
      <trkpt lat="48.785679" lon="-1.162098">
        <ele>240.389</ele>
        <time>2026-08-24T13:46:23.999Z</time>
      </trkpt>
      <trkpt lat="48.785687" lon="-1.162083">
        <ele>240.283</ele>
        <time>2026-08-24T13:46:24.999Z</time>
      </trkpt>
      <trkpt lat="48.785702" lon="-1.162065">
        <ele>240.010</ele>
        <time>2026-08-24T13:46:25.999Z</time>
      </trkpt>
      <trkpt lat="48.785718" lon="-1.162046">
        <ele>239.822</ele>
        <time>2026-08-24T13:46:26.999Z</time>
      </trkpt>
      <trkpt lat="48.785732" lon="-1.162030">
        <ele>239.685</ele>
        <time>2026-08-24T13:46:27.999Z</time>
      </trkpt>
      <trkpt lat="48.785746" lon="-1.162011">
        <ele>239.589</ele>
        <time>2026-08-24T13:46:28.999Z</time>
      </trkpt>
      <trkpt lat="48.785758" lon="-1.161996">
        <ele>239.317</ele>
        <time>2026-08-24T13:46:29.999Z</time>
      </trkpt>
      <trkpt lat="48.785770" lon="-1.161983">
        <ele>239.109</ele>
        <time>2026-08-24T13:46:30.999Z</time>
      </trkpt>
      <trkpt lat="48.785782" lon="-1.161970">
        <ele>239.180</ele>
        <time>2026-08-24T13:46:31.999Z</time>
      </trkpt>
      <trkpt lat="48.785794" lon="-1.161957">
        <ele>239.036</ele>
        <time>2026-08-24T13:46:32.999Z</time>
      </trkpt>
      <trkpt lat="48.785802" lon="-1.161942">
        <ele>238.979</ele>
        <time>2026-08-24T13:46:33.999Z</time>
      </trkpt>
      <trkpt lat="48.785808" lon="-1.161928">
        <ele>238.886</ele>
        <time>2026-08-24T13:46:34.999Z</time>
      </trkpt>
      <trkpt lat="48.785814" lon="-1.161913">
        <ele>238.834</ele>
        <time>2026-08-24T13:46:35.999Z</time>
      </trkpt>
      <trkpt lat="48.785819" lon="-1.161899">
        <ele>238.712</ele>
        <time>2026-08-24T13:46:36.999Z</time>
      </trkpt>
      <trkpt lat="48.785824" lon="-1.161886">
        <ele>238.636</ele>
        <time>2026-08-24T13:46:37.999Z</time>
      </trkpt>
      <trkpt lat="48.785831" lon="-1.161865">
        <ele>238.563</ele>
        <time>2026-08-24T13:46:39.999Z</time>
      </trkpt>
      <trkpt lat="48.785839" lon="-1.161851">
        <ele>238.465</ele>
        <time>2026-08-24T13:46:40.999Z</time>
      </trkpt>
      <trkpt lat="48.785846" lon="-1.161838">
        <ele>238.357</ele>
        <time>2026-08-24T13:46:41.999Z</time>
      </trkpt>
      <trkpt lat="48.785853" lon="-1.161819">
        <ele>238.300</ele>
        <time>2026-08-24T13:46:42.999Z</time>
      </trkpt>
      <trkpt lat="48.785854" lon="-1.161802">
        <ele>238.220</ele>
        <time>2026-08-24T13:46:43.999Z</time>
      </trkpt>
      <trkpt lat="48.785860" lon="-1.161786">
        <ele>238.009</ele>
        <time>2026-08-24T13:46:44.999Z</time>
      </trkpt>
      <trkpt lat="48.785866" lon="-1.161769">
        <ele>237.647</ele>
        <time>2026-08-24T13:46:45.999Z</time>
      </trkpt>
      <trkpt lat="48.785873" lon="-1.161756">
        <ele>237.483</ele>
        <time>2026-08-24T13:46:46.999Z</time>
      </trkpt>
      <trkpt lat="48.785879" lon="-1.161746">
        <ele>237.366</ele>
        <time>2026-08-24T13:46:47.999Z</time>
      </trkpt>
      <trkpt lat="48.785887" lon="-1.161735">
        <ele>237.243</ele>
        <time>2026-08-24T13:46:48.999Z</time>
      </trkpt>
      <trkpt lat="48.785893" lon="-1.161719">
        <ele>237.071</ele>
        <time>2026-08-24T13:46:49.999Z</time>
      </trkpt>
      <trkpt lat="48.785898" lon="-1.161707">
        <ele>237.019</ele>
        <time>2026-08-24T13:46:50.999Z</time>
      </trkpt>
      <trkpt lat="48.785906" lon="-1.161687">
        <ele>236.873</ele>
        <time>2026-08-24T13:46:52.999Z</time>
      </trkpt>
      <trkpt lat="48.785907" lon="-1.161672">
        <ele>236.830</ele>
        <time>2026-08-24T13:46:53.999Z</time>
      </trkpt>
      <trkpt lat="48.785905" lon="-1.161651">
        <ele>236.722</ele>
        <time>2026-08-24T13:46:54.999Z</time>
      </trkpt>
      <trkpt lat="48.785904" lon="-1.161635">
        <ele>236.768</ele>
        <time>2026-08-24T13:46:55.999Z</time>
      </trkpt>
      <trkpt lat="48.785908" lon="-1.161620">
        <ele>236.642</ele>
        <time>2026-08-24T13:46:56.999Z</time>
      </trkpt>
      <trkpt lat="48.785913" lon="-1.161607">
        <ele>236.626</ele>
        <time>2026-08-24T13:46:57.999Z</time>
      </trkpt>
      <trkpt lat="48.785912" lon="-1.161587">
        <ele>236.509</ele>
        <time>2026-08-24T13:46:58.999Z</time>
      </trkpt>
      <trkpt lat="48.785915" lon="-1.161573">
        <ele>236.518</ele>
        <time>2026-08-24T13:46:59.999Z</time>
      </trkpt>
      <trkpt lat="48.785919" lon="-1.161559">
        <ele>236.434</ele>
        <time>2026-08-24T13:47:00.999Z</time>
      </trkpt>
      <trkpt lat="48.785923" lon="-1.161543">
        <ele>236.237</ele>
        <time>2026-08-24T13:47:03.999Z</time>
      </trkpt>
      <trkpt lat="48.785929" lon="-1.161528">
        <ele>235.914</ele>
        <time>2026-08-24T13:47:05.999Z</time>
      </trkpt>
      <trkpt lat="48.785933" lon="-1.161513">
        <ele>235.862</ele>
        <time>2026-08-24T13:47:06.999Z</time>
      </trkpt>
      <trkpt lat="48.785939" lon="-1.161500">
        <ele>235.790</ele>
        <time>2026-08-24T13:47:07.999Z</time>
      </trkpt>
      <trkpt lat="48.785945" lon="-1.161482">
        <ele>235.724</ele>
        <time>2026-08-24T13:47:08.999Z</time>
      </trkpt>
      <trkpt lat="48.785949" lon="-1.161465">
        <ele>235.661</ele>
        <time>2026-08-24T13:47:09.999Z</time>
      </trkpt>
      <trkpt lat="48.785954" lon="-1.161450">
        <ele>235.573</ele>
        <time>2026-08-24T13:47:10.999Z</time>
      </trkpt>
      <trkpt lat="48.785958" lon="-1.161435">
        <ele>235.535</ele>
        <time>2026-08-24T13:47:11.999Z</time>
      </trkpt>
      <trkpt lat="48.785964" lon="-1.161422">
        <ele>235.486</ele>
        <time>2026-08-24T13:47:12.999Z</time>
      </trkpt>
      <trkpt lat="48.785972" lon="-1.161404">
        <ele>235.414</ele>
        <time>2026-08-24T13:47:13.999Z</time>
      </trkpt>
      <trkpt lat="48.785978" lon="-1.161390">
        <ele>235.409</ele>
        <time>2026-08-24T13:47:14.999Z</time>
      </trkpt>
      <trkpt lat="48.785985" lon="-1.161378">
        <ele>235.435</ele>
        <time>2026-08-24T13:47:15.999Z</time>
      </trkpt>
      <trkpt lat="48.785992" lon="-1.161366">
        <ele>235.351</ele>
        <time>2026-08-24T13:47:16.999Z</time>
      </trkpt>
      <trkpt lat="48.786002" lon="-1.161357">
        <ele>235.224</ele>
        <time>2026-08-24T13:47:17.999Z</time>
      </trkpt>
      <trkpt lat="48.786012" lon="-1.161344">
        <ele>235.121</ele>
        <time>2026-08-24T13:47:18.999Z</time>
      </trkpt>
      <trkpt lat="48.786021" lon="-1.161334">
        <ele>235.049</ele>
        <time>2026-08-24T13:47:19.999Z</time>
      </trkpt>
      <trkpt lat="48.786028" lon="-1.161324">
        <ele>235.077</ele>
        <time>2026-08-24T13:47:20.999Z</time>
      </trkpt>
      <trkpt lat="48.786036" lon="-1.161315">
        <ele>235.091</ele>
        <time>2026-08-24T13:47:21.999Z</time>
      </trkpt>
      <trkpt lat="48.786043" lon="-1.161302">
        <ele>235.088</ele>
        <time>2026-08-24T13:47:22.999Z</time>
      </trkpt>
      <trkpt lat="48.786051" lon="-1.161289">
        <ele>234.990</ele>
        <time>2026-08-24T13:47:23.999Z</time>
      </trkpt>
      <trkpt lat="48.786059" lon="-1.161277">
        <ele>234.975</ele>
        <time>2026-08-24T13:47:24.999Z</time>
      </trkpt>
      <trkpt lat="48.786070" lon="-1.161257">
        <ele>234.828</ele>
        <time>2026-08-24T13:47:26.999Z</time>
      </trkpt>
      <trkpt lat="48.786079" lon="-1.161243">
        <ele>234.520</ele>
        <time>2026-08-24T13:47:28.999Z</time>
      </trkpt>
      <trkpt lat="48.786085" lon="-1.161233">
        <ele>234.209</ele>
        <time>2026-08-24T13:47:29.999Z</time>
      </trkpt>
      <trkpt lat="48.786091" lon="-1.161215">
        <ele>234.229</ele>
        <time>2026-08-24T13:47:31.999Z</time>
      </trkpt>
      <trkpt lat="48.786093" lon="-1.161199">
        <ele>234.155</ele>
        <time>2026-08-24T13:47:33.999Z</time>
      </trkpt>
      <trkpt lat="48.786099" lon="-1.161182">
        <ele>234.038</ele>
        <time>2026-08-24T13:47:35.999Z</time>
      </trkpt>
      <trkpt lat="48.786107" lon="-1.161164">
        <ele>234.055</ele>
        <time>2026-08-24T13:47:37.999Z</time>
      </trkpt>
      <trkpt lat="48.786117" lon="-1.161148">
        <ele>233.983</ele>
        <time>2026-08-24T13:47:38.999Z</time>
      </trkpt>
      <trkpt lat="48.786126" lon="-1.161136">
        <ele>233.981</ele>
        <time>2026-08-24T13:47:39.999Z</time>
      </trkpt>
      <trkpt lat="48.786133" lon="-1.161124">
        <ele>233.845</ele>
        <time>2026-08-24T13:47:40.999Z</time>
      </trkpt>
      <trkpt lat="48.786141" lon="-1.161112">
        <ele>233.842</ele>
        <time>2026-08-24T13:47:41.999Z</time>
      </trkpt>
      <trkpt lat="48.786147" lon="-1.161101">
        <ele>233.884</ele>
        <time>2026-08-24T13:47:42.999Z</time>
      </trkpt>
      <trkpt lat="48.786155" lon="-1.161091">
        <ele>233.754</ele>
        <time>2026-08-24T13:47:43.999Z</time>
      </trkpt>
      <trkpt lat="48.786162" lon="-1.161081">
        <ele>233.756</ele>
        <time>2026-08-24T13:47:44.999Z</time>
      </trkpt>
      <trkpt lat="48.786170" lon="-1.161071">
        <ele>233.611</ele>
        <time>2026-08-24T13:47:45.999Z</time>
      </trkpt>
      <trkpt lat="48.786177" lon="-1.161057">
        <ele>233.609</ele>
        <time>2026-08-24T13:47:46.999Z</time>
      </trkpt>
      <trkpt lat="48.786184" lon="-1.161044">
        <ele>233.417</ele>
        <time>2026-08-24T13:47:47.999Z</time>
      </trkpt>
      <trkpt lat="48.786191" lon="-1.161026">
        <ele>233.083</ele>
        <time>2026-08-24T13:47:49.999Z</time>
      </trkpt>
      <trkpt lat="48.786195" lon="-1.161011">
        <ele>232.736</ele>
        <time>2026-08-24T13:47:50.999Z</time>
      </trkpt>
      <trkpt lat="48.786200" lon="-1.160988">
        <ele>232.473</ele>
        <time>2026-08-24T13:47:52.999Z</time>
      </trkpt>
      <trkpt lat="48.786204" lon="-1.160965">
        <ele>232.321</ele>
        <time>2026-08-24T13:47:53.999Z</time>
      </trkpt>
      <trkpt lat="48.786209" lon="-1.160950">
        <ele>232.269</ele>
        <time>2026-08-24T13:47:54.999Z</time>
      </trkpt>
      <trkpt lat="48.786217" lon="-1.160925">
        <ele>232.263</ele>
        <time>2026-08-24T13:47:56.999Z</time>
      </trkpt>
      <trkpt lat="48.786214" lon="-1.160898">
        <ele>232.150</ele>
        <time>2026-08-24T13:47:58.999Z</time>
      </trkpt>
      <trkpt lat="48.786211" lon="-1.160882">
        <ele>232.052</ele>
        <time>2026-08-24T13:47:59.999Z</time>
      </trkpt>
      <trkpt lat="48.786211" lon="-1.160868">
        <ele>231.967</ele>
        <time>2026-08-24T13:48:00.999Z</time>
      </trkpt>
      <trkpt lat="48.786211" lon="-1.160853">
        <ele>231.981</ele>
        <time>2026-08-24T13:48:01.999Z</time>
      </trkpt>
      <trkpt lat="48.786213" lon="-1.160839">
        <ele>231.819</ele>
        <time>2026-08-24T13:48:02.999Z</time>
      </trkpt>
      <trkpt lat="48.786220" lon="-1.160815">
        <ele>231.709</ele>
        <time>2026-08-24T13:48:04.999Z</time>
      </trkpt>
      <trkpt lat="48.786230" lon="-1.160796">
        <ele>231.478</ele>
        <time>2026-08-24T13:48:05.999Z</time>
      </trkpt>
      <trkpt lat="48.786232" lon="-1.160780">
        <ele>231.184</ele>
        <time>2026-08-24T13:48:07.999Z</time>
      </trkpt>
      <trkpt lat="48.786228" lon="-1.160767">
        <ele>230.417</ele>
        <time>2026-08-24T13:48:09.999Z</time>
      </trkpt>
      <trkpt lat="48.786241" lon="-1.160748">
        <ele>229.844</ele>
        <time>2026-08-24T13:48:11.999Z</time>
      </trkpt>
      <trkpt lat="48.786244" lon="-1.160731">
        <ele>229.472</ele>
        <time>2026-08-24T13:48:12.999Z</time>
      </trkpt>
      <trkpt lat="48.786259" lon="-1.160725">
        <ele>228.770</ele>
        <time>2026-08-24T13:48:14.999Z</time>
      </trkpt>
      <trkpt lat="48.786275" lon="-1.160720">
        <ele>228.324</ele>
        <time>2026-08-24T13:48:18.999Z</time>
      </trkpt>
      <trkpt lat="48.786284" lon="-1.160721">
        <ele>228.121</ele>
        <time>2026-08-24T13:48:19.999Z</time>
      </trkpt>
      <trkpt lat="48.786297" lon="-1.160722">
        <ele>228.063</ele>
        <time>2026-08-24T13:48:20.999Z</time>
      </trkpt>
      <trkpt lat="48.786308" lon="-1.160722">
        <ele>228.056</ele>
        <time>2026-08-24T13:48:21.999Z</time>
      </trkpt>
      <trkpt lat="48.786318" lon="-1.160723">
        <ele>227.959</ele>
        <time>2026-08-24T13:48:22.999Z</time>
      </trkpt>
      <trkpt lat="48.786326" lon="-1.160733">
        <ele>227.814</ele>
        <time>2026-08-24T13:48:23.999Z</time>
      </trkpt>
      <trkpt lat="48.786337" lon="-1.160742">
        <ele>227.709</ele>
        <time>2026-08-24T13:48:25.999Z</time>
      </trkpt>
      <trkpt lat="48.786345" lon="-1.160754">
        <ele>227.667</ele>
        <time>2026-08-24T13:48:28.999Z</time>
      </trkpt>
      <trkpt lat="48.786353" lon="-1.160765">
        <ele>227.453</ele>
        <time>2026-08-24T13:48:31.999Z</time>
      </trkpt>
      <trkpt lat="48.786370" lon="-1.160785">
        <ele>227.466</ele>
        <time>2026-08-24T13:48:35.999Z</time>
      </trkpt>
      <trkpt lat="48.786381" lon="-1.160796">
        <ele>227.373</ele>
        <time>2026-08-24T13:48:36.999Z</time>
      </trkpt>
      <trkpt lat="48.786392" lon="-1.160798">
        <ele>227.321</ele>
        <time>2026-08-24T13:48:39.999Z</time>
      </trkpt>
      <trkpt lat="48.786396" lon="-1.160785">
        <ele>227.199</ele>
        <time>2026-08-24T13:48:42.999Z</time>
      </trkpt>
      <trkpt lat="48.786410" lon="-1.160770">
        <ele>226.853</ele>
        <time>2026-08-24T13:48:43.999Z</time>
      </trkpt>
      <trkpt lat="48.786426" lon="-1.160753">
        <ele>226.750</ele>
        <time>2026-08-24T13:48:44.999Z</time>
      </trkpt>
      <trkpt lat="48.786439" lon="-1.160737">
        <ele>226.622</ele>
        <time>2026-08-24T13:48:45.999Z</time>
      </trkpt>
      <trkpt lat="48.786455" lon="-1.160718">
        <ele>226.655</ele>
        <time>2026-08-24T13:48:46.999Z</time>
      </trkpt>
      <trkpt lat="48.786471" lon="-1.160701">
        <ele>226.507</ele>
        <time>2026-08-24T13:48:47.999Z</time>
      </trkpt>
      <trkpt lat="48.786488" lon="-1.160686">
        <ele>226.517</ele>
        <time>2026-08-24T13:48:48.999Z</time>
      </trkpt>
      <trkpt lat="48.786518" lon="-1.160664">
        <ele>226.409</ele>
        <time>2026-08-24T13:48:49.999Z</time>
      </trkpt>
      <trkpt lat="48.786521" lon="-1.160641">
        <ele>226.247</ele>
        <time>2026-08-24T13:48:50.999Z</time>
      </trkpt>
      <trkpt lat="48.786520" lon="-1.160627">
        <ele>225.993</ele>
        <time>2026-08-24T13:48:51.999Z</time>
      </trkpt>
      <trkpt lat="48.786529" lon="-1.160601">
        <ele>225.526</ele>
        <time>2026-08-24T13:48:52.999Z</time>
      </trkpt>
      <trkpt lat="48.786533" lon="-1.160587">
        <ele>224.523</ele>
        <time>2026-08-24T13:48:53.999Z</time>
      </trkpt>
      <trkpt lat="48.786542" lon="-1.160571">
        <ele>223.841</ele>
        <time>2026-08-24T13:48:54.999Z</time>
      </trkpt>
      <trkpt lat="48.786556" lon="-1.160549">
        <ele>223.719</ele>
        <time>2026-08-24T13:48:55.999Z</time>
      </trkpt>
      <trkpt lat="48.786560" lon="-1.160530">
        <ele>223.753</ele>
        <time>2026-08-24T13:48:56.999Z</time>
      </trkpt>
      <trkpt lat="48.786566" lon="-1.160510">
        <ele>223.630</ele>
        <time>2026-08-24T13:48:57.999Z</time>
      </trkpt>
      <trkpt lat="48.786570" lon="-1.160492">
        <ele>223.562</ele>
        <time>2026-08-24T13:48:58.999Z</time>
      </trkpt>
      <trkpt lat="48.786576" lon="-1.160477">
        <ele>223.439</ele>
        <time>2026-08-24T13:48:59.999Z</time>
      </trkpt>
      <trkpt lat="48.786582" lon="-1.160464">
        <ele>223.101</ele>
        <time>2026-08-24T13:49:00.999Z</time>
      </trkpt>
      <trkpt lat="48.786589" lon="-1.160449">
        <ele>223.021</ele>
        <time>2026-08-24T13:49:01.999Z</time>
      </trkpt>
      <trkpt lat="48.786597" lon="-1.160436">
        <ele>222.909</ele>
        <time>2026-08-24T13:49:02.999Z</time>
      </trkpt>
      <trkpt lat="48.786618" lon="-1.160421">
        <ele>222.875</ele>
        <time>2026-08-24T13:49:03.999Z</time>
      </trkpt>
      <trkpt lat="48.786624" lon="-1.160407">
        <ele>222.811</ele>
        <time>2026-08-24T13:49:04.999Z</time>
      </trkpt>
      <trkpt lat="48.786624" lon="-1.160374">
        <ele>222.654</ele>
        <time>2026-08-24T13:49:06.999Z</time>
      </trkpt>
      <trkpt lat="48.786623" lon="-1.160352">
        <ele>222.311</ele>
        <time>2026-08-24T13:49:07.999Z</time>
      </trkpt>
      <trkpt lat="48.786623" lon="-1.160330">
        <ele>222.159</ele>
        <time>2026-08-24T13:49:08.999Z</time>
      </trkpt>
      <trkpt lat="48.786628" lon="-1.160314">
        <ele>221.947</ele>
        <time>2026-08-24T13:49:09.999Z</time>
      </trkpt>
      <trkpt lat="48.786628" lon="-1.160294">
        <ele>221.771</ele>
        <time>2026-08-24T13:49:10.999Z</time>
      </trkpt>
      <trkpt lat="48.786630" lon="-1.160278">
        <ele>221.698</ele>
        <time>2026-08-24T13:49:11.999Z</time>
      </trkpt>
      <trkpt lat="48.786637" lon="-1.160254">
        <ele>221.550</ele>
        <time>2026-08-24T13:49:13.999Z</time>
      </trkpt>
      <trkpt lat="48.786641" lon="-1.160232">
        <ele>221.394</ele>
        <time>2026-08-24T13:49:15.999Z</time>
      </trkpt>
      <trkpt lat="48.786647" lon="-1.160208">
        <ele>221.257</ele>
        <time>2026-08-24T13:49:17.999Z</time>
      </trkpt>
      <trkpt lat="48.786667" lon="-1.160190">
        <ele>221.222</ele>
        <time>2026-08-24T13:49:19.999Z</time>
      </trkpt>
      <trkpt lat="48.786680" lon="-1.160183">
        <ele>221.209</ele>
        <time>2026-08-24T13:49:21.999Z</time>
      </trkpt>
      <trkpt lat="48.786689" lon="-1.160187">
        <ele>221.261</ele>
        <time>2026-08-24T13:49:22.999Z</time>
      </trkpt>
      <trkpt lat="48.786706" lon="-1.160203">
        <ele>221.297</ele>
        <time>2026-08-24T13:49:24.999Z</time>
      </trkpt>
      <trkpt lat="48.786717" lon="-1.160207">
        <ele>221.230</ele>
        <time>2026-08-24T13:49:25.999Z</time>
      </trkpt>
      <trkpt lat="48.786731" lon="-1.160204">
        <ele>221.217</ele>
        <time>2026-08-24T13:49:27.999Z</time>
      </trkpt>
      <trkpt lat="48.786739" lon="-1.160199">
        <ele>221.215</ele>
        <time>2026-08-24T13:49:28.999Z</time>
      </trkpt>
      <trkpt lat="48.786750" lon="-1.160194">
        <ele>221.263</ele>
        <time>2026-08-24T13:49:29.999Z</time>
      </trkpt>
      <trkpt lat="48.786767" lon="-1.160176">
        <ele>221.297</ele>
        <time>2026-08-24T13:49:31.999Z</time>
      </trkpt>
      <trkpt lat="48.786778" lon="-1.160160">
        <ele>221.164</ele>
        <time>2026-08-24T13:49:32.999Z</time>
      </trkpt>
      <trkpt lat="48.786780" lon="-1.160138">
        <ele>221.126</ele>
        <time>2026-08-24T13:49:33.999Z</time>
      </trkpt>
      <trkpt lat="48.786777" lon="-1.160117">
        <ele>221.173</ele>
        <time>2026-08-24T13:49:34.999Z</time>
      </trkpt>
      <trkpt lat="48.786767" lon="-1.160094">
        <ele>221.085</ele>
        <time>2026-08-24T13:49:35.999Z</time>
      </trkpt>
      <trkpt lat="48.786767" lon="-1.160074">
        <ele>221.013</ele>
        <time>2026-08-24T13:49:37.999Z</time>
      </trkpt>
      <trkpt lat="48.786769" lon="-1.160093">
        <ele>220.909</ele>
        <time>2026-08-24T13:49:42.999Z</time>
      </trkpt>
      <trkpt lat="48.786766" lon="-1.160108">
        <ele>220.899</ele>
        <time>2026-08-24T13:49:43.999Z</time>
      </trkpt>
      <trkpt lat="48.786761" lon="-1.160128">
        <ele>220.835</ele>
        <time>2026-08-24T13:49:44.999Z</time>
      </trkpt>
      <trkpt lat="48.786762" lon="-1.160143">
        <ele>220.818</ele>
        <time>2026-08-24T13:49:45.999Z</time>
      </trkpt>
      <trkpt lat="48.786759" lon="-1.160157">
        <ele>220.765</ele>
        <time>2026-08-24T13:49:46.999Z</time>
      </trkpt>
      <trkpt lat="48.786760" lon="-1.160173">
        <ele>220.683</ele>
        <time>2026-08-24T13:49:47.999Z</time>
      </trkpt>
      <trkpt lat="48.786759" lon="-1.160190">
        <ele>220.571</ele>
        <time>2026-08-24T13:49:48.999Z</time>
      </trkpt>
      <trkpt lat="48.786752" lon="-1.160206">
        <ele>220.545</ele>
        <time>2026-08-24T13:49:49.999Z</time>
      </trkpt>
      <trkpt lat="48.786747" lon="-1.160228">
        <ele>220.642</ele>
        <time>2026-08-24T13:49:50.999Z</time>
      </trkpt>
      <trkpt lat="48.786744" lon="-1.160256">
        <ele>220.694</ele>
        <time>2026-08-24T13:49:51.999Z</time>
      </trkpt>
      <trkpt lat="48.786744" lon="-1.160273">
        <ele>220.674</ele>
        <time>2026-08-24T13:49:52.999Z</time>
      </trkpt>
      <trkpt lat="48.786750" lon="-1.160291">
        <ele>220.656</ele>
        <time>2026-08-24T13:49:53.999Z</time>
      </trkpt>
      <trkpt lat="48.786755" lon="-1.160307">
        <ele>220.621</ele>
        <time>2026-08-24T13:49:54.999Z</time>
      </trkpt>
      <trkpt lat="48.786763" lon="-1.160333">
        <ele>220.609</ele>
        <time>2026-08-24T13:49:56.999Z</time>
      </trkpt>
      <trkpt lat="48.786759" lon="-1.160353">
        <ele>220.649</ele>
        <time>2026-08-24T13:49:58.999Z</time>
      </trkpt>
      <trkpt lat="48.786751" lon="-1.160359">
        <ele>220.665</ele>
        <time>2026-08-24T13:49:59.999Z</time>
      </trkpt>
      <trkpt lat="48.786740" lon="-1.160377">
        <ele>220.638</ele>
        <time>2026-08-24T13:50:00.999Z</time>
      </trkpt>
      <trkpt lat="48.786736" lon="-1.160390">
        <ele>220.615</ele>
        <time>2026-08-24T13:50:02.999Z</time>
      </trkpt>
      <trkpt lat="48.786731" lon="-1.160408">
        <ele>220.643</ele>
        <time>2026-08-24T13:50:04.999Z</time>
      </trkpt>
      <trkpt lat="48.786735" lon="-1.160443">
        <ele>220.681</ele>
        <time>2026-08-24T13:50:06.999Z</time>
      </trkpt>
      <trkpt lat="48.786734" lon="-1.160458">
        <ele>220.695</ele>
        <time>2026-08-24T13:50:07.999Z</time>
      </trkpt>
      <trkpt lat="48.786737" lon="-1.160486">
        <ele>220.572</ele>
        <time>2026-08-24T13:50:08.999Z</time>
      </trkpt>
      <trkpt lat="48.786738" lon="-1.160505">
        <ele>220.554</ele>
        <time>2026-08-24T13:50:09.999Z</time>
      </trkpt>
      <trkpt lat="48.786742" lon="-1.160527">
        <ele>220.511</ele>
        <time>2026-08-24T13:50:10.999Z</time>
      </trkpt>
      <trkpt lat="48.786744" lon="-1.160543">
        <ele>220.521</ele>
        <time>2026-08-24T13:50:11.999Z</time>
      </trkpt>
      <trkpt lat="48.786738" lon="-1.160582">
        <ele>220.503</ele>
        <time>2026-08-24T13:50:12.999Z</time>
      </trkpt>
      <trkpt lat="48.786735" lon="-1.160605">
        <ele>220.509</ele>
        <time>2026-08-24T13:50:13.999Z</time>
      </trkpt>
      <trkpt lat="48.786735" lon="-1.160621">
        <ele>220.573</ele>
        <time>2026-08-24T13:50:14.999Z</time>
      </trkpt>
      <trkpt lat="48.786733" lon="-1.160638">
        <ele>220.549</ele>
        <time>2026-08-24T13:50:15.999Z</time>
      </trkpt>
      <trkpt lat="48.786728" lon="-1.160662">
        <ele>220.452</ele>
        <time>2026-08-24T13:50:16.999Z</time>
      </trkpt>
      <trkpt lat="48.786728" lon="-1.160677">
        <ele>220.459</ele>
        <time>2026-08-24T13:50:17.999Z</time>
      </trkpt>
      <trkpt lat="48.786728" lon="-1.160707">
        <ele>220.457</ele>
        <time>2026-08-24T13:50:19.999Z</time>
      </trkpt>
      <trkpt lat="48.786720" lon="-1.160724">
        <ele>220.465</ele>
        <time>2026-08-24T13:50:20.999Z</time>
      </trkpt>
      <trkpt lat="48.786718" lon="-1.160742">
        <ele>220.499</ele>
        <time>2026-08-24T13:50:21.999Z</time>
      </trkpt>
      <trkpt lat="48.786717" lon="-1.160761">
        <ele>220.416</ele>
        <time>2026-08-24T13:50:22.999Z</time>
      </trkpt>
      <trkpt lat="48.786719" lon="-1.160782">
        <ele>220.438</ele>
        <time>2026-08-24T13:50:23.999Z</time>
      </trkpt>
      <trkpt lat="48.786718" lon="-1.160809">
        <ele>220.459</ele>
        <time>2026-08-24T13:50:25.999Z</time>
      </trkpt>
      <trkpt lat="48.786715" lon="-1.160824">
        <ele>220.203</ele>
        <time>2026-08-24T13:50:26.999Z</time>
      </trkpt>
      <trkpt lat="48.786717" lon="-1.160841">
        <ele>220.123</ele>
        <time>2026-08-24T13:50:27.999Z</time>
      </trkpt>
      <trkpt lat="48.786713" lon="-1.160858">
        <ele>219.909</ele>
        <time>2026-08-24T13:50:28.999Z</time>
      </trkpt>
      <trkpt lat="48.786714" lon="-1.160878">
        <ele>219.797</ele>
        <time>2026-08-24T13:50:29.999Z</time>
      </trkpt>
      <trkpt lat="48.786719" lon="-1.160891">
        <ele>219.733</ele>
        <time>2026-08-24T13:50:30.999Z</time>
      </trkpt>
      <trkpt lat="48.786722" lon="-1.160910">
        <ele>219.716</ele>
        <time>2026-08-24T13:50:31.999Z</time>
      </trkpt>
      <trkpt lat="48.786721" lon="-1.160931">
        <ele>219.763</ele>
        <time>2026-08-24T13:50:32.999Z</time>
      </trkpt>
      <trkpt lat="48.786719" lon="-1.160947">
        <ele>219.741</ele>
        <time>2026-08-24T13:50:33.999Z</time>
      </trkpt>
      <trkpt lat="48.786720" lon="-1.160963">
        <ele>219.729</ele>
        <time>2026-08-24T13:50:34.999Z</time>
      </trkpt>
      <trkpt lat="48.786721" lon="-1.160981">
        <ele>219.713</ele>
        <time>2026-08-24T13:50:35.999Z</time>
      </trkpt>
      <trkpt lat="48.786724" lon="-1.161002">
        <ele>219.790</ele>
        <time>2026-08-24T13:50:37.999Z</time>
      </trkpt>
      <trkpt lat="48.786721" lon="-1.161021">
        <ele>219.762</ele>
        <time>2026-08-24T13:50:38.999Z</time>
      </trkpt>
      <trkpt lat="48.786717" lon="-1.161039">
        <ele>219.697</ele>
        <time>2026-08-24T13:50:39.999Z</time>
      </trkpt>
      <trkpt lat="48.786711" lon="-1.161059">
        <ele>219.623</ele>
        <time>2026-08-24T13:50:40.999Z</time>
      </trkpt>
      <trkpt lat="48.786709" lon="-1.161073">
        <ele>219.625</ele>
        <time>2026-08-24T13:50:41.999Z</time>
      </trkpt>
      <trkpt lat="48.786711" lon="-1.161091">
        <ele>219.609</ele>
        <time>2026-08-24T13:50:42.999Z</time>
      </trkpt>
      <trkpt lat="48.786717" lon="-1.161112">
        <ele>219.611</ele>
        <time>2026-08-24T13:50:43.999Z</time>
      </trkpt>
      <trkpt lat="48.786718" lon="-1.161135">
        <ele>219.667</ele>
        <time>2026-08-24T13:50:44.999Z</time>
      </trkpt>
      <trkpt lat="48.786716" lon="-1.161158">
        <ele>219.630</ele>
        <time>2026-08-24T13:50:45.999Z</time>
      </trkpt>
      <trkpt lat="48.786712" lon="-1.161177">
        <ele>219.687</ele>
        <time>2026-08-24T13:50:46.999Z</time>
      </trkpt>
      <trkpt lat="48.786710" lon="-1.161202">
        <ele>219.665</ele>
        <time>2026-08-24T13:50:48.999Z</time>
      </trkpt>
      <trkpt lat="48.786707" lon="-1.161222">
        <ele>219.713</ele>
        <time>2026-08-24T13:50:49.999Z</time>
      </trkpt>
      <trkpt lat="48.786703" lon="-1.161242">
        <ele>219.757</ele>
        <time>2026-08-24T13:50:50.999Z</time>
      </trkpt>
      <trkpt lat="48.786703" lon="-1.161263">
        <ele>219.734</ele>
        <time>2026-08-24T13:50:51.999Z</time>
      </trkpt>
      <trkpt lat="48.786704" lon="-1.161282">
        <ele>219.766</ele>
        <time>2026-08-24T13:50:52.999Z</time>
      </trkpt>
      <trkpt lat="48.786703" lon="-1.161298">
        <ele>219.759</ele>
        <time>2026-08-24T13:50:53.999Z</time>
      </trkpt>
      <trkpt lat="48.786704" lon="-1.161314">
        <ele>219.703</ele>
        <time>2026-08-24T13:50:54.999Z</time>
      </trkpt>
      <trkpt lat="48.786699" lon="-1.161335">
        <ele>219.723</ele>
        <time>2026-08-24T13:50:55.999Z</time>
      </trkpt>
      <trkpt lat="48.786697" lon="-1.161354">
        <ele>219.709</ele>
        <time>2026-08-24T13:50:56.999Z</time>
      </trkpt>
      <trkpt lat="48.786702" lon="-1.161376">
        <ele>219.747</ele>
        <time>2026-08-24T13:50:58.999Z</time>
      </trkpt>
      <trkpt lat="48.786708" lon="-1.161393">
        <ele>219.713</ele>
        <time>2026-08-24T13:51:00.999Z</time>
      </trkpt>
      <trkpt lat="48.786710" lon="-1.161411">
        <ele>219.786</ele>
        <time>2026-08-24T13:51:01.999Z</time>
      </trkpt>
      <trkpt lat="48.786708" lon="-1.161432">
        <ele>219.713</ele>
        <time>2026-08-24T13:51:02.999Z</time>
      </trkpt>
      <trkpt lat="48.786707" lon="-1.161450">
        <ele>219.761</ele>
        <time>2026-08-24T13:51:03.999Z</time>
      </trkpt>
      <trkpt lat="48.786698" lon="-1.161472">
        <ele>219.769</ele>
        <time>2026-08-24T13:51:04.999Z</time>
      </trkpt>
      <trkpt lat="48.786690" lon="-1.161490">
        <ele>219.643</ele>
        <time>2026-08-24T13:51:05.999Z</time>
      </trkpt>
      <trkpt lat="48.786685" lon="-1.161513">
        <ele>219.670</ele>
        <time>2026-08-24T13:51:06.999Z</time>
      </trkpt>
      <trkpt lat="48.786681" lon="-1.161532">
        <ele>219.542</ele>
        <time>2026-08-24T13:51:07.999Z</time>
      </trkpt>
      <trkpt lat="48.786676" lon="-1.161547">
        <ele>219.399</ele>
        <time>2026-08-24T13:51:08.999Z</time>
      </trkpt>
      <trkpt lat="48.786678" lon="-1.161568">
        <ele>219.107</ele>
        <time>2026-08-24T13:51:09.999Z</time>
      </trkpt>
      <trkpt lat="48.786676" lon="-1.161590">
        <ele>218.927</ele>
        <time>2026-08-24T13:51:10.999Z</time>
      </trkpt>
      <trkpt lat="48.786674" lon="-1.161607">
        <ele>218.709</ele>
        <time>2026-08-24T13:51:11.999Z</time>
      </trkpt>
      <trkpt lat="48.786686" lon="-1.161634">
        <ele>218.611</ele>
        <time>2026-08-24T13:51:12.999Z</time>
      </trkpt>
      <trkpt lat="48.786693" lon="-1.161660">
        <ele>218.687</ele>
        <time>2026-08-24T13:51:14.999Z</time>
      </trkpt>
      <trkpt lat="48.786696" lon="-1.161679">
        <ele>218.570</ele>
        <time>2026-08-24T13:51:15.999Z</time>
      </trkpt>
      <trkpt lat="48.786696" lon="-1.161695">
        <ele>218.537</ele>
        <time>2026-08-24T13:51:16.999Z</time>
      </trkpt>
      <trkpt lat="48.786699" lon="-1.161715">
        <ele>218.415</ele>
        <time>2026-08-24T13:51:17.999Z</time>
      </trkpt>
      <trkpt lat="48.786700" lon="-1.161736">
        <ele>218.493</ele>
        <time>2026-08-24T13:51:18.999Z</time>
      </trkpt>
      <trkpt lat="48.786705" lon="-1.161754">
        <ele>218.387</ele>
        <time>2026-08-24T13:51:19.999Z</time>
      </trkpt>
      <trkpt lat="48.786703" lon="-1.161768">
        <ele>218.254</ele>
        <time>2026-08-24T13:51:20.999Z</time>
      </trkpt>
      <trkpt lat="48.786699" lon="-1.161799">
        <ele>218.146</ele>
        <time>2026-08-24T13:51:22.999Z</time>
      </trkpt>
      <trkpt lat="48.786693" lon="-1.161821">
        <ele>218.159</ele>
        <time>2026-08-24T13:51:23.999Z</time>
      </trkpt>
      <trkpt lat="48.786693" lon="-1.161840">
        <ele>218.103</ele>
        <time>2026-08-24T13:51:24.999Z</time>
      </trkpt>
      <trkpt lat="48.786688" lon="-1.161858">
        <ele>218.123</ele>
        <time>2026-08-24T13:51:25.999Z</time>
      </trkpt>
      <trkpt lat="48.786696" lon="-1.161874">
        <ele>218.109</ele>
        <time>2026-08-24T13:51:26.999Z</time>
      </trkpt>
      <trkpt lat="48.786694" lon="-1.161899">
        <ele>218.197</ele>
        <time>2026-08-24T13:51:28.999Z</time>
      </trkpt>
      <trkpt lat="48.786693" lon="-1.161917">
        <ele>218.143</ele>
        <time>2026-08-24T13:51:29.999Z</time>
      </trkpt>
      <trkpt lat="48.786688" lon="-1.161939">
        <ele>218.126</ele>
        <time>2026-08-24T13:51:30.999Z</time>
      </trkpt>
      <trkpt lat="48.786684" lon="-1.161961">
        <ele>218.183</ele>
        <time>2026-08-24T13:51:31.999Z</time>
      </trkpt>
      <trkpt lat="48.786679" lon="-1.161976">
        <ele>218.131</ele>
        <time>2026-08-24T13:51:32.999Z</time>
      </trkpt>
      <trkpt lat="48.786675" lon="-1.162006">
        <ele>218.159</ele>
        <time>2026-08-24T13:51:34.999Z</time>
      </trkpt>
      <trkpt lat="48.786670" lon="-1.162028">
        <ele>218.123</ele>
        <time>2026-08-24T13:51:35.999Z</time>
      </trkpt>
      <trkpt lat="48.786673" lon="-1.162056">
        <ele>218.190</ele>
        <time>2026-08-24T13:51:36.999Z</time>
      </trkpt>
      <trkpt lat="48.786677" lon="-1.162071">
        <ele>218.182</ele>
        <time>2026-08-24T13:51:37.999Z</time>
      </trkpt>
      <trkpt lat="48.786680" lon="-1.162086">
        <ele>218.121</ele>
        <time>2026-08-24T13:51:38.999Z</time>
      </trkpt>
      <trkpt lat="48.786683" lon="-1.162102">
        <ele>218.141</ele>
        <time>2026-08-24T13:51:39.999Z</time>
      </trkpt>
      <trkpt lat="48.786679" lon="-1.162118">
        <ele>218.305</ele>
        <time>2026-08-24T13:51:40.999Z</time>
      </trkpt>
      <trkpt lat="48.786674" lon="-1.162141">
        <ele>218.509</ele>
        <time>2026-08-24T13:51:41.999Z</time>
      </trkpt>
      <trkpt lat="48.786674" lon="-1.162166">
        <ele>218.674</ele>
        <time>2026-08-24T13:51:42.999Z</time>
      </trkpt>
      <trkpt lat="48.786675" lon="-1.162189">
        <ele>218.640</ele>
        <time>2026-08-24T13:51:43.999Z</time>
      </trkpt>
      <trkpt lat="48.786683" lon="-1.162209">
        <ele>218.673</ele>
        <time>2026-08-24T13:51:44.999Z</time>
      </trkpt>
      <trkpt lat="48.786694" lon="-1.162225">
        <ele>218.640</ele>
        <time>2026-08-24T13:51:45.999Z</time>
      </trkpt>
      <trkpt lat="48.786699" lon="-1.162242">
        <ele>218.628</ele>
        <time>2026-08-24T13:51:46.999Z</time>
      </trkpt>
      <trkpt lat="48.786701" lon="-1.162260">
        <ele>218.646</ele>
        <time>2026-08-24T13:51:47.999Z</time>
      </trkpt>
      <trkpt lat="48.786713" lon="-1.162285">
        <ele>218.650</ele>
        <time>2026-08-24T13:51:48.999Z</time>
      </trkpt>
      <trkpt lat="48.786716" lon="-1.162311">
        <ele>218.627</ele>
        <time>2026-08-24T13:51:49.999Z</time>
      </trkpt>
      <trkpt lat="48.786718" lon="-1.162333">
        <ele>218.689</ele>
        <time>2026-08-24T13:51:50.999Z</time>
      </trkpt>
      <trkpt lat="48.786721" lon="-1.162350">
        <ele>218.793</ele>
        <time>2026-08-24T13:51:51.999Z</time>
      </trkpt>
      <trkpt lat="48.786727" lon="-1.162366">
        <ele>218.765</ele>
        <time>2026-08-24T13:51:53.999Z</time>
      </trkpt>
      <trkpt lat="48.786735" lon="-1.162376">
        <ele>218.721</ele>
        <time>2026-08-24T13:51:54.999Z</time>
      </trkpt>
      <trkpt lat="48.786739" lon="-1.162391">
        <ele>218.709</ele>
        <time>2026-08-24T13:51:55.999Z</time>
      </trkpt>
      <trkpt lat="48.786741" lon="-1.162406">
        <ele>218.761</ele>
        <time>2026-08-24T13:51:56.999Z</time>
      </trkpt>
      <trkpt lat="48.786749" lon="-1.162421">
        <ele>218.787</ele>
        <time>2026-08-24T13:51:57.999Z</time>
      </trkpt>
      <trkpt lat="48.786752" lon="-1.162437">
        <ele>218.680</ele>
        <time>2026-08-24T13:51:58.999Z</time>
      </trkpt>
      <trkpt lat="48.786754" lon="-1.162470">
        <ele>218.677</ele>
        <time>2026-08-24T13:52:00.999Z</time>
      </trkpt>
      <trkpt lat="48.786757" lon="-1.162490">
        <ele>218.625</ele>
        <time>2026-08-24T13:52:01.999Z</time>
      </trkpt>
      <trkpt lat="48.786761" lon="-1.162515">
        <ele>218.623</ele>
        <time>2026-08-24T13:52:02.999Z</time>
      </trkpt>
      <trkpt lat="48.786762" lon="-1.162530">
        <ele>218.537</ele>
        <time>2026-08-24T13:52:03.999Z</time>
      </trkpt>
      <trkpt lat="48.786761" lon="-1.162552">
        <ele>218.524</ele>
        <time>2026-08-24T13:52:04.999Z</time>
      </trkpt>
      <trkpt lat="48.786764" lon="-1.162571">
        <ele>218.516</ele>
        <time>2026-08-24T13:52:05.999Z</time>
      </trkpt>
      <trkpt lat="48.786769" lon="-1.162587">
        <ele>218.477</ele>
        <time>2026-08-24T13:52:06.999Z</time>
      </trkpt>
      <trkpt lat="48.786773" lon="-1.162607">
        <ele>218.461</ele>
        <time>2026-08-24T13:52:07.999Z</time>
      </trkpt>
      <trkpt lat="48.786777" lon="-1.162625">
        <ele>218.327</ele>
        <time>2026-08-24T13:52:08.999Z</time>
      </trkpt>
      <trkpt lat="48.786779" lon="-1.162641">
        <ele>218.209</ele>
        <time>2026-08-24T13:52:09.999Z</time>
      </trkpt>
      <trkpt lat="48.786781" lon="-1.162661">
        <ele>218.289</ele>
        <time>2026-08-24T13:52:10.999Z</time>
      </trkpt>
      <trkpt lat="48.786786" lon="-1.162676">
        <ele>218.175</ele>
        <time>2026-08-24T13:52:11.999Z</time>
      </trkpt>
      <trkpt lat="48.786793" lon="-1.162704">
        <ele>217.918</ele>
        <time>2026-08-24T13:52:13.999Z</time>
      </trkpt>
      <trkpt lat="48.786793" lon="-1.162724">
        <ele>217.435</ele>
        <time>2026-08-24T13:52:14.999Z</time>
      </trkpt>
      <trkpt lat="48.786799" lon="-1.162743">
        <ele>217.153</ele>
        <time>2026-08-24T13:52:15.999Z</time>
      </trkpt>
      <trkpt lat="48.786802" lon="-1.162758">
        <ele>217.051</ele>
        <time>2026-08-24T13:52:16.999Z</time>
      </trkpt>
      <trkpt lat="48.786805" lon="-1.162776">
        <ele>216.835</ele>
        <time>2026-08-24T13:52:17.999Z</time>
      </trkpt>
      <trkpt lat="48.786809" lon="-1.162792">
        <ele>216.572</ele>
        <time>2026-08-24T13:52:18.999Z</time>
      </trkpt>
      <trkpt lat="48.786818" lon="-1.162809">
        <ele>216.214</ele>
        <time>2026-08-24T13:52:19.999Z</time>
      </trkpt>
      <trkpt lat="48.786826" lon="-1.162833">
        <ele>216.238</ele>
        <time>2026-08-24T13:52:21.999Z</time>
      </trkpt>
      <trkpt lat="48.786824" lon="-1.162855">
        <ele>216.070</ele>
        <time>2026-08-24T13:52:23.999Z</time>
      </trkpt>
      <trkpt lat="48.786826" lon="-1.162871">
        <ele>215.717</ele>
        <time>2026-08-24T13:52:24.999Z</time>
      </trkpt>
      <trkpt lat="48.786843" lon="-1.162885">
        <ele>215.509</ele>
        <time>2026-08-24T13:52:26.999Z</time>
      </trkpt>
      <trkpt lat="48.786850" lon="-1.162899">
        <ele>215.585</ele>
        <time>2026-08-24T13:52:27.999Z</time>
      </trkpt>
      <trkpt lat="48.786854" lon="-1.162912">
        <ele>215.471</ele>
        <time>2026-08-24T13:52:28.999Z</time>
      </trkpt>
      <trkpt lat="48.786860" lon="-1.162939">
        <ele>215.444</ele>
        <time>2026-08-24T13:52:29.999Z</time>
      </trkpt>
      <trkpt lat="48.786870" lon="-1.162964">
        <ele>215.351</ele>
        <time>2026-08-24T13:52:30.999Z</time>
      </trkpt>
      <trkpt lat="48.786872" lon="-1.162983">
        <ele>215.299</ele>
        <time>2026-08-24T13:52:31.999Z</time>
      </trkpt>
      <trkpt lat="48.786872" lon="-1.163001">
        <ele>215.197</ele>
        <time>2026-08-24T13:52:32.999Z</time>
      </trkpt>
      <trkpt lat="48.786878" lon="-1.163013">
        <ele>214.851</ele>
        <time>2026-08-24T13:52:33.999Z</time>
      </trkpt>
      <trkpt lat="48.786875" lon="-1.163035">
        <ele>214.348</ele>
        <time>2026-08-24T13:52:34.999Z</time>
      </trkpt>
      <trkpt lat="48.786877" lon="-1.163065">
        <ele>213.980</ele>
        <time>2026-08-24T13:52:35.999Z</time>
      </trkpt>
      <trkpt lat="48.786879" lon="-1.163087">
        <ele>213.671</ele>
        <time>2026-08-24T13:52:36.999Z</time>
      </trkpt>
      <trkpt lat="48.786884" lon="-1.163105">
        <ele>213.341</ele>
        <time>2026-08-24T13:52:37.999Z</time>
      </trkpt>
      <trkpt lat="48.786886" lon="-1.163118">
        <ele>213.315</ele>
        <time>2026-08-24T13:52:38.999Z</time>
      </trkpt>
      <trkpt lat="48.786891" lon="-1.163148">
        <ele>213.109</ele>
        <time>2026-08-24T13:52:40.999Z</time>
      </trkpt>
      <trkpt lat="48.786892" lon="-1.163168">
        <ele>213.079</ele>
        <time>2026-08-24T13:52:41.999Z</time>
      </trkpt>
      <trkpt lat="48.786900" lon="-1.163193">
        <ele>213.045</ele>
        <time>2026-08-24T13:52:42.999Z</time>
      </trkpt>
      <trkpt lat="48.786904" lon="-1.163216">
        <ele>213.038</ele>
        <time>2026-08-24T13:52:43.999Z</time>
      </trkpt>
      <trkpt lat="48.786904" lon="-1.163231">
        <ele>213.085</ele>
        <time>2026-08-24T13:52:44.999Z</time>
      </trkpt>
      <trkpt lat="48.786911" lon="-1.163241">
        <ele>212.973</ele>
        <time>2026-08-24T13:52:45.999Z</time>
      </trkpt>
      <trkpt lat="48.786919" lon="-1.163258">
        <ele>212.861</ele>
        <time>2026-08-24T13:52:46.999Z</time>
      </trkpt>
      <trkpt lat="48.786918" lon="-1.163276">
        <ele>212.715</ele>
        <time>2026-08-24T13:52:47.999Z</time>
      </trkpt>
      <trkpt lat="48.786917" lon="-1.163298">
        <ele>212.792</ele>
        <time>2026-08-24T13:52:48.999Z</time>
      </trkpt>
      <trkpt lat="48.786916" lon="-1.163322">
        <ele>212.634</ele>
        <time>2026-08-24T13:52:49.999Z</time>
      </trkpt>
      <trkpt lat="48.786920" lon="-1.163342">
        <ele>212.688</ele>
        <time>2026-08-24T13:52:50.999Z</time>
      </trkpt>
      <trkpt lat="48.786922" lon="-1.163363">
        <ele>212.624</ele>
        <time>2026-08-24T13:52:51.999Z</time>
      </trkpt>
      <trkpt lat="48.786923" lon="-1.163388">
        <ele>212.626</ele>
        <time>2026-08-24T13:52:52.999Z</time>
      </trkpt>
      <trkpt lat="48.786926" lon="-1.163407">
        <ele>212.609</ele>
        <time>2026-08-24T13:52:53.999Z</time>
      </trkpt>
      <trkpt lat="48.786929" lon="-1.163432">
        <ele>212.620</ele>
        <time>2026-08-24T13:52:54.999Z</time>
      </trkpt>
      <trkpt lat="48.786932" lon="-1.163452">
        <ele>212.646</ele>
        <time>2026-08-24T13:52:55.999Z</time>
      </trkpt>
      <trkpt lat="48.786937" lon="-1.163474">
        <ele>212.669</ele>
        <time>2026-08-24T13:52:56.999Z</time>
      </trkpt>
      <trkpt lat="48.786938" lon="-1.163491">
        <ele>212.696</ele>
        <time>2026-08-24T13:52:57.999Z</time>
      </trkpt>
      <trkpt lat="48.786939" lon="-1.163506">
        <ele>212.674</ele>
        <time>2026-08-24T13:52:58.999Z</time>
      </trkpt>
      <trkpt lat="48.786941" lon="-1.163536">
        <ele>212.682</ele>
        <time>2026-08-24T13:53:00.999Z</time>
      </trkpt>
      <trkpt lat="48.786943" lon="-1.163557">
        <ele>212.676</ele>
        <time>2026-08-24T13:53:01.999Z</time>
      </trkpt>
      <trkpt lat="48.786946" lon="-1.163574">
        <ele>212.633</ele>
        <time>2026-08-24T13:53:02.999Z</time>
      </trkpt>
      <trkpt lat="48.786947" lon="-1.163594">
        <ele>212.645</ele>
        <time>2026-08-24T13:53:03.999Z</time>
      </trkpt>
      <trkpt lat="48.786950" lon="-1.163622">
        <ele>212.647</ele>
        <time>2026-08-24T13:53:05.999Z</time>
      </trkpt>
      <trkpt lat="48.786953" lon="-1.163636">
        <ele>212.629</ele>
        <time>2026-08-24T13:53:06.999Z</time>
      </trkpt>
      <trkpt lat="48.786954" lon="-1.163653">
        <ele>212.621</ele>
        <time>2026-08-24T13:53:07.999Z</time>
      </trkpt>
      <trkpt lat="48.786957" lon="-1.163674">
        <ele>212.609</ele>
        <time>2026-08-24T13:53:08.999Z</time>
      </trkpt>
      <trkpt lat="48.786960" lon="-1.163696">
        <ele>212.616</ele>
        <time>2026-08-24T13:53:09.999Z</time>
      </trkpt>
      <trkpt lat="48.786957" lon="-1.163709">
        <ele>212.682</ele>
        <time>2026-08-24T13:53:10.999Z</time>
      </trkpt>
      <trkpt lat="48.786960" lon="-1.163733">
        <ele>212.615</ele>
        <time>2026-08-24T13:53:12.999Z</time>
      </trkpt>
      <trkpt lat="48.786963" lon="-1.163759">
        <ele>212.672</ele>
        <time>2026-08-24T13:53:14.999Z</time>
      </trkpt>
      <trkpt lat="48.786978" lon="-1.163776">
        <ele>212.670</ele>
        <time>2026-08-24T13:53:15.999Z</time>
      </trkpt>
      <trkpt lat="48.786984" lon="-1.163795">
        <ele>212.658</ele>
        <time>2026-08-24T13:53:16.999Z</time>
      </trkpt>
      <trkpt lat="48.786988" lon="-1.163807">
        <ele>212.632</ele>
        <time>2026-08-24T13:53:17.999Z</time>
      </trkpt>
      <trkpt lat="48.786991" lon="-1.163838">
        <ele>212.619</ele>
        <time>2026-08-24T13:53:19.999Z</time>
      </trkpt>
      <trkpt lat="48.786991" lon="-1.163858">
        <ele>212.631</ele>
        <time>2026-08-24T13:53:20.999Z</time>
      </trkpt>
      <trkpt lat="48.786996" lon="-1.163879">
        <ele>212.668</ele>
        <time>2026-08-24T13:53:21.999Z</time>
      </trkpt>
      <trkpt lat="48.787002" lon="-1.163902">
        <ele>212.642</ele>
        <time>2026-08-24T13:53:22.999Z</time>
      </trkpt>
      <trkpt lat="48.787003" lon="-1.163921">
        <ele>212.626</ele>
        <time>2026-08-24T13:53:23.999Z</time>
      </trkpt>
      <trkpt lat="48.787004" lon="-1.163937">
        <ele>212.609</ele>
        <time>2026-08-24T13:53:24.999Z</time>
      </trkpt>
      <trkpt lat="48.787003" lon="-1.163954">
        <ele>212.618</ele>
        <time>2026-08-24T13:53:25.999Z</time>
      </trkpt>
      <trkpt lat="48.787003" lon="-1.163985">
        <ele>212.674</ele>
        <time>2026-08-24T13:53:27.999Z</time>
      </trkpt>
      <trkpt lat="48.787004" lon="-1.164007">
        <ele>212.417</ele>
        <time>2026-08-24T13:53:28.999Z</time>
      </trkpt>
      <trkpt lat="48.787006" lon="-1.164028">
        <ele>212.214</ele>
        <time>2026-08-24T13:53:29.999Z</time>
      </trkpt>
      <trkpt lat="48.787005" lon="-1.164045">
        <ele>212.112</ele>
        <time>2026-08-24T13:53:30.999Z</time>
      </trkpt>
      <trkpt lat="48.787004" lon="-1.164068">
        <ele>212.160</ele>
        <time>2026-08-24T13:53:31.999Z</time>
      </trkpt>
      <trkpt lat="48.787005" lon="-1.164086">
        <ele>212.014</ele>
        <time>2026-08-24T13:53:32.999Z</time>
      </trkpt>
      <trkpt lat="48.787003" lon="-1.164100">
        <ele>212.021</ele>
        <time>2026-08-24T13:53:33.999Z</time>
      </trkpt>
      <trkpt lat="48.786999" lon="-1.164121">
        <ele>212.083</ele>
        <time>2026-08-24T13:53:34.999Z</time>
      </trkpt>
      <trkpt lat="48.786997" lon="-1.164145">
        <ele>212.042</ele>
        <time>2026-08-24T13:53:35.999Z</time>
      </trkpt>
      <trkpt lat="48.786995" lon="-1.164172">
        <ele>212.022</ele>
        <time>2026-08-24T13:53:36.999Z</time>
      </trkpt>
      <trkpt lat="48.786997" lon="-1.164185">
        <ele>212.014</ele>
        <time>2026-08-24T13:53:37.999Z</time>
      </trkpt>
      <trkpt lat="48.786995" lon="-1.164201">
        <ele>212.009</ele>
        <time>2026-08-24T13:53:38.999Z</time>
      </trkpt>
      <trkpt lat="48.786994" lon="-1.164220">
        <ele>211.926</ele>
        <time>2026-08-24T13:53:39.999Z</time>
      </trkpt>
      <trkpt lat="48.786995" lon="-1.164238">
        <ele>211.912</ele>
        <time>2026-08-24T13:53:40.999Z</time>
      </trkpt>
      <trkpt lat="48.786996" lon="-1.164264">
        <ele>211.885</ele>
        <time>2026-08-24T13:53:41.999Z</time>
      </trkpt>
      <trkpt lat="48.786995" lon="-1.164282">
        <ele>211.742</ele>
        <time>2026-08-24T13:53:42.999Z</time>
      </trkpt>
      <trkpt lat="48.786994" lon="-1.164300">
        <ele>211.720</ele>
        <time>2026-08-24T13:53:44.999Z</time>
      </trkpt>
      <trkpt lat="48.787000" lon="-1.164332">
        <ele>211.648</ele>
        <time>2026-08-24T13:53:46.999Z</time>
      </trkpt>
      <trkpt lat="48.787007" lon="-1.164352">
        <ele>211.632</ele>
        <time>2026-08-24T13:53:47.999Z</time>
      </trkpt>
      <trkpt lat="48.787012" lon="-1.164375">
        <ele>211.619</ele>
        <time>2026-08-24T13:53:48.999Z</time>
      </trkpt>
      <trkpt lat="48.787016" lon="-1.164391">
        <ele>211.581</ele>
        <time>2026-08-24T13:53:49.999Z</time>
      </trkpt>
      <trkpt lat="48.787024" lon="-1.164409">
        <ele>211.283</ele>
        <time>2026-08-24T13:53:51.999Z</time>
      </trkpt>
      <trkpt lat="48.787027" lon="-1.164440">
        <ele>211.025</ele>
        <time>2026-08-24T13:53:53.999Z</time>
      </trkpt>
      <trkpt lat="48.787033" lon="-1.164462">
        <ele>211.017</ele>
        <time>2026-08-24T13:53:54.999Z</time>
      </trkpt>
      <trkpt lat="48.787039" lon="-1.164479">
        <ele>210.909</ele>
        <time>2026-08-24T13:53:55.999Z</time>
      </trkpt>
      <trkpt lat="48.787043" lon="-1.164497">
        <ele>210.980</ele>
        <time>2026-08-24T13:53:56.999Z</time>
      </trkpt>
      <trkpt lat="48.787046" lon="-1.164516">
        <ele>210.726</ele>
        <time>2026-08-24T13:53:57.999Z</time>
      </trkpt>
      <trkpt lat="48.787053" lon="-1.164541">
        <ele>210.559</ele>
        <time>2026-08-24T13:53:59.999Z</time>
      </trkpt>
      <trkpt lat="48.787057" lon="-1.164558">
        <ele>210.426</ele>
        <time>2026-08-24T13:54:00.999Z</time>
      </trkpt>
      <trkpt lat="48.787065" lon="-1.164575">
        <ele>210.414</ele>
        <time>2026-08-24T13:54:01.999Z</time>
      </trkpt>
      <trkpt lat="48.787068" lon="-1.164591">
        <ele>210.492</ele>
        <time>2026-08-24T13:54:02.999Z</time>
      </trkpt>
      <trkpt lat="48.787067" lon="-1.164608">
        <ele>210.366</ele>
        <time>2026-08-24T13:54:03.999Z</time>
      </trkpt>
      <trkpt lat="48.787065" lon="-1.164640">
        <ele>210.373</ele>
        <time>2026-08-24T13:54:05.999Z</time>
      </trkpt>
      <trkpt lat="48.787067" lon="-1.164661">
        <ele>210.345</ele>
        <time>2026-08-24T13:54:06.999Z</time>
      </trkpt>
      <trkpt lat="48.787068" lon="-1.164681">
        <ele>210.316</ele>
        <time>2026-08-24T13:54:07.999Z</time>
      </trkpt>
      <trkpt lat="48.787066" lon="-1.164700">
        <ele>210.376</ele>
        <time>2026-08-24T13:54:08.999Z</time>
      </trkpt>
      <trkpt lat="48.787067" lon="-1.164717">
        <ele>210.313</ele>
        <time>2026-08-24T13:54:09.999Z</time>
      </trkpt>
      <trkpt lat="48.787073" lon="-1.164742">
        <ele>210.309</ele>
        <time>2026-08-24T13:54:11.999Z</time>
      </trkpt>
      <trkpt lat="48.787074" lon="-1.164760">
        <ele>210.293</ele>
        <time>2026-08-24T13:54:12.999Z</time>
      </trkpt>
      <trkpt lat="48.787074" lon="-1.164778">
        <ele>210.179</ele>
        <time>2026-08-24T13:54:13.999Z</time>
      </trkpt>
      <trkpt lat="48.787076" lon="-1.164793">
        <ele>210.082</ele>
        <time>2026-08-24T13:54:14.999Z</time>
      </trkpt>
      <trkpt lat="48.787076" lon="-1.164808">
        <ele>210.079</ele>
        <time>2026-08-24T13:54:15.999Z</time>
      </trkpt>
      <trkpt lat="48.787078" lon="-1.164822">
        <ele>210.087</ele>
        <time>2026-08-24T13:54:16.999Z</time>
      </trkpt>
      <trkpt lat="48.787080" lon="-1.164837">
        <ele>210.025</ele>
        <time>2026-08-24T13:54:17.999Z</time>
      </trkpt>
      <trkpt lat="48.787085" lon="-1.164853">
        <ele>210.099</ele>
        <time>2026-08-24T13:54:18.999Z</time>
      </trkpt>
      <trkpt lat="48.787089" lon="-1.164870">
        <ele>210.076</ele>
        <time>2026-08-24T13:54:19.999Z</time>
      </trkpt>
      <trkpt lat="48.787090" lon="-1.164887">
        <ele>210.068</ele>
        <time>2026-08-24T13:54:20.999Z</time>
      </trkpt>
      <trkpt lat="48.787087" lon="-1.164902">
        <ele>210.119</ele>
        <time>2026-08-24T13:54:21.999Z</time>
      </trkpt>
      <trkpt lat="48.787085" lon="-1.164918">
        <ele>210.109</ele>
        <time>2026-08-24T13:54:22.999Z</time>
      </trkpt>
      <trkpt lat="48.787085" lon="-1.164935">
        <ele>210.119</ele>
        <time>2026-08-24T13:54:23.999Z</time>
      </trkpt>
      <trkpt lat="48.787088" lon="-1.164953">
        <ele>210.009</ele>
        <time>2026-08-24T13:54:24.999Z</time>
      </trkpt>
      <trkpt lat="48.787090" lon="-1.164974">
        <ele>209.943</ele>
        <time>2026-08-24T13:54:25.999Z</time>
      </trkpt>
      <trkpt lat="48.787090" lon="-1.164989">
        <ele>209.959</ele>
        <time>2026-08-24T13:54:26.999Z</time>
      </trkpt>
      <trkpt lat="48.787092" lon="-1.165015">
        <ele>209.942</ele>
        <time>2026-08-24T13:54:28.999Z</time>
      </trkpt>
      <trkpt lat="48.787092" lon="-1.165030">
        <ele>209.949</ele>
        <time>2026-08-24T13:54:29.999Z</time>
      </trkpt>
      <trkpt lat="48.787098" lon="-1.165049">
        <ele>209.977</ele>
        <time>2026-08-24T13:54:30.999Z</time>
      </trkpt>
      <trkpt lat="48.787100" lon="-1.165069">
        <ele>209.935</ele>
        <time>2026-08-24T13:54:31.999Z</time>
      </trkpt>
      <trkpt lat="48.787102" lon="-1.165091">
        <ele>209.939</ele>
        <time>2026-08-24T13:54:32.999Z</time>
      </trkpt>
      <trkpt lat="48.787101" lon="-1.165110">
        <ele>209.976</ele>
        <time>2026-08-24T13:54:33.999Z</time>
      </trkpt>
      <trkpt lat="48.787097" lon="-1.165125">
        <ele>209.918</ele>
        <time>2026-08-24T13:54:34.999Z</time>
      </trkpt>
      <trkpt lat="48.787096" lon="-1.165143">
        <ele>209.939</ele>
        <time>2026-08-24T13:54:35.999Z</time>
      </trkpt>
      <trkpt lat="48.787097" lon="-1.165164">
        <ele>209.901</ele>
        <time>2026-08-24T13:54:36.999Z</time>
      </trkpt>
      <trkpt lat="48.787099" lon="-1.165185">
        <ele>209.921</ele>
        <time>2026-08-24T13:54:37.999Z</time>
      </trkpt>
      <trkpt lat="48.787097" lon="-1.165204">
        <ele>209.909</ele>
        <time>2026-08-24T13:54:38.999Z</time>
      </trkpt>
      <trkpt lat="48.787093" lon="-1.165227">
        <ele>209.845</ele>
        <time>2026-08-24T13:54:39.999Z</time>
      </trkpt>
      <trkpt lat="48.787093" lon="-1.165252">
        <ele>209.811</ele>
        <time>2026-08-24T13:54:41.999Z</time>
      </trkpt>
      <trkpt lat="48.787096" lon="-1.165269">
        <ele>209.844</ele>
        <time>2026-08-24T13:54:42.999Z</time>
      </trkpt>
      <trkpt lat="48.787096" lon="-1.165285">
        <ele>209.641</ele>
        <time>2026-08-24T13:54:43.999Z</time>
      </trkpt>
      <trkpt lat="48.787095" lon="-1.165302">
        <ele>209.479</ele>
        <time>2026-08-24T13:54:44.999Z</time>
      </trkpt>
      <trkpt lat="48.787091" lon="-1.165316">
        <ele>209.417</ele>
        <time>2026-08-24T13:54:45.999Z</time>
      </trkpt>
      <trkpt lat="48.787094" lon="-1.165342">
        <ele>209.441</ele>
        <time>2026-08-24T13:54:47.999Z</time>
      </trkpt>
      <trkpt lat="48.787093" lon="-1.165361">
        <ele>209.448</ele>
        <time>2026-08-24T13:54:48.999Z</time>
      </trkpt>
      <trkpt lat="48.787097" lon="-1.165382">
        <ele>209.330</ele>
        <time>2026-08-24T13:54:49.999Z</time>
      </trkpt>
      <trkpt lat="48.787099" lon="-1.165404">
        <ele>209.362</ele>
        <time>2026-08-24T13:54:50.999Z</time>
      </trkpt>
      <trkpt lat="48.787101" lon="-1.165417">
        <ele>209.283</ele>
        <time>2026-08-24T13:54:51.999Z</time>
      </trkpt>
      <trkpt lat="48.787104" lon="-1.165447">
        <ele>209.011</ele>
        <time>2026-08-24T13:54:53.999Z</time>
      </trkpt>
      <trkpt lat="48.787106" lon="-1.165464">
        <ele>208.909</ele>
        <time>2026-08-24T13:54:54.999Z</time>
      </trkpt>
      <trkpt lat="48.787109" lon="-1.165488">
        <ele>208.818</ele>
        <time>2026-08-24T13:54:55.999Z</time>
      </trkpt>
      <trkpt lat="48.787110" lon="-1.165506">
        <ele>208.654</ele>
        <time>2026-08-24T13:54:56.999Z</time>
      </trkpt>
      <trkpt lat="48.787111" lon="-1.165528">
        <ele>208.487</ele>
        <time>2026-08-24T13:54:58.999Z</time>
      </trkpt>
      <trkpt lat="48.787110" lon="-1.165543">
        <ele>208.284</ele>
        <time>2026-08-24T13:54:59.999Z</time>
      </trkpt>
      <trkpt lat="48.787109" lon="-1.165557">
        <ele>208.272</ele>
        <time>2026-08-24T13:55:00.999Z</time>
      </trkpt>
      <trkpt lat="48.787109" lon="-1.165575">
        <ele>208.220</ele>
        <time>2026-08-24T13:55:01.999Z</time>
      </trkpt>
      <trkpt lat="48.787107" lon="-1.165593">
        <ele>208.144</ele>
        <time>2026-08-24T13:55:02.999Z</time>
      </trkpt>
      <trkpt lat="48.787105" lon="-1.165616">
        <ele>208.091</ele>
        <time>2026-08-24T13:55:03.999Z</time>
      </trkpt>
      <trkpt lat="48.787106" lon="-1.165636">
        <ele>207.813</ele>
        <time>2026-08-24T13:55:04.999Z</time>
      </trkpt>
      <trkpt lat="48.787107" lon="-1.165661">
        <ele>207.751</ele>
        <time>2026-08-24T13:55:06.999Z</time>
      </trkpt>
      <trkpt lat="48.787105" lon="-1.165676">
        <ele>207.701</ele>
        <time>2026-08-24T13:55:07.999Z</time>
      </trkpt>
      <trkpt lat="48.787106" lon="-1.165696">
        <ele>207.711</ele>
        <time>2026-08-24T13:55:08.999Z</time>
      </trkpt>
      <trkpt lat="48.787107" lon="-1.165716">
        <ele>207.409</ele>
        <time>2026-08-24T13:55:09.999Z</time>
      </trkpt>
      <trkpt lat="48.787110" lon="-1.165731">
        <ele>207.247</ele>
        <time>2026-08-24T13:55:10.999Z</time>
      </trkpt>
      <trkpt lat="48.787114" lon="-1.165748">
        <ele>207.113</ele>
        <time>2026-08-24T13:55:11.999Z</time>
      </trkpt>
      <trkpt lat="48.787117" lon="-1.165775">
        <ele>207.196</ele>
        <time>2026-08-24T13:55:13.999Z</time>
      </trkpt>
      <trkpt lat="48.787123" lon="-1.165796">
        <ele>207.093</ele>
        <time>2026-08-24T13:55:14.999Z</time>
      </trkpt>
      <trkpt lat="48.787127" lon="-1.165810">
        <ele>206.941</ele>
        <time>2026-08-24T13:55:15.999Z</time>
      </trkpt>
      <trkpt lat="48.787133" lon="-1.165824">
        <ele>206.859</ele>
        <time>2026-08-24T13:55:16.999Z</time>
      </trkpt>
      <trkpt lat="48.787142" lon="-1.165830">
        <ele>206.783</ele>
        <time>2026-08-24T13:55:17.999Z</time>
      </trkpt>
      <trkpt lat="48.787147" lon="-1.165845">
        <ele>206.630</ele>
        <time>2026-08-24T13:55:19.999Z</time>
      </trkpt>
      <trkpt lat="48.787137" lon="-1.165868">
        <ele>206.452</ele>
        <time>2026-08-24T13:55:33.999Z</time>
      </trkpt>
      <trkpt lat="48.787122" lon="-1.165888">
        <ele>206.417</ele>
        <time>2026-08-24T13:55:35.999Z</time>
      </trkpt>
      <trkpt lat="48.787124" lon="-1.165910">
        <ele>206.287</ele>
        <time>2026-08-24T13:55:36.999Z</time>
      </trkpt>
      <trkpt lat="48.787123" lon="-1.165927">
        <ele>205.915</ele>
        <time>2026-08-24T13:55:37.999Z</time>
      </trkpt>
      <trkpt lat="48.787124" lon="-1.165949">
        <ele>205.709</ele>
        <time>2026-08-24T13:55:38.999Z</time>
      </trkpt>
      <trkpt lat="48.787127" lon="-1.165967">
        <ele>205.653</ele>
        <time>2026-08-24T13:55:39.999Z</time>
      </trkpt>
      <trkpt lat="48.787126" lon="-1.165985">
        <ele>205.569</ele>
        <time>2026-08-24T13:55:40.999Z</time>
      </trkpt>
      <trkpt lat="48.787121" lon="-1.166008">
        <ele>205.412</ele>
        <time>2026-08-24T13:55:41.999Z</time>
      </trkpt>
      <trkpt lat="48.787121" lon="-1.166030">
        <ele>205.339</ele>
        <time>2026-08-24T13:55:42.999Z</time>
      </trkpt>
      <trkpt lat="48.787121" lon="-1.166049">
        <ele>205.387</ele>
        <time>2026-08-24T13:55:43.999Z</time>
      </trkpt>
      <trkpt lat="48.787119" lon="-1.166067">
        <ele>205.225</ele>
        <time>2026-08-24T13:55:44.999Z</time>
      </trkpt>
      <trkpt lat="48.787118" lon="-1.166094">
        <ele>205.159</ele>
        <time>2026-08-24T13:55:46.999Z</time>
      </trkpt>
      <trkpt lat="48.787117" lon="-1.166109">
        <ele>205.096</ele>
        <time>2026-08-24T13:55:47.999Z</time>
      </trkpt>
      <trkpt lat="48.787118" lon="-1.166127">
        <ele>205.018</ele>
        <time>2026-08-24T13:55:48.999Z</time>
      </trkpt>
      <trkpt lat="48.787123" lon="-1.166150">
        <ele>204.725</ele>
        <time>2026-08-24T13:55:49.999Z</time>
      </trkpt>
      <trkpt lat="48.787126" lon="-1.166167">
        <ele>204.526</ele>
        <time>2026-08-24T13:55:50.999Z</time>
      </trkpt>
      <trkpt lat="48.787129" lon="-1.166185">
        <ele>204.408</ele>
        <time>2026-08-24T13:55:51.999Z</time>
      </trkpt>
      <trkpt lat="48.787125" lon="-1.166202">
        <ele>204.309</ele>
        <time>2026-08-24T13:55:52.999Z</time>
      </trkpt>
      <trkpt lat="48.787123" lon="-1.166221">
        <ele>204.224</ele>
        <time>2026-08-24T13:55:53.999Z</time>
      </trkpt>
      <trkpt lat="48.787127" lon="-1.166246">
        <ele>204.230</ele>
        <time>2026-08-24T13:55:55.999Z</time>
      </trkpt>
      <trkpt lat="48.787122" lon="-1.166271">
        <ele>204.183</ele>
        <time>2026-08-24T13:55:57.999Z</time>
      </trkpt>
      <trkpt lat="48.787120" lon="-1.166285">
        <ele>204.120</ele>
        <time>2026-08-24T13:55:58.999Z</time>
      </trkpt>
      <trkpt lat="48.787122" lon="-1.166302">
        <ele>204.138</ele>
        <time>2026-08-24T13:55:59.999Z</time>
      </trkpt>
      <trkpt lat="48.787120" lon="-1.166322">
        <ele>203.986</ele>
        <time>2026-08-24T13:56:00.999Z</time>
      </trkpt>
      <trkpt lat="48.787119" lon="-1.166337">
        <ele>203.470</ele>
        <time>2026-08-24T13:56:01.999Z</time>
      </trkpt>
      <trkpt lat="48.787120" lon="-1.166361">
        <ele>202.417</ele>
        <time>2026-08-24T13:56:03.999Z</time>
      </trkpt>
      <trkpt lat="48.787119" lon="-1.166381">
        <ele>201.529</ele>
        <time>2026-08-24T13:56:04.999Z</time>
      </trkpt>
      <trkpt lat="48.787117" lon="-1.166401">
        <ele>201.363</ele>
        <time>2026-08-24T13:56:05.999Z</time>
      </trkpt>
      <trkpt lat="48.787116" lon="-1.166420">
        <ele>201.344</ele>
        <time>2026-08-24T13:56:06.999Z</time>
      </trkpt>
      <trkpt lat="48.787118" lon="-1.166439">
        <ele>201.218</ele>
        <time>2026-08-24T13:56:07.999Z</time>
      </trkpt>
      <trkpt lat="48.787117" lon="-1.166460">
        <ele>201.209</ele>
        <time>2026-08-24T13:56:08.999Z</time>
      </trkpt>
      <trkpt lat="48.787116" lon="-1.166483">
        <ele>201.268</ele>
        <time>2026-08-24T13:56:09.999Z</time>
      </trkpt>
      <trkpt lat="48.787111" lon="-1.166499">
        <ele>201.224</ele>
        <time>2026-08-24T13:56:10.999Z</time>
      </trkpt>
      <trkpt lat="48.787114" lon="-1.166529">
        <ele>201.137</ele>
        <time>2026-08-24T13:56:12.999Z</time>
      </trkpt>
      <trkpt lat="48.787122" lon="-1.166551">
        <ele>201.184</ele>
        <time>2026-08-24T13:56:14.999Z</time>
      </trkpt>
      <trkpt lat="48.787123" lon="-1.166567">
        <ele>200.912</ele>
        <time>2026-08-24T13:56:15.999Z</time>
      </trkpt>
      <trkpt lat="48.787124" lon="-1.166584">
        <ele>200.850</ele>
        <time>2026-08-24T13:56:16.999Z</time>
      </trkpt>
      <trkpt lat="48.787125" lon="-1.166600">
        <ele>200.884</ele>
        <time>2026-08-24T13:56:17.999Z</time>
      </trkpt>
      <trkpt lat="48.787126" lon="-1.166621">
        <ele>200.861</ele>
        <time>2026-08-24T13:56:18.999Z</time>
      </trkpt>
      <trkpt lat="48.787124" lon="-1.166641">
        <ele>200.853</ele>
        <time>2026-08-24T13:56:19.999Z</time>
      </trkpt>
      <trkpt lat="48.787121" lon="-1.166661">
        <ele>200.846</ele>
        <time>2026-08-24T13:56:20.999Z</time>
      </trkpt>
      <trkpt lat="48.787119" lon="-1.166679">
        <ele>200.888</ele>
        <time>2026-08-24T13:56:21.999Z</time>
      </trkpt>
      <trkpt lat="48.787118" lon="-1.166697">
        <ele>200.816</ele>
        <time>2026-08-24T13:56:22.999Z</time>
      </trkpt>
      <trkpt lat="48.787116" lon="-1.166716">
        <ele>200.809</ele>
        <time>2026-08-24T13:56:23.999Z</time>
      </trkpt>
      <trkpt lat="48.787115" lon="-1.166739">
        <ele>201.086</ele>
        <time>2026-08-24T13:56:24.999Z</time>
      </trkpt>
      <trkpt lat="48.787115" lon="-1.166756">
        <ele>201.082</ele>
        <time>2026-08-24T13:56:25.999Z</time>
      </trkpt>
      <trkpt lat="48.787109" lon="-1.166781">
        <ele>201.075</ele>
        <time>2026-08-24T13:56:27.999Z</time>
      </trkpt>
      <trkpt lat="48.787104" lon="-1.166800">
        <ele>201.092</ele>
        <time>2026-08-24T13:56:28.999Z</time>
      </trkpt>
      <trkpt lat="48.787104" lon="-1.166818">
        <ele>201.020</ele>
        <time>2026-08-24T13:56:29.999Z</time>
      </trkpt>
      <trkpt lat="48.787103" lon="-1.166834">
        <ele>201.058</ele>
        <time>2026-08-24T13:56:30.999Z</time>
      </trkpt>
      <trkpt lat="48.787102" lon="-1.166850">
        <ele>201.012</ele>
        <time>2026-08-24T13:56:31.999Z</time>
      </trkpt>
      <trkpt lat="48.787100" lon="-1.166870">
        <ele>201.099</ele>
        <time>2026-08-24T13:56:32.999Z</time>
      </trkpt>
      <trkpt lat="48.787098" lon="-1.166887">
        <ele>201.021</ele>
        <time>2026-08-24T13:56:33.999Z</time>
      </trkpt>
      <trkpt lat="48.787100" lon="-1.166909">
        <ele>201.025</ele>
        <time>2026-08-24T13:56:35.999Z</time>
      </trkpt>
      <trkpt lat="48.787102" lon="-1.166925">
        <ele>201.026</ele>
        <time>2026-08-24T13:56:36.999Z</time>
      </trkpt>
      <trkpt lat="48.787106" lon="-1.166941">
        <ele>201.008</ele>
        <time>2026-08-24T13:56:37.999Z</time>
      </trkpt>
      <trkpt lat="48.787107" lon="-1.166960">
        <ele>200.909</ele>
        <time>2026-08-24T13:56:38.999Z</time>
      </trkpt>
      <trkpt lat="48.787106" lon="-1.166980">
        <ele>200.814</ele>
        <time>2026-08-24T13:56:39.999Z</time>
      </trkpt>
      <trkpt lat="48.787104" lon="-1.167000">
        <ele>200.810</ele>
        <time>2026-08-24T13:56:40.999Z</time>
      </trkpt>
      <trkpt lat="48.787104" lon="-1.167018">
        <ele>200.883</ele>
        <time>2026-08-24T13:56:41.999Z</time>
      </trkpt>
      <trkpt lat="48.787104" lon="-1.167034">
        <ele>200.780</ele>
        <time>2026-08-24T13:56:42.999Z</time>
      </trkpt>
      <trkpt lat="48.787104" lon="-1.167059">
        <ele>200.748</ele>
        <time>2026-08-24T13:56:45.999Z</time>
      </trkpt>
      <trkpt lat="48.787105" lon="-1.167076">
        <ele>200.786</ele>
        <time>2026-08-24T13:56:46.999Z</time>
      </trkpt>
      <trkpt lat="48.787105" lon="-1.167094">
        <ele>200.640</ele>
        <time>2026-08-24T13:56:47.999Z</time>
      </trkpt>
      <trkpt lat="48.787105" lon="-1.167112">
        <ele>200.697</ele>
        <time>2026-08-24T13:56:48.999Z</time>
      </trkpt>
      <trkpt lat="48.787104" lon="-1.167140">
        <ele>200.529</ele>
        <time>2026-08-24T13:56:49.999Z</time>
      </trkpt>
      <trkpt lat="48.787098" lon="-1.167155">
        <ele>200.536</ele>
        <time>2026-08-24T13:56:51.999Z</time>
      </trkpt>
      <trkpt lat="48.787103" lon="-1.167170">
        <ele>200.517</ele>
        <time>2026-08-24T13:56:52.999Z</time>
      </trkpt>
      <trkpt lat="48.787107" lon="-1.167190">
        <ele>200.418</ele>
        <time>2026-08-24T13:56:53.999Z</time>
      </trkpt>
      <trkpt lat="48.787109" lon="-1.167206">
        <ele>200.409</ele>
        <time>2026-08-24T13:56:54.999Z</time>
      </trkpt>
      <trkpt lat="48.787105" lon="-1.167226">
        <ele>200.315</ele>
        <time>2026-08-24T13:56:55.999Z</time>
      </trkpt>
      <trkpt lat="48.787108" lon="-1.167253">
        <ele>200.111</ele>
        <time>2026-08-24T13:56:57.999Z</time>
      </trkpt>
      <trkpt lat="48.787109" lon="-1.167269">
        <ele>199.914</ele>
        <time>2026-08-24T13:56:58.999Z</time>
      </trkpt>
      <trkpt lat="48.787107" lon="-1.167301">
        <ele>199.721</ele>
        <time>2026-08-24T13:57:00.999Z</time>
      </trkpt>
      <trkpt lat="48.787113" lon="-1.167320">
        <ele>199.619</ele>
        <time>2026-08-24T13:57:01.999Z</time>
      </trkpt>
      <trkpt lat="48.787113" lon="-1.167334">
        <ele>199.527</ele>
        <time>2026-08-24T13:57:02.999Z</time>
      </trkpt>
      <trkpt lat="48.787111" lon="-1.167361">
        <ele>199.591</ele>
        <time>2026-08-24T13:57:04.999Z</time>
      </trkpt>
      <trkpt lat="48.787110" lon="-1.167377">
        <ele>199.578</ele>
        <time>2026-08-24T13:57:05.999Z</time>
      </trkpt>
      <trkpt lat="48.787112" lon="-1.167395">
        <ele>199.470</ele>
        <time>2026-08-24T13:57:06.999Z</time>
      </trkpt>
      <trkpt lat="48.787108" lon="-1.167426">
        <ele>199.489</ele>
        <time>2026-08-24T13:57:07.999Z</time>
      </trkpt>
      <trkpt lat="48.787101" lon="-1.167443">
        <ele>199.106</ele>
        <time>2026-08-24T13:57:08.999Z</time>
      </trkpt>
      <trkpt lat="48.787098" lon="-1.167462">
        <ele>198.926</ele>
        <time>2026-08-24T13:57:09.999Z</time>
      </trkpt>
      <trkpt lat="48.787093" lon="-1.167479">
        <ele>198.809</ele>
        <time>2026-08-24T13:57:10.999Z</time>
      </trkpt>
      <trkpt lat="48.787091" lon="-1.167495">
        <ele>198.530</ele>
        <time>2026-08-24T13:57:11.999Z</time>
      </trkpt>
      <trkpt lat="48.787083" lon="-1.167517">
        <ele>198.246</ele>
        <time>2026-08-24T13:57:12.999Z</time>
      </trkpt>
      <trkpt lat="48.787080" lon="-1.167535">
        <ele>198.129</ele>
        <time>2026-08-24T13:57:13.999Z</time>
      </trkpt>
      <trkpt lat="48.787078" lon="-1.167549">
        <ele>198.076</ele>
        <time>2026-08-24T13:57:14.999Z</time>
      </trkpt>
      <trkpt lat="48.787074" lon="-1.167569">
        <ele>198.074</ele>
        <time>2026-08-24T13:57:15.999Z</time>
      </trkpt>
      <trkpt lat="48.787072" lon="-1.167592">
        <ele>197.952</ele>
        <time>2026-08-24T13:57:17.999Z</time>
      </trkpt>
      <trkpt lat="48.787068" lon="-1.167618">
        <ele>197.996</ele>
        <time>2026-08-24T13:57:18.999Z</time>
      </trkpt>
      <trkpt lat="48.787061" lon="-1.167635">
        <ele>197.873</ele>
        <time>2026-08-24T13:57:19.999Z</time>
      </trkpt>
      <trkpt lat="48.787059" lon="-1.167651">
        <ele>197.615</ele>
        <time>2026-08-24T13:57:20.999Z</time>
      </trkpt>
      <trkpt lat="48.787056" lon="-1.167667">
        <ele>197.558</ele>
        <time>2026-08-24T13:57:21.999Z</time>
      </trkpt>
      <trkpt lat="48.787057" lon="-1.167685">
        <ele>197.352</ele>
        <time>2026-08-24T13:57:22.999Z</time>
      </trkpt>
      <trkpt lat="48.787058" lon="-1.167700">
        <ele>197.017</ele>
        <time>2026-08-24T13:57:23.999Z</time>
      </trkpt>
      <trkpt lat="48.787054" lon="-1.167724">
        <ele>196.809</ele>
        <time>2026-08-24T13:57:25.999Z</time>
      </trkpt>
      <trkpt lat="48.787046" lon="-1.167741">
        <ele>196.637</ele>
        <time>2026-08-24T13:57:26.999Z</time>
      </trkpt>
      <trkpt lat="48.787038" lon="-1.167759">
        <ele>196.423</ele>
        <time>2026-08-24T13:57:27.999Z</time>
      </trkpt>
      <trkpt lat="48.787038" lon="-1.167773">
        <ele>196.386</ele>
        <time>2026-08-24T13:57:28.999Z</time>
      </trkpt>
      <trkpt lat="48.787035" lon="-1.167801">
        <ele>196.353</ele>
        <time>2026-08-24T13:57:29.999Z</time>
      </trkpt>
      <trkpt lat="48.787033" lon="-1.167831">
        <ele>196.351</ele>
        <time>2026-08-24T13:57:30.999Z</time>
      </trkpt>
      <trkpt lat="48.787031" lon="-1.167854">
        <ele>196.239</ele>
        <time>2026-08-24T13:57:31.999Z</time>
      </trkpt>
      <trkpt lat="48.787032" lon="-1.167873">
        <ele>196.153</ele>
        <time>2026-08-24T13:57:32.999Z</time>
      </trkpt>
      <trkpt lat="48.787033" lon="-1.167891">
        <ele>196.070</ele>
        <time>2026-08-24T13:57:33.999Z</time>
      </trkpt>
      <trkpt lat="48.787032" lon="-1.167905">
        <ele>196.032</ele>
        <time>2026-08-24T13:57:35.999Z</time>
      </trkpt>
      <trkpt lat="48.787030" lon="-1.167920">
        <ele>195.996</ele>
        <time>2026-08-24T13:57:36.999Z</time>
      </trkpt>
      <trkpt lat="48.787027" lon="-1.167936">
        <ele>195.631</ele>
        <time>2026-08-24T13:57:37.999Z</time>
      </trkpt>
      <trkpt lat="48.787031" lon="-1.167960">
        <ele>195.324</ele>
        <time>2026-08-24T13:57:39.999Z</time>
      </trkpt>
      <trkpt lat="48.787024" lon="-1.167983">
        <ele>195.009</ele>
        <time>2026-08-24T13:57:41.999Z</time>
      </trkpt>
      <trkpt lat="48.787019" lon="-1.168007">
        <ele>194.851</ele>
        <time>2026-08-24T13:57:42.999Z</time>
      </trkpt>
      <trkpt lat="48.787014" lon="-1.168026">
        <ele>194.747</ele>
        <time>2026-08-24T13:57:43.999Z</time>
      </trkpt>
      <trkpt lat="48.787007" lon="-1.168049">
        <ele>194.750</ele>
        <time>2026-08-24T13:57:44.999Z</time>
      </trkpt>
      <trkpt lat="48.787006" lon="-1.168066">
        <ele>194.687</ele>
        <time>2026-08-24T13:57:45.999Z</time>
      </trkpt>
      <trkpt lat="48.787003" lon="-1.168080">
        <ele>194.495</ele>
        <time>2026-08-24T13:57:46.999Z</time>
      </trkpt>
      <trkpt lat="48.786998" lon="-1.168091">
        <ele>194.223</ele>
        <time>2026-08-24T13:57:47.999Z</time>
      </trkpt>
      <trkpt lat="48.786994" lon="-1.168111">
        <ele>194.137</ele>
        <time>2026-08-24T13:57:48.999Z</time>
      </trkpt>
      <trkpt lat="48.786990" lon="-1.168131">
        <ele>194.134</ele>
        <time>2026-08-24T13:57:49.999Z</time>
      </trkpt>
      <trkpt lat="48.786985" lon="-1.168146">
        <ele>194.156</ele>
        <time>2026-08-24T13:57:50.999Z</time>
      </trkpt>
      <trkpt lat="48.786979" lon="-1.168164">
        <ele>194.013</ele>
        <time>2026-08-24T13:57:51.999Z</time>
      </trkpt>
      <trkpt lat="48.786973" lon="-1.168184">
        <ele>194.043</ele>
        <time>2026-08-24T13:57:53.999Z</time>
      </trkpt>
      <trkpt lat="48.786969" lon="-1.168215">
        <ele>194.007</ele>
        <time>2026-08-24T13:57:55.999Z</time>
      </trkpt>
      <trkpt lat="48.786966" lon="-1.168233">
        <ele>194.009</ele>
        <time>2026-08-24T13:57:56.999Z</time>
      </trkpt>
      <trkpt lat="48.786966" lon="-1.168257">
        <ele>193.913</ele>
        <time>2026-08-24T13:57:58.999Z</time>
      </trkpt>
      <trkpt lat="48.786963" lon="-1.168274">
        <ele>193.929</ele>
        <time>2026-08-24T13:57:59.999Z</time>
      </trkpt>
      <trkpt lat="48.786963" lon="-1.168294">
        <ele>193.912</ele>
        <time>2026-08-24T13:58:00.999Z</time>
      </trkpt>
      <trkpt lat="48.786966" lon="-1.168315">
        <ele>193.989</ele>
        <time>2026-08-24T13:58:01.999Z</time>
      </trkpt>
      <trkpt lat="48.786967" lon="-1.168330">
        <ele>193.957</ele>
        <time>2026-08-24T13:58:02.999Z</time>
      </trkpt>
      <trkpt lat="48.786968" lon="-1.168350">
        <ele>193.985</ele>
        <time>2026-08-24T13:58:03.999Z</time>
      </trkpt>
      <trkpt lat="48.786966" lon="-1.168371">
        <ele>193.999</ele>
        <time>2026-08-24T13:58:04.999Z</time>
      </trkpt>
      <trkpt lat="48.786962" lon="-1.168388">
        <ele>193.916</ele>
        <time>2026-08-24T13:58:05.999Z</time>
      </trkpt>
      <trkpt lat="48.786961" lon="-1.168412">
        <ele>193.938</ele>
        <time>2026-08-24T13:58:06.999Z</time>
      </trkpt>
      <trkpt lat="48.786957" lon="-1.168430">
        <ele>193.974</ele>
        <time>2026-08-24T13:58:07.999Z</time>
      </trkpt>
      <trkpt lat="48.786949" lon="-1.168456">
        <ele>193.856</ele>
        <time>2026-08-24T13:58:08.999Z</time>
      </trkpt>
      <trkpt lat="48.786946" lon="-1.168472">
        <ele>193.821</ele>
        <time>2026-08-24T13:58:09.999Z</time>
      </trkpt>
      <trkpt lat="48.786943" lon="-1.168489">
        <ele>193.809</ele>
        <time>2026-08-24T13:58:11.999Z</time>
      </trkpt>
      <trkpt lat="48.786943" lon="-1.168507">
        <ele>193.869</ele>
        <time>2026-08-24T13:58:12.999Z</time>
      </trkpt>
      <trkpt lat="48.786941" lon="-1.168525">
        <ele>193.845</ele>
        <time>2026-08-24T13:58:13.999Z</time>
      </trkpt>
      <trkpt lat="48.786938" lon="-1.168545">
        <ele>193.838</ele>
        <time>2026-08-24T13:58:14.999Z</time>
      </trkpt>
      <trkpt lat="48.786936" lon="-1.168562">
        <ele>193.815</ele>
        <time>2026-08-24T13:58:15.999Z</time>
      </trkpt>
      <trkpt lat="48.786940" lon="-1.168575">
        <ele>193.863</ele>
        <time>2026-08-24T13:58:16.999Z</time>
      </trkpt>
      <trkpt lat="48.786939" lon="-1.168601">
        <ele>193.811</ele>
        <time>2026-08-24T13:58:18.999Z</time>
      </trkpt>
      <trkpt lat="48.786935" lon="-1.168616">
        <ele>193.745</ele>
        <time>2026-08-24T13:58:19.999Z</time>
      </trkpt>
      <trkpt lat="48.786930" lon="-1.168649">
        <ele>193.752</ele>
        <time>2026-08-24T13:58:21.999Z</time>
      </trkpt>
      <trkpt lat="48.786927" lon="-1.168663">
        <ele>193.684</ele>
        <time>2026-08-24T13:58:22.999Z</time>
      </trkpt>
      <trkpt lat="48.786924" lon="-1.168679">
        <ele>193.557</ele>
        <time>2026-08-24T13:58:23.999Z</time>
      </trkpt>
      <trkpt lat="48.786923" lon="-1.168709">
        <ele>193.500</ele>
        <time>2026-08-24T13:58:25.999Z</time>
      </trkpt>
      <trkpt lat="48.786922" lon="-1.168728">
        <ele>193.420</ele>
        <time>2026-08-24T13:58:26.999Z</time>
      </trkpt>
      <trkpt lat="48.786923" lon="-1.168745">
        <ele>193.409</ele>
        <time>2026-08-24T13:58:27.999Z</time>
      </trkpt>
      <trkpt lat="48.786922" lon="-1.168759">
        <ele>193.037</ele>
        <time>2026-08-24T13:58:28.999Z</time>
      </trkpt>
      <trkpt lat="48.786928" lon="-1.168787">
        <ele>192.743</ele>
        <time>2026-08-24T13:58:30.999Z</time>
      </trkpt>
      <trkpt lat="48.786938" lon="-1.168795">
        <ele>192.416</ele>
        <time>2026-08-24T13:58:31.999Z</time>
      </trkpt>
      <trkpt lat="48.786947" lon="-1.168804">
        <ele>192.323</ele>
        <time>2026-08-24T13:58:32.999Z</time>
      </trkpt>
      <trkpt lat="48.786961" lon="-1.168808">
        <ele>192.371</ele>
        <time>2026-08-24T13:58:33.999Z</time>
      </trkpt>
      <trkpt lat="48.786973" lon="-1.168822">
        <ele>192.329</ele>
        <time>2026-08-24T13:58:34.999Z</time>
      </trkpt>
      <trkpt lat="48.786987" lon="-1.168825">
        <ele>192.373</ele>
        <time>2026-08-24T13:58:36.999Z</time>
      </trkpt>
      <trkpt lat="48.787011" lon="-1.168820">
        <ele>192.280</ele>
        <time>2026-08-24T13:58:38.999Z</time>
      </trkpt>
      <trkpt lat="48.787022" lon="-1.168809">
        <ele>192.132</ele>
        <time>2026-08-24T13:58:39.999Z</time>
      </trkpt>
      <trkpt lat="48.787034" lon="-1.168811">
        <ele>192.096</ele>
        <time>2026-08-24T13:58:41.999Z</time>
      </trkpt>
      <trkpt lat="48.787041" lon="-1.168823">
        <ele>192.031</ele>
        <time>2026-08-24T13:58:42.999Z</time>
      </trkpt>
      <trkpt lat="48.787053" lon="-1.168826">
        <ele>192.024</ele>
        <time>2026-08-24T13:58:44.999Z</time>
      </trkpt>
      <trkpt lat="48.787065" lon="-1.168819">
        <ele>192.009</ele>
        <time>2026-08-24T13:58:46.999Z</time>
      </trkpt>
      <trkpt lat="48.787081" lon="-1.168809">
        <ele>192.071</ele>
        <time>2026-08-24T13:58:48.999Z</time>
      </trkpt>
      <trkpt lat="48.787100" lon="-1.168803">
        <ele>192.087</ele>
        <time>2026-08-24T13:58:50.999Z</time>
      </trkpt>
      <trkpt lat="48.787115" lon="-1.168801">
        <ele>192.030</ele>
        <time>2026-08-24T13:58:52.999Z</time>
      </trkpt>
      <trkpt lat="48.787126" lon="-1.168803">
        <ele>192.017</ele>
        <time>2026-08-24T13:58:55.999Z</time>
      </trkpt>
      <trkpt lat="48.787137" lon="-1.168798">
        <ele>191.945</ele>
        <time>2026-08-24T13:58:57.999Z</time>
      </trkpt>
      <trkpt lat="48.787152" lon="-1.168790">
        <ele>191.973</ele>
        <time>2026-08-24T13:59:00.999Z</time>
      </trkpt>
      <trkpt lat="48.787159" lon="-1.168781">
        <ele>191.737</ele>
        <time>2026-08-24T13:59:01.999Z</time>
      </trkpt>
      <trkpt lat="48.787151" lon="-1.168766">
        <ele>191.784</ele>
        <time>2026-08-24T13:59:03.999Z</time>
      </trkpt>
      <trkpt lat="48.787153" lon="-1.168751">
        <ele>191.746</ele>
        <time>2026-08-24T13:59:05.999Z</time>
      </trkpt>
      <trkpt lat="48.787160" lon="-1.168742">
        <ele>191.665</ele>
        <time>2026-08-24T13:59:06.999Z</time>
      </trkpt>
      <trkpt lat="48.787177" lon="-1.168732">
        <ele>191.668</ele>
        <time>2026-08-24T13:59:07.999Z</time>
      </trkpt>
      <trkpt lat="48.787175" lon="-1.168717">
        <ele>191.514</ele>
        <time>2026-08-24T13:59:09.999Z</time>
      </trkpt>
      <trkpt lat="48.787180" lon="-1.168694">
        <ele>191.509</ele>
        <time>2026-08-24T13:59:11.999Z</time>
      </trkpt>
      <trkpt lat="48.787180" lon="-1.168677">
        <ele>191.548</ele>
        <time>2026-08-24T13:59:12.999Z</time>
      </trkpt>
      <trkpt lat="48.787177" lon="-1.168664">
        <ele>191.414</ele>
        <time>2026-08-24T13:59:13.999Z</time>
      </trkpt>
      <trkpt lat="48.787180" lon="-1.168641">
        <ele>191.487</ele>
        <time>2026-08-24T13:59:15.999Z</time>
      </trkpt>
      <trkpt lat="48.787185" lon="-1.168622">
        <ele>191.374</ele>
        <time>2026-08-24T13:59:16.999Z</time>
      </trkpt>
      <trkpt lat="48.787192" lon="-1.168605">
        <ele>191.252</ele>
        <time>2026-08-24T13:59:17.999Z</time>
      </trkpt>
      <trkpt lat="48.787198" lon="-1.168584">
        <ele>190.990</ele>
        <time>2026-08-24T13:59:19.999Z</time>
      </trkpt>
      <trkpt lat="48.787203" lon="-1.168568">
        <ele>190.694</ele>
        <time>2026-08-24T13:59:20.999Z</time>
      </trkpt>
      <trkpt lat="48.787217" lon="-1.168550">
        <ele>190.521</ele>
        <time>2026-08-24T13:59:22.999Z</time>
      </trkpt>
      <trkpt lat="48.787224" lon="-1.168559">
        <ele>190.323</ele>
        <time>2026-08-24T13:59:25.999Z</time>
      </trkpt>
      <trkpt lat="48.787225" lon="-1.168574">
        <ele>189.994</ele>
        <time>2026-08-24T13:59:29.999Z</time>
      </trkpt>
      <trkpt lat="48.787233" lon="-1.168565">
        <ele>189.757</ele>
        <time>2026-08-24T13:59:31.999Z</time>
      </trkpt>
      <trkpt lat="48.787234" lon="-1.168551">
        <ele>189.622</ele>
        <time>2026-08-24T13:59:48.999Z</time>
      </trkpt>
      <trkpt lat="48.787230" lon="-1.168534">
        <ele>189.509</ele>
        <time>2026-08-24T13:59:50.999Z</time>
      </trkpt>
      <trkpt lat="48.787231" lon="-1.168519">
        <ele>189.221</ele>
        <time>2026-08-24T13:59:51.999Z</time>
      </trkpt>
      <trkpt lat="48.787232" lon="-1.168505">
        <ele>186.087</ele>
        <time>2026-08-24T14:03:36.999Z</time>
      </trkpt>
      <trkpt lat="48.787223" lon="-1.168508">
        <ele>186.680</ele>
        <time>2026-08-24T14:03:59.999Z</time>
      </trkpt>
      <trkpt lat="48.787221" lon="-1.168524">
        <ele>187.367</ele>
        <time>2026-08-24T14:04:11.999Z</time>
      </trkpt>
      <trkpt lat="48.787213" lon="-1.168548">
        <ele>187.625</ele>
        <time>2026-08-24T14:04:13.999Z</time>
      </trkpt>
      <trkpt lat="48.787215" lon="-1.168565">
        <ele>188.083</ele>
        <time>2026-08-24T14:04:15.999Z</time>
      </trkpt>
      <trkpt lat="48.787215" lon="-1.168579">
        <ele>188.157</ele>
        <time>2026-08-24T14:04:22.999Z</time>
      </trkpt>
      <trkpt lat="48.787212" lon="-1.168593">
        <ele>188.234</ele>
        <time>2026-08-24T14:04:27.999Z</time>
      </trkpt>
      <trkpt lat="48.787209" lon="-1.168617">
        <ele>188.356</ele>
        <time>2026-08-24T14:04:29.999Z</time>
      </trkpt>
      <trkpt lat="48.787210" lon="-1.168634">
        <ele>188.468</ele>
        <time>2026-08-24T14:04:31.999Z</time>
      </trkpt>
      <trkpt lat="48.787213" lon="-1.168670">
        <ele>188.442</ele>
        <time>2026-08-24T14:04:33.999Z</time>
      </trkpt>
      <trkpt lat="48.787221" lon="-1.168704">
        <ele>188.426</ele>
        <time>2026-08-24T14:04:35.999Z</time>
      </trkpt>
      <trkpt lat="48.787225" lon="-1.168722">
        <ele>188.509</ele>
        <time>2026-08-24T14:04:36.999Z</time>
      </trkpt>
      <trkpt lat="48.787227" lon="-1.168745">
        <ele>188.538</ele>
        <time>2026-08-24T14:04:37.999Z</time>
      </trkpt>
      <trkpt lat="48.787227" lon="-1.168762">
        <ele>188.564</ele>
        <time>2026-08-24T14:04:38.999Z</time>
      </trkpt>
      <trkpt lat="48.787236" lon="-1.168772">
        <ele>188.587</ele>
        <time>2026-08-24T14:04:41.999Z</time>
      </trkpt>
      <trkpt lat="48.787244" lon="-1.168781">
        <ele>188.434</ele>
        <time>2026-08-24T14:04:42.999Z</time>
      </trkpt>
      <trkpt lat="48.787254" lon="-1.168792">
        <ele>188.492</ele>
        <time>2026-08-24T14:04:43.999Z</time>
      </trkpt>
      <trkpt lat="48.787263" lon="-1.168799">
        <ele>188.440</ele>
        <time>2026-08-24T14:04:44.999Z</time>
      </trkpt>
      <trkpt lat="48.787279" lon="-1.168808">
        <ele>188.464</ele>
        <time>2026-08-24T14:04:46.999Z</time>
      </trkpt>
      <trkpt lat="48.787295" lon="-1.168814">
        <ele>188.431</ele>
        <time>2026-08-24T14:04:48.999Z</time>
      </trkpt>
      <trkpt lat="48.787305" lon="-1.168820">
        <ele>188.423</ele>
        <time>2026-08-24T14:04:49.999Z</time>
      </trkpt>
      <trkpt lat="48.787325" lon="-1.168829">
        <ele>188.385</ele>
        <time>2026-08-24T14:04:51.999Z</time>
      </trkpt>
      <trkpt lat="48.787335" lon="-1.168835">
        <ele>188.289</ele>
        <time>2026-08-24T14:04:52.999Z</time>
      </trkpt>
      <trkpt lat="48.787343" lon="-1.168842">
        <ele>188.217</ele>
        <time>2026-08-24T14:04:53.999Z</time>
      </trkpt>
      <trkpt lat="48.787358" lon="-1.168851">
        <ele>188.209</ele>
        <time>2026-08-24T14:04:55.999Z</time>
      </trkpt>
      <trkpt lat="48.787369" lon="-1.168853">
        <ele>188.120</ele>
        <time>2026-08-24T14:04:56.999Z</time>
      </trkpt>
      <trkpt lat="48.787380" lon="-1.168863">
        <ele>188.166</ele>
        <time>2026-08-24T14:04:58.999Z</time>
      </trkpt>
      <trkpt lat="48.787391" lon="-1.168869">
        <ele>188.129</ele>
        <time>2026-08-24T14:04:59.999Z</time>
      </trkpt>
      <trkpt lat="48.787403" lon="-1.168872">
        <ele>188.196</ele>
        <time>2026-08-24T14:05:00.999Z</time>
      </trkpt>
      <trkpt lat="48.787413" lon="-1.168873">
        <ele>188.074</ele>
        <time>2026-08-24T14:05:01.999Z</time>
      </trkpt>
      <trkpt lat="48.787425" lon="-1.168877">
        <ele>188.092</ele>
        <time>2026-08-24T14:05:02.999Z</time>
      </trkpt>
      <trkpt lat="48.787437" lon="-1.168883">
        <ele>188.066</ele>
        <time>2026-08-24T14:05:03.999Z</time>
      </trkpt>
      <trkpt lat="48.787447" lon="-1.168887">
        <ele>188.033</ele>
        <time>2026-08-24T14:05:04.999Z</time>
      </trkpt>
      <trkpt lat="48.787455" lon="-1.168898">
        <ele>188.075</ele>
        <time>2026-08-24T14:05:05.999Z</time>
      </trkpt>
      <trkpt lat="48.787466" lon="-1.168908">
        <ele>187.976</ele>
        <time>2026-08-24T14:05:06.999Z</time>
      </trkpt>
      <trkpt lat="48.787478" lon="-1.168922">
        <ele>187.990</ele>
        <time>2026-08-24T14:05:07.999Z</time>
      </trkpt>
      <trkpt lat="48.787486" lon="-1.168931">
        <ele>187.819</ele>
        <time>2026-08-24T14:05:08.999Z</time>
      </trkpt>
      <trkpt lat="48.787498" lon="-1.168941">
        <ele>187.809</ele>
        <time>2026-08-24T14:05:09.999Z</time>
      </trkpt>
      <trkpt lat="48.787508" lon="-1.168954">
        <ele>187.639</ele>
        <time>2026-08-24T14:05:10.999Z</time>
      </trkpt>
      <trkpt lat="48.787520" lon="-1.168963">
        <ele>187.435</ele>
        <time>2026-08-24T14:05:11.999Z</time>
      </trkpt>
      <trkpt lat="48.787538" lon="-1.168975">
        <ele>187.328</ele>
        <time>2026-08-24T14:05:13.999Z</time>
      </trkpt>
      <trkpt lat="48.787550" lon="-1.168983">
        <ele>187.395</ele>
        <time>2026-08-24T14:05:14.999Z</time>
      </trkpt>
      <trkpt lat="48.787561" lon="-1.168991">
        <ele>187.213</ele>
        <time>2026-08-24T14:05:15.999Z</time>
      </trkpt>
      <trkpt lat="48.787570" lon="-1.168999">
        <ele>187.251</ele>
        <time>2026-08-24T14:05:16.999Z</time>
      </trkpt>
      <trkpt lat="48.787584" lon="-1.169009">
        <ele>187.145</ele>
        <time>2026-08-24T14:05:18.999Z</time>
      </trkpt>
      <trkpt lat="48.787594" lon="-1.169018">
        <ele>187.182</ele>
        <time>2026-08-24T14:05:19.999Z</time>
      </trkpt>
      <trkpt lat="48.787603" lon="-1.169022">
        <ele>187.124</ele>
        <time>2026-08-24T14:05:20.999Z</time>
      </trkpt>
      <trkpt lat="48.787613" lon="-1.169029">
        <ele>187.012</ele>
        <time>2026-08-24T14:05:21.999Z</time>
      </trkpt>
      <trkpt lat="48.787622" lon="-1.169036">
        <ele>187.032</ele>
        <time>2026-08-24T14:05:22.999Z</time>
      </trkpt>
      <trkpt lat="48.787633" lon="-1.169043">
        <ele>187.005</ele>
        <time>2026-08-24T14:05:23.999Z</time>
      </trkpt>
      <trkpt lat="48.787646" lon="-1.169052">
        <ele>187.009</ele>
        <time>2026-08-24T14:05:24.999Z</time>
      </trkpt>
      <trkpt lat="48.787654" lon="-1.169061">
        <ele>187.043</ele>
        <time>2026-08-24T14:05:25.999Z</time>
      </trkpt>
      <trkpt lat="48.787666" lon="-1.169069">
        <ele>187.089</ele>
        <time>2026-08-24T14:05:26.999Z</time>
      </trkpt>
      <trkpt lat="48.787681" lon="-1.169080">
        <ele>186.982</ele>
        <time>2026-08-24T14:05:27.999Z</time>
      </trkpt>
      <trkpt lat="48.787692" lon="-1.169089">
        <ele>186.979</ele>
        <time>2026-08-24T14:05:28.999Z</time>
      </trkpt>
      <trkpt lat="48.787702" lon="-1.169098">
        <ele>186.977</ele>
        <time>2026-08-24T14:05:29.999Z</time>
      </trkpt>
      <trkpt lat="48.787712" lon="-1.169106">
        <ele>186.935</ele>
        <time>2026-08-24T14:05:30.999Z</time>
      </trkpt>
      <trkpt lat="48.787723" lon="-1.169117">
        <ele>186.929</ele>
        <time>2026-08-24T14:05:31.999Z</time>
      </trkpt>
      <trkpt lat="48.787733" lon="-1.169125">
        <ele>186.936</ele>
        <time>2026-08-24T14:05:32.999Z</time>
      </trkpt>
      <trkpt lat="48.787743" lon="-1.169131">
        <ele>186.968</ele>
        <time>2026-08-24T14:05:33.999Z</time>
      </trkpt>
      <trkpt lat="48.787753" lon="-1.169137">
        <ele>186.929</ele>
        <time>2026-08-24T14:05:34.999Z</time>
      </trkpt>
      <trkpt lat="48.787763" lon="-1.169145">
        <ele>186.900</ele>
        <time>2026-08-24T14:05:35.999Z</time>
      </trkpt>
      <trkpt lat="48.787773" lon="-1.169152">
        <ele>186.920</ele>
        <time>2026-08-24T14:05:36.999Z</time>
      </trkpt>
      <trkpt lat="48.787781" lon="-1.169161">
        <ele>186.909</ele>
        <time>2026-08-24T14:05:37.999Z</time>
      </trkpt>
      <trkpt lat="48.787793" lon="-1.169166">
        <ele>186.994</ele>
        <time>2026-08-24T14:05:38.999Z</time>
      </trkpt>
      <trkpt lat="48.787805" lon="-1.169166">
        <ele>186.980</ele>
        <time>2026-08-24T14:05:39.999Z</time>
      </trkpt>
      <trkpt lat="48.787819" lon="-1.169170">
        <ele>186.953</ele>
        <time>2026-08-24T14:05:40.999Z</time>
      </trkpt>
      <trkpt lat="48.787830" lon="-1.169179">
        <ele>186.970</ele>
        <time>2026-08-24T14:05:41.999Z</time>
      </trkpt>
      <trkpt lat="48.787838" lon="-1.169188">
        <ele>186.918</ele>
        <time>2026-08-24T14:05:42.999Z</time>
      </trkpt>
      <trkpt lat="48.787850" lon="-1.169201">
        <ele>186.986</ele>
        <time>2026-08-24T14:05:43.999Z</time>
      </trkpt>
      <trkpt lat="48.787861" lon="-1.169211">
        <ele>186.950</ele>
        <time>2026-08-24T14:05:44.999Z</time>
      </trkpt>
      <trkpt lat="48.787873" lon="-1.169219">
        <ele>186.977</ele>
        <time>2026-08-24T14:05:45.999Z</time>
      </trkpt>
      <trkpt lat="48.787887" lon="-1.169227">
        <ele>186.969</ele>
        <time>2026-08-24T14:05:46.999Z</time>
      </trkpt>
      <trkpt lat="48.787896" lon="-1.169232">
        <ele>187.087</ele>
        <time>2026-08-24T14:05:47.999Z</time>
      </trkpt>
      <trkpt lat="48.787912" lon="-1.169245">
        <ele>187.042</ele>
        <time>2026-08-24T14:05:49.999Z</time>
      </trkpt>
      <trkpt lat="48.787923" lon="-1.169253">
        <ele>187.026</ele>
        <time>2026-08-24T14:05:50.999Z</time>
      </trkpt>
      <trkpt lat="48.787938" lon="-1.169261">
        <ele>187.009</ele>
        <time>2026-08-24T14:05:51.999Z</time>
      </trkpt>
      <trkpt lat="48.787951" lon="-1.169270">
        <ele>187.140</ele>
        <time>2026-08-24T14:05:52.999Z</time>
      </trkpt>
      <trkpt lat="48.787965" lon="-1.169286">
        <ele>187.156</ele>
        <time>2026-08-24T14:05:54.999Z</time>
      </trkpt>
      <trkpt lat="48.787973" lon="-1.169294">
        <ele>187.259</ele>
        <time>2026-08-24T14:05:55.999Z</time>
      </trkpt>
      <trkpt lat="48.787985" lon="-1.169302">
        <ele>187.276</ele>
        <time>2026-08-24T14:05:56.999Z</time>
      </trkpt>
      <trkpt lat="48.788001" lon="-1.169309">
        <ele>187.334</ele>
        <time>2026-08-24T14:05:57.999Z</time>
      </trkpt>
      <trkpt lat="48.788018" lon="-1.169315">
        <ele>187.452</ele>
        <time>2026-08-24T14:05:58.999Z</time>
      </trkpt>
      <trkpt lat="48.788032" lon="-1.169320">
        <ele>187.426</ele>
        <time>2026-08-24T14:05:59.999Z</time>
      </trkpt>
      <trkpt lat="48.788042" lon="-1.169328">
        <ele>187.423</ele>
        <time>2026-08-24T14:06:00.999Z</time>
      </trkpt>
      <trkpt lat="48.788056" lon="-1.169347">
        <ele>187.465</ele>
        <time>2026-08-24T14:06:02.999Z</time>
      </trkpt>
      <trkpt lat="48.788065" lon="-1.169361">
        <ele>187.449</ele>
        <time>2026-08-24T14:06:03.999Z</time>
      </trkpt>
      <trkpt lat="48.788076" lon="-1.169369">
        <ele>187.402</ele>
        <time>2026-08-24T14:06:04.999Z</time>
      </trkpt>
      <trkpt lat="48.788086" lon="-1.169376">
        <ele>187.422</ele>
        <time>2026-08-24T14:06:05.999Z</time>
      </trkpt>
      <trkpt lat="48.788094" lon="-1.169385">
        <ele>187.509</ele>
        <time>2026-08-24T14:06:06.999Z</time>
      </trkpt>
      <trkpt lat="48.788104" lon="-1.169397">
        <ele>187.566</ele>
        <time>2026-08-24T14:06:07.999Z</time>
      </trkpt>
      <trkpt lat="48.788116" lon="-1.169404">
        <ele>187.582</ele>
        <time>2026-08-24T14:06:08.999Z</time>
      </trkpt>
      <trkpt lat="48.788128" lon="-1.169412">
        <ele>187.515</ele>
        <time>2026-08-24T14:06:09.999Z</time>
      </trkpt>
      <trkpt lat="48.788141" lon="-1.169419">
        <ele>187.592</ele>
        <time>2026-08-24T14:06:10.999Z</time>
      </trkpt>
      <trkpt lat="48.788150" lon="-1.169426">
        <ele>187.660</ele>
        <time>2026-08-24T14:06:11.999Z</time>
      </trkpt>
      <trkpt lat="48.788159" lon="-1.169432">
        <ele>187.648</ele>
        <time>2026-08-24T14:06:12.999Z</time>
      </trkpt>
      <trkpt lat="48.788171" lon="-1.169433">
        <ele>187.712</ele>
        <time>2026-08-24T14:06:13.999Z</time>
      </trkpt>
      <trkpt lat="48.788185" lon="-1.169438">
        <ele>187.749</ele>
        <time>2026-08-24T14:06:14.999Z</time>
      </trkpt>
      <trkpt lat="48.788199" lon="-1.169446">
        <ele>187.751</ele>
        <time>2026-08-24T14:06:15.999Z</time>
      </trkpt>
      <trkpt lat="48.788210" lon="-1.169452">
        <ele>187.758</ele>
        <time>2026-08-24T14:06:16.999Z</time>
      </trkpt>
      <trkpt lat="48.788219" lon="-1.169457">
        <ele>187.752</ele>
        <time>2026-08-24T14:06:17.999Z</time>
      </trkpt>
      <trkpt lat="48.788228" lon="-1.169465">
        <ele>187.717</ele>
        <time>2026-08-24T14:06:18.999Z</time>
      </trkpt>
      <trkpt lat="48.788236" lon="-1.169473">
        <ele>187.709</ele>
        <time>2026-08-24T14:06:19.999Z</time>
      </trkpt>
      <trkpt lat="48.788246" lon="-1.169481">
        <ele>187.797</ele>
        <time>2026-08-24T14:06:20.999Z</time>
      </trkpt>
      <trkpt lat="48.788260" lon="-1.169483">
        <ele>187.763</ele>
        <time>2026-08-24T14:06:21.999Z</time>
      </trkpt>
      <trkpt lat="48.788271" lon="-1.169487">
        <ele>187.796</ele>
        <time>2026-08-24T14:06:22.999Z</time>
      </trkpt>
      <trkpt lat="48.788280" lon="-1.169495">
        <ele>187.883</ele>
        <time>2026-08-24T14:06:23.999Z</time>
      </trkpt>
      <trkpt lat="48.788291" lon="-1.169510">
        <ele>187.961</ele>
        <time>2026-08-24T14:06:24.999Z</time>
      </trkpt>
      <trkpt lat="48.788302" lon="-1.169524">
        <ele>188.299</ele>
        <time>2026-08-24T14:06:25.999Z</time>
      </trkpt>
      <trkpt lat="48.788314" lon="-1.169541">
        <ele>188.343</ele>
        <time>2026-08-24T14:06:26.999Z</time>
      </trkpt>
      <trkpt lat="48.788325" lon="-1.169551">
        <ele>188.320</ele>
        <time>2026-08-24T14:06:27.999Z</time>
      </trkpt>
      <trkpt lat="48.788334" lon="-1.169560">
        <ele>188.442</ele>
        <time>2026-08-24T14:06:28.999Z</time>
      </trkpt>
      <trkpt lat="48.788349" lon="-1.169575">
        <ele>188.641</ele>
        <time>2026-08-24T14:06:30.999Z</time>
      </trkpt>
      <trkpt lat="48.788360" lon="-1.169587">
        <ele>188.681</ele>
        <time>2026-08-24T14:06:31.999Z</time>
      </trkpt>
      <trkpt lat="48.788372" lon="-1.169598">
        <ele>188.709</ele>
        <time>2026-08-24T14:06:32.999Z</time>
      </trkpt>
      <trkpt lat="48.788386" lon="-1.169607">
        <ele>188.909</ele>
        <time>2026-08-24T14:06:33.999Z</time>
      </trkpt>
      <trkpt lat="48.788395" lon="-1.169611">
        <ele>189.086</ele>
        <time>2026-08-24T14:06:34.999Z</time>
      </trkpt>
      <trkpt lat="48.788411" lon="-1.169620">
        <ele>189.022</ele>
        <time>2026-08-24T14:06:36.999Z</time>
      </trkpt>
      <trkpt lat="48.788420" lon="-1.169627">
        <ele>189.025</ele>
        <time>2026-08-24T14:06:37.999Z</time>
      </trkpt>
      <trkpt lat="48.788433" lon="-1.169635">
        <ele>189.062</ele>
        <time>2026-08-24T14:06:38.999Z</time>
      </trkpt>
      <trkpt lat="48.788447" lon="-1.169639">
        <ele>189.190</ele>
        <time>2026-08-24T14:06:39.999Z</time>
      </trkpt>
      <trkpt lat="48.788458" lon="-1.169642">
        <ele>189.148</ele>
        <time>2026-08-24T14:06:40.999Z</time>
      </trkpt>
      <trkpt lat="48.788468" lon="-1.169651">
        <ele>189.132</ele>
        <time>2026-08-24T14:06:41.999Z</time>
      </trkpt>
      <trkpt lat="48.788479" lon="-1.169658">
        <ele>189.239</ele>
        <time>2026-08-24T14:06:42.999Z</time>
      </trkpt>
      <trkpt lat="48.788492" lon="-1.169667">
        <ele>189.351</ele>
        <time>2026-08-24T14:06:43.999Z</time>
      </trkpt>
      <trkpt lat="48.788507" lon="-1.169676">
        <ele>189.336</ele>
        <time>2026-08-24T14:06:44.999Z</time>
      </trkpt>
      <trkpt lat="48.788520" lon="-1.169684">
        <ele>189.517</ele>
        <time>2026-08-24T14:06:45.999Z</time>
      </trkpt>
      <trkpt lat="48.788533" lon="-1.169700">
        <ele>189.518</ele>
        <time>2026-08-24T14:06:47.999Z</time>
      </trkpt>
      <trkpt lat="48.788542" lon="-1.169708">
        <ele>189.509</ele>
        <time>2026-08-24T14:06:48.999Z</time>
      </trkpt>
      <trkpt lat="48.788555" lon="-1.169720">
        <ele>189.635</ele>
        <time>2026-08-24T14:06:49.999Z</time>
      </trkpt>
      <trkpt lat="48.788567" lon="-1.169730">
        <ele>189.691</ele>
        <time>2026-08-24T14:06:50.999Z</time>
      </trkpt>
      <trkpt lat="48.788578" lon="-1.169738">
        <ele>189.644</ele>
        <time>2026-08-24T14:06:51.999Z</time>
      </trkpt>
      <trkpt lat="48.788586" lon="-1.169747">
        <ele>189.621</ele>
        <time>2026-08-24T14:06:52.999Z</time>
      </trkpt>
      <trkpt lat="48.788606" lon="-1.169760">
        <ele>189.739</ele>
        <time>2026-08-24T14:06:54.999Z</time>
      </trkpt>
      <trkpt lat="48.788620" lon="-1.169769">
        <ele>189.817</ele>
        <time>2026-08-24T14:06:55.999Z</time>
      </trkpt>
      <trkpt lat="48.788631" lon="-1.169776">
        <ele>189.811</ele>
        <time>2026-08-24T14:06:56.999Z</time>
      </trkpt>
      <trkpt lat="48.788641" lon="-1.169782">
        <ele>190.028</ele>
        <time>2026-08-24T14:06:57.999Z</time>
      </trkpt>
      <trkpt lat="48.788649" lon="-1.169787">
        <ele>190.210</ele>
        <time>2026-08-24T14:06:58.999Z</time>
      </trkpt>
      <trkpt lat="48.788667" lon="-1.169805">
        <ele>190.231</ele>
        <time>2026-08-24T14:07:00.999Z</time>
      </trkpt>
      <trkpt lat="48.788679" lon="-1.169817">
        <ele>190.261</ele>
        <time>2026-08-24T14:07:01.999Z</time>
      </trkpt>
      <trkpt lat="48.788691" lon="-1.169821">
        <ele>190.207</ele>
        <time>2026-08-24T14:07:02.999Z</time>
      </trkpt>
      <trkpt lat="48.788703" lon="-1.169827">
        <ele>190.309</ele>
        <time>2026-08-24T14:07:03.999Z</time>
      </trkpt>
      <trkpt lat="48.788716" lon="-1.169843">
        <ele>190.355</ele>
        <time>2026-08-24T14:07:05.999Z</time>
      </trkpt>
      <trkpt lat="48.788727" lon="-1.169853">
        <ele>190.351</ele>
        <time>2026-08-24T14:07:06.999Z</time>
      </trkpt>
      <trkpt lat="48.788739" lon="-1.169865">
        <ele>190.374</ele>
        <time>2026-08-24T14:07:07.999Z</time>
      </trkpt>
      <trkpt lat="48.788748" lon="-1.169873">
        <ele>190.341</ele>
        <time>2026-08-24T14:07:08.999Z</time>
      </trkpt>
      <trkpt lat="48.788758" lon="-1.169881">
        <ele>190.339</ele>
        <time>2026-08-24T14:07:09.999Z</time>
      </trkpt>
      <trkpt lat="48.788768" lon="-1.169893">
        <ele>190.397</ele>
        <time>2026-08-24T14:07:10.999Z</time>
      </trkpt>
      <trkpt lat="48.788778" lon="-1.169904">
        <ele>190.321</ele>
        <time>2026-08-24T14:07:11.999Z</time>
      </trkpt>
      <trkpt lat="48.788789" lon="-1.169913">
        <ele>190.388</ele>
        <time>2026-08-24T14:07:12.999Z</time>
      </trkpt>
      <trkpt lat="48.788802" lon="-1.169915">
        <ele>190.310</ele>
        <time>2026-08-24T14:07:13.999Z</time>
      </trkpt>
      <trkpt lat="48.788813" lon="-1.169917">
        <ele>190.375</ele>
        <time>2026-08-24T14:07:14.999Z</time>
      </trkpt>
      <trkpt lat="48.788822" lon="-1.169926">
        <ele>190.428</ele>
        <time>2026-08-24T14:07:15.999Z</time>
      </trkpt>
      <trkpt lat="48.788839" lon="-1.169941">
        <ele>190.420</ele>
        <time>2026-08-24T14:07:17.999Z</time>
      </trkpt>
      <trkpt lat="48.788852" lon="-1.169951">
        <ele>190.409</ele>
        <time>2026-08-24T14:07:18.999Z</time>
      </trkpt>
      <trkpt lat="48.788864" lon="-1.169955">
        <ele>190.429</ele>
        <time>2026-08-24T14:07:19.999Z</time>
      </trkpt>
      <trkpt lat="48.788872" lon="-1.169963">
        <ele>190.485</ele>
        <time>2026-08-24T14:07:20.999Z</time>
      </trkpt>
      <trkpt lat="48.788881" lon="-1.169973">
        <ele>190.448</ele>
        <time>2026-08-24T14:07:21.999Z</time>
      </trkpt>
      <trkpt lat="48.788865" lon="-1.169971">
        <ele>190.475</ele>
        <time>2026-08-24T14:07:27.999Z</time>
      </trkpt>
      <trkpt lat="48.788855" lon="-1.169966">
        <ele>190.493</ele>
        <time>2026-08-24T14:07:28.999Z</time>
      </trkpt>
      <trkpt lat="48.788841" lon="-1.169962">
        <ele>190.431</ele>
        <time>2026-08-24T14:07:29.999Z</time>
      </trkpt>
      <trkpt lat="48.788823" lon="-1.169956">
        <ele>190.485</ele>
        <time>2026-08-24T14:07:31.999Z</time>
      </trkpt>
      <trkpt lat="48.788816" lon="-1.169966">
        <ele>190.462</ele>
        <time>2026-08-24T14:07:32.999Z</time>
      </trkpt>
      <trkpt lat="48.788806" lon="-1.169977">
        <ele>190.484</ele>
        <time>2026-08-24T14:07:33.999Z</time>
      </trkpt>
      <trkpt lat="48.788802" lon="-1.169996">
        <ele>190.491</ele>
        <time>2026-08-24T14:07:34.999Z</time>
      </trkpt>
      <trkpt lat="48.788799" lon="-1.170015">
        <ele>190.481</ele>
        <time>2026-08-24T14:07:35.999Z</time>
      </trkpt>
      <trkpt lat="48.788796" lon="-1.170030">
        <ele>190.419</ele>
        <time>2026-08-24T14:07:36.999Z</time>
      </trkpt>
      <trkpt lat="48.788795" lon="-1.170049">
        <ele>190.409</ele>
        <time>2026-08-24T14:07:37.999Z</time>
      </trkpt>
      <trkpt lat="48.788799" lon="-1.170069">
        <ele>190.511</ele>
        <time>2026-08-24T14:07:38.999Z</time>
      </trkpt>
      <trkpt lat="48.788804" lon="-1.170084">
        <ele>190.587</ele>
        <time>2026-08-24T14:07:39.999Z</time>
      </trkpt>
      <trkpt lat="48.788811" lon="-1.170095">
        <ele>190.560</ele>
        <time>2026-08-24T14:07:40.999Z</time>
      </trkpt>
      <trkpt lat="48.788815" lon="-1.170112">
        <ele>190.777</ele>
        <time>2026-08-24T14:07:41.999Z</time>
      </trkpt>
      <trkpt lat="48.788818" lon="-1.170129">
        <ele>190.875</ele>
        <time>2026-08-24T14:07:42.999Z</time>
      </trkpt>
      <trkpt lat="48.788821" lon="-1.170145">
        <ele>190.923</ele>
        <time>2026-08-24T14:07:43.999Z</time>
      </trkpt>
      <trkpt lat="48.788827" lon="-1.170157">
        <ele>190.977</ele>
        <time>2026-08-24T14:07:44.999Z</time>
      </trkpt>
      <trkpt lat="48.788833" lon="-1.170170">
        <ele>191.054</ele>
        <time>2026-08-24T14:07:45.999Z</time>
      </trkpt>
      <trkpt lat="48.788838" lon="-1.170191">
        <ele>191.076</ele>
        <time>2026-08-24T14:07:46.999Z</time>
      </trkpt>
      <trkpt lat="48.788847" lon="-1.170217">
        <ele>191.027</ele>
        <time>2026-08-24T14:07:48.999Z</time>
      </trkpt>
      <trkpt lat="48.788852" lon="-1.170233">
        <ele>191.068</ele>
        <time>2026-08-24T14:07:49.999Z</time>
      </trkpt>
      <trkpt lat="48.788856" lon="-1.170252">
        <ele>191.014</ele>
        <time>2026-08-24T14:07:51.999Z</time>
      </trkpt>
      <trkpt lat="48.788861" lon="-1.170275">
        <ele>191.009</ele>
        <time>2026-08-24T14:07:52.999Z</time>
      </trkpt>
      <trkpt lat="48.788866" lon="-1.170290">
        <ele>191.094</ele>
        <time>2026-08-24T14:07:53.999Z</time>
      </trkpt>
      <trkpt lat="48.788867" lon="-1.170304">
        <ele>191.070</ele>
        <time>2026-08-24T14:07:54.999Z</time>
      </trkpt>
      <trkpt lat="48.788876" lon="-1.170321">
        <ele>191.013</ele>
        <time>2026-08-24T14:07:55.999Z</time>
      </trkpt>
      <trkpt lat="48.788886" lon="-1.170334">
        <ele>191.040</ele>
        <time>2026-08-24T14:07:56.999Z</time>
      </trkpt>
      <trkpt lat="48.788897" lon="-1.170353">
        <ele>191.088</ele>
        <time>2026-08-24T14:07:57.999Z</time>
      </trkpt>
      <trkpt lat="48.788906" lon="-1.170367">
        <ele>191.016</ele>
        <time>2026-08-24T14:07:58.999Z</time>
      </trkpt>
      <trkpt lat="48.788916" lon="-1.170381">
        <ele>191.010</ele>
        <time>2026-08-24T14:08:01.999Z</time>
      </trkpt>
      <trkpt lat="48.788921" lon="-1.170403">
        <ele>191.027</ele>
        <time>2026-08-24T14:08:02.999Z</time>
      </trkpt>
      <trkpt lat="48.788931" lon="-1.170431">
        <ele>191.089</ele>
        <time>2026-08-24T14:08:03.999Z</time>
      </trkpt>
      <trkpt lat="48.788942" lon="-1.170454">
        <ele>190.935</ele>
        <time>2026-08-24T14:08:04.999Z</time>
      </trkpt>
      <trkpt lat="48.788950" lon="-1.170465">
        <ele>190.986</ele>
        <time>2026-08-24T14:08:07.999Z</time>
      </trkpt>
      <trkpt lat="48.788966" lon="-1.170493">
        <ele>190.914</ele>
        <time>2026-08-24T14:08:09.999Z</time>
      </trkpt>
      <trkpt lat="48.788972" lon="-1.170523">
        <ele>190.809</ele>
        <time>2026-08-24T14:08:10.999Z</time>
      </trkpt>
      <trkpt lat="48.788981" lon="-1.170544">
        <ele>190.725</ele>
        <time>2026-08-24T14:08:13.999Z</time>
      </trkpt>
      <trkpt lat="48.788987" lon="-1.170560">
        <ele>190.411</ele>
        <time>2026-08-24T14:08:14.999Z</time>
      </trkpt>
      <trkpt lat="48.788995" lon="-1.170587">
        <ele>190.184</ele>
        <time>2026-08-24T14:08:15.999Z</time>
      </trkpt>
      <trkpt lat="48.789003" lon="-1.170611">
        <ele>189.931</ele>
        <time>2026-08-24T14:08:16.999Z</time>
      </trkpt>
      <trkpt lat="48.789005" lon="-1.170625">
        <ele>189.879</ele>
        <time>2026-08-24T14:08:17.999Z</time>
      </trkpt>
      <trkpt lat="48.789014" lon="-1.170653">
        <ele>189.747</ele>
        <time>2026-08-24T14:08:20.999Z</time>
      </trkpt>
      <trkpt lat="48.789024" lon="-1.170682">
        <ele>189.561</ele>
        <time>2026-08-24T14:08:21.999Z</time>
      </trkpt>
      <trkpt lat="48.789031" lon="-1.170699">
        <ele>189.248</ele>
        <time>2026-08-24T14:08:22.999Z</time>
      </trkpt>
      <trkpt lat="48.789019" lon="-1.170698">
        <ele>189.030</ele>
        <time>2026-08-24T14:08:32.999Z</time>
      </trkpt>
      <trkpt lat="48.789016" lon="-1.170682">
        <ele>188.932</ele>
        <time>2026-08-24T14:08:45.999Z</time>
      </trkpt>
      <trkpt lat="48.789011" lon="-1.170655">
        <ele>188.992</ele>
        <time>2026-08-24T14:08:47.999Z</time>
      </trkpt>
      <trkpt lat="48.789008" lon="-1.170642">
        <ele>188.311</ele>
        <time>2026-08-24T14:08:48.999Z</time>
      </trkpt>
      <trkpt lat="48.789002" lon="-1.170628">
        <ele>187.709</ele>
        <time>2026-08-24T14:08:49.999Z</time>
      </trkpt>
      <trkpt lat="48.788995" lon="-1.170608">
        <ele>187.415</ele>
        <time>2026-08-24T14:08:51.999Z</time>
      </trkpt>
      <trkpt lat="48.788991" lon="-1.170591">
        <ele>187.141</ele>
        <time>2026-08-24T14:08:52.999Z</time>
      </trkpt>
      <trkpt lat="48.788984" lon="-1.170569">
        <ele>186.844</ele>
        <time>2026-08-24T14:08:53.999Z</time>
      </trkpt>
      <trkpt lat="48.788977" lon="-1.170554">
        <ele>186.851</ele>
        <time>2026-08-24T14:08:54.999Z</time>
      </trkpt>
      <trkpt lat="48.788971" lon="-1.170535">
        <ele>186.849</ele>
        <time>2026-08-24T14:08:55.999Z</time>
      </trkpt>
      <trkpt lat="48.788967" lon="-1.170522">
        <ele>186.837</ele>
        <time>2026-08-24T14:08:56.999Z</time>
      </trkpt>
      <trkpt lat="48.788962" lon="-1.170509">
        <ele>186.821</ele>
        <time>2026-08-24T14:08:57.999Z</time>
      </trkpt>
      <trkpt lat="48.788956" lon="-1.170494">
        <ele>186.838</ele>
        <time>2026-08-24T14:08:58.999Z</time>
      </trkpt>
      <trkpt lat="48.788950" lon="-1.170477">
        <ele>186.850</ele>
        <time>2026-08-24T14:08:59.999Z</time>
      </trkpt>
      <trkpt lat="48.788945" lon="-1.170461">
        <ele>186.846</ele>
        <time>2026-08-24T14:09:00.999Z</time>
      </trkpt>
      <trkpt lat="48.788938" lon="-1.170444">
        <ele>186.888</ele>
        <time>2026-08-24T14:09:01.999Z</time>
      </trkpt>
      <trkpt lat="48.788931" lon="-1.170431">
        <ele>186.816</ele>
        <time>2026-08-24T14:09:02.999Z</time>
      </trkpt>
      <trkpt lat="48.788922" lon="-1.170409">
        <ele>186.809</ele>
        <time>2026-08-24T14:09:04.999Z</time>
      </trkpt>
      <trkpt lat="48.788915" lon="-1.170392">
        <ele>186.866</ele>
        <time>2026-08-24T14:09:05.999Z</time>
      </trkpt>
      <trkpt lat="48.788910" lon="-1.170377">
        <ele>186.872</ele>
        <time>2026-08-24T14:09:06.999Z</time>
      </trkpt>
      <trkpt lat="48.788906" lon="-1.170361">
        <ele>186.815</ele>
        <time>2026-08-24T14:09:07.999Z</time>
      </trkpt>
      <trkpt lat="48.788901" lon="-1.170341">
        <ele>186.812</ele>
        <time>2026-08-24T14:09:08.999Z</time>
      </trkpt>
      <trkpt lat="48.788895" lon="-1.170326">
        <ele>187.140</ele>
        <time>2026-08-24T14:09:09.999Z</time>
      </trkpt>
      <trkpt lat="48.788887" lon="-1.170312">
        <ele>187.448</ele>
        <time>2026-08-24T14:09:10.999Z</time>
      </trkpt>
      <trkpt lat="48.788880" lon="-1.170299">
        <ele>187.542</ele>
        <time>2026-08-24T14:09:11.999Z</time>
      </trkpt>
      <trkpt lat="48.788869" lon="-1.170275">
        <ele>187.529</ele>
        <time>2026-08-24T14:09:13.999Z</time>
      </trkpt>
      <trkpt lat="48.788864" lon="-1.170264">
        <ele>187.681</ele>
        <time>2026-08-24T14:09:14.999Z</time>
      </trkpt>
      <trkpt lat="48.788860" lon="-1.170251">
        <ele>187.714</ele>
        <time>2026-08-24T14:09:15.999Z</time>
      </trkpt>
      <trkpt lat="48.788854" lon="-1.170236">
        <ele>187.854</ele>
        <time>2026-08-24T14:09:16.999Z</time>
      </trkpt>
      <trkpt lat="48.788848" lon="-1.170221">
        <ele>187.909</ele>
        <time>2026-08-24T14:09:17.999Z</time>
      </trkpt>
      <trkpt lat="48.788843" lon="-1.170205">
        <ele>188.109</ele>
        <time>2026-08-24T14:09:18.999Z</time>
      </trkpt>
      <trkpt lat="48.788835" lon="-1.170179">
        <ele>188.233</ele>
        <time>2026-08-24T14:09:20.999Z</time>
      </trkpt>
      <trkpt lat="48.788825" lon="-1.170150">
        <ele>188.399</ele>
        <time>2026-08-24T14:09:22.999Z</time>
      </trkpt>
      <trkpt lat="48.788821" lon="-1.170131">
        <ele>188.472</ele>
        <time>2026-08-24T14:09:23.999Z</time>
      </trkpt>
      <trkpt lat="48.788815" lon="-1.170115">
        <ele>188.669</ele>
        <time>2026-08-24T14:09:24.999Z</time>
      </trkpt>
      <trkpt lat="48.788810" lon="-1.170098">
        <ele>188.757</ele>
        <time>2026-08-24T14:09:25.999Z</time>
      </trkpt>
      <trkpt lat="48.788805" lon="-1.170078">
        <ele>188.735</ele>
        <time>2026-08-24T14:09:26.999Z</time>
      </trkpt>
      <trkpt lat="48.788799" lon="-1.170063">
        <ele>188.789</ele>
        <time>2026-08-24T14:09:27.999Z</time>
      </trkpt>
      <trkpt lat="48.788793" lon="-1.170049">
        <ele>188.886</ele>
        <time>2026-08-24T14:09:28.999Z</time>
      </trkpt>
      <trkpt lat="48.788789" lon="-1.170036">
        <ele>189.088</ele>
        <time>2026-08-24T14:09:29.999Z</time>
      </trkpt>
      <trkpt lat="48.788783" lon="-1.170020">
        <ele>189.196</ele>
        <time>2026-08-24T14:09:31.999Z</time>
      </trkpt>
      <trkpt lat="48.788782" lon="-1.170000">
        <ele>189.131</ele>
        <time>2026-08-24T14:09:32.999Z</time>
      </trkpt>
      <trkpt lat="48.788778" lon="-1.169982">
        <ele>189.224</ele>
        <time>2026-08-24T14:09:33.999Z</time>
      </trkpt>
      <trkpt lat="48.788774" lon="-1.169966">
        <ele>189.209</ele>
        <time>2026-08-24T14:09:34.999Z</time>
      </trkpt>
      <trkpt lat="48.788765" lon="-1.169947">
        <ele>189.361</ele>
        <time>2026-08-24T14:09:35.999Z</time>
      </trkpt>
      <trkpt lat="48.788754" lon="-1.169925">
        <ele>189.367</ele>
        <time>2026-08-24T14:09:36.999Z</time>
      </trkpt>
      <trkpt lat="48.788747" lon="-1.169913">
        <ele>189.440</ele>
        <time>2026-08-24T14:09:37.999Z</time>
      </trkpt>
      <trkpt lat="48.788739" lon="-1.169903">
        <ele>189.447</ele>
        <time>2026-08-24T14:09:38.999Z</time>
      </trkpt>
      <trkpt lat="48.788730" lon="-1.169890">
        <ele>189.535</ele>
        <time>2026-08-24T14:09:39.999Z</time>
      </trkpt>
      <trkpt lat="48.788723" lon="-1.169876">
        <ele>189.523</ele>
        <time>2026-08-24T14:09:40.999Z</time>
      </trkpt>
      <trkpt lat="48.788714" lon="-1.169870">
        <ele>189.757</ele>
        <time>2026-08-24T14:09:41.999Z</time>
      </trkpt>
      <trkpt lat="48.788705" lon="-1.169855">
        <ele>189.814</ele>
        <time>2026-08-24T14:09:42.999Z</time>
      </trkpt>
      <trkpt lat="48.788695" lon="-1.169844">
        <ele>189.986</ele>
        <time>2026-08-24T14:09:43.999Z</time>
      </trkpt>
      <trkpt lat="48.788687" lon="-1.169838">
        <ele>190.016</ele>
        <time>2026-08-24T14:09:44.999Z</time>
      </trkpt>
      <trkpt lat="48.788677" lon="-1.169828">
        <ele>190.176</ele>
        <time>2026-08-24T14:09:45.999Z</time>
      </trkpt>
      <trkpt lat="48.788666" lon="-1.169821">
        <ele>190.113</ele>
        <time>2026-08-24T14:09:46.999Z</time>
      </trkpt>
      <trkpt lat="48.788651" lon="-1.169822">
        <ele>190.109</ele>
        <time>2026-08-24T14:09:48.999Z</time>
      </trkpt>
      <trkpt lat="48.788643" lon="-1.169814">
        <ele>190.293</ele>
        <time>2026-08-24T14:09:50.999Z</time>
      </trkpt>
      <trkpt lat="48.788625" lon="-1.169796">
        <ele>190.239</ele>
        <time>2026-08-24T14:09:52.999Z</time>
      </trkpt>
      <trkpt lat="48.788604" lon="-1.169770">
        <ele>190.272</ele>
        <time>2026-08-24T14:09:53.999Z</time>
      </trkpt>
      <trkpt lat="48.788593" lon="-1.169761">
        <ele>190.239</ele>
        <time>2026-08-24T14:09:55.999Z</time>
      </trkpt>
      <trkpt lat="48.788574" lon="-1.169749">
        <ele>190.257</ele>
        <time>2026-08-24T14:09:57.999Z</time>
      </trkpt>
      <trkpt lat="48.788551" lon="-1.169729">
        <ele>190.285</ele>
        <time>2026-08-24T14:09:58.999Z</time>
      </trkpt>
      <trkpt lat="48.788537" lon="-1.169714">
        <ele>190.299</ele>
        <time>2026-08-24T14:09:59.999Z</time>
      </trkpt>
      <trkpt lat="48.788529" lon="-1.169709">
        <ele>190.226</ele>
        <time>2026-08-24T14:10:00.999Z</time>
      </trkpt>
      <trkpt lat="48.788516" lon="-1.169710">
        <ele>190.218</ele>
        <time>2026-08-24T14:10:02.999Z</time>
      </trkpt>
      <trkpt lat="48.788501" lon="-1.169701">
        <ele>190.223</ele>
        <time>2026-08-24T14:10:03.999Z</time>
      </trkpt>
      <trkpt lat="48.788482" lon="-1.169685">
        <ele>190.283</ele>
        <time>2026-08-24T14:10:04.999Z</time>
      </trkpt>
      <trkpt lat="48.788469" lon="-1.169674">
        <ele>190.111</ele>
        <time>2026-08-24T14:10:05.999Z</time>
      </trkpt>
      <trkpt lat="48.788459" lon="-1.169663">
        <ele>190.109</ele>
        <time>2026-08-24T14:10:08.999Z</time>
      </trkpt>
      <trkpt lat="48.788436" lon="-1.169642">
        <ele>190.194</ele>
        <time>2026-08-24T14:10:10.999Z</time>
      </trkpt>
      <trkpt lat="48.788416" lon="-1.169630">
        <ele>190.170</ele>
        <time>2026-08-24T14:10:11.999Z</time>
      </trkpt>
      <trkpt lat="48.788400" lon="-1.169625">
        <ele>190.163</ele>
        <time>2026-08-24T14:10:14.999Z</time>
      </trkpt>
      <trkpt lat="48.788385" lon="-1.169612">
        <ele>190.080</ele>
        <time>2026-08-24T14:10:15.999Z</time>
      </trkpt>
      <trkpt lat="48.788364" lon="-1.169596">
        <ele>189.948</ele>
        <time>2026-08-24T14:10:16.999Z</time>
      </trkpt>
      <trkpt lat="48.788351" lon="-1.169588">
        <ele>189.716</ele>
        <time>2026-08-24T14:10:17.999Z</time>
      </trkpt>
      <trkpt lat="48.788339" lon="-1.169582">
        <ele>189.510</ele>
        <time>2026-08-24T14:10:19.999Z</time>
      </trkpt>
      <trkpt lat="48.788332" lon="-1.169572">
        <ele>189.477</ele>
        <time>2026-08-24T14:10:20.999Z</time>
      </trkpt>
      <trkpt lat="48.788317" lon="-1.169557">
        <ele>189.359</ele>
        <time>2026-08-24T14:10:21.999Z</time>
      </trkpt>
      <trkpt lat="48.788305" lon="-1.169549">
        <ele>189.089</ele>
        <time>2026-08-24T14:10:22.999Z</time>
      </trkpt>
      <trkpt lat="48.788292" lon="-1.169544">
        <ele>188.706</ele>
        <time>2026-08-24T14:10:23.999Z</time>
      </trkpt>
      <trkpt lat="48.788281" lon="-1.169541">
        <ele>188.626</ele>
        <time>2026-08-24T14:10:25.999Z</time>
      </trkpt>
      <trkpt lat="48.788265" lon="-1.169529">
        <ele>188.609</ele>
        <time>2026-08-24T14:10:26.999Z</time>
      </trkpt>
      <trkpt lat="48.788249" lon="-1.169512">
        <ele>188.610</ele>
        <time>2026-08-24T14:10:27.999Z</time>
      </trkpt>
      <trkpt lat="48.788239" lon="-1.169500">
        <ele>188.576</ele>
        <time>2026-08-24T14:10:28.999Z</time>
      </trkpt>
      <trkpt lat="48.788229" lon="-1.169498">
        <ele>188.519</ele>
        <time>2026-08-24T14:10:31.999Z</time>
      </trkpt>
      <trkpt lat="48.788211" lon="-1.169482">
        <ele>188.496</ele>
        <time>2026-08-24T14:10:32.999Z</time>
      </trkpt>
      <trkpt lat="48.788190" lon="-1.169466">
        <ele>188.434</ele>
        <time>2026-08-24T14:10:33.999Z</time>
      </trkpt>
      <trkpt lat="48.788178" lon="-1.169467">
        <ele>188.432</ele>
        <time>2026-08-24T14:10:34.999Z</time>
      </trkpt>
      <trkpt lat="48.788167" lon="-1.169462">
        <ele>188.496</ele>
        <time>2026-08-24T14:10:36.999Z</time>
      </trkpt>
      <trkpt lat="48.788159" lon="-1.169450">
        <ele>188.333</ele>
        <time>2026-08-24T14:10:37.999Z</time>
      </trkpt>
      <trkpt lat="48.788145" lon="-1.169432">
        <ele>188.365</ele>
        <time>2026-08-24T14:10:38.999Z</time>
      </trkpt>
      <trkpt lat="48.788128" lon="-1.169416">
        <ele>188.237</ele>
        <time>2026-08-24T14:10:39.999Z</time>
      </trkpt>
      <trkpt lat="48.788118" lon="-1.169402">
        <ele>188.249</ele>
        <time>2026-08-24T14:10:40.999Z</time>
      </trkpt>
      <trkpt lat="48.788107" lon="-1.169399">
        <ele>188.013</ele>
        <time>2026-08-24T14:10:42.999Z</time>
      </trkpt>
      <trkpt lat="48.788099" lon="-1.169391">
        <ele>187.809</ele>
        <time>2026-08-24T14:10:43.999Z</time>
      </trkpt>
      <trkpt lat="48.788081" lon="-1.169374">
        <ele>187.895</ele>
        <time>2026-08-24T14:10:44.999Z</time>
      </trkpt>
      <trkpt lat="48.788064" lon="-1.169361">
        <ele>187.881</ele>
        <time>2026-08-24T14:10:45.999Z</time>
      </trkpt>
      <trkpt lat="48.788051" lon="-1.169359">
        <ele>187.784</ele>
        <time>2026-08-24T14:10:46.999Z</time>
      </trkpt>
      <trkpt lat="48.788039" lon="-1.169353">
        <ele>187.791</ele>
        <time>2026-08-24T14:10:49.999Z</time>
      </trkpt>
      <trkpt lat="48.788023" lon="-1.169337">
        <ele>187.729</ele>
        <time>2026-08-24T14:10:50.999Z</time>
      </trkpt>
      <trkpt lat="48.788010" lon="-1.169329">
        <ele>187.697</ele>
        <time>2026-08-24T14:10:51.999Z</time>
      </trkpt>
      <trkpt lat="48.788001" lon="-1.169321">
        <ele>187.681</ele>
        <time>2026-08-24T14:10:52.999Z</time>
      </trkpt>
      <trkpt lat="48.787987" lon="-1.169311">
        <ele>187.448</ele>
        <time>2026-08-24T14:10:54.999Z</time>
      </trkpt>
      <trkpt lat="48.787970" lon="-1.169298">
        <ele>187.370</ele>
        <time>2026-08-24T14:10:56.999Z</time>
      </trkpt>
      <trkpt lat="48.787959" lon="-1.169291">
        <ele>187.319</ele>
        <time>2026-08-24T14:10:57.999Z</time>
      </trkpt>
      <trkpt lat="48.787945" lon="-1.169282">
        <ele>187.309</ele>
        <time>2026-08-24T14:10:58.999Z</time>
      </trkpt>
      <trkpt lat="48.787933" lon="-1.169274">
        <ele>187.319</ele>
        <time>2026-08-24T14:10:59.999Z</time>
      </trkpt>
      <trkpt lat="48.787920" lon="-1.169262">
        <ele>187.309</ele>
        <time>2026-08-24T14:11:00.999Z</time>
      </trkpt>
      <trkpt lat="48.787909" lon="-1.169253">
        <ele>187.343</ele>
        <time>2026-08-24T14:11:01.999Z</time>
      </trkpt>
      <trkpt lat="48.787901" lon="-1.169245">
        <ele>187.359</ele>
        <time>2026-08-24T14:11:02.999Z</time>
      </trkpt>
      <trkpt lat="48.787881" lon="-1.169233">
        <ele>187.362</ele>
        <time>2026-08-24T14:11:04.999Z</time>
      </trkpt>
      <trkpt lat="48.787869" lon="-1.169229">
        <ele>187.349</ele>
        <time>2026-08-24T14:11:05.999Z</time>
      </trkpt>
      <trkpt lat="48.787855" lon="-1.169220">
        <ele>187.397</ele>
        <time>2026-08-24T14:11:06.999Z</time>
      </trkpt>
      <trkpt lat="48.787844" lon="-1.169208">
        <ele>187.345</ele>
        <time>2026-08-24T14:11:07.999Z</time>
      </trkpt>
      <trkpt lat="48.787831" lon="-1.169191">
        <ele>187.329</ele>
        <time>2026-08-24T14:11:09.999Z</time>
      </trkpt>
      <trkpt lat="48.787821" lon="-1.169176">
        <ele>187.396</ele>
        <time>2026-08-24T14:11:10.999Z</time>
      </trkpt>
      <trkpt lat="48.787809" lon="-1.169168">
        <ele>187.398</ele>
        <time>2026-08-24T14:11:11.999Z</time>
      </trkpt>
      <trkpt lat="48.787797" lon="-1.169159">
        <ele>187.384</ele>
        <time>2026-08-24T14:11:12.999Z</time>
      </trkpt>
      <trkpt lat="48.787786" lon="-1.169151">
        <ele>187.407</ele>
        <time>2026-08-24T14:11:13.999Z</time>
      </trkpt>
      <trkpt lat="48.787771" lon="-1.169136">
        <ele>187.417</ele>
        <time>2026-08-24T14:11:15.999Z</time>
      </trkpt>
      <trkpt lat="48.787760" lon="-1.169128">
        <ele>187.409</ele>
        <time>2026-08-24T14:11:16.999Z</time>
      </trkpt>
      <trkpt lat="48.787748" lon="-1.169119">
        <ele>187.460</ele>
        <time>2026-08-24T14:11:17.999Z</time>
      </trkpt>
      <trkpt lat="48.787733" lon="-1.169104">
        <ele>187.486</ele>
        <time>2026-08-24T14:11:19.999Z</time>
      </trkpt>
      <trkpt lat="48.787727" lon="-1.169093">
        <ele>187.519</ele>
        <time>2026-08-24T14:11:20.999Z</time>
      </trkpt>
      <trkpt lat="48.787716" lon="-1.169087">
        <ele>187.536</ele>
        <time>2026-08-24T14:11:21.999Z</time>
      </trkpt>
      <trkpt lat="48.787703" lon="-1.169080">
        <ele>187.534</ele>
        <time>2026-08-24T14:11:22.999Z</time>
      </trkpt>
      <trkpt lat="48.787689" lon="-1.169078">
        <ele>187.552</ele>
        <time>2026-08-24T14:11:23.999Z</time>
      </trkpt>
      <trkpt lat="48.787674" lon="-1.169072">
        <ele>187.666</ele>
        <time>2026-08-24T14:11:24.999Z</time>
      </trkpt>
      <trkpt lat="48.787660" lon="-1.169063">
        <ele>187.883</ele>
        <time>2026-08-24T14:11:25.999Z</time>
      </trkpt>
      <trkpt lat="48.787646" lon="-1.169061">
        <ele>187.935</ele>
        <time>2026-08-24T14:11:26.999Z</time>
      </trkpt>
      <trkpt lat="48.787638" lon="-1.169053">
        <ele>187.999</ele>
        <time>2026-08-24T14:11:27.999Z</time>
      </trkpt>
      <trkpt lat="48.787626" lon="-1.169050">
        <ele>187.907</ele>
        <time>2026-08-24T14:11:28.999Z</time>
      </trkpt>
      <trkpt lat="48.787612" lon="-1.169043">
        <ele>187.927</ele>
        <time>2026-08-24T14:11:29.999Z</time>
      </trkpt>
      <trkpt lat="48.787603" lon="-1.169036">
        <ele>187.909</ele>
        <time>2026-08-24T14:11:30.999Z</time>
      </trkpt>
      <trkpt lat="48.787594" lon="-1.169019">
        <ele>187.991</ele>
        <time>2026-08-24T14:11:32.999Z</time>
      </trkpt>
      <trkpt lat="48.787579" lon="-1.169011">
        <ele>187.947</ele>
        <time>2026-08-24T14:11:34.999Z</time>
      </trkpt>
      <trkpt lat="48.787569" lon="-1.168991">
        <ele>187.950</ele>
        <time>2026-08-24T14:11:36.999Z</time>
      </trkpt>
      <trkpt lat="48.787560" lon="-1.168974">
        <ele>187.967</ele>
        <time>2026-08-24T14:11:37.999Z</time>
      </trkpt>
      <trkpt lat="48.787551" lon="-1.168969">
        <ele>187.995</ele>
        <time>2026-08-24T14:11:38.999Z</time>
      </trkpt>
      <trkpt lat="48.787540" lon="-1.168966">
        <ele>187.973</ele>
        <time>2026-08-24T14:11:39.999Z</time>
      </trkpt>
      <trkpt lat="48.787529" lon="-1.168965">
        <ele>187.997</ele>
        <time>2026-08-24T14:11:40.999Z</time>
      </trkpt>
      <trkpt lat="48.787520" lon="-1.168959">
        <ele>187.954</ele>
        <time>2026-08-24T14:11:41.999Z</time>
      </trkpt>
      <trkpt lat="48.787507" lon="-1.168954">
        <ele>187.996</ele>
        <time>2026-08-24T14:11:43.999Z</time>
      </trkpt>
      <trkpt lat="48.787497" lon="-1.168945">
        <ele>187.964</ele>
        <time>2026-08-24T14:11:45.999Z</time>
      </trkpt>
      <trkpt lat="48.787486" lon="-1.168935">
        <ele>187.906</ele>
        <time>2026-08-24T14:11:46.999Z</time>
      </trkpt>
      <trkpt lat="48.787473" lon="-1.168930">
        <ele>187.816</ele>
        <time>2026-08-24T14:11:47.999Z</time>
      </trkpt>
      <trkpt lat="48.787457" lon="-1.168925">
        <ele>187.809</ele>
        <time>2026-08-24T14:11:48.999Z</time>
      </trkpt>
      <trkpt lat="48.787445" lon="-1.168911">
        <ele>187.898</ele>
        <time>2026-08-24T14:11:49.999Z</time>
      </trkpt>
      <trkpt lat="48.787433" lon="-1.168907">
        <ele>187.844</ele>
        <time>2026-08-24T14:11:50.999Z</time>
      </trkpt>
      <trkpt lat="48.787421" lon="-1.168906">
        <ele>187.727</ele>
        <time>2026-08-24T14:11:51.999Z</time>
      </trkpt>
      <trkpt lat="48.787410" lon="-1.168903">
        <ele>187.734</ele>
        <time>2026-08-24T14:11:52.999Z</time>
      </trkpt>
      <trkpt lat="48.787401" lon="-1.168903">
        <ele>187.772</ele>
        <time>2026-08-24T14:11:53.999Z</time>
      </trkpt>
      <trkpt lat="48.787389" lon="-1.168909">
        <ele>187.790</ele>
        <time>2026-08-24T14:11:54.999Z</time>
      </trkpt>
      <trkpt lat="48.787379" lon="-1.168915">
        <ele>187.734</ele>
        <time>2026-08-24T14:11:55.999Z</time>
      </trkpt>
      <trkpt lat="48.787365" lon="-1.168910">
        <ele>187.791</ele>
        <time>2026-08-24T14:11:57.999Z</time>
      </trkpt>
      <trkpt lat="48.787346" lon="-1.168910">
        <ele>187.673</ele>
        <time>2026-08-24T14:11:59.999Z</time>
      </trkpt>
      <trkpt lat="48.787334" lon="-1.168910">
        <ele>187.697</ele>
        <time>2026-08-24T14:12:00.999Z</time>
      </trkpt>
      <trkpt lat="48.787322" lon="-1.168912">
        <ele>187.623</ele>
        <time>2026-08-24T14:12:01.999Z</time>
      </trkpt>
      <trkpt lat="48.787313" lon="-1.168903">
        <ele>187.625</ele>
        <time>2026-08-24T14:12:02.999Z</time>
      </trkpt>
      <trkpt lat="48.787302" lon="-1.168891">
        <ele>187.609</ele>
        <time>2026-08-24T14:12:03.999Z</time>
      </trkpt>
      <trkpt lat="48.787290" lon="-1.168881">
        <ele>187.681</ele>
        <time>2026-08-24T14:12:04.999Z</time>
      </trkpt>
      <trkpt lat="48.787276" lon="-1.168873">
        <ele>187.627</ele>
        <time>2026-08-24T14:12:05.999Z</time>
      </trkpt>
      <trkpt lat="48.787263" lon="-1.168869">
        <ele>187.610</ele>
        <time>2026-08-24T14:12:06.999Z</time>
      </trkpt>
      <trkpt lat="48.787250" lon="-1.168861">
        <ele>187.737</ele>
        <time>2026-08-24T14:12:07.999Z</time>
      </trkpt>
      <trkpt lat="48.787237" lon="-1.168852">
        <ele>187.775</ele>
        <time>2026-08-24T14:12:08.999Z</time>
      </trkpt>
      <trkpt lat="48.787224" lon="-1.168830">
        <ele>187.793</ele>
        <time>2026-08-24T14:12:09.999Z</time>
      </trkpt>
      <trkpt lat="48.787208" lon="-1.168829">
        <ele>187.717</ele>
        <time>2026-08-24T14:12:11.999Z</time>
      </trkpt>
      <trkpt lat="48.787191" lon="-1.168822">
        <ele>187.724</ele>
        <time>2026-08-24T14:12:12.999Z</time>
      </trkpt>
      <trkpt lat="48.787176" lon="-1.168816">
        <ele>187.746</ele>
        <time>2026-08-24T14:12:13.999Z</time>
      </trkpt>
      <trkpt lat="48.787150" lon="-1.168805">
        <ele>187.753</ele>
        <time>2026-08-24T14:12:14.999Z</time>
      </trkpt>
      <trkpt lat="48.787129" lon="-1.168799">
        <ele>187.704</ele>
        <time>2026-08-24T14:12:15.999Z</time>
      </trkpt>
      <trkpt lat="48.787114" lon="-1.168799">
        <ele>187.714</ele>
        <time>2026-08-24T14:12:16.999Z</time>
      </trkpt>
      <trkpt lat="48.787101" lon="-1.168801">
        <ele>187.709</ele>
        <time>2026-08-24T14:12:17.999Z</time>
      </trkpt>
      <trkpt lat="48.787088" lon="-1.168807">
        <ele>187.757</ele>
        <time>2026-08-24T14:12:18.999Z</time>
      </trkpt>
      <trkpt lat="48.787077" lon="-1.168816">
        <ele>187.743</ele>
        <time>2026-08-24T14:12:19.999Z</time>
      </trkpt>
      <trkpt lat="48.787062" lon="-1.168820">
        <ele>187.736</ele>
        <time>2026-08-24T14:12:20.999Z</time>
      </trkpt>
      <trkpt lat="48.787045" lon="-1.168823">
        <ele>187.763</ele>
        <time>2026-08-24T14:12:22.999Z</time>
      </trkpt>
      <trkpt lat="48.787027" lon="-1.168820">
        <ele>187.761</ele>
        <time>2026-08-24T14:12:23.999Z</time>
      </trkpt>
      <trkpt lat="48.787015" lon="-1.168825">
        <ele>187.789</ele>
        <time>2026-08-24T14:12:24.999Z</time>
      </trkpt>
      <trkpt lat="48.787003" lon="-1.168824">
        <ele>187.883</ele>
        <time>2026-08-24T14:12:25.999Z</time>
      </trkpt>
      <trkpt lat="48.786992" lon="-1.168830">
        <ele>187.890</ele>
        <time>2026-08-24T14:12:26.999Z</time>
      </trkpt>
      <trkpt lat="48.786980" lon="-1.168835">
        <ele>187.912</ele>
        <time>2026-08-24T14:12:27.999Z</time>
      </trkpt>
      <trkpt lat="48.786967" lon="-1.168833">
        <ele>188.028</ele>
        <time>2026-08-24T14:12:28.999Z</time>
      </trkpt>
      <trkpt lat="48.786955" lon="-1.168841">
        <ele>188.389</ele>
        <time>2026-08-24T14:12:29.999Z</time>
      </trkpt>
      <trkpt lat="48.786940" lon="-1.168844">
        <ele>188.817</ele>
        <time>2026-08-24T14:12:30.999Z</time>
      </trkpt>
      <trkpt lat="48.786930" lon="-1.168854">
        <ele>189.009</ele>
        <time>2026-08-24T14:12:31.999Z</time>
      </trkpt>
      <trkpt lat="48.786915" lon="-1.168866">
        <ele>189.134</ele>
        <time>2026-08-24T14:12:32.999Z</time>
      </trkpt>
      <trkpt lat="48.786903" lon="-1.168874">
        <ele>189.160</ele>
        <time>2026-08-24T14:12:33.999Z</time>
      </trkpt>
      <trkpt lat="48.786889" lon="-1.168881">
        <ele>189.183</ele>
        <time>2026-08-24T14:12:34.999Z</time>
      </trkpt>
      <trkpt lat="48.786880" lon="-1.168891">
        <ele>189.210</ele>
        <time>2026-08-24T14:12:35.999Z</time>
      </trkpt>
      <trkpt lat="48.786878" lon="-1.168910">
        <ele>189.438</ele>
        <time>2026-08-24T14:12:36.999Z</time>
      </trkpt>
      <trkpt lat="48.786876" lon="-1.168935">
        <ele>189.716</ele>
        <time>2026-08-24T14:12:37.999Z</time>
      </trkpt>
      <trkpt lat="48.786870" lon="-1.168956">
        <ele>189.980</ele>
        <time>2026-08-24T14:12:38.999Z</time>
      </trkpt>
      <trkpt lat="48.786865" lon="-1.168976">
        <ele>190.157</ele>
        <time>2026-08-24T14:12:39.999Z</time>
      </trkpt>
      <trkpt lat="48.786862" lon="-1.168991">
        <ele>190.269</ele>
        <time>2026-08-24T14:12:40.999Z</time>
      </trkpt>
      <trkpt lat="48.786857" lon="-1.169007">
        <ele>190.365</ele>
        <time>2026-08-24T14:12:41.999Z</time>
      </trkpt>
      <trkpt lat="48.786853" lon="-1.169022">
        <ele>190.768</ele>
        <time>2026-08-24T14:12:42.999Z</time>
      </trkpt>
      <trkpt lat="48.786851" lon="-1.169042">
        <ele>191.014</ele>
        <time>2026-08-24T14:12:43.999Z</time>
      </trkpt>
      <trkpt lat="48.786848" lon="-1.169060">
        <ele>191.309</ele>
        <time>2026-08-24T14:12:44.999Z</time>
      </trkpt>
      <trkpt lat="48.786846" lon="-1.169079">
        <ele>191.668</ele>
        <time>2026-08-24T14:12:45.999Z</time>
      </trkpt>
      <trkpt lat="48.786846" lon="-1.169094">
        <ele>191.874</ele>
        <time>2026-08-24T14:12:46.999Z</time>
      </trkpt>
      <trkpt lat="48.786847" lon="-1.169120">
        <ele>192.157</ele>
        <time>2026-08-24T14:12:48.999Z</time>
      </trkpt>
      <trkpt lat="48.786847" lon="-1.169137">
        <ele>192.454</ele>
        <time>2026-08-24T14:12:49.999Z</time>
      </trkpt>
      <trkpt lat="48.786844" lon="-1.169158">
        <ele>192.552</ele>
        <time>2026-08-24T14:12:50.999Z</time>
      </trkpt>
      <trkpt lat="48.786843" lon="-1.169176">
        <ele>192.520</ele>
        <time>2026-08-24T14:12:51.999Z</time>
      </trkpt>
      <trkpt lat="48.786842" lon="-1.169190">
        <ele>192.654</ele>
        <time>2026-08-24T14:12:52.999Z</time>
      </trkpt>
      <trkpt lat="48.786836" lon="-1.169220">
        <ele>192.691</ele>
        <time>2026-08-24T14:12:54.999Z</time>
      </trkpt>
      <trkpt lat="48.786833" lon="-1.169240">
        <ele>192.673</ele>
        <time>2026-08-24T14:12:55.999Z</time>
      </trkpt>
      <trkpt lat="48.786830" lon="-1.169262">
        <ele>192.672</ele>
        <time>2026-08-24T14:12:56.999Z</time>
      </trkpt>
      <trkpt lat="48.786825" lon="-1.169279">
        <ele>192.613</ele>
        <time>2026-08-24T14:12:57.999Z</time>
      </trkpt>
      <trkpt lat="48.786820" lon="-1.169291">
        <ele>192.614</ele>
        <time>2026-08-24T14:12:58.999Z</time>
      </trkpt>
      <trkpt lat="48.786819" lon="-1.169305">
        <ele>192.609</ele>
        <time>2026-08-24T14:12:59.999Z</time>
      </trkpt>
      <trkpt lat="48.786818" lon="-1.169322">
        <ele>192.689</ele>
        <time>2026-08-24T14:13:00.999Z</time>
      </trkpt>
      <trkpt lat="48.786818" lon="-1.169344">
        <ele>192.685</ele>
        <time>2026-08-24T14:13:01.999Z</time>
      </trkpt>
      <trkpt lat="48.786817" lon="-1.169363">
        <ele>192.678</ele>
        <time>2026-08-24T14:13:02.999Z</time>
      </trkpt>
      <trkpt lat="48.786815" lon="-1.169378">
        <ele>192.655</ele>
        <time>2026-08-24T14:13:03.999Z</time>
      </trkpt>
      <trkpt lat="48.786812" lon="-1.169402">
        <ele>192.643</ele>
        <time>2026-08-24T14:13:05.999Z</time>
      </trkpt>
      <trkpt lat="48.786808" lon="-1.169416">
        <ele>192.611</ele>
        <time>2026-08-24T14:13:06.999Z</time>
      </trkpt>
      <trkpt lat="48.786806" lon="-1.169437">
        <ele>192.695</ele>
        <time>2026-08-24T14:13:07.999Z</time>
      </trkpt>
      <trkpt lat="48.786803" lon="-1.169456">
        <ele>192.582</ele>
        <time>2026-08-24T14:13:08.999Z</time>
      </trkpt>
      <trkpt lat="48.786800" lon="-1.169474">
        <ele>192.534</ele>
        <time>2026-08-24T14:13:09.999Z</time>
      </trkpt>
      <trkpt lat="48.786798" lon="-1.169489">
        <ele>192.462</ele>
        <time>2026-08-24T14:13:10.999Z</time>
      </trkpt>
      <trkpt lat="48.786790" lon="-1.169510">
        <ele>192.383</ele>
        <time>2026-08-24T14:13:12.999Z</time>
      </trkpt>
      <trkpt lat="48.786788" lon="-1.169529">
        <ele>192.211</ele>
        <time>2026-08-24T14:13:13.999Z</time>
      </trkpt>
      <trkpt lat="48.786782" lon="-1.169555">
        <ele>192.209</ele>
        <time>2026-08-24T14:13:14.999Z</time>
      </trkpt>
      <trkpt lat="48.786777" lon="-1.169582">
        <ele>192.218</ele>
        <time>2026-08-24T14:13:15.999Z</time>
      </trkpt>
      <trkpt lat="48.786772" lon="-1.169603">
        <ele>192.264</ele>
        <time>2026-08-24T14:13:16.999Z</time>
      </trkpt>
      <trkpt lat="48.786770" lon="-1.169632">
        <ele>192.297</ele>
        <time>2026-08-24T14:13:18.999Z</time>
      </trkpt>
      <trkpt lat="48.786767" lon="-1.169649">
        <ele>192.164</ele>
        <time>2026-08-24T14:13:19.999Z</time>
      </trkpt>
      <trkpt lat="48.786768" lon="-1.169669">
        <ele>192.112</ele>
        <time>2026-08-24T14:13:20.999Z</time>
      </trkpt>
      <trkpt lat="48.786767" lon="-1.169689">
        <ele>192.060</ele>
        <time>2026-08-24T14:13:21.999Z</time>
      </trkpt>
      <trkpt lat="48.786765" lon="-1.169704">
        <ele>192.054</ele>
        <time>2026-08-24T14:13:22.999Z</time>
      </trkpt>
      <trkpt lat="48.786761" lon="-1.169731">
        <ele>192.031</ele>
        <time>2026-08-24T14:13:24.999Z</time>
      </trkpt>
      <trkpt lat="48.786756" lon="-1.169743">
        <ele>191.953</ele>
        <time>2026-08-24T14:13:25.999Z</time>
      </trkpt>
      <trkpt lat="48.786752" lon="-1.169758">
        <ele>191.932</ele>
        <time>2026-08-24T14:13:26.999Z</time>
      </trkpt>
      <trkpt lat="48.786750" lon="-1.169780">
        <ele>191.992</ele>
        <time>2026-08-24T14:13:27.999Z</time>
      </trkpt>
      <trkpt lat="48.786751" lon="-1.169803">
        <ele>191.911</ele>
        <time>2026-08-24T14:13:28.999Z</time>
      </trkpt>
      <trkpt lat="48.786747" lon="-1.169824">
        <ele>191.809</ele>
        <time>2026-08-24T14:13:29.999Z</time>
      </trkpt>
      <trkpt lat="48.786745" lon="-1.169848">
        <ele>191.815</ele>
        <time>2026-08-24T14:13:31.999Z</time>
      </trkpt>
      <trkpt lat="48.786746" lon="-1.169863">
        <ele>191.851</ele>
        <time>2026-08-24T14:13:32.999Z</time>
      </trkpt>
      <trkpt lat="48.786746" lon="-1.169883">
        <ele>191.774</ele>
        <time>2026-08-24T14:13:33.999Z</time>
      </trkpt>
      <trkpt lat="48.786746" lon="-1.169903">
        <ele>191.731</ele>
        <time>2026-08-24T14:13:34.999Z</time>
      </trkpt>
      <trkpt lat="48.786744" lon="-1.169923">
        <ele>191.769</ele>
        <time>2026-08-24T14:13:35.999Z</time>
      </trkpt>
      <trkpt lat="48.786739" lon="-1.169941">
        <ele>191.667</ele>
        <time>2026-08-24T14:13:36.999Z</time>
      </trkpt>
      <trkpt lat="48.786733" lon="-1.169960">
        <ele>191.621</ele>
        <time>2026-08-24T14:13:37.999Z</time>
      </trkpt>
      <trkpt lat="48.786730" lon="-1.169979">
        <ele>191.688</ele>
        <time>2026-08-24T14:13:38.999Z</time>
      </trkpt>
      <trkpt lat="48.786724" lon="-1.169998">
        <ele>191.590</ele>
        <time>2026-08-24T14:13:39.999Z</time>
      </trkpt>
      <trkpt lat="48.786721" lon="-1.170018">
        <ele>191.575</ele>
        <time>2026-08-24T14:13:40.999Z</time>
      </trkpt>
      <trkpt lat="48.786719" lon="-1.170036">
        <ele>191.428</ele>
        <time>2026-08-24T14:13:41.999Z</time>
      </trkpt>
      <trkpt lat="48.786717" lon="-1.170053">
        <ele>191.420</ele>
        <time>2026-08-24T14:13:42.999Z</time>
      </trkpt>
      <trkpt lat="48.786715" lon="-1.170071">
        <ele>191.409</ele>
        <time>2026-08-24T14:13:43.999Z</time>
      </trkpt>
      <trkpt lat="48.786712" lon="-1.170088">
        <ele>191.469</ele>
        <time>2026-08-24T14:13:44.999Z</time>
      </trkpt>
      <trkpt lat="48.786708" lon="-1.170110">
        <ele>191.435</ele>
        <time>2026-08-24T14:13:45.999Z</time>
      </trkpt>
      <trkpt lat="48.786706" lon="-1.170132">
        <ele>191.438</ele>
        <time>2026-08-24T14:13:46.999Z</time>
      </trkpt>
      <trkpt lat="48.786702" lon="-1.170151">
        <ele>191.445</ele>
        <time>2026-08-24T14:13:47.999Z</time>
      </trkpt>
      <trkpt lat="48.786700" lon="-1.170167">
        <ele>191.453</ele>
        <time>2026-08-24T14:13:48.999Z</time>
      </trkpt>
      <trkpt lat="48.786697" lon="-1.170181">
        <ele>191.471</ele>
        <time>2026-08-24T14:13:49.999Z</time>
      </trkpt>
      <trkpt lat="48.786693" lon="-1.170196">
        <ele>191.675</ele>
        <time>2026-08-24T14:13:50.999Z</time>
      </trkpt>
      <trkpt lat="48.786688" lon="-1.170216">
        <ele>191.792</ele>
        <time>2026-08-24T14:13:51.999Z</time>
      </trkpt>
      <trkpt lat="48.786687" lon="-1.170236">
        <ele>191.784</ele>
        <time>2026-08-24T14:13:52.999Z</time>
      </trkpt>
      <trkpt lat="48.786687" lon="-1.170253">
        <ele>191.732</ele>
        <time>2026-08-24T14:13:53.999Z</time>
      </trkpt>
      <trkpt lat="48.786684" lon="-1.170269">
        <ele>191.892</ele>
        <time>2026-08-24T14:13:54.999Z</time>
      </trkpt>
      <trkpt lat="48.786682" lon="-1.170285">
        <ele>191.811</ele>
        <time>2026-08-24T14:13:55.999Z</time>
      </trkpt>
      <trkpt lat="48.786679" lon="-1.170314">
        <ele>191.809</ele>
        <time>2026-08-24T14:13:57.999Z</time>
      </trkpt>
      <trkpt lat="48.786678" lon="-1.170335">
        <ele>191.835</ele>
        <time>2026-08-24T14:13:58.999Z</time>
      </trkpt>
      <trkpt lat="48.786678" lon="-1.170356">
        <ele>191.991</ele>
        <time>2026-08-24T14:13:59.999Z</time>
      </trkpt>
      <trkpt lat="48.786677" lon="-1.170373">
        <ele>192.174</ele>
        <time>2026-08-24T14:14:00.999Z</time>
      </trkpt>
      <trkpt lat="48.786672" lon="-1.170388">
        <ele>192.151</ele>
        <time>2026-08-24T14:14:01.999Z</time>
      </trkpt>
      <trkpt lat="48.786670" lon="-1.170408">
        <ele>192.239</ele>
        <time>2026-08-24T14:14:02.999Z</time>
      </trkpt>
      <trkpt lat="48.786666" lon="-1.170431">
        <ele>192.367</ele>
        <time>2026-08-24T14:14:03.999Z</time>
      </trkpt>
      <trkpt lat="48.786665" lon="-1.170452">
        <ele>192.371</ele>
        <time>2026-08-24T14:14:04.999Z</time>
      </trkpt>
      <trkpt lat="48.786662" lon="-1.170471">
        <ele>192.358</ele>
        <time>2026-08-24T14:14:05.999Z</time>
      </trkpt>
      <trkpt lat="48.786657" lon="-1.170497">
        <ele>192.420</ele>
        <time>2026-08-24T14:14:07.999Z</time>
      </trkpt>
      <trkpt lat="48.786652" lon="-1.170511">
        <ele>192.464</ele>
        <time>2026-08-24T14:14:08.999Z</time>
      </trkpt>
      <trkpt lat="48.786651" lon="-1.170529">
        <ele>192.506</ele>
        <time>2026-08-24T14:14:09.999Z</time>
      </trkpt>
      <trkpt lat="48.786650" lon="-1.170548">
        <ele>192.516</ele>
        <time>2026-08-24T14:14:10.999Z</time>
      </trkpt>
      <trkpt lat="48.786648" lon="-1.170568">
        <ele>192.509</ele>
        <time>2026-08-24T14:14:11.999Z</time>
      </trkpt>
      <trkpt lat="48.786643" lon="-1.170587">
        <ele>192.538</ele>
        <time>2026-08-24T14:14:12.999Z</time>
      </trkpt>
      <trkpt lat="48.786640" lon="-1.170607">
        <ele>192.574</ele>
        <time>2026-08-24T14:14:13.999Z</time>
      </trkpt>
      <trkpt lat="48.786641" lon="-1.170627">
        <ele>192.517</ele>
        <time>2026-08-24T14:14:14.999Z</time>
      </trkpt>
      <trkpt lat="48.786640" lon="-1.170641">
        <ele>192.524</ele>
        <time>2026-08-24T14:14:15.999Z</time>
      </trkpt>
      <trkpt lat="48.786638" lon="-1.170663">
        <ele>192.652</ele>
        <time>2026-08-24T14:14:16.999Z</time>
      </trkpt>
      <trkpt lat="48.786637" lon="-1.170683">
        <ele>192.630</ele>
        <time>2026-08-24T14:14:17.999Z</time>
      </trkpt>
      <trkpt lat="48.786635" lon="-1.170708">
        <ele>192.664</ele>
        <time>2026-08-24T14:14:18.999Z</time>
      </trkpt>
      <trkpt lat="48.786634" lon="-1.170728">
        <ele>192.741</ele>
        <time>2026-08-24T14:14:19.999Z</time>
      </trkpt>
      <trkpt lat="48.786630" lon="-1.170746">
        <ele>192.743</ele>
        <time>2026-08-24T14:14:20.999Z</time>
      </trkpt>
      <trkpt lat="48.786625" lon="-1.170763">
        <ele>192.792</ele>
        <time>2026-08-24T14:14:21.999Z</time>
      </trkpt>
      <trkpt lat="48.786620" lon="-1.170781">
        <ele>192.773</ele>
        <time>2026-08-24T14:14:22.999Z</time>
      </trkpt>
      <trkpt lat="48.786616" lon="-1.170801">
        <ele>192.720</ele>
        <time>2026-08-24T14:14:23.999Z</time>
      </trkpt>
      <trkpt lat="48.786614" lon="-1.170818">
        <ele>192.709</ele>
        <time>2026-08-24T14:14:24.999Z</time>
      </trkpt>
      <trkpt lat="48.786611" lon="-1.170832">
        <ele>192.771</ele>
        <time>2026-08-24T14:14:25.999Z</time>
      </trkpt>
      <trkpt lat="48.786609" lon="-1.170847">
        <ele>192.787</ele>
        <time>2026-08-24T14:14:26.999Z</time>
      </trkpt>
      <trkpt lat="48.786606" lon="-1.170861">
        <ele>192.750</ele>
        <time>2026-08-24T14:14:27.999Z</time>
      </trkpt>
      <trkpt lat="48.786605" lon="-1.170883">
        <ele>192.717</ele>
        <time>2026-08-24T14:14:28.999Z</time>
      </trkpt>
      <trkpt lat="48.786601" lon="-1.170908">
        <ele>192.795</ele>
        <time>2026-08-24T14:14:29.999Z</time>
      </trkpt>
      <trkpt lat="48.786596" lon="-1.170931">
        <ele>192.733</ele>
        <time>2026-08-24T14:14:30.999Z</time>
      </trkpt>
      <trkpt lat="48.786593" lon="-1.170947">
        <ele>192.747</ele>
        <time>2026-08-24T14:14:31.999Z</time>
      </trkpt>
      <trkpt lat="48.786589" lon="-1.170974">
        <ele>192.864</ele>
        <time>2026-08-24T14:14:33.999Z</time>
      </trkpt>
      <trkpt lat="48.786586" lon="-1.170995">
        <ele>192.816</ele>
        <time>2026-08-24T14:14:34.999Z</time>
      </trkpt>
      <trkpt lat="48.786581" lon="-1.171017">
        <ele>192.847</ele>
        <time>2026-08-24T14:14:35.999Z</time>
      </trkpt>
      <trkpt lat="48.786579" lon="-1.171041">
        <ele>192.829</ele>
        <time>2026-08-24T14:14:36.999Z</time>
      </trkpt>
      <trkpt lat="48.786576" lon="-1.171058">
        <ele>192.821</ele>
        <time>2026-08-24T14:14:37.999Z</time>
      </trkpt>
      <trkpt lat="48.786571" lon="-1.171084">
        <ele>192.809</ele>
        <time>2026-08-24T14:14:39.999Z</time>
      </trkpt>
      <trkpt lat="48.786569" lon="-1.171100">
        <ele>192.996</ele>
        <time>2026-08-24T14:14:40.999Z</time>
      </trkpt>
      <trkpt lat="48.786567" lon="-1.171119">
        <ele>193.042</ele>
        <time>2026-08-24T14:14:41.999Z</time>
      </trkpt>
      <trkpt lat="48.786563" lon="-1.171143">
        <ele>193.035</ele>
        <time>2026-08-24T14:14:42.999Z</time>
      </trkpt>
      <trkpt lat="48.786562" lon="-1.171161">
        <ele>193.192</ele>
        <time>2026-08-24T14:14:43.999Z</time>
      </trkpt>
      <trkpt lat="48.786558" lon="-1.171177">
        <ele>193.150</ele>
        <time>2026-08-24T14:14:44.999Z</time>
      </trkpt>
      <trkpt lat="48.786554" lon="-1.171196">
        <ele>193.288</ele>
        <time>2026-08-24T14:14:45.999Z</time>
      </trkpt>
      <trkpt lat="48.786549" lon="-1.171211">
        <ele>193.372</ele>
        <time>2026-08-24T14:14:46.999Z</time>
      </trkpt>
      <trkpt lat="48.786547" lon="-1.171231">
        <ele>193.589</ele>
        <time>2026-08-24T14:14:47.999Z</time>
      </trkpt>
      <trkpt lat="48.786546" lon="-1.171253">
        <ele>193.631</ele>
        <time>2026-08-24T14:14:48.999Z</time>
      </trkpt>
      <trkpt lat="48.786544" lon="-1.171273">
        <ele>193.752</ele>
        <time>2026-08-24T14:14:49.999Z</time>
      </trkpt>
      <trkpt lat="48.786541" lon="-1.171291">
        <ele>193.753</ele>
        <time>2026-08-24T14:14:50.999Z</time>
      </trkpt>
      <trkpt lat="48.786536" lon="-1.171311">
        <ele>193.708</ele>
        <time>2026-08-24T14:14:51.999Z</time>
      </trkpt>
      <trkpt lat="48.786531" lon="-1.171327">
        <ele>193.709</ele>
        <time>2026-08-24T14:14:52.999Z</time>
      </trkpt>
      <trkpt lat="48.786530" lon="-1.171360">
        <ele>193.757</ele>
        <time>2026-08-24T14:14:54.999Z</time>
      </trkpt>
      <trkpt lat="48.786527" lon="-1.171380">
        <ele>193.883</ele>
        <time>2026-08-24T14:14:55.999Z</time>
      </trkpt>
      <trkpt lat="48.786518" lon="-1.171407">
        <ele>193.856</ele>
        <time>2026-08-24T14:14:57.999Z</time>
      </trkpt>
      <trkpt lat="48.786514" lon="-1.171426">
        <ele>193.883</ele>
        <time>2026-08-24T14:14:58.999Z</time>
      </trkpt>
      <trkpt lat="48.786509" lon="-1.171447">
        <ele>193.911</ele>
        <time>2026-08-24T14:14:59.999Z</time>
      </trkpt>
      <trkpt lat="48.786508" lon="-1.171466">
        <ele>193.979</ele>
        <time>2026-08-24T14:15:00.999Z</time>
      </trkpt>
      <trkpt lat="48.786509" lon="-1.171484">
        <ele>193.963</ele>
        <time>2026-08-24T14:15:01.999Z</time>
      </trkpt>
      <trkpt lat="48.786503" lon="-1.171514">
        <ele>194.060</ele>
        <time>2026-08-24T14:15:03.999Z</time>
      </trkpt>
      <trkpt lat="48.786500" lon="-1.171535">
        <ele>194.022</ele>
        <time>2026-08-24T14:15:04.999Z</time>
      </trkpt>
      <trkpt lat="48.786498" lon="-1.171555">
        <ele>194.062</ele>
        <time>2026-08-24T14:15:05.999Z</time>
      </trkpt>
      <trkpt lat="48.786494" lon="-1.171578">
        <ele>194.183</ele>
        <time>2026-08-24T14:15:06.999Z</time>
      </trkpt>
      <trkpt lat="48.786493" lon="-1.171598">
        <ele>194.211</ele>
        <time>2026-08-24T14:15:07.999Z</time>
      </trkpt>
      <trkpt lat="48.786491" lon="-1.171611">
        <ele>194.209</ele>
        <time>2026-08-24T14:15:08.999Z</time>
      </trkpt>
      <trkpt lat="48.786488" lon="-1.171627">
        <ele>194.368</ele>
        <time>2026-08-24T14:15:09.999Z</time>
      </trkpt>
      <trkpt lat="48.786483" lon="-1.171644">
        <ele>194.354</ele>
        <time>2026-08-24T14:15:10.999Z</time>
      </trkpt>
      <trkpt lat="48.786482" lon="-1.171658">
        <ele>194.377</ele>
        <time>2026-08-24T14:15:11.999Z</time>
      </trkpt>
      <trkpt lat="48.786480" lon="-1.171673">
        <ele>194.394</ele>
        <time>2026-08-24T14:15:12.999Z</time>
      </trkpt>
      <trkpt lat="48.786478" lon="-1.171695">
        <ele>194.382</ele>
        <time>2026-08-24T14:15:13.999Z</time>
      </trkpt>
      <trkpt lat="48.786479" lon="-1.171715">
        <ele>194.330</ele>
        <time>2026-08-24T14:15:14.999Z</time>
      </trkpt>
      <trkpt lat="48.786475" lon="-1.171742">
        <ele>194.484</ele>
        <time>2026-08-24T14:15:16.999Z</time>
      </trkpt>
      <trkpt lat="48.786476" lon="-1.171774">
        <ele>194.391</ele>
        <time>2026-08-24T14:15:18.999Z</time>
      </trkpt>
      <trkpt lat="48.786474" lon="-1.171793">
        <ele>194.393</ele>
        <time>2026-08-24T14:15:19.999Z</time>
      </trkpt>
      <trkpt lat="48.786470" lon="-1.171814">
        <ele>194.343</ele>
        <time>2026-08-24T14:15:20.999Z</time>
      </trkpt>
      <trkpt lat="48.786467" lon="-1.171834">
        <ele>194.364</ele>
        <time>2026-08-24T14:15:21.999Z</time>
      </trkpt>
      <trkpt lat="48.786461" lon="-1.171852">
        <ele>194.310</ele>
        <time>2026-08-24T14:15:22.999Z</time>
      </trkpt>
      <trkpt lat="48.786453" lon="-1.171868">
        <ele>194.309</ele>
        <time>2026-08-24T14:15:23.999Z</time>
      </trkpt>
      <trkpt lat="48.786452" lon="-1.171882">
        <ele>194.376</ele>
        <time>2026-08-24T14:15:24.999Z</time>
      </trkpt>
      <trkpt lat="48.786448" lon="-1.171904">
        <ele>194.342</ele>
        <time>2026-08-24T14:15:25.999Z</time>
      </trkpt>
      <trkpt lat="48.786444" lon="-1.171924">
        <ele>194.355</ele>
        <time>2026-08-24T14:15:26.999Z</time>
      </trkpt>
      <trkpt lat="48.786442" lon="-1.171941">
        <ele>194.372</ele>
        <time>2026-08-24T14:15:27.999Z</time>
      </trkpt>
      <trkpt lat="48.786441" lon="-1.171955">
        <ele>194.320</ele>
        <time>2026-08-24T14:15:28.999Z</time>
      </trkpt>
      <trkpt lat="48.786438" lon="-1.171969">
        <ele>194.328</ele>
        <time>2026-08-24T14:15:29.999Z</time>
      </trkpt>
      <trkpt lat="48.786433" lon="-1.171988">
        <ele>194.462</ele>
        <time>2026-08-24T14:15:30.999Z</time>
      </trkpt>
      <trkpt lat="48.786431" lon="-1.172008">
        <ele>194.499</ele>
        <time>2026-08-24T14:15:31.999Z</time>
      </trkpt>
      <trkpt lat="48.786428" lon="-1.172027">
        <ele>194.481</ele>
        <time>2026-08-24T14:15:32.999Z</time>
      </trkpt>
      <trkpt lat="48.786425" lon="-1.172049">
        <ele>194.494</ele>
        <time>2026-08-24T14:15:33.999Z</time>
      </trkpt>
      <trkpt lat="48.786425" lon="-1.172068">
        <ele>194.457</ele>
        <time>2026-08-24T14:15:34.999Z</time>
      </trkpt>
      <trkpt lat="48.786421" lon="-1.172087">
        <ele>194.422</ele>
        <time>2026-08-24T14:15:35.999Z</time>
      </trkpt>
      <trkpt lat="48.786417" lon="-1.172102">
        <ele>194.409</ele>
        <time>2026-08-24T14:15:36.999Z</time>
      </trkpt>
      <trkpt lat="48.786414" lon="-1.172120">
        <ele>194.391</ele>
        <time>2026-08-24T14:15:37.999Z</time>
      </trkpt>
      <trkpt lat="48.786413" lon="-1.172140">
        <ele>194.387</ele>
        <time>2026-08-24T14:15:38.999Z</time>
      </trkpt>
      <trkpt lat="48.786412" lon="-1.172161">
        <ele>194.340</ele>
        <time>2026-08-24T14:15:39.999Z</time>
      </trkpt>
      <trkpt lat="48.786412" lon="-1.172179">
        <ele>194.367</ele>
        <time>2026-08-24T14:15:40.999Z</time>
      </trkpt>
      <trkpt lat="48.786408" lon="-1.172192">
        <ele>194.285</ele>
        <time>2026-08-24T14:15:41.999Z</time>
      </trkpt>
      <trkpt lat="48.786402" lon="-1.172209">
        <ele>194.253</ele>
        <time>2026-08-24T14:15:42.999Z</time>
      </trkpt>
      <trkpt lat="48.786400" lon="-1.172226">
        <ele>194.277</ele>
        <time>2026-08-24T14:15:43.999Z</time>
      </trkpt>
      <trkpt lat="48.786399" lon="-1.172244">
        <ele>194.254</ele>
        <time>2026-08-24T14:15:44.999Z</time>
      </trkpt>
      <trkpt lat="48.786394" lon="-1.172265">
        <ele>194.296</ele>
        <time>2026-08-24T14:15:45.999Z</time>
      </trkpt>
      <trkpt lat="48.786392" lon="-1.172289">
        <ele>194.258</ele>
        <time>2026-08-24T14:15:46.999Z</time>
      </trkpt>
      <trkpt lat="48.786392" lon="-1.172303">
        <ele>194.252</ele>
        <time>2026-08-24T14:15:47.999Z</time>
      </trkpt>
      <trkpt lat="48.786388" lon="-1.172335">
        <ele>194.217</ele>
        <time>2026-08-24T14:15:49.999Z</time>
      </trkpt>
      <trkpt lat="48.786387" lon="-1.172354">
        <ele>194.209</ele>
        <time>2026-08-24T14:15:50.999Z</time>
      </trkpt>
      <trkpt lat="48.786387" lon="-1.172371">
        <ele>194.277</ele>
        <time>2026-08-24T14:15:51.999Z</time>
      </trkpt>
      <trkpt lat="48.786386" lon="-1.172388">
        <ele>194.393</ele>
        <time>2026-08-24T14:15:52.999Z</time>
      </trkpt>
      <trkpt lat="48.786384" lon="-1.172406">
        <ele>194.326</ele>
        <time>2026-08-24T14:15:53.999Z</time>
      </trkpt>
      <trkpt lat="48.786383" lon="-1.172421">
        <ele>194.373</ele>
        <time>2026-08-24T14:15:54.999Z</time>
      </trkpt>
      <trkpt lat="48.786379" lon="-1.172438">
        <ele>194.381</ele>
        <time>2026-08-24T14:15:55.999Z</time>
      </trkpt>
      <trkpt lat="48.786378" lon="-1.172458">
        <ele>194.389</ele>
        <time>2026-08-24T14:15:56.999Z</time>
      </trkpt>
      <trkpt lat="48.786377" lon="-1.172480">
        <ele>194.333</ele>
        <time>2026-08-24T14:15:57.999Z</time>
      </trkpt>
      <trkpt lat="48.786377" lon="-1.172500">
        <ele>194.360</ele>
        <time>2026-08-24T14:15:58.999Z</time>
      </trkpt>
      <trkpt lat="48.786376" lon="-1.172518">
        <ele>194.342</ele>
        <time>2026-08-24T14:15:59.999Z</time>
      </trkpt>
      <trkpt lat="48.786375" lon="-1.172534">
        <ele>194.487</ele>
        <time>2026-08-24T14:16:00.999Z</time>
      </trkpt>
      <trkpt lat="48.786370" lon="-1.172568">
        <ele>194.442</ele>
        <time>2026-08-24T14:16:02.999Z</time>
      </trkpt>
      <trkpt lat="48.786370" lon="-1.172591">
        <ele>194.426</ele>
        <time>2026-08-24T14:16:03.999Z</time>
      </trkpt>
      <trkpt lat="48.786368" lon="-1.172616">
        <ele>194.409</ele>
        <time>2026-08-24T14:16:04.999Z</time>
      </trkpt>
      <trkpt lat="48.786365" lon="-1.172637">
        <ele>194.470</ele>
        <time>2026-08-24T14:16:05.999Z</time>
      </trkpt>
      <trkpt lat="48.786363" lon="-1.172660">
        <ele>194.466</ele>
        <time>2026-08-24T14:16:07.999Z</time>
      </trkpt>
      <trkpt lat="48.786361" lon="-1.172678">
        <ele>194.419</ele>
        <time>2026-08-24T14:16:08.999Z</time>
      </trkpt>
      <trkpt lat="48.786360" lon="-1.172698">
        <ele>194.566</ele>
        <time>2026-08-24T14:16:09.999Z</time>
      </trkpt>
      <trkpt lat="48.786359" lon="-1.172720">
        <ele>194.524</ele>
        <time>2026-08-24T14:16:10.999Z</time>
      </trkpt>
      <trkpt lat="48.786360" lon="-1.172742">
        <ele>194.542</ele>
        <time>2026-08-24T14:16:11.999Z</time>
      </trkpt>
      <trkpt lat="48.786362" lon="-1.172758">
        <ele>194.516</ele>
        <time>2026-08-24T14:16:12.999Z</time>
      </trkpt>
      <trkpt lat="48.786362" lon="-1.172774">
        <ele>194.523</ele>
        <time>2026-08-24T14:16:13.999Z</time>
      </trkpt>
      <trkpt lat="48.786363" lon="-1.172797">
        <ele>194.535</ele>
        <time>2026-08-24T14:16:15.999Z</time>
      </trkpt>
      <trkpt lat="48.786362" lon="-1.172812">
        <ele>194.552</ele>
        <time>2026-08-24T14:16:16.999Z</time>
      </trkpt>
      <trkpt lat="48.786363" lon="-1.172836">
        <ele>194.553</ele>
        <time>2026-08-24T14:16:17.999Z</time>
      </trkpt>
      <trkpt lat="48.786362" lon="-1.172863">
        <ele>194.508</ele>
        <time>2026-08-24T14:16:18.999Z</time>
      </trkpt>
      <trkpt lat="48.786362" lon="-1.172880">
        <ele>194.509</ele>
        <time>2026-08-24T14:16:19.999Z</time>
      </trkpt>
      <trkpt lat="48.786361" lon="-1.172897">
        <ele>194.577</ele>
        <time>2026-08-24T14:16:20.999Z</time>
      </trkpt>
      <trkpt lat="48.786358" lon="-1.172911">
        <ele>194.453</ele>
        <time>2026-08-24T14:16:21.999Z</time>
      </trkpt>
      <trkpt lat="48.786355" lon="-1.172931">
        <ele>194.416</ele>
        <time>2026-08-24T14:16:22.999Z</time>
      </trkpt>
      <trkpt lat="48.786353" lon="-1.172952">
        <ele>194.433</ele>
        <time>2026-08-24T14:16:23.999Z</time>
      </trkpt>
      <trkpt lat="48.786352" lon="-1.172971">
        <ele>194.471</ele>
        <time>2026-08-24T14:16:24.999Z</time>
      </trkpt>
      <trkpt lat="48.786352" lon="-1.172991">
        <ele>194.329</ele>
        <time>2026-08-24T14:16:25.999Z</time>
      </trkpt>
      <trkpt lat="48.786353" lon="-1.173006">
        <ele>194.323</ele>
        <time>2026-08-24T14:16:26.999Z</time>
      </trkpt>
      <trkpt lat="48.786354" lon="-1.173023">
        <ele>194.340</ele>
        <time>2026-08-24T14:16:27.999Z</time>
      </trkpt>
      <trkpt lat="48.786354" lon="-1.173055">
        <ele>194.272</ele>
        <time>2026-08-24T14:16:29.999Z</time>
      </trkpt>
      <trkpt lat="48.786356" lon="-1.173074">
        <ele>194.113</ele>
        <time>2026-08-24T14:16:30.999Z</time>
      </trkpt>
      <trkpt lat="48.786358" lon="-1.173096">
        <ele>193.943</ele>
        <time>2026-08-24T14:16:31.999Z</time>
      </trkpt>
      <trkpt lat="48.786361" lon="-1.173116">
        <ele>193.807</ele>
        <time>2026-08-24T14:16:32.999Z</time>
      </trkpt>
      <trkpt lat="48.786362" lon="-1.173145">
        <ele>193.709</ele>
        <time>2026-08-24T14:16:34.999Z</time>
      </trkpt>
      <trkpt lat="48.786362" lon="-1.173158">
        <ele>193.653</ele>
        <time>2026-08-24T14:16:35.999Z</time>
      </trkpt>
      <trkpt lat="48.786364" lon="-1.173180">
        <ele>193.549</ele>
        <time>2026-08-24T14:16:36.999Z</time>
      </trkpt>
      <trkpt lat="48.786364" lon="-1.173201">
        <ele>193.582</ele>
        <time>2026-08-24T14:16:37.999Z</time>
      </trkpt>
      <trkpt lat="48.786364" lon="-1.173225">
        <ele>193.459</ele>
        <time>2026-08-24T14:16:38.999Z</time>
      </trkpt>
      <trkpt lat="48.786365" lon="-1.173241">
        <ele>193.477</ele>
        <time>2026-08-24T14:16:39.999Z</time>
      </trkpt>
      <trkpt lat="48.786366" lon="-1.173257">
        <ele>193.425</ele>
        <time>2026-08-24T14:16:40.999Z</time>
      </trkpt>
      <trkpt lat="48.786365" lon="-1.173275">
        <ele>193.479</ele>
        <time>2026-08-24T14:16:41.999Z</time>
      </trkpt>
      <trkpt lat="48.786365" lon="-1.173290">
        <ele>193.386</ele>
        <time>2026-08-24T14:16:42.999Z</time>
      </trkpt>
      <trkpt lat="48.786369" lon="-1.173306">
        <ele>193.268</ele>
        <time>2026-08-24T14:16:43.999Z</time>
      </trkpt>
      <trkpt lat="48.786370" lon="-1.173327">
        <ele>193.154</ele>
        <time>2026-08-24T14:16:44.999Z</time>
      </trkpt>
      <trkpt lat="48.786369" lon="-1.173344">
        <ele>192.956</ele>
        <time>2026-08-24T14:16:45.999Z</time>
      </trkpt>
      <trkpt lat="48.786369" lon="-1.173360">
        <ele>192.611</ele>
        <time>2026-08-24T14:16:46.999Z</time>
      </trkpt>
      <trkpt lat="48.786370" lon="-1.173377">
        <ele>192.409</ele>
        <time>2026-08-24T14:16:47.999Z</time>
      </trkpt>
      <trkpt lat="48.786371" lon="-1.173392">
        <ele>192.367</ele>
        <time>2026-08-24T14:16:48.999Z</time>
      </trkpt>
      <trkpt lat="48.786373" lon="-1.173409">
        <ele>192.153</ele>
        <time>2026-08-24T14:16:49.999Z</time>
      </trkpt>
      <trkpt lat="48.786374" lon="-1.173430">
        <ele>192.066</ele>
        <time>2026-08-24T14:16:50.999Z</time>
      </trkpt>
      <trkpt lat="48.786376" lon="-1.173453">
        <ele>192.073</ele>
        <time>2026-08-24T14:16:51.999Z</time>
      </trkpt>
      <trkpt lat="48.786376" lon="-1.173472">
        <ele>191.931</ele>
        <time>2026-08-24T14:16:52.999Z</time>
      </trkpt>
      <trkpt lat="48.786376" lon="-1.173486">
        <ele>191.859</ele>
        <time>2026-08-24T14:16:53.999Z</time>
      </trkpt>
      <trkpt lat="48.786376" lon="-1.173500">
        <ele>191.833</ele>
        <time>2026-08-24T14:16:54.999Z</time>
      </trkpt>
      <trkpt lat="48.786377" lon="-1.173519">
        <ele>191.860</ele>
        <time>2026-08-24T14:16:55.999Z</time>
      </trkpt>
      <trkpt lat="48.786378" lon="-1.173541">
        <ele>191.882</ele>
        <time>2026-08-24T14:16:56.999Z</time>
      </trkpt>
      <trkpt lat="48.786378" lon="-1.173558">
        <ele>191.877</ele>
        <time>2026-08-24T14:16:57.999Z</time>
      </trkpt>
      <trkpt lat="48.786380" lon="-1.173576">
        <ele>191.861</ele>
        <time>2026-08-24T14:16:58.999Z</time>
      </trkpt>
      <trkpt lat="48.786382" lon="-1.173605">
        <ele>191.727</ele>
        <time>2026-08-24T14:17:00.999Z</time>
      </trkpt>
      <trkpt lat="48.786385" lon="-1.173619">
        <ele>191.709</ele>
        <time>2026-08-24T14:17:01.999Z</time>
      </trkpt>
      <trkpt lat="48.786388" lon="-1.173639">
        <ele>191.649</ele>
        <time>2026-08-24T14:17:02.999Z</time>
      </trkpt>
      <trkpt lat="48.786390" lon="-1.173656">
        <ele>191.695</ele>
        <time>2026-08-24T14:17:03.999Z</time>
      </trkpt>
      <trkpt lat="48.786392" lon="-1.173679">
        <ele>191.438</ele>
        <time>2026-08-24T14:17:04.999Z</time>
      </trkpt>
      <trkpt lat="48.786397" lon="-1.173700">
        <ele>191.235</ele>
        <time>2026-08-24T14:17:05.999Z</time>
      </trkpt>
      <trkpt lat="48.786394" lon="-1.173726">
        <ele>191.033</ele>
        <time>2026-08-24T14:17:07.999Z</time>
      </trkpt>
      <trkpt lat="48.786396" lon="-1.173749">
        <ele>191.081</ele>
        <time>2026-08-24T14:17:09.999Z</time>
      </trkpt>
      <trkpt lat="48.786394" lon="-1.173766">
        <ele>191.055</ele>
        <time>2026-08-24T14:17:10.999Z</time>
      </trkpt>
      <trkpt lat="48.786392" lon="-1.173783">
        <ele>190.912</ele>
        <time>2026-08-24T14:17:11.999Z</time>
      </trkpt>
      <trkpt lat="48.786389" lon="-1.173803">
        <ele>190.964</ele>
        <time>2026-08-24T14:17:12.999Z</time>
      </trkpt>
      <trkpt lat="48.786386" lon="-1.173821">
        <ele>190.911</ele>
        <time>2026-08-24T14:17:13.999Z</time>
      </trkpt>
      <trkpt lat="48.786384" lon="-1.173841">
        <ele>190.921</ele>
        <time>2026-08-24T14:17:14.999Z</time>
      </trkpt>
      <trkpt lat="48.786385" lon="-1.173865">
        <ele>190.903</ele>
        <time>2026-08-24T14:17:15.999Z</time>
      </trkpt>
      <trkpt lat="48.786385" lon="-1.173887">
        <ele>190.909</ele>
        <time>2026-08-24T14:17:16.999Z</time>
      </trkpt>
      <trkpt lat="48.786387" lon="-1.173908">
        <ele>190.913</ele>
        <time>2026-08-24T14:17:17.999Z</time>
      </trkpt>
      <trkpt lat="48.786387" lon="-1.173924">
        <ele>190.939</ele>
        <time>2026-08-24T14:17:18.999Z</time>
      </trkpt>
      <trkpt lat="48.786385" lon="-1.173943">
        <ele>190.932</ele>
        <time>2026-08-24T14:17:20.999Z</time>
      </trkpt>
      <trkpt lat="48.786381" lon="-1.173961">
        <ele>190.839</ele>
        <time>2026-08-24T14:17:21.999Z</time>
      </trkpt>
      <trkpt lat="48.786374" lon="-1.173984">
        <ele>190.847</ele>
        <time>2026-08-24T14:17:22.999Z</time>
      </trkpt>
      <trkpt lat="48.786373" lon="-1.174002">
        <ele>190.835</ele>
        <time>2026-08-24T14:17:23.999Z</time>
      </trkpt>
      <trkpt lat="48.786371" lon="-1.174034">
        <ele>190.879</ele>
        <time>2026-08-24T14:17:25.999Z</time>
      </trkpt>
      <trkpt lat="48.786372" lon="-1.174054">
        <ele>190.856</ele>
        <time>2026-08-24T14:17:26.999Z</time>
      </trkpt>
      <trkpt lat="48.786368" lon="-1.174070">
        <ele>190.858</ele>
        <time>2026-08-24T14:17:27.999Z</time>
      </trkpt>
      <trkpt lat="48.786363" lon="-1.174089">
        <ele>190.741</ele>
        <time>2026-08-24T14:17:28.999Z</time>
      </trkpt>
      <trkpt lat="48.786359" lon="-1.174110">
        <ele>190.781</ele>
        <time>2026-08-24T14:17:29.999Z</time>
      </trkpt>
      <trkpt lat="48.786357" lon="-1.174130">
        <ele>190.709</ele>
        <time>2026-08-24T14:17:30.999Z</time>
      </trkpt>
      <trkpt lat="48.786351" lon="-1.174156">
        <ele>190.709</ele>
        <time>2026-08-24T14:17:32.999Z</time>
      </trkpt>
      <trkpt lat="48.786340" lon="-1.174185">
        <ele>190.636</ele>
        <time>2026-08-24T14:17:34.999Z</time>
      </trkpt>
      <trkpt lat="48.786335" lon="-1.174203">
        <ele>190.452</ele>
        <time>2026-08-24T14:17:35.999Z</time>
      </trkpt>
      <trkpt lat="48.786330" lon="-1.174224">
        <ele>190.315</ele>
        <time>2026-08-24T14:17:36.999Z</time>
      </trkpt>
      <trkpt lat="48.786326" lon="-1.174242">
        <ele>190.242</ele>
        <time>2026-08-24T14:17:37.999Z</time>
      </trkpt>
      <trkpt lat="48.786320" lon="-1.174257">
        <ele>190.160</ele>
        <time>2026-08-24T14:17:38.999Z</time>
      </trkpt>
      <trkpt lat="48.786316" lon="-1.174275">
        <ele>190.188</ele>
        <time>2026-08-24T14:17:39.999Z</time>
      </trkpt>
      <trkpt lat="48.786312" lon="-1.174291">
        <ele>190.172</ele>
        <time>2026-08-24T14:17:40.999Z</time>
      </trkpt>
      <trkpt lat="48.786311" lon="-1.174306">
        <ele>190.139</ele>
        <time>2026-08-24T14:17:41.999Z</time>
      </trkpt>
      <trkpt lat="48.786307" lon="-1.174320">
        <ele>190.071</ele>
        <time>2026-08-24T14:17:42.999Z</time>
      </trkpt>
      <trkpt lat="48.786302" lon="-1.174333">
        <ele>189.932</ele>
        <time>2026-08-24T14:17:43.999Z</time>
      </trkpt>
      <trkpt lat="48.786296" lon="-1.174350">
        <ele>189.892</ele>
        <time>2026-08-24T14:17:44.999Z</time>
      </trkpt>
      <trkpt lat="48.786292" lon="-1.174368">
        <ele>189.811</ele>
        <time>2026-08-24T14:17:45.999Z</time>
      </trkpt>
      <trkpt lat="48.786288" lon="-1.174391">
        <ele>189.809</ele>
        <time>2026-08-24T14:17:46.999Z</time>
      </trkpt>
      <trkpt lat="48.786283" lon="-1.174414">
        <ele>189.865</ele>
        <time>2026-08-24T14:17:47.999Z</time>
      </trkpt>
      <trkpt lat="48.786276" lon="-1.174431">
        <ele>189.711</ele>
        <time>2026-08-24T14:17:48.999Z</time>
      </trkpt>
      <trkpt lat="48.786268" lon="-1.174442">
        <ele>189.784</ele>
        <time>2026-08-24T14:17:49.999Z</time>
      </trkpt>
      <trkpt lat="48.786261" lon="-1.174459">
        <ele>189.681</ele>
        <time>2026-08-24T14:17:50.999Z</time>
      </trkpt>
      <trkpt lat="48.786253" lon="-1.174471">
        <ele>189.649</ele>
        <time>2026-08-24T14:17:51.999Z</time>
      </trkpt>
      <trkpt lat="48.786255" lon="-1.174492">
        <ele>189.547</ele>
        <time>2026-08-24T14:17:54Z</time>
      </trkpt>
      <trkpt lat="48.786252" lon="-1.174511">
        <ele>189.421</ele>
        <time>2026-08-24T14:17:55Z</time>
      </trkpt>
      <trkpt lat="48.786247" lon="-1.174534">
        <ele>189.428</ele>
        <time>2026-08-24T14:17:56Z</time>
      </trkpt>
      <trkpt lat="48.786240" lon="-1.174555">
        <ele>189.440</ele>
        <time>2026-08-24T14:17:57Z</time>
      </trkpt>
      <trkpt lat="48.786232" lon="-1.174571">
        <ele>189.451</ele>
        <time>2026-08-24T14:17:58Z</time>
      </trkpt>
      <trkpt lat="48.786225" lon="-1.174586">
        <ele>189.201</ele>
        <time>2026-08-24T14:17:59Z</time>
      </trkpt>
      <trkpt lat="48.786220" lon="-1.174600">
        <ele>189.011</ele>
        <time>2026-08-24T14:18:00Z</time>
      </trkpt>
      <trkpt lat="48.786214" lon="-1.174614">
        <ele>188.809</ele>
        <time>2026-08-24T14:18:01Z</time>
      </trkpt>
      <trkpt lat="48.786209" lon="-1.174631">
        <ele>188.577</ele>
        <time>2026-08-24T14:18:02Z</time>
      </trkpt>
      <trkpt lat="48.786204" lon="-1.174654">
        <ele>188.343</ele>
        <time>2026-08-24T14:18:03Z</time>
      </trkpt>
      <trkpt lat="48.786198" lon="-1.174670">
        <ele>188.266</ele>
        <time>2026-08-24T14:18:04Z</time>
      </trkpt>
      <trkpt lat="48.786193" lon="-1.174688">
        <ele>188.263</ele>
        <time>2026-08-24T14:18:05Z</time>
      </trkpt>
      <trkpt lat="48.786185" lon="-1.174703">
        <ele>188.171</ele>
        <time>2026-08-24T14:18:06Z</time>
      </trkpt>
      <trkpt lat="48.786176" lon="-1.174726">
        <ele>188.149</ele>
        <time>2026-08-24T14:18:08Z</time>
      </trkpt>
      <trkpt lat="48.786172" lon="-1.174743">
        <ele>188.173</ele>
        <time>2026-08-24T14:18:09Z</time>
      </trkpt>
      <trkpt lat="48.786167" lon="-1.174759">
        <ele>188.080</ele>
        <time>2026-08-24T14:18:10Z</time>
      </trkpt>
      <trkpt lat="48.786162" lon="-1.174774">
        <ele>187.932</ele>
        <time>2026-08-24T14:18:11Z</time>
      </trkpt>
      <trkpt lat="48.786156" lon="-1.174785">
        <ele>187.841</ele>
        <time>2026-08-24T14:18:12Z</time>
      </trkpt>
      <trkpt lat="48.786144" lon="-1.174808">
        <ele>187.881</ele>
        <time>2026-08-24T14:18:14Z</time>
      </trkpt>
      <trkpt lat="48.786138" lon="-1.174823">
        <ele>187.709</ele>
        <time>2026-08-24T14:18:15Z</time>
      </trkpt>
      <trkpt lat="48.786133" lon="-1.174837">
        <ele>187.709</ele>
        <time>2026-08-24T14:18:16Z</time>
      </trkpt>
      <trkpt lat="48.786126" lon="-1.174851">
        <ele>187.726</ele>
        <time>2026-08-24T14:18:17Z</time>
      </trkpt>
      <trkpt lat="48.786121" lon="-1.174867">
        <ele>187.782</ele>
        <time>2026-08-24T14:18:18Z</time>
      </trkpt>
      <trkpt lat="48.786113" lon="-1.174884">
        <ele>187.795</ele>
        <time>2026-08-24T14:18:19Z</time>
      </trkpt>
      <trkpt lat="48.786103" lon="-1.174899">
        <ele>187.642</ele>
        <time>2026-08-24T14:18:20Z</time>
      </trkpt>
      <trkpt lat="48.786093" lon="-1.174930">
        <ele>187.610</ele>
        <time>2026-08-24T14:18:22Z</time>
      </trkpt>
      <trkpt lat="48.786089" lon="-1.174947">
        <ele>187.648</ele>
        <time>2026-08-24T14:18:23Z</time>
      </trkpt>
      <trkpt lat="48.786086" lon="-1.174965">
        <ele>187.632</ele>
        <time>2026-08-24T14:18:24Z</time>
      </trkpt>
      <trkpt lat="48.786083" lon="-1.174979">
        <ele>187.699</ele>
        <time>2026-08-24T14:18:25Z</time>
      </trkpt>
      <trkpt lat="48.786075" lon="-1.174990">
        <ele>187.611</ele>
        <time>2026-08-24T14:18:26Z</time>
      </trkpt>
      <trkpt lat="48.786068" lon="-1.175000">
        <ele>187.695</ele>
        <time>2026-08-24T14:18:27Z</time>
      </trkpt>
      <trkpt lat="48.786058" lon="-1.175011">
        <ele>187.649</ele>
        <time>2026-08-24T14:18:28Z</time>
      </trkpt>
      <trkpt lat="48.786049" lon="-1.175028">
        <ele>187.523</ele>
        <time>2026-08-24T14:18:29Z</time>
      </trkpt>
      <trkpt lat="48.786043" lon="-1.175049">
        <ele>187.509</ele>
        <time>2026-08-24T14:18:30Z</time>
      </trkpt>
      <trkpt lat="48.786038" lon="-1.175068">
        <ele>187.551</ele>
        <time>2026-08-24T14:18:31Z</time>
      </trkpt>
      <trkpt lat="48.786031" lon="-1.175081">
        <ele>187.557</ele>
        <time>2026-08-24T14:18:32Z</time>
      </trkpt>
      <trkpt lat="48.786026" lon="-1.175094">
        <ele>187.590</ele>
        <time>2026-08-24T14:18:33Z</time>
      </trkpt>
      <trkpt lat="48.786018" lon="-1.175119">
        <ele>187.427</ele>
        <time>2026-08-24T14:18:35Z</time>
      </trkpt>
      <trkpt lat="48.786012" lon="-1.175138">
        <ele>187.445</ele>
        <time>2026-08-24T14:18:36Z</time>
      </trkpt>
      <trkpt lat="48.786010" lon="-1.175154">
        <ele>187.423</ele>
        <time>2026-08-24T14:18:37Z</time>
      </trkpt>
      <trkpt lat="48.786004" lon="-1.175176">
        <ele>187.197</ele>
        <time>2026-08-24T14:18:39Z</time>
      </trkpt>
      <trkpt lat="48.785994" lon="-1.175192">
        <ele>186.964</ele>
        <time>2026-08-24T14:18:40Z</time>
      </trkpt>
      <trkpt lat="48.785983" lon="-1.175213">
        <ele>186.956</ele>
        <time>2026-08-24T14:18:41Z</time>
      </trkpt>
      <trkpt lat="48.785976" lon="-1.175232">
        <ele>186.962</ele>
        <time>2026-08-24T14:18:42Z</time>
      </trkpt>
      <trkpt lat="48.785968" lon="-1.175250">
        <ele>186.883</ele>
        <time>2026-08-24T14:18:43Z</time>
      </trkpt>
      <trkpt lat="48.785960" lon="-1.175263">
        <ele>186.811</ele>
        <time>2026-08-24T14:18:44Z</time>
      </trkpt>
      <trkpt lat="48.785948" lon="-1.175286">
        <ele>186.809</ele>
        <time>2026-08-24T14:18:46Z</time>
      </trkpt>
      <trkpt lat="48.785945" lon="-1.175307">
        <ele>186.868</ele>
        <time>2026-08-24T14:18:47Z</time>
      </trkpt>
      <trkpt lat="48.785939" lon="-1.175328">
        <ele>186.744</ele>
        <time>2026-08-24T14:18:48Z</time>
      </trkpt>
      <trkpt lat="48.785934" lon="-1.175343">
        <ele>186.767</ele>
        <time>2026-08-24T14:18:49Z</time>
      </trkpt>
      <trkpt lat="48.785924" lon="-1.175369">
        <ele>186.634</ele>
        <time>2026-08-24T14:18:51Z</time>
      </trkpt>
      <trkpt lat="48.785916" lon="-1.175379">
        <ele>186.672</ele>
        <time>2026-08-24T14:18:52Z</time>
      </trkpt>
      <trkpt lat="48.785910" lon="-1.175392">
        <ele>186.550</ele>
        <time>2026-08-24T14:18:53Z</time>
      </trkpt>
      <trkpt lat="48.785902" lon="-1.175402">
        <ele>186.554</ele>
        <time>2026-08-24T14:18:54Z</time>
      </trkpt>
      <trkpt lat="48.785893" lon="-1.175415">
        <ele>186.421</ele>
        <time>2026-08-24T14:18:55Z</time>
      </trkpt>
      <trkpt lat="48.785887" lon="-1.175428">
        <ele>186.493</ele>
        <time>2026-08-24T14:18:56Z</time>
      </trkpt>
      <trkpt lat="48.785881" lon="-1.175440">
        <ele>186.413</ele>
        <time>2026-08-24T14:18:57Z</time>
      </trkpt>
      <trkpt lat="48.785874" lon="-1.175457">
        <ele>186.443</ele>
        <time>2026-08-24T14:18:58Z</time>
      </trkpt>
      <trkpt lat="48.785871" lon="-1.175471">
        <ele>186.407</ele>
        <time>2026-08-24T14:18:59Z</time>
      </trkpt>
      <trkpt lat="48.785865" lon="-1.175501">
        <ele>186.309</ele>
        <time>2026-08-24T14:19:01Z</time>
      </trkpt>
      <trkpt lat="48.785859" lon="-1.175520">
        <ele>186.373</ele>
        <time>2026-08-24T14:19:02Z</time>
      </trkpt>
      <trkpt lat="48.785854" lon="-1.175531">
        <ele>186.259</ele>
        <time>2026-08-24T14:19:03Z</time>
      </trkpt>
      <trkpt lat="48.785847" lon="-1.175541">
        <ele>186.162</ele>
        <time>2026-08-24T14:19:04Z</time>
      </trkpt>
      <trkpt lat="48.785840" lon="-1.175554">
        <ele>186.049</ele>
        <time>2026-08-24T14:19:05Z</time>
      </trkpt>
      <trkpt lat="48.785834" lon="-1.175568">
        <ele>185.977</ele>
        <time>2026-08-24T14:19:06Z</time>
      </trkpt>
      <trkpt lat="48.785826" lon="-1.175587">
        <ele>185.725</ele>
        <time>2026-08-24T14:19:07Z</time>
      </trkpt>
      <trkpt lat="48.785820" lon="-1.175604">
        <ele>185.319</ele>
        <time>2026-08-24T14:19:08Z</time>
      </trkpt>
      <trkpt lat="48.785817" lon="-1.175620">
        <ele>185.146</ele>
        <time>2026-08-24T14:19:09Z</time>
      </trkpt>
      <trkpt lat="48.785812" lon="-1.175637">
        <ele>185.098</ele>
        <time>2026-08-24T14:19:10Z</time>
      </trkpt>
      <trkpt lat="48.785804" lon="-1.175650">
        <ele>185.047</ele>
        <time>2026-08-24T14:19:11Z</time>
      </trkpt>
      <trkpt lat="48.785792" lon="-1.175675">
        <ele>185.029</ele>
        <time>2026-08-24T14:19:13Z</time>
      </trkpt>
      <trkpt lat="48.785785" lon="-1.175691">
        <ele>185.021</ele>
        <time>2026-08-24T14:19:14Z</time>
      </trkpt>
      <trkpt lat="48.785778" lon="-1.175711">
        <ele>184.909</ele>
        <time>2026-08-24T14:19:15Z</time>
      </trkpt>
      <trkpt lat="48.785773" lon="-1.175727">
        <ele>184.746</ele>
        <time>2026-08-24T14:19:16Z</time>
      </trkpt>
      <trkpt lat="48.785765" lon="-1.175742">
        <ele>184.682</ele>
        <time>2026-08-24T14:19:17Z</time>
      </trkpt>
      <trkpt lat="48.785758" lon="-1.175752">
        <ele>184.655</ele>
        <time>2026-08-24T14:19:18Z</time>
      </trkpt>
      <trkpt lat="48.785753" lon="-1.175766">
        <ele>184.662</ele>
        <time>2026-08-24T14:19:19Z</time>
      </trkpt>
      <trkpt lat="48.785746" lon="-1.175783">
        <ele>184.530</ele>
        <time>2026-08-24T14:19:20Z</time>
      </trkpt>
      <trkpt lat="48.785738" lon="-1.175801">
        <ele>184.418</ele>
        <time>2026-08-24T14:19:21Z</time>
      </trkpt>
      <trkpt lat="48.785734" lon="-1.175818">
        <ele>184.332</ele>
        <time>2026-08-24T14:19:22Z</time>
      </trkpt>
      <trkpt lat="48.785726" lon="-1.175828">
        <ele>184.369</ele>
        <time>2026-08-24T14:19:23Z</time>
      </trkpt>
      <trkpt lat="48.785714" lon="-1.175858">
        <ele>184.371</ele>
        <time>2026-08-24T14:19:25Z</time>
      </trkpt>
      <trkpt lat="48.785706" lon="-1.175872">
        <ele>184.363</ele>
        <time>2026-08-24T14:19:26Z</time>
      </trkpt>
      <trkpt lat="48.785697" lon="-1.175889">
        <ele>184.344</ele>
        <time>2026-08-24T14:19:27Z</time>
      </trkpt>
      <trkpt lat="48.785691" lon="-1.175904">
        <ele>184.218</ele>
        <time>2026-08-24T14:19:28Z</time>
      </trkpt>
      <trkpt lat="48.785685" lon="-1.175916">
        <ele>184.109</ele>
        <time>2026-08-24T14:19:29Z</time>
      </trkpt>
      <trkpt lat="48.785676" lon="-1.175940">
        <ele>184.168</ele>
        <time>2026-08-24T14:19:31Z</time>
      </trkpt>
      <trkpt lat="48.785671" lon="-1.175955">
        <ele>184.054</ele>
        <time>2026-08-24T14:19:32Z</time>
      </trkpt>
      <trkpt lat="48.785666" lon="-1.175973">
        <ele>184.047</ele>
        <time>2026-08-24T14:19:33Z</time>
      </trkpt>
      <trkpt lat="48.785660" lon="-1.175993">
        <ele>184.024</ele>
        <time>2026-08-24T14:19:34Z</time>
      </trkpt>
      <trkpt lat="48.785653" lon="-1.176009">
        <ele>183.932</ele>
        <time>2026-08-24T14:19:35Z</time>
      </trkpt>
      <trkpt lat="48.785642" lon="-1.176035">
        <ele>183.980</ele>
        <time>2026-08-24T14:19:37Z</time>
      </trkpt>
      <trkpt lat="48.785632" lon="-1.176061">
        <ele>183.924</ele>
        <time>2026-08-24T14:19:39Z</time>
      </trkpt>
      <trkpt lat="48.785625" lon="-1.176080">
        <ele>183.831</ele>
        <time>2026-08-24T14:19:40Z</time>
      </trkpt>
      <trkpt lat="48.785621" lon="-1.176095">
        <ele>183.843</ele>
        <time>2026-08-24T14:19:41Z</time>
      </trkpt>
      <trkpt lat="48.785612" lon="-1.176101">
        <ele>183.768</ele>
        <time>2026-08-24T14:19:42Z</time>
      </trkpt>
      <trkpt lat="48.785606" lon="-1.176126">
        <ele>183.742</ele>
        <time>2026-08-24T14:19:44Z</time>
      </trkpt>
      <trkpt lat="48.785599" lon="-1.176146">
        <ele>183.626</ele>
        <time>2026-08-24T14:19:45Z</time>
      </trkpt>
      <trkpt lat="48.785593" lon="-1.176162">
        <ele>183.609</ele>
        <time>2026-08-24T14:19:46Z</time>
      </trkpt>
      <trkpt lat="48.785586" lon="-1.176176">
        <ele>183.618</ele>
        <time>2026-08-24T14:19:47Z</time>
      </trkpt>
      <trkpt lat="48.785578" lon="-1.176187">
        <ele>183.514</ele>
        <time>2026-08-24T14:19:48Z</time>
      </trkpt>
      <trkpt lat="48.785572" lon="-1.176200">
        <ele>183.567</ele>
        <time>2026-08-24T14:19:49Z</time>
      </trkpt>
      <trkpt lat="48.785565" lon="-1.176216">
        <ele>183.354</ele>
        <time>2026-08-24T14:19:50Z</time>
      </trkpt>
      <trkpt lat="48.785558" lon="-1.176233">
        <ele>183.232</ele>
        <time>2026-08-24T14:19:51Z</time>
      </trkpt>
      <trkpt lat="48.785552" lon="-1.176250">
        <ele>183.160</ele>
        <time>2026-08-24T14:19:52Z</time>
      </trkpt>
      <trkpt lat="48.785548" lon="-1.176271">
        <ele>183.074</ele>
        <time>2026-08-24T14:19:53Z</time>
      </trkpt>
      <trkpt lat="48.785544" lon="-1.176285">
        <ele>182.951</ele>
        <time>2026-08-24T14:19:54Z</time>
      </trkpt>
      <trkpt lat="48.785539" lon="-1.176296">
        <ele>182.783</ele>
        <time>2026-08-24T14:19:55Z</time>
      </trkpt>
      <trkpt lat="48.785529" lon="-1.176315">
        <ele>182.466</ele>
        <time>2026-08-24T14:19:57Z</time>
      </trkpt>
      <trkpt lat="48.785523" lon="-1.176330">
        <ele>182.129</ele>
        <time>2026-08-24T14:19:58Z</time>
      </trkpt>
      <trkpt lat="48.785520" lon="-1.176347">
        <ele>181.721</ele>
        <time>2026-08-24T14:19:59Z</time>
      </trkpt>
      <trkpt lat="48.785513" lon="-1.176362">
        <ele>181.509</ele>
        <time>2026-08-24T14:20:00Z</time>
      </trkpt>
      <trkpt lat="48.785504" lon="-1.176377">
        <ele>181.428</ele>
        <time>2026-08-24T14:20:01Z</time>
      </trkpt>
      <trkpt lat="48.785498" lon="-1.176388">
        <ele>181.334</ele>
        <time>2026-08-24T14:20:02Z</time>
      </trkpt>
      <trkpt lat="48.785491" lon="-1.176400">
        <ele>181.317</ele>
        <time>2026-08-24T14:20:03Z</time>
      </trkpt>
      <trkpt lat="48.785485" lon="-1.176414">
        <ele>181.284</ele>
        <time>2026-08-24T14:20:04Z</time>
      </trkpt>
      <trkpt lat="48.785476" lon="-1.176434">
        <ele>181.262</ele>
        <time>2026-08-24T14:20:05Z</time>
      </trkpt>
      <trkpt lat="48.785467" lon="-1.176450">
        <ele>181.280</ele>
        <time>2026-08-24T14:20:06Z</time>
      </trkpt>
      <trkpt lat="48.785461" lon="-1.176464">
        <ele>181.214</ele>
        <time>2026-08-24T14:20:07Z</time>
      </trkpt>
      <trkpt lat="48.785454" lon="-1.176473">
        <ele>181.251</ele>
        <time>2026-08-24T14:20:08Z</time>
      </trkpt>
      <trkpt lat="48.785450" lon="-1.176487">
        <ele>181.253</ele>
        <time>2026-08-24T14:20:09Z</time>
      </trkpt>
      <trkpt lat="48.785444" lon="-1.176502">
        <ele>181.264</ele>
        <time>2026-08-24T14:20:10Z</time>
      </trkpt>
      <trkpt lat="48.785437" lon="-1.176521">
        <ele>181.106</ele>
        <time>2026-08-24T14:20:11Z</time>
      </trkpt>
      <trkpt lat="48.785432" lon="-1.176534">
        <ele>181.116</ele>
        <time>2026-08-24T14:20:12Z</time>
      </trkpt>
      <trkpt lat="48.785428" lon="-1.176549">
        <ele>181.109</ele>
        <time>2026-08-24T14:20:13Z</time>
      </trkpt>
      <trkpt lat="48.785426" lon="-1.176566">
        <ele>181.198</ele>
        <time>2026-08-24T14:20:14Z</time>
      </trkpt>
      <trkpt lat="48.785414" lon="-1.176591">
        <ele>181.034</ele>
        <time>2026-08-24T14:20:16Z</time>
      </trkpt>
      <trkpt lat="48.785410" lon="-1.176615">
        <ele>181.097</ele>
        <time>2026-08-24T14:20:17Z</time>
      </trkpt>
      <trkpt lat="48.785404" lon="-1.176638">
        <ele>180.984</ele>
        <time>2026-08-24T14:20:18Z</time>
      </trkpt>
      <trkpt lat="48.785399" lon="-1.176655">
        <ele>180.952</ele>
        <time>2026-08-24T14:20:19Z</time>
      </trkpt>
      <trkpt lat="48.785391" lon="-1.176676">
        <ele>180.910</ele>
        <time>2026-08-24T14:20:21Z</time>
      </trkpt>
      <trkpt lat="48.785386" lon="-1.176689">
        <ele>180.874</ele>
        <time>2026-08-24T14:20:22Z</time>
      </trkpt>
      <trkpt lat="48.785389" lon="-1.176703">
        <ele>180.811</ele>
        <time>2026-08-24T14:20:23Z</time>
      </trkpt>
      <trkpt lat="48.785397" lon="-1.176719">
        <ele>180.853</ele>
        <time>2026-08-24T14:20:25Z</time>
      </trkpt>
      <trkpt lat="48.785388" lon="-1.176714">
        <ele>180.849</ele>
        <time>2026-08-24T14:20:43Z</time>
      </trkpt>
      <trkpt lat="48.785394" lon="-1.176704">
        <ele>180.802</ele>
        <time>2026-08-24T14:21:09Z</time>
      </trkpt>
      <trkpt lat="48.785394" lon="-1.176683">
        <ele>180.822</ele>
        <time>2026-08-24T14:21:18Z</time>
      </trkpt>
      <trkpt lat="48.785400" lon="-1.176695">
        <ele>180.809</ele>
        <time>2026-08-24T14:21:23Z</time>
      </trkpt>
      <trkpt lat="48.785409" lon="-1.176715">
        <ele>180.836</ele>
        <time>2026-08-24T14:21:28Z</time>
      </trkpt>
      <trkpt lat="48.785420" lon="-1.176729">
        <ele>180.822</ele>
        <time>2026-08-24T14:21:29Z</time>
      </trkpt>
      <trkpt lat="48.785426" lon="-1.176745">
        <ele>180.875</ele>
        <time>2026-08-24T14:21:30Z</time>
      </trkpt>
      <trkpt lat="48.785432" lon="-1.176756">
        <ele>180.832</ele>
        <time>2026-08-24T14:21:31Z</time>
      </trkpt>
      <trkpt lat="48.785440" lon="-1.176769">
        <ele>180.790</ele>
        <time>2026-08-24T14:21:32Z</time>
      </trkpt>
      <trkpt lat="48.785449" lon="-1.176783">
        <ele>180.798</ele>
        <time>2026-08-24T14:21:33Z</time>
      </trkpt>
      <trkpt lat="48.785456" lon="-1.176800">
        <ele>180.682</ele>
        <time>2026-08-24T14:21:34Z</time>
      </trkpt>
      <trkpt lat="48.785466" lon="-1.176812">
        <ele>180.569</ele>
        <time>2026-08-24T14:21:35Z</time>
      </trkpt>
      <trkpt lat="48.785476" lon="-1.176827">
        <ele>180.581</ele>
        <time>2026-08-24T14:21:36Z</time>
      </trkpt>
      <trkpt lat="48.785484" lon="-1.176840">
        <ele>180.576</ele>
        <time>2026-08-24T14:21:37Z</time>
      </trkpt>
      <trkpt lat="48.785492" lon="-1.176852">
        <ele>180.490</ele>
        <time>2026-08-24T14:21:38Z</time>
      </trkpt>
      <trkpt lat="48.785499" lon="-1.176862">
        <ele>180.419</ele>
        <time>2026-08-24T14:21:39Z</time>
      </trkpt>
      <trkpt lat="48.785505" lon="-1.176877">
        <ele>180.409</ele>
        <time>2026-08-24T14:21:40Z</time>
      </trkpt>
      <trkpt lat="48.785510" lon="-1.176892">
        <ele>180.359</ele>
        <time>2026-08-24T14:21:41Z</time>
      </trkpt>
      <trkpt lat="48.785512" lon="-1.176907">
        <ele>180.075</ele>
        <time>2026-08-24T14:21:42Z</time>
      </trkpt>
      <trkpt lat="48.785505" lon="-1.176916">
        <ele>179.798</ele>
        <time>2026-08-24T14:21:43Z</time>
      </trkpt>
      <trkpt lat="48.785495" lon="-1.176917">
        <ele>179.665</ele>
        <time>2026-08-24T14:21:44Z</time>
      </trkpt>
      <trkpt lat="48.785486" lon="-1.176912">
        <ele>179.583</ele>
        <time>2026-08-24T14:21:46Z</time>
      </trkpt>
      <trkpt lat="48.785495" lon="-1.176924">
        <ele>179.551</ele>
        <time>2026-08-24T14:21:57Z</time>
      </trkpt>
      <trkpt lat="48.785501" lon="-1.176940">
        <ele>179.565</ele>
        <time>2026-08-24T14:21:58Z</time>
      </trkpt>
      <trkpt lat="48.785514" lon="-1.176954">
        <ele>179.512</ele>
        <time>2026-08-24T14:21:59Z</time>
      </trkpt>
      <trkpt lat="48.785526" lon="-1.176966">
        <ele>179.534</ele>
        <time>2026-08-24T14:22:00Z</time>
      </trkpt>
      <trkpt lat="48.785536" lon="-1.176980">
        <ele>179.511</ele>
        <time>2026-08-24T14:22:01Z</time>
      </trkpt>
      <trkpt lat="48.785546" lon="-1.176995">
        <ele>179.521</ele>
        <time>2026-08-24T14:22:02Z</time>
      </trkpt>
      <trkpt lat="48.785553" lon="-1.177005">
        <ele>179.503</ele>
        <time>2026-08-24T14:22:03Z</time>
      </trkpt>
      <trkpt lat="48.785561" lon="-1.177013">
        <ele>179.509</ele>
        <time>2026-08-24T14:22:04Z</time>
      </trkpt>
      <trkpt lat="48.785567" lon="-1.177028">
        <ele>179.563</ele>
        <time>2026-08-24T14:22:05Z</time>
      </trkpt>
      <trkpt lat="48.785572" lon="-1.177050">
        <ele>179.519</ele>
        <time>2026-08-24T14:22:07Z</time>
      </trkpt>
      <trkpt lat="48.785571" lon="-1.177070">
        <ele>179.472</ele>
        <time>2026-08-24T14:22:09Z</time>
      </trkpt>
      <trkpt lat="48.785577" lon="-1.177085">
        <ele>179.489</ele>
        <time>2026-08-24T14:22:10Z</time>
      </trkpt>
      <trkpt lat="48.785583" lon="-1.177095">
        <ele>179.417</ele>
        <time>2026-08-24T14:22:11Z</time>
      </trkpt>
      <trkpt lat="48.785596" lon="-1.177097">
        <ele>179.435</ele>
        <time>2026-08-24T14:22:13Z</time>
      </trkpt>
      <trkpt lat="48.785610" lon="-1.177096">
        <ele>179.429</ele>
        <time>2026-08-24T14:22:16Z</time>
      </trkpt>
      <trkpt lat="48.785617" lon="-1.177118">
        <ele>179.446</ele>
        <time>2026-08-24T14:22:24Z</time>
      </trkpt>
      <trkpt lat="48.785616" lon="-1.177139">
        <ele>179.578</ele>
        <time>2026-08-24T14:22:25Z</time>
      </trkpt>
      <trkpt lat="48.785615" lon="-1.177153">
        <ele>179.561</ele>
        <time>2026-08-24T14:22:26Z</time>
      </trkpt>
      <trkpt lat="48.785615" lon="-1.177174">
        <ele>179.521</ele>
        <time>2026-08-24T14:22:27Z</time>
      </trkpt>
      <trkpt lat="48.785617" lon="-1.177207">
        <ele>179.613</ele>
        <time>2026-08-24T14:22:29Z</time>
      </trkpt>
      <trkpt lat="48.785617" lon="-1.177228">
        <ele>179.609</ele>
        <time>2026-08-24T14:22:30Z</time>
      </trkpt>
      <trkpt lat="48.785616" lon="-1.177243">
        <ele>179.658</ele>
        <time>2026-08-24T14:22:31Z</time>
      </trkpt>
      <trkpt lat="48.785621" lon="-1.177268">
        <ele>179.614</ele>
        <time>2026-08-24T14:22:33Z</time>
      </trkpt>
      <trkpt lat="48.785624" lon="-1.177282">
        <ele>179.697</ele>
        <time>2026-08-24T14:22:34Z</time>
      </trkpt>
      <trkpt lat="48.785630" lon="-1.177295">
        <ele>179.624</ele>
        <time>2026-08-24T14:22:35Z</time>
      </trkpt>
      <trkpt lat="48.785640" lon="-1.177306">
        <ele>179.662</ele>
        <time>2026-08-24T14:22:37Z</time>
      </trkpt>
      <trkpt lat="48.785655" lon="-1.177307">
        <ele>179.630</ele>
        <time>2026-08-24T14:22:39Z</time>
      </trkpt>
      <trkpt lat="48.785664" lon="-1.177308">
        <ele>179.654</ele>
        <time>2026-08-24T14:22:41Z</time>
      </trkpt>
      <trkpt lat="48.785675" lon="-1.177316">
        <ele>179.681</ele>
        <time>2026-08-24T14:22:48Z</time>
      </trkpt>
      <trkpt lat="48.785686" lon="-1.177317">
        <ele>179.663</ele>
        <time>2026-08-24T14:22:49Z</time>
      </trkpt>
      <trkpt lat="48.785704" lon="-1.177305">
        <ele>179.648</ele>
        <time>2026-08-24T14:22:51Z</time>
      </trkpt>
      <trkpt lat="48.785710" lon="-1.177294">
        <ele>179.661</ele>
        <time>2026-08-24T14:22:52Z</time>
      </trkpt>
      <trkpt lat="48.785714" lon="-1.177275">
        <ele>179.517</ele>
        <time>2026-08-24T14:22:55Z</time>
      </trkpt>
      <trkpt lat="48.785716" lon="-1.177240">
        <ele>179.509</ele>
        <time>2026-08-24T14:22:57Z</time>
      </trkpt>
      <trkpt lat="48.785715" lon="-1.177219">
        <ele>179.336</ele>
        <time>2026-08-24T14:22:58Z</time>
      </trkpt>
      <trkpt lat="48.785715" lon="-1.177204">
        <ele>179.232</ele>
        <time>2026-08-24T14:22:59Z</time>
      </trkpt>
      <trkpt lat="48.785714" lon="-1.177187">
        <ele>179.275</ele>
        <time>2026-08-24T14:23:00Z</time>
      </trkpt>
      <trkpt lat="48.785713" lon="-1.177170">
        <ele>179.112</ele>
        <time>2026-08-24T14:23:01Z</time>
      </trkpt>
      <trkpt lat="48.785712" lon="-1.177149">
        <ele>179.170</ele>
        <time>2026-08-24T14:23:02Z</time>
      </trkpt>
      <trkpt lat="48.785715" lon="-1.177130">
        <ele>179.148</ele>
        <time>2026-08-24T14:23:04Z</time>
      </trkpt>
      <trkpt lat="48.785719" lon="-1.177111">
        <ele>179.022</ele>
        <time>2026-08-24T14:23:06Z</time>
      </trkpt>
      <trkpt lat="48.785734" lon="-1.177103">
        <ele>178.989</ele>
        <time>2026-08-24T14:23:07Z</time>
      </trkpt>
      <trkpt lat="48.785747" lon="-1.177094">
        <ele>178.731</ele>
        <time>2026-08-24T14:23:08Z</time>
      </trkpt>
      <trkpt lat="48.785754" lon="-1.177082">
        <ele>178.734</ele>
        <time>2026-08-24T14:23:09Z</time>
      </trkpt>
      <trkpt lat="48.785759" lon="-1.177067">
        <ele>178.755</ele>
        <time>2026-08-24T14:23:10Z</time>
      </trkpt>
      <trkpt lat="48.785767" lon="-1.177047">
        <ele>178.710</ele>
        <time>2026-08-24T14:23:12Z</time>
      </trkpt>
      <trkpt lat="48.785767" lon="-1.177028">
        <ele>178.709</ele>
        <time>2026-08-24T14:23:13Z</time>
      </trkpt>
      <trkpt lat="48.785765" lon="-1.177009">
        <ele>178.735</ele>
        <time>2026-08-24T14:23:14Z</time>
      </trkpt>
      <trkpt lat="48.785767" lon="-1.176991">
        <ele>178.791</ele>
        <time>2026-08-24T14:23:16Z</time>
      </trkpt>
      <trkpt lat="48.785759" lon="-1.176982">
        <ele>178.714</ele>
        <time>2026-08-24T14:23:17Z</time>
      </trkpt>
      <trkpt lat="48.785749" lon="-1.176969">
        <ele>178.731</ele>
        <time>2026-08-24T14:23:19Z</time>
      </trkpt>
      <trkpt lat="48.785743" lon="-1.176958">
        <ele>178.749</ele>
        <time>2026-08-24T14:23:20Z</time>
      </trkpt>
      <trkpt lat="48.785735" lon="-1.176950">
        <ele>178.717</ele>
        <time>2026-08-24T14:23:21Z</time>
      </trkpt>
      <trkpt lat="48.785738" lon="-1.176936">
        <ele>178.781</ele>
        <time>2026-08-24T14:23:22Z</time>
      </trkpt>
      <trkpt lat="48.785733" lon="-1.176924">
        <ele>178.918</ele>
        <time>2026-08-24T14:23:23Z</time>
      </trkpt>
      <trkpt lat="48.785738" lon="-1.176903">
        <ele>179.010</ele>
        <time>2026-08-24T14:23:24Z</time>
      </trkpt>
      <trkpt lat="48.785744" lon="-1.176882">
        <ele>179.043</ele>
        <time>2026-08-24T14:23:25Z</time>
      </trkpt>
      <trkpt lat="48.785745" lon="-1.176866">
        <ele>179.064</ele>
        <time>2026-08-24T14:23:26Z</time>
      </trkpt>
      <trkpt lat="48.785737" lon="-1.176847">
        <ele>179.310</ele>
        <time>2026-08-24T14:23:27Z</time>
      </trkpt>
      <trkpt lat="48.785730" lon="-1.176835">
        <ele>179.409</ele>
        <time>2026-08-24T14:23:28Z</time>
      </trkpt>
      <trkpt lat="48.785719" lon="-1.176831">
        <ele>179.426</ele>
        <time>2026-08-24T14:23:29Z</time>
      </trkpt>
      <trkpt lat="48.785706" lon="-1.176836">
        <ele>179.452</ele>
        <time>2026-08-24T14:23:30Z</time>
      </trkpt>
      <trkpt lat="48.785695" lon="-1.176838">
        <ele>179.465</ele>
        <time>2026-08-24T14:23:31Z</time>
      </trkpt>
      <trkpt lat="48.785684" lon="-1.176833">
        <ele>179.492</ele>
        <time>2026-08-24T14:23:33Z</time>
      </trkpt>
      <trkpt lat="48.785674" lon="-1.176827">
        <ele>179.520</ele>
        <time>2026-08-24T14:23:34Z</time>
      </trkpt>
      <trkpt lat="48.785665" lon="-1.176820">
        <ele>179.518</ele>
        <time>2026-08-24T14:23:35Z</time>
      </trkpt>
      <trkpt lat="48.785654" lon="-1.176817">
        <ele>179.642</ele>
        <time>2026-08-24T14:23:36Z</time>
      </trkpt>
      <trkpt lat="48.785642" lon="-1.176820">
        <ele>179.639</ele>
        <time>2026-08-24T14:23:37Z</time>
      </trkpt>
      <trkpt lat="48.785636" lon="-1.176836">
        <ele>179.691</ele>
        <time>2026-08-24T14:23:38Z</time>
      </trkpt>
      <trkpt lat="48.785632" lon="-1.176855">
        <ele>179.663</ele>
        <time>2026-08-24T14:23:39Z</time>
      </trkpt>
      <trkpt lat="48.785632" lon="-1.176871">
        <ele>179.644</ele>
        <time>2026-08-24T14:23:40Z</time>
      </trkpt>
      <trkpt lat="48.785630" lon="-1.176887">
        <ele>179.618</ele>
        <time>2026-08-24T14:23:44Z</time>
      </trkpt>
      <trkpt lat="48.785624" lon="-1.176899">
        <ele>179.609</ele>
        <time>2026-08-24T14:23:45Z</time>
      </trkpt>
      <trkpt lat="48.785618" lon="-1.176910">
        <ele>179.698</ele>
        <time>2026-08-24T14:23:46Z</time>
      </trkpt>
      <trkpt lat="48.785606" lon="-1.176934">
        <ele>179.674</ele>
        <time>2026-08-24T14:23:48Z</time>
      </trkpt>
      <trkpt lat="48.785599" lon="-1.176947">
        <ele>179.587</ele>
        <time>2026-08-24T14:23:49Z</time>
      </trkpt>
      <trkpt lat="48.785596" lon="-1.176965">
        <ele>179.524</ele>
        <time>2026-08-24T14:23:50Z</time>
      </trkpt>
      <trkpt lat="48.785594" lon="-1.176980">
        <ele>179.522</ele>
        <time>2026-08-24T14:23:51Z</time>
      </trkpt>
      <trkpt lat="48.785592" lon="-1.176997">
        <ele>179.550</ele>
        <time>2026-08-24T14:23:52Z</time>
      </trkpt>
      <trkpt lat="48.785592" lon="-1.177015">
        <ele>179.564</ele>
        <time>2026-08-24T14:23:53Z</time>
      </trkpt>
      <trkpt lat="48.785592" lon="-1.177031">
        <ele>179.561</ele>
        <time>2026-08-24T14:23:54Z</time>
      </trkpt>
      <trkpt lat="48.785592" lon="-1.177048">
        <ele>179.443</ele>
        <time>2026-08-24T14:23:55Z</time>
      </trkpt>
      <trkpt lat="48.785590" lon="-1.177070">
        <ele>179.493</ele>
        <time>2026-08-24T14:23:57Z</time>
      </trkpt>
      <trkpt lat="48.785587" lon="-1.177094">
        <ele>179.465</ele>
        <time>2026-08-24T14:23:59Z</time>
      </trkpt>
      <trkpt lat="48.785578" lon="-1.177088">
        <ele>179.421</ele>
        <time>2026-08-24T14:24:03Z</time>
      </trkpt>
      <trkpt lat="48.785587" lon="-1.177079">
        <ele>179.409</ele>
        <time>2026-08-24T14:24:08Z</time>
      </trkpt>
      <trkpt lat="48.785579" lon="-1.177096">
        <ele>179.421</ele>
        <time>2026-08-24T14:24:15Z</time>
      </trkpt>
      <trkpt lat="48.785571" lon="-1.177110">
        <ele>179.417</ele>
        <time>2026-08-24T14:24:16Z</time>
      </trkpt>
      <trkpt lat="48.785562" lon="-1.177126">
        <ele>179.490</ele>
        <time>2026-08-24T14:24:17Z</time>
      </trkpt>
      <trkpt lat="48.785555" lon="-1.177142">
        <ele>179.487</ele>
        <time>2026-08-24T14:24:18Z</time>
      </trkpt>
      <trkpt lat="48.785546" lon="-1.177150">
        <ele>179.425</ele>
        <time>2026-08-24T14:24:19Z</time>
      </trkpt>
      <trkpt lat="48.785536" lon="-1.177154">
        <ele>179.433</ele>
        <time>2026-08-24T14:24:20Z</time>
      </trkpt>
      <trkpt lat="48.785525" lon="-1.177157">
        <ele>179.547</ele>
        <time>2026-08-24T14:24:22Z</time>
      </trkpt>
      <trkpt lat="48.785515" lon="-1.177160">
        <ele>179.554</ele>
        <time>2026-08-24T14:24:23Z</time>
      </trkpt>
      <trkpt lat="48.785498" lon="-1.177168">
        <ele>179.556</ele>
        <time>2026-08-24T14:24:25Z</time>
      </trkpt>
      <trkpt lat="48.785484" lon="-1.177174">
        <ele>179.486</ele>
        <time>2026-08-24T14:24:26Z</time>
      </trkpt>
      <trkpt lat="48.785474" lon="-1.177185">
        <ele>179.460</ele>
        <time>2026-08-24T14:24:27Z</time>
      </trkpt>
      <trkpt lat="48.785462" lon="-1.177186">
        <ele>179.426</ele>
        <time>2026-08-24T14:24:28Z</time>
      </trkpt>
      <trkpt lat="48.785450" lon="-1.177190">
        <ele>179.409</ele>
        <time>2026-08-24T14:24:29Z</time>
      </trkpt>
      <trkpt lat="48.785440" lon="-1.177195">
        <ele>179.430</ele>
        <time>2026-08-24T14:24:30Z</time>
      </trkpt>
      <trkpt lat="48.785428" lon="-1.177198">
        <ele>179.476</ele>
        <time>2026-08-24T14:24:31Z</time>
      </trkpt>
      <trkpt lat="48.785418" lon="-1.177208">
        <ele>179.499</ele>
        <time>2026-08-24T14:24:32Z</time>
      </trkpt>
      <trkpt lat="48.785407" lon="-1.177215">
        <ele>179.336</ele>
        <time>2026-08-24T14:24:33Z</time>
      </trkpt>
      <trkpt lat="48.785400" lon="-1.177225">
        <ele>179.314</ele>
        <time>2026-08-24T14:24:34Z</time>
      </trkpt>
      <trkpt lat="48.785391" lon="-1.177237">
        <ele>179.462</ele>
        <time>2026-08-24T14:24:35Z</time>
      </trkpt>
      <trkpt lat="48.785377" lon="-1.177257">
        <ele>179.486</ele>
        <time>2026-08-24T14:24:37Z</time>
      </trkpt>
      <trkpt lat="48.785367" lon="-1.177266">
        <ele>179.493</ele>
        <time>2026-08-24T14:24:38Z</time>
      </trkpt>
      <trkpt lat="48.785359" lon="-1.177274">
        <ele>179.445</ele>
        <time>2026-08-24T14:24:39Z</time>
      </trkpt>
      <trkpt lat="48.785346" lon="-1.177277">
        <ele>179.522</ele>
        <time>2026-08-24T14:24:40Z</time>
      </trkpt>
      <trkpt lat="48.785337" lon="-1.177281">
        <ele>179.562</ele>
        <time>2026-08-24T14:24:41Z</time>
      </trkpt>
      <trkpt lat="48.785328" lon="-1.177288">
        <ele>179.508</ele>
        <time>2026-08-24T14:24:42Z</time>
      </trkpt>
      <trkpt lat="48.785318" lon="-1.177291">
        <ele>179.509</ele>
        <time>2026-08-24T14:24:43Z</time>
      </trkpt>
      <trkpt lat="48.785307" lon="-1.177296">
        <ele>179.554</ele>
        <time>2026-08-24T14:24:44Z</time>
      </trkpt>
      <trkpt lat="48.785298" lon="-1.177301">
        <ele>179.650</ele>
        <time>2026-08-24T14:24:45Z</time>
      </trkpt>
      <trkpt lat="48.785279" lon="-1.177313">
        <ele>179.673</ele>
        <time>2026-08-24T14:24:47Z</time>
      </trkpt>
      <trkpt lat="48.785270" lon="-1.177329">
        <ele>179.660</ele>
        <time>2026-08-24T14:24:49Z</time>
      </trkpt>
      <trkpt lat="48.785252" lon="-1.177343">
        <ele>179.678</ele>
        <time>2026-08-24T14:24:51Z</time>
      </trkpt>
      <trkpt lat="48.785241" lon="-1.177348">
        <ele>179.616</ele>
        <time>2026-08-24T14:24:52Z</time>
      </trkpt>
      <trkpt lat="48.785232" lon="-1.177352">
        <ele>179.520</ele>
        <time>2026-08-24T14:24:53Z</time>
      </trkpt>
      <trkpt lat="48.785218" lon="-1.177369">
        <ele>179.567</ele>
        <time>2026-08-24T14:24:55Z</time>
      </trkpt>
      <trkpt lat="48.785208" lon="-1.177376">
        <ele>179.519</ele>
        <time>2026-08-24T14:24:56Z</time>
      </trkpt>
      <trkpt lat="48.785197" lon="-1.177382">
        <ele>179.597</ele>
        <time>2026-08-24T14:24:57Z</time>
      </trkpt>
      <trkpt lat="48.785185" lon="-1.177393">
        <ele>179.523</ele>
        <time>2026-08-24T14:24:59Z</time>
      </trkpt>
      <trkpt lat="48.785175" lon="-1.177396">
        <ele>179.525</ele>
        <time>2026-08-24T14:25:01Z</time>
      </trkpt>
      <trkpt lat="48.785183" lon="-1.177389">
        <ele>179.509</ele>
        <time>2026-08-24T14:25:11Z</time>
      </trkpt>
      <trkpt lat="48.785174" lon="-1.177405">
        <ele>179.461</ele>
        <time>2026-08-24T14:25:19Z</time>
      </trkpt>
      <trkpt lat="48.785165" lon="-1.177421">
        <ele>179.497</ele>
        <time>2026-08-24T14:25:20Z</time>
      </trkpt>
      <trkpt lat="48.785152" lon="-1.177435">
        <ele>179.460</ele>
        <time>2026-08-24T14:25:21Z</time>
      </trkpt>
      <trkpt lat="48.785143" lon="-1.177450">
        <ele>179.447</ele>
        <time>2026-08-24T14:25:22Z</time>
      </trkpt>
      <trkpt lat="48.785137" lon="-1.177461">
        <ele>179.465</ele>
        <time>2026-08-24T14:25:23Z</time>
      </trkpt>
      <trkpt lat="48.785127" lon="-1.177467">
        <ele>179.463</ele>
        <time>2026-08-24T14:25:24Z</time>
      </trkpt>
      <trkpt lat="48.785117" lon="-1.177478">
        <ele>179.457</ele>
        <time>2026-08-24T14:25:25Z</time>
      </trkpt>
      <trkpt lat="48.785105" lon="-1.177486">
        <ele>179.454</ele>
        <time>2026-08-24T14:25:26Z</time>
      </trkpt>
      <trkpt lat="48.785098" lon="-1.177502">
        <ele>179.166</ele>
        <time>2026-08-24T14:25:27Z</time>
      </trkpt>
      <trkpt lat="48.785099" lon="-1.177519">
        <ele>178.884</ele>
        <time>2026-08-24T14:25:28Z</time>
      </trkpt>
      <trkpt lat="48.785101" lon="-1.177534">
        <ele>178.807</ele>
        <time>2026-08-24T14:25:29Z</time>
      </trkpt>
      <trkpt lat="48.785096" lon="-1.177558">
        <ele>178.717</ele>
        <time>2026-08-24T14:25:31Z</time>
      </trkpt>
      <trkpt lat="48.785088" lon="-1.177569">
        <ele>178.709</ele>
        <time>2026-08-24T14:25:32Z</time>
      </trkpt>
      <trkpt lat="48.785078" lon="-1.177579">
        <ele>178.630</ele>
        <time>2026-08-24T14:25:33Z</time>
      </trkpt>
      <trkpt lat="48.785070" lon="-1.177587">
        <ele>178.616</ele>
        <time>2026-08-24T14:25:34Z</time>
      </trkpt>
      <trkpt lat="48.785065" lon="-1.177601">
        <ele>178.539</ele>
        <time>2026-08-24T14:25:35Z</time>
      </trkpt>
      <trkpt lat="48.785057" lon="-1.177624">
        <ele>178.566</ele>
        <time>2026-08-24T14:25:37Z</time>
      </trkpt>
      <trkpt lat="48.785053" lon="-1.177638">
        <ele>178.574</ele>
        <time>2026-08-24T14:25:38Z</time>
      </trkpt>
      <trkpt lat="48.785045" lon="-1.177660">
        <ele>178.462</ele>
        <time>2026-08-24T14:25:40Z</time>
      </trkpt>
      <trkpt lat="48.785039" lon="-1.177671">
        <ele>178.376</ele>
        <time>2026-08-24T14:25:41Z</time>
      </trkpt>
      <trkpt lat="48.785033" lon="-1.177687">
        <ele>178.353</ele>
        <time>2026-08-24T14:25:42Z</time>
      </trkpt>
      <trkpt lat="48.785028" lon="-1.177704">
        <ele>178.395</ele>
        <time>2026-08-24T14:25:43Z</time>
      </trkpt>
      <trkpt lat="48.785021" lon="-1.177722">
        <ele>178.294</ele>
        <time>2026-08-24T14:25:44Z</time>
      </trkpt>
      <trkpt lat="48.785013" lon="-1.177740">
        <ele>178.257</ele>
        <time>2026-08-24T14:25:45Z</time>
      </trkpt>
      <trkpt lat="48.785006" lon="-1.177755">
        <ele>178.222</ele>
        <time>2026-08-24T14:25:46Z</time>
      </trkpt>
      <trkpt lat="48.784997" lon="-1.177770">
        <ele>178.209</ele>
        <time>2026-08-24T14:25:47Z</time>
      </trkpt>
      <trkpt lat="48.784991" lon="-1.177784">
        <ele>178.291</ele>
        <time>2026-08-24T14:25:48Z</time>
      </trkpt>
      <trkpt lat="48.784988" lon="-1.177800">
        <ele>178.217</ele>
        <time>2026-08-24T14:25:49Z</time>
      </trkpt>
      <trkpt lat="48.784984" lon="-1.177824">
        <ele>178.240</ele>
        <time>2026-08-24T14:25:51Z</time>
      </trkpt>
      <trkpt lat="48.784980" lon="-1.177840">
        <ele>178.237</ele>
        <time>2026-08-24T14:25:52Z</time>
      </trkpt>
      <trkpt lat="48.784977" lon="-1.177859">
        <ele>178.275</ele>
        <time>2026-08-24T14:25:53Z</time>
      </trkpt>
      <trkpt lat="48.784974" lon="-1.177876">
        <ele>178.213</ele>
        <time>2026-08-24T14:25:54Z</time>
      </trkpt>
      <trkpt lat="48.784969" lon="-1.177892">
        <ele>178.287</ele>
        <time>2026-08-24T14:25:55Z</time>
      </trkpt>
      <trkpt lat="48.784966" lon="-1.177909">
        <ele>178.254</ele>
        <time>2026-08-24T14:25:56Z</time>
      </trkpt>
      <trkpt lat="48.784962" lon="-1.177927">
        <ele>178.246</ele>
        <time>2026-08-24T14:25:57Z</time>
      </trkpt>
      <trkpt lat="48.784960" lon="-1.177942">
        <ele>178.235</ele>
        <time>2026-08-24T14:25:58Z</time>
      </trkpt>
      <trkpt lat="48.784955" lon="-1.177957">
        <ele>178.286</ele>
        <time>2026-08-24T14:25:59Z</time>
      </trkpt>
      <trkpt lat="48.784950" lon="-1.177975">
        <ele>178.214</ele>
        <time>2026-08-24T14:26:00Z</time>
      </trkpt>
      <trkpt lat="48.784947" lon="-1.177993">
        <ele>178.209</ele>
        <time>2026-08-24T14:26:01Z</time>
      </trkpt>
      <trkpt lat="48.784942" lon="-1.178006">
        <ele>178.285</ele>
        <time>2026-08-24T14:26:02Z</time>
      </trkpt>
      <trkpt lat="48.784939" lon="-1.178021">
        <ele>178.251</ele>
        <time>2026-08-24T14:26:03Z</time>
      </trkpt>
      <trkpt lat="48.784934" lon="-1.178037">
        <ele>178.124</ele>
        <time>2026-08-24T14:26:04Z</time>
      </trkpt>
      <trkpt lat="48.784929" lon="-1.178052">
        <ele>178.151</ele>
        <time>2026-08-24T14:26:05Z</time>
      </trkpt>
      <trkpt lat="48.784921" lon="-1.178069">
        <ele>178.169</ele>
        <time>2026-08-24T14:26:06Z</time>
      </trkpt>
      <trkpt lat="48.784913" lon="-1.178079">
        <ele>178.147</ele>
        <time>2026-08-24T14:26:08Z</time>
      </trkpt>
      <trkpt lat="48.784911" lon="-1.178095">
        <ele>178.111</ele>
        <time>2026-08-24T14:26:09Z</time>
      </trkpt>
      <trkpt lat="48.784906" lon="-1.178117">
        <ele>178.168</ele>
        <time>2026-08-24T14:26:10Z</time>
      </trkpt>
      <trkpt lat="48.784900" lon="-1.178144">
        <ele>178.160</ele>
        <time>2026-08-24T14:26:11Z</time>
      </trkpt>
      <trkpt lat="48.784894" lon="-1.178156">
        <ele>178.176</ele>
        <time>2026-08-24T14:26:12Z</time>
      </trkpt>
      <trkpt lat="48.784895" lon="-1.178172">
        <ele>178.190</ele>
        <time>2026-08-24T14:26:13Z</time>
      </trkpt>
      <trkpt lat="48.784896" lon="-1.178187">
        <ele>178.119</ele>
        <time>2026-08-24T14:26:14Z</time>
      </trkpt>
      <trkpt lat="48.784898" lon="-1.178224">
        <ele>178.109</ele>
        <time>2026-08-24T14:26:16Z</time>
      </trkpt>
      <trkpt lat="48.784890" lon="-1.178249">
        <ele>178.049</ele>
        <time>2026-08-24T14:26:17Z</time>
      </trkpt>
      <trkpt lat="48.784886" lon="-1.178273">
        <ele>178.075</ele>
        <time>2026-08-24T14:26:18Z</time>
      </trkpt>
      <trkpt lat="48.784886" lon="-1.178301">
        <ele>177.858</ele>
        <time>2026-08-24T14:26:20Z</time>
      </trkpt>
      <trkpt lat="48.784885" lon="-1.178315">
        <ele>177.615</ele>
        <time>2026-08-24T14:26:21Z</time>
      </trkpt>
      <trkpt lat="48.784881" lon="-1.178330">
        <ele>177.233</ele>
        <time>2026-08-24T14:26:22Z</time>
      </trkpt>
      <trkpt lat="48.784877" lon="-1.178347">
        <ele>176.871</ele>
        <time>2026-08-24T14:26:23Z</time>
      </trkpt>
      <trkpt lat="48.784875" lon="-1.178369">
        <ele>176.655</ele>
        <time>2026-08-24T14:26:24Z</time>
      </trkpt>
      <trkpt lat="48.784874" lon="-1.178393">
        <ele>176.432</ele>
        <time>2026-08-24T14:26:25Z</time>
      </trkpt>
      <trkpt lat="48.784872" lon="-1.178412">
        <ele>176.244</ele>
        <time>2026-08-24T14:26:26Z</time>
      </trkpt>
      <trkpt lat="48.784861" lon="-1.178432">
        <ele>176.231</ele>
        <time>2026-08-24T14:26:28Z</time>
      </trkpt>
      <trkpt lat="48.784857" lon="-1.178448">
        <ele>176.161</ele>
        <time>2026-08-24T14:26:29Z</time>
      </trkpt>
      <trkpt lat="48.784857" lon="-1.178462">
        <ele>176.107</ele>
        <time>2026-08-24T14:26:30Z</time>
      </trkpt>
      <trkpt lat="48.784853" lon="-1.178481">
        <ele>176.009</ele>
        <time>2026-08-24T14:26:31Z</time>
      </trkpt>
      <trkpt lat="48.784847" lon="-1.178493">
        <ele>176.095</ele>
        <time>2026-08-24T14:26:32Z</time>
      </trkpt>
      <trkpt lat="48.784843" lon="-1.178519">
        <ele>175.971</ele>
        <time>2026-08-24T14:26:34Z</time>
      </trkpt>
      <trkpt lat="48.784842" lon="-1.178537">
        <ele>175.964</ele>
        <time>2026-08-24T14:26:35Z</time>
      </trkpt>
      <trkpt lat="48.784842" lon="-1.178556">
        <ele>175.971</ele>
        <time>2026-08-24T14:26:36Z</time>
      </trkpt>
      <trkpt lat="48.784842" lon="-1.178572">
        <ele>175.979</ele>
        <time>2026-08-24T14:26:37Z</time>
      </trkpt>
      <trkpt lat="48.784844" lon="-1.178592">
        <ele>175.927</ele>
        <time>2026-08-24T14:26:39Z</time>
      </trkpt>
      <trkpt lat="48.784844" lon="-1.178608">
        <ele>175.991</ele>
        <time>2026-08-24T14:26:40Z</time>
      </trkpt>
      <trkpt lat="48.784841" lon="-1.178623">
        <ele>175.968</ele>
        <time>2026-08-24T14:26:41Z</time>
      </trkpt>
      <trkpt lat="48.784837" lon="-1.178639">
        <ele>175.990</ele>
        <time>2026-08-24T14:26:42Z</time>
      </trkpt>
      <trkpt lat="48.784831" lon="-1.178654">
        <ele>175.937</ele>
        <time>2026-08-24T14:26:43Z</time>
      </trkpt>
      <trkpt lat="48.784827" lon="-1.178671">
        <ele>175.949</ele>
        <time>2026-08-24T14:26:44Z</time>
      </trkpt>
      <trkpt lat="48.784820" lon="-1.178686">
        <ele>175.913</ele>
        <time>2026-08-24T14:26:45Z</time>
      </trkpt>
      <trkpt lat="48.784816" lon="-1.178706">
        <ele>175.909</ele>
        <time>2026-08-24T14:26:46Z</time>
      </trkpt>
      <trkpt lat="48.784813" lon="-1.178726">
        <ele>175.935</ele>
        <time>2026-08-24T14:26:47Z</time>
      </trkpt>
      <trkpt lat="48.784810" lon="-1.178747">
        <ele>176.021</ele>
        <time>2026-08-24T14:26:48Z</time>
      </trkpt>
      <trkpt lat="48.784806" lon="-1.178763">
        <ele>176.064</ele>
        <time>2026-08-24T14:26:49Z</time>
      </trkpt>
      <trkpt lat="48.784801" lon="-1.178776">
        <ele>176.111</ele>
        <time>2026-08-24T14:26:50Z</time>
      </trkpt>
      <trkpt lat="48.784797" lon="-1.178792">
        <ele>176.279</ele>
        <time>2026-08-24T14:26:51Z</time>
      </trkpt>
      <trkpt lat="48.784797" lon="-1.178814">
        <ele>176.227</ele>
        <time>2026-08-24T14:26:52Z</time>
      </trkpt>
      <trkpt lat="48.784795" lon="-1.178833">
        <ele>176.361</ele>
        <time>2026-08-24T14:26:53Z</time>
      </trkpt>
      <trkpt lat="48.784791" lon="-1.178848">
        <ele>176.468</ele>
        <time>2026-08-24T14:26:54Z</time>
      </trkpt>
      <trkpt lat="48.784787" lon="-1.178863">
        <ele>176.580</ele>
        <time>2026-08-24T14:26:55Z</time>
      </trkpt>
      <trkpt lat="48.784783" lon="-1.178894">
        <ele>176.798</ele>
        <time>2026-08-24T14:26:57Z</time>
      </trkpt>
      <trkpt lat="48.784784" lon="-1.178912">
        <ele>176.815</ele>
        <time>2026-08-24T14:26:58Z</time>
      </trkpt>
      <trkpt lat="48.784781" lon="-1.178934">
        <ele>177.026</ele>
        <time>2026-08-24T14:26:59Z</time>
      </trkpt>
      <trkpt lat="48.784776" lon="-1.178952">
        <ele>177.209</ele>
        <time>2026-08-24T14:27:00Z</time>
      </trkpt>
      <trkpt lat="48.784774" lon="-1.178975">
        <ele>177.691</ele>
        <time>2026-08-24T14:27:02Z</time>
      </trkpt>
      <trkpt lat="48.784775" lon="-1.178993">
        <ele>178.047</ele>
        <time>2026-08-24T14:27:03Z</time>
      </trkpt>
      <trkpt lat="48.784773" lon="-1.179017">
        <ele>178.170</ele>
        <time>2026-08-24T14:27:04Z</time>
      </trkpt>
      <trkpt lat="48.784771" lon="-1.179039">
        <ele>178.137</ele>
        <time>2026-08-24T14:27:05Z</time>
      </trkpt>
      <trkpt lat="48.784768" lon="-1.179057">
        <ele>178.145</ele>
        <time>2026-08-24T14:27:06Z</time>
      </trkpt>
      <trkpt lat="48.784763" lon="-1.179067">
        <ele>178.193</ele>
        <time>2026-08-24T14:27:07Z</time>
      </trkpt>
      <trkpt lat="48.784759" lon="-1.179101">
        <ele>178.187</ele>
        <time>2026-08-24T14:27:09Z</time>
      </trkpt>
      <trkpt lat="48.784756" lon="-1.179121">
        <ele>178.134</ele>
        <time>2026-08-24T14:27:10Z</time>
      </trkpt>
      <trkpt lat="48.784754" lon="-1.179142">
        <ele>178.146</ele>
        <time>2026-08-24T14:27:11Z</time>
      </trkpt>
      <trkpt lat="48.784749" lon="-1.179156">
        <ele>178.154</ele>
        <time>2026-08-24T14:27:12Z</time>
      </trkpt>
      <trkpt lat="48.784743" lon="-1.179168">
        <ele>178.156</ele>
        <time>2026-08-24T14:27:13Z</time>
      </trkpt>
      <trkpt lat="48.784741" lon="-1.179184">
        <ele>178.111</ele>
        <time>2026-08-24T14:27:14Z</time>
      </trkpt>
      <trkpt lat="48.784740" lon="-1.179202">
        <ele>178.109</ele>
        <time>2026-08-24T14:27:15Z</time>
      </trkpt>
      <trkpt lat="48.784738" lon="-1.179221">
        <ele>178.147</ele>
        <time>2026-08-24T14:27:16Z</time>
      </trkpt>
      <trkpt lat="48.784735" lon="-1.179238">
        <ele>178.153</ele>
        <time>2026-08-24T14:27:17Z</time>
      </trkpt>
      <trkpt lat="48.784732" lon="-1.179252">
        <ele>178.166</ele>
        <time>2026-08-24T14:27:18Z</time>
      </trkpt>
      <trkpt lat="48.784726" lon="-1.179279">
        <ele>178.063</ele>
        <time>2026-08-24T14:27:20Z</time>
      </trkpt>
      <trkpt lat="48.784723" lon="-1.179295">
        <ele>177.921</ele>
        <time>2026-08-24T14:27:21Z</time>
      </trkpt>
      <trkpt lat="48.784719" lon="-1.179317">
        <ele>177.899</ele>
        <time>2026-08-24T14:27:22Z</time>
      </trkpt>
      <trkpt lat="48.784717" lon="-1.179335">
        <ele>177.853</ele>
        <time>2026-08-24T14:27:23Z</time>
      </trkpt>
      <trkpt lat="48.784715" lon="-1.179352">
        <ele>177.840</ele>
        <time>2026-08-24T14:27:24Z</time>
      </trkpt>
      <trkpt lat="48.784711" lon="-1.179367">
        <ele>177.782</ele>
        <time>2026-08-24T14:27:25Z</time>
      </trkpt>
      <trkpt lat="48.784708" lon="-1.179380">
        <ele>177.793</ele>
        <time>2026-08-24T14:27:26Z</time>
      </trkpt>
      <trkpt lat="48.784709" lon="-1.179400">
        <ele>177.765</ele>
        <time>2026-08-24T14:27:27Z</time>
      </trkpt>
      <trkpt lat="48.784706" lon="-1.179419">
        <ele>177.621</ele>
        <time>2026-08-24T14:27:28Z</time>
      </trkpt>
      <trkpt lat="48.784702" lon="-1.179439">
        <ele>177.609</ele>
        <time>2026-08-24T14:27:29Z</time>
      </trkpt>
      <trkpt lat="48.784696" lon="-1.179451">
        <ele>177.621</ele>
        <time>2026-08-24T14:27:30Z</time>
      </trkpt>
      <trkpt lat="48.784692" lon="-1.179468">
        <ele>177.627</ele>
        <time>2026-08-24T14:27:31Z</time>
      </trkpt>
      <trkpt lat="48.784688" lon="-1.179484">
        <ele>177.650</ele>
        <time>2026-08-24T14:27:32Z</time>
      </trkpt>
      <trkpt lat="48.784686" lon="-1.179503">
        <ele>177.677</ele>
        <time>2026-08-24T14:27:33Z</time>
      </trkpt>
      <trkpt lat="48.784684" lon="-1.179523">
        <ele>177.645</ele>
        <time>2026-08-24T14:27:34Z</time>
      </trkpt>
      <trkpt lat="48.784682" lon="-1.179540">
        <ele>177.693</ele>
        <time>2026-08-24T14:27:35Z</time>
      </trkpt>
      <trkpt lat="48.784679" lon="-1.179553">
        <ele>177.627</ele>
        <time>2026-08-24T14:27:36Z</time>
      </trkpt>
      <trkpt lat="48.784676" lon="-1.179581">
        <ele>177.634</ele>
        <time>2026-08-24T14:27:38Z</time>
      </trkpt>
      <trkpt lat="48.784675" lon="-1.179601">
        <ele>177.616</ele>
        <time>2026-08-24T14:27:39Z</time>
      </trkpt>
      <trkpt lat="48.784674" lon="-1.179619">
        <ele>177.646</ele>
        <time>2026-08-24T14:27:40Z</time>
      </trkpt>
      <trkpt lat="48.784673" lon="-1.179638">
        <ele>177.788</ele>
        <time>2026-08-24T14:27:41Z</time>
      </trkpt>
      <trkpt lat="48.784666" lon="-1.179661">
        <ele>177.716</ele>
        <time>2026-08-24T14:27:43Z</time>
      </trkpt>
      <trkpt lat="48.784668" lon="-1.179681">
        <ele>177.709</ele>
        <time>2026-08-24T14:27:45Z</time>
      </trkpt>
      <trkpt lat="48.784665" lon="-1.179700">
        <ele>177.716</ele>
        <time>2026-08-24T14:27:46Z</time>
      </trkpt>
      <trkpt lat="48.784663" lon="-1.179720">
        <ele>177.882</ele>
        <time>2026-08-24T14:27:47Z</time>
      </trkpt>
      <trkpt lat="48.784657" lon="-1.179736">
        <ele>177.895</ele>
        <time>2026-08-24T14:27:48Z</time>
      </trkpt>
      <trkpt lat="48.784651" lon="-1.179751">
        <ele>177.892</ele>
        <time>2026-08-24T14:27:49Z</time>
      </trkpt>
      <trkpt lat="48.784648" lon="-1.179769">
        <ele>177.870</ele>
        <time>2026-08-24T14:27:50Z</time>
      </trkpt>
      <trkpt lat="48.784643" lon="-1.179792">
        <ele>177.878</ele>
        <time>2026-08-24T14:27:51Z</time>
      </trkpt>
      <trkpt lat="48.784639" lon="-1.179812">
        <ele>177.812</ele>
        <time>2026-08-24T14:27:52Z</time>
      </trkpt>
      <trkpt lat="48.784633" lon="-1.179826">
        <ele>177.819</ele>
        <time>2026-08-24T14:27:53Z</time>
      </trkpt>
      <trkpt lat="48.784629" lon="-1.179843">
        <ele>177.881</ele>
        <time>2026-08-24T14:27:54Z</time>
      </trkpt>
      <trkpt lat="48.784625" lon="-1.179856">
        <ele>177.899</ele>
        <time>2026-08-24T14:27:55Z</time>
      </trkpt>
      <trkpt lat="48.784619" lon="-1.179869">
        <ele>177.807</ele>
        <time>2026-08-24T14:27:56Z</time>
      </trkpt>
      <trkpt lat="48.784617" lon="-1.179883">
        <ele>177.827</ele>
        <time>2026-08-24T14:27:57Z</time>
      </trkpt>
      <trkpt lat="48.784615" lon="-1.179898">
        <ele>177.809</ele>
        <time>2026-08-24T14:27:58Z</time>
      </trkpt>
      <trkpt lat="48.784608" lon="-1.179915">
        <ele>177.861</ele>
        <time>2026-08-24T14:27:59Z</time>
      </trkpt>
      <trkpt lat="48.784602" lon="-1.179931">
        <ele>177.847</ele>
        <time>2026-08-24T14:28:00Z</time>
      </trkpt>
      <trkpt lat="48.784596" lon="-1.179947">
        <ele>177.990</ele>
        <time>2026-08-24T14:28:01Z</time>
      </trkpt>
      <trkpt lat="48.784592" lon="-1.179967">
        <ele>177.927</ele>
        <time>2026-08-24T14:28:02Z</time>
      </trkpt>
      <trkpt lat="48.784582" lon="-1.179977">
        <ele>177.955</ele>
        <time>2026-08-24T14:28:03Z</time>
      </trkpt>
      <trkpt lat="48.784575" lon="-1.179987">
        <ele>177.913</ele>
        <time>2026-08-24T14:28:04Z</time>
      </trkpt>
      <trkpt lat="48.784568" lon="-1.180002">
        <ele>177.927</ele>
        <time>2026-08-24T14:28:05Z</time>
      </trkpt>
      <trkpt lat="48.784558" lon="-1.180011">
        <ele>177.914</ele>
        <time>2026-08-24T14:28:06Z</time>
      </trkpt>
      <trkpt lat="48.784551" lon="-1.180029">
        <ele>177.986</ele>
        <time>2026-08-24T14:28:07Z</time>
      </trkpt>
      <trkpt lat="48.784541" lon="-1.180046">
        <ele>177.921</ele>
        <time>2026-08-24T14:28:08Z</time>
      </trkpt>
      <trkpt lat="48.784531" lon="-1.180061">
        <ele>177.941</ele>
        <time>2026-08-24T14:28:09Z</time>
      </trkpt>
      <trkpt lat="48.784523" lon="-1.180072">
        <ele>177.905</ele>
        <time>2026-08-24T14:28:10Z</time>
      </trkpt>
      <trkpt lat="48.784516" lon="-1.180080">
        <ele>177.909</ele>
        <time>2026-08-24T14:28:11Z</time>
      </trkpt>
      <trkpt lat="48.784499" lon="-1.180093">
        <ele>177.944</ele>
        <time>2026-08-24T14:28:13Z</time>
      </trkpt>
      <trkpt lat="48.784486" lon="-1.180098">
        <ele>177.990</ele>
        <time>2026-08-24T14:28:14Z</time>
      </trkpt>
      <trkpt lat="48.784476" lon="-1.180105">
        <ele>177.943</ele>
        <time>2026-08-24T14:28:15Z</time>
      </trkpt>
      <trkpt lat="48.784463" lon="-1.180105">
        <ele>177.980</ele>
        <time>2026-08-24T14:28:16Z</time>
      </trkpt>
      <trkpt lat="48.784445" lon="-1.180104">
        <ele>177.938</ele>
        <time>2026-08-24T14:28:18Z</time>
      </trkpt>
      <trkpt lat="48.784429" lon="-1.180096">
        <ele>177.936</ele>
        <time>2026-08-24T14:28:19Z</time>
      </trkpt>
      <trkpt lat="48.784418" lon="-1.180096">
        <ele>177.970</ele>
        <time>2026-08-24T14:28:20Z</time>
      </trkpt>
      <trkpt lat="48.784405" lon="-1.180096">
        <ele>177.947</ele>
        <time>2026-08-24T14:28:21Z</time>
      </trkpt>
      <trkpt lat="48.784396" lon="-1.180096">
        <ele>177.969</ele>
        <time>2026-08-24T14:28:22Z</time>
      </trkpt>
      <trkpt lat="48.784384" lon="-1.180093">
        <ele>177.936</ele>
        <time>2026-08-24T14:28:23Z</time>
      </trkpt>
      <trkpt lat="48.784368" lon="-1.180093">
        <ele>177.917</ele>
        <time>2026-08-24T14:28:25Z</time>
      </trkpt>
      <trkpt lat="48.784356" lon="-1.180095">
        <ele>177.918</ele>
        <time>2026-08-24T14:28:26Z</time>
      </trkpt>
      <trkpt lat="48.784341" lon="-1.180099">
        <ele>177.909</ele>
        <time>2026-08-24T14:28:27Z</time>
      </trkpt>
      <trkpt lat="48.784330" lon="-1.180110">
        <ele>177.985</ele>
        <time>2026-08-24T14:28:28Z</time>
      </trkpt>
      <trkpt lat="48.784322" lon="-1.180123">
        <ele>178.061</ele>
        <time>2026-08-24T14:28:29Z</time>
      </trkpt>
      <trkpt lat="48.784316" lon="-1.180139">
        <ele>178.034</ele>
        <time>2026-08-24T14:28:30Z</time>
      </trkpt>
      <trkpt lat="48.784309" lon="-1.180155">
        <ele>178.161</ele>
        <time>2026-08-24T14:28:31Z</time>
      </trkpt>
      <trkpt lat="48.784301" lon="-1.180170">
        <ele>178.229</ele>
        <time>2026-08-24T14:28:32Z</time>
      </trkpt>
      <trkpt lat="48.784297" lon="-1.180186">
        <ele>178.377</ele>
        <time>2026-08-24T14:28:33Z</time>
      </trkpt>
      <trkpt lat="48.784294" lon="-1.180204">
        <ele>178.451</ele>
        <time>2026-08-24T14:28:34Z</time>
      </trkpt>
      <trkpt lat="48.784291" lon="-1.180225">
        <ele>178.548</ele>
        <time>2026-08-24T14:28:35Z</time>
      </trkpt>
      <trkpt lat="48.784286" lon="-1.180245">
        <ele>178.680</ele>
        <time>2026-08-24T14:28:36Z</time>
      </trkpt>
      <trkpt lat="48.784282" lon="-1.180263">
        <ele>178.636</ele>
        <time>2026-08-24T14:28:37Z</time>
      </trkpt>
      <trkpt lat="48.784279" lon="-1.180276">
        <ele>178.717</ele>
        <time>2026-08-24T14:28:38Z</time>
      </trkpt>
      <trkpt lat="48.784273" lon="-1.180290">
        <ele>178.818</ele>
        <time>2026-08-24T14:28:39Z</time>
      </trkpt>
      <trkpt lat="48.784270" lon="-1.180307">
        <ele>178.809</ele>
        <time>2026-08-24T14:28:40Z</time>
      </trkpt>
      <trkpt lat="48.784265" lon="-1.180321">
        <ele>178.875</ele>
        <time>2026-08-24T14:28:41Z</time>
      </trkpt>
      <trkpt lat="48.784259" lon="-1.180336">
        <ele>178.821</ele>
        <time>2026-08-24T14:28:42Z</time>
      </trkpt>
      <trkpt lat="48.784250" lon="-1.180345">
        <ele>178.834</ele>
        <time>2026-08-24T14:28:43Z</time>
      </trkpt>
      <trkpt lat="48.784242" lon="-1.180360">
        <ele>178.851</ele>
        <time>2026-08-24T14:28:44Z</time>
      </trkpt>
      <trkpt lat="48.784236" lon="-1.180379">
        <ele>178.879</ele>
        <time>2026-08-24T14:28:45Z</time>
      </trkpt>
      <trkpt lat="48.784234" lon="-1.180399">
        <ele>178.877</ele>
        <time>2026-08-24T14:28:46Z</time>
      </trkpt>
      <trkpt lat="48.784236" lon="-1.180420">
        <ele>178.841</ele>
        <time>2026-08-24T14:28:47Z</time>
      </trkpt>
      <trkpt lat="48.784234" lon="-1.180435">
        <ele>178.858</ele>
        <time>2026-08-24T14:28:48Z</time>
      </trkpt>
      <trkpt lat="48.784227" lon="-1.180456">
        <ele>178.820</ele>
        <time>2026-08-24T14:28:50Z</time>
      </trkpt>
      <trkpt lat="48.784224" lon="-1.180471">
        <ele>178.874</ele>
        <time>2026-08-24T14:28:51Z</time>
      </trkpt>
      <trkpt lat="48.784222" lon="-1.180490">
        <ele>178.856</ele>
        <time>2026-08-24T14:28:52Z</time>
      </trkpt>
      <trkpt lat="48.784220" lon="-1.180510">
        <ele>178.821</ele>
        <time>2026-08-24T14:28:53Z</time>
      </trkpt>
      <trkpt lat="48.784217" lon="-1.180522">
        <ele>178.809</ele>
        <time>2026-08-24T14:28:54Z</time>
      </trkpt>
      <trkpt lat="48.784208" lon="-1.180543">
        <ele>178.839</ele>
        <time>2026-08-24T14:28:56Z</time>
      </trkpt>
      <trkpt lat="48.784198" lon="-1.180576">
        <ele>178.755</ele>
        <time>2026-08-24T14:28:58Z</time>
      </trkpt>
      <trkpt lat="48.784190" lon="-1.180595">
        <ele>178.678</ele>
        <time>2026-08-24T14:28:59Z</time>
      </trkpt>
      <trkpt lat="48.784184" lon="-1.180612">
        <ele>178.665</ele>
        <time>2026-08-24T14:29:00Z</time>
      </trkpt>
      <trkpt lat="48.784180" lon="-1.180630">
        <ele>178.543</ele>
        <time>2026-08-24T14:29:01Z</time>
      </trkpt>
      <trkpt lat="48.784172" lon="-1.180648">
        <ele>178.491</ele>
        <time>2026-08-24T14:29:02Z</time>
      </trkpt>
      <trkpt lat="48.784166" lon="-1.180668">
        <ele>178.335</ele>
        <time>2026-08-24T14:29:03Z</time>
      </trkpt>
      <trkpt lat="48.784161" lon="-1.180687">
        <ele>178.352</ele>
        <time>2026-08-24T14:29:04Z</time>
      </trkpt>
      <trkpt lat="48.784158" lon="-1.180704">
        <ele>178.374</ele>
        <time>2026-08-24T14:29:05Z</time>
      </trkpt>
      <trkpt lat="48.784154" lon="-1.180718">
        <ele>178.338</ele>
        <time>2026-08-24T14:29:06Z</time>
      </trkpt>
      <trkpt lat="48.784144" lon="-1.180740">
        <ele>178.370</ele>
        <time>2026-08-24T14:29:08Z</time>
      </trkpt>
      <trkpt lat="48.784139" lon="-1.180758">
        <ele>178.317</ele>
        <time>2026-08-24T14:29:09Z</time>
      </trkpt>
      <trkpt lat="48.784136" lon="-1.180779">
        <ele>178.309</ele>
        <time>2026-08-24T14:29:10Z</time>
      </trkpt>
      <trkpt lat="48.784129" lon="-1.180806">
        <ele>178.335</ele>
        <time>2026-08-24T14:29:12Z</time>
      </trkpt>
      <trkpt lat="48.784123" lon="-1.180821">
        <ele>178.371</ele>
        <time>2026-08-24T14:29:13Z</time>
      </trkpt>
      <trkpt lat="48.784117" lon="-1.180838">
        <ele>178.314</ele>
        <time>2026-08-24T14:29:14Z</time>
      </trkpt>
      <trkpt lat="48.784112" lon="-1.180859">
        <ele>178.351</ele>
        <time>2026-08-24T14:29:15Z</time>
      </trkpt>
      <trkpt lat="48.784106" lon="-1.180881">
        <ele>178.329</ele>
        <time>2026-08-24T14:29:16Z</time>
      </trkpt>
      <trkpt lat="48.784102" lon="-1.180899">
        <ele>178.357</ele>
        <time>2026-08-24T14:29:17Z</time>
      </trkpt>
      <trkpt lat="48.784098" lon="-1.180912">
        <ele>178.381</ele>
        <time>2026-08-24T14:29:18Z</time>
      </trkpt>
      <trkpt lat="48.784092" lon="-1.180922">
        <ele>178.388</ele>
        <time>2026-08-24T14:29:19Z</time>
      </trkpt>
      <trkpt lat="48.784087" lon="-1.180940">
        <ele>178.330</ele>
        <time>2026-08-24T14:29:20Z</time>
      </trkpt>
      <trkpt lat="48.784083" lon="-1.180957">
        <ele>178.314</ele>
        <time>2026-08-24T14:29:21Z</time>
      </trkpt>
      <trkpt lat="48.784081" lon="-1.180976">
        <ele>178.354</ele>
        <time>2026-08-24T14:29:22Z</time>
      </trkpt>
      <trkpt lat="48.784078" lon="-1.180991">
        <ele>178.409</ele>
        <time>2026-08-24T14:29:23Z</time>
      </trkpt>
      <trkpt lat="48.784072" lon="-1.181005">
        <ele>178.509</ele>
        <time>2026-08-24T14:29:24Z</time>
      </trkpt>
      <trkpt lat="48.784068" lon="-1.181018">
        <ele>178.673</ele>
        <time>2026-08-24T14:29:25Z</time>
      </trkpt>
      <trkpt lat="48.784062" lon="-1.181035">
        <ele>178.939</ele>
        <time>2026-08-24T14:29:26Z</time>
      </trkpt>
      <trkpt lat="48.784054" lon="-1.181054">
        <ele>179.152</ele>
        <time>2026-08-24T14:29:27Z</time>
      </trkpt>
      <trkpt lat="48.784050" lon="-1.181071">
        <ele>179.169</ele>
        <time>2026-08-24T14:29:28Z</time>
      </trkpt>
      <trkpt lat="48.784047" lon="-1.181086">
        <ele>179.287</ele>
        <time>2026-08-24T14:29:29Z</time>
      </trkpt>
      <trkpt lat="48.784041" lon="-1.181098">
        <ele>179.235</ele>
        <time>2026-08-24T14:29:30Z</time>
      </trkpt>
      <trkpt lat="48.784038" lon="-1.181111">
        <ele>179.369</ele>
        <time>2026-08-24T14:29:31Z</time>
      </trkpt>
      <trkpt lat="48.784030" lon="-1.181122">
        <ele>179.356</ele>
        <time>2026-08-24T14:29:32Z</time>
      </trkpt>
      <trkpt lat="48.784027" lon="-1.181137">
        <ele>179.428</ele>
        <time>2026-08-24T14:29:33Z</time>
      </trkpt>
      <trkpt lat="48.784025" lon="-1.181162">
        <ele>179.439</ele>
        <time>2026-08-24T14:29:34Z</time>
      </trkpt>
      <trkpt lat="48.784023" lon="-1.181179">
        <ele>179.501</ele>
        <time>2026-08-24T14:29:35Z</time>
      </trkpt>
      <trkpt lat="48.784016" lon="-1.181194">
        <ele>179.621</ele>
        <time>2026-08-24T14:29:36Z</time>
      </trkpt>
      <trkpt lat="48.784010" lon="-1.181211">
        <ele>179.709</ele>
        <time>2026-08-24T14:29:37Z</time>
      </trkpt>
      <trkpt lat="48.784003" lon="-1.181230">
        <ele>179.845</ele>
        <time>2026-08-24T14:29:38Z</time>
      </trkpt>
      <trkpt lat="48.783997" lon="-1.181246">
        <ele>180.121</ele>
        <time>2026-08-24T14:29:39Z</time>
      </trkpt>
      <trkpt lat="48.783992" lon="-1.181264">
        <ele>180.174</ele>
        <time>2026-08-24T14:29:40Z</time>
      </trkpt>
      <trkpt lat="48.783986" lon="-1.181277">
        <ele>180.121</ele>
        <time>2026-08-24T14:29:41Z</time>
      </trkpt>
      <trkpt lat="48.783980" lon="-1.181289">
        <ele>180.199</ele>
        <time>2026-08-24T14:29:42Z</time>
      </trkpt>
      <trkpt lat="48.783972" lon="-1.181316">
        <ele>180.117</ele>
        <time>2026-08-24T14:29:44Z</time>
      </trkpt>
      <trkpt lat="48.783971" lon="-1.181330">
        <ele>180.151</ele>
        <time>2026-08-24T14:29:45Z</time>
      </trkpt>
      <trkpt lat="48.783962" lon="-1.181353">
        <ele>180.158</ele>
        <time>2026-08-24T14:29:47Z</time>
      </trkpt>
      <trkpt lat="48.783954" lon="-1.181367">
        <ele>180.120</ele>
        <time>2026-08-24T14:29:48Z</time>
      </trkpt>
      <trkpt lat="48.783947" lon="-1.181386">
        <ele>180.192</ele>
        <time>2026-08-24T14:29:49Z</time>
      </trkpt>
      <trkpt lat="48.783940" lon="-1.181408">
        <ele>180.173</ele>
        <time>2026-08-24T14:29:50Z</time>
      </trkpt>
      <trkpt lat="48.783936" lon="-1.181429">
        <ele>180.120</ele>
        <time>2026-08-24T14:29:51Z</time>
      </trkpt>
      <trkpt lat="48.783932" lon="-1.181444">
        <ele>180.109</ele>
        <time>2026-08-24T14:29:52Z</time>
      </trkpt>
      <trkpt lat="48.783929" lon="-1.181459">
        <ele>180.161</ele>
        <time>2026-08-24T14:29:53Z</time>
      </trkpt>
      <trkpt lat="48.783925" lon="-1.181473">
        <ele>180.137</ele>
        <time>2026-08-24T14:29:54Z</time>
      </trkpt>
      <trkpt lat="48.783920" lon="-1.181493">
        <ele>180.120</ele>
        <time>2026-08-24T14:29:55Z</time>
      </trkpt>
      <trkpt lat="48.783918" lon="-1.181509">
        <ele>180.177</ele>
        <time>2026-08-24T14:29:56Z</time>
      </trkpt>
      <trkpt lat="48.783911" lon="-1.181526">
        <ele>180.115</ele>
        <time>2026-08-24T14:29:57Z</time>
      </trkpt>
      <trkpt lat="48.783907" lon="-1.181539">
        <ele>180.053</ele>
        <time>2026-08-24T14:29:58Z</time>
      </trkpt>
      <trkpt lat="48.783896" lon="-1.181560">
        <ele>179.977</ele>
        <time>2026-08-24T14:30:00Z</time>
      </trkpt>
      <trkpt lat="48.783891" lon="-1.181578">
        <ele>179.894</ele>
        <time>2026-08-24T14:30:01Z</time>
      </trkpt>
      <trkpt lat="48.783885" lon="-1.181597">
        <ele>179.836</ele>
        <time>2026-08-24T14:30:02Z</time>
      </trkpt>
      <trkpt lat="48.783881" lon="-1.181615">
        <ele>179.719</ele>
        <time>2026-08-24T14:30:03Z</time>
      </trkpt>
      <trkpt lat="48.783879" lon="-1.181631">
        <ele>179.709</ele>
        <time>2026-08-24T14:30:04Z</time>
      </trkpt>
      <trkpt lat="48.783872" lon="-1.181646">
        <ele>179.519</ele>
        <time>2026-08-24T14:30:05Z</time>
      </trkpt>
      <trkpt lat="48.783865" lon="-1.181655">
        <ele>179.309</ele>
        <time>2026-08-24T14:30:06Z</time>
      </trkpt>
      <trkpt lat="48.783858" lon="-1.181665">
        <ele>179.313</ele>
        <time>2026-08-24T14:30:07Z</time>
      </trkpt>
      <trkpt lat="48.783855" lon="-1.181682">
        <ele>179.259</ele>
        <time>2026-08-24T14:30:08Z</time>
      </trkpt>
      <trkpt lat="48.783848" lon="-1.181699">
        <ele>179.282</ele>
        <time>2026-08-24T14:30:09Z</time>
      </trkpt>
      <trkpt lat="48.783838" lon="-1.181724">
        <ele>179.119</ele>
        <time>2026-08-24T14:30:11Z</time>
      </trkpt>
      <trkpt lat="48.783833" lon="-1.181739">
        <ele>179.197</ele>
        <time>2026-08-24T14:30:12Z</time>
      </trkpt>
      <trkpt lat="48.783828" lon="-1.181754">
        <ele>179.115</ele>
        <time>2026-08-24T14:30:13Z</time>
      </trkpt>
      <trkpt lat="48.783827" lon="-1.181776">
        <ele>179.169</ele>
        <time>2026-08-24T14:30:14Z</time>
      </trkpt>
      <trkpt lat="48.783825" lon="-1.181794">
        <ele>179.076</ele>
        <time>2026-08-24T14:30:15Z</time>
      </trkpt>
      <trkpt lat="48.783819" lon="-1.181806">
        <ele>178.958</ele>
        <time>2026-08-24T14:30:16Z</time>
      </trkpt>
      <trkpt lat="48.783814" lon="-1.181821">
        <ele>178.966</ele>
        <time>2026-08-24T14:30:17Z</time>
      </trkpt>
      <trkpt lat="48.783806" lon="-1.181848">
        <ele>178.929</ele>
        <time>2026-08-24T14:30:19Z</time>
      </trkpt>
      <trkpt lat="48.783800" lon="-1.181869">
        <ele>178.921</ele>
        <time>2026-08-24T14:30:20Z</time>
      </trkpt>
      <trkpt lat="48.783795" lon="-1.181889">
        <ele>178.909</ele>
        <time>2026-08-24T14:30:21Z</time>
      </trkpt>
      <trkpt lat="48.783792" lon="-1.181906">
        <ele>178.978</ele>
        <time>2026-08-24T14:30:22Z</time>
      </trkpt>
      <trkpt lat="48.783786" lon="-1.181918">
        <ele>178.974</ele>
        <time>2026-08-24T14:30:23Z</time>
      </trkpt>
      <trkpt lat="48.783779" lon="-1.181931">
        <ele>178.957</ele>
        <time>2026-08-24T14:30:24Z</time>
      </trkpt>
      <trkpt lat="48.783775" lon="-1.181948">
        <ele>178.844</ele>
        <time>2026-08-24T14:30:25Z</time>
      </trkpt>
      <trkpt lat="48.783779" lon="-1.181966">
        <ele>178.872</ele>
        <time>2026-08-24T14:30:26Z</time>
      </trkpt>
      <trkpt lat="48.783775" lon="-1.181982">
        <ele>178.770</ele>
        <time>2026-08-24T14:30:27Z</time>
      </trkpt>
      <trkpt lat="48.783763" lon="-1.181994">
        <ele>178.674</ele>
        <time>2026-08-24T14:30:28Z</time>
      </trkpt>
      <trkpt lat="48.783753" lon="-1.182005">
        <ele>178.541</ele>
        <time>2026-08-24T14:30:29Z</time>
      </trkpt>
      <trkpt lat="48.783746" lon="-1.182016">
        <ele>178.493</ele>
        <time>2026-08-24T14:30:30Z</time>
      </trkpt>
      <trkpt lat="48.783739" lon="-1.182034">
        <ele>178.363</ele>
        <time>2026-08-24T14:30:31Z</time>
      </trkpt>
      <trkpt lat="48.783732" lon="-1.182052">
        <ele>178.344</ele>
        <time>2026-08-24T14:30:32Z</time>
      </trkpt>
      <trkpt lat="48.783728" lon="-1.182074">
        <ele>178.218</ele>
        <time>2026-08-24T14:30:33Z</time>
      </trkpt>
      <trkpt lat="48.783724" lon="-1.182094">
        <ele>178.109</ele>
        <time>2026-08-24T14:30:34Z</time>
      </trkpt>
      <trkpt lat="48.783717" lon="-1.182108">
        <ele>178.178</ele>
        <time>2026-08-24T14:30:35Z</time>
      </trkpt>
      <trkpt lat="48.783711" lon="-1.182131">
        <ele>178.074</ele>
        <time>2026-08-24T14:30:37Z</time>
      </trkpt>
      <trkpt lat="48.783708" lon="-1.182151">
        <ele>177.987</ele>
        <time>2026-08-24T14:30:39Z</time>
      </trkpt>
      <trkpt lat="48.783705" lon="-1.182165">
        <ele>177.984</ele>
        <time>2026-08-24T14:30:40Z</time>
      </trkpt>
      <trkpt lat="48.783699" lon="-1.182181">
        <ele>177.982</ele>
        <time>2026-08-24T14:30:41Z</time>
      </trkpt>
      <trkpt lat="48.783693" lon="-1.182195">
        <ele>177.890</ele>
        <time>2026-08-24T14:30:42Z</time>
      </trkpt>
      <trkpt lat="48.783688" lon="-1.182210">
        <ele>177.894</ele>
        <time>2026-08-24T14:30:43Z</time>
      </trkpt>
      <trkpt lat="48.783683" lon="-1.182226">
        <ele>177.861</ele>
        <time>2026-08-24T14:30:44Z</time>
      </trkpt>
      <trkpt lat="48.783678" lon="-1.182239">
        <ele>177.753</ele>
        <time>2026-08-24T14:30:45Z</time>
      </trkpt>
      <trkpt lat="48.783672" lon="-1.182253">
        <ele>177.785</ele>
        <time>2026-08-24T14:30:46Z</time>
      </trkpt>
      <trkpt lat="48.783667" lon="-1.182269">
        <ele>177.689</ele>
        <time>2026-08-24T14:30:47Z</time>
      </trkpt>
      <trkpt lat="48.783665" lon="-1.182285">
        <ele>177.617</ele>
        <time>2026-08-24T14:30:48Z</time>
      </trkpt>
      <trkpt lat="48.783661" lon="-1.182297">
        <ele>177.509</ele>
        <time>2026-08-24T14:30:49Z</time>
      </trkpt>
      <trkpt lat="48.783650" lon="-1.182318">
        <ele>177.530</ele>
        <time>2026-08-24T14:30:51Z</time>
      </trkpt>
      <trkpt lat="48.783642" lon="-1.182337">
        <ele>177.376</ele>
        <time>2026-08-24T14:30:53Z</time>
      </trkpt>
      <trkpt lat="48.783634" lon="-1.182352">
        <ele>177.019</ele>
        <time>2026-08-24T14:30:54Z</time>
      </trkpt>
      <trkpt lat="48.783631" lon="-1.182368">
        <ele>176.876</ele>
        <time>2026-08-24T14:30:55Z</time>
      </trkpt>
      <trkpt lat="48.783625" lon="-1.182396">
        <ele>176.524</ele>
        <time>2026-08-24T14:30:57Z</time>
      </trkpt>
      <trkpt lat="48.783622" lon="-1.182409">
        <ele>176.482</ele>
        <time>2026-08-24T14:30:58Z</time>
      </trkpt>
      <trkpt lat="48.783615" lon="-1.182428">
        <ele>176.366</ele>
        <time>2026-08-24T14:30:59Z</time>
      </trkpt>
      <trkpt lat="48.783609" lon="-1.182447">
        <ele>176.323</ele>
        <time>2026-08-24T14:31:00Z</time>
      </trkpt>
      <trkpt lat="48.783603" lon="-1.182461">
        <ele>176.385</ele>
        <time>2026-08-24T14:31:01Z</time>
      </trkpt>
      <trkpt lat="48.783595" lon="-1.182475">
        <ele>176.296</ele>
        <time>2026-08-24T14:31:03Z</time>
      </trkpt>
      <trkpt lat="48.783590" lon="-1.182493">
        <ele>176.231</ele>
        <time>2026-08-24T14:31:04Z</time>
      </trkpt>
      <trkpt lat="48.783587" lon="-1.182510">
        <ele>176.224</ele>
        <time>2026-08-24T14:31:05Z</time>
      </trkpt>
      <trkpt lat="48.783579" lon="-1.182537">
        <ele>176.109</ele>
        <time>2026-08-24T14:31:07Z</time>
      </trkpt>
      <trkpt lat="48.783576" lon="-1.182563">
        <ele>176.191</ele>
        <time>2026-08-24T14:31:09Z</time>
      </trkpt>
      <trkpt lat="48.783570" lon="-1.182590">
        <ele>176.127</ele>
        <time>2026-08-24T14:31:11Z</time>
      </trkpt>
      <trkpt lat="48.783562" lon="-1.182608">
        <ele>176.170</ele>
        <time>2026-08-24T14:31:12Z</time>
      </trkpt>
      <trkpt lat="48.783553" lon="-1.182615">
        <ele>176.127</ele>
        <time>2026-08-24T14:31:13Z</time>
      </trkpt>
      <trkpt lat="48.783548" lon="-1.182630">
        <ele>176.075</ele>
        <time>2026-08-24T14:31:14Z</time>
      </trkpt>
      <trkpt lat="48.783540" lon="-1.182649">
        <ele>176.053</ele>
        <time>2026-08-24T14:31:15Z</time>
      </trkpt>
      <trkpt lat="48.783536" lon="-1.182664">
        <ele>176.057</ele>
        <time>2026-08-24T14:31:16Z</time>
      </trkpt>
      <trkpt lat="48.783525" lon="-1.182694">
        <ele>175.824</ele>
        <time>2026-08-24T14:31:18Z</time>
      </trkpt>
      <trkpt lat="48.783522" lon="-1.182708">
        <ele>175.796</ele>
        <time>2026-08-24T14:31:19Z</time>
      </trkpt>
      <trkpt lat="48.783516" lon="-1.182727">
        <ele>175.671</ele>
        <time>2026-08-24T14:31:21Z</time>
      </trkpt>
      <trkpt lat="48.783509" lon="-1.182736">
        <ele>175.541</ele>
        <time>2026-08-24T14:31:22Z</time>
      </trkpt>
      <trkpt lat="48.783506" lon="-1.182757">
        <ele>175.315</ele>
        <time>2026-08-24T14:31:23Z</time>
      </trkpt>
      <trkpt lat="48.783498" lon="-1.182775">
        <ele>175.209</ele>
        <time>2026-08-24T14:31:24Z</time>
      </trkpt>
      <trkpt lat="48.783489" lon="-1.182787">
        <ele>175.049</ele>
        <time>2026-08-24T14:31:25Z</time>
      </trkpt>
      <trkpt lat="48.783479" lon="-1.182805">
        <ele>175.045</ele>
        <time>2026-08-24T14:31:26Z</time>
      </trkpt>
      <trkpt lat="48.783472" lon="-1.182826">
        <ele>174.988</ele>
        <time>2026-08-24T14:31:27Z</time>
      </trkpt>
      <trkpt lat="48.783468" lon="-1.182843">
        <ele>174.935</ele>
        <time>2026-08-24T14:31:28Z</time>
      </trkpt>
      <trkpt lat="48.783464" lon="-1.182864">
        <ele>174.933</ele>
        <time>2026-08-24T14:31:29Z</time>
      </trkpt>
      <trkpt lat="48.783460" lon="-1.182876">
        <ele>174.871</ele>
        <time>2026-08-24T14:31:30Z</time>
      </trkpt>
      <trkpt lat="48.783458" lon="-1.182893">
        <ele>174.715</ele>
        <time>2026-08-24T14:31:31Z</time>
      </trkpt>
      <trkpt lat="48.783458" lon="-1.182910">
        <ele>174.642</ele>
        <time>2026-08-24T14:31:32Z</time>
      </trkpt>
      <trkpt lat="48.783452" lon="-1.182921">
        <ele>174.624</ele>
        <time>2026-08-24T14:31:33Z</time>
      </trkpt>
      <trkpt lat="48.783441" lon="-1.182943">
        <ele>174.687</ele>
        <time>2026-08-24T14:31:35Z</time>
      </trkpt>
      <trkpt lat="48.783436" lon="-1.182955">
        <ele>174.442</ele>
        <time>2026-08-24T14:31:36Z</time>
      </trkpt>
      <trkpt lat="48.783434" lon="-1.182969">
        <ele>174.326</ele>
        <time>2026-08-24T14:31:37Z</time>
      </trkpt>
      <trkpt lat="48.783437" lon="-1.182996">
        <ele>174.209</ele>
        <time>2026-08-24T14:31:39Z</time>
      </trkpt>
      <trkpt lat="48.783433" lon="-1.183026">
        <ele>174.250</ele>
        <time>2026-08-24T14:31:41Z</time>
      </trkpt>
      <trkpt lat="48.783427" lon="-1.183043">
        <ele>174.276</ele>
        <time>2026-08-24T14:31:42Z</time>
      </trkpt>
      <trkpt lat="48.783422" lon="-1.183057">
        <ele>174.119</ele>
        <time>2026-08-24T14:31:43Z</time>
      </trkpt>
      <trkpt lat="48.783413" lon="-1.183081">
        <ele>174.146</ele>
        <time>2026-08-24T14:31:45Z</time>
      </trkpt>
      <trkpt lat="48.783405" lon="-1.183098">
        <ele>174.024</ele>
        <time>2026-08-24T14:31:47Z</time>
      </trkpt>
      <trkpt lat="48.783403" lon="-1.183114">
        <ele>174.062</ele>
        <time>2026-08-24T14:31:48Z</time>
      </trkpt>
      <trkpt lat="48.783400" lon="-1.183135">
        <ele>174.096</ele>
        <time>2026-08-24T14:31:49Z</time>
      </trkpt>
      <trkpt lat="48.783399" lon="-1.183149">
        <ele>174.073</ele>
        <time>2026-08-24T14:31:50Z</time>
      </trkpt>
      <trkpt lat="48.783395" lon="-1.183167">
        <ele>173.975</ele>
        <time>2026-08-24T14:31:52Z</time>
      </trkpt>
      <trkpt lat="48.783394" lon="-1.183181">
        <ele>173.785</ele>
        <time>2026-08-24T14:31:53Z</time>
      </trkpt>
      <trkpt lat="48.783386" lon="-1.183193">
        <ele>173.789</ele>
        <time>2026-08-24T14:31:54Z</time>
      </trkpt>
      <trkpt lat="48.783381" lon="-1.183205">
        <ele>173.617</ele>
        <time>2026-08-24T14:31:55Z</time>
      </trkpt>
      <trkpt lat="48.783379" lon="-1.183218">
        <ele>173.509</ele>
        <time>2026-08-24T14:31:56Z</time>
      </trkpt>
      <trkpt lat="48.783376" lon="-1.183232">
        <ele>173.480</ele>
        <time>2026-08-24T14:31:57Z</time>
      </trkpt>
      <trkpt lat="48.783374" lon="-1.183256">
        <ele>173.216</ele>
        <time>2026-08-24T14:31:58Z</time>
      </trkpt>
      <trkpt lat="48.783372" lon="-1.183279">
        <ele>172.869</ele>
        <time>2026-08-24T14:31:59Z</time>
      </trkpt>
      <trkpt lat="48.783369" lon="-1.183300">
        <ele>172.566</ele>
        <time>2026-08-24T14:32:00Z</time>
      </trkpt>
      <trkpt lat="48.783365" lon="-1.183314">
        <ele>172.374</ele>
        <time>2026-08-24T14:32:01Z</time>
      </trkpt>
      <trkpt lat="48.783366" lon="-1.183330">
        <ele>172.122</ele>
        <time>2026-08-24T14:32:02Z</time>
      </trkpt>
      <trkpt lat="48.783370" lon="-1.183355">
        <ele>172.046</ele>
        <time>2026-08-24T14:32:04Z</time>
      </trkpt>
      <trkpt lat="48.783370" lon="-1.183370">
        <ele>171.843</ele>
        <time>2026-08-24T14:32:05Z</time>
      </trkpt>
      <trkpt lat="48.783368" lon="-1.183389">
        <ele>171.715</ele>
        <time>2026-08-24T14:32:06Z</time>
      </trkpt>
      <trkpt lat="48.783366" lon="-1.183414">
        <ele>171.527</ele>
        <time>2026-08-24T14:32:08Z</time>
      </trkpt>
      <trkpt lat="48.783364" lon="-1.183433">
        <ele>171.368</ele>
        <time>2026-08-24T14:32:10Z</time>
      </trkpt>
      <trkpt lat="48.783359" lon="-1.183446">
        <ele>171.214</ele>
        <time>2026-08-24T14:32:11Z</time>
      </trkpt>
      <trkpt lat="48.783349" lon="-1.183466">
        <ele>171.209</ele>
        <time>2026-08-24T14:32:13Z</time>
      </trkpt>
      <trkpt lat="48.783341" lon="-1.183481">
        <ele>171.064</ele>
        <time>2026-08-24T14:32:14Z</time>
      </trkpt>
      <trkpt lat="48.783334" lon="-1.183500">
        <ele>170.740</ele>
        <time>2026-08-24T14:32:15Z</time>
      </trkpt>
      <trkpt lat="48.783325" lon="-1.183512">
        <ele>170.613</ele>
        <time>2026-08-24T14:32:16Z</time>
      </trkpt>
      <trkpt lat="48.783319" lon="-1.183532">
        <ele>170.580</ele>
        <time>2026-08-24T14:32:17Z</time>
      </trkpt>
      <trkpt lat="48.783314" lon="-1.183547">
        <ele>170.398</ele>
        <time>2026-08-24T14:32:18Z</time>
      </trkpt>
      <trkpt lat="48.783310" lon="-1.183559">
        <ele>170.286</ele>
        <time>2026-08-24T14:32:19Z</time>
      </trkpt>
      <trkpt lat="48.783306" lon="-1.183571">
        <ele>170.290</ele>
        <time>2026-08-24T14:32:20Z</time>
      </trkpt>
      <trkpt lat="48.783301" lon="-1.183586">
        <ele>170.117</ele>
        <time>2026-08-24T14:32:21Z</time>
      </trkpt>
      <trkpt lat="48.783299" lon="-1.183603">
        <ele>170.049</ele>
        <time>2026-08-24T14:32:22Z</time>
      </trkpt>
      <trkpt lat="48.783288" lon="-1.183624">
        <ele>169.866</ele>
        <time>2026-08-24T14:32:24Z</time>
      </trkpt>
      <trkpt lat="48.783283" lon="-1.183640">
        <ele>169.729</ele>
        <time>2026-08-24T14:32:25Z</time>
      </trkpt>
      <trkpt lat="48.783279" lon="-1.183663">
        <ele>169.621</ele>
        <time>2026-08-24T14:32:27Z</time>
      </trkpt>
      <trkpt lat="48.783272" lon="-1.183679">
        <ele>169.609</ele>
        <time>2026-08-24T14:32:28Z</time>
      </trkpt>
      <trkpt lat="48.783265" lon="-1.183697">
        <ele>169.518</ele>
        <time>2026-08-24T14:32:29Z</time>
      </trkpt>
      <trkpt lat="48.783273" lon="-1.183690">
        <ele>169.424</ele>
        <time>2026-08-24T14:32:32Z</time>
      </trkpt>
      <trkpt lat="48.783273" lon="-1.183708">
        <ele>169.477</ele>
        <time>2026-08-24T14:32:43Z</time>
      </trkpt>
      <trkpt lat="48.783266" lon="-1.183717">
        <ele>169.484</ele>
        <time>2026-08-24T14:32:46Z</time>
      </trkpt>
      <trkpt lat="48.783249" lon="-1.183734">
        <ele>169.472</ele>
        <time>2026-08-24T14:32:48Z</time>
      </trkpt>
      <trkpt lat="48.783232" lon="-1.183752">
        <ele>169.480</ele>
        <time>2026-08-24T14:32:49Z</time>
      </trkpt>
      <trkpt lat="48.783225" lon="-1.183766">
        <ele>169.474</ele>
        <time>2026-08-24T14:32:50Z</time>
      </trkpt>
      <trkpt lat="48.783223" lon="-1.183780">
        <ele>169.441</ele>
        <time>2026-08-24T14:32:51Z</time>
      </trkpt>
      <trkpt lat="48.783227" lon="-1.183797">
        <ele>169.463</ele>
        <time>2026-08-24T14:32:52Z</time>
      </trkpt>
      <trkpt lat="48.783228" lon="-1.183818">
        <ele>169.485</ele>
        <time>2026-08-24T14:32:53Z</time>
      </trkpt>
      <trkpt lat="48.783213" lon="-1.183852">
        <ele>169.489</ele>
        <time>2026-08-24T14:32:55Z</time>
      </trkpt>
      <trkpt lat="48.783204" lon="-1.183870">
        <ele>169.317</ele>
        <time>2026-08-24T14:32:56Z</time>
      </trkpt>
      <trkpt lat="48.783204" lon="-1.183884">
        <ele>169.309</ele>
        <time>2026-08-24T14:32:57Z</time>
      </trkpt>
      <trkpt lat="48.783199" lon="-1.183901">
        <ele>169.290</ele>
        <time>2026-08-24T14:32:58Z</time>
      </trkpt>
      <trkpt lat="48.783186" lon="-1.183909">
        <ele>169.256</ele>
        <time>2026-08-24T14:32:59Z</time>
      </trkpt>
      <trkpt lat="48.783180" lon="-1.183921">
        <ele>169.299</ele>
        <time>2026-08-24T14:33:00Z</time>
      </trkpt>
      <trkpt lat="48.783176" lon="-1.183935">
        <ele>169.286</ele>
        <time>2026-08-24T14:33:01Z</time>
      </trkpt>
      <trkpt lat="48.783173" lon="-1.183950">
        <ele>169.254</ele>
        <time>2026-08-24T14:33:02Z</time>
      </trkpt>
      <trkpt lat="48.783165" lon="-1.183965">
        <ele>169.282</ele>
        <time>2026-08-24T14:33:03Z</time>
      </trkpt>
      <trkpt lat="48.783158" lon="-1.183983">
        <ele>169.246</ele>
        <time>2026-08-24T14:33:04Z</time>
      </trkpt>
      <trkpt lat="48.783152" lon="-1.183997">
        <ele>169.283</ele>
        <time>2026-08-24T14:33:05Z</time>
      </trkpt>
      <trkpt lat="48.783147" lon="-1.184008">
        <ele>169.245</ele>
        <time>2026-08-24T14:33:06Z</time>
      </trkpt>
      <trkpt lat="48.783144" lon="-1.184022">
        <ele>169.125</ele>
        <time>2026-08-24T14:33:07Z</time>
      </trkpt>
      <trkpt lat="48.783130" lon="-1.184042">
        <ele>169.026</ele>
        <time>2026-08-24T14:33:09Z</time>
      </trkpt>
      <trkpt lat="48.783122" lon="-1.184053">
        <ele>168.608</ele>
        <time>2026-08-24T14:33:10Z</time>
      </trkpt>
      <trkpt lat="48.783116" lon="-1.184065">
        <ele>168.309</ele>
        <time>2026-08-24T14:33:11Z</time>
      </trkpt>
      <trkpt lat="48.783110" lon="-1.184081">
        <ele>168.184</ele>
        <time>2026-08-24T14:33:12Z</time>
      </trkpt>
      <trkpt lat="48.783105" lon="-1.184093">
        <ele>168.040</ele>
        <time>2026-08-24T14:33:13Z</time>
      </trkpt>
      <trkpt lat="48.783099" lon="-1.184113">
        <ele>167.563</ele>
        <time>2026-08-24T14:33:15Z</time>
      </trkpt>
      <trkpt lat="48.783094" lon="-1.184137">
        <ele>167.050</ele>
        <time>2026-08-24T14:33:17Z</time>
      </trkpt>
      <trkpt lat="48.783095" lon="-1.184160">
        <ele>166.988</ele>
        <time>2026-08-24T14:33:19Z</time>
      </trkpt>
      <trkpt lat="48.783087" lon="-1.184176">
        <ele>166.996</ele>
        <time>2026-08-24T14:33:21Z</time>
      </trkpt>
      <trkpt lat="48.783075" lon="-1.184204">
        <ele>166.850</ele>
        <time>2026-08-24T14:33:23Z</time>
      </trkpt>
      <trkpt lat="48.783068" lon="-1.184215">
        <ele>166.877</ele>
        <time>2026-08-24T14:33:24Z</time>
      </trkpt>
      <trkpt lat="48.783057" lon="-1.184234">
        <ele>166.759</ele>
        <time>2026-08-24T14:33:26Z</time>
      </trkpt>
      <trkpt lat="48.783056" lon="-1.184248">
        <ele>166.736</ele>
        <time>2026-08-24T14:33:27Z</time>
      </trkpt>
      <trkpt lat="48.783049" lon="-1.184259">
        <ele>166.617</ele>
        <time>2026-08-24T14:33:28Z</time>
      </trkpt>
      <trkpt lat="48.783040" lon="-1.184268">
        <ele>166.518</ele>
        <time>2026-08-24T14:33:30Z</time>
      </trkpt>
      <trkpt lat="48.783034" lon="-1.184278">
        <ele>166.309</ele>
        <time>2026-08-24T14:33:31Z</time>
      </trkpt>
      <trkpt lat="48.783032" lon="-1.184300">
        <ele>166.235</ele>
        <time>2026-08-24T14:33:33Z</time>
      </trkpt>
      <trkpt lat="48.783025" lon="-1.184312">
        <ele>166.211</ele>
        <time>2026-08-24T14:33:34Z</time>
      </trkpt>
      <trkpt lat="48.783020" lon="-1.184327">
        <ele>166.154</ele>
        <time>2026-08-24T14:33:35Z</time>
      </trkpt>
      <trkpt lat="48.783016" lon="-1.184344">
        <ele>166.161</ele>
        <time>2026-08-24T14:33:36Z</time>
      </trkpt>
      <trkpt lat="48.783013" lon="-1.184361">
        <ele>166.179</ele>
        <time>2026-08-24T14:33:37Z</time>
      </trkpt>
      <trkpt lat="48.783008" lon="-1.184383">
        <ele>165.747</ele>
        <time>2026-08-24T14:33:39Z</time>
      </trkpt>
      <trkpt lat="48.783005" lon="-1.184408">
        <ele>165.011</ele>
        <time>2026-08-24T14:33:42Z</time>
      </trkpt>
      <trkpt lat="48.782994" lon="-1.184434">
        <ele>164.338</ele>
        <time>2026-08-24T14:33:44Z</time>
      </trkpt>
      <trkpt lat="48.782992" lon="-1.184450">
        <ele>164.010</ele>
        <time>2026-08-24T14:33:45Z</time>
      </trkpt>
      <trkpt lat="48.782986" lon="-1.184477">
        <ele>164.041</ele>
        <time>2026-08-24T14:33:47Z</time>
      </trkpt>
      <trkpt lat="48.782981" lon="-1.184493">
        <ele>164.081</ele>
        <time>2026-08-24T14:33:48Z</time>
      </trkpt>
      <trkpt lat="48.782980" lon="-1.184509">
        <ele>163.909</ele>
        <time>2026-08-24T14:33:49Z</time>
      </trkpt>
      <trkpt lat="48.782971" lon="-1.184521">
        <ele>163.909</ele>
        <time>2026-08-24T14:33:50Z</time>
      </trkpt>
      <trkpt lat="48.782962" lon="-1.184531">
        <ele>163.886</ele>
        <time>2026-08-24T14:33:51Z</time>
      </trkpt>
      <trkpt lat="48.782951" lon="-1.184548">
        <ele>163.822</ele>
        <time>2026-08-24T14:33:53Z</time>
      </trkpt>
      <trkpt lat="48.782942" lon="-1.184554">
        <ele>163.765</ele>
        <time>2026-08-24T14:33:55Z</time>
      </trkpt>
      <trkpt lat="48.782934" lon="-1.184574">
        <ele>163.732</ele>
        <time>2026-08-24T14:33:57Z</time>
      </trkpt>
      <trkpt lat="48.782934" lon="-1.184590">
        <ele>163.690</ele>
        <time>2026-08-24T14:33:58Z</time>
      </trkpt>
      <trkpt lat="48.782934" lon="-1.184604">
        <ele>163.558</ele>
        <time>2026-08-24T14:33:59Z</time>
      </trkpt>
      <trkpt lat="48.782936" lon="-1.184617">
        <ele>163.132</ele>
        <time>2026-08-24T14:34:00Z</time>
      </trkpt>
      <trkpt lat="48.782929" lon="-1.184636">
        <ele>162.499</ele>
        <time>2026-08-24T14:34:02Z</time>
      </trkpt>
      <trkpt lat="48.782928" lon="-1.184656">
        <ele>161.621</ele>
        <time>2026-08-24T14:34:04Z</time>
      </trkpt>
      <trkpt lat="48.782927" lon="-1.184675">
        <ele>161.349</ele>
        <time>2026-08-24T14:34:06Z</time>
      </trkpt>
      <trkpt lat="48.782930" lon="-1.184690">
        <ele>161.102</ele>
        <time>2026-08-24T14:34:09Z</time>
      </trkpt>
      <trkpt lat="48.782928" lon="-1.184705">
        <ele>160.722</ele>
        <time>2026-08-24T14:34:11Z</time>
      </trkpt>
      <trkpt lat="48.782927" lon="-1.184720">
        <ele>160.509</ele>
        <time>2026-08-24T14:34:13Z</time>
      </trkpt>
      <trkpt lat="48.782927" lon="-1.184740">
        <ele>160.366</ele>
        <time>2026-08-24T14:34:15Z</time>
      </trkpt>
      <trkpt lat="48.782927" lon="-1.184756">
        <ele>160.142</ele>
        <time>2026-08-24T14:34:17Z</time>
      </trkpt>
      <trkpt lat="48.782924" lon="-1.184778">
        <ele>160.145</ele>
        <time>2026-08-24T14:34:19Z</time>
      </trkpt>
      <trkpt lat="48.782922" lon="-1.184793">
        <ele>160.032</ele>
        <time>2026-08-24T14:34:21Z</time>
      </trkpt>
      <trkpt lat="48.782918" lon="-1.184822">
        <ele>159.890</ele>
        <time>2026-08-24T14:34:23Z</time>
      </trkpt>
      <trkpt lat="48.782911" lon="-1.184851">
        <ele>159.788</ele>
        <time>2026-08-24T14:34:24Z</time>
      </trkpt>
      <trkpt lat="48.782906" lon="-1.184878">
        <ele>159.692</ele>
        <time>2026-08-24T14:34:25Z</time>
      </trkpt>
      <trkpt lat="48.782900" lon="-1.184904">
        <ele>159.489</ele>
        <time>2026-08-24T14:34:26Z</time>
      </trkpt>
      <trkpt lat="48.782893" lon="-1.184925">
        <ele>159.241</ele>
        <time>2026-08-24T14:34:27Z</time>
      </trkpt>
      <trkpt lat="48.782890" lon="-1.184939">
        <ele>159.115</ele>
        <time>2026-08-24T14:34:28Z</time>
      </trkpt>
      <trkpt lat="48.782886" lon="-1.184963">
        <ele>159.165</ele>
        <time>2026-08-24T14:34:30Z</time>
      </trkpt>
      <trkpt lat="48.782882" lon="-1.184981">
        <ele>159.011</ele>
        <time>2026-08-24T14:34:31Z</time>
      </trkpt>
      <trkpt lat="48.782876" lon="-1.184996">
        <ele>158.909</ele>
        <time>2026-08-24T14:34:32Z</time>
      </trkpt>
      <trkpt lat="48.782882" lon="-1.185020">
        <ele>158.943</ele>
        <time>2026-08-24T14:34:34Z</time>
      </trkpt>
      <trkpt lat="48.782888" lon="-1.185036">
        <ele>158.849</ele>
        <time>2026-08-24T14:34:35Z</time>
      </trkpt>
      <trkpt lat="48.782891" lon="-1.185052">
        <ele>158.792</ele>
        <time>2026-08-24T14:34:36Z</time>
      </trkpt>
      <trkpt lat="48.782890" lon="-1.185073">
        <ele>158.419</ele>
        <time>2026-08-24T14:34:38Z</time>
      </trkpt>
      <trkpt lat="48.782876" lon="-1.185080">
        <ele>158.157</ele>
        <time>2026-08-24T14:34:39Z</time>
      </trkpt>
      <trkpt lat="48.782862" lon="-1.185085">
        <ele>157.785</ele>
        <time>2026-08-24T14:34:40Z</time>
      </trkpt>
      <trkpt lat="48.782857" lon="-1.185102">
        <ele>157.539</ele>
        <time>2026-08-24T14:34:41Z</time>
      </trkpt>
      <trkpt lat="48.782852" lon="-1.185126">
        <ele>157.446</ele>
        <time>2026-08-24T14:34:43Z</time>
      </trkpt>
      <trkpt lat="48.782852" lon="-1.185140">
        <ele>157.328</ele>
        <time>2026-08-24T14:34:46Z</time>
      </trkpt>
      <trkpt lat="48.782849" lon="-1.185175">
        <ele>157.118</ele>
        <time>2026-08-24T14:34:48Z</time>
      </trkpt>
      <trkpt lat="48.782844" lon="-1.185194">
        <ele>157.098</ele>
        <time>2026-08-24T14:34:49Z</time>
      </trkpt>
      <trkpt lat="48.782841" lon="-1.185208">
        <ele>156.917</ele>
        <time>2026-08-24T14:34:51Z</time>
      </trkpt>
      <trkpt lat="48.782839" lon="-1.185229">
        <ele>156.909</ele>
        <time>2026-08-24T14:34:55Z</time>
      </trkpt>
      <trkpt lat="48.782838" lon="-1.185248">
        <ele>156.913</ele>
        <time>2026-08-24T14:34:58Z</time>
      </trkpt>
      <trkpt lat="48.782833" lon="-1.185262">
        <ele>156.819</ele>
        <time>2026-08-24T14:35:01Z</time>
      </trkpt>
      <trkpt lat="48.782830" lon="-1.185276">
        <ele>156.862</ele>
        <time>2026-08-24T14:35:03Z</time>
      </trkpt>
      <trkpt lat="48.782828" lon="-1.185290">
        <ele>156.749</ele>
        <time>2026-08-24T14:35:05Z</time>
      </trkpt>
      <trkpt lat="48.782824" lon="-1.185303">
        <ele>156.587</ele>
        <time>2026-08-24T14:35:07Z</time>
      </trkpt>
      <trkpt lat="48.782820" lon="-1.185328">
        <ele>156.245</ele>
        <time>2026-08-24T14:35:09Z</time>
      </trkpt>
      <trkpt lat="48.782815" lon="-1.185344">
        <ele>156.119</ele>
        <time>2026-08-24T14:35:12Z</time>
      </trkpt>
      <trkpt lat="48.782812" lon="-1.185358">
        <ele>156.026</ele>
        <time>2026-08-24T14:35:15Z</time>
      </trkpt>
      <trkpt lat="48.782811" lon="-1.185372">
        <ele>155.868</ele>
        <time>2026-08-24T14:35:17Z</time>
      </trkpt>
      <trkpt lat="48.782818" lon="-1.185388">
        <ele>155.617</ele>
        <time>2026-08-24T14:35:20Z</time>
      </trkpt>
      <trkpt lat="48.782820" lon="-1.185408">
        <ele>155.287</ele>
        <time>2026-08-24T14:35:23Z</time>
      </trkpt>
      <trkpt lat="48.782821" lon="-1.185426">
        <ele>154.715</ele>
        <time>2026-08-24T14:35:27Z</time>
      </trkpt>
      <trkpt lat="48.782816" lon="-1.185456">
        <ele>154.509</ele>
        <time>2026-08-24T14:35:31Z</time>
      </trkpt>
      <trkpt lat="48.782811" lon="-1.185472">
        <ele>154.383</ele>
        <time>2026-08-24T14:35:32Z</time>
      </trkpt>
      <trkpt lat="48.782807" lon="-1.185490">
        <ele>154.189</ele>
        <time>2026-08-24T14:35:33Z</time>
      </trkpt>
      <trkpt lat="48.782801" lon="-1.185513">
        <ele>153.552</ele>
        <time>2026-08-24T14:35:35Z</time>
      </trkpt>
      <trkpt lat="48.782799" lon="-1.185528">
        <ele>152.589</ele>
        <time>2026-08-24T14:35:37Z</time>
      </trkpt>
      <trkpt lat="48.782795" lon="-1.185541">
        <ele>151.967</ele>
        <time>2026-08-24T14:35:39Z</time>
      </trkpt>
      <trkpt lat="48.782792" lon="-1.185560">
        <ele>151.585</ele>
        <time>2026-08-24T14:35:41Z</time>
      </trkpt>
      <trkpt lat="48.782793" lon="-1.185578">
        <ele>151.049</ele>
        <time>2026-08-24T14:35:43Z</time>
      </trkpt>
      <trkpt lat="48.782791" lon="-1.185598">
        <ele>150.356</ele>
        <time>2026-08-24T14:35:45Z</time>
      </trkpt>
      <trkpt lat="48.782786" lon="-1.185622">
        <ele>149.368</ele>
        <time>2026-08-24T14:35:47Z</time>
      </trkpt>
      <trkpt lat="48.782783" lon="-1.185638">
        <ele>148.625</ele>
        <time>2026-08-24T14:35:49Z</time>
      </trkpt>
      <trkpt lat="48.782783" lon="-1.185655">
        <ele>148.426</ele>
        <time>2026-08-24T14:35:51Z</time>
      </trkpt>
      <trkpt lat="48.782783" lon="-1.185670">
        <ele>148.408</ele>
        <time>2026-08-24T14:35:55Z</time>
      </trkpt>
      <trkpt lat="48.782784" lon="-1.185688">
        <ele>148.409</ele>
        <time>2026-08-24T14:35:58Z</time>
      </trkpt>
      <trkpt lat="48.782776" lon="-1.185724">
        <ele>148.334</ele>
        <time>2026-08-24T14:36:01Z</time>
      </trkpt>
      <trkpt lat="48.782768" lon="-1.185749">
        <ele>148.140</ele>
        <time>2026-08-24T14:36:02Z</time>
      </trkpt>
      <trkpt lat="48.782765" lon="-1.185776">
        <ele>148.163</ele>
        <time>2026-08-24T14:36:03Z</time>
      </trkpt>
      <trkpt lat="48.782759" lon="-1.185794">
        <ele>148.040</ele>
        <time>2026-08-24T14:36:04Z</time>
      </trkpt>
      <trkpt lat="48.782753" lon="-1.185812">
        <ele>147.888</ele>
        <time>2026-08-24T14:36:05Z</time>
      </trkpt>
      <trkpt lat="48.782748" lon="-1.185829">
        <ele>147.716</ele>
        <time>2026-08-24T14:36:06Z</time>
      </trkpt>
      <trkpt lat="48.782748" lon="-1.185850">
        <ele>147.440</ele>
        <time>2026-08-24T14:36:07Z</time>
      </trkpt>
      <trkpt lat="48.782748" lon="-1.185864">
        <ele>147.377</ele>
        <time>2026-08-24T14:36:09Z</time>
      </trkpt>
      <trkpt lat="48.782742" lon="-1.185877">
        <ele>146.979</ele>
        <time>2026-08-24T14:36:10Z</time>
      </trkpt>
      <trkpt lat="48.782739" lon="-1.185894">
        <ele>146.672</ele>
        <time>2026-08-24T14:36:11Z</time>
      </trkpt>
      <trkpt lat="48.782735" lon="-1.185919">
        <ele>146.413</ele>
        <time>2026-08-24T14:36:13Z</time>
      </trkpt>
      <trkpt lat="48.782730" lon="-1.185939">
        <ele>146.314</ele>
        <time>2026-08-24T14:36:14Z</time>
      </trkpt>
      <trkpt lat="48.782728" lon="-1.185975">
        <ele>146.209</ele>
        <time>2026-08-24T14:36:15Z</time>
      </trkpt>
      <trkpt lat="48.782726" lon="-1.185995">
        <ele>146.029</ele>
        <time>2026-08-24T14:36:16Z</time>
      </trkpt>
      <trkpt lat="48.782726" lon="-1.186020">
        <ele>145.965</ele>
        <time>2026-08-24T14:36:17Z</time>
      </trkpt>
      <trkpt lat="48.782724" lon="-1.186041">
        <ele>145.638</ele>
        <time>2026-08-24T14:36:18Z</time>
      </trkpt>
      <trkpt lat="48.782723" lon="-1.186085">
        <ele>145.485</ele>
        <time>2026-08-24T14:36:19Z</time>
      </trkpt>
      <trkpt lat="48.782720" lon="-1.186124">
        <ele>145.273</ele>
        <time>2026-08-24T14:36:21Z</time>
      </trkpt>
      <trkpt lat="48.782720" lon="-1.186137">
        <ele>145.191</ele>
        <time>2026-08-24T14:36:22Z</time>
      </trkpt>
      <trkpt lat="48.782723" lon="-1.186161">
        <ele>145.055</ele>
        <time>2026-08-24T14:36:24Z</time>
      </trkpt>
      <trkpt lat="48.782723" lon="-1.186178">
        <ele>144.972</ele>
        <time>2026-08-24T14:36:25Z</time>
      </trkpt>
      <trkpt lat="48.782730" lon="-1.186198">
        <ele>144.614</ele>
        <time>2026-08-24T14:36:26Z</time>
      </trkpt>
      <trkpt lat="48.782737" lon="-1.186212">
        <ele>144.239</ele>
        <time>2026-08-24T14:36:28Z</time>
      </trkpt>
      <trkpt lat="48.782735" lon="-1.186242">
        <ele>143.701</ele>
        <time>2026-08-24T14:36:30Z</time>
      </trkpt>
      <trkpt lat="48.782737" lon="-1.186257">
        <ele>143.321</ele>
        <time>2026-08-24T14:36:31Z</time>
      </trkpt>
      <trkpt lat="48.782733" lon="-1.186282">
        <ele>142.909</ele>
        <time>2026-08-24T14:36:35Z</time>
      </trkpt>
      <trkpt lat="48.782729" lon="-1.186305">
        <ele>142.755</ele>
        <time>2026-08-24T14:36:36Z</time>
      </trkpt>
      <trkpt lat="48.782727" lon="-1.186320">
        <ele>142.561</ele>
        <time>2026-08-24T14:36:38Z</time>
      </trkpt>
      <trkpt lat="48.782728" lon="-1.186342">
        <ele>142.354</ele>
        <time>2026-08-24T14:36:43Z</time>
      </trkpt>
      <trkpt lat="48.782728" lon="-1.186369">
        <ele>142.261</ele>
        <time>2026-08-24T14:36:45Z</time>
      </trkpt>
      <trkpt lat="48.782720" lon="-1.186388">
        <ele>142.189</ele>
        <time>2026-08-24T14:36:47Z</time>
      </trkpt>
      <trkpt lat="48.782710" lon="-1.186403">
        <ele>141.937</ele>
        <time>2026-08-24T14:36:49Z</time>
      </trkpt>
      <trkpt lat="48.782703" lon="-1.186415">
        <ele>141.841</ele>
        <time>2026-08-24T14:36:51Z</time>
      </trkpt>
      <trkpt lat="48.782698" lon="-1.186443">
        <ele>141.688</ele>
        <time>2026-08-24T14:36:53Z</time>
      </trkpt>
      <trkpt lat="48.782697" lon="-1.186463">
        <ele>141.490</ele>
        <time>2026-08-24T14:36:55Z</time>
      </trkpt>
      <trkpt lat="48.782697" lon="-1.186484">
        <ele>141.394</ele>
        <time>2026-08-24T14:36:57Z</time>
      </trkpt>
      <trkpt lat="48.782699" lon="-1.186506">
        <ele>140.757</ele>
        <time>2026-08-24T14:36:58Z</time>
      </trkpt>
      <trkpt lat="48.782701" lon="-1.186521">
        <ele>139.922</ele>
        <time>2026-08-24T14:36:59Z</time>
      </trkpt>
      <trkpt lat="48.782703" lon="-1.186537">
        <ele>139.409</ele>
        <time>2026-08-24T14:37:01Z</time>
      </trkpt>
      <trkpt lat="48.782699" lon="-1.186556">
        <ele>139.111</ele>
        <time>2026-08-24T14:37:03Z</time>
      </trkpt>
      <trkpt lat="48.782698" lon="-1.186577">
        <ele>138.877</ele>
        <time>2026-08-24T14:37:04Z</time>
      </trkpt>
      <trkpt lat="48.782698" lon="-1.186610">
        <ele>138.610</ele>
        <time>2026-08-24T14:37:05Z</time>
      </trkpt>
      <trkpt lat="48.782698" lon="-1.186635">
        <ele>138.657</ele>
        <time>2026-08-24T14:37:06Z</time>
      </trkpt>
      <trkpt lat="48.782695" lon="-1.186659">
        <ele>138.565</ele>
        <time>2026-08-24T14:37:07Z</time>
      </trkpt>
      <trkpt lat="48.782690" lon="-1.186683">
        <ele>138.573</ele>
        <time>2026-08-24T14:37:09Z</time>
      </trkpt>
      <trkpt lat="48.782685" lon="-1.186704">
        <ele>138.157</ele>
        <time>2026-08-24T14:37:11Z</time>
      </trkpt>
      <trkpt lat="48.782676" lon="-1.186727">
        <ele>137.544</ele>
        <time>2026-08-24T14:37:13Z</time>
      </trkpt>
      <trkpt lat="48.782672" lon="-1.186745">
        <ele>137.246</ele>
        <time>2026-08-24T14:37:14Z</time>
      </trkpt>
      <trkpt lat="48.782666" lon="-1.186760">
        <ele>136.977</ele>
        <time>2026-08-24T14:37:15Z</time>
      </trkpt>
      <trkpt lat="48.782661" lon="-1.186779">
        <ele>136.461</ele>
        <time>2026-08-24T14:37:17Z</time>
      </trkpt>
      <trkpt lat="48.782655" lon="-1.186795">
        <ele>136.227</ele>
        <time>2026-08-24T14:37:19Z</time>
      </trkpt>
      <trkpt lat="48.782650" lon="-1.186815">
        <ele>136.009</ele>
        <time>2026-08-24T14:37:41Z</time>
      </trkpt>
      <trkpt lat="48.782653" lon="-1.186832">
        <ele>135.659</ele>
        <time>2026-08-24T14:37:46Z</time>
      </trkpt>
      <trkpt lat="48.782637" lon="-1.186853">
        <ele>135.415</ele>
        <time>2026-08-24T14:37:47Z</time>
      </trkpt>
      <trkpt lat="48.782630" lon="-1.186873">
        <ele>135.418</ele>
        <time>2026-08-24T14:37:48Z</time>
      </trkpt>
      <trkpt lat="48.782619" lon="-1.186881">
        <ele>135.435</ele>
        <time>2026-08-24T14:37:50Z</time>
      </trkpt>
      <trkpt lat="48.782627" lon="-1.186871">
        <ele>131.883</ele>
        <time>2026-08-24T14:39:56Z</time>
      </trkpt>
      <trkpt lat="48.782640" lon="-1.186864">
        <ele>127.871</ele>
        <time>2026-08-24T14:39:59Z</time>
      </trkpt>
      <trkpt lat="48.782649" lon="-1.186852">
        <ele>127.715</ele>
        <time>2026-08-24T14:40:01Z</time>
      </trkpt>
      <trkpt lat="48.782653" lon="-1.186835">
        <ele>127.872</ele>
        <time>2026-08-24T14:40:03Z</time>
      </trkpt>
      <trkpt lat="48.782649" lon="-1.186807">
        <ele>127.854</ele>
        <time>2026-08-24T14:40:06Z</time>
      </trkpt>
      <trkpt lat="48.782646" lon="-1.186793">
        <ele>128.371</ele>
        <time>2026-08-24T14:40:07Z</time>
      </trkpt>
      <trkpt lat="48.782645" lon="-1.186779">
        <ele>128.741</ele>
        <time>2026-08-24T14:40:08Z</time>
      </trkpt>
      <trkpt lat="48.782643" lon="-1.186765">
        <ele>129.115</ele>
        <time>2026-08-24T14:40:09Z</time>
      </trkpt>
      <trkpt lat="48.782643" lon="-1.186751">
        <ele>129.509</ele>
        <time>2026-08-24T14:40:10Z</time>
      </trkpt>
      <trkpt lat="48.782640" lon="-1.186728">
        <ele>129.619</ele>
        <time>2026-08-24T14:40:12Z</time>
      </trkpt>
      <trkpt lat="48.782640" lon="-1.186707">
        <ele>129.745</ele>
        <time>2026-08-24T14:40:14Z</time>
      </trkpt>
      <trkpt lat="48.782635" lon="-1.186692">
        <ele>129.848</ele>
        <time>2026-08-24T14:40:23Z</time>
      </trkpt>
      <trkpt lat="48.782631" lon="-1.186673">
        <ele>129.845</ele>
        <time>2026-08-24T14:40:24Z</time>
      </trkpt>
      <trkpt lat="48.782628" lon="-1.186655">
        <ele>129.923</ele>
        <time>2026-08-24T14:40:25Z</time>
      </trkpt>
      <trkpt lat="48.782627" lon="-1.186636">
        <ele>129.991</ele>
        <time>2026-08-24T14:40:26Z</time>
      </trkpt>
      <trkpt lat="48.782626" lon="-1.186620">
        <ele>130.045</ele>
        <time>2026-08-24T14:40:27Z</time>
      </trkpt>
      <trkpt lat="48.782622" lon="-1.186606">
        <ele>130.272</ele>
        <time>2026-08-24T14:40:28Z</time>
      </trkpt>
      <trkpt lat="48.782621" lon="-1.186587">
        <ele>130.344</ele>
        <time>2026-08-24T14:40:29Z</time>
      </trkpt>
      <trkpt lat="48.782620" lon="-1.186568">
        <ele>130.324</ele>
        <time>2026-08-24T14:40:30Z</time>
      </trkpt>
      <trkpt lat="48.782618" lon="-1.186552">
        <ele>130.404</ele>
        <time>2026-08-24T14:40:31Z</time>
      </trkpt>
      <trkpt lat="48.782619" lon="-1.186536">
        <ele>130.314</ele>
        <time>2026-08-24T14:40:33Z</time>
      </trkpt>
      <trkpt lat="48.782618" lon="-1.186521">
        <ele>130.309</ele>
        <time>2026-08-24T14:40:40Z</time>
      </trkpt>
      <trkpt lat="48.782617" lon="-1.186498">
        <ele>130.264</ele>
        <time>2026-08-24T14:40:43Z</time>
      </trkpt>
      <trkpt lat="48.782618" lon="-1.186483">
        <ele>130.090</ele>
        <time>2026-08-24T14:40:44Z</time>
      </trkpt>
      <trkpt lat="48.782619" lon="-1.186462">
        <ele>129.913</ele>
        <time>2026-08-24T14:40:45Z</time>
      </trkpt>
      <trkpt lat="48.782620" lon="-1.186435">
        <ele>129.940</ele>
        <time>2026-08-24T14:40:46Z</time>
      </trkpt>
      <trkpt lat="48.782619" lon="-1.186415">
        <ele>129.828</ele>
        <time>2026-08-24T14:40:47Z</time>
      </trkpt>
      <trkpt lat="48.782618" lon="-1.186392">
        <ele>129.886</ele>
        <time>2026-08-24T14:40:48Z</time>
      </trkpt>
      <trkpt lat="48.782618" lon="-1.186373">
        <ele>129.780</ele>
        <time>2026-08-24T14:40:49Z</time>
      </trkpt>
      <trkpt lat="48.782617" lon="-1.186355">
        <ele>129.697</ele>
        <time>2026-08-24T14:40:50Z</time>
      </trkpt>
      <trkpt lat="48.782610" lon="-1.186328">
        <ele>129.879</ele>
        <time>2026-08-24T14:40:51Z</time>
      </trkpt>
      <trkpt lat="48.782607" lon="-1.186302">
        <ele>129.977</ele>
        <time>2026-08-24T14:40:53Z</time>
      </trkpt>
      <trkpt lat="48.782599" lon="-1.186275">
        <ele>130.061</ele>
        <time>2026-08-24T14:40:56Z</time>
      </trkpt>
      <trkpt lat="48.782595" lon="-1.186260">
        <ele>130.327</ele>
        <time>2026-08-24T14:40:57Z</time>
      </trkpt>
      <trkpt lat="48.782593" lon="-1.186239">
        <ele>130.409</ele>
        <time>2026-08-24T14:40:58Z</time>
      </trkpt>
      <trkpt lat="48.782590" lon="-1.186221">
        <ele>130.419</ele>
        <time>2026-08-24T14:40:59Z</time>
      </trkpt>
      <trkpt lat="48.782580" lon="-1.186212">
        <ele>130.445</ele>
        <time>2026-08-24T14:41:01Z</time>
      </trkpt>
      <trkpt lat="48.782575" lon="-1.186198">
        <ele>130.418</ele>
        <time>2026-08-24T14:41:02Z</time>
      </trkpt>
      <trkpt lat="48.782573" lon="-1.186183">
        <ele>130.585</ele>
        <time>2026-08-24T14:41:03Z</time>
      </trkpt>
      <trkpt lat="48.782567" lon="-1.186156">
        <ele>130.583</ele>
        <time>2026-08-24T14:41:04Z</time>
      </trkpt>
      <trkpt lat="48.782562" lon="-1.186132">
        <ele>130.531</ele>
        <time>2026-08-24T14:41:05Z</time>
      </trkpt>
      <trkpt lat="48.782559" lon="-1.186103">
        <ele>130.555</ele>
        <time>2026-08-24T14:41:06Z</time>
      </trkpt>
      <trkpt lat="48.782558" lon="-1.186086">
        <ele>130.632</ele>
        <time>2026-08-24T14:41:07Z</time>
      </trkpt>
      <trkpt lat="48.782556" lon="-1.186067">
        <ele>130.764</ele>
        <time>2026-08-24T14:41:08Z</time>
      </trkpt>
      <trkpt lat="48.782555" lon="-1.186048">
        <ele>130.732</ele>
        <time>2026-08-24T14:41:09Z</time>
      </trkpt>
      <trkpt lat="48.782551" lon="-1.186033">
        <ele>130.992</ele>
        <time>2026-08-24T14:41:10Z</time>
      </trkpt>
      <trkpt lat="48.782547" lon="-1.186020">
        <ele>131.111</ele>
        <time>2026-08-24T14:41:11Z</time>
      </trkpt>
      <trkpt lat="48.782546" lon="-1.186006">
        <ele>131.109</ele>
        <time>2026-08-24T14:41:12Z</time>
      </trkpt>
      <trkpt lat="48.782544" lon="-1.185991">
        <ele>131.155</ele>
        <time>2026-08-24T14:41:13Z</time>
      </trkpt>
      <trkpt lat="48.782539" lon="-1.185977">
        <ele>131.211</ele>
        <time>2026-08-24T14:41:14Z</time>
      </trkpt>
      <trkpt lat="48.782535" lon="-1.185961">
        <ele>131.224</ele>
        <time>2026-08-24T14:41:15Z</time>
      </trkpt>
      <trkpt lat="48.782527" lon="-1.185941">
        <ele>131.341</ele>
        <time>2026-08-24T14:41:16Z</time>
      </trkpt>
      <trkpt lat="48.782522" lon="-1.185921">
        <ele>131.339</ele>
        <time>2026-08-24T14:41:17Z</time>
      </trkpt>
      <trkpt lat="48.782517" lon="-1.185902">
        <ele>131.387</ele>
        <time>2026-08-24T14:41:18Z</time>
      </trkpt>
      <trkpt lat="48.782515" lon="-1.185886">
        <ele>131.311</ele>
        <time>2026-08-24T14:41:19Z</time>
      </trkpt>
      <trkpt lat="48.782510" lon="-1.185857">
        <ele>131.438</ele>
        <time>2026-08-24T14:41:20Z</time>
      </trkpt>
      <trkpt lat="48.782504" lon="-1.185833">
        <ele>131.430</ele>
        <time>2026-08-24T14:41:22Z</time>
      </trkpt>
      <trkpt lat="48.782496" lon="-1.185810">
        <ele>131.671</ele>
        <time>2026-08-24T14:41:24Z</time>
      </trkpt>
      <trkpt lat="48.782488" lon="-1.185796">
        <ele>132.141</ele>
        <time>2026-08-24T14:41:25Z</time>
      </trkpt>
      <trkpt lat="48.782481" lon="-1.185782">
        <ele>132.615</ele>
        <time>2026-08-24T14:41:26Z</time>
      </trkpt>
      <trkpt lat="48.782475" lon="-1.185771">
        <ele>132.909</ele>
        <time>2026-08-24T14:41:28Z</time>
      </trkpt>
      <trkpt lat="48.782466" lon="-1.185743">
        <ele>133.039</ele>
        <time>2026-08-24T14:41:30Z</time>
      </trkpt>
      <trkpt lat="48.782458" lon="-1.185725">
        <ele>133.195</ele>
        <time>2026-08-24T14:41:31Z</time>
      </trkpt>
      <trkpt lat="48.782449" lon="-1.185685">
        <ele>133.138</ele>
        <time>2026-08-24T14:41:33Z</time>
      </trkpt>
      <trkpt lat="48.782447" lon="-1.185663">
        <ele>133.185</ele>
        <time>2026-08-24T14:41:34Z</time>
      </trkpt>
      <trkpt lat="48.782447" lon="-1.185646">
        <ele>133.353</ele>
        <time>2026-08-24T14:41:35Z</time>
      </trkpt>
      <trkpt lat="48.782448" lon="-1.185626">
        <ele>133.691</ele>
        <time>2026-08-24T14:41:36Z</time>
      </trkpt>
      <trkpt lat="48.782449" lon="-1.185608">
        <ele>134.055</ele>
        <time>2026-08-24T14:41:37Z</time>
      </trkpt>
      <trkpt lat="48.782450" lon="-1.185590">
        <ele>134.522</ele>
        <time>2026-08-24T14:41:38Z</time>
      </trkpt>
      <trkpt lat="48.782450" lon="-1.185575">
        <ele>135.234</ele>
        <time>2026-08-24T14:41:39Z</time>
      </trkpt>
      <trkpt lat="48.782448" lon="-1.185558">
        <ele>135.949</ele>
        <time>2026-08-24T14:41:40Z</time>
      </trkpt>
      <trkpt lat="48.782442" lon="-1.185538">
        <ele>136.502</ele>
        <time>2026-08-24T14:41:41Z</time>
      </trkpt>
      <trkpt lat="48.782436" lon="-1.185521">
        <ele>137.122</ele>
        <time>2026-08-24T14:41:42Z</time>
      </trkpt>
      <trkpt lat="48.782433" lon="-1.185505">
        <ele>137.409</ele>
        <time>2026-08-24T14:41:43Z</time>
      </trkpt>
      <trkpt lat="48.782429" lon="-1.185491">
        <ele>137.466</ele>
        <time>2026-08-24T14:41:44Z</time>
      </trkpt>
      <trkpt lat="48.782425" lon="-1.185466">
        <ele>137.652</ele>
        <time>2026-08-24T14:41:45Z</time>
      </trkpt>
      <trkpt lat="48.782423" lon="-1.185450">
        <ele>137.785</ele>
        <time>2026-08-24T14:41:46Z</time>
      </trkpt>
      <trkpt lat="48.782417" lon="-1.185422">
        <ele>137.722</ele>
        <time>2026-08-24T14:41:47Z</time>
      </trkpt>
      <trkpt lat="48.782415" lon="-1.185397">
        <ele>137.810</ele>
        <time>2026-08-24T14:41:48Z</time>
      </trkpt>
      <trkpt lat="48.782411" lon="-1.185380">
        <ele>137.948</ele>
        <time>2026-08-24T14:41:49Z</time>
      </trkpt>
      <trkpt lat="48.782406" lon="-1.185350">
        <ele>137.952</ele>
        <time>2026-08-24T14:41:51Z</time>
      </trkpt>
      <trkpt lat="48.782400" lon="-1.185330">
        <ele>138.169</ele>
        <time>2026-08-24T14:41:52Z</time>
      </trkpt>
      <trkpt lat="48.782397" lon="-1.185314">
        <ele>138.361</ele>
        <time>2026-08-24T14:41:53Z</time>
      </trkpt>
      <trkpt lat="48.782395" lon="-1.185297">
        <ele>138.445</ele>
        <time>2026-08-24T14:41:55Z</time>
      </trkpt>
      <trkpt lat="48.782393" lon="-1.185283">
        <ele>138.447</ele>
        <time>2026-08-24T14:41:56Z</time>
      </trkpt>
      <trkpt lat="48.782392" lon="-1.185264">
        <ele>138.411</ele>
        <time>2026-08-24T14:41:57Z</time>
      </trkpt>
      <trkpt lat="48.782385" lon="-1.185242">
        <ele>138.409</ele>
        <time>2026-08-24T14:41:59Z</time>
      </trkpt>
      <trkpt lat="48.782387" lon="-1.185224">
        <ele>138.526</ele>
        <time>2026-08-24T14:42:00Z</time>
      </trkpt>
      <trkpt lat="48.782387" lon="-1.185208">
        <ele>138.792</ele>
        <time>2026-08-24T14:42:01Z</time>
      </trkpt>
      <trkpt lat="48.782383" lon="-1.185189">
        <ele>138.795</ele>
        <time>2026-08-24T14:42:02Z</time>
      </trkpt>
      <trkpt lat="48.782383" lon="-1.185173">
        <ele>138.722</ele>
        <time>2026-08-24T14:42:04Z</time>
      </trkpt>
      <trkpt lat="48.782374" lon="-1.185155">
        <ele>138.870</ele>
        <time>2026-08-24T14:42:06Z</time>
      </trkpt>
      <trkpt lat="48.782366" lon="-1.185142">
        <ele>138.918</ele>
        <time>2026-08-24T14:42:07Z</time>
      </trkpt>
      <trkpt lat="48.782361" lon="-1.185130">
        <ele>139.172</ele>
        <time>2026-08-24T14:42:08Z</time>
      </trkpt>
      <trkpt lat="48.782352" lon="-1.185112">
        <ele>139.519</ele>
        <time>2026-08-24T14:42:09Z</time>
      </trkpt>
      <trkpt lat="48.782347" lon="-1.185097">
        <ele>139.661</ele>
        <time>2026-08-24T14:42:10Z</time>
      </trkpt>
      <trkpt lat="48.782340" lon="-1.185083">
        <ele>139.694</ele>
        <time>2026-08-24T14:42:11Z</time>
      </trkpt>
      <trkpt lat="48.782335" lon="-1.185066">
        <ele>139.657</ele>
        <time>2026-08-24T14:42:12Z</time>
      </trkpt>
      <trkpt lat="48.782324" lon="-1.185050">
        <ele>139.622</ele>
        <time>2026-08-24T14:42:13Z</time>
      </trkpt>
      <trkpt lat="48.782311" lon="-1.185034">
        <ele>139.609</ele>
        <time>2026-08-24T14:42:14Z</time>
      </trkpt>
      <trkpt lat="48.782299" lon="-1.185021">
        <ele>139.741</ele>
        <time>2026-08-24T14:42:15Z</time>
      </trkpt>
      <trkpt lat="48.782289" lon="-1.185006">
        <ele>139.897</ele>
        <time>2026-08-24T14:42:16Z</time>
      </trkpt>
      <trkpt lat="48.782283" lon="-1.184995">
        <ele>139.930</ele>
        <time>2026-08-24T14:42:17Z</time>
      </trkpt>
      <trkpt lat="48.782276" lon="-1.184983">
        <ele>139.987</ele>
        <time>2026-08-24T14:42:18Z</time>
      </trkpt>
      <trkpt lat="48.782261" lon="-1.184957">
        <ele>139.925</ele>
        <time>2026-08-24T14:42:20Z</time>
      </trkpt>
      <trkpt lat="48.782251" lon="-1.184930">
        <ele>139.913</ele>
        <time>2026-08-24T14:42:22Z</time>
      </trkpt>
      <trkpt lat="48.782244" lon="-1.184916">
        <ele>139.937</ele>
        <time>2026-08-24T14:42:23Z</time>
      </trkpt>
      <trkpt lat="48.782237" lon="-1.184905">
        <ele>139.914</ele>
        <time>2026-08-24T14:42:24Z</time>
      </trkpt>
      <trkpt lat="48.782230" lon="-1.184889">
        <ele>139.936</ele>
        <time>2026-08-24T14:42:25Z</time>
      </trkpt>
      <trkpt lat="48.782219" lon="-1.184874">
        <ele>139.912</ele>
        <time>2026-08-24T14:42:26Z</time>
      </trkpt>
      <trkpt lat="48.782209" lon="-1.184862">
        <ele>139.932</ele>
        <time>2026-08-24T14:42:27Z</time>
      </trkpt>
      <trkpt lat="48.782193" lon="-1.184845">
        <ele>139.905</ele>
        <time>2026-08-24T14:42:29Z</time>
      </trkpt>
      <trkpt lat="48.782175" lon="-1.184829">
        <ele>139.809</ele>
        <time>2026-08-24T14:42:31Z</time>
      </trkpt>
      <trkpt lat="48.782164" lon="-1.184821">
        <ele>139.723</ele>
        <time>2026-08-24T14:42:32Z</time>
      </trkpt>
      <trkpt lat="48.782148" lon="-1.184803">
        <ele>139.739</ele>
        <time>2026-08-24T14:42:34Z</time>
      </trkpt>
      <trkpt lat="48.782140" lon="-1.184794">
        <ele>139.732</ele>
        <time>2026-08-24T14:42:35Z</time>
      </trkpt>
      <trkpt lat="48.782130" lon="-1.184778">
        <ele>139.789</ele>
        <time>2026-08-24T14:42:37Z</time>
      </trkpt>
      <trkpt lat="48.782119" lon="-1.184769">
        <ele>139.637</ele>
        <time>2026-08-24T14:42:38Z</time>
      </trkpt>
      <trkpt lat="48.782104" lon="-1.184765">
        <ele>139.585</ele>
        <time>2026-08-24T14:42:40Z</time>
      </trkpt>
      <trkpt lat="48.782093" lon="-1.184763">
        <ele>139.559</ele>
        <time>2026-08-24T14:42:41Z</time>
      </trkpt>
      <trkpt lat="48.782079" lon="-1.184759">
        <ele>139.496</ele>
        <time>2026-08-24T14:42:42Z</time>
      </trkpt>
      <trkpt lat="48.782066" lon="-1.184754">
        <ele>139.318</ele>
        <time>2026-08-24T14:42:44Z</time>
      </trkpt>
      <trkpt lat="48.782053" lon="-1.184747">
        <ele>139.279</ele>
        <time>2026-08-24T14:42:45Z</time>
      </trkpt>
      <trkpt lat="48.782040" lon="-1.184747">
        <ele>139.105</ele>
        <time>2026-08-24T14:42:46Z</time>
      </trkpt>
      <trkpt lat="48.782021" lon="-1.184749">
        <ele>139.025</ele>
        <time>2026-08-24T14:42:48Z</time>
      </trkpt>
      <trkpt lat="48.782012" lon="-1.184744">
        <ele>138.909</ele>
        <time>2026-08-24T14:42:49Z</time>
      </trkpt>
      <trkpt lat="48.781991" lon="-1.184731">
        <ele>138.849</ele>
        <time>2026-08-24T14:42:51Z</time>
      </trkpt>
      <trkpt lat="48.781974" lon="-1.184716">
        <ele>138.425</ele>
        <time>2026-08-24T14:42:53Z</time>
      </trkpt>
      <trkpt lat="48.781964" lon="-1.184707">
        <ele>138.288</ele>
        <time>2026-08-24T14:42:54Z</time>
      </trkpt>
      <trkpt lat="48.781954" lon="-1.184696">
        <ele>138.045</ele>
        <time>2026-08-24T14:42:55Z</time>
      </trkpt>
      <trkpt lat="48.781945" lon="-1.184687">
        <ele>137.853</ele>
        <time>2026-08-24T14:42:56Z</time>
      </trkpt>
      <trkpt lat="48.781935" lon="-1.184684">
        <ele>137.741</ele>
        <time>2026-08-24T14:42:57Z</time>
      </trkpt>
      <trkpt lat="48.781922" lon="-1.184679">
        <ele>137.635</ele>
        <time>2026-08-24T14:42:59Z</time>
      </trkpt>
      <trkpt lat="48.781918" lon="-1.184666">
        <ele>137.442</ele>
        <time>2026-08-24T14:43:01Z</time>
      </trkpt>
      <trkpt lat="48.781931" lon="-1.184665">
        <ele>137.414</ele>
        <time>2026-08-24T14:43:04Z</time>
      </trkpt>
      <trkpt lat="48.781921" lon="-1.184668">
        <ele>133.827</ele>
        <time>2026-08-24T14:43:39Z</time>
      </trkpt>
      <trkpt lat="48.781905" lon="-1.184664">
        <ele>131.168</ele>
        <time>2026-08-24T14:43:40Z</time>
      </trkpt>
      <trkpt lat="48.781892" lon="-1.184655">
        <ele>131.214</ele>
        <time>2026-08-24T14:43:41Z</time>
      </trkpt>
      <trkpt lat="48.781877" lon="-1.184652">
        <ele>131.309</ele>
        <time>2026-08-24T14:43:43Z</time>
      </trkpt>
      <trkpt lat="48.781865" lon="-1.184642">
        <ele>131.474</ele>
        <time>2026-08-24T14:43:50Z</time>
      </trkpt>
      <trkpt lat="48.781853" lon="-1.184631">
        <ele>131.460</ele>
        <time>2026-08-24T14:43:53Z</time>
      </trkpt>
      <trkpt lat="48.781844" lon="-1.184628">
        <ele>131.413</ele>
        <time>2026-08-24T14:43:54Z</time>
      </trkpt>
      <trkpt lat="48.781825" lon="-1.184608">
        <ele>131.370</ele>
        <time>2026-08-24T14:43:56Z</time>
      </trkpt>
      <trkpt lat="48.781815" lon="-1.184599">
        <ele>131.488</ele>
        <time>2026-08-24T14:43:57Z</time>
      </trkpt>
      <trkpt lat="48.781806" lon="-1.184589">
        <ele>131.466</ele>
        <time>2026-08-24T14:43:58Z</time>
      </trkpt>
      <trkpt lat="48.781796" lon="-1.184582">
        <ele>131.470</ele>
        <time>2026-08-24T14:43:59Z</time>
      </trkpt>
      <trkpt lat="48.781785" lon="-1.184576">
        <ele>131.477</ele>
        <time>2026-08-24T14:44:00Z</time>
      </trkpt>
      <trkpt lat="48.781774" lon="-1.184571">
        <ele>131.459</ele>
        <time>2026-08-24T14:44:01Z</time>
      </trkpt>
      <trkpt lat="48.781762" lon="-1.184565">
        <ele>131.364</ele>
        <time>2026-08-24T14:44:02Z</time>
      </trkpt>
      <trkpt lat="48.781752" lon="-1.184560">
        <ele>131.306</ele>
        <time>2026-08-24T14:44:03Z</time>
      </trkpt>
      <trkpt lat="48.781743" lon="-1.184552">
        <ele>131.416</ele>
        <time>2026-08-24T14:44:04Z</time>
      </trkpt>
      <trkpt lat="48.781734" lon="-1.184545">
        <ele>131.409</ele>
        <time>2026-08-24T14:44:05Z</time>
      </trkpt>
      <trkpt lat="48.781722" lon="-1.184540">
        <ele>131.498</ele>
        <time>2026-08-24T14:44:06Z</time>
      </trkpt>
      <trkpt lat="48.781710" lon="-1.184536">
        <ele>131.474</ele>
        <time>2026-08-24T14:44:07Z</time>
      </trkpt>
      <trkpt lat="48.781695" lon="-1.184531">
        <ele>131.427</ele>
        <time>2026-08-24T14:44:08Z</time>
      </trkpt>
      <trkpt lat="48.781685" lon="-1.184525">
        <ele>131.564</ele>
        <time>2026-08-24T14:44:10Z</time>
      </trkpt>
      <trkpt lat="48.781678" lon="-1.184516">
        <ele>131.482</ele>
        <time>2026-08-24T14:44:12Z</time>
      </trkpt>
      <trkpt lat="48.781667" lon="-1.184513">
        <ele>131.490</ele>
        <time>2026-08-24T14:44:13Z</time>
      </trkpt>
      <trkpt lat="48.781654" lon="-1.184510">
        <ele>131.494</ele>
        <time>2026-08-24T14:44:14Z</time>
      </trkpt>
      <trkpt lat="48.781641" lon="-1.184512">
        <ele>131.461</ele>
        <time>2026-08-24T14:44:15Z</time>
      </trkpt>
      <trkpt lat="48.781630" lon="-1.184516">
        <ele>131.473</ele>
        <time>2026-08-24T14:44:16Z</time>
      </trkpt>
      <trkpt lat="48.781619" lon="-1.184520">
        <ele>131.395</ele>
        <time>2026-08-24T14:44:17Z</time>
      </trkpt>
      <trkpt lat="48.781604" lon="-1.184515">
        <ele>131.349</ele>
        <time>2026-08-24T14:44:19Z</time>
      </trkpt>
      <trkpt lat="48.781591" lon="-1.184510">
        <ele>131.323</ele>
        <time>2026-08-24T14:44:20Z</time>
      </trkpt>
      <trkpt lat="48.781579" lon="-1.184513">
        <ele>131.309</ele>
        <time>2026-08-24T14:44:21Z</time>
      </trkpt>
      <trkpt lat="48.781566" lon="-1.184509">
        <ele>131.341</ele>
        <time>2026-08-24T14:44:23Z</time>
      </trkpt>
      <trkpt lat="48.781553" lon="-1.184509">
        <ele>131.327</ele>
        <time>2026-08-24T14:44:25Z</time>
      </trkpt>
      <trkpt lat="48.781539" lon="-1.184507">
        <ele>131.260</ele>
        <time>2026-08-24T14:44:27Z</time>
      </trkpt>
      <trkpt lat="48.781526" lon="-1.184496">
        <ele>131.157</ele>
        <time>2026-08-24T14:44:29Z</time>
      </trkpt>
      <trkpt lat="48.781511" lon="-1.184487">
        <ele>131.055</ele>
        <time>2026-08-24T14:44:31Z</time>
      </trkpt>
      <trkpt lat="48.781501" lon="-1.184481">
        <ele>131.083</ele>
        <time>2026-08-24T14:44:33Z</time>
      </trkpt>
      <trkpt lat="48.781489" lon="-1.184472">
        <ele>130.737</ele>
        <time>2026-08-24T14:44:34Z</time>
      </trkpt>
      <trkpt lat="48.781474" lon="-1.184468">
        <ele>130.344</ele>
        <time>2026-08-24T14:44:35Z</time>
      </trkpt>
      <trkpt lat="48.781461" lon="-1.184469">
        <ele>130.066</ele>
        <time>2026-08-24T14:44:36Z</time>
      </trkpt>
      <trkpt lat="48.781447" lon="-1.184470">
        <ele>129.664</ele>
        <time>2026-08-24T14:44:37Z</time>
      </trkpt>
      <trkpt lat="48.781426" lon="-1.184465">
        <ele>129.106</ele>
        <time>2026-08-24T14:44:38Z</time>
      </trkpt>
      <trkpt lat="48.781410" lon="-1.184459">
        <ele>128.716</ele>
        <time>2026-08-24T14:44:39Z</time>
      </trkpt>
      <trkpt lat="48.781388" lon="-1.184455">
        <ele>128.509</ele>
        <time>2026-08-24T14:44:41Z</time>
      </trkpt>
      <trkpt lat="48.781366" lon="-1.184456">
        <ele>128.488</ele>
        <time>2026-08-24T14:44:42Z</time>
      </trkpt>
      <trkpt lat="48.781348" lon="-1.184457">
        <ele>128.374</ele>
        <time>2026-08-24T14:44:43Z</time>
      </trkpt>
      <trkpt lat="48.781334" lon="-1.184452">
        <ele>128.117</ele>
        <time>2026-08-24T14:44:44Z</time>
      </trkpt>
      <trkpt lat="48.781315" lon="-1.184450">
        <ele>128.094</ele>
        <time>2026-08-24T14:44:45Z</time>
      </trkpt>
      <trkpt lat="48.781298" lon="-1.184454">
        <ele>127.972</ele>
        <time>2026-08-24T14:44:46Z</time>
      </trkpt>
      <trkpt lat="48.781279" lon="-1.184462">
        <ele>127.910</ele>
        <time>2026-08-24T14:44:48Z</time>
      </trkpt>
      <trkpt lat="48.781268" lon="-1.184465">
        <ele>127.964</ele>
        <time>2026-08-24T14:44:49Z</time>
      </trkpt>
      <trkpt lat="48.781250" lon="-1.184465">
        <ele>127.991</ele>
        <time>2026-08-24T14:44:50Z</time>
      </trkpt>
      <trkpt lat="48.781238" lon="-1.184474">
        <ele>127.933</ele>
        <time>2026-08-24T14:44:51Z</time>
      </trkpt>
      <trkpt lat="48.781236" lon="-1.184491">
        <ele>127.996</ele>
        <time>2026-08-24T14:44:52Z</time>
      </trkpt>
      <trkpt lat="48.781228" lon="-1.184496">
        <ele>127.931</ele>
        <time>2026-08-24T14:44:53Z</time>
      </trkpt>
      <trkpt lat="48.781207" lon="-1.184505">
        <ele>127.924</ele>
        <time>2026-08-24T14:44:55Z</time>
      </trkpt>
      <trkpt lat="48.781193" lon="-1.184515">
        <ele>127.909</ele>
        <time>2026-08-24T14:44:56Z</time>
      </trkpt>
      <trkpt lat="48.781174" lon="-1.184525">
        <ele>127.961</ele>
        <time>2026-08-24T14:44:57Z</time>
      </trkpt>
      <trkpt lat="48.781162" lon="-1.184526">
        <ele>127.927</ele>
        <time>2026-08-24T14:44:58Z</time>
      </trkpt>
      <trkpt lat="48.781153" lon="-1.184523">
        <ele>127.930</ele>
        <time>2026-08-24T14:44:59Z</time>
      </trkpt>
      <trkpt lat="48.781141" lon="-1.184528">
        <ele>128.017</ele>
        <time>2026-08-24T14:45:00Z</time>
      </trkpt>
      <trkpt lat="48.781129" lon="-1.184531">
        <ele>128.015</ele>
        <time>2026-08-24T14:45:02Z</time>
      </trkpt>
      <trkpt lat="48.781119" lon="-1.184526">
        <ele>128.073</ele>
        <time>2026-08-24T14:45:05Z</time>
      </trkpt>
      <trkpt lat="48.781103" lon="-1.184532">
        <ele>128.057</ele>
        <time>2026-08-24T14:45:07Z</time>
      </trkpt>
      <trkpt lat="48.781085" lon="-1.184542">
        <ele>128.444</ele>
        <time>2026-08-24T14:45:09Z</time>
      </trkpt>
      <trkpt lat="48.781072" lon="-1.184553">
        <ele>128.636</ele>
        <time>2026-08-24T14:45:10Z</time>
      </trkpt>
      <trkpt lat="48.781057" lon="-1.184560">
        <ele>128.771</ele>
        <time>2026-08-24T14:45:11Z</time>
      </trkpt>
      <trkpt lat="48.781045" lon="-1.184567">
        <ele>128.941</ele>
        <time>2026-08-24T14:45:12Z</time>
      </trkpt>
      <trkpt lat="48.781036" lon="-1.184571">
        <ele>129.215</ele>
        <time>2026-08-24T14:45:13Z</time>
      </trkpt>
      <trkpt lat="48.781025" lon="-1.184577">
        <ele>129.409</ele>
        <time>2026-08-24T14:45:14Z</time>
      </trkpt>
      <trkpt lat="48.781008" lon="-1.184579">
        <ele>129.469</ele>
        <time>2026-08-24T14:45:15Z</time>
      </trkpt>
      <trkpt lat="48.780995" lon="-1.184580">
        <ele>129.485</ele>
        <time>2026-08-24T14:45:16Z</time>
      </trkpt>
      <trkpt lat="48.780980" lon="-1.184584">
        <ele>129.478</ele>
        <time>2026-08-24T14:45:17Z</time>
      </trkpt>
      <trkpt lat="48.780966" lon="-1.184590">
        <ele>129.495</ele>
        <time>2026-08-24T14:45:18Z</time>
      </trkpt>
      <trkpt lat="48.780955" lon="-1.184592">
        <ele>129.443</ele>
        <time>2026-08-24T14:45:19Z</time>
      </trkpt>
      <trkpt lat="48.780939" lon="-1.184593">
        <ele>129.441</ele>
        <time>2026-08-24T14:45:20Z</time>
      </trkpt>
      <trkpt lat="48.780922" lon="-1.184599">
        <ele>129.445</ele>
        <time>2026-08-24T14:45:23Z</time>
      </trkpt>
      <trkpt lat="48.780909" lon="-1.184598">
        <ele>129.482</ele>
        <time>2026-08-24T14:45:25Z</time>
      </trkpt>
      <trkpt lat="48.780899" lon="-1.184602">
        <ele>129.484</ele>
        <time>2026-08-24T14:45:26Z</time>
      </trkpt>
      <trkpt lat="48.780886" lon="-1.184601">
        <ele>129.432</ele>
        <time>2026-08-24T14:45:28Z</time>
      </trkpt>
      <trkpt lat="48.780866" lon="-1.184594">
        <ele>129.492</ele>
        <time>2026-08-24T14:45:30Z</time>
      </trkpt>
      <trkpt lat="48.780853" lon="-1.184594">
        <ele>129.411</ele>
        <time>2026-08-24T14:45:31Z</time>
      </trkpt>
      <trkpt lat="48.780838" lon="-1.184598">
        <ele>129.409</ele>
        <time>2026-08-24T14:45:32Z</time>
      </trkpt>
      <trkpt lat="48.780822" lon="-1.184599">
        <ele>129.475</ele>
        <time>2026-08-24T14:45:33Z</time>
      </trkpt>
      <trkpt lat="48.780809" lon="-1.184599">
        <ele>129.321</ele>
        <time>2026-08-24T14:45:34Z</time>
      </trkpt>
      <trkpt lat="48.780797" lon="-1.184604">
        <ele>129.264</ele>
        <time>2026-08-24T14:45:35Z</time>
      </trkpt>
      <trkpt lat="48.780786" lon="-1.184610">
        <ele>129.251</ele>
        <time>2026-08-24T14:45:36Z</time>
      </trkpt>
      <trkpt lat="48.780777" lon="-1.184615">
        <ele>129.159</ele>
        <time>2026-08-24T14:45:37Z</time>
      </trkpt>
      <trkpt lat="48.780766" lon="-1.184619">
        <ele>129.127</ele>
        <time>2026-08-24T14:45:38Z</time>
      </trkpt>
      <trkpt lat="48.780752" lon="-1.184619">
        <ele>129.151</ele>
        <time>2026-08-24T14:45:39Z</time>
      </trkpt>
      <trkpt lat="48.780735" lon="-1.184620">
        <ele>129.188</ele>
        <time>2026-08-24T14:45:40Z</time>
      </trkpt>
      <trkpt lat="48.780719" lon="-1.184621">
        <ele>129.010</ele>
        <time>2026-08-24T14:45:41Z</time>
      </trkpt>
      <trkpt lat="48.780700" lon="-1.184628">
        <ele>129.077</ele>
        <time>2026-08-24T14:45:43Z</time>
      </trkpt>
      <trkpt lat="48.780683" lon="-1.184628">
        <ele>128.961</ele>
        <time>2026-08-24T14:45:45Z</time>
      </trkpt>
      <trkpt lat="48.780672" lon="-1.184630">
        <ele>128.727</ele>
        <time>2026-08-24T14:45:46Z</time>
      </trkpt>
      <trkpt lat="48.780658" lon="-1.184631">
        <ele>128.609</ele>
        <time>2026-08-24T14:45:47Z</time>
      </trkpt>
      <trkpt lat="48.780640" lon="-1.184633">
        <ele>128.659</ele>
        <time>2026-08-24T14:45:48Z</time>
      </trkpt>
      <trkpt lat="48.780624" lon="-1.184630">
        <ele>128.545</ele>
        <time>2026-08-24T14:45:49Z</time>
      </trkpt>
      <trkpt lat="48.780611" lon="-1.184622">
        <ele>128.438</ele>
        <time>2026-08-24T14:45:50Z</time>
      </trkpt>
      <trkpt lat="48.780595" lon="-1.184618">
        <ele>128.335</ele>
        <time>2026-08-24T14:45:52Z</time>
      </trkpt>
      <trkpt lat="48.780584" lon="-1.184613">
        <ele>128.313</ele>
        <time>2026-08-24T14:45:54Z</time>
      </trkpt>
      <trkpt lat="48.780576" lon="-1.184605">
        <ele>128.241</ele>
        <time>2026-08-24T14:45:55Z</time>
      </trkpt>
      <trkpt lat="48.780562" lon="-1.184597">
        <ele>128.125</ele>
        <time>2026-08-24T14:45:56Z</time>
      </trkpt>
      <trkpt lat="48.780552" lon="-1.184593">
        <ele>128.082</ele>
        <time>2026-08-24T14:45:57Z</time>
      </trkpt>
      <trkpt lat="48.780533" lon="-1.184585">
        <ele>128.044</ele>
        <time>2026-08-24T14:45:59Z</time>
      </trkpt>
      <trkpt lat="48.780516" lon="-1.184583">
        <ele>127.965</ele>
        <time>2026-08-24T14:46:01Z</time>
      </trkpt>
      <trkpt lat="48.780496" lon="-1.184568">
        <ele>127.868</ele>
        <time>2026-08-24T14:46:03Z</time>
      </trkpt>
      <trkpt lat="48.780487" lon="-1.184563">
        <ele>127.814</ele>
        <time>2026-08-24T14:46:04Z</time>
      </trkpt>
      <trkpt lat="48.780478" lon="-1.184560">
        <ele>127.709</ele>
        <time>2026-08-24T14:46:05Z</time>
      </trkpt>
      <trkpt lat="48.780470" lon="-1.184555">
        <ele>127.628</ele>
        <time>2026-08-24T14:46:06Z</time>
      </trkpt>
      <trkpt lat="48.780453" lon="-1.184545">
        <ele>127.424</ele>
        <time>2026-08-24T14:46:08Z</time>
      </trkpt>
      <trkpt lat="48.780434" lon="-1.184532">
        <ele>127.457</ele>
        <time>2026-08-24T14:46:10Z</time>
      </trkpt>
      <trkpt lat="48.780425" lon="-1.184521">
        <ele>127.394</ele>
        <time>2026-08-24T14:46:11Z</time>
      </trkpt>
      <trkpt lat="48.780412" lon="-1.184509">
        <ele>127.272</ele>
        <time>2026-08-24T14:46:12Z</time>
      </trkpt>
      <trkpt lat="48.780402" lon="-1.184500">
        <ele>127.170</ele>
        <time>2026-08-24T14:46:13Z</time>
      </trkpt>
      <trkpt lat="48.780387" lon="-1.184491">
        <ele>127.074</ele>
        <time>2026-08-24T14:46:14Z</time>
      </trkpt>
      <trkpt lat="48.780376" lon="-1.184489">
        <ele>127.081</ele>
        <time>2026-08-24T14:46:15Z</time>
      </trkpt>
      <trkpt lat="48.780366" lon="-1.184492">
        <ele>127.033</ele>
        <time>2026-08-24T14:46:18Z</time>
      </trkpt>
      <trkpt lat="48.780354" lon="-1.184481">
        <ele>126.947</ele>
        <time>2026-08-24T14:46:20Z</time>
      </trkpt>
      <trkpt lat="48.780344" lon="-1.184472">
        <ele>126.929</ele>
        <time>2026-08-24T14:46:21Z</time>
      </trkpt>
      <trkpt lat="48.780332" lon="-1.184463">
        <ele>126.921</ele>
        <time>2026-08-24T14:46:22Z</time>
      </trkpt>
      <trkpt lat="48.780318" lon="-1.184445">
        <ele>126.909</ele>
        <time>2026-08-24T14:46:23Z</time>
      </trkpt>
      <trkpt lat="48.780302" lon="-1.184432">
        <ele>126.996</ele>
        <time>2026-08-24T14:46:24Z</time>
      </trkpt>
      <trkpt lat="48.780291" lon="-1.184422">
        <ele>126.922</ele>
        <time>2026-08-24T14:46:25Z</time>
      </trkpt>
      <trkpt lat="48.780281" lon="-1.184414">
        <ele>126.955</ele>
        <time>2026-08-24T14:46:26Z</time>
      </trkpt>
      <trkpt lat="48.780268" lon="-1.184412">
        <ele>126.972</ele>
        <time>2026-08-24T14:46:27Z</time>
      </trkpt>
      <trkpt lat="48.780255" lon="-1.184404">
        <ele>126.960</ele>
        <time>2026-08-24T14:46:28Z</time>
      </trkpt>
      <trkpt lat="48.780237" lon="-1.184396">
        <ele>126.958</ele>
        <time>2026-08-24T14:46:30Z</time>
      </trkpt>
      <trkpt lat="48.780220" lon="-1.184378">
        <ele>126.992</ele>
        <time>2026-08-24T14:46:31Z</time>
      </trkpt>
      <trkpt lat="48.780207" lon="-1.184368">
        <ele>126.999</ele>
        <time>2026-08-24T14:46:33Z</time>
      </trkpt>
      <trkpt lat="48.780199" lon="-1.184358">
        <ele>126.941</ele>
        <time>2026-08-24T14:46:34Z</time>
      </trkpt>
      <trkpt lat="48.780185" lon="-1.184343">
        <ele>126.983</ele>
        <time>2026-08-24T14:46:35Z</time>
      </trkpt>
      <trkpt lat="48.780171" lon="-1.184327">
        <ele>126.925</ele>
        <time>2026-08-24T14:46:37Z</time>
      </trkpt>
      <trkpt lat="48.780156" lon="-1.184309">
        <ele>126.917</ele>
        <time>2026-08-24T14:46:39Z</time>
      </trkpt>
      <trkpt lat="48.780147" lon="-1.184298">
        <ele>126.909</ele>
        <time>2026-08-24T14:46:40Z</time>
      </trkpt>
      <trkpt lat="48.780138" lon="-1.184282">
        <ele>126.940</ele>
        <time>2026-08-24T14:46:41Z</time>
      </trkpt>
      <trkpt lat="48.780127" lon="-1.184270">
        <ele>126.946</ele>
        <time>2026-08-24T14:46:42Z</time>
      </trkpt>
      <trkpt lat="48.780111" lon="-1.184259">
        <ele>126.959</ele>
        <time>2026-08-24T14:46:44Z</time>
      </trkpt>
      <trkpt lat="48.780102" lon="-1.184249">
        <ele>127.186</ele>
        <time>2026-08-24T14:46:45Z</time>
      </trkpt>
      <trkpt lat="48.780092" lon="-1.184238">
        <ele>127.284</ele>
        <time>2026-08-24T14:46:46Z</time>
      </trkpt>
      <trkpt lat="48.780072" lon="-1.184231">
        <ele>127.522</ele>
        <time>2026-08-24T14:46:48Z</time>
      </trkpt>
      <trkpt lat="48.780061" lon="-1.184226">
        <ele>127.626</ele>
        <time>2026-08-24T14:46:49Z</time>
      </trkpt>
      <trkpt lat="48.780051" lon="-1.184219">
        <ele>127.963</ele>
        <time>2026-08-24T14:46:50Z</time>
      </trkpt>
      <trkpt lat="48.780037" lon="-1.184205">
        <ele>128.255</ele>
        <time>2026-08-24T14:46:51Z</time>
      </trkpt>
      <trkpt lat="48.780029" lon="-1.184199">
        <ele>128.442</ele>
        <time>2026-08-24T14:46:53Z</time>
      </trkpt>
      <trkpt lat="48.780016" lon="-1.184190">
        <ele>128.522</ele>
        <time>2026-08-24T14:46:55Z</time>
      </trkpt>
      <trkpt lat="48.780001" lon="-1.184174">
        <ele>128.514</ele>
        <time>2026-08-24T14:46:57Z</time>
      </trkpt>
      <trkpt lat="48.779990" lon="-1.184164">
        <ele>128.609</ele>
        <time>2026-08-24T14:46:58Z</time>
      </trkpt>
      <trkpt lat="48.779980" lon="-1.184156">
        <ele>128.676</ele>
        <time>2026-08-24T14:46:59Z</time>
      </trkpt>
      <trkpt lat="48.779967" lon="-1.184144">
        <ele>128.712</ele>
        <time>2026-08-24T14:47:00Z</time>
      </trkpt>
      <trkpt lat="48.779951" lon="-1.184130">
        <ele>128.895</ele>
        <time>2026-08-24T14:47:02Z</time>
      </trkpt>
      <trkpt lat="48.779941" lon="-1.184127">
        <ele>128.952</ele>
        <time>2026-08-24T14:47:03Z</time>
      </trkpt>
      <trkpt lat="48.779928" lon="-1.184120">
        <ele>129.090</ele>
        <time>2026-08-24T14:47:04Z</time>
      </trkpt>
      <trkpt lat="48.779912" lon="-1.184117">
        <ele>129.188</ele>
        <time>2026-08-24T14:47:05Z</time>
      </trkpt>
      <trkpt lat="48.779904" lon="-1.184109">
        <ele>129.352</ele>
        <time>2026-08-24T14:47:06Z</time>
      </trkpt>
      <trkpt lat="48.779895" lon="-1.184103">
        <ele>129.479</ele>
        <time>2026-08-24T14:47:07Z</time>
      </trkpt>
      <trkpt lat="48.779883" lon="-1.184091">
        <ele>129.541</ele>
        <time>2026-08-24T14:47:08Z</time>
      </trkpt>
      <trkpt lat="48.779872" lon="-1.184082">
        <ele>129.546</ele>
        <time>2026-08-24T14:47:09Z</time>
      </trkpt>
      <trkpt lat="48.779858" lon="-1.184071">
        <ele>129.688</ele>
        <time>2026-08-24T14:47:10Z</time>
      </trkpt>
      <trkpt lat="48.779848" lon="-1.184056">
        <ele>129.616</ele>
        <time>2026-08-24T14:47:11Z</time>
      </trkpt>
      <trkpt lat="48.779833" lon="-1.184036">
        <ele>129.609</ele>
        <time>2026-08-24T14:47:13Z</time>
      </trkpt>
      <trkpt lat="48.779819" lon="-1.184023">
        <ele>129.786</ele>
        <time>2026-08-24T14:47:14Z</time>
      </trkpt>
      <trkpt lat="48.779806" lon="-1.184014">
        <ele>129.832</ele>
        <time>2026-08-24T14:47:15Z</time>
      </trkpt>
      <trkpt lat="48.779795" lon="-1.184006">
        <ele>129.825</ele>
        <time>2026-08-24T14:47:16Z</time>
      </trkpt>
      <trkpt lat="48.779777" lon="-1.183996">
        <ele>129.812</ele>
        <time>2026-08-24T14:47:18Z</time>
      </trkpt>
      <trkpt lat="48.779764" lon="-1.183993">
        <ele>129.810</ele>
        <time>2026-08-24T14:47:19Z</time>
      </trkpt>
      <trkpt lat="48.779749" lon="-1.183988">
        <ele>129.978</ele>
        <time>2026-08-24T14:47:21Z</time>
      </trkpt>
      <trkpt lat="48.779731" lon="-1.183978">
        <ele>129.972</ele>
        <time>2026-08-24T14:47:23Z</time>
      </trkpt>
      <trkpt lat="48.779722" lon="-1.183970">
        <ele>130.029</ele>
        <time>2026-08-24T14:47:24Z</time>
      </trkpt>
      <trkpt lat="48.779707" lon="-1.183966">
        <ele>130.091</ele>
        <time>2026-08-24T14:47:27Z</time>
      </trkpt>
      <trkpt lat="48.779696" lon="-1.183961">
        <ele>130.138</ele>
        <time>2026-08-24T14:47:28Z</time>
      </trkpt>
      <trkpt lat="48.779682" lon="-1.183946">
        <ele>130.570</ele>
        <time>2026-08-24T14:47:30Z</time>
      </trkpt>
      <trkpt lat="48.779669" lon="-1.183937">
        <ele>131.017</ele>
        <time>2026-08-24T14:47:31Z</time>
      </trkpt>
      <trkpt lat="48.779655" lon="-1.183925">
        <ele>131.009</ele>
        <time>2026-08-24T14:47:32Z</time>
      </trkpt>
      <trkpt lat="48.779641" lon="-1.183917">
        <ele>131.015</ele>
        <time>2026-08-24T14:47:34Z</time>
      </trkpt>
      <trkpt lat="48.779631" lon="-1.183919">
        <ele>131.041</ele>
        <time>2026-08-24T14:47:35Z</time>
      </trkpt>
      <trkpt lat="48.779613" lon="-1.183916">
        <ele>131.014</ele>
        <time>2026-08-24T14:47:37Z</time>
      </trkpt>
      <trkpt lat="48.779597" lon="-1.183910">
        <ele>131.071</ele>
        <time>2026-08-24T14:47:38Z</time>
      </trkpt>
      <trkpt lat="48.779587" lon="-1.183905">
        <ele>131.089</ele>
        <time>2026-08-24T14:47:39Z</time>
      </trkpt>
      <trkpt lat="48.779571" lon="-1.183896">
        <ele>131.027</ele>
        <time>2026-08-24T14:47:40Z</time>
      </trkpt>
      <trkpt lat="48.779560" lon="-1.183892">
        <ele>131.031</ele>
        <time>2026-08-24T14:47:41Z</time>
      </trkpt>
      <trkpt lat="48.779543" lon="-1.183882">
        <ele>131.048</ele>
        <time>2026-08-24T14:47:43Z</time>
      </trkpt>
      <trkpt lat="48.779534" lon="-1.183875">
        <ele>131.020</ele>
        <time>2026-08-24T14:47:44Z</time>
      </trkpt>
      <trkpt lat="48.779520" lon="-1.183860">
        <ele>131.049</ele>
        <time>2026-08-24T14:47:46Z</time>
      </trkpt>
      <trkpt lat="48.779511" lon="-1.183850">
        <ele>131.002</ele>
        <time>2026-08-24T14:47:47Z</time>
      </trkpt>
      <trkpt lat="48.779501" lon="-1.183849">
        <ele>131.022</ele>
        <time>2026-08-24T14:47:51Z</time>
      </trkpt>
      <trkpt lat="48.779490" lon="-1.183847">
        <ele>131.009</ele>
        <time>2026-08-24T14:47:54Z</time>
      </trkpt>
      <trkpt lat="48.779480" lon="-1.183851">
        <ele>131.056</ele>
        <time>2026-08-24T14:47:56Z</time>
      </trkpt>
      <trkpt lat="48.779467" lon="-1.183849">
        <ele>130.872</ele>
        <time>2026-08-24T14:47:57Z</time>
      </trkpt>
      <trkpt lat="48.779450" lon="-1.183846">
        <ele>130.855</ele>
        <time>2026-08-24T14:47:58Z</time>
      </trkpt>
      <trkpt lat="48.779433" lon="-1.183839">
        <ele>130.812</ele>
        <time>2026-08-24T14:47:59Z</time>
      </trkpt>
      <trkpt lat="48.779419" lon="-1.183832">
        <ele>130.760</ele>
        <time>2026-08-24T14:48:00Z</time>
      </trkpt>
      <trkpt lat="48.779406" lon="-1.183827">
        <ele>130.718</ele>
        <time>2026-08-24T14:48:01Z</time>
      </trkpt>
      <trkpt lat="48.779393" lon="-1.183823">
        <ele>130.732</ele>
        <time>2026-08-24T14:48:02Z</time>
      </trkpt>
      <trkpt lat="48.779376" lon="-1.183818">
        <ele>130.659</ele>
        <time>2026-08-24T14:48:04Z</time>
      </trkpt>
      <trkpt lat="48.779365" lon="-1.183816">
        <ele>130.611</ele>
        <time>2026-08-24T14:48:05Z</time>
      </trkpt>
      <trkpt lat="48.779352" lon="-1.183816">
        <ele>130.573</ele>
        <time>2026-08-24T14:48:06Z</time>
      </trkpt>
      <trkpt lat="48.779337" lon="-1.183811">
        <ele>130.585</ele>
        <time>2026-08-24T14:48:08Z</time>
      </trkpt>
      <trkpt lat="48.779327" lon="-1.183808">
        <ele>130.413</ele>
        <time>2026-08-24T14:48:09Z</time>
      </trkpt>
      <trkpt lat="48.779316" lon="-1.183807">
        <ele>130.209</ele>
        <time>2026-08-24T14:48:10Z</time>
      </trkpt>
      <trkpt lat="48.779301" lon="-1.183805">
        <ele>130.189</ele>
        <time>2026-08-24T14:48:12Z</time>
      </trkpt>
      <trkpt lat="48.779282" lon="-1.183796">
        <ele>129.935</ele>
        <time>2026-08-24T14:48:14Z</time>
      </trkpt>
      <trkpt lat="48.779273" lon="-1.183792">
        <ele>129.858</ele>
        <time>2026-08-24T14:48:15Z</time>
      </trkpt>
      <trkpt lat="48.779264" lon="-1.183787">
        <ele>129.745</ele>
        <time>2026-08-24T14:48:16Z</time>
      </trkpt>
      <trkpt lat="48.779254" lon="-1.183780">
        <ele>129.613</ele>
        <time>2026-08-24T14:48:17Z</time>
      </trkpt>
      <trkpt lat="48.779246" lon="-1.183771">
        <ele>129.581</ele>
        <time>2026-08-24T14:48:18Z</time>
      </trkpt>
      <trkpt lat="48.779231" lon="-1.183758">
        <ele>129.535</ele>
        <time>2026-08-24T14:48:20Z</time>
      </trkpt>
      <trkpt lat="48.779220" lon="-1.183741">
        <ele>129.532</ele>
        <time>2026-08-24T14:48:21Z</time>
      </trkpt>
      <trkpt lat="48.779211" lon="-1.183729">
        <ele>129.314</ele>
        <time>2026-08-24T14:48:22Z</time>
      </trkpt>
      <trkpt lat="48.779204" lon="-1.183721">
        <ele>129.148</ele>
        <time>2026-08-24T14:48:23Z</time>
      </trkpt>
      <trkpt lat="48.779195" lon="-1.183707">
        <ele>129.161</ele>
        <time>2026-08-24T14:48:25Z</time>
      </trkpt>
      <trkpt lat="48.779188" lon="-1.183694">
        <ele>129.117</ele>
        <time>2026-08-24T14:48:28Z</time>
      </trkpt>
      <trkpt lat="48.779181" lon="-1.183675">
        <ele>129.109</ele>
        <time>2026-08-24T14:48:36Z</time>
      </trkpt>
      <trkpt lat="48.779182" lon="-1.183661">
        <ele>129.176</ele>
        <time>2026-08-24T14:48:38Z</time>
      </trkpt>
      <trkpt lat="48.779186" lon="-1.183636">
        <ele>129.132</ele>
        <time>2026-08-24T14:48:41Z</time>
      </trkpt>
      <trkpt lat="48.779183" lon="-1.183609">
        <ele>129.135</ele>
        <time>2026-08-24T14:48:44Z</time>
      </trkpt>
      <trkpt lat="48.779181" lon="-1.183589">
        <ele>129.042</ele>
        <time>2026-08-24T14:48:45Z</time>
      </trkpt>
      <trkpt lat="48.779186" lon="-1.183573">
        <ele>129.030</ele>
        <time>2026-08-24T14:48:47Z</time>
      </trkpt>
      <trkpt lat="48.779190" lon="-1.183548">
        <ele>129.038</ele>
        <time>2026-08-24T14:48:49Z</time>
      </trkpt>
      <trkpt lat="48.779195" lon="-1.183534">
        <ele>127.812</ele>
        <time>2026-08-24T14:51:16Z</time>
      </trkpt>
      <trkpt lat="48.779207" lon="-1.183507">
        <ele>127.889</ele>
        <time>2026-08-24T14:51:18Z</time>
      </trkpt>
      <trkpt lat="48.779214" lon="-1.183493">
        <ele>127.851</ele>
        <time>2026-08-24T14:51:19Z</time>
      </trkpt>
      <trkpt lat="48.779224" lon="-1.183479">
        <ele>127.881</ele>
        <time>2026-08-24T14:51:20Z</time>
      </trkpt>
      <trkpt lat="48.779235" lon="-1.183467">
        <ele>127.861</ele>
        <time>2026-08-24T14:51:21Z</time>
      </trkpt>
      <trkpt lat="48.779246" lon="-1.183454">
        <ele>127.817</ele>
        <time>2026-08-24T14:51:22Z</time>
      </trkpt>
      <trkpt lat="48.779262" lon="-1.183433">
        <ele>127.809</ele>
        <time>2026-08-24T14:51:24Z</time>
      </trkpt>
      <trkpt lat="48.779270" lon="-1.183421">
        <ele>127.820</ele>
        <time>2026-08-24T14:51:25Z</time>
      </trkpt>
      <trkpt lat="48.779277" lon="-1.183410">
        <ele>127.836</ele>
        <time>2026-08-24T14:51:26Z</time>
      </trkpt>
      <trkpt lat="48.779285" lon="-1.183401">
        <ele>127.989</ele>
        <time>2026-08-24T14:51:27Z</time>
      </trkpt>
      <trkpt lat="48.779291" lon="-1.183391">
        <ele>127.926</ele>
        <time>2026-08-24T14:51:29Z</time>
      </trkpt>
      <trkpt lat="48.779296" lon="-1.183379">
        <ele>128.064</ele>
        <time>2026-08-24T14:51:31Z</time>
      </trkpt>
      <trkpt lat="48.779300" lon="-1.183366">
        <ele>128.162</ele>
        <time>2026-08-24T14:51:33Z</time>
      </trkpt>
      <trkpt lat="48.779305" lon="-1.183353">
        <ele>128.266</ele>
        <time>2026-08-24T14:51:34Z</time>
      </trkpt>
      <trkpt lat="48.779312" lon="-1.183337">
        <ele>128.163</ele>
        <time>2026-08-24T14:51:35Z</time>
      </trkpt>
      <trkpt lat="48.779320" lon="-1.183328">
        <ele>128.265</ele>
        <time>2026-08-24T14:51:36Z</time>
      </trkpt>
      <trkpt lat="48.779326" lon="-1.183315">
        <ele>128.363</ele>
        <time>2026-08-24T14:51:37Z</time>
      </trkpt>
      <trkpt lat="48.779339" lon="-1.183296">
        <ele>128.244</ele>
        <time>2026-08-24T14:51:39Z</time>
      </trkpt>
      <trkpt lat="48.779348" lon="-1.183288">
        <ele>128.218</ele>
        <time>2026-08-24T14:51:40Z</time>
      </trkpt>
      <trkpt lat="48.779355" lon="-1.183278">
        <ele>128.209</ele>
        <time>2026-08-24T14:51:41Z</time>
      </trkpt>
      <trkpt lat="48.779363" lon="-1.183267">
        <ele>128.198</ele>
        <time>2026-08-24T14:51:42Z</time>
      </trkpt>
      <trkpt lat="48.779377" lon="-1.183250">
        <ele>128.194</ele>
        <time>2026-08-24T14:51:44Z</time>
      </trkpt>
      <trkpt lat="48.779383" lon="-1.183238">
        <ele>128.197</ele>
        <time>2026-08-24T14:51:45Z</time>
      </trkpt>
      <trkpt lat="48.779391" lon="-1.183225">
        <ele>128.144</ele>
        <time>2026-08-24T14:51:46Z</time>
      </trkpt>
      <trkpt lat="48.779396" lon="-1.183208">
        <ele>128.182</ele>
        <time>2026-08-24T14:51:48Z</time>
      </trkpt>
      <trkpt lat="48.779397" lon="-1.183186">
        <ele>128.130</ele>
        <time>2026-08-24T14:51:50Z</time>
      </trkpt>
      <trkpt lat="48.779400" lon="-1.183169">
        <ele>128.194</ele>
        <time>2026-08-24T14:51:51Z</time>
      </trkpt>
      <trkpt lat="48.779403" lon="-1.183155">
        <ele>128.041</ele>
        <time>2026-08-24T14:51:52Z</time>
      </trkpt>
      <trkpt lat="48.779408" lon="-1.183127">
        <ele>128.073</ele>
        <time>2026-08-24T14:51:54Z</time>
      </trkpt>
      <trkpt lat="48.779408" lon="-1.183113">
        <ele>127.995</ele>
        <time>2026-08-24T14:51:55Z</time>
      </trkpt>
      <trkpt lat="48.779410" lon="-1.183096">
        <ele>128.049</ele>
        <time>2026-08-24T14:51:58Z</time>
      </trkpt>
      <trkpt lat="48.779410" lon="-1.183071">
        <ele>128.023</ele>
        <time>2026-08-24T14:52:00Z</time>
      </trkpt>
      <trkpt lat="48.779410" lon="-1.183057">
        <ele>128.109</ele>
        <time>2026-08-24T14:52:01Z</time>
      </trkpt>
      <trkpt lat="48.779415" lon="-1.183029">
        <ele>128.141</ele>
        <time>2026-08-24T14:52:03Z</time>
      </trkpt>
      <trkpt lat="48.779417" lon="-1.183014">
        <ele>128.167</ele>
        <time>2026-08-24T14:52:05Z</time>
      </trkpt>
      <trkpt lat="48.779418" lon="-1.183000">
        <ele>128.290</ele>
        <time>2026-08-24T14:52:06Z</time>
      </trkpt>
      <trkpt lat="48.779414" lon="-1.182981">
        <ele>128.257</ele>
        <time>2026-08-24T14:52:07Z</time>
      </trkpt>
      <trkpt lat="48.779410" lon="-1.182966">
        <ele>128.225</ele>
        <time>2026-08-24T14:52:08Z</time>
      </trkpt>
      <trkpt lat="48.779407" lon="-1.182945">
        <ele>128.243</ele>
        <time>2026-08-24T14:52:09Z</time>
      </trkpt>
      <trkpt lat="48.779402" lon="-1.182927">
        <ele>128.217</ele>
        <time>2026-08-24T14:52:10Z</time>
      </trkpt>
      <trkpt lat="48.779400" lon="-1.182902">
        <ele>128.274</ele>
        <time>2026-08-24T14:52:12Z</time>
      </trkpt>
      <trkpt lat="48.779397" lon="-1.182880">
        <ele>128.226</ele>
        <time>2026-08-24T14:52:14Z</time>
      </trkpt>
      <trkpt lat="48.779397" lon="-1.182859">
        <ele>128.288</ele>
        <time>2026-08-24T14:52:18Z</time>
      </trkpt>
      <trkpt lat="48.779396" lon="-1.182831">
        <ele>128.424</ele>
        <time>2026-08-24T14:52:20Z</time>
      </trkpt>
      <trkpt lat="48.779395" lon="-1.182809">
        <ele>128.626</ele>
        <time>2026-08-24T14:52:22Z</time>
      </trkpt>
      <trkpt lat="48.779399" lon="-1.182790">
        <ele>128.709</ele>
        <time>2026-08-24T14:52:24Z</time>
      </trkpt>
      <trkpt lat="48.779401" lon="-1.182770">
        <ele>128.810</ele>
        <time>2026-08-24T14:52:26Z</time>
      </trkpt>
      <trkpt lat="48.779399" lon="-1.182755">
        <ele>129.026</ele>
        <time>2026-08-24T14:52:28Z</time>
      </trkpt>
      <trkpt lat="48.779394" lon="-1.182732">
        <ele>129.149</ele>
        <time>2026-08-24T14:52:30Z</time>
      </trkpt>
      <trkpt lat="48.779396" lon="-1.182718">
        <ele>129.276</ele>
        <time>2026-08-24T14:52:31Z</time>
      </trkpt>
      <trkpt lat="48.779396" lon="-1.182696">
        <ele>129.384</ele>
        <time>2026-08-24T14:52:33Z</time>
      </trkpt>
      <trkpt lat="48.779396" lon="-1.182676">
        <ele>129.412</ele>
        <time>2026-08-24T14:52:35Z</time>
      </trkpt>
      <trkpt lat="48.779392" lon="-1.182662">
        <ele>129.566</ele>
        <time>2026-08-24T14:52:36Z</time>
      </trkpt>
      <trkpt lat="48.779388" lon="-1.182644">
        <ele>129.753</ele>
        <time>2026-08-24T14:52:39Z</time>
      </trkpt>
      <trkpt lat="48.779389" lon="-1.182621">
        <ele>129.755</ele>
        <time>2026-08-24T14:52:41Z</time>
      </trkpt>
      <trkpt lat="48.779392" lon="-1.182602">
        <ele>129.991</ele>
        <time>2026-08-24T14:52:42Z</time>
      </trkpt>
      <trkpt lat="48.779394" lon="-1.182588">
        <ele>130.481</ele>
        <time>2026-08-24T14:52:43Z</time>
      </trkpt>
      <trkpt lat="48.779402" lon="-1.182567">
        <ele>131.019</ele>
        <time>2026-08-24T14:52:45Z</time>
      </trkpt>
      <trkpt lat="48.779402" lon="-1.182548">
        <ele>131.309</ele>
        <time>2026-08-24T14:52:47Z</time>
      </trkpt>
      <trkpt lat="48.779406" lon="-1.182533">
        <ele>131.511</ele>
        <time>2026-08-24T14:52:49Z</time>
      </trkpt>
      <trkpt lat="48.779409" lon="-1.182507">
        <ele>131.527</ele>
        <time>2026-08-24T14:52:51Z</time>
      </trkpt>
      <trkpt lat="48.779410" lon="-1.182487">
        <ele>131.990</ele>
        <time>2026-08-24T14:52:53Z</time>
      </trkpt>
      <trkpt lat="48.779414" lon="-1.182467">
        <ele>132.577</ele>
        <time>2026-08-24T14:52:55Z</time>
      </trkpt>
      <trkpt lat="48.779422" lon="-1.182452">
        <ele>132.835</ele>
        <time>2026-08-24T14:52:58Z</time>
      </trkpt>
      <trkpt lat="48.779420" lon="-1.182435">
        <ele>132.873</ele>
        <time>2026-08-24T14:53:00Z</time>
      </trkpt>
      <trkpt lat="48.779424" lon="-1.182422">
        <ele>132.847</ele>
        <time>2026-08-24T14:53:02Z</time>
      </trkpt>
      <trkpt lat="48.779425" lon="-1.182399">
        <ele>133.054</ele>
        <time>2026-08-24T14:53:04Z</time>
      </trkpt>
      <trkpt lat="48.779425" lon="-1.182382">
        <ele>133.136</ele>
        <time>2026-08-24T14:53:06Z</time>
      </trkpt>
      <trkpt lat="48.779429" lon="-1.182366">
        <ele>133.143</ele>
        <time>2026-08-24T14:53:08Z</time>
      </trkpt>
      <trkpt lat="48.779428" lon="-1.182331">
        <ele>133.364</ele>
        <time>2026-08-24T14:53:10Z</time>
      </trkpt>
      <trkpt lat="48.779427" lon="-1.182308">
        <ele>133.510</ele>
        <time>2026-08-24T14:53:12Z</time>
      </trkpt>
      <trkpt lat="48.779422" lon="-1.182291">
        <ele>133.809</ele>
        <time>2026-08-24T14:53:13Z</time>
      </trkpt>
      <trkpt lat="48.779419" lon="-1.182275">
        <ele>134.116</ele>
        <time>2026-08-24T14:53:14Z</time>
      </trkpt>
      <trkpt lat="48.779416" lon="-1.182257">
        <ele>134.342</ele>
        <time>2026-08-24T14:53:15Z</time>
      </trkpt>
      <trkpt lat="48.779419" lon="-1.182240">
        <ele>134.535</ele>
        <time>2026-08-24T14:53:17Z</time>
      </trkpt>
      <trkpt lat="48.779422" lon="-1.182227">
        <ele>135.152</ele>
        <time>2026-08-24T14:53:18Z</time>
      </trkpt>
      <trkpt lat="48.779428" lon="-1.182205">
        <ele>136.160</ele>
        <time>2026-08-24T14:53:20Z</time>
      </trkpt>
      <trkpt lat="48.779434" lon="-1.182185">
        <ele>136.898</ele>
        <time>2026-08-24T14:53:23Z</time>
      </trkpt>
      <trkpt lat="48.779440" lon="-1.182174">
        <ele>137.252</ele>
        <time>2026-08-24T14:53:25Z</time>
      </trkpt>
      <trkpt lat="48.779446" lon="-1.182156">
        <ele>137.599</ele>
        <time>2026-08-24T14:53:27Z</time>
      </trkpt>
      <trkpt lat="48.779447" lon="-1.182127">
        <ele>137.861</ele>
        <time>2026-08-24T14:53:29Z</time>
      </trkpt>
      <trkpt lat="48.779441" lon="-1.182097">
        <ele>138.233</ele>
        <time>2026-08-24T14:53:31Z</time>
      </trkpt>
      <trkpt lat="48.779444" lon="-1.182074">
        <ele>138.523</ele>
        <time>2026-08-24T14:53:33Z</time>
      </trkpt>
      <trkpt lat="48.779450" lon="-1.182061">
        <ele>138.615</ele>
        <time>2026-08-24T14:53:34Z</time>
      </trkpt>
      <trkpt lat="48.779450" lon="-1.182036">
        <ele>138.609</ele>
        <time>2026-08-24T14:53:36Z</time>
      </trkpt>
      <trkpt lat="48.779448" lon="-1.182003">
        <ele>138.615</ele>
        <time>2026-08-24T14:53:38Z</time>
      </trkpt>
      <trkpt lat="48.779447" lon="-1.181979">
        <ele>138.621</ele>
        <time>2026-08-24T14:53:43Z</time>
      </trkpt>
      <trkpt lat="48.779448" lon="-1.181958">
        <ele>138.774</ele>
        <time>2026-08-24T14:53:45Z</time>
      </trkpt>
      <trkpt lat="48.779452" lon="-1.181945">
        <ele>138.871</ele>
        <time>2026-08-24T14:53:46Z</time>
      </trkpt>
      <trkpt lat="48.779455" lon="-1.181929">
        <ele>138.859</ele>
        <time>2026-08-24T14:53:47Z</time>
      </trkpt>
      <trkpt lat="48.779459" lon="-1.181904">
        <ele>138.977</ele>
        <time>2026-08-24T14:53:48Z</time>
      </trkpt>
      <trkpt lat="48.779452" lon="-1.181889">
        <ele>138.951</ele>
        <time>2026-08-24T14:53:49Z</time>
      </trkpt>
      <trkpt lat="48.779446" lon="-1.181867">
        <ele>138.958</ele>
        <time>2026-08-24T14:53:51Z</time>
      </trkpt>
      <trkpt lat="48.779447" lon="-1.181852">
        <ele>138.990</ele>
        <time>2026-08-24T14:53:53Z</time>
      </trkpt>
      <trkpt lat="48.779444" lon="-1.181827">
        <ele>139.094</ele>
        <time>2026-08-24T14:53:56Z</time>
      </trkpt>
      <trkpt lat="48.779448" lon="-1.181793">
        <ele>139.057</ele>
        <time>2026-08-24T14:53:58Z</time>
      </trkpt>
      <trkpt lat="48.779447" lon="-1.181768">
        <ele>139.122</ele>
        <time>2026-08-24T14:53:59Z</time>
      </trkpt>
      <trkpt lat="48.779447" lon="-1.181748">
        <ele>139.209</ele>
        <time>2026-08-24T14:54:00Z</time>
      </trkpt>
      <trkpt lat="48.779446" lon="-1.181730">
        <ele>139.311</ele>
        <time>2026-08-24T14:54:04Z</time>
      </trkpt>
      <trkpt lat="48.779445" lon="-1.181712">
        <ele>139.427</ele>
        <time>2026-08-24T14:54:05Z</time>
      </trkpt>
      <trkpt lat="48.779441" lon="-1.181692">
        <ele>139.560</ele>
        <time>2026-08-24T14:54:08Z</time>
      </trkpt>
      <trkpt lat="48.779440" lon="-1.181675">
        <ele>139.617</ele>
        <time>2026-08-24T14:54:10Z</time>
      </trkpt>
      <trkpt lat="48.779437" lon="-1.181652">
        <ele>139.735</ele>
        <time>2026-08-24T14:54:12Z</time>
      </trkpt>
      <trkpt lat="48.779440" lon="-1.181633">
        <ele>139.723</ele>
        <time>2026-08-24T14:54:15Z</time>
      </trkpt>
      <trkpt lat="48.779435" lon="-1.181617">
        <ele>139.747</ele>
        <time>2026-08-24T14:54:16Z</time>
      </trkpt>
      <trkpt lat="48.779439" lon="-1.181603">
        <ele>139.834</ele>
        <time>2026-08-24T14:54:17Z</time>
      </trkpt>
      <trkpt lat="48.779438" lon="-1.181579">
        <ele>139.916</ele>
        <time>2026-08-24T14:54:18Z</time>
      </trkpt>
      <trkpt lat="48.779439" lon="-1.181557">
        <ele>140.028</ele>
        <time>2026-08-24T14:54:19Z</time>
      </trkpt>
      <trkpt lat="48.779438" lon="-1.181540">
        <ele>140.089</ele>
        <time>2026-08-24T14:54:20Z</time>
      </trkpt>
      <trkpt lat="48.779437" lon="-1.181523">
        <ele>140.117</ele>
        <time>2026-08-24T14:54:22Z</time>
      </trkpt>
      <trkpt lat="48.779434" lon="-1.181507">
        <ele>140.209</ele>
        <time>2026-08-24T14:54:24Z</time>
      </trkpt>
      <trkpt lat="48.779428" lon="-1.181489">
        <ele>140.464</ele>
        <time>2026-08-24T14:54:27Z</time>
      </trkpt>
      <trkpt lat="48.779428" lon="-1.181464">
        <ele>140.660</ele>
        <time>2026-08-24T14:54:29Z</time>
      </trkpt>
      <trkpt lat="48.779426" lon="-1.181445">
        <ele>140.613</ele>
        <time>2026-08-24T14:54:30Z</time>
      </trkpt>
      <trkpt lat="48.779419" lon="-1.181435">
        <ele>140.750</ele>
        <time>2026-08-24T14:54:31Z</time>
      </trkpt>
      <trkpt lat="48.779419" lon="-1.181420">
        <ele>140.718</ele>
        <time>2026-08-24T14:54:32Z</time>
      </trkpt>
      <trkpt lat="48.779426" lon="-1.181409">
        <ele>140.886</ele>
        <time>2026-08-24T14:54:41Z</time>
      </trkpt>
      <trkpt lat="48.779430" lon="-1.181392">
        <ele>141.080</ele>
        <time>2026-08-24T14:54:54Z</time>
      </trkpt>
      <trkpt lat="48.779430" lon="-1.181370">
        <ele>141.137</ele>
        <time>2026-08-24T14:54:57Z</time>
      </trkpt>
      <trkpt lat="48.779427" lon="-1.181356">
        <ele>141.679</ele>
        <time>2026-08-24T14:54:59Z</time>
      </trkpt>
      <trkpt lat="48.779422" lon="-1.181331">
        <ele>142.216</ele>
        <time>2026-08-24T14:55:00Z</time>
      </trkpt>
      <trkpt lat="48.779418" lon="-1.181304">
        <ele>142.676</ele>
        <time>2026-08-24T14:55:01Z</time>
      </trkpt>
      <trkpt lat="48.779416" lon="-1.181281">
        <ele>143.113</ele>
        <time>2026-08-24T14:55:02Z</time>
      </trkpt>
      <trkpt lat="48.779414" lon="-1.181258">
        <ele>143.609</ele>
        <time>2026-08-24T14:55:03Z</time>
      </trkpt>
      <trkpt lat="48.779413" lon="-1.181244">
        <ele>144.453</ele>
        <time>2026-08-24T14:55:05Z</time>
      </trkpt>
      <trkpt lat="48.779410" lon="-1.181226">
        <ele>145.429</ele>
        <time>2026-08-24T14:55:08Z</time>
      </trkpt>
      <trkpt lat="48.779409" lon="-1.181201">
        <ele>145.882</ele>
        <time>2026-08-24T14:55:11Z</time>
      </trkpt>
      <trkpt lat="48.779412" lon="-1.181181">
        <ele>146.189</ele>
        <time>2026-08-24T14:55:13Z</time>
      </trkpt>
      <trkpt lat="48.779414" lon="-1.181165">
        <ele>146.727</ele>
        <time>2026-08-24T14:55:15Z</time>
      </trkpt>
      <trkpt lat="48.779413" lon="-1.181142">
        <ele>147.175</ele>
        <time>2026-08-24T14:55:17Z</time>
      </trkpt>
      <trkpt lat="48.779411" lon="-1.181126">
        <ele>148.319</ele>
        <time>2026-08-24T14:55:18Z</time>
      </trkpt>
      <trkpt lat="48.779409" lon="-1.181102">
        <ele>149.656</ele>
        <time>2026-08-24T14:55:20Z</time>
      </trkpt>
      <trkpt lat="48.779405" lon="-1.181082">
        <ele>149.998</ele>
        <time>2026-08-24T14:55:21Z</time>
      </trkpt>
      <trkpt lat="48.779403" lon="-1.181068">
        <ele>150.235</ele>
        <time>2026-08-24T14:55:22Z</time>
      </trkpt>
      <trkpt lat="48.779405" lon="-1.181043">
        <ele>150.586</ele>
        <time>2026-08-24T14:55:24Z</time>
      </trkpt>
      <trkpt lat="48.779402" lon="-1.181029">
        <ele>151.014</ele>
        <time>2026-08-24T14:55:25Z</time>
      </trkpt>
      <trkpt lat="48.779398" lon="-1.181016">
        <ele>151.509</ele>
        <time>2026-08-24T14:55:26Z</time>
      </trkpt>
      <trkpt lat="48.779395" lon="-1.180996">
        <ele>152.025</ele>
        <time>2026-08-24T14:55:28Z</time>
      </trkpt>
      <trkpt lat="48.779385" lon="-1.180980">
        <ele>152.561</ele>
        <time>2026-08-24T14:55:30Z</time>
      </trkpt>
      <trkpt lat="48.779376" lon="-1.180971">
        <ele>152.994</ele>
        <time>2026-08-24T14:55:32Z</time>
      </trkpt>
      <trkpt lat="48.779368" lon="-1.180953">
        <ele>153.511</ele>
        <time>2026-08-24T14:55:37Z</time>
      </trkpt>
      <trkpt lat="48.779367" lon="-1.180939">
        <ele>154.099</ele>
        <time>2026-08-24T14:55:39Z</time>
      </trkpt>
      <trkpt lat="48.779362" lon="-1.180913">
        <ele>154.217</ele>
        <time>2026-08-24T14:55:41Z</time>
      </trkpt>
      <trkpt lat="48.779358" lon="-1.180899">
        <ele>154.461</ele>
        <time>2026-08-24T14:55:42Z</time>
      </trkpt>
      <trkpt lat="48.779353" lon="-1.180885">
        <ele>154.598</ele>
        <time>2026-08-24T14:55:43Z</time>
      </trkpt>
      <trkpt lat="48.779349" lon="-1.180873">
        <ele>154.510</ele>
        <time>2026-08-24T14:55:44Z</time>
      </trkpt>
      <trkpt lat="48.779344" lon="-1.180857">
        <ele>154.927</ele>
        <time>2026-08-24T14:55:45Z</time>
      </trkpt>
      <trkpt lat="48.779341" lon="-1.180845">
        <ele>155.468</ele>
        <time>2026-08-24T14:55:46Z</time>
      </trkpt>
      <trkpt lat="48.779336" lon="-1.180828">
        <ele>155.814</ele>
        <time>2026-08-24T14:55:47Z</time>
      </trkpt>
      <trkpt lat="48.779333" lon="-1.180814">
        <ele>156.109</ele>
        <time>2026-08-24T14:55:48Z</time>
      </trkpt>
      <trkpt lat="48.779330" lon="-1.180800">
        <ele>156.274</ele>
        <time>2026-08-24T14:55:49Z</time>
      </trkpt>
      <trkpt lat="48.779324" lon="-1.180773">
        <ele>156.390</ele>
        <time>2026-08-24T14:55:51Z</time>
      </trkpt>
      <trkpt lat="48.779321" lon="-1.180758">
        <ele>156.383</ele>
        <time>2026-08-24T14:55:52Z</time>
      </trkpt>
      <trkpt lat="48.779317" lon="-1.180743">
        <ele>156.510</ele>
        <time>2026-08-24T14:55:53Z</time>
      </trkpt>
      <trkpt lat="48.779313" lon="-1.180718">
        <ele>156.888</ele>
        <time>2026-08-24T14:55:55Z</time>
      </trkpt>
      <trkpt lat="48.779307" lon="-1.180692">
        <ele>157.096</ele>
        <time>2026-08-24T14:55:57Z</time>
      </trkpt>
      <trkpt lat="48.779301" lon="-1.180659">
        <ele>157.010</ele>
        <time>2026-08-24T14:55:59Z</time>
      </trkpt>
      <trkpt lat="48.779299" lon="-1.180644">
        <ele>157.157</ele>
        <time>2026-08-24T14:56:00Z</time>
      </trkpt>
      <trkpt lat="48.779297" lon="-1.180625">
        <ele>157.369</ele>
        <time>2026-08-24T14:56:01Z</time>
      </trkpt>
      <trkpt lat="48.779292" lon="-1.180607">
        <ele>157.554</ele>
        <time>2026-08-24T14:56:02Z</time>
      </trkpt>
      <trkpt lat="48.779290" lon="-1.180592">
        <ele>157.856</ele>
        <time>2026-08-24T14:56:03Z</time>
      </trkpt>
      <trkpt lat="48.779288" lon="-1.180578">
        <ele>157.911</ele>
        <time>2026-08-24T14:56:04Z</time>
      </trkpt>
      <trkpt lat="48.779285" lon="-1.180554">
        <ele>158.109</ele>
        <time>2026-08-24T14:56:06Z</time>
      </trkpt>
      <trkpt lat="48.779284" lon="-1.180538">
        <ele>158.317</ele>
        <time>2026-08-24T14:56:07Z</time>
      </trkpt>
      <trkpt lat="48.779282" lon="-1.180518">
        <ele>158.493</ele>
        <time>2026-08-24T14:56:09Z</time>
      </trkpt>
      <trkpt lat="48.779282" lon="-1.180504">
        <ele>158.996</ele>
        <time>2026-08-24T14:56:10Z</time>
      </trkpt>
      <trkpt lat="48.779282" lon="-1.180481">
        <ele>159.223</ele>
        <time>2026-08-24T14:56:12Z</time>
      </trkpt>
      <trkpt lat="48.779278" lon="-1.180464">
        <ele>159.411</ele>
        <time>2026-08-24T14:56:17Z</time>
      </trkpt>
      <trkpt lat="48.779277" lon="-1.180436">
        <ele>159.739</ele>
        <time>2026-08-24T14:56:19Z</time>
      </trkpt>
      <trkpt lat="48.779276" lon="-1.180423">
        <ele>160.163</ele>
        <time>2026-08-24T14:56:20Z</time>
      </trkpt>
      <trkpt lat="48.779274" lon="-1.180407">
        <ele>160.470</ele>
        <time>2026-08-24T14:56:21Z</time>
      </trkpt>
      <trkpt lat="48.779273" lon="-1.180380">
        <ele>160.642</ele>
        <time>2026-08-24T14:56:23Z</time>
      </trkpt>
      <trkpt lat="48.779273" lon="-1.180351">
        <ele>160.614</ele>
        <time>2026-08-24T14:56:25Z</time>
      </trkpt>
      <trkpt lat="48.779274" lon="-1.180338">
        <ele>160.854</ele>
        <time>2026-08-24T14:56:26Z</time>
      </trkpt>
      <trkpt lat="48.779275" lon="-1.180311">
        <ele>161.009</ele>
        <time>2026-08-24T14:56:28Z</time>
      </trkpt>
      <trkpt lat="48.779273" lon="-1.180287">
        <ele>161.109</ele>
        <time>2026-08-24T14:56:30Z</time>
      </trkpt>
      <trkpt lat="48.779273" lon="-1.180261">
        <ele>161.293</ele>
        <time>2026-08-24T14:56:32Z</time>
      </trkpt>
      <trkpt lat="48.779275" lon="-1.180234">
        <ele>161.319</ele>
        <time>2026-08-24T14:56:34Z</time>
      </trkpt>
      <trkpt lat="48.779274" lon="-1.180219">
        <ele>161.552</ele>
        <time>2026-08-24T14:56:35Z</time>
      </trkpt>
      <trkpt lat="48.779270" lon="-1.180193">
        <ele>161.799</ele>
        <time>2026-08-24T14:56:37Z</time>
      </trkpt>
      <trkpt lat="48.779268" lon="-1.180176">
        <ele>161.897</ele>
        <time>2026-08-24T14:56:38Z</time>
      </trkpt>
      <trkpt lat="48.779268" lon="-1.180162">
        <ele>161.995</ele>
        <time>2026-08-24T14:56:39Z</time>
      </trkpt>
      <trkpt lat="48.779269" lon="-1.180148">
        <ele>162.049</ele>
        <time>2026-08-24T14:56:40Z</time>
      </trkpt>
      <trkpt lat="48.779267" lon="-1.180125">
        <ele>162.176</ele>
        <time>2026-08-24T14:56:42Z</time>
      </trkpt>
      <trkpt lat="48.779268" lon="-1.180108">
        <ele>162.188</ele>
        <time>2026-08-24T14:56:43Z</time>
      </trkpt>
      <trkpt lat="48.779270" lon="-1.180091">
        <ele>162.345</ele>
        <time>2026-08-24T14:56:44Z</time>
      </trkpt>
      <trkpt lat="48.779272" lon="-1.180075">
        <ele>162.647</ele>
        <time>2026-08-24T14:56:45Z</time>
      </trkpt>
      <trkpt lat="48.779273" lon="-1.180059">
        <ele>163.011</ele>
        <time>2026-08-24T14:56:46Z</time>
      </trkpt>
      <trkpt lat="48.779274" lon="-1.180030">
        <ele>163.509</ele>
        <time>2026-08-24T14:56:48Z</time>
      </trkpt>
      <trkpt lat="48.779273" lon="-1.180011">
        <ele>163.836</ele>
        <time>2026-08-24T14:56:49Z</time>
      </trkpt>
      <trkpt lat="48.779272" lon="-1.179996">
        <ele>163.922</ele>
        <time>2026-08-24T14:56:50Z</time>
      </trkpt>
      <trkpt lat="48.779273" lon="-1.179976">
        <ele>164.185</ele>
        <time>2026-08-24T14:56:52Z</time>
      </trkpt>
      <trkpt lat="48.779274" lon="-1.179954">
        <ele>164.362</ele>
        <time>2026-08-24T14:56:54Z</time>
      </trkpt>
      <trkpt lat="48.779276" lon="-1.179936">
        <ele>164.630</ele>
        <time>2026-08-24T14:56:55Z</time>
      </trkpt>
      <trkpt lat="48.779279" lon="-1.179922">
        <ele>164.938</ele>
        <time>2026-08-24T14:56:56Z</time>
      </trkpt>
      <trkpt lat="48.779279" lon="-1.179897">
        <ele>165.142</ele>
        <time>2026-08-24T14:56:58Z</time>
      </trkpt>
      <trkpt lat="48.779283" lon="-1.179870">
        <ele>165.259</ele>
        <time>2026-08-24T14:57:00Z</time>
      </trkpt>
      <trkpt lat="48.779286" lon="-1.179853">
        <ele>165.311</ele>
        <time>2026-08-24T14:57:01Z</time>
      </trkpt>
      <trkpt lat="48.779290" lon="-1.179834">
        <ele>165.389</ele>
        <time>2026-08-24T14:57:02Z</time>
      </trkpt>
      <trkpt lat="48.779291" lon="-1.179810">
        <ele>165.506</ele>
        <time>2026-08-24T14:57:04Z</time>
      </trkpt>
      <trkpt lat="48.779292" lon="-1.179794">
        <ele>165.726</ele>
        <time>2026-08-24T14:57:05Z</time>
      </trkpt>
      <trkpt lat="48.779291" lon="-1.179778">
        <ele>165.709</ele>
        <time>2026-08-24T14:57:06Z</time>
      </trkpt>
      <trkpt lat="48.779291" lon="-1.179764">
        <ele>165.770</ele>
        <time>2026-08-24T14:57:07Z</time>
      </trkpt>
      <trkpt lat="48.779296" lon="-1.179744">
        <ele>165.746</ele>
        <time>2026-08-24T14:57:09Z</time>
      </trkpt>
      <trkpt lat="48.779302" lon="-1.179730">
        <ele>165.799</ele>
        <time>2026-08-24T14:57:10Z</time>
      </trkpt>
      <trkpt lat="48.779303" lon="-1.179705">
        <ele>165.736</ele>
        <time>2026-08-24T14:57:12Z</time>
      </trkpt>
      <trkpt lat="48.779306" lon="-1.179680">
        <ele>165.844</ele>
        <time>2026-08-24T14:57:14Z</time>
      </trkpt>
      <trkpt lat="48.779314" lon="-1.179653">
        <ele>165.882</ele>
        <time>2026-08-24T14:57:16Z</time>
      </trkpt>
      <trkpt lat="48.779315" lon="-1.179638">
        <ele>165.826</ele>
        <time>2026-08-24T14:57:17Z</time>
      </trkpt>
      <trkpt lat="48.779316" lon="-1.179609">
        <ele>165.953</ele>
        <time>2026-08-24T14:57:19Z</time>
      </trkpt>
      <trkpt lat="48.779320" lon="-1.179594">
        <ele>166.155</ele>
        <time>2026-08-24T14:57:20Z</time>
      </trkpt>
      <trkpt lat="48.779325" lon="-1.179578">
        <ele>166.392</ele>
        <time>2026-08-24T14:57:21Z</time>
      </trkpt>
      <trkpt lat="48.779331" lon="-1.179556">
        <ele>166.673</ele>
        <time>2026-08-24T14:57:23Z</time>
      </trkpt>
      <trkpt lat="48.779334" lon="-1.179542">
        <ele>166.820</ele>
        <time>2026-08-24T14:57:24Z</time>
      </trkpt>
      <trkpt lat="48.779339" lon="-1.179516">
        <ele>166.909</ele>
        <time>2026-08-24T14:57:26Z</time>
      </trkpt>
      <trkpt lat="48.779342" lon="-1.179502">
        <ele>167.081</ele>
        <time>2026-08-24T14:57:27Z</time>
      </trkpt>
      <trkpt lat="48.779345" lon="-1.179487">
        <ele>167.247</ele>
        <time>2026-08-24T14:57:28Z</time>
      </trkpt>
      <trkpt lat="48.779347" lon="-1.179461">
        <ele>167.310</ele>
        <time>2026-08-24T14:57:30Z</time>
      </trkpt>
      <trkpt lat="48.779348" lon="-1.179446">
        <ele>167.477</ele>
        <time>2026-08-24T14:57:31Z</time>
      </trkpt>
      <trkpt lat="48.779353" lon="-1.179431">
        <ele>167.415</ele>
        <time>2026-08-24T14:57:32Z</time>
      </trkpt>
      <trkpt lat="48.779359" lon="-1.179406">
        <ele>167.563</ele>
        <time>2026-08-24T14:57:34Z</time>
      </trkpt>
      <trkpt lat="48.779365" lon="-1.179379">
        <ele>167.877</ele>
        <time>2026-08-24T14:57:36Z</time>
      </trkpt>
      <trkpt lat="48.779369" lon="-1.179355">
        <ele>168.054</ele>
        <time>2026-08-24T14:57:38Z</time>
      </trkpt>
      <trkpt lat="48.779379" lon="-1.179329">
        <ele>168.386</ele>
        <time>2026-08-24T14:57:40Z</time>
      </trkpt>
      <trkpt lat="48.779382" lon="-1.179316">
        <ele>168.448</ele>
        <time>2026-08-24T14:57:41Z</time>
      </trkpt>
      <trkpt lat="48.779382" lon="-1.179288">
        <ele>168.561</ele>
        <time>2026-08-24T14:57:43Z</time>
      </trkpt>
      <trkpt lat="48.779383" lon="-1.179273">
        <ele>168.517</ele>
        <time>2026-08-24T14:57:44Z</time>
      </trkpt>
      <trkpt lat="48.779391" lon="-1.179248">
        <ele>168.609</ele>
        <time>2026-08-24T14:57:46Z</time>
      </trkpt>
      <trkpt lat="48.779394" lon="-1.179234">
        <ele>168.976</ele>
        <time>2026-08-24T14:57:47Z</time>
      </trkpt>
      <trkpt lat="48.779395" lon="-1.179207">
        <ele>169.232</ele>
        <time>2026-08-24T14:57:49Z</time>
      </trkpt>
      <trkpt lat="48.779401" lon="-1.179191">
        <ele>169.395</ele>
        <time>2026-08-24T14:57:50Z</time>
      </trkpt>
      <trkpt lat="48.779408" lon="-1.179173">
        <ele>169.392</ele>
        <time>2026-08-24T14:57:51Z</time>
      </trkpt>
      <trkpt lat="48.779414" lon="-1.179160">
        <ele>169.490</ele>
        <time>2026-08-24T14:57:52Z</time>
      </trkpt>
      <trkpt lat="48.779417" lon="-1.179137">
        <ele>169.438</ele>
        <time>2026-08-24T14:57:53.999Z</time>
      </trkpt>
      <trkpt lat="48.779421" lon="-1.179123">
        <ele>169.582</ele>
        <time>2026-08-24T14:57:54.999Z</time>
      </trkpt>
      <trkpt lat="48.779424" lon="-1.179110">
        <ele>169.689</ele>
        <time>2026-08-24T14:57:55.999Z</time>
      </trkpt>
      <trkpt lat="48.779425" lon="-1.179093">
        <ele>170.071</ele>
        <time>2026-08-24T14:57:56.999Z</time>
      </trkpt>
      <trkpt lat="48.779426" lon="-1.179078">
        <ele>170.519</ele>
        <time>2026-08-24T14:57:57.999Z</time>
      </trkpt>
      <trkpt lat="48.779427" lon="-1.179063">
        <ele>170.709</ele>
        <time>2026-08-24T14:57:58.999Z</time>
      </trkpt>
      <trkpt lat="48.779432" lon="-1.179048">
        <ele>170.719</ele>
        <time>2026-08-24T14:57:59.999Z</time>
      </trkpt>
      <trkpt lat="48.779434" lon="-1.179031">
        <ele>170.809</ele>
        <time>2026-08-24T14:58:00.999Z</time>
      </trkpt>
      <trkpt lat="48.779435" lon="-1.179015">
        <ele>170.893</ele>
        <time>2026-08-24T14:58:01.999Z</time>
      </trkpt>
      <trkpt lat="48.779438" lon="-1.178988">
        <ele>170.919</ele>
        <time>2026-08-24T14:58:03.999Z</time>
      </trkpt>
      <trkpt lat="48.779444" lon="-1.178972">
        <ele>170.952</ele>
        <time>2026-08-24T14:58:04.999Z</time>
      </trkpt>
      <trkpt lat="48.779449" lon="-1.178955">
        <ele>171.059</ele>
        <time>2026-08-24T14:58:05.999Z</time>
      </trkpt>
      <trkpt lat="48.779454" lon="-1.178939">
        <ele>171.157</ele>
        <time>2026-08-24T14:58:06.999Z</time>
      </trkpt>
      <trkpt lat="48.779457" lon="-1.178924">
        <ele>171.445</ele>
        <time>2026-08-24T14:58:07.999Z</time>
      </trkpt>
      <trkpt lat="48.779461" lon="-1.178910">
        <ele>171.799</ele>
        <time>2026-08-24T14:58:08.999Z</time>
      </trkpt>
      <trkpt lat="48.779465" lon="-1.178895">
        <ele>171.946</ele>
        <time>2026-08-24T14:58:09.999Z</time>
      </trkpt>
      <trkpt lat="48.779468" lon="-1.178865">
        <ele>172.098</ele>
        <time>2026-08-24T14:58:11.999Z</time>
      </trkpt>
      <trkpt lat="48.779470" lon="-1.178851">
        <ele>172.189</ele>
        <time>2026-08-24T14:58:12.999Z</time>
      </trkpt>
      <trkpt lat="48.779471" lon="-1.178837">
        <ele>172.106</ele>
        <time>2026-08-24T14:58:13.999Z</time>
      </trkpt>
      <trkpt lat="48.779475" lon="-1.178824">
        <ele>172.226</ele>
        <time>2026-08-24T14:58:14.999Z</time>
      </trkpt>
      <trkpt lat="48.779479" lon="-1.178808">
        <ele>172.209</ele>
        <time>2026-08-24T14:58:15.999Z</time>
      </trkpt>
      <trkpt lat="48.779481" lon="-1.178791">
        <ele>172.380</ele>
        <time>2026-08-24T14:58:16.999Z</time>
      </trkpt>
      <trkpt lat="48.779487" lon="-1.178776">
        <ele>172.346</ele>
        <time>2026-08-24T14:58:17.999Z</time>
      </trkpt>
      <trkpt lat="48.779490" lon="-1.178749">
        <ele>172.399</ele>
        <time>2026-08-24T14:58:19.999Z</time>
      </trkpt>
      <trkpt lat="48.779493" lon="-1.178732">
        <ele>172.396</ele>
        <time>2026-08-24T14:58:20.999Z</time>
      </trkpt>
      <trkpt lat="48.779495" lon="-1.178718">
        <ele>172.444</ele>
        <time>2026-08-24T14:58:21.999Z</time>
      </trkpt>
      <trkpt lat="48.779497" lon="-1.178703">
        <ele>172.582</ele>
        <time>2026-08-24T14:58:22.999Z</time>
      </trkpt>
      <trkpt lat="48.779501" lon="-1.178689">
        <ele>172.636</ele>
        <time>2026-08-24T14:58:23.999Z</time>
      </trkpt>
      <trkpt lat="48.779505" lon="-1.178674">
        <ele>172.723</ele>
        <time>2026-08-24T14:58:24.999Z</time>
      </trkpt>
      <trkpt lat="48.779508" lon="-1.178660">
        <ele>172.875</ele>
        <time>2026-08-24T14:58:25.999Z</time>
      </trkpt>
      <trkpt lat="48.779510" lon="-1.178645">
        <ele>172.858</ele>
        <time>2026-08-24T14:58:26.999Z</time>
      </trkpt>
      <trkpt lat="48.779514" lon="-1.178629">
        <ele>172.952</ele>
        <time>2026-08-24T14:58:27.999Z</time>
      </trkpt>
      <trkpt lat="48.779519" lon="-1.178614">
        <ele>172.917</ele>
        <time>2026-08-24T14:58:28.999Z</time>
      </trkpt>
      <trkpt lat="48.779522" lon="-1.178601">
        <ele>172.909</ele>
        <time>2026-08-24T14:58:29.999Z</time>
      </trkpt>
      <trkpt lat="48.779524" lon="-1.178585">
        <ele>173.037</ele>
        <time>2026-08-24T14:58:30.999Z</time>
      </trkpt>
      <trkpt lat="48.779525" lon="-1.178570">
        <ele>173.013</ele>
        <time>2026-08-24T14:58:31.999Z</time>
      </trkpt>
      <trkpt lat="48.779525" lon="-1.178553">
        <ele>173.136</ele>
        <time>2026-08-24T14:58:32.999Z</time>
      </trkpt>
      <trkpt lat="48.779527" lon="-1.178538">
        <ele>173.313</ele>
        <time>2026-08-24T14:58:33.999Z</time>
      </trkpt>
      <trkpt lat="48.779533" lon="-1.178523">
        <ele>173.521</ele>
        <time>2026-08-24T14:58:34.999Z</time>
      </trkpt>
      <trkpt lat="48.779539" lon="-1.178506">
        <ele>173.629</ele>
        <time>2026-08-24T14:58:35.999Z</time>
      </trkpt>
      <trkpt lat="48.779543" lon="-1.178493">
        <ele>173.693</ele>
        <time>2026-08-24T14:58:36.999Z</time>
      </trkpt>
      <trkpt lat="48.779548" lon="-1.178478">
        <ele>173.740</ele>
        <time>2026-08-24T14:58:37.999Z</time>
      </trkpt>
      <trkpt lat="48.779551" lon="-1.178463">
        <ele>173.712</ele>
        <time>2026-08-24T14:58:38.999Z</time>
      </trkpt>
      <trkpt lat="48.779554" lon="-1.178447">
        <ele>173.733</ele>
        <time>2026-08-24T14:58:39.999Z</time>
      </trkpt>
      <trkpt lat="48.779558" lon="-1.178429">
        <ele>173.823</ele>
        <time>2026-08-24T14:58:40.999Z</time>
      </trkpt>
      <trkpt lat="48.779561" lon="-1.178414">
        <ele>173.815</ele>
        <time>2026-08-24T14:58:41.999Z</time>
      </trkpt>
      <trkpt lat="48.779565" lon="-1.178399">
        <ele>173.809</ele>
        <time>2026-08-24T14:58:42.999Z</time>
      </trkpt>
      <trkpt lat="48.779570" lon="-1.178385">
        <ele>173.925</ele>
        <time>2026-08-24T14:58:43.999Z</time>
      </trkpt>
      <trkpt lat="48.779574" lon="-1.178370">
        <ele>174.181</ele>
        <time>2026-08-24T14:58:44.999Z</time>
      </trkpt>
      <trkpt lat="48.779577" lon="-1.178341">
        <ele>174.364</ele>
        <time>2026-08-24T14:58:46.999Z</time>
      </trkpt>
      <trkpt lat="48.779579" lon="-1.178328">
        <ele>174.581</ele>
        <time>2026-08-24T14:58:47.999Z</time>
      </trkpt>
      <trkpt lat="48.779581" lon="-1.178299">
        <ele>174.659</ele>
        <time>2026-08-24T14:58:49.999Z</time>
      </trkpt>
      <trkpt lat="48.779584" lon="-1.178280">
        <ele>174.717</ele>
        <time>2026-08-24T14:58:50.999Z</time>
      </trkpt>
      <trkpt lat="48.779590" lon="-1.178261">
        <ele>174.961</ele>
        <time>2026-08-24T14:58:51.999Z</time>
      </trkpt>
      <trkpt lat="48.779593" lon="-1.178245">
        <ele>175.088</ele>
        <time>2026-08-24T14:58:52.999Z</time>
      </trkpt>
      <trkpt lat="48.779593" lon="-1.178227">
        <ele>175.150</ele>
        <time>2026-08-24T14:58:53.999Z</time>
      </trkpt>
      <trkpt lat="48.779594" lon="-1.178211">
        <ele>175.228</ele>
        <time>2026-08-24T14:58:54.999Z</time>
      </trkpt>
      <trkpt lat="48.779598" lon="-1.178197">
        <ele>175.389</ele>
        <time>2026-08-24T14:58:55.999Z</time>
      </trkpt>
      <trkpt lat="48.779601" lon="-1.178180">
        <ele>175.517</ele>
        <time>2026-08-24T14:58:56.999Z</time>
      </trkpt>
      <trkpt lat="48.779602" lon="-1.178163">
        <ele>175.709</ele>
        <time>2026-08-24T14:58:57.999Z</time>
      </trkpt>
      <trkpt lat="48.779606" lon="-1.178150">
        <ele>175.894</ele>
        <time>2026-08-24T14:58:58.999Z</time>
      </trkpt>
      <trkpt lat="48.779610" lon="-1.178137">
        <ele>175.820</ele>
        <time>2026-08-24T14:58:59.999Z</time>
      </trkpt>
      <trkpt lat="48.779612" lon="-1.178121">
        <ele>175.943</ele>
        <time>2026-08-24T14:59:00.999Z</time>
      </trkpt>
      <trkpt lat="48.779611" lon="-1.178104">
        <ele>176.030</ele>
        <time>2026-08-24T14:59:01.999Z</time>
      </trkpt>
      <trkpt lat="48.779612" lon="-1.178086">
        <ele>176.088</ele>
        <time>2026-08-24T14:59:02.999Z</time>
      </trkpt>
      <trkpt lat="48.779613" lon="-1.178073">
        <ele>176.286</ele>
        <time>2026-08-24T14:59:03.999Z</time>
      </trkpt>
      <trkpt lat="48.779615" lon="-1.178055">
        <ele>176.390</ele>
        <time>2026-08-24T14:59:04.999Z</time>
      </trkpt>
      <trkpt lat="48.779616" lon="-1.178039">
        <ele>176.437</ele>
        <time>2026-08-24T14:59:05.999Z</time>
      </trkpt>
      <trkpt lat="48.779618" lon="-1.178024">
        <ele>176.469</ele>
        <time>2026-08-24T14:59:06.999Z</time>
      </trkpt>
      <trkpt lat="48.779619" lon="-1.178008">
        <ele>176.596</ele>
        <time>2026-08-24T14:59:07.999Z</time>
      </trkpt>
      <trkpt lat="48.779624" lon="-1.177988">
        <ele>176.531</ele>
        <time>2026-08-24T14:59:08.999Z</time>
      </trkpt>
      <trkpt lat="48.779627" lon="-1.177971">
        <ele>176.524</ele>
        <time>2026-08-24T14:59:09.999Z</time>
      </trkpt>
      <trkpt lat="48.779629" lon="-1.177953">
        <ele>176.509</ele>
        <time>2026-08-24T14:59:10.999Z</time>
      </trkpt>
      <trkpt lat="48.779633" lon="-1.177939">
        <ele>176.571</ele>
        <time>2026-08-24T14:59:11.999Z</time>
      </trkpt>
      <trkpt lat="48.779636" lon="-1.177923">
        <ele>176.657</ele>
        <time>2026-08-24T14:59:12.999Z</time>
      </trkpt>
      <trkpt lat="48.779637" lon="-1.177908">
        <ele>176.630</ele>
        <time>2026-08-24T14:59:13.999Z</time>
      </trkpt>
      <trkpt lat="48.779640" lon="-1.177895">
        <ele>176.767</ele>
        <time>2026-08-24T14:59:14.999Z</time>
      </trkpt>
      <trkpt lat="48.779644" lon="-1.177877">
        <ele>176.855</ele>
        <time>2026-08-24T14:59:15.999Z</time>
      </trkpt>
      <trkpt lat="48.779648" lon="-1.177861">
        <ele>176.833</ele>
        <time>2026-08-24T14:59:16.999Z</time>
      </trkpt>
      <trkpt lat="48.779650" lon="-1.177844">
        <ele>176.947</ele>
        <time>2026-08-24T14:59:17.999Z</time>
      </trkpt>
      <trkpt lat="48.779651" lon="-1.177827">
        <ele>176.974</ele>
        <time>2026-08-24T14:59:18.999Z</time>
      </trkpt>
      <trkpt lat="48.779653" lon="-1.177812">
        <ele>177.036</ele>
        <time>2026-08-24T14:59:19.999Z</time>
      </trkpt>
      <trkpt lat="48.779654" lon="-1.177792">
        <ele>177.119</ele>
        <time>2026-08-24T14:59:20.999Z</time>
      </trkpt>
      <trkpt lat="48.779657" lon="-1.177776">
        <ele>177.109</ele>
        <time>2026-08-24T14:59:21.999Z</time>
      </trkpt>
      <trkpt lat="48.779663" lon="-1.177749">
        <ele>177.119</ele>
        <time>2026-08-24T14:59:23.999Z</time>
      </trkpt>
      <trkpt lat="48.779666" lon="-1.177732">
        <ele>177.209</ele>
        <time>2026-08-24T14:59:24.999Z</time>
      </trkpt>
      <trkpt lat="48.779664" lon="-1.177716">
        <ele>177.263</ele>
        <time>2026-08-24T14:59:25.999Z</time>
      </trkpt>
      <trkpt lat="48.779665" lon="-1.177702">
        <ele>177.259</ele>
        <time>2026-08-24T14:59:26.999Z</time>
      </trkpt>
      <trkpt lat="48.779668" lon="-1.177686">
        <ele>177.372</ele>
        <time>2026-08-24T14:59:27.999Z</time>
      </trkpt>
      <trkpt lat="48.779667" lon="-1.177670">
        <ele>177.359</ele>
        <time>2026-08-24T14:59:28.999Z</time>
      </trkpt>
      <trkpt lat="48.779666" lon="-1.177653">
        <ele>177.397</ele>
        <time>2026-08-24T14:59:29.999Z</time>
      </trkpt>
      <trkpt lat="48.779667" lon="-1.177638">
        <ele>177.475</ele>
        <time>2026-08-24T14:59:30.999Z</time>
      </trkpt>
      <trkpt lat="48.779666" lon="-1.177611">
        <ele>177.479</ele>
        <time>2026-08-24T14:59:32.999Z</time>
      </trkpt>
      <trkpt lat="48.779665" lon="-1.177593">
        <ele>177.536</ele>
        <time>2026-08-24T14:59:33.999Z</time>
      </trkpt>
      <trkpt lat="48.779667" lon="-1.177575">
        <ele>177.588</ele>
        <time>2026-08-24T14:59:34.999Z</time>
      </trkpt>
      <trkpt lat="48.779670" lon="-1.177557">
        <ele>177.538</ele>
        <time>2026-08-24T14:59:35.999Z</time>
      </trkpt>
      <trkpt lat="48.779672" lon="-1.177541">
        <ele>177.570</ele>
        <time>2026-08-24T14:59:36.999Z</time>
      </trkpt>
      <trkpt lat="48.779671" lon="-1.177524">
        <ele>177.617</ele>
        <time>2026-08-24T14:59:37.999Z</time>
      </trkpt>
      <trkpt lat="48.779673" lon="-1.177510">
        <ele>177.609</ele>
        <time>2026-08-24T14:59:38.999Z</time>
      </trkpt>
      <trkpt lat="48.779671" lon="-1.177494">
        <ele>177.695</ele>
        <time>2026-08-24T14:59:39.999Z</time>
      </trkpt>
      <trkpt lat="48.779671" lon="-1.177475">
        <ele>177.681</ele>
        <time>2026-08-24T14:59:40.999Z</time>
      </trkpt>
      <trkpt lat="48.779673" lon="-1.177461">
        <ele>177.674</ele>
        <time>2026-08-24T14:59:41.999Z</time>
      </trkpt>
      <trkpt lat="48.779673" lon="-1.177447">
        <ele>177.761</ele>
        <time>2026-08-24T14:59:42.999Z</time>
      </trkpt>
      <trkpt lat="48.779674" lon="-1.177428">
        <ele>177.859</ele>
        <time>2026-08-24T14:59:43.999Z</time>
      </trkpt>
      <trkpt lat="48.779676" lon="-1.177410">
        <ele>177.987</ele>
        <time>2026-08-24T14:59:44.999Z</time>
      </trkpt>
      <trkpt lat="48.779674" lon="-1.177393">
        <ele>178.081</ele>
        <time>2026-08-24T14:59:45.999Z</time>
      </trkpt>
      <trkpt lat="48.779672" lon="-1.177380">
        <ele>178.158</ele>
        <time>2026-08-24T14:59:46.999Z</time>
      </trkpt>
      <trkpt lat="48.779670" lon="-1.177363">
        <ele>178.170</ele>
        <time>2026-08-24T14:59:47.999Z</time>
      </trkpt>
      <trkpt lat="48.779669" lon="-1.177346">
        <ele>178.263</ele>
        <time>2026-08-24T14:59:48.999Z</time>
      </trkpt>
      <trkpt lat="48.779667" lon="-1.177330">
        <ele>178.344</ele>
        <time>2026-08-24T14:59:49.999Z</time>
      </trkpt>
      <trkpt lat="48.779664" lon="-1.177313">
        <ele>178.318</ele>
        <time>2026-08-24T14:59:50.999Z</time>
      </trkpt>
      <trkpt lat="48.779658" lon="-1.177301">
        <ele>178.409</ele>
        <time>2026-08-24T14:59:51.999Z</time>
      </trkpt>
      <trkpt lat="48.779655" lon="-1.177288">
        <ele>178.598</ele>
        <time>2026-08-24T14:59:52.999Z</time>
      </trkpt>
      <trkpt lat="48.779654" lon="-1.177272">
        <ele>178.654</ele>
        <time>2026-08-24T14:59:53.999Z</time>
      </trkpt>
      <trkpt lat="48.779652" lon="-1.177255">
        <ele>178.697</ele>
        <time>2026-08-24T14:59:54.999Z</time>
      </trkpt>
      <trkpt lat="48.779650" lon="-1.177242">
        <ele>178.794</ele>
        <time>2026-08-24T14:59:55.999Z</time>
      </trkpt>
      <trkpt lat="48.779649" lon="-1.177225">
        <ele>178.882</ele>
        <time>2026-08-24T14:59:56.999Z</time>
      </trkpt>
      <trkpt lat="48.779650" lon="-1.177206">
        <ele>178.820</ele>
        <time>2026-08-24T14:59:57.999Z</time>
      </trkpt>
      <trkpt lat="48.779649" lon="-1.177191">
        <ele>178.994</ele>
        <time>2026-08-24T14:59:58.999Z</time>
      </trkpt>
      <trkpt lat="48.779648" lon="-1.177177">
        <ele>178.981</ele>
        <time>2026-08-24T14:59:59.999Z</time>
      </trkpt>
      <trkpt lat="48.779648" lon="-1.177161">
        <ele>179.053</ele>
        <time>2026-08-24T15:00:00.999Z</time>
      </trkpt>
      <trkpt lat="48.779650" lon="-1.177145">
        <ele>179.171</ele>
        <time>2026-08-24T15:00:01.999Z</time>
      </trkpt>
      <trkpt lat="48.779648" lon="-1.177129">
        <ele>179.241</ele>
        <time>2026-08-24T15:00:02.999Z</time>
      </trkpt>
      <trkpt lat="48.779648" lon="-1.177115">
        <ele>179.215</ele>
        <time>2026-08-24T15:00:03.999Z</time>
      </trkpt>
      <trkpt lat="48.779649" lon="-1.177101">
        <ele>179.209</ele>
        <time>2026-08-24T15:00:04.999Z</time>
      </trkpt>
      <trkpt lat="48.779647" lon="-1.177086">
        <ele>179.299</ele>
        <time>2026-08-24T15:00:05.999Z</time>
      </trkpt>
      <trkpt lat="48.779649" lon="-1.177069">
        <ele>179.325</ele>
        <time>2026-08-24T15:00:14.999Z</time>
      </trkpt>
      <trkpt lat="48.779647" lon="-1.177052">
        <ele>179.448</ele>
        <time>2026-08-24T15:00:15.999Z</time>
      </trkpt>
      <trkpt lat="48.779643" lon="-1.177034">
        <ele>179.475</ele>
        <time>2026-08-24T15:00:16.999Z</time>
      </trkpt>
      <trkpt lat="48.779639" lon="-1.177017">
        <ele>179.483</ele>
        <time>2026-08-24T15:00:17.999Z</time>
      </trkpt>
      <trkpt lat="48.779637" lon="-1.177003">
        <ele>179.531</ele>
        <time>2026-08-24T15:00:18.999Z</time>
      </trkpt>
      <trkpt lat="48.779635" lon="-1.176988">
        <ele>179.555</ele>
        <time>2026-08-24T15:00:19.999Z</time>
      </trkpt>
      <trkpt lat="48.779633" lon="-1.176971">
        <ele>179.672</ele>
        <time>2026-08-24T15:00:20.999Z</time>
      </trkpt>
      <trkpt lat="48.779630" lon="-1.176945">
        <ele>179.694</ele>
        <time>2026-08-24T15:00:22.999Z</time>
      </trkpt>
      <trkpt lat="48.779628" lon="-1.176914">
        <ele>179.764</ele>
        <time>2026-08-24T15:00:24.999Z</time>
      </trkpt>
      <trkpt lat="48.779626" lon="-1.176896">
        <ele>179.906</ele>
        <time>2026-08-24T15:00:25.999Z</time>
      </trkpt>
      <trkpt lat="48.779625" lon="-1.176880">
        <ele>180.016</ele>
        <time>2026-08-24T15:00:26.999Z</time>
      </trkpt>
      <trkpt lat="48.779624" lon="-1.176857">
        <ele>180.109</ele>
        <time>2026-08-24T15:00:28.999Z</time>
      </trkpt>
      <trkpt lat="48.779620" lon="-1.176839">
        <ele>180.238</ele>
        <time>2026-08-24T15:00:29.999Z</time>
      </trkpt>
      <trkpt lat="48.779614" lon="-1.176826">
        <ele>180.254</ele>
        <time>2026-08-24T15:00:30.999Z</time>
      </trkpt>
      <trkpt lat="48.779609" lon="-1.176810">
        <ele>180.397</ele>
        <time>2026-08-24T15:00:31.999Z</time>
      </trkpt>
      <trkpt lat="48.779605" lon="-1.176795">
        <ele>180.614</ele>
        <time>2026-08-24T15:00:32.999Z</time>
      </trkpt>
      <trkpt lat="48.779604" lon="-1.176780">
        <ele>181.162</ele>
        <time>2026-08-24T15:00:33.999Z</time>
      </trkpt>
      <trkpt lat="48.779598" lon="-1.176770">
        <ele>181.380</ele>
        <time>2026-08-24T15:00:53.999Z</time>
      </trkpt>
      <trkpt lat="48.779586" lon="-1.176759">
        <ele>181.384</ele>
        <time>2026-08-24T15:00:54.999Z</time>
      </trkpt>
      <trkpt lat="48.779572" lon="-1.176750">
        <ele>181.431</ele>
        <time>2026-08-24T15:00:55.999Z</time>
      </trkpt>
      <trkpt lat="48.779555" lon="-1.176741">
        <ele>181.543</ele>
        <time>2026-08-24T15:00:56.999Z</time>
      </trkpt>
      <trkpt lat="48.779545" lon="-1.176745">
        <ele>181.654</ele>
        <time>2026-08-24T15:00:57.999Z</time>
      </trkpt>
      <trkpt lat="48.779531" lon="-1.176744">
        <ele>181.856</ele>
        <time>2026-08-24T15:00:58.999Z</time>
      </trkpt>
      <trkpt lat="48.779520" lon="-1.176739">
        <ele>182.111</ele>
        <time>2026-08-24T15:00:59.999Z</time>
      </trkpt>
      <trkpt lat="48.779531" lon="-1.176743">
        <ele>182.209</ele>
        <time>2026-08-24T15:01:02.999Z</time>
      </trkpt>
      <trkpt lat="48.779509" lon="-1.176750">
        <ele>182.547</ele>
        <time>2026-08-24T15:01:04.999Z</time>
      </trkpt>
      <trkpt lat="48.779489" lon="-1.176751">
        <ele>182.973</ele>
        <time>2026-08-24T15:01:05.999Z</time>
      </trkpt>
      <trkpt lat="48.779475" lon="-1.176751">
        <ele>183.196</ele>
        <time>2026-08-24T15:01:06.999Z</time>
      </trkpt>
      <trkpt lat="48.779466" lon="-1.176748">
        <ele>183.233</ele>
        <time>2026-08-24T15:01:07.999Z</time>
      </trkpt>
      <trkpt lat="48.779457" lon="-1.176744">
        <ele>183.211</ele>
        <time>2026-08-24T15:01:08.999Z</time>
      </trkpt>
      <trkpt lat="48.779448" lon="-1.176746">
        <ele>183.349</ele>
        <time>2026-08-24T15:01:09.999Z</time>
      </trkpt>
      <trkpt lat="48.779440" lon="-1.176757">
        <ele>183.363</ele>
        <time>2026-08-24T15:01:12.999Z</time>
      </trkpt>
      <trkpt lat="48.779429" lon="-1.176741">
        <ele>183.370</ele>
        <time>2026-08-24T15:01:22.999Z</time>
      </trkpt>
      <trkpt lat="48.779414" lon="-1.176744">
        <ele>183.372</ele>
        <time>2026-08-24T15:01:23.999Z</time>
      </trkpt>
      <trkpt lat="48.779400" lon="-1.176751">
        <ele>183.348</ele>
        <time>2026-08-24T15:01:24.999Z</time>
      </trkpt>
      <trkpt lat="48.779386" lon="-1.176758">
        <ele>183.461</ele>
        <time>2026-08-24T15:01:25.999Z</time>
      </trkpt>
      <trkpt lat="48.779373" lon="-1.176762">
        <ele>183.417</ele>
        <time>2026-08-24T15:01:26.999Z</time>
      </trkpt>
      <trkpt lat="48.779362" lon="-1.176762">
        <ele>183.509</ele>
        <time>2026-08-24T15:01:27.999Z</time>
      </trkpt>
      <trkpt lat="48.779352" lon="-1.176764">
        <ele>183.516</ele>
        <time>2026-08-24T15:01:28.999Z</time>
      </trkpt>
      <trkpt lat="48.779335" lon="-1.176775">
        <ele>183.582</ele>
        <time>2026-08-24T15:01:36.999Z</time>
      </trkpt>
      <trkpt lat="48.779324" lon="-1.176773">
        <ele>183.565</ele>
        <time>2026-08-24T15:01:37.999Z</time>
      </trkpt>
      <trkpt lat="48.779311" lon="-1.176774">
        <ele>183.532</ele>
        <time>2026-08-24T15:01:38.999Z</time>
      </trkpt>
      <trkpt lat="48.779300" lon="-1.176771">
        <ele>183.570</ele>
        <time>2026-08-24T15:01:39.999Z</time>
      </trkpt>
      <trkpt lat="48.779288" lon="-1.176770">
        <ele>183.568</ele>
        <time>2026-08-24T15:01:40.999Z</time>
      </trkpt>
      <trkpt lat="48.779276" lon="-1.176770">
        <ele>183.542</ele>
        <time>2026-08-24T15:01:41.999Z</time>
      </trkpt>
      <trkpt lat="48.779267" lon="-1.176773">
        <ele>183.419</ele>
        <time>2026-08-24T15:01:42.999Z</time>
      </trkpt>
      <trkpt lat="48.779255" lon="-1.176777">
        <ele>183.451</ele>
        <time>2026-08-24T15:01:43.999Z</time>
      </trkpt>
      <trkpt lat="48.779243" lon="-1.176779">
        <ele>183.347</ele>
        <time>2026-08-24T15:01:44.999Z</time>
      </trkpt>
      <trkpt lat="48.779231" lon="-1.176779">
        <ele>183.329</ele>
        <time>2026-08-24T15:01:45.999Z</time>
      </trkpt>
      <trkpt lat="48.779218" lon="-1.176779">
        <ele>183.321</ele>
        <time>2026-08-24T15:01:46.999Z</time>
      </trkpt>
      <trkpt lat="48.779208" lon="-1.176782">
        <ele>183.309</ele>
        <time>2026-08-24T15:01:47.999Z</time>
      </trkpt>
      <trkpt lat="48.779195" lon="-1.176779">
        <ele>183.316</ele>
        <time>2026-08-24T15:01:48.999Z</time>
      </trkpt>
      <trkpt lat="48.779183" lon="-1.176775">
        <ele>183.392</ele>
        <time>2026-08-24T15:01:49.999Z</time>
      </trkpt>
      <trkpt lat="48.779170" lon="-1.176772">
        <ele>183.325</ele>
        <time>2026-08-24T15:01:50.999Z</time>
      </trkpt>
      <trkpt lat="48.779159" lon="-1.176771">
        <ele>183.372</ele>
        <time>2026-08-24T15:01:51.999Z</time>
      </trkpt>
      <trkpt lat="48.779148" lon="-1.176775">
        <ele>183.350</ele>
        <time>2026-08-24T15:01:52.999Z</time>
      </trkpt>
      <trkpt lat="48.779135" lon="-1.176779">
        <ele>183.368</ele>
        <time>2026-08-24T15:01:53.999Z</time>
      </trkpt>
      <trkpt lat="48.779123" lon="-1.176785">
        <ele>183.342</ele>
        <time>2026-08-24T15:01:54.999Z</time>
      </trkpt>
      <trkpt lat="48.779111" lon="-1.176788">
        <ele>183.319</ele>
        <time>2026-08-24T15:01:55.999Z</time>
      </trkpt>
      <trkpt lat="48.779101" lon="-1.176784">
        <ele>183.391</ele>
        <time>2026-08-24T15:01:56.999Z</time>
      </trkpt>
      <trkpt lat="48.779081" lon="-1.176786">
        <ele>183.342</ele>
        <time>2026-08-24T15:01:58.999Z</time>
      </trkpt>
      <trkpt lat="48.779070" lon="-1.176789">
        <ele>183.322</ele>
        <time>2026-08-24T15:01:59.999Z</time>
      </trkpt>
      <trkpt lat="48.779058" lon="-1.176795">
        <ele>183.414</ele>
        <time>2026-08-24T15:02:00.999Z</time>
      </trkpt>
      <trkpt lat="48.779049" lon="-1.176801">
        <ele>183.509</ele>
        <time>2026-08-24T15:02:01.999Z</time>
      </trkpt>
      <trkpt lat="48.779037" lon="-1.176804">
        <ele>183.556</ele>
        <time>2026-08-24T15:02:02.999Z</time>
      </trkpt>
      <trkpt lat="48.779025" lon="-1.176806">
        <ele>183.522</ele>
        <time>2026-08-24T15:02:03.999Z</time>
      </trkpt>
      <trkpt lat="48.779014" lon="-1.176809">
        <ele>183.535</ele>
        <time>2026-08-24T15:02:04.999Z</time>
      </trkpt>
      <trkpt lat="48.779003" lon="-1.176814">
        <ele>183.582</ele>
        <time>2026-08-24T15:02:05.999Z</time>
      </trkpt>
      <trkpt lat="48.778992" lon="-1.176821">
        <ele>183.610</ele>
        <time>2026-08-24T15:02:06.999Z</time>
      </trkpt>
      <trkpt lat="48.778982" lon="-1.176823">
        <ele>183.618</ele>
        <time>2026-08-24T15:02:07.999Z</time>
      </trkpt>
      <trkpt lat="48.778971" lon="-1.176831">
        <ele>183.732</ele>
        <time>2026-08-24T15:02:08.999Z</time>
      </trkpt>
      <trkpt lat="48.778961" lon="-1.176838">
        <ele>183.739</ele>
        <time>2026-08-24T15:02:09.999Z</time>
      </trkpt>
      <trkpt lat="48.778951" lon="-1.176844">
        <ele>183.741</ele>
        <time>2026-08-24T15:02:10.999Z</time>
      </trkpt>
      <trkpt lat="48.778939" lon="-1.176849">
        <ele>183.758</ele>
        <time>2026-08-24T15:02:11.999Z</time>
      </trkpt>
      <trkpt lat="48.778926" lon="-1.176859">
        <ele>183.752</ele>
        <time>2026-08-24T15:02:12.999Z</time>
      </trkpt>
      <trkpt lat="48.778915" lon="-1.176870">
        <ele>183.717</ele>
        <time>2026-08-24T15:02:13.999Z</time>
      </trkpt>
      <trkpt lat="48.778904" lon="-1.176877">
        <ele>183.709</ele>
        <time>2026-08-24T15:02:14.999Z</time>
      </trkpt>
      <trkpt lat="48.778893" lon="-1.176883">
        <ele>183.747</ele>
        <time>2026-08-24T15:02:15.999Z</time>
      </trkpt>
      <trkpt lat="48.778882" lon="-1.176887">
        <ele>183.793</ele>
        <time>2026-08-24T15:02:16.999Z</time>
      </trkpt>
      <trkpt lat="48.778871" lon="-1.176893">
        <ele>183.776</ele>
        <time>2026-08-24T15:02:17.999Z</time>
      </trkpt>
      <trkpt lat="48.778864" lon="-1.176900">
        <ele>183.763</ele>
        <time>2026-08-24T15:02:18.999Z</time>
      </trkpt>
      <trkpt lat="48.778854" lon="-1.176911">
        <ele>183.751</ele>
        <time>2026-08-24T15:02:19.999Z</time>
      </trkpt>
      <trkpt lat="48.778843" lon="-1.176925">
        <ele>183.749</ele>
        <time>2026-08-24T15:02:20.999Z</time>
      </trkpt>
      <trkpt lat="48.778831" lon="-1.176928">
        <ele>183.723</ele>
        <time>2026-08-24T15:02:21.999Z</time>
      </trkpt>
      <trkpt lat="48.778822" lon="-1.176934">
        <ele>183.730</ele>
        <time>2026-08-24T15:02:22.999Z</time>
      </trkpt>
      <trkpt lat="48.778811" lon="-1.176938">
        <ele>183.752</ele>
        <time>2026-08-24T15:02:23.999Z</time>
      </trkpt>
      <trkpt lat="48.778801" lon="-1.176945">
        <ele>183.788</ele>
        <time>2026-08-24T15:02:24.999Z</time>
      </trkpt>
      <trkpt lat="48.778791" lon="-1.176954">
        <ele>183.724</ele>
        <time>2026-08-24T15:02:25.999Z</time>
      </trkpt>
      <trkpt lat="48.778783" lon="-1.176962">
        <ele>183.726</ele>
        <time>2026-08-24T15:02:26.999Z</time>
      </trkpt>
      <trkpt lat="48.778774" lon="-1.176970">
        <ele>183.709</ele>
        <time>2026-08-24T15:02:27.999Z</time>
      </trkpt>
      <trkpt lat="48.778764" lon="-1.176981">
        <ele>183.750</ele>
        <time>2026-08-24T15:02:28.999Z</time>
      </trkpt>
      <trkpt lat="48.778752" lon="-1.176989">
        <ele>183.726</ele>
        <time>2026-08-24T15:02:29.999Z</time>
      </trkpt>
      <trkpt lat="48.778742" lon="-1.176994">
        <ele>183.729</ele>
        <time>2026-08-24T15:02:30.999Z</time>
      </trkpt>
      <trkpt lat="48.778730" lon="-1.177002">
        <ele>183.746</ele>
        <time>2026-08-24T15:02:31.999Z</time>
      </trkpt>
      <trkpt lat="48.778720" lon="-1.177009">
        <ele>183.774</ele>
        <time>2026-08-24T15:02:32.999Z</time>
      </trkpt>
      <trkpt lat="48.778711" lon="-1.177016">
        <ele>183.752</ele>
        <time>2026-08-24T15:02:33.999Z</time>
      </trkpt>
      <trkpt lat="48.778701" lon="-1.177023">
        <ele>183.726</ele>
        <time>2026-08-24T15:02:34.999Z</time>
      </trkpt>
      <trkpt lat="48.778688" lon="-1.177028">
        <ele>183.673</ele>
        <time>2026-08-24T15:02:35.999Z</time>
      </trkpt>
      <trkpt lat="48.778677" lon="-1.177041">
        <ele>183.645</ele>
        <time>2026-08-24T15:02:36.999Z</time>
      </trkpt>
      <trkpt lat="48.778669" lon="-1.177056">
        <ele>183.689</ele>
        <time>2026-08-24T15:02:37.999Z</time>
      </trkpt>
      <trkpt lat="48.778662" lon="-1.177070">
        <ele>183.606</ele>
        <time>2026-08-24T15:02:38.999Z</time>
      </trkpt>
      <trkpt lat="48.778654" lon="-1.177083">
        <ele>183.626</ele>
        <time>2026-08-24T15:02:39.999Z</time>
      </trkpt>
      <trkpt lat="48.778645" lon="-1.177092">
        <ele>183.609</ele>
        <time>2026-08-24T15:02:40.999Z</time>
      </trkpt>
      <trkpt lat="48.778635" lon="-1.177102">
        <ele>183.680</ele>
        <time>2026-08-24T15:02:41.999Z</time>
      </trkpt>
      <trkpt lat="48.778624" lon="-1.177106">
        <ele>183.636</ele>
        <time>2026-08-24T15:02:42.999Z</time>
      </trkpt>
      <trkpt lat="48.778614" lon="-1.177109">
        <ele>183.619</ele>
        <time>2026-08-24T15:02:43.999Z</time>
      </trkpt>
      <trkpt lat="48.778603" lon="-1.177114">
        <ele>183.656</ele>
        <time>2026-08-24T15:02:44.999Z</time>
      </trkpt>
      <trkpt lat="48.778584" lon="-1.177125">
        <ele>183.664</ele>
        <time>2026-08-24T15:02:46.999Z</time>
      </trkpt>
      <trkpt lat="48.778573" lon="-1.177132">
        <ele>183.692</ele>
        <time>2026-08-24T15:02:47.999Z</time>
      </trkpt>
      <trkpt lat="48.778562" lon="-1.177138">
        <ele>183.566</ele>
        <time>2026-08-24T15:02:48.999Z</time>
      </trkpt>
      <trkpt lat="48.778552" lon="-1.177142">
        <ele>183.543</ele>
        <time>2026-08-24T15:02:49.999Z</time>
      </trkpt>
      <trkpt lat="48.778542" lon="-1.177143">
        <ele>183.575</ele>
        <time>2026-08-24T15:02:50.999Z</time>
      </trkpt>
      <trkpt lat="48.778530" lon="-1.177146">
        <ele>183.545</ele>
        <time>2026-08-24T15:02:51.999Z</time>
      </trkpt>
      <trkpt lat="48.778521" lon="-1.177151">
        <ele>183.547</ele>
        <time>2026-08-24T15:02:52.999Z</time>
      </trkpt>
      <trkpt lat="48.778513" lon="-1.177163">
        <ele>183.511</ele>
        <time>2026-08-24T15:02:53.999Z</time>
      </trkpt>
      <trkpt lat="48.778504" lon="-1.177174">
        <ele>183.509</ele>
        <time>2026-08-24T15:02:54.999Z</time>
      </trkpt>
      <trkpt lat="48.778492" lon="-1.177180">
        <ele>183.586</ele>
        <time>2026-08-24T15:02:55.999Z</time>
      </trkpt>
      <trkpt lat="48.778477" lon="-1.177188">
        <ele>183.432</ele>
        <time>2026-08-24T15:02:56.999Z</time>
      </trkpt>
      <trkpt lat="48.778467" lon="-1.177191">
        <ele>183.425</ele>
        <time>2026-08-24T15:02:57.999Z</time>
      </trkpt>
      <trkpt lat="48.778456" lon="-1.177196">
        <ele>183.432</ele>
        <time>2026-08-24T15:02:58.999Z</time>
      </trkpt>
      <trkpt lat="48.778445" lon="-1.177199">
        <ele>183.310</ele>
        <time>2026-08-24T15:02:59.999Z</time>
      </trkpt>
      <trkpt lat="48.778435" lon="-1.177204">
        <ele>183.238</ele>
        <time>2026-08-24T15:03:00.999Z</time>
      </trkpt>
      <trkpt lat="48.778425" lon="-1.177212">
        <ele>183.152</ele>
        <time>2026-08-24T15:03:01.999Z</time>
      </trkpt>
      <trkpt lat="48.778414" lon="-1.177220">
        <ele>183.159</ele>
        <time>2026-08-24T15:03:02.999Z</time>
      </trkpt>
      <trkpt lat="48.778402" lon="-1.177221">
        <ele>183.071</ele>
        <time>2026-08-24T15:03:03.999Z</time>
      </trkpt>
      <trkpt lat="48.778392" lon="-1.177224">
        <ele>182.929</ele>
        <time>2026-08-24T15:03:04.999Z</time>
      </trkpt>
      <trkpt lat="48.778379" lon="-1.177229">
        <ele>182.900</ele>
        <time>2026-08-24T15:03:05.999Z</time>
      </trkpt>
      <trkpt lat="48.778367" lon="-1.177235">
        <ele>182.920</ele>
        <time>2026-08-24T15:03:06.999Z</time>
      </trkpt>
      <trkpt lat="48.778356" lon="-1.177238">
        <ele>182.909</ele>
        <time>2026-08-24T15:03:07.999Z</time>
      </trkpt>
      <trkpt lat="48.778345" lon="-1.177242">
        <ele>182.934</ele>
        <time>2026-08-24T15:03:08.999Z</time>
      </trkpt>
      <trkpt lat="48.778332" lon="-1.177247">
        <ele>182.840</ele>
        <time>2026-08-24T15:03:09.999Z</time>
      </trkpt>
      <trkpt lat="48.778321" lon="-1.177250">
        <ele>182.813</ele>
        <time>2026-08-24T15:03:10.999Z</time>
      </trkpt>
      <trkpt lat="48.778313" lon="-1.177257">
        <ele>182.870</ele>
        <time>2026-08-24T15:03:11.999Z</time>
      </trkpt>
      <trkpt lat="48.778303" lon="-1.177264">
        <ele>182.878</ele>
        <time>2026-08-24T15:03:12.999Z</time>
      </trkpt>
      <trkpt lat="48.778293" lon="-1.177272">
        <ele>182.786</ele>
        <time>2026-08-24T15:03:13.999Z</time>
      </trkpt>
      <trkpt lat="48.778282" lon="-1.177277">
        <ele>182.750</ele>
        <time>2026-08-24T15:03:14.999Z</time>
      </trkpt>
      <trkpt lat="48.778270" lon="-1.177279">
        <ele>182.797</ele>
        <time>2026-08-24T15:03:15.999Z</time>
      </trkpt>
      <trkpt lat="48.778257" lon="-1.177281">
        <ele>182.739</ele>
        <time>2026-08-24T15:03:16.999Z</time>
      </trkpt>
      <trkpt lat="48.778245" lon="-1.177285">
        <ele>182.798</ele>
        <time>2026-08-24T15:03:17.999Z</time>
      </trkpt>
      <trkpt lat="48.778235" lon="-1.177292">
        <ele>182.715</ele>
        <time>2026-08-24T15:03:18.999Z</time>
      </trkpt>
      <trkpt lat="48.778226" lon="-1.177301">
        <ele>182.626</ele>
        <time>2026-08-24T15:03:19.999Z</time>
      </trkpt>
      <trkpt lat="48.778216" lon="-1.177309">
        <ele>182.609</ele>
        <time>2026-08-24T15:03:20.999Z</time>
      </trkpt>
      <trkpt lat="48.778205" lon="-1.177315">
        <ele>182.671</ele>
        <time>2026-08-24T15:03:21.999Z</time>
      </trkpt>
      <trkpt lat="48.778194" lon="-1.177320">
        <ele>182.687</ele>
        <time>2026-08-24T15:03:22.999Z</time>
      </trkpt>
      <trkpt lat="48.778184" lon="-1.177323">
        <ele>182.660</ele>
        <time>2026-08-24T15:03:23.999Z</time>
      </trkpt>
      <trkpt lat="48.778174" lon="-1.177327">
        <ele>182.567</ele>
        <time>2026-08-24T15:03:24.999Z</time>
      </trkpt>
      <trkpt lat="48.778163" lon="-1.177333">
        <ele>182.585</ele>
        <time>2026-08-24T15:03:25.999Z</time>
      </trkpt>
      <trkpt lat="48.778151" lon="-1.177339">
        <ele>182.563</ele>
        <time>2026-08-24T15:03:26.999Z</time>
      </trkpt>
      <trkpt lat="48.778139" lon="-1.177344">
        <ele>182.527</ele>
        <time>2026-08-24T15:03:27.999Z</time>
      </trkpt>
      <trkpt lat="48.778125" lon="-1.177348">
        <ele>182.584</ele>
        <time>2026-08-24T15:03:28.999Z</time>
      </trkpt>
      <trkpt lat="48.778112" lon="-1.177347">
        <ele>182.536</ele>
        <time>2026-08-24T15:03:29.999Z</time>
      </trkpt>
      <trkpt lat="48.778101" lon="-1.177352">
        <ele>182.547</ele>
        <time>2026-08-24T15:03:30.999Z</time>
      </trkpt>
      <trkpt lat="48.778092" lon="-1.177359">
        <ele>182.429</ele>
        <time>2026-08-24T15:03:31.999Z</time>
      </trkpt>
      <trkpt lat="48.778073" lon="-1.177371">
        <ele>182.421</ele>
        <time>2026-08-24T15:03:33.999Z</time>
      </trkpt>
      <trkpt lat="48.778064" lon="-1.177378">
        <ele>182.409</ele>
        <time>2026-08-24T15:03:34.999Z</time>
      </trkpt>
      <trkpt lat="48.778052" lon="-1.177379">
        <ele>182.356</ele>
        <time>2026-08-24T15:03:35.999Z</time>
      </trkpt>
      <trkpt lat="48.778041" lon="-1.177384">
        <ele>182.372</ele>
        <time>2026-08-24T15:03:36.999Z</time>
      </trkpt>
      <trkpt lat="48.778030" lon="-1.177393">
        <ele>182.295</ele>
        <time>2026-08-24T15:03:37.999Z</time>
      </trkpt>
      <trkpt lat="48.778019" lon="-1.177396">
        <ele>182.242</ele>
        <time>2026-08-24T15:03:38.999Z</time>
      </trkpt>
      <trkpt lat="48.778007" lon="-1.177401">
        <ele>182.280</ele>
        <time>2026-08-24T15:03:39.999Z</time>
      </trkpt>
      <trkpt lat="48.777996" lon="-1.177406">
        <ele>182.158</ele>
        <time>2026-08-24T15:03:40.999Z</time>
      </trkpt>
      <trkpt lat="48.777983" lon="-1.177408">
        <ele>182.172</ele>
        <time>2026-08-24T15:03:41.999Z</time>
      </trkpt>
      <trkpt lat="48.777972" lon="-1.177407">
        <ele>182.169</ele>
        <time>2026-08-24T15:03:42.999Z</time>
      </trkpt>
      <trkpt lat="48.777960" lon="-1.177413">
        <ele>182.151</ele>
        <time>2026-08-24T15:03:43.999Z</time>
      </trkpt>
      <trkpt lat="48.777949" lon="-1.177413">
        <ele>182.135</ele>
        <time>2026-08-24T15:03:44.999Z</time>
      </trkpt>
      <trkpt lat="48.777938" lon="-1.177421">
        <ele>182.186</ele>
        <time>2026-08-24T15:03:45.999Z</time>
      </trkpt>
      <trkpt lat="48.777927" lon="-1.177428">
        <ele>182.114</ele>
        <time>2026-08-24T15:03:46.999Z</time>
      </trkpt>
      <trkpt lat="48.777915" lon="-1.177432">
        <ele>181.909</ele>
        <time>2026-08-24T15:03:47.999Z</time>
      </trkpt>
      <trkpt lat="48.777906" lon="-1.177436">
        <ele>181.825</ele>
        <time>2026-08-24T15:03:48.999Z</time>
      </trkpt>
      <trkpt lat="48.777896" lon="-1.177436">
        <ele>181.771</ele>
        <time>2026-08-24T15:03:49.999Z</time>
      </trkpt>
      <trkpt lat="48.777875" lon="-1.177439">
        <ele>181.764</ele>
        <time>2026-08-24T15:03:51.999Z</time>
      </trkpt>
      <trkpt lat="48.777862" lon="-1.177443">
        <ele>181.741</ele>
        <time>2026-08-24T15:03:52.999Z</time>
      </trkpt>
      <trkpt lat="48.777849" lon="-1.177449">
        <ele>181.749</ele>
        <time>2026-08-24T15:03:53.999Z</time>
      </trkpt>
      <trkpt lat="48.777837" lon="-1.177449">
        <ele>181.777</ele>
        <time>2026-08-24T15:03:54.999Z</time>
      </trkpt>
      <trkpt lat="48.777825" lon="-1.177451">
        <ele>181.641</ele>
        <time>2026-08-24T15:03:55.999Z</time>
      </trkpt>
      <trkpt lat="48.777804" lon="-1.177451">
        <ele>181.698</ele>
        <time>2026-08-24T15:03:57.999Z</time>
      </trkpt>
      <trkpt lat="48.777791" lon="-1.177453">
        <ele>181.670</ele>
        <time>2026-08-24T15:03:58.999Z</time>
      </trkpt>
      <trkpt lat="48.777780" lon="-1.177451">
        <ele>181.514</ele>
        <time>2026-08-24T15:03:59.999Z</time>
      </trkpt>
      <trkpt lat="48.777770" lon="-1.177454">
        <ele>181.554</ele>
        <time>2026-08-24T15:04:00.999Z</time>
      </trkpt>
      <trkpt lat="48.777757" lon="-1.177452">
        <ele>181.509</ele>
        <time>2026-08-24T15:04:01.999Z</time>
      </trkpt>
      <trkpt lat="48.777747" lon="-1.177454">
        <ele>181.509</ele>
        <time>2026-08-24T15:04:02.999Z</time>
      </trkpt>
      <trkpt lat="48.777737" lon="-1.177456">
        <ele>181.423</ele>
        <time>2026-08-24T15:04:03.999Z</time>
      </trkpt>
      <trkpt lat="48.777724" lon="-1.177461">
        <ele>181.419</ele>
        <time>2026-08-24T15:04:04.999Z</time>
      </trkpt>
      <trkpt lat="48.777714" lon="-1.177470">
        <ele>181.472</ele>
        <time>2026-08-24T15:04:05.999Z</time>
      </trkpt>
      <trkpt lat="48.777703" lon="-1.177471">
        <ele>181.459</ele>
        <time>2026-08-24T15:04:06.999Z</time>
      </trkpt>
      <trkpt lat="48.777692" lon="-1.177467">
        <ele>181.387</ele>
        <time>2026-08-24T15:04:07.999Z</time>
      </trkpt>
      <trkpt lat="48.777681" lon="-1.177462">
        <ele>181.375</ele>
        <time>2026-08-24T15:04:08.999Z</time>
      </trkpt>
      <trkpt lat="48.777670" lon="-1.177464">
        <ele>181.379</ele>
        <time>2026-08-24T15:04:09.999Z</time>
      </trkpt>
      <trkpt lat="48.777658" lon="-1.177466">
        <ele>181.286</ele>
        <time>2026-08-24T15:04:10.999Z</time>
      </trkpt>
      <trkpt lat="48.777641" lon="-1.177468">
        <ele>181.248</ele>
        <time>2026-08-24T15:04:12.999Z</time>
      </trkpt>
      <trkpt lat="48.777632" lon="-1.177463">
        <ele>181.265</ele>
        <time>2026-08-24T15:04:13.999Z</time>
      </trkpt>
      <trkpt lat="48.777622" lon="-1.177462">
        <ele>181.268</ele>
        <time>2026-08-24T15:04:14.999Z</time>
      </trkpt>
      <trkpt lat="48.777611" lon="-1.177464">
        <ele>181.214</ele>
        <time>2026-08-24T15:04:15.999Z</time>
      </trkpt>
      <trkpt lat="48.777599" lon="-1.177465">
        <ele>181.109</ele>
        <time>2026-08-24T15:04:16.999Z</time>
      </trkpt>
      <trkpt lat="48.777586" lon="-1.177467">
        <ele>181.188</ele>
        <time>2026-08-24T15:04:17.999Z</time>
      </trkpt>
      <trkpt lat="48.777575" lon="-1.177470">
        <ele>181.184</ele>
        <time>2026-08-24T15:04:18.999Z</time>
      </trkpt>
      <trkpt lat="48.777563" lon="-1.177467">
        <ele>181.187</ele>
        <time>2026-08-24T15:04:19.999Z</time>
      </trkpt>
      <trkpt lat="48.777550" lon="-1.177469">
        <ele>181.034</ele>
        <time>2026-08-24T15:04:20.999Z</time>
      </trkpt>
      <trkpt lat="48.777539" lon="-1.177475">
        <ele>180.812</ele>
        <time>2026-08-24T15:04:21.999Z</time>
      </trkpt>
      <trkpt lat="48.777530" lon="-1.177477">
        <ele>180.690</ele>
        <time>2026-08-24T15:04:22.999Z</time>
      </trkpt>
      <trkpt lat="48.777519" lon="-1.177480">
        <ele>180.494</ele>
        <time>2026-08-24T15:04:23.999Z</time>
      </trkpt>
      <trkpt lat="48.777509" lon="-1.177484">
        <ele>180.421</ele>
        <time>2026-08-24T15:04:24.999Z</time>
      </trkpt>
      <trkpt lat="48.777500" lon="-1.177483">
        <ele>180.383</ele>
        <time>2026-08-24T15:04:25.999Z</time>
      </trkpt>
      <trkpt lat="48.777488" lon="-1.177483">
        <ele>180.253</ele>
        <time>2026-08-24T15:04:26.999Z</time>
      </trkpt>
      <trkpt lat="48.777476" lon="-1.177486">
        <ele>180.204</ele>
        <time>2026-08-24T15:04:27.999Z</time>
      </trkpt>
      <trkpt lat="48.777466" lon="-1.177485">
        <ele>180.114</ele>
        <time>2026-08-24T15:04:28.999Z</time>
      </trkpt>
      <trkpt lat="48.777456" lon="-1.177481">
        <ele>180.109</ele>
        <time>2026-08-24T15:04:29.999Z</time>
      </trkpt>
      <trkpt lat="48.777442" lon="-1.177482">
        <ele>180.087</ele>
        <time>2026-08-24T15:04:30.999Z</time>
      </trkpt>
      <trkpt lat="48.777429" lon="-1.177483">
        <ele>180.043</ele>
        <time>2026-08-24T15:04:31.999Z</time>
      </trkpt>
      <trkpt lat="48.777417" lon="-1.177485">
        <ele>180.026</ele>
        <time>2026-08-24T15:04:32.999Z</time>
      </trkpt>
      <trkpt lat="48.777408" lon="-1.177484">
        <ele>180.073</ele>
        <time>2026-08-24T15:04:33.999Z</time>
      </trkpt>
      <trkpt lat="48.777397" lon="-1.177484">
        <ele>179.931</ele>
        <time>2026-08-24T15:04:34.999Z</time>
      </trkpt>
      <trkpt lat="48.777386" lon="-1.177483">
        <ele>179.939</ele>
        <time>2026-08-24T15:04:35.999Z</time>
      </trkpt>
      <trkpt lat="48.777375" lon="-1.177484">
        <ele>179.993</ele>
        <time>2026-08-24T15:04:36.999Z</time>
      </trkpt>
      <trkpt lat="48.777363" lon="-1.177488">
        <ele>179.910</ele>
        <time>2026-08-24T15:04:37.999Z</time>
      </trkpt>
      <trkpt lat="48.777352" lon="-1.177493">
        <ele>179.982</ele>
        <time>2026-08-24T15:04:38.999Z</time>
      </trkpt>
      <trkpt lat="48.777340" lon="-1.177492">
        <ele>179.941</ele>
        <time>2026-08-24T15:04:39.999Z</time>
      </trkpt>
      <trkpt lat="48.777328" lon="-1.177495">
        <ele>179.981</ele>
        <time>2026-08-24T15:04:40.999Z</time>
      </trkpt>
      <trkpt lat="48.777318" lon="-1.177493">
        <ele>179.909</ele>
        <time>2026-08-24T15:04:41.999Z</time>
      </trkpt>
      <trkpt lat="48.777307" lon="-1.177495">
        <ele>179.909</ele>
        <time>2026-08-24T15:04:42.999Z</time>
      </trkpt>
      <trkpt lat="48.777296" lon="-1.177497">
        <ele>179.926</ele>
        <time>2026-08-24T15:04:43.999Z</time>
      </trkpt>
      <trkpt lat="48.777286" lon="-1.177499">
        <ele>179.932</ele>
        <time>2026-08-24T15:04:44.999Z</time>
      </trkpt>
      <trkpt lat="48.777274" lon="-1.177497">
        <ele>179.935</ele>
        <time>2026-08-24T15:04:45.999Z</time>
      </trkpt>
      <trkpt lat="48.777262" lon="-1.177497">
        <ele>179.942</ele>
        <time>2026-08-24T15:04:46.999Z</time>
      </trkpt>
      <trkpt lat="48.777251" lon="-1.177494">
        <ele>180.020</ele>
        <time>2026-08-24T15:04:47.999Z</time>
      </trkpt>
      <trkpt lat="48.777241" lon="-1.177496">
        <ele>180.038</ele>
        <time>2026-08-24T15:04:48.999Z</time>
      </trkpt>
      <trkpt lat="48.777229" lon="-1.177498">
        <ele>180.032</ele>
        <time>2026-08-24T15:04:49.999Z</time>
      </trkpt>
      <trkpt lat="48.777217" lon="-1.177499">
        <ele>180.019</ele>
        <time>2026-08-24T15:04:50.999Z</time>
      </trkpt>
      <trkpt lat="48.777205" lon="-1.177501">
        <ele>180.141</ele>
        <time>2026-08-24T15:04:51.999Z</time>
      </trkpt>
      <trkpt lat="48.777191" lon="-1.177509">
        <ele>180.247</ele>
        <time>2026-08-24T15:04:52.999Z</time>
      </trkpt>
      <trkpt lat="48.777181" lon="-1.177510">
        <ele>180.229</ele>
        <time>2026-08-24T15:04:53.999Z</time>
      </trkpt>
      <trkpt lat="48.777171" lon="-1.177509">
        <ele>180.221</ele>
        <time>2026-08-24T15:04:54.999Z</time>
      </trkpt>
      <trkpt lat="48.777154" lon="-1.177510">
        <ele>180.309</ele>
        <time>2026-08-24T15:04:56.999Z</time>
      </trkpt>
      <trkpt lat="48.777142" lon="-1.177509">
        <ele>180.386</ele>
        <time>2026-08-24T15:04:57.999Z</time>
      </trkpt>
      <trkpt lat="48.777131" lon="-1.177513">
        <ele>180.312</ele>
        <time>2026-08-24T15:04:58.999Z</time>
      </trkpt>
      <trkpt lat="48.777121" lon="-1.177519">
        <ele>180.385</ele>
        <time>2026-08-24T15:04:59.999Z</time>
      </trkpt>
      <trkpt lat="48.777111" lon="-1.177523">
        <ele>180.392</ele>
        <time>2026-08-24T15:05:00.999Z</time>
      </trkpt>
      <trkpt lat="48.777099" lon="-1.177528">
        <ele>180.370</ele>
        <time>2026-08-24T15:05:01.999Z</time>
      </trkpt>
      <trkpt lat="48.777089" lon="-1.177528">
        <ele>180.368</ele>
        <time>2026-08-24T15:05:02.999Z</time>
      </trkpt>
      <trkpt lat="48.777079" lon="-1.177524">
        <ele>180.362</ele>
        <time>2026-08-24T15:05:03.999Z</time>
      </trkpt>
      <trkpt lat="48.777066" lon="-1.177532">
        <ele>180.339</ele>
        <time>2026-08-24T15:05:04.999Z</time>
      </trkpt>
      <trkpt lat="48.777054" lon="-1.177535">
        <ele>180.361</ele>
        <time>2026-08-24T15:05:05.999Z</time>
      </trkpt>
      <trkpt lat="48.777041" lon="-1.177539">
        <ele>180.311</ele>
        <time>2026-08-24T15:05:06.999Z</time>
      </trkpt>
      <trkpt lat="48.777030" lon="-1.177543">
        <ele>180.321</ele>
        <time>2026-08-24T15:05:07.999Z</time>
      </trkpt>
      <trkpt lat="48.777019" lon="-1.177547">
        <ele>180.303</ele>
        <time>2026-08-24T15:05:08.999Z</time>
      </trkpt>
      <trkpt lat="48.777009" lon="-1.177551">
        <ele>180.309</ele>
        <time>2026-08-24T15:05:09.999Z</time>
      </trkpt>
      <trkpt lat="48.776998" lon="-1.177554">
        <ele>180.243</ele>
        <time>2026-08-24T15:05:10.999Z</time>
      </trkpt>
      <trkpt lat="48.776989" lon="-1.177558">
        <ele>180.249</ele>
        <time>2026-08-24T15:05:11.999Z</time>
      </trkpt>
      <trkpt lat="48.776979" lon="-1.177561">
        <ele>180.022</ele>
        <time>2026-08-24T15:05:12.999Z</time>
      </trkpt>
      <trkpt lat="48.776967" lon="-1.177565">
        <ele>179.929</ele>
        <time>2026-08-24T15:05:13.999Z</time>
      </trkpt>
      <trkpt lat="48.776954" lon="-1.177568">
        <ele>179.957</ele>
        <time>2026-08-24T15:05:14.999Z</time>
      </trkpt>
      <trkpt lat="48.776945" lon="-1.177569">
        <ele>179.845</ele>
        <time>2026-08-24T15:05:15.999Z</time>
      </trkpt>
      <trkpt lat="48.776936" lon="-1.177570">
        <ele>179.769</ele>
        <time>2026-08-24T15:05:16.999Z</time>
      </trkpt>
      <trkpt lat="48.776918" lon="-1.177575">
        <ele>179.626</ele>
        <time>2026-08-24T15:05:18.999Z</time>
      </trkpt>
      <trkpt lat="48.776906" lon="-1.177580">
        <ele>179.418</ele>
        <time>2026-08-24T15:05:19.999Z</time>
      </trkpt>
      <trkpt lat="48.776894" lon="-1.177588">
        <ele>179.066</ele>
        <time>2026-08-24T15:05:20.999Z</time>
      </trkpt>
      <trkpt lat="48.776883" lon="-1.177593">
        <ele>178.729</ele>
        <time>2026-08-24T15:05:21.999Z</time>
      </trkpt>
      <trkpt lat="48.776873" lon="-1.177599">
        <ele>178.521</ele>
        <time>2026-08-24T15:05:22.999Z</time>
      </trkpt>
      <trkpt lat="48.776862" lon="-1.177603">
        <ele>178.309</ele>
        <time>2026-08-24T15:05:23.999Z</time>
      </trkpt>
      <trkpt lat="48.776852" lon="-1.177606">
        <ele>178.288</ele>
        <time>2026-08-24T15:05:24.999Z</time>
      </trkpt>
      <trkpt lat="48.776842" lon="-1.177612">
        <ele>178.064</ele>
        <time>2026-08-24T15:05:25.999Z</time>
      </trkpt>
      <trkpt lat="48.776832" lon="-1.177620">
        <ele>177.917</ele>
        <time>2026-08-24T15:05:26.999Z</time>
      </trkpt>
      <trkpt lat="48.776819" lon="-1.177625">
        <ele>177.814</ele>
        <time>2026-08-24T15:05:27.999Z</time>
      </trkpt>
      <trkpt lat="48.776808" lon="-1.177630">
        <ele>177.862</ele>
        <time>2026-08-24T15:05:28.999Z</time>
      </trkpt>
      <trkpt lat="48.776796" lon="-1.177632">
        <ele>177.770</ele>
        <time>2026-08-24T15:05:29.999Z</time>
      </trkpt>
      <trkpt lat="48.776786" lon="-1.177634">
        <ele>177.794</ele>
        <time>2026-08-24T15:05:30.999Z</time>
      </trkpt>
      <trkpt lat="48.776777" lon="-1.177639">
        <ele>177.541</ele>
        <time>2026-08-24T15:05:31.999Z</time>
      </trkpt>
      <trkpt lat="48.776766" lon="-1.177647">
        <ele>177.523</ele>
        <time>2026-08-24T15:05:32.999Z</time>
      </trkpt>
      <trkpt lat="48.776755" lon="-1.177656">
        <ele>177.542</ele>
        <time>2026-08-24T15:05:33.999Z</time>
      </trkpt>
      <trkpt lat="48.776742" lon="-1.177664">
        <ele>177.422</ele>
        <time>2026-08-24T15:05:34.999Z</time>
      </trkpt>
      <trkpt lat="48.776728" lon="-1.177668">
        <ele>177.414</ele>
        <time>2026-08-24T15:05:35.999Z</time>
      </trkpt>
      <trkpt lat="48.776718" lon="-1.177670">
        <ele>177.309</ele>
        <time>2026-08-24T15:05:36.999Z</time>
      </trkpt>
      <trkpt lat="48.776707" lon="-1.177672">
        <ele>177.376</ele>
        <time>2026-08-24T15:05:37.999Z</time>
      </trkpt>
      <trkpt lat="48.776695" lon="-1.177677">
        <ele>177.342</ele>
        <time>2026-08-24T15:05:38.999Z</time>
      </trkpt>
      <trkpt lat="48.776686" lon="-1.177679">
        <ele>177.235</ele>
        <time>2026-08-24T15:05:39.999Z</time>
      </trkpt>
      <trkpt lat="48.776676" lon="-1.177681">
        <ele>177.132</ele>
        <time>2026-08-24T15:05:40.999Z</time>
      </trkpt>
      <trkpt lat="48.776665" lon="-1.177683">
        <ele>177.160</ele>
        <time>2026-08-24T15:05:41.999Z</time>
      </trkpt>
      <trkpt lat="48.776653" lon="-1.177687">
        <ele>177.058</ele>
        <time>2026-08-24T15:05:42.999Z</time>
      </trkpt>
      <trkpt lat="48.776642" lon="-1.177690">
        <ele>177.022</ele>
        <time>2026-08-24T15:05:43.999Z</time>
      </trkpt>
      <trkpt lat="48.776632" lon="-1.177691">
        <ele>176.899</ele>
        <time>2026-08-24T15:05:44.999Z</time>
      </trkpt>
      <trkpt lat="48.776623" lon="-1.177694">
        <ele>176.831</ele>
        <time>2026-08-24T15:05:45.999Z</time>
      </trkpt>
      <trkpt lat="48.776614" lon="-1.177699">
        <ele>176.729</ele>
        <time>2026-08-24T15:05:46.999Z</time>
      </trkpt>
      <trkpt lat="48.776603" lon="-1.177703">
        <ele>176.400</ele>
        <time>2026-08-24T15:05:47.999Z</time>
      </trkpt>
      <trkpt lat="48.776593" lon="-1.177705">
        <ele>176.020</ele>
        <time>2026-08-24T15:05:48.999Z</time>
      </trkpt>
      <trkpt lat="48.776584" lon="-1.177708">
        <ele>175.809</ele>
        <time>2026-08-24T15:05:49.999Z</time>
      </trkpt>
      <trkpt lat="48.776572" lon="-1.177712">
        <ele>175.734</ele>
        <time>2026-08-24T15:05:50.999Z</time>
      </trkpt>
      <trkpt lat="48.776560" lon="-1.177716">
        <ele>175.620</ele>
        <time>2026-08-24T15:05:51.999Z</time>
      </trkpt>
      <trkpt lat="48.776549" lon="-1.177720">
        <ele>175.593</ele>
        <time>2026-08-24T15:05:52.999Z</time>
      </trkpt>
      <trkpt lat="48.776537" lon="-1.177724">
        <ele>175.470</ele>
        <time>2026-08-24T15:05:53.999Z</time>
      </trkpt>
      <trkpt lat="48.776525" lon="-1.177733">
        <ele>175.358</ele>
        <time>2026-08-24T15:05:54.999Z</time>
      </trkpt>
      <trkpt lat="48.776514" lon="-1.177739">
        <ele>175.246</ele>
        <time>2026-08-24T15:05:55.999Z</time>
      </trkpt>
      <trkpt lat="48.776502" lon="-1.177742">
        <ele>175.050</ele>
        <time>2026-08-24T15:05:56.999Z</time>
      </trkpt>
      <trkpt lat="48.776490" lon="-1.177741">
        <ele>174.947</ele>
        <time>2026-08-24T15:05:57.999Z</time>
      </trkpt>
      <trkpt lat="48.776480" lon="-1.177746">
        <ele>174.749</ele>
        <time>2026-08-24T15:05:58.999Z</time>
      </trkpt>
      <trkpt lat="48.776470" lon="-1.177750">
        <ele>174.728</ele>
        <time>2026-08-24T15:05:59.999Z</time>
      </trkpt>
      <trkpt lat="48.776451" lon="-1.177751">
        <ele>174.689</ele>
        <time>2026-08-24T15:06:01.999Z</time>
      </trkpt>
      <trkpt lat="48.776438" lon="-1.177755">
        <ele>174.617</ele>
        <time>2026-08-24T15:06:02.999Z</time>
      </trkpt>
      <trkpt lat="48.776430" lon="-1.177759">
        <ele>174.609</ele>
        <time>2026-08-24T15:06:03.999Z</time>
      </trkpt>
      <trkpt lat="48.776412" lon="-1.177767">
        <ele>174.624</ele>
        <time>2026-08-24T15:06:05.999Z</time>
      </trkpt>
      <trkpt lat="48.776401" lon="-1.177771">
        <ele>174.510</ele>
        <time>2026-08-24T15:06:06.999Z</time>
      </trkpt>
      <trkpt lat="48.776389" lon="-1.177775">
        <ele>174.473</ele>
        <time>2026-08-24T15:06:07.999Z</time>
      </trkpt>
      <trkpt lat="48.776376" lon="-1.177778">
        <ele>174.440</ele>
        <time>2026-08-24T15:06:08.999Z</time>
      </trkpt>
      <trkpt lat="48.776365" lon="-1.177780">
        <ele>174.388</ele>
        <time>2026-08-24T15:06:09.999Z</time>
      </trkpt>
      <trkpt lat="48.776354" lon="-1.177785">
        <ele>174.236</ele>
        <time>2026-08-24T15:06:10.999Z</time>
      </trkpt>
      <trkpt lat="48.776344" lon="-1.177787">
        <ele>174.270</ele>
        <time>2026-08-24T15:06:11.999Z</time>
      </trkpt>
      <trkpt lat="48.776328" lon="-1.177794">
        <ele>174.227</ele>
        <time>2026-08-24T15:06:13.999Z</time>
      </trkpt>
      <trkpt lat="48.776317" lon="-1.177798">
        <ele>174.219</ele>
        <time>2026-08-24T15:06:14.999Z</time>
      </trkpt>
      <trkpt lat="48.776305" lon="-1.177803">
        <ele>174.121</ele>
        <time>2026-08-24T15:06:15.999Z</time>
      </trkpt>
      <trkpt lat="48.776296" lon="-1.177806">
        <ele>174.141</ele>
        <time>2026-08-24T15:06:16.999Z</time>
      </trkpt>
      <trkpt lat="48.776287" lon="-1.177807">
        <ele>174.105</ele>
        <time>2026-08-24T15:06:17.999Z</time>
      </trkpt>
      <trkpt lat="48.776270" lon="-1.177809">
        <ele>174.009</ele>
        <time>2026-08-24T15:06:19.999Z</time>
      </trkpt>
      <trkpt lat="48.776252" lon="-1.177812">
        <ele>173.964</ele>
        <time>2026-08-24T15:06:21.999Z</time>
      </trkpt>
      <trkpt lat="48.776242" lon="-1.177812">
        <ele>173.750</ele>
        <time>2026-08-24T15:06:22.999Z</time>
      </trkpt>
      <trkpt lat="48.776230" lon="-1.177815">
        <ele>173.513</ele>
        <time>2026-08-24T15:06:23.999Z</time>
      </trkpt>
      <trkpt lat="48.776219" lon="-1.177819">
        <ele>173.530</ele>
        <time>2026-08-24T15:06:24.999Z</time>
      </trkpt>
      <trkpt lat="48.776209" lon="-1.177826">
        <ele>173.438</ele>
        <time>2026-08-24T15:06:25.999Z</time>
      </trkpt>
      <trkpt lat="48.776198" lon="-1.177831">
        <ele>173.486</ele>
        <time>2026-08-24T15:06:26.999Z</time>
      </trkpt>
      <trkpt lat="48.776187" lon="-1.177832">
        <ele>173.340</ele>
        <time>2026-08-24T15:06:27.999Z</time>
      </trkpt>
      <trkpt lat="48.776175" lon="-1.177830">
        <ele>173.367</ele>
        <time>2026-08-24T15:06:28.999Z</time>
      </trkpt>
      <trkpt lat="48.776161" lon="-1.177833">
        <ele>173.389</ele>
        <time>2026-08-24T15:06:29.999Z</time>
      </trkpt>
      <trkpt lat="48.776149" lon="-1.177838">
        <ele>173.299</ele>
        <time>2026-08-24T15:06:30.999Z</time>
      </trkpt>
      <trkpt lat="48.776139" lon="-1.177841">
        <ele>173.207</ele>
        <time>2026-08-24T15:06:31.999Z</time>
      </trkpt>
      <trkpt lat="48.776128" lon="-1.177842">
        <ele>173.227</ele>
        <time>2026-08-24T15:06:32.999Z</time>
      </trkpt>
      <trkpt lat="48.776117" lon="-1.177843">
        <ele>173.209</ele>
        <time>2026-08-24T15:06:33.999Z</time>
      </trkpt>
      <trkpt lat="48.776107" lon="-1.177843">
        <ele>173.071</ele>
        <time>2026-08-24T15:06:34.999Z</time>
      </trkpt>
      <trkpt lat="48.776096" lon="-1.177844">
        <ele>172.857</ele>
        <time>2026-08-24T15:06:35.999Z</time>
      </trkpt>
      <trkpt lat="48.776084" lon="-1.177846">
        <ele>172.780</ele>
        <time>2026-08-24T15:06:36.999Z</time>
      </trkpt>
      <trkpt lat="48.776072" lon="-1.177846">
        <ele>172.637</ele>
        <time>2026-08-24T15:06:37.999Z</time>
      </trkpt>
      <trkpt lat="48.776061" lon="-1.177844">
        <ele>172.545</ele>
        <time>2026-08-24T15:06:38.999Z</time>
      </trkpt>
      <trkpt lat="48.776051" lon="-1.177842">
        <ele>172.413</ele>
        <time>2026-08-24T15:06:39.999Z</time>
      </trkpt>
      <trkpt lat="48.776041" lon="-1.177842">
        <ele>172.337</ele>
        <time>2026-08-24T15:06:40.999Z</time>
      </trkpt>
      <trkpt lat="48.776030" lon="-1.177842">
        <ele>172.274</ele>
        <time>2026-08-24T15:06:41.999Z</time>
      </trkpt>
      <trkpt lat="48.776020" lon="-1.177845">
        <ele>172.136</ele>
        <time>2026-08-24T15:06:42.999Z</time>
      </trkpt>
      <trkpt lat="48.776009" lon="-1.177845">
        <ele>172.011</ele>
        <time>2026-08-24T15:06:43.999Z</time>
      </trkpt>
      <trkpt lat="48.775998" lon="-1.177846">
        <ele>171.921</ele>
        <time>2026-08-24T15:06:44.999Z</time>
      </trkpt>
      <trkpt lat="48.775986" lon="-1.177845">
        <ele>171.803</ele>
        <time>2026-08-24T15:06:45.999Z</time>
      </trkpt>
      <trkpt lat="48.775974" lon="-1.177847">
        <ele>171.609</ele>
        <time>2026-08-24T15:06:46.999Z</time>
      </trkpt>
      <trkpt lat="48.775964" lon="-1.177851">
        <ele>171.673</ele>
        <time>2026-08-24T15:06:47.999Z</time>
      </trkpt>
      <trkpt lat="48.775954" lon="-1.177856">
        <ele>171.689</ele>
        <time>2026-08-24T15:06:48.999Z</time>
      </trkpt>
      <trkpt lat="48.775942" lon="-1.177855">
        <ele>171.582</ele>
        <time>2026-08-24T15:06:49.999Z</time>
      </trkpt>
      <trkpt lat="48.775929" lon="-1.177853">
        <ele>171.539</ele>
        <time>2026-08-24T15:06:50.999Z</time>
      </trkpt>
      <trkpt lat="48.775919" lon="-1.177851">
        <ele>171.547</ele>
        <time>2026-08-24T15:06:51.999Z</time>
      </trkpt>
      <trkpt lat="48.775903" lon="-1.177845">
        <ele>171.465</ele>
        <time>2026-08-24T15:06:53.999Z</time>
      </trkpt>
      <trkpt lat="48.775893" lon="-1.177841">
        <ele>171.499</ele>
        <time>2026-08-24T15:06:54.999Z</time>
      </trkpt>
      <trkpt lat="48.775875" lon="-1.177840">
        <ele>171.316</ele>
        <time>2026-08-24T15:06:56.999Z</time>
      </trkpt>
      <trkpt lat="48.775865" lon="-1.177843">
        <ele>171.238</ele>
        <time>2026-08-24T15:06:57.999Z</time>
      </trkpt>
      <trkpt lat="48.775855" lon="-1.177843">
        <ele>171.189</ele>
        <time>2026-08-24T15:06:58.999Z</time>
      </trkpt>
      <trkpt lat="48.775844" lon="-1.177840">
        <ele>171.006</ele>
        <time>2026-08-24T15:06:59.999Z</time>
      </trkpt>
      <trkpt lat="48.775833" lon="-1.177840">
        <ele>170.926</ele>
        <time>2026-08-24T15:07:00.999Z</time>
      </trkpt>
      <trkpt lat="48.775821" lon="-1.177838">
        <ele>170.709</ele>
        <time>2026-08-24T15:07:01.999Z</time>
      </trkpt>
      <trkpt lat="48.775809" lon="-1.177840">
        <ele>170.610</ele>
        <time>2026-08-24T15:07:02.999Z</time>
      </trkpt>
      <trkpt lat="48.775798" lon="-1.177843">
        <ele>170.696</ele>
        <time>2026-08-24T15:07:03.999Z</time>
      </trkpt>
      <trkpt lat="48.775787" lon="-1.177846">
        <ele>170.669</ele>
        <time>2026-08-24T15:07:04.999Z</time>
      </trkpt>
      <trkpt lat="48.775776" lon="-1.177846">
        <ele>170.596</ele>
        <time>2026-08-24T15:07:05.999Z</time>
      </trkpt>
      <trkpt lat="48.775766" lon="-1.177846">
        <ele>170.524</ele>
        <time>2026-08-24T15:07:06.999Z</time>
      </trkpt>
      <trkpt lat="48.775756" lon="-1.177842">
        <ele>170.552</ele>
        <time>2026-08-24T15:07:07.999Z</time>
      </trkpt>
      <trkpt lat="48.775740" lon="-1.177838">
        <ele>170.336</ele>
        <time>2026-08-24T15:07:09.999Z</time>
      </trkpt>
      <trkpt lat="48.775730" lon="-1.177839">
        <ele>170.133</ele>
        <time>2026-08-24T15:07:10.999Z</time>
      </trkpt>
      <trkpt lat="48.775717" lon="-1.177840">
        <ele>170.045</ele>
        <time>2026-08-24T15:07:11.999Z</time>
      </trkpt>
      <trkpt lat="48.775708" lon="-1.177835">
        <ele>170.085</ele>
        <time>2026-08-24T15:07:12.999Z</time>
      </trkpt>
      <trkpt lat="48.775691" lon="-1.177831">
        <ele>169.989</ele>
        <time>2026-08-24T15:07:14.999Z</time>
      </trkpt>
      <trkpt lat="48.775681" lon="-1.177833">
        <ele>169.817</ele>
        <time>2026-08-24T15:07:15.999Z</time>
      </trkpt>
      <trkpt lat="48.775672" lon="-1.177836">
        <ele>169.709</ele>
        <time>2026-08-24T15:07:16.999Z</time>
      </trkpt>
      <trkpt lat="48.775662" lon="-1.177839">
        <ele>169.510</ele>
        <time>2026-08-24T15:07:17.999Z</time>
      </trkpt>
      <trkpt lat="48.775650" lon="-1.177839">
        <ele>169.216</ele>
        <time>2026-08-24T15:07:18.999Z</time>
      </trkpt>
      <trkpt lat="48.775639" lon="-1.177836">
        <ele>169.039</ele>
        <time>2026-08-24T15:07:19.999Z</time>
      </trkpt>
      <trkpt lat="48.775628" lon="-1.177836">
        <ele>168.916</ele>
        <time>2026-08-24T15:07:20.999Z</time>
      </trkpt>
      <trkpt lat="48.775617" lon="-1.177832">
        <ele>168.714</ele>
        <time>2026-08-24T15:07:21.999Z</time>
      </trkpt>
      <trkpt lat="48.775607" lon="-1.177833">
        <ele>168.552</ele>
        <time>2026-08-24T15:07:22.999Z</time>
      </trkpt>
      <trkpt lat="48.775598" lon="-1.177834">
        <ele>168.476</ele>
        <time>2026-08-24T15:07:23.999Z</time>
      </trkpt>
      <trkpt lat="48.775588" lon="-1.177834">
        <ele>168.243</ele>
        <time>2026-08-24T15:07:24.999Z</time>
      </trkpt>
      <trkpt lat="48.775577" lon="-1.177831">
        <ele>167.995</ele>
        <time>2026-08-24T15:07:25.999Z</time>
      </trkpt>
      <trkpt lat="48.775559" lon="-1.177830">
        <ele>167.848</ele>
        <time>2026-08-24T15:07:27.999Z</time>
      </trkpt>
      <trkpt lat="48.775548" lon="-1.177831">
        <ele>167.861</ele>
        <time>2026-08-24T15:07:28.999Z</time>
      </trkpt>
      <trkpt lat="48.775539" lon="-1.177833">
        <ele>167.717</ele>
        <time>2026-08-24T15:07:29.999Z</time>
      </trkpt>
      <trkpt lat="48.775529" lon="-1.177831">
        <ele>167.409</ele>
        <time>2026-08-24T15:07:30.999Z</time>
      </trkpt>
      <trkpt lat="48.775520" lon="-1.177835">
        <ele>167.226</ele>
        <time>2026-08-24T15:07:31.999Z</time>
      </trkpt>
      <trkpt lat="48.775507" lon="-1.177835">
        <ele>167.182</ele>
        <time>2026-08-24T15:07:32.999Z</time>
      </trkpt>
      <trkpt lat="48.775495" lon="-1.177833">
        <ele>167.065</ele>
        <time>2026-08-24T15:07:33.999Z</time>
      </trkpt>
      <trkpt lat="48.775484" lon="-1.177834">
        <ele>166.842</ele>
        <time>2026-08-24T15:07:34.999Z</time>
      </trkpt>
      <trkpt lat="48.775475" lon="-1.177833">
        <ele>166.740</ele>
        <time>2026-08-24T15:07:35.999Z</time>
      </trkpt>
      <trkpt lat="48.775466" lon="-1.177828">
        <ele>166.628</ele>
        <time>2026-08-24T15:07:36.999Z</time>
      </trkpt>
      <trkpt lat="48.775446" lon="-1.177827">
        <ele>166.672</ele>
        <time>2026-08-24T15:07:38.999Z</time>
      </trkpt>
      <trkpt lat="48.775431" lon="-1.177825">
        <ele>166.529</ele>
        <time>2026-08-24T15:07:40.999Z</time>
      </trkpt>
      <trkpt lat="48.775413" lon="-1.177821">
        <ele>166.591</ele>
        <time>2026-08-24T15:07:42.999Z</time>
      </trkpt>
      <trkpt lat="48.775402" lon="-1.177821">
        <ele>166.525</ele>
        <time>2026-08-24T15:07:43.999Z</time>
      </trkpt>
      <trkpt lat="48.775390" lon="-1.177820">
        <ele>166.526</ele>
        <time>2026-08-24T15:07:44.999Z</time>
      </trkpt>
      <trkpt lat="48.775378" lon="-1.177820">
        <ele>166.408</ele>
        <time>2026-08-24T15:07:45.999Z</time>
      </trkpt>
      <trkpt lat="48.775358" lon="-1.177818">
        <ele>166.409</ele>
        <time>2026-08-24T15:07:47.999Z</time>
      </trkpt>
      <trkpt lat="48.775347" lon="-1.177823">
        <ele>166.464</ele>
        <time>2026-08-24T15:07:48.999Z</time>
      </trkpt>
      <trkpt lat="48.775334" lon="-1.177829">
        <ele>166.370</ele>
        <time>2026-08-24T15:07:49.999Z</time>
      </trkpt>
      <trkpt lat="48.775324" lon="-1.177829">
        <ele>166.333</ele>
        <time>2026-08-24T15:07:50.999Z</time>
      </trkpt>
      <trkpt lat="48.775315" lon="-1.177831">
        <ele>166.240</ele>
        <time>2026-08-24T15:07:51.999Z</time>
      </trkpt>
      <trkpt lat="48.775304" lon="-1.177831">
        <ele>166.188</ele>
        <time>2026-08-24T15:07:52.999Z</time>
      </trkpt>
      <trkpt lat="48.775293" lon="-1.177829">
        <ele>166.016</ele>
        <time>2026-08-24T15:07:53.999Z</time>
      </trkpt>
      <trkpt lat="48.775284" lon="-1.177827">
        <ele>165.910</ele>
        <time>2026-08-24T15:07:54.999Z</time>
      </trkpt>
      <trkpt lat="48.775274" lon="-1.177828">
        <ele>165.837</ele>
        <time>2026-08-24T15:07:55.999Z</time>
      </trkpt>
      <trkpt lat="48.775266" lon="-1.177832">
        <ele>165.639</ele>
        <time>2026-08-24T15:07:56.999Z</time>
      </trkpt>
      <trkpt lat="48.775256" lon="-1.177831">
        <ele>165.289</ele>
        <time>2026-08-24T15:07:57.999Z</time>
      </trkpt>
      <trkpt lat="48.775246" lon="-1.177830">
        <ele>164.806</ele>
        <time>2026-08-24T15:07:58.999Z</time>
      </trkpt>
      <trkpt lat="48.775234" lon="-1.177828">
        <ele>164.626</ele>
        <time>2026-08-24T15:07:59.999Z</time>
      </trkpt>
      <trkpt lat="48.775222" lon="-1.177824">
        <ele>164.409</ele>
        <time>2026-08-24T15:08:00.999Z</time>
      </trkpt>
      <trkpt lat="48.775212" lon="-1.177821">
        <ele>164.280</ele>
        <time>2026-08-24T15:08:01.999Z</time>
      </trkpt>
      <trkpt lat="48.775201" lon="-1.177820">
        <ele>164.076</ele>
        <time>2026-08-24T15:08:02.999Z</time>
      </trkpt>
      <trkpt lat="48.775190" lon="-1.177817">
        <ele>163.869</ele>
        <time>2026-08-24T15:08:03.999Z</time>
      </trkpt>
      <trkpt lat="48.775180" lon="-1.177816">
        <ele>163.576</ele>
        <time>2026-08-24T15:08:04.999Z</time>
      </trkpt>
      <trkpt lat="48.775168" lon="-1.177814">
        <ele>163.354</ele>
        <time>2026-08-24T15:08:05.999Z</time>
      </trkpt>
      <trkpt lat="48.775155" lon="-1.177815">
        <ele>163.292</ele>
        <time>2026-08-24T15:08:06.999Z</time>
      </trkpt>
      <trkpt lat="48.775144" lon="-1.177813">
        <ele>163.196</ele>
        <time>2026-08-24T15:08:07.999Z</time>
      </trkpt>
      <trkpt lat="48.775133" lon="-1.177814">
        <ele>163.173</ele>
        <time>2026-08-24T15:08:08.999Z</time>
      </trkpt>
      <trkpt lat="48.775122" lon="-1.177812">
        <ele>163.115</ele>
        <time>2026-08-24T15:08:09.999Z</time>
      </trkpt>
      <trkpt lat="48.775111" lon="-1.177811">
        <ele>163.164</ele>
        <time>2026-08-24T15:08:10.999Z</time>
      </trkpt>
      <trkpt lat="48.775101" lon="-1.177816">
        <ele>163.106</ele>
        <time>2026-08-24T15:08:11.999Z</time>
      </trkpt>
      <trkpt lat="48.775090" lon="-1.177818">
        <ele>163.016</ele>
        <time>2026-08-24T15:08:12.999Z</time>
      </trkpt>
      <trkpt lat="48.775081" lon="-1.177821">
        <ele>163.009</ele>
        <time>2026-08-24T15:08:13.999Z</time>
      </trkpt>
      <trkpt lat="48.775072" lon="-1.177821">
        <ele>163.088</ele>
        <time>2026-08-24T15:08:14.999Z</time>
      </trkpt>
      <trkpt lat="48.775061" lon="-1.177822">
        <ele>163.024</ele>
        <time>2026-08-24T15:08:15.999Z</time>
      </trkpt>
      <trkpt lat="48.775051" lon="-1.177821">
        <ele>163.067</ele>
        <time>2026-08-24T15:08:16.999Z</time>
      </trkpt>
      <trkpt lat="48.775042" lon="-1.177820">
        <ele>163.074</ele>
        <time>2026-08-24T15:08:17.999Z</time>
      </trkpt>
      <trkpt lat="48.775031" lon="-1.177821">
        <ele>162.962</ele>
        <time>2026-08-24T15:08:18.999Z</time>
      </trkpt>
      <trkpt lat="48.775011" lon="-1.177830">
        <ele>162.960</ele>
        <time>2026-08-24T15:08:20.999Z</time>
      </trkpt>
      <trkpt lat="48.774994" lon="-1.177836">
        <ele>162.924</ele>
        <time>2026-08-24T15:08:22.999Z</time>
      </trkpt>
      <trkpt lat="48.774984" lon="-1.177839">
        <ele>162.911</ele>
        <time>2026-08-24T15:08:23.999Z</time>
      </trkpt>
      <trkpt lat="48.774973" lon="-1.177845">
        <ele>162.923</ele>
        <time>2026-08-24T15:08:24.999Z</time>
      </trkpt>
      <trkpt lat="48.774964" lon="-1.177847">
        <ele>162.976</ele>
        <time>2026-08-24T15:08:25.999Z</time>
      </trkpt>
      <trkpt lat="48.774955" lon="-1.177852">
        <ele>162.990</ele>
        <time>2026-08-24T15:08:26.999Z</time>
      </trkpt>
      <trkpt lat="48.774945" lon="-1.177854">
        <ele>162.819</ele>
        <time>2026-08-24T15:08:27.999Z</time>
      </trkpt>
      <trkpt lat="48.774927" lon="-1.177858">
        <ele>162.809</ele>
        <time>2026-08-24T15:08:29.999Z</time>
      </trkpt>
      <trkpt lat="48.774916" lon="-1.177863">
        <ele>162.749</ele>
        <time>2026-08-24T15:08:30.999Z</time>
      </trkpt>
      <trkpt lat="48.774906" lon="-1.177868">
        <ele>162.535</ele>
        <time>2026-08-24T15:08:31.999Z</time>
      </trkpt>
      <trkpt lat="48.774893" lon="-1.177871">
        <ele>162.338</ele>
        <time>2026-08-24T15:08:32.999Z</time>
      </trkpt>
      <trkpt lat="48.774881" lon="-1.177875">
        <ele>162.295</ele>
        <time>2026-08-24T15:08:33.999Z</time>
      </trkpt>
      <trkpt lat="48.774871" lon="-1.177879">
        <ele>162.193</ele>
        <time>2026-08-24T15:08:34.999Z</time>
      </trkpt>
      <trkpt lat="48.774854" lon="-1.177882">
        <ele>162.131</ele>
        <time>2026-08-24T15:08:36.999Z</time>
      </trkpt>
      <trkpt lat="48.774838" lon="-1.177896">
        <ele>161.935</ele>
        <time>2026-08-24T15:08:38.999Z</time>
      </trkpt>
      <trkpt lat="48.774825" lon="-1.177908">
        <ele>161.782</ele>
        <time>2026-08-24T15:08:39.999Z</time>
      </trkpt>
      <trkpt lat="48.774815" lon="-1.177916">
        <ele>161.554</ele>
        <time>2026-08-24T15:08:40.999Z</time>
      </trkpt>
      <trkpt lat="48.774806" lon="-1.177919">
        <ele>161.481</ele>
        <time>2026-08-24T15:08:41.999Z</time>
      </trkpt>
      <trkpt lat="48.774797" lon="-1.177924">
        <ele>161.361</ele>
        <time>2026-08-24T15:08:42.999Z</time>
      </trkpt>
      <trkpt lat="48.774787" lon="-1.177930">
        <ele>161.217</ele>
        <time>2026-08-24T15:08:43.999Z</time>
      </trkpt>
      <trkpt lat="48.774778" lon="-1.177939">
        <ele>161.209</ele>
        <time>2026-08-24T15:08:44.999Z</time>
      </trkpt>
      <trkpt lat="48.774769" lon="-1.177944">
        <ele>161.160</ele>
        <time>2026-08-24T15:08:45.999Z</time>
      </trkpt>
      <trkpt lat="48.774759" lon="-1.177948">
        <ele>160.996</ele>
        <time>2026-08-24T15:08:46.999Z</time>
      </trkpt>
      <trkpt lat="48.774748" lon="-1.177956">
        <ele>160.889</ele>
        <time>2026-08-24T15:08:47.999Z</time>
      </trkpt>
      <trkpt lat="48.774735" lon="-1.177970">
        <ele>160.786</ele>
        <time>2026-08-24T15:08:49.999Z</time>
      </trkpt>
      <trkpt lat="48.774726" lon="-1.177979">
        <ele>160.664</ele>
        <time>2026-08-24T15:08:50.999Z</time>
      </trkpt>
      <trkpt lat="48.774714" lon="-1.177987">
        <ele>160.422</ele>
        <time>2026-08-24T15:08:51.999Z</time>
      </trkpt>
      <trkpt lat="48.774700" lon="-1.177994">
        <ele>160.196</ele>
        <time>2026-08-24T15:08:52.999Z</time>
      </trkpt>
      <trkpt lat="48.774690" lon="-1.177998">
        <ele>159.863</ele>
        <time>2026-08-24T15:08:53.999Z</time>
      </trkpt>
      <trkpt lat="48.774680" lon="-1.178002">
        <ele>159.735</ele>
        <time>2026-08-24T15:08:54.999Z</time>
      </trkpt>
      <trkpt lat="48.774672" lon="-1.178010">
        <ele>159.739</ele>
        <time>2026-08-24T15:08:55.999Z</time>
      </trkpt>
      <trkpt lat="48.774663" lon="-1.178017">
        <ele>159.601</ele>
        <time>2026-08-24T15:08:56.999Z</time>
      </trkpt>
      <trkpt lat="48.774654" lon="-1.178023">
        <ele>159.621</ele>
        <time>2026-08-24T15:08:57.999Z</time>
      </trkpt>
      <trkpt lat="48.774646" lon="-1.178031">
        <ele>159.609</ele>
        <time>2026-08-24T15:08:58.999Z</time>
      </trkpt>
      <trkpt lat="48.774637" lon="-1.178036">
        <ele>159.575</ele>
        <time>2026-08-24T15:08:59.999Z</time>
      </trkpt>
      <trkpt lat="48.774622" lon="-1.178046">
        <ele>159.341</ele>
        <time>2026-08-24T15:09:01.999Z</time>
      </trkpt>
      <trkpt lat="48.774614" lon="-1.178050">
        <ele>159.284</ele>
        <time>2026-08-24T15:09:02.999Z</time>
      </trkpt>
      <trkpt lat="48.774604" lon="-1.178057">
        <ele>159.151</ele>
        <time>2026-08-24T15:09:03.999Z</time>
      </trkpt>
      <trkpt lat="48.774596" lon="-1.178066">
        <ele>159.169</ele>
        <time>2026-08-24T15:09:04.999Z</time>
      </trkpt>
      <trkpt lat="48.774587" lon="-1.178074">
        <ele>159.197</ele>
        <time>2026-08-24T15:09:05.999Z</time>
      </trkpt>
      <trkpt lat="48.774575" lon="-1.178081">
        <ele>159.021</ele>
        <time>2026-08-24T15:09:06.999Z</time>
      </trkpt>
      <trkpt lat="48.774566" lon="-1.178092">
        <ele>159.038</ele>
        <time>2026-08-24T15:09:07.999Z</time>
      </trkpt>
      <trkpt lat="48.774554" lon="-1.178100">
        <ele>159.030</ele>
        <time>2026-08-24T15:09:08.999Z</time>
      </trkpt>
      <trkpt lat="48.774545" lon="-1.178105">
        <ele>158.954</ele>
        <time>2026-08-24T15:09:09.999Z</time>
      </trkpt>
      <trkpt lat="48.774535" lon="-1.178110">
        <ele>158.956</ele>
        <time>2026-08-24T15:09:10.999Z</time>
      </trkpt>
      <trkpt lat="48.774526" lon="-1.178116">
        <ele>158.811</ele>
        <time>2026-08-24T15:09:11.999Z</time>
      </trkpt>
      <trkpt lat="48.774516" lon="-1.178123">
        <ele>158.609</ele>
        <time>2026-08-24T15:09:12.999Z</time>
      </trkpt>
      <trkpt lat="48.774505" lon="-1.178129">
        <ele>158.427</ele>
        <time>2026-08-24T15:09:13.999Z</time>
      </trkpt>
      <trkpt lat="48.774494" lon="-1.178134">
        <ele>158.273</ele>
        <time>2026-08-24T15:09:14.999Z</time>
      </trkpt>
      <trkpt lat="48.774483" lon="-1.178136">
        <ele>157.886</ele>
        <time>2026-08-24T15:09:15.999Z</time>
      </trkpt>
      <trkpt lat="48.774474" lon="-1.178143">
        <ele>157.613</ele>
        <time>2026-08-24T15:09:16.999Z</time>
      </trkpt>
      <trkpt lat="48.774458" lon="-1.178157">
        <ele>157.541</ele>
        <time>2026-08-24T15:09:18.999Z</time>
      </trkpt>
      <trkpt lat="48.774448" lon="-1.178158">
        <ele>157.559</ele>
        <time>2026-08-24T15:09:19.999Z</time>
      </trkpt>
      <trkpt lat="48.774437" lon="-1.178162">
        <ele>157.423</ele>
        <time>2026-08-24T15:09:20.999Z</time>
      </trkpt>
      <trkpt lat="48.774427" lon="-1.178166">
        <ele>157.380</ele>
        <time>2026-08-24T15:09:21.999Z</time>
      </trkpt>
      <trkpt lat="48.774408" lon="-1.178180">
        <ele>157.252</ele>
        <time>2026-08-24T15:09:23.999Z</time>
      </trkpt>
      <trkpt lat="48.774396" lon="-1.178187">
        <ele>157.127</ele>
        <time>2026-08-24T15:09:24.999Z</time>
      </trkpt>
      <trkpt lat="48.774384" lon="-1.178194">
        <ele>156.868</ele>
        <time>2026-08-24T15:09:25.999Z</time>
      </trkpt>
      <trkpt lat="48.774370" lon="-1.178199">
        <ele>156.514</ele>
        <time>2026-08-24T15:09:26.999Z</time>
      </trkpt>
      <trkpt lat="48.774361" lon="-1.178201">
        <ele>156.309</ele>
        <time>2026-08-24T15:09:27.999Z</time>
      </trkpt>
      <trkpt lat="48.774347" lon="-1.178206">
        <ele>156.174</ele>
        <time>2026-08-24T15:09:29.999Z</time>
      </trkpt>
      <trkpt lat="48.774334" lon="-1.178205">
        <ele>155.990</ele>
        <time>2026-08-24T15:09:31.999Z</time>
      </trkpt>
      <trkpt lat="48.774327" lon="-1.178179">
        <ele>155.753</ele>
        <time>2026-08-24T15:09:33.999Z</time>
      </trkpt>
      <trkpt lat="48.774321" lon="-1.178168">
        <ele>155.590</ele>
        <time>2026-08-24T15:09:34.999Z</time>
      </trkpt>
      <trkpt lat="48.774309" lon="-1.178168">
        <ele>155.468</ele>
        <time>2026-08-24T15:09:36.999Z</time>
      </trkpt>
      <trkpt lat="48.774295" lon="-1.178176">
        <ele>155.396</ele>
        <time>2026-08-24T15:09:44.999Z</time>
      </trkpt>
      <trkpt lat="48.774288" lon="-1.178185">
        <ele>155.160</ele>
        <time>2026-08-24T15:09:45.999Z</time>
      </trkpt>
      <trkpt lat="48.774274" lon="-1.178193">
        <ele>155.137</ele>
        <time>2026-08-24T15:09:47.999Z</time>
      </trkpt>
      <trkpt lat="48.774258" lon="-1.178200">
        <ele>155.079</ele>
        <time>2026-08-24T15:09:49.999Z</time>
      </trkpt>
      <trkpt lat="48.774248" lon="-1.178205">
        <ele>155.085</ele>
        <time>2026-08-24T15:09:50.999Z</time>
      </trkpt>
      <trkpt lat="48.774238" lon="-1.178208">
        <ele>154.989</ele>
        <time>2026-08-24T15:09:51.999Z</time>
      </trkpt>
      <trkpt lat="48.774228" lon="-1.178212">
        <ele>154.917</ele>
        <time>2026-08-24T15:09:52.999Z</time>
      </trkpt>
      <trkpt lat="48.774218" lon="-1.178215">
        <ele>154.809</ele>
        <time>2026-08-24T15:09:53.999Z</time>
      </trkpt>
      <trkpt lat="48.774207" lon="-1.178221">
        <ele>154.660</ele>
        <time>2026-08-24T15:09:54.999Z</time>
      </trkpt>
      <trkpt lat="48.774196" lon="-1.178229">
        <ele>154.336</ele>
        <time>2026-08-24T15:09:55.999Z</time>
      </trkpt>
      <trkpt lat="48.774186" lon="-1.178239">
        <ele>154.199</ele>
        <time>2026-08-24T15:09:56.999Z</time>
      </trkpt>
      <trkpt lat="48.774178" lon="-1.178245">
        <ele>154.026</ele>
        <time>2026-08-24T15:09:57.999Z</time>
      </trkpt>
      <trkpt lat="48.774168" lon="-1.178253">
        <ele>153.954</ele>
        <time>2026-08-24T15:09:58.999Z</time>
      </trkpt>
      <trkpt lat="48.774158" lon="-1.178260">
        <ele>153.942</ele>
        <time>2026-08-24T15:09:59.999Z</time>
      </trkpt>
      <trkpt lat="48.774140" lon="-1.178263">
        <ele>153.946</ele>
        <time>2026-08-24T15:10:01.999Z</time>
      </trkpt>
      <trkpt lat="48.774129" lon="-1.178265">
        <ele>153.983</ele>
        <time>2026-08-24T15:10:02.999Z</time>
      </trkpt>
      <trkpt lat="48.774118" lon="-1.178266">
        <ele>153.935</ele>
        <time>2026-08-24T15:10:03.999Z</time>
      </trkpt>
      <trkpt lat="48.774108" lon="-1.178266">
        <ele>153.822</ele>
        <time>2026-08-24T15:10:04.999Z</time>
      </trkpt>
      <trkpt lat="48.774096" lon="-1.178266">
        <ele>153.862</ele>
        <time>2026-08-24T15:10:05.999Z</time>
      </trkpt>
      <trkpt lat="48.774084" lon="-1.178267">
        <ele>153.708</ele>
        <time>2026-08-24T15:10:06.999Z</time>
      </trkpt>
      <trkpt lat="48.774074" lon="-1.178270">
        <ele>153.609</ele>
        <time>2026-08-24T15:10:07.999Z</time>
      </trkpt>
      <trkpt lat="48.774064" lon="-1.178275">
        <ele>153.624</ele>
        <time>2026-08-24T15:10:08.999Z</time>
      </trkpt>
      <trkpt lat="48.774055" lon="-1.178278">
        <ele>153.530</ele>
        <time>2026-08-24T15:10:09.999Z</time>
      </trkpt>
      <trkpt lat="48.774045" lon="-1.178278">
        <ele>153.443</ele>
        <time>2026-08-24T15:10:10.999Z</time>
      </trkpt>
      <trkpt lat="48.774033" lon="-1.178279">
        <ele>153.430</ele>
        <time>2026-08-24T15:10:11.999Z</time>
      </trkpt>
      <trkpt lat="48.774021" lon="-1.178283">
        <ele>153.488</ele>
        <time>2026-08-24T15:10:12.999Z</time>
      </trkpt>
      <trkpt lat="48.774012" lon="-1.178286">
        <ele>153.486</ele>
        <time>2026-08-24T15:10:13.999Z</time>
      </trkpt>
      <trkpt lat="48.774002" lon="-1.178287">
        <ele>153.410</ele>
        <time>2026-08-24T15:10:14.999Z</time>
      </trkpt>
      <trkpt lat="48.773993" lon="-1.178291">
        <ele>153.377</ele>
        <time>2026-08-24T15:10:15.999Z</time>
      </trkpt>
      <trkpt lat="48.773983" lon="-1.178289">
        <ele>153.319</ele>
        <time>2026-08-24T15:10:17.999Z</time>
      </trkpt>
      <trkpt lat="48.773972" lon="-1.178309">
        <ele>153.299</ele>
        <time>2026-08-24T15:10:25.999Z</time>
      </trkpt>
      <trkpt lat="48.773961" lon="-1.178315">
        <ele>153.207</ele>
        <time>2026-08-24T15:10:26.999Z</time>
      </trkpt>
      <trkpt lat="48.773946" lon="-1.178319">
        <ele>153.027</ele>
        <time>2026-08-24T15:10:27.999Z</time>
      </trkpt>
      <trkpt lat="48.773936" lon="-1.178323">
        <ele>152.809</ele>
        <time>2026-08-24T15:10:28.999Z</time>
      </trkpt>
      <trkpt lat="48.773923" lon="-1.178321">
        <ele>152.681</ele>
        <time>2026-08-24T15:10:29.999Z</time>
      </trkpt>
      <trkpt lat="48.773911" lon="-1.178321">
        <ele>152.387</ele>
        <time>2026-08-24T15:10:30.999Z</time>
      </trkpt>
      <trkpt lat="48.773902" lon="-1.178321">
        <ele>152.120</ele>
        <time>2026-08-24T15:10:31.999Z</time>
      </trkpt>
      <trkpt lat="48.773886" lon="-1.178325">
        <ele>151.977</ele>
        <time>2026-08-24T15:10:33.999Z</time>
      </trkpt>
      <trkpt lat="48.773875" lon="-1.178323">
        <ele>151.755</ele>
        <time>2026-08-24T15:10:34.999Z</time>
      </trkpt>
      <trkpt lat="48.773864" lon="-1.178324">
        <ele>151.783</ele>
        <time>2026-08-24T15:10:35.999Z</time>
      </trkpt>
      <trkpt lat="48.773855" lon="-1.178324">
        <ele>151.677</ele>
        <time>2026-08-24T15:10:36.999Z</time>
      </trkpt>
      <trkpt lat="48.773846" lon="-1.178327">
        <ele>151.474</ele>
        <time>2026-08-24T15:10:37.999Z</time>
      </trkpt>
      <trkpt lat="48.773837" lon="-1.178330">
        <ele>151.356</ele>
        <time>2026-08-24T15:10:38.999Z</time>
      </trkpt>
      <trkpt lat="48.773826" lon="-1.178329">
        <ele>151.332</ele>
        <time>2026-08-24T15:10:39.999Z</time>
      </trkpt>
      <trkpt lat="48.773815" lon="-1.178330">
        <ele>151.092</ele>
        <time>2026-08-24T15:10:40.999Z</time>
      </trkpt>
      <trkpt lat="48.773805" lon="-1.178330">
        <ele>150.711</ele>
        <time>2026-08-24T15:10:41.999Z</time>
      </trkpt>
      <trkpt lat="48.773794" lon="-1.178331">
        <ele>150.609</ele>
        <time>2026-08-24T15:10:42.999Z</time>
      </trkpt>
      <trkpt lat="48.773783" lon="-1.178333">
        <ele>150.565</ele>
        <time>2026-08-24T15:10:43.999Z</time>
      </trkpt>
      <trkpt lat="48.773772" lon="-1.178337">
        <ele>150.581</ele>
        <time>2026-08-24T15:10:44.999Z</time>
      </trkpt>
      <trkpt lat="48.773753" lon="-1.178345">
        <ele>150.424</ele>
        <time>2026-08-24T15:10:46.999Z</time>
      </trkpt>
      <trkpt lat="48.773743" lon="-1.178345">
        <ele>150.441</ele>
        <time>2026-08-24T15:10:47.999Z</time>
      </trkpt>
      <trkpt lat="48.773733" lon="-1.178350">
        <ele>150.219</ele>
        <time>2026-08-24T15:10:48.999Z</time>
      </trkpt>
      <trkpt lat="48.773722" lon="-1.178352">
        <ele>150.097</ele>
        <time>2026-08-24T15:10:49.999Z</time>
      </trkpt>
      <trkpt lat="48.773710" lon="-1.178356">
        <ele>149.911</ele>
        <time>2026-08-24T15:10:50.999Z</time>
      </trkpt>
      <trkpt lat="48.773699" lon="-1.178358">
        <ele>149.898</ele>
        <time>2026-08-24T15:10:51.999Z</time>
      </trkpt>
      <trkpt lat="48.773689" lon="-1.178361">
        <ele>149.850</ele>
        <time>2026-08-24T15:10:52.999Z</time>
      </trkpt>
      <trkpt lat="48.773677" lon="-1.178365">
        <ele>149.765</ele>
        <time>2026-08-24T15:10:53.999Z</time>
      </trkpt>
      <trkpt lat="48.773665" lon="-1.178368">
        <ele>149.668</ele>
        <time>2026-08-24T15:10:54.999Z</time>
      </trkpt>
      <trkpt lat="48.773654" lon="-1.178371">
        <ele>149.514</ele>
        <time>2026-08-24T15:10:55.999Z</time>
      </trkpt>
      <trkpt lat="48.773643" lon="-1.178374">
        <ele>149.409</ele>
        <time>2026-08-24T15:10:56.999Z</time>
      </trkpt>
      <trkpt lat="48.773627" lon="-1.178376">
        <ele>149.358</ele>
        <time>2026-08-24T15:10:58.999Z</time>
      </trkpt>
      <trkpt lat="48.773618" lon="-1.178377">
        <ele>149.274</ele>
        <time>2026-08-24T15:10:59.999Z</time>
      </trkpt>
      <trkpt lat="48.773608" lon="-1.178379">
        <ele>149.017</ele>
        <time>2026-08-24T15:11:00.999Z</time>
      </trkpt>
      <trkpt lat="48.773596" lon="-1.178382">
        <ele>148.744</ele>
        <time>2026-08-24T15:11:01.999Z</time>
      </trkpt>
      <trkpt lat="48.773585" lon="-1.178385">
        <ele>148.482</ele>
        <time>2026-08-24T15:11:02.999Z</time>
      </trkpt>
      <trkpt lat="48.773574" lon="-1.178388">
        <ele>148.340</ele>
        <time>2026-08-24T15:11:03.999Z</time>
      </trkpt>
      <trkpt lat="48.773564" lon="-1.178390">
        <ele>148.294</ele>
        <time>2026-08-24T15:11:04.999Z</time>
      </trkpt>
      <trkpt lat="48.773552" lon="-1.178390">
        <ele>148.081</ele>
        <time>2026-08-24T15:11:05.999Z</time>
      </trkpt>
      <trkpt lat="48.773542" lon="-1.178389">
        <ele>147.833</ele>
        <time>2026-08-24T15:11:06.999Z</time>
      </trkpt>
      <trkpt lat="48.773533" lon="-1.178390">
        <ele>147.856</ele>
        <time>2026-08-24T15:11:07.999Z</time>
      </trkpt>
      <trkpt lat="48.773524" lon="-1.178393">
        <ele>147.759</ele>
        <time>2026-08-24T15:11:08.999Z</time>
      </trkpt>
      <trkpt lat="48.773514" lon="-1.178395">
        <ele>147.714</ele>
        <time>2026-08-24T15:11:09.999Z</time>
      </trkpt>
      <trkpt lat="48.773504" lon="-1.178396">
        <ele>147.509</ele>
        <time>2026-08-24T15:11:10.999Z</time>
      </trkpt>
      <trkpt lat="48.773495" lon="-1.178397">
        <ele>147.327</ele>
        <time>2026-08-24T15:11:11.999Z</time>
      </trkpt>
      <trkpt lat="48.773485" lon="-1.178398">
        <ele>147.083</ele>
        <time>2026-08-24T15:11:12.999Z</time>
      </trkpt>
      <trkpt lat="48.773474" lon="-1.178400">
        <ele>146.716</ele>
        <time>2026-08-24T15:11:13.999Z</time>
      </trkpt>
      <trkpt lat="48.773456" lon="-1.178406">
        <ele>146.563</ele>
        <time>2026-08-24T15:11:15.999Z</time>
      </trkpt>
      <trkpt lat="48.773446" lon="-1.178409">
        <ele>146.431</ele>
        <time>2026-08-24T15:11:16.999Z</time>
      </trkpt>
      <trkpt lat="48.773435" lon="-1.178413">
        <ele>146.349</ele>
        <time>2026-08-24T15:11:17.999Z</time>
      </trkpt>
      <trkpt lat="48.773425" lon="-1.178412">
        <ele>146.273</ele>
        <time>2026-08-24T15:11:18.999Z</time>
      </trkpt>
      <trkpt lat="48.773414" lon="-1.178415">
        <ele>146.180</ele>
        <time>2026-08-24T15:11:19.999Z</time>
      </trkpt>
      <trkpt lat="48.773404" lon="-1.178418">
        <ele>146.052</ele>
        <time>2026-08-24T15:11:20.999Z</time>
      </trkpt>
      <trkpt lat="48.773394" lon="-1.178419">
        <ele>145.889</ele>
        <time>2026-08-24T15:11:21.999Z</time>
      </trkpt>
      <trkpt lat="48.773385" lon="-1.178421">
        <ele>145.606</ele>
        <time>2026-08-24T15:11:22.999Z</time>
      </trkpt>
      <trkpt lat="48.773376" lon="-1.178424">
        <ele>145.526</ele>
        <time>2026-08-24T15:11:23.999Z</time>
      </trkpt>
      <trkpt lat="48.773365" lon="-1.178427">
        <ele>145.409</ele>
        <time>2026-08-24T15:11:24.999Z</time>
      </trkpt>
      <trkpt lat="48.773344" lon="-1.178427">
        <ele>145.210</ele>
        <time>2026-08-24T15:11:26.999Z</time>
      </trkpt>
      <trkpt lat="48.773333" lon="-1.178428">
        <ele>145.136</ele>
        <time>2026-08-24T15:11:27.999Z</time>
      </trkpt>
      <trkpt lat="48.773323" lon="-1.178427">
        <ele>145.069</ele>
        <time>2026-08-24T15:11:28.999Z</time>
      </trkpt>
      <trkpt lat="48.773311" lon="-1.178431">
        <ele>145.066</ele>
        <time>2026-08-24T15:11:29.999Z</time>
      </trkpt>
      <trkpt lat="48.773299" lon="-1.178438">
        <ele>144.814</ele>
        <time>2026-08-24T15:11:30.999Z</time>
      </trkpt>
      <trkpt lat="48.773290" lon="-1.178442">
        <ele>144.592</ele>
        <time>2026-08-24T15:11:31.999Z</time>
      </trkpt>
      <trkpt lat="48.773281" lon="-1.178444">
        <ele>144.346</ele>
        <time>2026-08-24T15:11:32.999Z</time>
      </trkpt>
      <trkpt lat="48.773270" lon="-1.178442">
        <ele>144.233</ele>
        <time>2026-08-24T15:11:33.999Z</time>
      </trkpt>
      <trkpt lat="48.773258" lon="-1.178442">
        <ele>144.155</ele>
        <time>2026-08-24T15:11:34.999Z</time>
      </trkpt>
      <trkpt lat="48.773239" lon="-1.178450">
        <ele>144.141</ele>
        <time>2026-08-24T15:11:36.999Z</time>
      </trkpt>
      <trkpt lat="48.773229" lon="-1.178453">
        <ele>143.881</ele>
        <time>2026-08-24T15:11:37.999Z</time>
      </trkpt>
      <trkpt lat="48.773220" lon="-1.178454">
        <ele>143.609</ele>
        <time>2026-08-24T15:11:38.999Z</time>
      </trkpt>
      <trkpt lat="48.773210" lon="-1.178454">
        <ele>143.409</ele>
        <time>2026-08-24T15:11:39.999Z</time>
      </trkpt>
      <trkpt lat="48.773200" lon="-1.178454">
        <ele>143.336</ele>
        <time>2026-08-24T15:11:40.999Z</time>
      </trkpt>
      <trkpt lat="48.773181" lon="-1.178459">
        <ele>143.222</ele>
        <time>2026-08-24T15:11:42.999Z</time>
      </trkpt>
      <trkpt lat="48.773169" lon="-1.178460">
        <ele>143.165</ele>
        <time>2026-08-24T15:11:43.999Z</time>
      </trkpt>
      <trkpt lat="48.773157" lon="-1.178463">
        <ele>142.912</ele>
        <time>2026-08-24T15:11:44.999Z</time>
      </trkpt>
      <trkpt lat="48.773146" lon="-1.178465">
        <ele>142.850</ele>
        <time>2026-08-24T15:11:45.999Z</time>
      </trkpt>
      <trkpt lat="48.773135" lon="-1.178465">
        <ele>142.888</ele>
        <time>2026-08-24T15:11:46.999Z</time>
      </trkpt>
      <trkpt lat="48.773123" lon="-1.178467">
        <ele>142.692</ele>
        <time>2026-08-24T15:11:47.999Z</time>
      </trkpt>
      <trkpt lat="48.773113" lon="-1.178468">
        <ele>142.449</ele>
        <time>2026-08-24T15:11:48.999Z</time>
      </trkpt>
      <trkpt lat="48.773098" lon="-1.178470">
        <ele>142.191</ele>
        <time>2026-08-24T15:11:50.999Z</time>
      </trkpt>
      <trkpt lat="48.773090" lon="-1.178472">
        <ele>141.775</ele>
        <time>2026-08-24T15:11:51.999Z</time>
      </trkpt>
      <trkpt lat="48.773081" lon="-1.178475">
        <ele>141.428</ele>
        <time>2026-08-24T15:11:52.999Z</time>
      </trkpt>
      <trkpt lat="48.773071" lon="-1.178477">
        <ele>141.120</ele>
        <time>2026-08-24T15:11:53.999Z</time>
      </trkpt>
      <trkpt lat="48.773061" lon="-1.178481">
        <ele>140.809</ele>
        <time>2026-08-24T15:11:54.999Z</time>
      </trkpt>
      <trkpt lat="48.773051" lon="-1.178484">
        <ele>140.619</ele>
        <time>2026-08-24T15:11:55.999Z</time>
      </trkpt>
      <trkpt lat="48.773042" lon="-1.178485">
        <ele>140.435</ele>
        <time>2026-08-24T15:11:56.999Z</time>
      </trkpt>
      <trkpt lat="48.773030" lon="-1.178488">
        <ele>140.278</ele>
        <time>2026-08-24T15:11:57.999Z</time>
      </trkpt>
      <trkpt lat="48.773012" lon="-1.178495">
        <ele>140.075</ele>
        <time>2026-08-24T15:11:59.999Z</time>
      </trkpt>
      <trkpt lat="48.773002" lon="-1.178498">
        <ele>139.973</ele>
        <time>2026-08-24T15:12:00.999Z</time>
      </trkpt>
      <trkpt lat="48.772989" lon="-1.178496">
        <ele>139.881</ele>
        <time>2026-08-24T15:12:01.999Z</time>
      </trkpt>
      <trkpt lat="48.772977" lon="-1.178497">
        <ele>139.635</ele>
        <time>2026-08-24T15:12:02.999Z</time>
      </trkpt>
      <trkpt lat="48.772961" lon="-1.178503">
        <ele>139.392</ele>
        <time>2026-08-24T15:12:04.999Z</time>
      </trkpt>
      <trkpt lat="48.772951" lon="-1.178506">
        <ele>139.254</ele>
        <time>2026-08-24T15:12:05.999Z</time>
      </trkpt>
      <trkpt lat="48.772938" lon="-1.178511">
        <ele>138.856</ele>
        <time>2026-08-24T15:12:06.999Z</time>
      </trkpt>
      <trkpt lat="48.772926" lon="-1.178515">
        <ele>138.459</ele>
        <time>2026-08-24T15:12:07.999Z</time>
      </trkpt>
      <trkpt lat="48.772912" lon="-1.178514">
        <ele>138.214</ele>
        <time>2026-08-24T15:12:08.999Z</time>
      </trkpt>
      <trkpt lat="48.772902" lon="-1.178517">
        <ele>138.109</ele>
        <time>2026-08-24T15:12:09.999Z</time>
      </trkpt>
      <trkpt lat="48.772893" lon="-1.178522">
        <ele>138.147</ele>
        <time>2026-08-24T15:12:10.999Z</time>
      </trkpt>
      <trkpt lat="48.772882" lon="-1.178526">
        <ele>138.133</ele>
        <time>2026-08-24T15:12:11.999Z</time>
      </trkpt>
      <trkpt lat="48.772870" lon="-1.178529">
        <ele>138.166</ele>
        <time>2026-08-24T15:12:12.999Z</time>
      </trkpt>
      <trkpt lat="48.772860" lon="-1.178529">
        <ele>138.043</ele>
        <time>2026-08-24T15:12:13.999Z</time>
      </trkpt>
      <trkpt lat="48.772849" lon="-1.178532">
        <ele>137.961</ele>
        <time>2026-08-24T15:12:14.999Z</time>
      </trkpt>
      <trkpt lat="48.772838" lon="-1.178531">
        <ele>137.959</ele>
        <time>2026-08-24T15:12:15.999Z</time>
      </trkpt>
      <trkpt lat="48.772828" lon="-1.178534">
        <ele>137.943</ele>
        <time>2026-08-24T15:12:16.999Z</time>
      </trkpt>
      <trkpt lat="48.772810" lon="-1.178539">
        <ele>137.860</ele>
        <time>2026-08-24T15:12:18.999Z</time>
      </trkpt>
      <trkpt lat="48.772799" lon="-1.178539">
        <ele>137.812</ele>
        <time>2026-08-24T15:12:19.999Z</time>
      </trkpt>
      <trkpt lat="48.772788" lon="-1.178539">
        <ele>137.725</ele>
        <time>2026-08-24T15:12:20.999Z</time>
      </trkpt>
      <trkpt lat="48.772777" lon="-1.178542">
        <ele>137.726</ele>
        <time>2026-08-24T15:12:21.999Z</time>
      </trkpt>
      <trkpt lat="48.772767" lon="-1.178545">
        <ele>137.708</ele>
        <time>2026-08-24T15:12:22.999Z</time>
      </trkpt>
      <trkpt lat="48.772755" lon="-1.178550">
        <ele>137.709</ele>
        <time>2026-08-24T15:12:23.999Z</time>
      </trkpt>
      <trkpt lat="48.772745" lon="-1.178554">
        <ele>137.774</ele>
        <time>2026-08-24T15:12:24.999Z</time>
      </trkpt>
      <trkpt lat="48.772728" lon="-1.178562">
        <ele>137.710</ele>
        <time>2026-08-24T15:12:26.999Z</time>
      </trkpt>
      <trkpt lat="48.772718" lon="-1.178571">
        <ele>137.783</ele>
        <time>2026-08-24T15:12:27.999Z</time>
      </trkpt>
      <trkpt lat="48.772707" lon="-1.178577">
        <ele>137.730</ele>
        <time>2026-08-24T15:12:28.999Z</time>
      </trkpt>
      <trkpt lat="48.772697" lon="-1.178584">
        <ele>137.728</ele>
        <time>2026-08-24T15:12:29.999Z</time>
      </trkpt>
      <trkpt lat="48.772686" lon="-1.178589">
        <ele>137.726</ele>
        <time>2026-08-24T15:12:30.999Z</time>
      </trkpt>
      <trkpt lat="48.772675" lon="-1.178594">
        <ele>137.720</ele>
        <time>2026-08-24T15:12:31.999Z</time>
      </trkpt>
      <trkpt lat="48.772664" lon="-1.178599">
        <ele>137.717</ele>
        <time>2026-08-24T15:12:32.999Z</time>
      </trkpt>
      <trkpt lat="48.772652" lon="-1.178599">
        <ele>137.769</ele>
        <time>2026-08-24T15:12:33.999Z</time>
      </trkpt>
      <trkpt lat="48.772640" lon="-1.178599">
        <ele>137.798</ele>
        <time>2026-08-24T15:12:34.999Z</time>
      </trkpt>
      <trkpt lat="48.772629" lon="-1.178601">
        <ele>137.715</ele>
        <time>2026-08-24T15:12:35.999Z</time>
      </trkpt>
      <trkpt lat="48.772616" lon="-1.178599">
        <ele>137.726</ele>
        <time>2026-08-24T15:12:36.999Z</time>
      </trkpt>
      <trkpt lat="48.772605" lon="-1.178601">
        <ele>137.809</ele>
        <time>2026-08-24T15:12:37.999Z</time>
      </trkpt>
      <trkpt lat="48.772591" lon="-1.178600">
        <ele>137.881</ele>
        <time>2026-08-24T15:12:38.999Z</time>
      </trkpt>
      <trkpt lat="48.772572" lon="-1.178601">
        <ele>137.867</ele>
        <time>2026-08-24T15:12:40.999Z</time>
      </trkpt>
      <trkpt lat="48.772561" lon="-1.178601">
        <ele>137.770</ele>
        <time>2026-08-24T15:12:41.999Z</time>
      </trkpt>
      <trkpt lat="48.772549" lon="-1.178599">
        <ele>137.717</ele>
        <time>2026-08-24T15:12:42.999Z</time>
      </trkpt>
      <trkpt lat="48.772539" lon="-1.178602">
        <ele>137.575</ele>
        <time>2026-08-24T15:12:43.999Z</time>
      </trkpt>
      <trkpt lat="48.772529" lon="-1.178611">
        <ele>137.563</ele>
        <time>2026-08-24T15:12:44.999Z</time>
      </trkpt>
      <trkpt lat="48.772516" lon="-1.178612">
        <ele>137.537</ele>
        <time>2026-08-24T15:12:45.999Z</time>
      </trkpt>
      <trkpt lat="48.772506" lon="-1.178617">
        <ele>137.514</ele>
        <time>2026-08-24T15:12:46.999Z</time>
      </trkpt>
      <trkpt lat="48.772498" lon="-1.178620">
        <ele>137.556</ele>
        <time>2026-08-24T15:12:48.999Z</time>
      </trkpt>
      <trkpt lat="48.772481" lon="-1.178622">
        <ele>137.542</ele>
        <time>2026-08-24T15:12:50.999Z</time>
      </trkpt>
      <trkpt lat="48.772468" lon="-1.178622">
        <ele>137.522</ele>
        <time>2026-08-24T15:12:51.999Z</time>
      </trkpt>
      <trkpt lat="48.772452" lon="-1.178625">
        <ele>137.514</ele>
        <time>2026-08-24T15:12:52.999Z</time>
      </trkpt>
      <trkpt lat="48.772433" lon="-1.178628">
        <ele>137.509</ele>
        <time>2026-08-24T15:12:53.999Z</time>
      </trkpt>
      <trkpt lat="48.772418" lon="-1.178633">
        <ele>137.586</ele>
        <time>2026-08-24T15:12:54.999Z</time>
      </trkpt>
      <trkpt lat="48.772406" lon="-1.178636">
        <ele>137.542</ele>
        <time>2026-08-24T15:12:55.999Z</time>
      </trkpt>
      <trkpt lat="48.772394" lon="-1.178634">
        <ele>137.565</ele>
        <time>2026-08-24T15:12:58.999Z</time>
      </trkpt>
      <trkpt lat="48.772380" lon="-1.178636">
        <ele>137.172</ele>
        <time>2026-08-24T15:13:00.999Z</time>
      </trkpt>
      <trkpt lat="48.772363" lon="-1.178642">
        <ele>136.640</ele>
        <time>2026-08-24T15:13:01.999Z</time>
      </trkpt>
      <trkpt lat="48.772345" lon="-1.178649">
        <ele>135.968</ele>
        <time>2026-08-24T15:13:02.999Z</time>
      </trkpt>
      <trkpt lat="48.772332" lon="-1.178653">
        <ele>135.492</ele>
        <time>2026-08-24T15:13:03.999Z</time>
      </trkpt>
      <trkpt lat="48.772320" lon="-1.178656">
        <ele>134.939</ele>
        <time>2026-08-24T15:13:05.999Z</time>
      </trkpt>
      <trkpt lat="48.772307" lon="-1.178656">
        <ele>134.361</ele>
        <time>2026-08-24T15:13:06.999Z</time>
      </trkpt>
      <trkpt lat="48.772288" lon="-1.178658">
        <ele>133.594</ele>
        <time>2026-08-24T15:13:07.999Z</time>
      </trkpt>
      <trkpt lat="48.772267" lon="-1.178658">
        <ele>132.257</ele>
        <time>2026-08-24T15:13:08.999Z</time>
      </trkpt>
      <trkpt lat="48.772253" lon="-1.178662">
        <ele>131.222</ele>
        <time>2026-08-24T15:13:09.999Z</time>
      </trkpt>
      <trkpt lat="48.772244" lon="-1.178667">
        <ele>130.909</ele>
        <time>2026-08-24T15:13:11.999Z</time>
      </trkpt>
      <trkpt lat="48.772226" lon="-1.178685">
        <ele>130.581</ele>
        <time>2026-08-24T15:13:15.999Z</time>
      </trkpt>
      <trkpt lat="48.772203" lon="-1.178689">
        <ele>130.117</ele>
        <time>2026-08-24T15:13:16.999Z</time>
      </trkpt>
      <trkpt lat="48.772187" lon="-1.178687">
        <ele>129.780</ele>
        <time>2026-08-24T15:13:17.999Z</time>
      </trkpt>
      <trkpt lat="48.772174" lon="-1.178688">
        <ele>129.457</ele>
        <time>2026-08-24T15:13:18.999Z</time>
      </trkpt>
      <trkpt lat="48.772163" lon="-1.178695">
        <ele>128.895</ele>
        <time>2026-08-24T15:13:25.999Z</time>
      </trkpt>
      <trkpt lat="48.772146" lon="-1.178703">
        <ele>128.443</ele>
        <time>2026-08-24T15:13:28.999Z</time>
      </trkpt>
      <trkpt lat="48.772131" lon="-1.178706">
        <ele>128.277</ele>
        <time>2026-08-24T15:13:29.999Z</time>
      </trkpt>
      <trkpt lat="48.772118" lon="-1.178711">
        <ele>127.994</ele>
        <time>2026-08-24T15:13:30.999Z</time>
      </trkpt>
      <trkpt lat="48.772107" lon="-1.178710">
        <ele>127.596</ele>
        <time>2026-08-24T15:13:31.999Z</time>
      </trkpt>
      <trkpt lat="48.772091" lon="-1.178718">
        <ele>127.328</ele>
        <time>2026-08-24T15:13:33.999Z</time>
      </trkpt>
      <trkpt lat="48.772081" lon="-1.178724">
        <ele>127.189</ele>
        <time>2026-08-24T15:13:34.999Z</time>
      </trkpt>
      <trkpt lat="48.772065" lon="-1.178731">
        <ele>127.017</ele>
        <time>2026-08-24T15:13:36.999Z</time>
      </trkpt>
      <trkpt lat="48.772045" lon="-1.178741">
        <ele>126.809</ele>
        <time>2026-08-24T15:13:38.999Z</time>
      </trkpt>
      <trkpt lat="48.772037" lon="-1.178751">
        <ele>126.514</ele>
        <time>2026-08-24T15:13:39.999Z</time>
      </trkpt>
      <trkpt lat="48.772027" lon="-1.178761">
        <ele>126.290</ele>
        <time>2026-08-24T15:13:40.999Z</time>
      </trkpt>
      <trkpt lat="48.772018" lon="-1.178769">
        <ele>126.073</ele>
        <time>2026-08-24T15:13:41.999Z</time>
      </trkpt>
      <trkpt lat="48.772005" lon="-1.178778">
        <ele>125.910</ele>
        <time>2026-08-24T15:13:43.999Z</time>
      </trkpt>
      <trkpt lat="48.771995" lon="-1.178786">
        <ele>125.818</ele>
        <time>2026-08-24T15:13:44.999Z</time>
      </trkpt>
      <trkpt lat="48.771985" lon="-1.178793">
        <ele>125.656</ele>
        <time>2026-08-24T15:13:45.999Z</time>
      </trkpt>
      <trkpt lat="48.771975" lon="-1.178806">
        <ele>125.310</ele>
        <time>2026-08-24T15:13:46.999Z</time>
      </trkpt>
      <trkpt lat="48.771967" lon="-1.178820">
        <ele>125.167</ele>
        <time>2026-08-24T15:13:47.999Z</time>
      </trkpt>
      <trkpt lat="48.771961" lon="-1.178833">
        <ele>125.179</ele>
        <time>2026-08-24T15:13:48.999Z</time>
      </trkpt>
      <trkpt lat="48.771955" lon="-1.178848">
        <ele>125.115</ele>
        <time>2026-08-24T15:13:49.999Z</time>
      </trkpt>
      <trkpt lat="48.771942" lon="-1.178859">
        <ele>125.065</ele>
        <time>2026-08-24T15:13:51.999Z</time>
      </trkpt>
      <trkpt lat="48.771924" lon="-1.178870">
        <ele>125.011</ele>
        <time>2026-08-24T15:13:53.999Z</time>
      </trkpt>
      <trkpt lat="48.771912" lon="-1.178880">
        <ele>124.909</ele>
        <time>2026-08-24T15:13:54.999Z</time>
      </trkpt>
      <trkpt lat="48.771902" lon="-1.178892">
        <ele>124.693</ele>
        <time>2026-08-24T15:13:55.999Z</time>
      </trkpt>
      <trkpt lat="48.771893" lon="-1.178899">
        <ele>124.529</ele>
        <time>2026-08-24T15:13:56.999Z</time>
      </trkpt>
      <trkpt lat="48.771883" lon="-1.178910">
        <ele>124.422</ele>
        <time>2026-08-24T15:13:57.999Z</time>
      </trkpt>
      <trkpt lat="48.771872" lon="-1.178920">
        <ele>124.289</ele>
        <time>2026-08-24T15:13:58.999Z</time>
      </trkpt>
      <trkpt lat="48.771861" lon="-1.178926">
        <ele>123.727</ele>
        <time>2026-08-24T15:13:59.999Z</time>
      </trkpt>
      <trkpt lat="48.771849" lon="-1.178937">
        <ele>123.285</ele>
        <time>2026-08-24T15:14:00.999Z</time>
      </trkpt>
      <trkpt lat="48.771836" lon="-1.178949">
        <ele>123.039</ele>
        <time>2026-08-24T15:14:01.999Z</time>
      </trkpt>
      <trkpt lat="48.771826" lon="-1.178961">
        <ele>122.836</ele>
        <time>2026-08-24T15:14:02.999Z</time>
      </trkpt>
      <trkpt lat="48.771820" lon="-1.178974">
        <ele>122.558</ele>
        <time>2026-08-24T15:14:03.999Z</time>
      </trkpt>
      <trkpt lat="48.771812" lon="-1.178988">
        <ele>122.347</ele>
        <time>2026-08-24T15:14:04.999Z</time>
      </trkpt>
      <trkpt lat="48.771804" lon="-1.179002">
        <ele>122.329</ele>
        <time>2026-08-24T15:14:05.999Z</time>
      </trkpt>
      <trkpt lat="48.771793" lon="-1.179015">
        <ele>122.321</ele>
        <time>2026-08-24T15:14:06.999Z</time>
      </trkpt>
      <trkpt lat="48.771783" lon="-1.179031">
        <ele>122.309</ele>
        <time>2026-08-24T15:14:07.999Z</time>
      </trkpt>
      <trkpt lat="48.771782" lon="-1.179048">
        <ele>122.326</ele>
        <time>2026-08-24T15:14:08.999Z</time>
      </trkpt>
      <trkpt lat="48.771772" lon="-1.179058">
        <ele>122.362</ele>
        <time>2026-08-24T15:14:09.999Z</time>
      </trkpt>
      <trkpt lat="48.771763" lon="-1.179066">
        <ele>122.395</ele>
        <time>2026-08-24T15:14:10.999Z</time>
      </trkpt>
      <trkpt lat="48.771758" lon="-1.179079">
        <ele>122.372</ele>
        <time>2026-08-24T15:14:11.999Z</time>
      </trkpt>
      <trkpt lat="48.771751" lon="-1.179096">
        <ele>122.330</ele>
        <time>2026-08-24T15:14:12.999Z</time>
      </trkpt>
      <trkpt lat="48.771745" lon="-1.179111">
        <ele>122.338</ele>
        <time>2026-08-24T15:14:13.999Z</time>
      </trkpt>
      <trkpt lat="48.771738" lon="-1.179130">
        <ele>122.312</ele>
        <time>2026-08-24T15:14:15.999Z</time>
      </trkpt>
      <trkpt lat="48.771726" lon="-1.179130">
        <ele>122.369</ele>
        <time>2026-08-24T15:14:16.999Z</time>
      </trkpt>
      <trkpt lat="48.771718" lon="-1.179140">
        <ele>122.381</ele>
        <time>2026-08-24T15:14:17.999Z</time>
      </trkpt>
      <trkpt lat="48.771709" lon="-1.179159">
        <ele>122.387</ele>
        <time>2026-08-24T15:14:18.999Z</time>
      </trkpt>
      <trkpt lat="48.771703" lon="-1.179171">
        <ele>122.342</ele>
        <time>2026-08-24T15:14:19.999Z</time>
      </trkpt>
      <trkpt lat="48.771694" lon="-1.179186">
        <ele>122.326</ele>
        <time>2026-08-24T15:14:20.999Z</time>
      </trkpt>
      <trkpt lat="48.771681" lon="-1.179203">
        <ele>122.409</ele>
        <time>2026-08-24T15:14:21.999Z</time>
      </trkpt>
      <trkpt lat="48.771671" lon="-1.179218">
        <ele>122.470</ele>
        <time>2026-08-24T15:14:22.999Z</time>
      </trkpt>
      <trkpt lat="48.771660" lon="-1.179232">
        <ele>122.456</ele>
        <time>2026-08-24T15:14:23.999Z</time>
      </trkpt>
      <trkpt lat="48.771654" lon="-1.179246">
        <ele>122.429</ele>
        <time>2026-08-24T15:14:24.999Z</time>
      </trkpt>
      <trkpt lat="48.771647" lon="-1.179266">
        <ele>122.486</ele>
        <time>2026-08-24T15:14:25.999Z</time>
      </trkpt>
      <trkpt lat="48.771641" lon="-1.179285">
        <ele>122.444</ele>
        <time>2026-08-24T15:14:26.999Z</time>
      </trkpt>
      <trkpt lat="48.771640" lon="-1.179304">
        <ele>122.452</ele>
        <time>2026-08-24T15:14:27.999Z</time>
      </trkpt>
      <trkpt lat="48.771638" lon="-1.179324">
        <ele>122.456</ele>
        <time>2026-08-24T15:14:29.999Z</time>
      </trkpt>
      <trkpt lat="48.771634" lon="-1.179351">
        <ele>122.473</ele>
        <time>2026-08-24T15:14:31.999Z</time>
      </trkpt>
      <trkpt lat="48.771630" lon="-1.179379">
        <ele>122.485</ele>
        <time>2026-08-24T15:14:32.999Z</time>
      </trkpt>
      <trkpt lat="48.771623" lon="-1.179395">
        <ele>122.471</ele>
        <time>2026-08-24T15:14:33.999Z</time>
      </trkpt>
      <trkpt lat="48.771611" lon="-1.179405">
        <ele>122.441</ele>
        <time>2026-08-24T15:14:34.999Z</time>
      </trkpt>
      <trkpt lat="48.771607" lon="-1.179421">
        <ele>122.415</ele>
        <time>2026-08-24T15:14:35.999Z</time>
      </trkpt>
      <trkpt lat="48.771605" lon="-1.179448">
        <ele>122.409</ele>
        <time>2026-08-24T15:14:37.999Z</time>
      </trkpt>
      <trkpt lat="48.771600" lon="-1.179462">
        <ele>122.459</ele>
        <time>2026-08-24T15:14:38.999Z</time>
      </trkpt>
      <trkpt lat="48.771592" lon="-1.179484">
        <ele>122.425</ele>
        <time>2026-08-24T15:14:39.999Z</time>
      </trkpt>
      <trkpt lat="48.771582" lon="-1.179510">
        <ele>122.438</ele>
        <time>2026-08-24T15:14:40.999Z</time>
      </trkpt>
      <trkpt lat="48.771571" lon="-1.179520">
        <ele>122.455</ele>
        <time>2026-08-24T15:14:41.999Z</time>
      </trkpt>
      <trkpt lat="48.771565" lon="-1.179535">
        <ele>122.313</ele>
        <time>2026-08-24T15:14:42.999Z</time>
      </trkpt>
      <trkpt lat="48.771561" lon="-1.179553">
        <ele>122.331</ele>
        <time>2026-08-24T15:14:43.999Z</time>
      </trkpt>
      <trkpt lat="48.771555" lon="-1.179569">
        <ele>122.315</ele>
        <time>2026-08-24T15:14:44.999Z</time>
      </trkpt>
      <trkpt lat="48.771548" lon="-1.179585">
        <ele>122.222</ele>
        <time>2026-08-24T15:14:45.999Z</time>
      </trkpt>
      <trkpt lat="48.771544" lon="-1.179603">
        <ele>122.224</ele>
        <time>2026-08-24T15:14:47.999Z</time>
      </trkpt>
      <trkpt lat="48.771539" lon="-1.179623">
        <ele>122.255</ele>
        <time>2026-08-24T15:14:48.999Z</time>
      </trkpt>
      <trkpt lat="48.771533" lon="-1.179640">
        <ele>122.207</ele>
        <time>2026-08-24T15:14:49.999Z</time>
      </trkpt>
      <trkpt lat="48.771535" lon="-1.179660">
        <ele>122.217</ele>
        <time>2026-08-24T15:14:51.999Z</time>
      </trkpt>
      <trkpt lat="48.771523" lon="-1.179673">
        <ele>122.209</ele>
        <time>2026-08-24T15:14:52.999Z</time>
      </trkpt>
      <trkpt lat="48.771511" lon="-1.179685">
        <ele>122.287</ele>
        <time>2026-08-24T15:14:53.999Z</time>
      </trkpt>
      <trkpt lat="48.771504" lon="-1.179701">
        <ele>122.223</ele>
        <time>2026-08-24T15:14:54.999Z</time>
      </trkpt>
      <trkpt lat="48.771498" lon="-1.179718">
        <ele>122.296</ele>
        <time>2026-08-24T15:14:55.999Z</time>
      </trkpt>
      <trkpt lat="48.771487" lon="-1.179733">
        <ele>122.213</ele>
        <time>2026-08-24T15:14:56.999Z</time>
      </trkpt>
      <trkpt lat="48.771482" lon="-1.179752">
        <ele>122.261</ele>
        <time>2026-08-24T15:14:57.999Z</time>
      </trkpt>
      <trkpt lat="48.771473" lon="-1.179769">
        <ele>122.399</ele>
        <time>2026-08-24T15:14:58.999Z</time>
      </trkpt>
      <trkpt lat="48.771464" lon="-1.179784">
        <ele>122.343</ele>
        <time>2026-08-24T15:14:59.999Z</time>
      </trkpt>
      <trkpt lat="48.771448" lon="-1.179791">
        <ele>122.370</ele>
        <time>2026-08-24T15:15:00.999Z</time>
      </trkpt>
      <trkpt lat="48.771439" lon="-1.179801">
        <ele>122.422</ele>
        <time>2026-08-24T15:15:01.999Z</time>
      </trkpt>
      <trkpt lat="48.771433" lon="-1.179819">
        <ele>122.532</ele>
        <time>2026-08-24T15:15:02.999Z</time>
      </trkpt>
      <trkpt lat="48.771422" lon="-1.179830">
        <ele>122.592</ele>
        <time>2026-08-24T15:15:03.999Z</time>
      </trkpt>
      <trkpt lat="48.771416" lon="-1.179842">
        <ele>122.611</ele>
        <time>2026-08-24T15:15:04.999Z</time>
      </trkpt>
      <trkpt lat="48.771407" lon="-1.179856">
        <ele>122.809</ele>
        <time>2026-08-24T15:15:05.999Z</time>
      </trkpt>
      <trkpt lat="48.771394" lon="-1.179863">
        <ele>123.025</ele>
        <time>2026-08-24T15:15:06.999Z</time>
      </trkpt>
      <trkpt lat="48.771383" lon="-1.179872">
        <ele>123.021</ele>
        <time>2026-08-24T15:15:07.999Z</time>
      </trkpt>
      <trkpt lat="48.771373" lon="-1.179876">
        <ele>123.184</ele>
        <time>2026-08-24T15:15:08.999Z</time>
      </trkpt>
      <trkpt lat="48.771364" lon="-1.179893">
        <ele>123.251</ele>
        <time>2026-08-24T15:15:09.999Z</time>
      </trkpt>
      <trkpt lat="48.771357" lon="-1.179909">
        <ele>123.589</ele>
        <time>2026-08-24T15:15:10.999Z</time>
      </trkpt>
      <trkpt lat="48.771353" lon="-1.179932">
        <ele>123.887</ele>
        <time>2026-08-24T15:15:11.999Z</time>
      </trkpt>
      <trkpt lat="48.771344" lon="-1.179950">
        <ele>124.171</ele>
        <time>2026-08-24T15:15:13.999Z</time>
      </trkpt>
      <trkpt lat="48.771331" lon="-1.179969">
        <ele>124.368</ele>
        <time>2026-08-24T15:15:15.999Z</time>
      </trkpt>
      <trkpt lat="48.771324" lon="-1.179987">
        <ele>124.680</ele>
        <time>2026-08-24T15:15:16.999Z</time>
      </trkpt>
      <trkpt lat="48.771313" lon="-1.180001">
        <ele>124.959</ele>
        <time>2026-08-24T15:15:17.999Z</time>
      </trkpt>
      <trkpt lat="48.771297" lon="-1.180008">
        <ele>125.003</ele>
        <time>2026-08-24T15:15:18.999Z</time>
      </trkpt>
      <trkpt lat="48.771281" lon="-1.180016">
        <ele>125.123</ele>
        <time>2026-08-24T15:15:19.999Z</time>
      </trkpt>
      <trkpt lat="48.771266" lon="-1.180024">
        <ele>125.309</ele>
        <time>2026-08-24T15:15:20.999Z</time>
      </trkpt>
      <trkpt lat="48.771252" lon="-1.180025">
        <ele>125.567</ele>
        <time>2026-08-24T15:15:21.999Z</time>
      </trkpt>
      <trkpt lat="48.771239" lon="-1.180026">
        <ele>125.753</ele>
        <time>2026-08-24T15:15:22.999Z</time>
      </trkpt>
      <trkpt lat="48.771228" lon="-1.180022">
        <ele>125.746</ele>
        <time>2026-08-24T15:15:23.999Z</time>
      </trkpt>
      <trkpt lat="48.771211" lon="-1.180038">
        <ele>125.853</ele>
        <time>2026-08-24T15:15:25.999Z</time>
      </trkpt>
      <trkpt lat="48.771198" lon="-1.180051">
        <ele>126.031</ele>
        <time>2026-08-24T15:15:26.999Z</time>
      </trkpt>
      <trkpt lat="48.771188" lon="-1.180056">
        <ele>126.259</ele>
        <time>2026-08-24T15:15:27.999Z</time>
      </trkpt>
      <trkpt lat="48.771179" lon="-1.180062">
        <ele>126.263</ele>
        <time>2026-08-24T15:15:28.999Z</time>
      </trkpt>
      <trkpt lat="48.771167" lon="-1.180065">
        <ele>126.730</ele>
        <time>2026-08-24T15:15:29.999Z</time>
      </trkpt>
      <trkpt lat="48.771156" lon="-1.180076">
        <ele>127.512</ele>
        <time>2026-08-24T15:15:30.999Z</time>
      </trkpt>
      <trkpt lat="48.771143" lon="-1.180068">
        <ele>127.866</ele>
        <time>2026-08-24T15:15:31.999Z</time>
      </trkpt>
      <trkpt lat="48.771131" lon="-1.180074">
        <ele>127.929</ele>
        <time>2026-08-24T15:15:32.999Z</time>
      </trkpt>
      <trkpt lat="48.771119" lon="-1.180076">
        <ele>128.021</ele>
        <time>2026-08-24T15:15:33.999Z</time>
      </trkpt>
      <trkpt lat="48.771107" lon="-1.180081">
        <ele>128.109</ele>
        <time>2026-08-24T15:15:34.999Z</time>
      </trkpt>
      <trkpt lat="48.771098" lon="-1.180081">
        <ele>128.158</ele>
        <time>2026-08-24T15:15:35.999Z</time>
      </trkpt>
      <trkpt lat="48.771083" lon="-1.180082">
        <ele>128.214</ele>
        <time>2026-08-24T15:15:36.999Z</time>
      </trkpt>
      <trkpt lat="48.771064" lon="-1.180081">
        <ele>128.247</ele>
        <time>2026-08-24T15:15:38.999Z</time>
      </trkpt>
      <trkpt lat="48.771049" lon="-1.180082">
        <ele>128.314</ele>
        <time>2026-08-24T15:15:39.999Z</time>
      </trkpt>
      <trkpt lat="48.771033" lon="-1.180080">
        <ele>128.722</ele>
        <time>2026-08-24T15:15:40.999Z</time>
      </trkpt>
      <trkpt lat="48.771022" lon="-1.180084">
        <ele>129.150</ele>
        <time>2026-08-24T15:15:41.999Z</time>
      </trkpt>
      <trkpt lat="48.771011" lon="-1.180086">
        <ele>129.424</ele>
        <time>2026-08-24T15:15:42.999Z</time>
      </trkpt>
      <trkpt lat="48.770992" lon="-1.180089">
        <ele>129.721</ele>
        <time>2026-08-24T15:15:44.999Z</time>
      </trkpt>
      <trkpt lat="48.770980" lon="-1.180093">
        <ele>129.843</ele>
        <time>2026-08-24T15:15:45.999Z</time>
      </trkpt>
      <trkpt lat="48.770967" lon="-1.180097">
        <ele>129.992</ele>
        <time>2026-08-24T15:15:46.999Z</time>
      </trkpt>
      <trkpt lat="48.770955" lon="-1.180101">
        <ele>130.273</ele>
        <time>2026-08-24T15:15:47.999Z</time>
      </trkpt>
      <trkpt lat="48.770947" lon="-1.180108">
        <ele>130.420</ele>
        <time>2026-08-24T15:15:48.999Z</time>
      </trkpt>
      <trkpt lat="48.770936" lon="-1.180106">
        <ele>130.609</ele>
        <time>2026-08-24T15:15:49.999Z</time>
      </trkpt>
      <trkpt lat="48.770925" lon="-1.180105">
        <ele>130.731</ele>
        <time>2026-08-24T15:15:50.999Z</time>
      </trkpt>
      <trkpt lat="48.770910" lon="-1.180108">
        <ele>130.847</ele>
        <time>2026-08-24T15:15:51.999Z</time>
      </trkpt>
      <trkpt lat="48.770897" lon="-1.180112">
        <ele>130.980</ele>
        <time>2026-08-24T15:15:52.999Z</time>
      </trkpt>
      <trkpt lat="48.770885" lon="-1.180115">
        <ele>130.997</ele>
        <time>2026-08-24T15:15:53.999Z</time>
      </trkpt>
      <trkpt lat="48.770871" lon="-1.180120">
        <ele>130.965</ele>
        <time>2026-08-24T15:15:54.999Z</time>
      </trkpt>
      <trkpt lat="48.770859" lon="-1.180116">
        <ele>130.913</ele>
        <time>2026-08-24T15:15:55.999Z</time>
      </trkpt>
      <trkpt lat="48.770847" lon="-1.180116">
        <ele>130.987</ele>
        <time>2026-08-24T15:15:56.999Z</time>
      </trkpt>
      <trkpt lat="48.770837" lon="-1.180118">
        <ele>130.994</ele>
        <time>2026-08-24T15:15:57.999Z</time>
      </trkpt>
      <trkpt lat="48.770824" lon="-1.180123">
        <ele>130.976</ele>
        <time>2026-08-24T15:15:58.999Z</time>
      </trkpt>
      <trkpt lat="48.770814" lon="-1.180127">
        <ele>130.924</ele>
        <time>2026-08-24T15:15:59.999Z</time>
      </trkpt>
      <trkpt lat="48.770803" lon="-1.180128">
        <ele>130.904</ele>
        <time>2026-08-24T15:16:00.999Z</time>
      </trkpt>
      <trkpt lat="48.770784" lon="-1.180129">
        <ele>130.914</ele>
        <time>2026-08-24T15:16:02.999Z</time>
      </trkpt>
      <trkpt lat="48.770773" lon="-1.180130">
        <ele>130.909</ele>
        <time>2026-08-24T15:16:03.999Z</time>
      </trkpt>
      <trkpt lat="48.770761" lon="-1.180127">
        <ele>130.994</ele>
        <time>2026-08-24T15:16:04.999Z</time>
      </trkpt>
      <trkpt lat="48.770748" lon="-1.180128">
        <ele>130.910</ele>
        <time>2026-08-24T15:16:05.999Z</time>
      </trkpt>
      <trkpt lat="48.770738" lon="-1.180128">
        <ele>130.833</ele>
        <time>2026-08-24T15:16:06.999Z</time>
      </trkpt>
      <trkpt lat="48.770727" lon="-1.180128">
        <ele>130.890</ele>
        <time>2026-08-24T15:16:07.999Z</time>
      </trkpt>
      <trkpt lat="48.770712" lon="-1.180130">
        <ele>130.858</ele>
        <time>2026-08-24T15:16:08.999Z</time>
      </trkpt>
      <trkpt lat="48.770693" lon="-1.180121">
        <ele>130.746</ele>
        <time>2026-08-24T15:16:10.999Z</time>
      </trkpt>
      <trkpt lat="48.770680" lon="-1.180119">
        <ele>130.740</ele>
        <time>2026-08-24T15:16:11.999Z</time>
      </trkpt>
      <trkpt lat="48.770669" lon="-1.180114">
        <ele>130.627</ele>
        <time>2026-08-24T15:16:12.999Z</time>
      </trkpt>
      <trkpt lat="48.770656" lon="-1.180119">
        <ele>130.499</ele>
        <time>2026-08-24T15:16:13.999Z</time>
      </trkpt>
      <trkpt lat="48.770639" lon="-1.180128">
        <ele>130.331</ele>
        <time>2026-08-24T15:16:14.999Z</time>
      </trkpt>
      <trkpt lat="48.770622" lon="-1.180135">
        <ele>130.261</ele>
        <time>2026-08-24T15:16:15.999Z</time>
      </trkpt>
      <trkpt lat="48.770609" lon="-1.180131">
        <ele>130.207</ele>
        <time>2026-08-24T15:16:16.999Z</time>
      </trkpt>
      <trkpt lat="48.770584" lon="-1.180125">
        <ele>130.209</ele>
        <time>2026-08-24T15:16:17.999Z</time>
      </trkpt>
      <trkpt lat="48.770561" lon="-1.180116">
        <ele>130.295</ele>
        <time>2026-08-24T15:16:18.999Z</time>
      </trkpt>
      <trkpt lat="48.770548" lon="-1.180116">
        <ele>130.241</ele>
        <time>2026-08-24T15:16:19.999Z</time>
      </trkpt>
      <trkpt lat="48.770537" lon="-1.180115">
        <ele>130.244</ele>
        <time>2026-08-24T15:16:20.999Z</time>
      </trkpt>
      <trkpt lat="48.770527" lon="-1.180113">
        <ele>130.251</ele>
        <time>2026-08-24T15:16:21.999Z</time>
      </trkpt>
      <trkpt lat="48.770516" lon="-1.180104">
        <ele>130.279</ele>
        <time>2026-08-24T15:16:22.999Z</time>
      </trkpt>
      <trkpt lat="48.770506" lon="-1.180093">
        <ele>130.247</ele>
        <time>2026-08-24T15:16:23.999Z</time>
      </trkpt>
      <trkpt lat="48.770500" lon="-1.180082">
        <ele>130.241</ele>
        <time>2026-08-24T15:16:24.999Z</time>
      </trkpt>
      <trkpt lat="48.770485" lon="-1.180071">
        <ele>130.248</ele>
        <time>2026-08-24T15:16:25.999Z</time>
      </trkpt>
      <trkpt lat="48.770475" lon="-1.180065">
        <ele>130.220</ele>
        <time>2026-08-24T15:16:26.999Z</time>
      </trkpt>
      <trkpt lat="48.770463" lon="-1.180062">
        <ele>130.273</ele>
        <time>2026-08-24T15:16:27.999Z</time>
      </trkpt>
      <trkpt lat="48.770446" lon="-1.180049">
        <ele>130.185</ele>
        <time>2026-08-24T15:16:29.999Z</time>
      </trkpt>
      <trkpt lat="48.770440" lon="-1.180031">
        <ele>130.113</ele>
        <time>2026-08-24T15:16:31.999Z</time>
      </trkpt>
      <trkpt lat="48.770434" lon="-1.180013">
        <ele>130.109</ele>
        <time>2026-08-24T15:16:32.999Z</time>
      </trkpt>
      <trkpt lat="48.770417" lon="-1.179996">
        <ele>130.149</ele>
        <time>2026-08-24T15:16:35.999Z</time>
      </trkpt>
      <trkpt lat="48.770406" lon="-1.179982">
        <ele>130.185</ele>
        <time>2026-08-24T15:16:36.999Z</time>
      </trkpt>
      <trkpt lat="48.770390" lon="-1.179969">
        <ele>129.938</ele>
        <time>2026-08-24T15:16:37.999Z</time>
      </trkpt>
      <trkpt lat="48.770378" lon="-1.179968">
        <ele>129.975</ele>
        <time>2026-08-24T15:16:39.999Z</time>
      </trkpt>
      <trkpt lat="48.770369" lon="-1.179969">
        <ele>129.953</ele>
        <time>2026-08-24T15:16:40.999Z</time>
      </trkpt>
      <trkpt lat="48.770349" lon="-1.179956">
        <ele>129.951</ele>
        <time>2026-08-24T15:16:42.999Z</time>
      </trkpt>
      <trkpt lat="48.770343" lon="-1.179943">
        <ele>130.115</ele>
        <time>2026-08-24T15:16:43.999Z</time>
      </trkpt>
      <trkpt lat="48.770334" lon="-1.179937">
        <ele>130.192</ele>
        <time>2026-08-24T15:16:46.999Z</time>
      </trkpt>
      <trkpt lat="48.770322" lon="-1.179936">
        <ele>130.474</ele>
        <time>2026-08-24T15:16:49.999Z</time>
      </trkpt>
      <trkpt lat="48.770287" lon="-1.179931">
        <ele>130.717</ele>
        <time>2026-08-24T15:16:50.999Z</time>
      </trkpt>
      <trkpt lat="48.770276" lon="-1.179928">
        <ele>130.887</ele>
        <time>2026-08-24T15:16:51.999Z</time>
      </trkpt>
      <trkpt lat="48.770260" lon="-1.179920">
        <ele>130.915</ele>
        <time>2026-08-24T15:16:52.999Z</time>
      </trkpt>
      <trkpt lat="48.770252" lon="-1.179909">
        <ele>131.009</ele>
        <time>2026-08-24T15:16:53.999Z</time>
      </trkpt>
      <trkpt lat="48.770230" lon="-1.179888">
        <ele>131.173</ele>
        <time>2026-08-24T15:16:54.999Z</time>
      </trkpt>
      <trkpt lat="48.770210" lon="-1.179877">
        <ele>131.269</ele>
        <time>2026-08-24T15:16:55.999Z</time>
      </trkpt>
      <trkpt lat="48.770200" lon="-1.179872">
        <ele>131.382</ele>
        <time>2026-08-24T15:16:56.999Z</time>
      </trkpt>
      <trkpt lat="48.770185" lon="-1.179861">
        <ele>131.399</ele>
        <time>2026-08-24T15:16:57.999Z</time>
      </trkpt>
      <trkpt lat="48.770175" lon="-1.179852">
        <ele>131.357</ele>
        <time>2026-08-24T15:16:58.999Z</time>
      </trkpt>
      <trkpt lat="48.770167" lon="-1.179832">
        <ele>131.355</ele>
        <time>2026-08-24T15:16:59.999Z</time>
      </trkpt>
      <trkpt lat="48.770159" lon="-1.179819">
        <ele>131.359</ele>
        <time>2026-08-24T15:17:00.999Z</time>
      </trkpt>
      <trkpt lat="48.770147" lon="-1.179796">
        <ele>131.346</ele>
        <time>2026-08-24T15:17:01.999Z</time>
      </trkpt>
      <trkpt lat="48.770133" lon="-1.179788">
        <ele>131.368</ele>
        <time>2026-08-24T15:17:02.999Z</time>
      </trkpt>
      <trkpt lat="48.770122" lon="-1.179763">
        <ele>131.385</ele>
        <time>2026-08-24T15:17:03.999Z</time>
      </trkpt>
      <trkpt lat="48.770108" lon="-1.179755">
        <ele>131.489</ele>
        <time>2026-08-24T15:17:04.999Z</time>
      </trkpt>
      <trkpt lat="48.770097" lon="-1.179743">
        <ele>131.417</ele>
        <time>2026-08-24T15:17:05.999Z</time>
      </trkpt>
      <trkpt lat="48.770086" lon="-1.179729">
        <ele>131.509</ele>
        <time>2026-08-24T15:17:06.999Z</time>
      </trkpt>
      <trkpt lat="48.770068" lon="-1.179712">
        <ele>131.680</ele>
        <time>2026-08-24T15:17:07.999Z</time>
      </trkpt>
      <trkpt lat="48.770063" lon="-1.179698">
        <ele>131.716</ele>
        <time>2026-08-24T15:17:08.999Z</time>
      </trkpt>
      <trkpt lat="48.770054" lon="-1.179683">
        <ele>131.819</ele>
        <time>2026-08-24T15:17:10.999Z</time>
      </trkpt>
      <trkpt lat="48.770043" lon="-1.179663">
        <ele>131.866</ele>
        <time>2026-08-24T15:17:11.999Z</time>
      </trkpt>
      <trkpt lat="48.770024" lon="-1.179652">
        <ele>131.934</ele>
        <time>2026-08-24T15:17:12.999Z</time>
      </trkpt>
      <trkpt lat="48.770015" lon="-1.179646">
        <ele>132.092</ele>
        <time>2026-08-24T15:17:13.999Z</time>
      </trkpt>
      <trkpt lat="48.770007" lon="-1.179640">
        <ele>132.176</ele>
        <time>2026-08-24T15:17:14.999Z</time>
      </trkpt>
      <trkpt lat="48.769996" lon="-1.179631">
        <ele>132.153</ele>
        <time>2026-08-24T15:17:16.999Z</time>
      </trkpt>
      <trkpt lat="48.769979" lon="-1.179626">
        <ele>132.285</ele>
        <time>2026-08-24T15:17:17.999Z</time>
      </trkpt>
      <trkpt lat="48.769962" lon="-1.179610">
        <ele>132.376</ele>
        <time>2026-08-24T15:17:18.999Z</time>
      </trkpt>
      <trkpt lat="48.769942" lon="-1.179597">
        <ele>132.490</ele>
        <time>2026-08-24T15:17:19.999Z</time>
      </trkpt>
      <trkpt lat="48.769919" lon="-1.179582">
        <ele>132.519</ele>
        <time>2026-08-24T15:17:20.999Z</time>
      </trkpt>
      <trkpt lat="48.769909" lon="-1.179572">
        <ele>132.509</ele>
        <time>2026-08-24T15:17:21.999Z</time>
      </trkpt>
      <trkpt lat="48.769892" lon="-1.179548">
        <ele>132.689</ele>
        <time>2026-08-24T15:17:22.999Z</time>
      </trkpt>
      <trkpt lat="48.769876" lon="-1.179534">
        <ele>132.625</ele>
        <time>2026-08-24T15:17:23.999Z</time>
      </trkpt>
      <trkpt lat="48.769867" lon="-1.179508">
        <ele>132.648</ele>
        <time>2026-08-24T15:17:24.999Z</time>
      </trkpt>
      <trkpt lat="48.769855" lon="-1.179501">
        <ele>133.215</ele>
        <time>2026-08-24T15:17:25.999Z</time>
      </trkpt>
      <trkpt lat="48.769838" lon="-1.179488">
        <ele>133.883</ele>
        <time>2026-08-24T15:17:26.999Z</time>
      </trkpt>
      <trkpt lat="48.769824" lon="-1.179475">
        <ele>133.961</ele>
        <time>2026-08-24T15:17:28.999Z</time>
      </trkpt>
      <trkpt lat="48.769810" lon="-1.179472">
        <ele>134.165</ele>
        <time>2026-08-24T15:17:29.999Z</time>
      </trkpt>
      <trkpt lat="48.769794" lon="-1.179461">
        <ele>134.552</ele>
        <time>2026-08-24T15:17:30.999Z</time>
      </trkpt>
      <trkpt lat="48.769785" lon="-1.179455">
        <ele>135.124</ele>
        <time>2026-08-24T15:17:31.999Z</time>
      </trkpt>
      <trkpt lat="48.769776" lon="-1.179443">
        <ele>135.639</ele>
        <time>2026-08-24T15:17:32.999Z</time>
      </trkpt>
      <trkpt lat="48.769763" lon="-1.179435">
        <ele>135.801</ele>
        <time>2026-08-24T15:17:34.999Z</time>
      </trkpt>
      <trkpt lat="48.769749" lon="-1.179433">
        <ele>135.921</ele>
        <time>2026-08-24T15:17:36.999Z</time>
      </trkpt>
      <trkpt lat="48.769732" lon="-1.179417">
        <ele>136.009</ele>
        <time>2026-08-24T15:17:38.999Z</time>
      </trkpt>
      <trkpt lat="48.769722" lon="-1.179415">
        <ele>136.065</ele>
        <time>2026-08-24T15:17:39.999Z</time>
      </trkpt>
      <trkpt lat="48.769709" lon="-1.179399">
        <ele>136.141</ele>
        <time>2026-08-24T15:17:41.999Z</time>
      </trkpt>
      <trkpt lat="48.769700" lon="-1.179387">
        <ele>136.244</ele>
        <time>2026-08-24T15:17:42.999Z</time>
      </trkpt>
      <trkpt lat="48.769688" lon="-1.179388">
        <ele>136.551</ele>
        <time>2026-08-24T15:17:43.999Z</time>
      </trkpt>
      <trkpt lat="48.769680" lon="-1.179371">
        <ele>136.989</ele>
        <time>2026-08-24T15:17:44.999Z</time>
      </trkpt>
      <trkpt lat="48.769666" lon="-1.179370">
        <ele>137.467</ele>
        <time>2026-08-24T15:17:45.999Z</time>
      </trkpt>
      <trkpt lat="48.769654" lon="-1.179357">
        <ele>137.891</ele>
        <time>2026-08-24T15:17:46.999Z</time>
      </trkpt>
      <trkpt lat="48.769639" lon="-1.179351">
        <ele>137.988</ele>
        <time>2026-08-24T15:17:47.999Z</time>
      </trkpt>
      <trkpt lat="48.769626" lon="-1.179341">
        <ele>138.060</ele>
        <time>2026-08-24T15:17:48.999Z</time>
      </trkpt>
      <trkpt lat="48.769619" lon="-1.179332">
        <ele>138.158</ele>
        <time>2026-08-24T15:17:49.999Z</time>
      </trkpt>
      <trkpt lat="48.769612" lon="-1.179321">
        <ele>138.252</ele>
        <time>2026-08-24T15:17:50.999Z</time>
      </trkpt>
      <trkpt lat="48.769602" lon="-1.179302">
        <ele>138.217</ele>
        <time>2026-08-24T15:17:51.999Z</time>
      </trkpt>
      <trkpt lat="48.769590" lon="-1.179287">
        <ele>138.209</ele>
        <time>2026-08-24T15:17:52.999Z</time>
      </trkpt>
      <trkpt lat="48.769582" lon="-1.179278">
        <ele>138.397</ele>
        <time>2026-08-24T15:17:53.999Z</time>
      </trkpt>
      <trkpt lat="48.769567" lon="-1.179277">
        <ele>138.353</ele>
        <time>2026-08-24T15:17:54.999Z</time>
      </trkpt>
      <trkpt lat="48.769552" lon="-1.179277">
        <ele>138.336</ele>
        <time>2026-08-24T15:17:55.999Z</time>
      </trkpt>
      <trkpt lat="48.769542" lon="-1.179278">
        <ele>138.423</ele>
        <time>2026-08-24T15:17:56.999Z</time>
      </trkpt>
      <trkpt lat="48.769530" lon="-1.179277">
        <ele>138.591</ele>
        <time>2026-08-24T15:17:57.999Z</time>
      </trkpt>
      <trkpt lat="48.769522" lon="-1.179270">
        <ele>138.689</ele>
        <time>2026-08-24T15:17:58.999Z</time>
      </trkpt>
      <trkpt lat="48.769511" lon="-1.179251">
        <ele>138.683</ele>
        <time>2026-08-24T15:17:59.999Z</time>
      </trkpt>
      <trkpt lat="48.769500" lon="-1.179239">
        <ele>138.640</ele>
        <time>2026-08-24T15:18:00.999Z</time>
      </trkpt>
      <trkpt lat="48.769490" lon="-1.179235">
        <ele>138.682</ele>
        <time>2026-08-24T15:18:01.999Z</time>
      </trkpt>
      <trkpt lat="48.769480" lon="-1.179233">
        <ele>138.632</ele>
        <time>2026-08-24T15:18:02.999Z</time>
      </trkpt>
      <trkpt lat="48.769474" lon="-1.179219">
        <ele>138.692</ele>
        <time>2026-08-24T15:18:03.999Z</time>
      </trkpt>
      <trkpt lat="48.769464" lon="-1.179186">
        <ele>138.611</ele>
        <time>2026-08-24T15:18:04.999Z</time>
      </trkpt>
      <trkpt lat="48.769458" lon="-1.179134">
        <ele>138.509</ele>
        <time>2026-08-24T15:18:06.999Z</time>
      </trkpt>
      <trkpt lat="48.769445" lon="-1.179117">
        <ele>138.565</ele>
        <time>2026-08-24T15:18:07.999Z</time>
      </trkpt>
      <trkpt lat="48.769430" lon="-1.179105">
        <ele>138.551</ele>
        <time>2026-08-24T15:18:09.999Z</time>
      </trkpt>
      <trkpt lat="48.769421" lon="-1.179094">
        <ele>138.544</ele>
        <time>2026-08-24T15:18:10.999Z</time>
      </trkpt>
      <trkpt lat="48.769409" lon="-1.179081">
        <ele>138.581</ele>
        <time>2026-08-24T15:18:11.999Z</time>
      </trkpt>
      <trkpt lat="48.769401" lon="-1.179070">
        <ele>138.569</ele>
        <time>2026-08-24T15:18:12.999Z</time>
      </trkpt>
      <trkpt lat="48.769392" lon="-1.179053">
        <ele>138.517</ele>
        <time>2026-08-24T15:18:13.999Z</time>
      </trkpt>
      <trkpt lat="48.769368" lon="-1.179053">
        <ele>138.671</ele>
        <time>2026-08-24T15:18:14.999Z</time>
      </trkpt>
      <trkpt lat="48.769341" lon="-1.179046">
        <ele>138.718</ele>
        <time>2026-08-24T15:18:15.999Z</time>
      </trkpt>
      <trkpt lat="48.769322" lon="-1.179027">
        <ele>138.870</ele>
        <time>2026-08-24T15:18:16.999Z</time>
      </trkpt>
      <trkpt lat="48.769306" lon="-1.179010">
        <ele>139.155</ele>
        <time>2026-08-24T15:18:17.999Z</time>
      </trkpt>
      <trkpt lat="48.769294" lon="-1.179000">
        <ele>139.307</ele>
        <time>2026-08-24T15:18:18.999Z</time>
      </trkpt>
      <trkpt lat="48.769286" lon="-1.178987">
        <ele>139.417</ele>
        <time>2026-08-24T15:18:19.999Z</time>
      </trkpt>
      <trkpt lat="48.769279" lon="-1.178973">
        <ele>139.509</ele>
        <time>2026-08-24T15:18:20.999Z</time>
      </trkpt>
      <trkpt lat="48.769263" lon="-1.178967">
        <ele>139.627</ele>
        <time>2026-08-24T15:18:21.999Z</time>
      </trkpt>
      <trkpt lat="48.769254" lon="-1.178961">
        <ele>139.773</ele>
        <time>2026-08-24T15:18:22.999Z</time>
      </trkpt>
      <trkpt lat="48.769237" lon="-1.178937">
        <ele>139.796</ele>
        <time>2026-08-24T15:18:24.999Z</time>
      </trkpt>
      <trkpt lat="48.769223" lon="-1.178936">
        <ele>139.793</ele>
        <time>2026-08-24T15:18:25.999Z</time>
      </trkpt>
      <trkpt lat="48.769208" lon="-1.178933">
        <ele>139.711</ele>
        <time>2026-08-24T15:18:26.999Z</time>
      </trkpt>
      <trkpt lat="48.769193" lon="-1.178901">
        <ele>139.789</ele>
        <time>2026-08-24T15:18:27.999Z</time>
      </trkpt>
      <trkpt lat="48.769178" lon="-1.178881">
        <ele>139.943</ele>
        <time>2026-08-24T15:18:28.999Z</time>
      </trkpt>
      <trkpt lat="48.769172" lon="-1.178867">
        <ele>140.240</ele>
        <time>2026-08-24T15:18:29.999Z</time>
      </trkpt>
      <trkpt lat="48.769159" lon="-1.178855">
        <ele>140.422</ele>
        <time>2026-08-24T15:18:31.999Z</time>
      </trkpt>
      <trkpt lat="48.769154" lon="-1.178835">
        <ele>140.572</ele>
        <time>2026-08-24T15:18:33.999Z</time>
      </trkpt>
      <trkpt lat="48.769130" lon="-1.178824">
        <ele>140.513</ele>
        <time>2026-08-24T15:18:34.999Z</time>
      </trkpt>
      <trkpt lat="48.769117" lon="-1.178810">
        <ele>140.514</ele>
        <time>2026-08-24T15:18:35.999Z</time>
      </trkpt>
      <trkpt lat="48.769100" lon="-1.178797">
        <ele>140.509</ele>
        <time>2026-08-24T15:18:36.999Z</time>
      </trkpt>
      <trkpt lat="48.769086" lon="-1.178787">
        <ele>140.549</ele>
        <time>2026-08-24T15:18:37.999Z</time>
      </trkpt>
      <trkpt lat="48.769075" lon="-1.178776">
        <ele>140.545</ele>
        <time>2026-08-24T15:18:38.999Z</time>
      </trkpt>
      <trkpt lat="48.769066" lon="-1.178785">
        <ele>140.568</ele>
        <time>2026-08-24T15:18:39.999Z</time>
      </trkpt>
      <trkpt lat="48.769057" lon="-1.178781">
        <ele>140.595</ele>
        <time>2026-08-24T15:18:40.999Z</time>
      </trkpt>
      <trkpt lat="48.769045" lon="-1.178763">
        <ele>140.743</ele>
        <time>2026-08-24T15:18:41.999Z</time>
      </trkpt>
      <trkpt lat="48.769036" lon="-1.178751">
        <ele>140.731</ele>
        <time>2026-08-24T15:18:42.999Z</time>
      </trkpt>
      <trkpt lat="48.769025" lon="-1.178740">
        <ele>140.755</ele>
        <time>2026-08-24T15:18:43.999Z</time>
      </trkpt>
      <trkpt lat="48.769020" lon="-1.178724">
        <ele>140.772</ele>
        <time>2026-08-24T15:18:45.999Z</time>
      </trkpt>
      <trkpt lat="48.769010" lon="-1.178705">
        <ele>140.724</ele>
        <time>2026-08-24T15:18:46.999Z</time>
      </trkpt>
      <trkpt lat="48.768992" lon="-1.178692">
        <ele>140.754</ele>
        <time>2026-08-24T15:18:47.999Z</time>
      </trkpt>
      <trkpt lat="48.768972" lon="-1.178679">
        <ele>140.756</ele>
        <time>2026-08-24T15:18:48.999Z</time>
      </trkpt>
      <trkpt lat="48.768958" lon="-1.178666">
        <ele>140.711</ele>
        <time>2026-08-24T15:18:49.999Z</time>
      </trkpt>
      <trkpt lat="48.768947" lon="-1.178655">
        <ele>140.609</ele>
        <time>2026-08-24T15:18:50.999Z</time>
      </trkpt>
      <trkpt lat="48.768938" lon="-1.178638">
        <ele>140.527</ele>
        <time>2026-08-24T15:18:51.999Z</time>
      </trkpt>
      <trkpt lat="48.768930" lon="-1.178646">
        <ele>140.533</ele>
        <time>2026-08-24T15:18:52.999Z</time>
      </trkpt>
      <trkpt lat="48.768919" lon="-1.178641">
        <ele>140.546</ele>
        <time>2026-08-24T15:18:54.999Z</time>
      </trkpt>
      <trkpt lat="48.768907" lon="-1.178615">
        <ele>140.563</ele>
        <time>2026-08-24T15:18:57.999Z</time>
      </trkpt>
      <trkpt lat="48.768901" lon="-1.178599">
        <ele>140.651</ele>
        <time>2026-08-24T15:18:58.999Z</time>
      </trkpt>
      <trkpt lat="48.768893" lon="-1.178591">
        <ele>140.839</ele>
        <time>2026-08-24T15:18:59.999Z</time>
      </trkpt>
      <trkpt lat="48.768871" lon="-1.178591">
        <ele>140.933</ele>
        <time>2026-08-24T15:19:01.999Z</time>
      </trkpt>
      <trkpt lat="48.768857" lon="-1.178585">
        <ele>141.010</ele>
        <time>2026-08-24T15:19:03.999Z</time>
      </trkpt>
      <trkpt lat="48.768842" lon="-1.178572">
        <ele>141.042</ele>
        <time>2026-08-24T15:19:04.999Z</time>
      </trkpt>
      <trkpt lat="48.768827" lon="-1.178567">
        <ele>141.067</ele>
        <time>2026-08-24T15:19:05.999Z</time>
      </trkpt>
      <trkpt lat="48.768809" lon="-1.178559">
        <ele>141.081</ele>
        <time>2026-08-24T15:19:06.999Z</time>
      </trkpt>
      <trkpt lat="48.768798" lon="-1.178559">
        <ele>141.019</ele>
        <time>2026-08-24T15:19:07.999Z</time>
      </trkpt>
      <trkpt lat="48.768784" lon="-1.178555">
        <ele>141.009</ele>
        <time>2026-08-24T15:19:08.999Z</time>
      </trkpt>
      <trkpt lat="48.768773" lon="-1.178541">
        <ele>141.088</ele>
        <time>2026-08-24T15:19:09.999Z</time>
      </trkpt>
      <trkpt lat="48.768758" lon="-1.178535">
        <ele>141.094</ele>
        <time>2026-08-24T15:19:10.999Z</time>
      </trkpt>
      <trkpt lat="48.768745" lon="-1.178520">
        <ele>141.087</ele>
        <time>2026-08-24T15:19:11.999Z</time>
      </trkpt>
      <trkpt lat="48.768731" lon="-1.178514">
        <ele>141.024</ele>
        <time>2026-08-24T15:19:12.999Z</time>
      </trkpt>
      <trkpt lat="48.768720" lon="-1.178514">
        <ele>141.082</ele>
        <time>2026-08-24T15:19:13.999Z</time>
      </trkpt>
      <trkpt lat="48.768709" lon="-1.178505">
        <ele>141.060</ele>
        <time>2026-08-24T15:19:14.999Z</time>
      </trkpt>
      <trkpt lat="48.768700" lon="-1.178496">
        <ele>141.034</ele>
        <time>2026-08-24T15:19:15.999Z</time>
      </trkpt>
      <trkpt lat="48.768690" lon="-1.178484">
        <ele>141.091</ele>
        <time>2026-08-24T15:19:16.999Z</time>
      </trkpt>
      <trkpt lat="48.768675" lon="-1.178467">
        <ele>141.043</ele>
        <time>2026-08-24T15:19:17.999Z</time>
      </trkpt>
      <trkpt lat="48.768661" lon="-1.178457">
        <ele>141.019</ele>
        <time>2026-08-24T15:19:18.999Z</time>
      </trkpt>
      <trkpt lat="48.768651" lon="-1.178444">
        <ele>141.009</ele>
        <time>2026-08-24T15:19:19.999Z</time>
      </trkpt>
      <trkpt lat="48.768639" lon="-1.178426">
        <ele>140.919</ele>
        <time>2026-08-24T15:19:20.999Z</time>
      </trkpt>
      <trkpt lat="48.768628" lon="-1.178412">
        <ele>140.809</ele>
        <time>2026-08-24T15:19:21.999Z</time>
      </trkpt>
      <trkpt lat="48.768617" lon="-1.178400">
        <ele>140.713</ele>
        <time>2026-08-24T15:19:22.999Z</time>
      </trkpt>
      <trkpt lat="48.768610" lon="-1.178386">
        <ele>140.739</ele>
        <time>2026-08-24T15:19:23.999Z</time>
      </trkpt>
      <trkpt lat="48.768596" lon="-1.178370">
        <ele>140.642</ele>
        <time>2026-08-24T15:19:24.999Z</time>
      </trkpt>
      <trkpt lat="48.768582" lon="-1.178361">
        <ele>140.459</ele>
        <time>2026-08-24T15:19:25.999Z</time>
      </trkpt>
      <trkpt lat="48.768568" lon="-1.178352">
        <ele>140.177</ele>
        <time>2026-08-24T15:19:26.999Z</time>
      </trkpt>
      <trkpt lat="48.768555" lon="-1.178341">
        <ele>139.925</ele>
        <time>2026-08-24T15:19:27.999Z</time>
      </trkpt>
      <trkpt lat="48.768544" lon="-1.178320">
        <ele>139.959</ele>
        <time>2026-08-24T15:19:28.999Z</time>
      </trkpt>
      <trkpt lat="48.768533" lon="-1.178303">
        <ele>139.926</ele>
        <time>2026-08-24T15:19:29.999Z</time>
      </trkpt>
      <trkpt lat="48.768525" lon="-1.178297">
        <ele>139.968</ele>
        <time>2026-08-24T15:19:30.999Z</time>
      </trkpt>
      <trkpt lat="48.768514" lon="-1.178287">
        <ele>139.915</ele>
        <time>2026-08-24T15:19:31.999Z</time>
      </trkpt>
      <trkpt lat="48.768504" lon="-1.178291">
        <ele>139.965</ele>
        <time>2026-08-24T15:19:32.999Z</time>
      </trkpt>
      <trkpt lat="48.768495" lon="-1.178289">
        <ele>139.911</ele>
        <time>2026-08-24T15:19:33.999Z</time>
      </trkpt>
      <trkpt lat="48.768485" lon="-1.178281">
        <ele>139.909</ele>
        <time>2026-08-24T15:19:34.999Z</time>
      </trkpt>
      <trkpt lat="48.768473" lon="-1.178276">
        <ele>139.963</ele>
        <time>2026-08-24T15:19:36.999Z</time>
      </trkpt>
      <trkpt lat="48.768464" lon="-1.178275">
        <ele>139.769</ele>
        <time>2026-08-24T15:19:37.999Z</time>
      </trkpt>
      <trkpt lat="48.768454" lon="-1.178275">
        <ele>139.742</ele>
        <time>2026-08-24T15:19:38.999Z</time>
      </trkpt>
      <trkpt lat="48.768440" lon="-1.178262">
        <ele>139.779</ele>
        <time>2026-08-24T15:19:39.999Z</time>
      </trkpt>
      <trkpt lat="48.768431" lon="-1.178262">
        <ele>139.747</ele>
        <time>2026-08-24T15:19:40.999Z</time>
      </trkpt>
      <trkpt lat="48.768419" lon="-1.178257">
        <ele>139.715</ele>
        <time>2026-08-24T15:19:41.999Z</time>
      </trkpt>
      <trkpt lat="48.768409" lon="-1.178255">
        <ele>139.699</ele>
        <time>2026-08-24T15:19:42.999Z</time>
      </trkpt>
      <trkpt lat="48.768393" lon="-1.178247">
        <ele>139.546</ele>
        <time>2026-08-24T15:19:43.999Z</time>
      </trkpt>
      <trkpt lat="48.768382" lon="-1.178245">
        <ele>139.518</ele>
        <time>2026-08-24T15:19:44.999Z</time>
      </trkpt>
      <trkpt lat="48.768368" lon="-1.178236">
        <ele>139.593</ele>
        <time>2026-08-24T15:19:46.999Z</time>
      </trkpt>
      <trkpt lat="48.768357" lon="-1.178228">
        <ele>139.565</ele>
        <time>2026-08-24T15:19:47.999Z</time>
      </trkpt>
      <trkpt lat="48.768346" lon="-1.178211">
        <ele>139.621</ele>
        <time>2026-08-24T15:19:48.999Z</time>
      </trkpt>
      <trkpt lat="48.768339" lon="-1.178202">
        <ele>139.609</ele>
        <time>2026-08-24T15:19:49.999Z</time>
      </trkpt>
      <trkpt lat="48.768328" lon="-1.178196">
        <ele>139.611</ele>
        <time>2026-08-24T15:19:50.999Z</time>
      </trkpt>
      <trkpt lat="48.768314" lon="-1.178184">
        <ele>139.747</ele>
        <time>2026-08-24T15:19:51.999Z</time>
      </trkpt>
      <trkpt lat="48.768300" lon="-1.178170">
        <ele>139.790</ele>
        <time>2026-08-24T15:19:52.999Z</time>
      </trkpt>
      <trkpt lat="48.768286" lon="-1.178153">
        <ele>139.797</ele>
        <time>2026-08-24T15:19:53.999Z</time>
      </trkpt>
      <trkpt lat="48.768274" lon="-1.178143">
        <ele>139.855</ele>
        <time>2026-08-24T15:19:54.999Z</time>
      </trkpt>
      <trkpt lat="48.768265" lon="-1.178139">
        <ele>139.823</ele>
        <time>2026-08-24T15:19:55.999Z</time>
      </trkpt>
      <trkpt lat="48.768250" lon="-1.178119">
        <ele>139.827</ele>
        <time>2026-08-24T15:19:57.999Z</time>
      </trkpt>
      <trkpt lat="48.768230" lon="-1.178120">
        <ele>139.824</ele>
        <time>2026-08-24T15:19:59.999Z</time>
      </trkpt>
      <trkpt lat="48.768221" lon="-1.178119">
        <ele>139.826</ele>
        <time>2026-08-24T15:20:00.999Z</time>
      </trkpt>
      <trkpt lat="48.768208" lon="-1.178118">
        <ele>139.823</ele>
        <time>2026-08-24T15:20:01.999Z</time>
      </trkpt>
      <trkpt lat="48.768198" lon="-1.178111">
        <ele>139.883</ele>
        <time>2026-08-24T15:20:02.999Z</time>
      </trkpt>
      <trkpt lat="48.768191" lon="-1.178101">
        <ele>139.811</ele>
        <time>2026-08-24T15:20:03.999Z</time>
      </trkpt>
      <trkpt lat="48.768183" lon="-1.178091">
        <ele>139.809</ele>
        <time>2026-08-24T15:20:05.999Z</time>
      </trkpt>
      <trkpt lat="48.768169" lon="-1.178089">
        <ele>139.884</ele>
        <time>2026-08-24T15:20:07.999Z</time>
      </trkpt>
      <trkpt lat="48.768155" lon="-1.178090">
        <ele>139.810</ele>
        <time>2026-08-24T15:20:08.999Z</time>
      </trkpt>
      <trkpt lat="48.768140" lon="-1.178084">
        <ele>139.743</ele>
        <time>2026-08-24T15:20:09.999Z</time>
      </trkpt>
      <trkpt lat="48.768127" lon="-1.178078">
        <ele>139.760</ele>
        <time>2026-08-24T15:20:10.999Z</time>
      </trkpt>
      <trkpt lat="48.768111" lon="-1.178071">
        <ele>139.798</ele>
        <time>2026-08-24T15:20:11.999Z</time>
      </trkpt>
      <trkpt lat="48.768093" lon="-1.178068">
        <ele>139.616</ele>
        <time>2026-08-24T15:20:12.999Z</time>
      </trkpt>
      <trkpt lat="48.768079" lon="-1.178068">
        <ele>139.550</ele>
        <time>2026-08-24T15:20:13.999Z</time>
      </trkpt>
      <trkpt lat="48.768069" lon="-1.178074">
        <ele>139.497</ele>
        <time>2026-08-24T15:20:14.999Z</time>
      </trkpt>
      <trkpt lat="48.768054" lon="-1.178067">
        <ele>139.489</ele>
        <time>2026-08-24T15:20:15.999Z</time>
      </trkpt>
      <trkpt lat="48.768041" lon="-1.178065">
        <ele>139.483</ele>
        <time>2026-08-24T15:20:16.999Z</time>
      </trkpt>
      <trkpt lat="48.768021" lon="-1.178060">
        <ele>139.225</ele>
        <time>2026-08-24T15:20:18.999Z</time>
      </trkpt>
      <trkpt lat="48.768006" lon="-1.178065">
        <ele>139.217</ele>
        <time>2026-08-24T15:20:19.999Z</time>
      </trkpt>
      <trkpt lat="48.767994" lon="-1.178067">
        <ele>139.109</ele>
        <time>2026-08-24T15:20:20.999Z</time>
      </trkpt>
      <trkpt lat="48.767978" lon="-1.178077">
        <ele>139.140</ele>
        <time>2026-08-24T15:20:22.999Z</time>
      </trkpt>
      <trkpt lat="48.767962" lon="-1.178076">
        <ele>138.846</ele>
        <time>2026-08-24T15:20:23.999Z</time>
      </trkpt>
      <trkpt lat="48.767949" lon="-1.178078">
        <ele>138.749</ele>
        <time>2026-08-24T15:20:24.999Z</time>
      </trkpt>
      <trkpt lat="48.767929" lon="-1.178076">
        <ele>138.626</ele>
        <time>2026-08-24T15:20:25.999Z</time>
      </trkpt>
      <trkpt lat="48.767917" lon="-1.178078">
        <ele>138.614</ele>
        <time>2026-08-24T15:20:26.999Z</time>
      </trkpt>
      <trkpt lat="48.767907" lon="-1.178076">
        <ele>138.642</ele>
        <time>2026-08-24T15:20:27.999Z</time>
      </trkpt>
      <trkpt lat="48.767885" lon="-1.178059">
        <ele>138.526</ele>
        <time>2026-08-24T15:20:29.999Z</time>
      </trkpt>
      <trkpt lat="48.767875" lon="-1.178061">
        <ele>138.583</ele>
        <time>2026-08-24T15:20:30.999Z</time>
      </trkpt>
      <trkpt lat="48.767859" lon="-1.178056">
        <ele>138.595</ele>
        <time>2026-08-24T15:20:31.999Z</time>
      </trkpt>
      <trkpt lat="48.767848" lon="-1.178063">
        <ele>138.562</ele>
        <time>2026-08-24T15:20:32.999Z</time>
      </trkpt>
      <trkpt lat="48.767837" lon="-1.178073">
        <ele>138.583</ele>
        <time>2026-08-24T15:20:33.999Z</time>
      </trkpt>
      <trkpt lat="48.767823" lon="-1.178077">
        <ele>138.511</ele>
        <time>2026-08-24T15:20:34.999Z</time>
      </trkpt>
      <trkpt lat="48.767811" lon="-1.178076">
        <ele>138.509</ele>
        <time>2026-08-24T15:20:35.999Z</time>
      </trkpt>
      <trkpt lat="48.767795" lon="-1.178083">
        <ele>138.538</ele>
        <time>2026-08-24T15:20:36.999Z</time>
      </trkpt>
      <trkpt lat="48.767786" lon="-1.178091">
        <ele>138.584</ele>
        <time>2026-08-24T15:20:37.999Z</time>
      </trkpt>
      <trkpt lat="48.767773" lon="-1.178094">
        <ele>138.587</ele>
        <time>2026-08-24T15:20:38.999Z</time>
      </trkpt>
      <trkpt lat="48.767761" lon="-1.178104">
        <ele>138.584</ele>
        <time>2026-08-24T15:20:39.999Z</time>
      </trkpt>
      <trkpt lat="48.767749" lon="-1.178109">
        <ele>138.552</ele>
        <time>2026-08-24T15:20:40.999Z</time>
      </trkpt>
      <trkpt lat="48.767734" lon="-1.178119">
        <ele>138.590</ele>
        <time>2026-08-24T15:20:41.999Z</time>
      </trkpt>
      <trkpt lat="48.767722" lon="-1.178119">
        <ele>138.584</ele>
        <time>2026-08-24T15:20:42.999Z</time>
      </trkpt>
      <trkpt lat="48.767710" lon="-1.178120">
        <ele>138.511</ele>
        <time>2026-08-24T15:20:43.999Z</time>
      </trkpt>
      <trkpt lat="48.767700" lon="-1.178121">
        <ele>138.683</ele>
        <time>2026-08-24T15:20:44.999Z</time>
      </trkpt>
      <trkpt lat="48.767691" lon="-1.178116">
        <ele>139.171</ele>
        <time>2026-08-24T15:20:45.999Z</time>
      </trkpt>
      <trkpt lat="48.767665" lon="-1.178122">
        <ele>140.141</ele>
        <time>2026-08-24T15:20:47.999Z</time>
      </trkpt>
      <trkpt lat="48.767648" lon="-1.178122">
        <ele>140.615</ele>
        <time>2026-08-24T15:20:48.999Z</time>
      </trkpt>
      <trkpt lat="48.767635" lon="-1.178130">
        <ele>140.709</ele>
        <time>2026-08-24T15:20:49.999Z</time>
      </trkpt>
      <trkpt lat="48.767626" lon="-1.178132">
        <ele>140.889</ele>
        <time>2026-08-24T15:20:50.999Z</time>
      </trkpt>
      <trkpt lat="48.767615" lon="-1.178131">
        <ele>141.075</ele>
        <time>2026-08-24T15:20:51.999Z</time>
      </trkpt>
      <trkpt lat="48.767604" lon="-1.178138">
        <ele>141.148</ele>
        <time>2026-08-24T15:20:52.999Z</time>
      </trkpt>
      <trkpt lat="48.767588" lon="-1.178136">
        <ele>141.115</ele>
        <time>2026-08-24T15:20:53.999Z</time>
      </trkpt>
      <trkpt lat="48.767569" lon="-1.178133">
        <ele>141.213</ele>
        <time>2026-08-24T15:20:54.999Z</time>
      </trkpt>
      <trkpt lat="48.767559" lon="-1.178138">
        <ele>141.241</ele>
        <time>2026-08-24T15:20:55.999Z</time>
      </trkpt>
      <trkpt lat="48.767549" lon="-1.178149">
        <ele>141.235</ele>
        <time>2026-08-24T15:20:57.999Z</time>
      </trkpt>
      <trkpt lat="48.767539" lon="-1.178154">
        <ele>141.212</ele>
        <time>2026-08-24T15:20:58.999Z</time>
      </trkpt>
      <trkpt lat="48.767524" lon="-1.178157">
        <ele>141.254</ele>
        <time>2026-08-24T15:20:59.999Z</time>
      </trkpt>
      <trkpt lat="48.767507" lon="-1.178155">
        <ele>141.217</ele>
        <time>2026-08-24T15:21:00.999Z</time>
      </trkpt>
      <trkpt lat="48.767488" lon="-1.178150">
        <ele>141.287</ele>
        <time>2026-08-24T15:21:01.999Z</time>
      </trkpt>
      <trkpt lat="48.767478" lon="-1.178162">
        <ele>141.215</ele>
        <time>2026-08-24T15:21:02.999Z</time>
      </trkpt>
      <trkpt lat="48.767466" lon="-1.178166">
        <ele>141.209</ele>
        <time>2026-08-24T15:21:03.999Z</time>
      </trkpt>
      <trkpt lat="48.767456" lon="-1.178171">
        <ele>141.233</ele>
        <time>2026-08-24T15:21:05.999Z</time>
      </trkpt>
      <trkpt lat="48.767446" lon="-1.178169">
        <ele>141.279</ele>
        <time>2026-08-24T15:21:06.999Z</time>
      </trkpt>
      <trkpt lat="48.767435" lon="-1.178166">
        <ele>141.162</ele>
        <time>2026-08-24T15:21:07.999Z</time>
      </trkpt>
      <trkpt lat="48.767415" lon="-1.178174">
        <ele>141.099</ele>
        <time>2026-08-24T15:21:08.999Z</time>
      </trkpt>
      <trkpt lat="48.767398" lon="-1.178181">
        <ele>140.877</ele>
        <time>2026-08-24T15:21:09.999Z</time>
      </trkpt>
      <trkpt lat="48.767387" lon="-1.178186">
        <ele>140.715</ele>
        <time>2026-08-24T15:21:10.999Z</time>
      </trkpt>
      <trkpt lat="48.767372" lon="-1.178191">
        <ele>140.739</ele>
        <time>2026-08-24T15:21:12.999Z</time>
      </trkpt>
      <trkpt lat="48.767362" lon="-1.178193">
        <ele>140.666</ele>
        <time>2026-08-24T15:21:13.999Z</time>
      </trkpt>
      <trkpt lat="48.767349" lon="-1.178196">
        <ele>140.618</ele>
        <time>2026-08-24T15:21:14.999Z</time>
      </trkpt>
      <trkpt lat="48.767334" lon="-1.178206">
        <ele>140.624</ele>
        <time>2026-08-24T15:21:15.999Z</time>
      </trkpt>
      <trkpt lat="48.767316" lon="-1.178208">
        <ele>140.604</ele>
        <time>2026-08-24T15:21:16.999Z</time>
      </trkpt>
      <trkpt lat="48.767306" lon="-1.178210">
        <ele>140.514</ele>
        <time>2026-08-24T15:21:17.999Z</time>
      </trkpt>
      <trkpt lat="48.767295" lon="-1.178216">
        <ele>140.409</ele>
        <time>2026-08-24T15:21:18.999Z</time>
      </trkpt>
      <trkpt lat="48.767282" lon="-1.178225">
        <ele>140.484</ele>
        <time>2026-08-24T15:21:19.999Z</time>
      </trkpt>
      <trkpt lat="48.767271" lon="-1.178225">
        <ele>140.420</ele>
        <time>2026-08-24T15:21:20.999Z</time>
      </trkpt>
      <trkpt lat="48.767260" lon="-1.178224">
        <ele>140.493</ele>
        <time>2026-08-24T15:21:21.999Z</time>
      </trkpt>
      <trkpt lat="48.767250" lon="-1.178229">
        <ele>140.480</ele>
        <time>2026-08-24T15:21:22.999Z</time>
      </trkpt>
      <trkpt lat="48.767237" lon="-1.178235">
        <ele>140.468</ele>
        <time>2026-08-24T15:21:23.999Z</time>
      </trkpt>
      <trkpt lat="48.767227" lon="-1.178236">
        <ele>140.446</ele>
        <time>2026-08-24T15:21:24.999Z</time>
      </trkpt>
      <trkpt lat="48.767208" lon="-1.178238">
        <ele>140.450</ele>
        <time>2026-08-24T15:21:26.999Z</time>
      </trkpt>
      <trkpt lat="48.767182" lon="-1.178235">
        <ele>140.417</ele>
        <time>2026-08-24T15:21:28.999Z</time>
      </trkpt>
      <trkpt lat="48.767165" lon="-1.178237">
        <ele>140.459</ele>
        <time>2026-08-24T15:21:29.999Z</time>
      </trkpt>
      <trkpt lat="48.767151" lon="-1.178236">
        <ele>140.417</ele>
        <time>2026-08-24T15:21:30.999Z</time>
      </trkpt>
      <trkpt lat="48.767141" lon="-1.178242">
        <ele>140.487</ele>
        <time>2026-08-24T15:21:32.999Z</time>
      </trkpt>
      <trkpt lat="48.767126" lon="-1.178246">
        <ele>140.415</ele>
        <time>2026-08-24T15:21:33.999Z</time>
      </trkpt>
      <trkpt lat="48.767110" lon="-1.178249">
        <ele>140.409</ele>
        <time>2026-08-24T15:21:34.999Z</time>
      </trkpt>
      <trkpt lat="48.767094" lon="-1.178254">
        <ele>140.453</ele>
        <time>2026-08-24T15:21:35.999Z</time>
      </trkpt>
      <trkpt lat="48.767075" lon="-1.178256">
        <ele>140.439</ele>
        <time>2026-08-24T15:21:36.999Z</time>
      </trkpt>
      <trkpt lat="48.767060" lon="-1.178252">
        <ele>140.422</ele>
        <time>2026-08-24T15:21:37.999Z</time>
      </trkpt>
      <trkpt lat="48.767051" lon="-1.178248">
        <ele>140.419</ele>
        <time>2026-08-24T15:21:38.999Z</time>
      </trkpt>
      <trkpt lat="48.767035" lon="-1.178257">
        <ele>140.457</ele>
        <time>2026-08-24T15:21:40.999Z</time>
      </trkpt>
      <trkpt lat="48.767026" lon="-1.178258">
        <ele>140.475</ele>
        <time>2026-08-24T15:21:41.999Z</time>
      </trkpt>
      <trkpt lat="48.767005" lon="-1.178271">
        <ele>140.449</ele>
        <time>2026-08-24T15:21:43.999Z</time>
      </trkpt>
      <trkpt lat="48.766991" lon="-1.178277">
        <ele>140.466</ele>
        <time>2026-08-24T15:21:44.999Z</time>
      </trkpt>
      <trkpt lat="48.766978" lon="-1.178282">
        <ele>140.478</ele>
        <time>2026-08-24T15:21:45.999Z</time>
      </trkpt>
      <trkpt lat="48.766966" lon="-1.178284">
        <ele>140.459</ele>
        <time>2026-08-24T15:21:46.999Z</time>
      </trkpt>
      <trkpt lat="48.766954" lon="-1.178276">
        <ele>140.403</ele>
        <time>2026-08-24T15:21:47.999Z</time>
      </trkpt>
      <trkpt lat="48.766944" lon="-1.178268">
        <ele>140.423</ele>
        <time>2026-08-24T15:21:48.999Z</time>
      </trkpt>
      <trkpt lat="48.766924" lon="-1.178265">
        <ele>140.309</ele>
        <time>2026-08-24T15:21:50.999Z</time>
      </trkpt>
      <trkpt lat="48.766910" lon="-1.178260">
        <ele>140.297</ele>
        <time>2026-08-24T15:21:51.999Z</time>
      </trkpt>
      <trkpt lat="48.766897" lon="-1.178256">
        <ele>140.123</ele>
        <time>2026-08-24T15:21:52.999Z</time>
      </trkpt>
      <trkpt lat="48.766885" lon="-1.178258">
        <ele>140.046</ele>
        <time>2026-08-24T15:21:53.999Z</time>
      </trkpt>
      <trkpt lat="48.766878" lon="-1.178248">
        <ele>140.063</ele>
        <time>2026-08-24T15:21:54.999Z</time>
      </trkpt>
      <trkpt lat="48.766865" lon="-1.178236">
        <ele>140.061</ele>
        <time>2026-08-24T15:21:55.999Z</time>
      </trkpt>
      <trkpt lat="48.766853" lon="-1.178227">
        <ele>140.079</ele>
        <time>2026-08-24T15:21:56.999Z</time>
      </trkpt>
      <trkpt lat="48.766841" lon="-1.178222">
        <ele>140.063</ele>
        <time>2026-08-24T15:21:57.999Z</time>
      </trkpt>
      <trkpt lat="48.766829" lon="-1.178214">
        <ele>139.690</ele>
        <time>2026-08-24T15:21:58.999Z</time>
      </trkpt>
      <trkpt lat="48.766817" lon="-1.178205">
        <ele>139.062</ele>
        <time>2026-08-24T15:21:59.999Z</time>
      </trkpt>
      <trkpt lat="48.766805" lon="-1.178193">
        <ele>138.678</ele>
        <time>2026-08-24T15:22:00.999Z</time>
      </trkpt>
      <trkpt lat="48.766794" lon="-1.178183">
        <ele>138.033</ele>
        <time>2026-08-24T15:22:01.999Z</time>
      </trkpt>
      <trkpt lat="48.766784" lon="-1.178169">
        <ele>137.626</ele>
        <time>2026-08-24T15:22:02.999Z</time>
      </trkpt>
      <trkpt lat="48.766773" lon="-1.178153">
        <ele>137.609</ele>
        <time>2026-08-24T15:22:03.999Z</time>
      </trkpt>
      <trkpt lat="48.766754" lon="-1.178144">
        <ele>137.629</ele>
        <time>2026-08-24T15:22:04.999Z</time>
      </trkpt>
      <trkpt lat="48.766744" lon="-1.178135">
        <ele>137.665</ele>
        <time>2026-08-24T15:22:05.999Z</time>
      </trkpt>
      <trkpt lat="48.766736" lon="-1.178123">
        <ele>137.688</ele>
        <time>2026-08-24T15:22:06.999Z</time>
      </trkpt>
      <trkpt lat="48.766722" lon="-1.178106">
        <ele>137.625</ele>
        <time>2026-08-24T15:22:08.999Z</time>
      </trkpt>
      <trkpt lat="48.766708" lon="-1.178098">
        <ele>137.643</ele>
        <time>2026-08-24T15:22:09.999Z</time>
      </trkpt>
      <trkpt lat="48.766696" lon="-1.178094">
        <ele>137.621</ele>
        <time>2026-08-24T15:22:10.999Z</time>
      </trkpt>
      <trkpt lat="48.766685" lon="-1.178087">
        <ele>137.635</ele>
        <time>2026-08-24T15:22:11.999Z</time>
      </trkpt>
      <trkpt lat="48.766674" lon="-1.178074">
        <ele>137.662</ele>
        <time>2026-08-24T15:22:12.999Z</time>
      </trkpt>
      <trkpt lat="48.766667" lon="-1.178064">
        <ele>137.674</ele>
        <time>2026-08-24T15:22:13.999Z</time>
      </trkpt>
      <trkpt lat="48.766659" lon="-1.178055">
        <ele>137.632</ele>
        <time>2026-08-24T15:22:14.999Z</time>
      </trkpt>
      <trkpt lat="48.766648" lon="-1.178047">
        <ele>137.692</ele>
        <time>2026-08-24T15:22:15.999Z</time>
      </trkpt>
      <trkpt lat="48.766635" lon="-1.178039">
        <ele>137.611</ele>
        <time>2026-08-24T15:22:16.999Z</time>
      </trkpt>
      <trkpt lat="48.766623" lon="-1.178029">
        <ele>137.609</ele>
        <time>2026-08-24T15:22:17.999Z</time>
      </trkpt>
      <trkpt lat="48.766612" lon="-1.178017">
        <ele>137.625</ele>
        <time>2026-08-24T15:22:18.999Z</time>
      </trkpt>
      <trkpt lat="48.766600" lon="-1.178001">
        <ele>137.751</ele>
        <time>2026-08-24T15:22:19.999Z</time>
      </trkpt>
      <trkpt lat="48.766591" lon="-1.177991">
        <ele>137.884</ele>
        <time>2026-08-24T15:22:20.999Z</time>
      </trkpt>
      <trkpt lat="48.766583" lon="-1.177984">
        <ele>138.121</ele>
        <time>2026-08-24T15:22:21.999Z</time>
      </trkpt>
      <trkpt lat="48.766568" lon="-1.177978">
        <ele>138.869</ele>
        <time>2026-08-24T15:22:23.999Z</time>
      </trkpt>
      <trkpt lat="48.766560" lon="-1.177963">
        <ele>139.317</ele>
        <time>2026-08-24T15:22:24.999Z</time>
      </trkpt>
      <trkpt lat="48.766548" lon="-1.177956">
        <ele>139.641</ele>
        <time>2026-08-24T15:22:25.999Z</time>
      </trkpt>
      <trkpt lat="48.766538" lon="-1.177948">
        <ele>139.898</ele>
        <time>2026-08-24T15:22:26.999Z</time>
      </trkpt>
      <trkpt lat="48.766528" lon="-1.177934">
        <ele>139.810</ele>
        <time>2026-08-24T15:22:27.999Z</time>
      </trkpt>
      <trkpt lat="48.766517" lon="-1.177923">
        <ele>139.853</ele>
        <time>2026-08-24T15:22:28.999Z</time>
      </trkpt>
      <trkpt lat="48.766505" lon="-1.177913">
        <ele>139.804</ele>
        <time>2026-08-24T15:22:29.999Z</time>
      </trkpt>
      <trkpt lat="48.766489" lon="-1.177894">
        <ele>139.814</ele>
        <time>2026-08-24T15:22:30.999Z</time>
      </trkpt>
      <trkpt lat="48.766476" lon="-1.177886">
        <ele>139.809</ele>
        <time>2026-08-24T15:22:31.999Z</time>
      </trkpt>
      <trkpt lat="48.766467" lon="-1.177881">
        <ele>139.937</ele>
        <time>2026-08-24T15:22:32.999Z</time>
      </trkpt>
      <trkpt lat="48.766453" lon="-1.177874">
        <ele>139.923</ele>
        <time>2026-08-24T15:22:33.999Z</time>
      </trkpt>
      <trkpt lat="48.766446" lon="-1.177850">
        <ele>139.936</ele>
        <time>2026-08-24T15:22:34.999Z</time>
      </trkpt>
      <trkpt lat="48.766434" lon="-1.177834">
        <ele>139.983</ele>
        <time>2026-08-24T15:22:35.999Z</time>
      </trkpt>
      <trkpt lat="48.766424" lon="-1.177823">
        <ele>140.011</ele>
        <time>2026-08-24T15:22:36.999Z</time>
      </trkpt>
      <trkpt lat="48.766415" lon="-1.177817">
        <ele>140.099</ele>
        <time>2026-08-24T15:22:37.999Z</time>
      </trkpt>
      <trkpt lat="48.766404" lon="-1.177805">
        <ele>140.053</ele>
        <time>2026-08-24T15:22:38.999Z</time>
      </trkpt>
      <trkpt lat="48.766395" lon="-1.177797">
        <ele>140.080</ele>
        <time>2026-08-24T15:22:39.999Z</time>
      </trkpt>
      <trkpt lat="48.766386" lon="-1.177788">
        <ele>140.032</ele>
        <time>2026-08-24T15:22:40.999Z</time>
      </trkpt>
      <trkpt lat="48.766374" lon="-1.177781">
        <ele>140.037</ele>
        <time>2026-08-24T15:22:42.999Z</time>
      </trkpt>
      <trkpt lat="48.766364" lon="-1.177771">
        <ele>140.149</ele>
        <time>2026-08-24T15:22:43.999Z</time>
      </trkpt>
      <trkpt lat="48.766350" lon="-1.177762">
        <ele>140.013</ele>
        <time>2026-08-24T15:22:44.999Z</time>
      </trkpt>
      <trkpt lat="48.766337" lon="-1.177754">
        <ele>140.009</ele>
        <time>2026-08-24T15:22:45.999Z</time>
      </trkpt>
      <trkpt lat="48.766328" lon="-1.177745">
        <ele>140.065</ele>
        <time>2026-08-24T15:22:46.999Z</time>
      </trkpt>
      <trkpt lat="48.766319" lon="-1.177741">
        <ele>140.081</ele>
        <time>2026-08-24T15:22:47.999Z</time>
      </trkpt>
      <trkpt lat="48.766303" lon="-1.177726">
        <ele>139.974</ele>
        <time>2026-08-24T15:22:49.999Z</time>
      </trkpt>
      <trkpt lat="48.766295" lon="-1.177716">
        <ele>139.991</ele>
        <time>2026-08-24T15:22:50.999Z</time>
      </trkpt>
      <trkpt lat="48.766284" lon="-1.177710">
        <ele>139.949</ele>
        <time>2026-08-24T15:22:51.999Z</time>
      </trkpt>
      <trkpt lat="48.766270" lon="-1.177703">
        <ele>139.917</ele>
        <time>2026-08-24T15:22:52.999Z</time>
      </trkpt>
      <trkpt lat="48.766260" lon="-1.177697">
        <ele>139.931</ele>
        <time>2026-08-24T15:22:53.999Z</time>
      </trkpt>
      <trkpt lat="48.766245" lon="-1.177688">
        <ele>139.868</ele>
        <time>2026-08-24T15:22:55.999Z</time>
      </trkpt>
      <trkpt lat="48.766228" lon="-1.177673">
        <ele>139.820</ele>
        <time>2026-08-24T15:22:57.999Z</time>
      </trkpt>
      <trkpt lat="48.766217" lon="-1.177667">
        <ele>139.896</ele>
        <time>2026-08-24T15:22:58.999Z</time>
      </trkpt>
      <trkpt lat="48.766208" lon="-1.177663">
        <ele>139.831</ele>
        <time>2026-08-24T15:22:59.999Z</time>
      </trkpt>
      <trkpt lat="48.766197" lon="-1.177661">
        <ele>139.824</ele>
        <time>2026-08-24T15:23:00.999Z</time>
      </trkpt>
      <trkpt lat="48.766181" lon="-1.177645">
        <ele>139.809</ele>
        <time>2026-08-24T15:23:02.999Z</time>
      </trkpt>
      <trkpt lat="48.766170" lon="-1.177642">
        <ele>139.861</ele>
        <time>2026-08-24T15:23:03.999Z</time>
      </trkpt>
      <trkpt lat="48.766160" lon="-1.177638">
        <ele>139.767</ele>
        <time>2026-08-24T15:23:04.999Z</time>
      </trkpt>
      <trkpt lat="48.766148" lon="-1.177638">
        <ele>139.690</ele>
        <time>2026-08-24T15:23:05.999Z</time>
      </trkpt>
      <trkpt lat="48.766137" lon="-1.177634">
        <ele>139.637</ele>
        <time>2026-08-24T15:23:06.999Z</time>
      </trkpt>
      <trkpt lat="48.766125" lon="-1.177634">
        <ele>139.625</ele>
        <time>2026-08-24T15:23:07.999Z</time>
      </trkpt>
      <trkpt lat="48.766107" lon="-1.177633">
        <ele>139.443</ele>
        <time>2026-08-24T15:23:09.999Z</time>
      </trkpt>
      <trkpt lat="48.766095" lon="-1.177637">
        <ele>139.327</ele>
        <time>2026-08-24T15:23:10.999Z</time>
      </trkpt>
      <trkpt lat="48.766082" lon="-1.177635">
        <ele>139.184</ele>
        <time>2026-08-24T15:23:11.999Z</time>
      </trkpt>
      <trkpt lat="48.766072" lon="-1.177635">
        <ele>138.816</ele>
        <time>2026-08-24T15:23:12.999Z</time>
      </trkpt>
      <trkpt lat="48.766060" lon="-1.177634">
        <ele>138.336</ele>
        <time>2026-08-24T15:23:13.999Z</time>
      </trkpt>
      <trkpt lat="48.766050" lon="-1.177638">
        <ele>137.817</ele>
        <time>2026-08-24T15:23:14.999Z</time>
      </trkpt>
      <trkpt lat="48.766042" lon="-1.177633">
        <ele>137.518</ele>
        <time>2026-08-24T15:23:15.999Z</time>
      </trkpt>
      <trkpt lat="48.766032" lon="-1.177625">
        <ele>137.409</ele>
        <time>2026-08-24T15:23:16.999Z</time>
      </trkpt>
      <trkpt lat="48.766021" lon="-1.177619">
        <ele>137.385</ele>
        <time>2026-08-24T15:23:17.999Z</time>
      </trkpt>
      <trkpt lat="48.766006" lon="-1.177615">
        <ele>137.121</ele>
        <time>2026-08-24T15:23:18.999Z</time>
      </trkpt>
      <trkpt lat="48.765994" lon="-1.177611">
        <ele>137.024</ele>
        <time>2026-08-24T15:23:19.999Z</time>
      </trkpt>
      <trkpt lat="48.765983" lon="-1.177611">
        <ele>136.961</ele>
        <time>2026-08-24T15:23:20.999Z</time>
      </trkpt>
      <trkpt lat="48.765973" lon="-1.177612">
        <ele>136.969</ele>
        <time>2026-08-24T15:23:21.999Z</time>
      </trkpt>
      <trkpt lat="48.765964" lon="-1.177616">
        <ele>136.957</ele>
        <time>2026-08-24T15:23:22.999Z</time>
      </trkpt>
      <trkpt lat="48.765944" lon="-1.177614">
        <ele>136.981</ele>
        <time>2026-08-24T15:23:24.999Z</time>
      </trkpt>
      <trkpt lat="48.765930" lon="-1.177612">
        <ele>136.958</ele>
        <time>2026-08-24T15:23:25.999Z</time>
      </trkpt>
      <trkpt lat="48.765919" lon="-1.177610">
        <ele>136.850</ele>
        <time>2026-08-24T15:23:26.999Z</time>
      </trkpt>
      <trkpt lat="48.765909" lon="-1.177612">
        <ele>136.353</ele>
        <time>2026-08-24T15:23:27.999Z</time>
      </trkpt>
      <trkpt lat="48.765899" lon="-1.177609">
        <ele>135.904</ele>
        <time>2026-08-24T15:23:28.999Z</time>
      </trkpt>
      <trkpt lat="48.765880" lon="-1.177604">
        <ele>135.714</ele>
        <time>2026-08-24T15:23:30.999Z</time>
      </trkpt>
      <trkpt lat="48.765864" lon="-1.177600">
        <ele>135.709</ele>
        <time>2026-08-24T15:23:31.999Z</time>
      </trkpt>
      <trkpt lat="48.765851" lon="-1.177595">
        <ele>135.567</ele>
        <time>2026-08-24T15:23:32.999Z</time>
      </trkpt>
      <trkpt lat="48.765840" lon="-1.177590">
        <ele>135.473</ele>
        <time>2026-08-24T15:23:33.999Z</time>
      </trkpt>
      <trkpt lat="48.765828" lon="-1.177587">
        <ele>135.246</ele>
        <time>2026-08-24T15:23:34.999Z</time>
      </trkpt>
      <trkpt lat="48.765819" lon="-1.177583">
        <ele>134.923</ele>
        <time>2026-08-24T15:23:35.999Z</time>
      </trkpt>
      <trkpt lat="48.765809" lon="-1.177583">
        <ele>134.781</ele>
        <time>2026-08-24T15:23:36.999Z</time>
      </trkpt>
      <trkpt lat="48.765797" lon="-1.177579">
        <ele>134.549</ele>
        <time>2026-08-24T15:23:37.999Z</time>
      </trkpt>
      <trkpt lat="48.765783" lon="-1.177574">
        <ele>134.263</ele>
        <time>2026-08-24T15:23:38.999Z</time>
      </trkpt>
      <trkpt lat="48.765771" lon="-1.177574">
        <ele>134.020</ele>
        <time>2026-08-24T15:23:39.999Z</time>
      </trkpt>
      <trkpt lat="48.765761" lon="-1.177574">
        <ele>133.782</ele>
        <time>2026-08-24T15:23:40.999Z</time>
      </trkpt>
      <trkpt lat="48.765742" lon="-1.177575">
        <ele>133.562</ele>
        <time>2026-08-24T15:23:42.999Z</time>
      </trkpt>
      <trkpt lat="48.765723" lon="-1.177568">
        <ele>133.383</ele>
        <time>2026-08-24T15:23:44.999Z</time>
      </trkpt>
      <trkpt lat="48.765711" lon="-1.177567">
        <ele>133.211</ele>
        <time>2026-08-24T15:23:45.999Z</time>
      </trkpt>
      <trkpt lat="48.765698" lon="-1.177560">
        <ele>133.209</ele>
        <time>2026-08-24T15:23:46.999Z</time>
      </trkpt>
      <trkpt lat="48.765687" lon="-1.177557">
        <ele>133.148</ele>
        <time>2026-08-24T15:23:47.999Z</time>
      </trkpt>
      <trkpt lat="48.765677" lon="-1.177551">
        <ele>133.184</ele>
        <time>2026-08-24T15:23:48.999Z</time>
      </trkpt>
      <trkpt lat="48.765668" lon="-1.177546">
        <ele>133.137</ele>
        <time>2026-08-24T15:23:49.999Z</time>
      </trkpt>
      <trkpt lat="48.765657" lon="-1.177548">
        <ele>133.154</ele>
        <time>2026-08-24T15:23:50.999Z</time>
      </trkpt>
      <trkpt lat="48.765644" lon="-1.177550">
        <ele>133.112</ele>
        <time>2026-08-24T15:23:51.999Z</time>
      </trkpt>
      <trkpt lat="48.765632" lon="-1.177551">
        <ele>133.120</ele>
        <time>2026-08-24T15:23:52.999Z</time>
      </trkpt>
      <trkpt lat="48.765622" lon="-1.177551">
        <ele>133.014</ele>
        <time>2026-08-24T15:23:53.999Z</time>
      </trkpt>
      <trkpt lat="48.765603" lon="-1.177548">
        <ele>132.991</ele>
        <time>2026-08-24T15:23:55.999Z</time>
      </trkpt>
      <trkpt lat="48.765594" lon="-1.177545">
        <ele>132.893</ele>
        <time>2026-08-24T15:23:56.999Z</time>
      </trkpt>
      <trkpt lat="48.765582" lon="-1.177545">
        <ele>132.753</ele>
        <time>2026-08-24T15:23:57.999Z</time>
      </trkpt>
      <trkpt lat="48.765568" lon="-1.177539">
        <ele>132.604</ele>
        <time>2026-08-24T15:23:58.999Z</time>
      </trkpt>
      <trkpt lat="48.765554" lon="-1.177533">
        <ele>132.214</ele>
        <time>2026-08-24T15:23:59.999Z</time>
      </trkpt>
      <trkpt lat="48.765542" lon="-1.177529">
        <ele>131.909</ele>
        <time>2026-08-24T15:24:00.999Z</time>
      </trkpt>
      <trkpt lat="48.765532" lon="-1.177522">
        <ele>131.817</ele>
        <time>2026-08-24T15:24:01.999Z</time>
      </trkpt>
      <trkpt lat="48.765523" lon="-1.177516">
        <ele>131.833</ele>
        <time>2026-08-24T15:24:02.999Z</time>
      </trkpt>
      <trkpt lat="48.765512" lon="-1.177510">
        <ele>131.776</ele>
        <time>2026-08-24T15:24:03.999Z</time>
      </trkpt>
      <trkpt lat="48.765501" lon="-1.177500">
        <ele>131.713</ele>
        <time>2026-08-24T15:24:04.999Z</time>
      </trkpt>
      <trkpt lat="48.765489" lon="-1.177490">
        <ele>131.791</ele>
        <time>2026-08-24T15:24:05.999Z</time>
      </trkpt>
      <trkpt lat="48.765477" lon="-1.177483">
        <ele>131.649</ele>
        <time>2026-08-24T15:24:06.999Z</time>
      </trkpt>
      <trkpt lat="48.765470" lon="-1.177475">
        <ele>131.613</ele>
        <time>2026-08-24T15:24:07.999Z</time>
      </trkpt>
      <trkpt lat="48.765453" lon="-1.177463">
        <ele>131.540</ele>
        <time>2026-08-24T15:24:09.999Z</time>
      </trkpt>
      <trkpt lat="48.765442" lon="-1.177455">
        <ele>131.312</ele>
        <time>2026-08-24T15:24:10.999Z</time>
      </trkpt>
      <trkpt lat="48.765432" lon="-1.177440">
        <ele>131.237</ele>
        <time>2026-08-24T15:24:11.999Z</time>
      </trkpt>
      <trkpt lat="48.765422" lon="-1.177428">
        <ele>131.149</ele>
        <time>2026-08-24T15:24:12.999Z</time>
      </trkpt>
      <trkpt lat="48.765413" lon="-1.177419">
        <ele>131.113</ele>
        <time>2026-08-24T15:24:13.999Z</time>
      </trkpt>
      <trkpt lat="48.765407" lon="-1.177405">
        <ele>131.109</ele>
        <time>2026-08-24T15:24:14.999Z</time>
      </trkpt>
      <trkpt lat="48.765402" lon="-1.177391">
        <ele>131.095</ele>
        <time>2026-08-24T15:24:15.999Z</time>
      </trkpt>
      <trkpt lat="48.765396" lon="-1.177378">
        <ele>131.081</ele>
        <time>2026-08-24T15:24:16.999Z</time>
      </trkpt>
      <trkpt lat="48.765386" lon="-1.177369">
        <ele>130.984</ele>
        <time>2026-08-24T15:24:17.999Z</time>
      </trkpt>
      <trkpt lat="48.765376" lon="-1.177351">
        <ele>130.961</ele>
        <time>2026-08-24T15:24:18.999Z</time>
      </trkpt>
      <trkpt lat="48.765369" lon="-1.177333">
        <ele>130.919</ele>
        <time>2026-08-24T15:24:19.999Z</time>
      </trkpt>
      <trkpt lat="48.765360" lon="-1.177321">
        <ele>130.627</ele>
        <time>2026-08-24T15:24:20.999Z</time>
      </trkpt>
      <trkpt lat="48.765354" lon="-1.177308">
        <ele>130.341</ele>
        <time>2026-08-24T15:24:21.999Z</time>
      </trkpt>
      <trkpt lat="48.765350" lon="-1.177291">
        <ele>130.218</ele>
        <time>2026-08-24T15:24:22.999Z</time>
      </trkpt>
      <trkpt lat="48.765344" lon="-1.177274">
        <ele>130.010</ele>
        <time>2026-08-24T15:24:23.999Z</time>
      </trkpt>
      <trkpt lat="48.765339" lon="-1.177258">
        <ele>129.993</ele>
        <time>2026-08-24T15:24:24.999Z</time>
      </trkpt>
      <trkpt lat="48.765334" lon="-1.177242">
        <ele>129.865</ele>
        <time>2026-08-24T15:24:25.999Z</time>
      </trkpt>
      <trkpt lat="48.765329" lon="-1.177218">
        <ele>129.821</ele>
        <time>2026-08-24T15:24:27.999Z</time>
      </trkpt>
      <trkpt lat="48.765324" lon="-1.177195">
        <ele>129.809</ele>
        <time>2026-08-24T15:24:28.999Z</time>
      </trkpt>
      <trkpt lat="48.765321" lon="-1.177178">
        <ele>129.881</ele>
        <time>2026-08-24T15:24:29.999Z</time>
      </trkpt>
      <trkpt lat="48.765317" lon="-1.177156">
        <ele>129.837</ele>
        <time>2026-08-24T15:24:30.999Z</time>
      </trkpt>
      <trkpt lat="48.765313" lon="-1.177137">
        <ele>129.870</ele>
        <time>2026-08-24T15:24:31.999Z</time>
      </trkpt>
      <trkpt lat="48.765305" lon="-1.177122">
        <ele>129.867</ele>
        <time>2026-08-24T15:24:32.999Z</time>
      </trkpt>
      <trkpt lat="48.765302" lon="-1.177106">
        <ele>129.785</ele>
        <time>2026-08-24T15:24:33.999Z</time>
      </trkpt>
      <trkpt lat="48.765299" lon="-1.177071">
        <ele>129.743</ele>
        <time>2026-08-24T15:24:35.999Z</time>
      </trkpt>
      <trkpt lat="48.765295" lon="-1.177052">
        <ele>129.717</ele>
        <time>2026-08-24T15:24:36.999Z</time>
      </trkpt>
      <trkpt lat="48.765292" lon="-1.177029">
        <ele>129.724</ele>
        <time>2026-08-24T15:24:37.999Z</time>
      </trkpt>
      <trkpt lat="48.765291" lon="-1.177011">
        <ele>129.796</ele>
        <time>2026-08-24T15:24:38.999Z</time>
      </trkpt>
      <trkpt lat="48.765289" lon="-1.176989">
        <ele>129.777</ele>
        <time>2026-08-24T15:24:40.999Z</time>
      </trkpt>
      <trkpt lat="48.765288" lon="-1.176968">
        <ele>129.761</ele>
        <time>2026-08-24T15:24:41.999Z</time>
      </trkpt>
      <trkpt lat="48.765285" lon="-1.176944">
        <ele>129.727</ele>
        <time>2026-08-24T15:24:42.999Z</time>
      </trkpt>
      <trkpt lat="48.765285" lon="-1.176923">
        <ele>129.709</ele>
        <time>2026-08-24T15:24:43.999Z</time>
      </trkpt>
      <trkpt lat="48.765285" lon="-1.176903">
        <ele>129.759</ele>
        <time>2026-08-24T15:24:44.999Z</time>
      </trkpt>
      <trkpt lat="48.765284" lon="-1.176888">
        <ele>129.795</ele>
        <time>2026-08-24T15:24:45.999Z</time>
      </trkpt>
      <trkpt lat="48.765286" lon="-1.176874">
        <ele>129.798</ele>
        <time>2026-08-24T15:24:46.999Z</time>
      </trkpt>
      <trkpt lat="48.765283" lon="-1.176860">
        <ele>129.755</ele>
        <time>2026-08-24T15:24:47.999Z</time>
      </trkpt>
      <trkpt lat="48.765283" lon="-1.176841">
        <ele>129.613</ele>
        <time>2026-08-24T15:24:48.999Z</time>
      </trkpt>
      <trkpt lat="48.765279" lon="-1.176821">
        <ele>129.621</ele>
        <time>2026-08-24T15:24:49.999Z</time>
      </trkpt>
      <trkpt lat="48.765280" lon="-1.176806">
        <ele>129.665</ele>
        <time>2026-08-24T15:24:50.999Z</time>
      </trkpt>
      <trkpt lat="48.765281" lon="-1.176786">
        <ele>129.682</ele>
        <time>2026-08-24T15:24:51.999Z</time>
      </trkpt>
      <trkpt lat="48.765279" lon="-1.176770">
        <ele>129.654</ele>
        <time>2026-08-24T15:24:52.999Z</time>
      </trkpt>
      <trkpt lat="48.765280" lon="-1.176754">
        <ele>129.675</ele>
        <time>2026-08-24T15:24:53.999Z</time>
      </trkpt>
      <trkpt lat="48.765280" lon="-1.176734">
        <ele>129.628</ele>
        <time>2026-08-24T15:24:54.999Z</time>
      </trkpt>
      <trkpt lat="48.765280" lon="-1.176716">
        <ele>129.720</ele>
        <time>2026-08-24T15:24:55.999Z</time>
      </trkpt>
      <trkpt lat="48.765283" lon="-1.176698">
        <ele>129.709</ele>
        <time>2026-08-24T15:24:56.999Z</time>
      </trkpt>
      <trkpt lat="48.765284" lon="-1.176680">
        <ele>129.779</ele>
        <time>2026-08-24T15:24:57.999Z</time>
      </trkpt>
      <trkpt lat="48.765286" lon="-1.176664">
        <ele>129.785</ele>
        <time>2026-08-24T15:24:58.999Z</time>
      </trkpt>
      <trkpt lat="48.765287" lon="-1.176645">
        <ele>129.768</ele>
        <time>2026-08-24T15:24:59.999Z</time>
      </trkpt>
      <trkpt lat="48.765287" lon="-1.176627">
        <ele>129.745</ele>
        <time>2026-08-24T15:25:00.999Z</time>
      </trkpt>
      <trkpt lat="48.765285" lon="-1.176606">
        <ele>129.783</ele>
        <time>2026-08-24T15:25:01.999Z</time>
      </trkpt>
      <trkpt lat="48.765283" lon="-1.176590">
        <ele>129.711</ele>
        <time>2026-08-24T15:25:02.999Z</time>
      </trkpt>
      <trkpt lat="48.765279" lon="-1.176570">
        <ele>129.785</ele>
        <time>2026-08-24T15:25:03.999Z</time>
      </trkpt>
      <trkpt lat="48.765275" lon="-1.176549">
        <ele>129.772</ele>
        <time>2026-08-24T15:25:04.999Z</time>
      </trkpt>
      <trkpt lat="48.765272" lon="-1.176530">
        <ele>129.714</ele>
        <time>2026-08-24T15:25:05.999Z</time>
      </trkpt>
      <trkpt lat="48.765273" lon="-1.176511">
        <ele>129.756</ele>
        <time>2026-08-24T15:25:06.999Z</time>
      </trkpt>
      <trkpt lat="48.765272" lon="-1.176495">
        <ele>129.959</ele>
        <time>2026-08-24T15:25:07.999Z</time>
      </trkpt>
      <trkpt lat="48.765270" lon="-1.176468">
        <ele>130.014</ele>
        <time>2026-08-24T15:25:09.999Z</time>
      </trkpt>
      <trkpt lat="48.765268" lon="-1.176452">
        <ele>130.109</ele>
        <time>2026-08-24T15:25:10.999Z</time>
      </trkpt>
      <trkpt lat="48.765266" lon="-1.176437">
        <ele>130.167</ele>
        <time>2026-08-24T15:25:11.999Z</time>
      </trkpt>
      <trkpt lat="48.765265" lon="-1.176420">
        <ele>130.143</ele>
        <time>2026-08-24T15:25:12.999Z</time>
      </trkpt>
      <trkpt lat="48.765265" lon="-1.176401">
        <ele>130.116</ele>
        <time>2026-08-24T15:25:13.999Z</time>
      </trkpt>
      <trkpt lat="48.765269" lon="-1.176383">
        <ele>130.383</ele>
        <time>2026-08-24T15:25:14.999Z</time>
      </trkpt>
      <trkpt lat="48.765268" lon="-1.176367">
        <ele>130.511</ele>
        <time>2026-08-24T15:25:15.999Z</time>
      </trkpt>
      <trkpt lat="48.765269" lon="-1.176340">
        <ele>130.759</ele>
        <time>2026-08-24T15:25:17.999Z</time>
      </trkpt>
      <trkpt lat="48.765270" lon="-1.176322">
        <ele>130.993</ele>
        <time>2026-08-24T15:25:18.999Z</time>
      </trkpt>
      <trkpt lat="48.765271" lon="-1.176303">
        <ele>130.980</ele>
        <time>2026-08-24T15:25:19.999Z</time>
      </trkpt>
      <trkpt lat="48.765271" lon="-1.176285">
        <ele>131.032</ele>
        <time>2026-08-24T15:25:20.999Z</time>
      </trkpt>
      <trkpt lat="48.765268" lon="-1.176269">
        <ele>131.141</ele>
        <time>2026-08-24T15:25:21.999Z</time>
      </trkpt>
      <trkpt lat="48.765266" lon="-1.176251">
        <ele>131.281</ele>
        <time>2026-08-24T15:25:22.999Z</time>
      </trkpt>
      <trkpt lat="48.765265" lon="-1.176233">
        <ele>131.509</ele>
        <time>2026-08-24T15:25:23.999Z</time>
      </trkpt>
      <trkpt lat="48.765267" lon="-1.176215">
        <ele>131.809</ele>
        <time>2026-08-24T15:25:24.999Z</time>
      </trkpt>
      <trkpt lat="48.765266" lon="-1.176197">
        <ele>132.026</ele>
        <time>2026-08-24T15:25:25.999Z</time>
      </trkpt>
      <trkpt lat="48.765264" lon="-1.176183">
        <ele>132.272</ele>
        <time>2026-08-24T15:25:26.999Z</time>
      </trkpt>
      <trkpt lat="48.765260" lon="-1.176168">
        <ele>132.415</ele>
        <time>2026-08-24T15:25:27.999Z</time>
      </trkpt>
      <trkpt lat="48.765257" lon="-1.176153">
        <ele>132.652</ele>
        <time>2026-08-24T15:25:28.999Z</time>
      </trkpt>
      <trkpt lat="48.765251" lon="-1.176138">
        <ele>132.850</ele>
        <time>2026-08-24T15:25:29.999Z</time>
      </trkpt>
      <trkpt lat="48.765245" lon="-1.176123">
        <ele>132.828</ele>
        <time>2026-08-24T15:25:30.999Z</time>
      </trkpt>
      <trkpt lat="48.765240" lon="-1.176107">
        <ele>132.912</ele>
        <time>2026-08-24T15:25:31.999Z</time>
      </trkpt>
      <trkpt lat="48.765239" lon="-1.176086">
        <ele>133.199</ele>
        <time>2026-08-24T15:25:32.999Z</time>
      </trkpt>
      <trkpt lat="48.765235" lon="-1.176067">
        <ele>133.121</ele>
        <time>2026-08-24T15:25:33.999Z</time>
      </trkpt>
      <trkpt lat="48.765232" lon="-1.176053">
        <ele>133.193</ele>
        <time>2026-08-24T15:25:34.999Z</time>
      </trkpt>
      <trkpt lat="48.765226" lon="-1.176035">
        <ele>133.265</ele>
        <time>2026-08-24T15:25:35.999Z</time>
      </trkpt>
      <trkpt lat="48.765226" lon="-1.176019">
        <ele>133.221</ele>
        <time>2026-08-24T15:25:36.999Z</time>
      </trkpt>
      <trkpt lat="48.765226" lon="-1.176001">
        <ele>133.209</ele>
        <time>2026-08-24T15:25:37.999Z</time>
      </trkpt>
      <trkpt lat="48.765223" lon="-1.175981">
        <ele>133.251</ele>
        <time>2026-08-24T15:25:38.999Z</time>
      </trkpt>
      <trkpt lat="48.765225" lon="-1.175962">
        <ele>133.347</ele>
        <time>2026-08-24T15:25:39.999Z</time>
      </trkpt>
      <trkpt lat="48.765224" lon="-1.175945">
        <ele>133.320</ele>
        <time>2026-08-24T15:25:40.999Z</time>
      </trkpt>
      <trkpt lat="48.765226" lon="-1.175929">
        <ele>133.427</ele>
        <time>2026-08-24T15:25:41.999Z</time>
      </trkpt>
      <trkpt lat="48.765224" lon="-1.175913">
        <ele>133.525</ele>
        <time>2026-08-24T15:25:42.999Z</time>
      </trkpt>
      <trkpt lat="48.765218" lon="-1.175893">
        <ele>133.733</ele>
        <time>2026-08-24T15:25:43.999Z</time>
      </trkpt>
      <trkpt lat="48.765218" lon="-1.175871">
        <ele>133.867</ele>
        <time>2026-08-24T15:25:44.999Z</time>
      </trkpt>
      <trkpt lat="48.765213" lon="-1.175854">
        <ele>133.824</ele>
        <time>2026-08-24T15:25:45.999Z</time>
      </trkpt>
      <trkpt lat="48.765209" lon="-1.175838">
        <ele>133.986</ele>
        <time>2026-08-24T15:25:46.999Z</time>
      </trkpt>
      <trkpt lat="48.765204" lon="-1.175827">
        <ele>134.115</ele>
        <time>2026-08-24T15:25:47.999Z</time>
      </trkpt>
      <trkpt lat="48.765190" lon="-1.175799">
        <ele>134.465</ele>
        <time>2026-08-24T15:25:49.999Z</time>
      </trkpt>
      <trkpt lat="48.765182" lon="-1.175781">
        <ele>134.711</ele>
        <time>2026-08-24T15:25:50.999Z</time>
      </trkpt>
      <trkpt lat="48.765176" lon="-1.175761">
        <ele>134.809</ele>
        <time>2026-08-24T15:25:51.999Z</time>
      </trkpt>
      <trkpt lat="48.765171" lon="-1.175744">
        <ele>135.083</ele>
        <time>2026-08-24T15:25:52.999Z</time>
      </trkpt>
      <trkpt lat="48.765163" lon="-1.175727">
        <ele>135.269</ele>
        <time>2026-08-24T15:25:53.999Z</time>
      </trkpt>
      <trkpt lat="48.765157" lon="-1.175712">
        <ele>135.392</ele>
        <time>2026-08-24T15:25:54.999Z</time>
      </trkpt>
      <trkpt lat="48.765154" lon="-1.175692">
        <ele>135.429</ele>
        <time>2026-08-24T15:25:55.999Z</time>
      </trkpt>
      <trkpt lat="48.765152" lon="-1.175670">
        <ele>135.557</ele>
        <time>2026-08-24T15:25:56.999Z</time>
      </trkpt>
      <trkpt lat="48.765150" lon="-1.175652">
        <ele>135.775</ele>
        <time>2026-08-24T15:25:57.999Z</time>
      </trkpt>
      <trkpt lat="48.765150" lon="-1.175636">
        <ele>135.829</ele>
        <time>2026-08-24T15:25:58.999Z</time>
      </trkpt>
      <trkpt lat="48.765138" lon="-1.175608">
        <ele>135.946</ele>
        <time>2026-08-24T15:26:00.999Z</time>
      </trkpt>
      <trkpt lat="48.765133" lon="-1.175591">
        <ele>135.958</ele>
        <time>2026-08-24T15:26:01.999Z</time>
      </trkpt>
      <trkpt lat="48.765126" lon="-1.175579">
        <ele>136.089</ele>
        <time>2026-08-24T15:26:02.999Z</time>
      </trkpt>
      <trkpt lat="48.765123" lon="-1.175566">
        <ele>136.006</ele>
        <time>2026-08-24T15:26:03.999Z</time>
      </trkpt>
      <trkpt lat="48.765122" lon="-1.175547">
        <ele>136.026</ele>
        <time>2026-08-24T15:26:04.999Z</time>
      </trkpt>
      <trkpt lat="48.765122" lon="-1.175532">
        <ele>136.009</ele>
        <time>2026-08-24T15:26:05.999Z</time>
      </trkpt>
      <trkpt lat="48.765115" lon="-1.175511">
        <ele>136.020</ele>
        <time>2026-08-24T15:26:06.999Z</time>
      </trkpt>
      <trkpt lat="48.765108" lon="-1.175492">
        <ele>136.136</ele>
        <time>2026-08-24T15:26:07.999Z</time>
      </trkpt>
      <trkpt lat="48.765099" lon="-1.175476">
        <ele>136.189</ele>
        <time>2026-08-24T15:26:08.999Z</time>
      </trkpt>
      <trkpt lat="48.765092" lon="-1.175462">
        <ele>136.226</ele>
        <time>2026-08-24T15:26:09.999Z</time>
      </trkpt>
      <trkpt lat="48.765088" lon="-1.175434">
        <ele>136.354</ele>
        <time>2026-08-24T15:26:11.999Z</time>
      </trkpt>
      <trkpt lat="48.765083" lon="-1.175418">
        <ele>136.362</ele>
        <time>2026-08-24T15:26:12.999Z</time>
      </trkpt>
      <trkpt lat="48.765078" lon="-1.175396">
        <ele>136.526</ele>
        <time>2026-08-24T15:26:13.999Z</time>
      </trkpt>
      <trkpt lat="48.765076" lon="-1.175377">
        <ele>136.653</ele>
        <time>2026-08-24T15:26:14.999Z</time>
      </trkpt>
      <trkpt lat="48.765074" lon="-1.175362">
        <ele>136.645</ele>
        <time>2026-08-24T15:26:15.999Z</time>
      </trkpt>
      <trkpt lat="48.765076" lon="-1.175332">
        <ele>136.839</ele>
        <time>2026-08-24T15:26:17.999Z</time>
      </trkpt>
      <trkpt lat="48.765075" lon="-1.175317">
        <ele>137.001</ele>
        <time>2026-08-24T15:26:18.999Z</time>
      </trkpt>
      <trkpt lat="48.765070" lon="-1.175299">
        <ele>137.121</ele>
        <time>2026-08-24T15:26:19.999Z</time>
      </trkpt>
      <trkpt lat="48.765067" lon="-1.175283">
        <ele>137.109</ele>
        <time>2026-08-24T15:26:20.999Z</time>
      </trkpt>
      <trkpt lat="48.765064" lon="-1.175266">
        <ele>137.215</ele>
        <time>2026-08-24T15:26:21.999Z</time>
      </trkpt>
      <trkpt lat="48.765063" lon="-1.175248">
        <ele>137.261</ele>
        <time>2026-08-24T15:26:22.999Z</time>
      </trkpt>
      <trkpt lat="48.765065" lon="-1.175232">
        <ele>137.214</ele>
        <time>2026-08-24T15:26:23.999Z</time>
      </trkpt>
      <trkpt lat="48.765066" lon="-1.175212">
        <ele>137.291</ele>
        <time>2026-08-24T15:26:24.999Z</time>
      </trkpt>
      <trkpt lat="48.765066" lon="-1.175192">
        <ele>137.259</ele>
        <time>2026-08-24T15:26:25.999Z</time>
      </trkpt>
      <trkpt lat="48.765062" lon="-1.175172">
        <ele>137.217</ele>
        <time>2026-08-24T15:26:26.999Z</time>
      </trkpt>
      <trkpt lat="48.765058" lon="-1.175156">
        <ele>137.241</ele>
        <time>2026-08-24T15:26:27.999Z</time>
      </trkpt>
      <trkpt lat="48.765062" lon="-1.175135">
        <ele>137.278</ele>
        <time>2026-08-24T15:26:29.999Z</time>
      </trkpt>
      <trkpt lat="48.765068" lon="-1.175120">
        <ele>137.220</ele>
        <time>2026-08-24T15:26:30.999Z</time>
      </trkpt>
      <trkpt lat="48.765079" lon="-1.175108">
        <ele>137.296</ele>
        <time>2026-08-24T15:26:32.999Z</time>
      </trkpt>
      <trkpt lat="48.765086" lon="-1.175098">
        <ele>137.231</ele>
        <time>2026-08-24T15:26:41.999Z</time>
      </trkpt>
      <trkpt lat="48.765093" lon="-1.175085">
        <ele>137.224</ele>
        <time>2026-08-24T15:26:42.999Z</time>
      </trkpt>
      <trkpt lat="48.765095" lon="-1.175070">
        <ele>137.209</ele>
        <time>2026-08-24T15:26:43.999Z</time>
      </trkpt>
      <trkpt lat="48.765100" lon="-1.175057">
        <ele>137.251</ele>
        <time>2026-08-24T15:26:44.999Z</time>
      </trkpt>
      <trkpt lat="48.765108" lon="-1.175046">
        <ele>137.237</ele>
        <time>2026-08-24T15:26:45.999Z</time>
      </trkpt>
      <trkpt lat="48.765117" lon="-1.175041">
        <ele>137.270</ele>
        <time>2026-08-24T15:26:46.999Z</time>
      </trkpt>
    </trkseg>
  </trk></gpx>